<?xml version="1.0" encoding="UTF-8" standalone="no" ?>
<gpx xmlns="http://www.topografix.com/GPX/1/1" xmlns:xsi="http://www.w3.org/2001/XMLSchema-instance" xsi:schemaLocation="http://www.topografix.com/GPX/1/1 http://www.topografix.com/GPX/1/1/gpx.xsd" version="1.1" creator="VisuGPX - https://www.visugpx.com">
  <metadata>
    <name>allingeoise 18 </name>
    <desc><![CDATA[allingeoise 18 ]]></desc>
  </metadata>
  <trk>
    <name><![CDATA[allingeoise 18 _1]]></name>
    <trkseg>
      <trkpt lat="46.33581" lon="6.46393">
        <ele>545</ele>
        <time>2012-11-24T09:39:55Z</time>
      </trkpt>
      <trkpt lat="46.33574" lon="6.46431">
        <ele>543</ele>
        <time>2012-11-24T09:40:10Z</time>
      </trkpt>
      <trkpt lat="46.33573" lon="6.46433">
        <ele>542</ele>
        <time>2012-11-24T09:40:11Z</time>
      </trkpt>
      <trkpt lat="46.33572" lon="6.46436">
        <ele>542</ele>
        <time>2012-11-24T09:40:12Z</time>
      </trkpt>
      <trkpt lat="46.3357" lon="6.46438">
        <ele>542</ele>
        <time>2012-11-24T09:40:13Z</time>
      </trkpt>
      <trkpt lat="46.33569" lon="6.4644">
        <ele>542</ele>
        <time>2012-11-24T09:40:14Z</time>
      </trkpt>
      <trkpt lat="46.33568" lon="6.46442">
        <ele>542</ele>
        <time>2012-11-24T09:40:15Z</time>
      </trkpt>
      <trkpt lat="46.33566" lon="6.46443">
        <ele>542</ele>
        <time>2012-11-24T09:40:16Z</time>
      </trkpt>
      <trkpt lat="46.33564" lon="6.46444">
        <ele>542</ele>
        <time>2012-11-24T09:40:17Z</time>
      </trkpt>
      <trkpt lat="46.33562" lon="6.46442">
        <ele>542</ele>
        <time>2012-11-24T09:40:18Z</time>
      </trkpt>
      <trkpt lat="46.33561" lon="6.4644">
        <ele>542</ele>
        <time>2012-11-24T09:40:19Z</time>
      </trkpt>
      <trkpt lat="46.33559" lon="6.46438">
        <ele>542</ele>
        <time>2012-11-24T09:40:20Z</time>
      </trkpt>
      <trkpt lat="46.33557" lon="6.46435">
        <ele>542</ele>
        <time>2012-11-24T09:40:21Z</time>
      </trkpt>
      <trkpt lat="46.33555" lon="6.46432">
        <ele>542</ele>
        <time>2012-11-24T09:40:22Z</time>
      </trkpt>
      <trkpt lat="46.33553" lon="6.46429">
        <ele>542</ele>
        <time>2012-11-24T09:40:23Z</time>
      </trkpt>
      <trkpt lat="46.33552" lon="6.46426">
        <ele>542</ele>
        <time>2012-11-24T09:40:24Z</time>
      </trkpt>
      <trkpt lat="46.3355" lon="6.46423">
        <ele>542</ele>
        <time>2012-11-24T09:40:25Z</time>
      </trkpt>
      <trkpt lat="46.33549" lon="6.46421">
        <ele>542</ele>
        <time>2012-11-24T09:40:26Z</time>
      </trkpt>
      <trkpt lat="46.33548" lon="6.46418">
        <ele>542</ele>
        <time>2012-11-24T09:40:27Z</time>
      </trkpt>
      <trkpt lat="46.33546" lon="6.46416">
        <ele>541</ele>
        <time>2012-11-24T09:40:28Z</time>
      </trkpt>
      <trkpt lat="46.33545" lon="6.46414">
        <ele>541</ele>
        <time>2012-11-24T09:40:29Z</time>
      </trkpt>
      <trkpt lat="46.33544" lon="6.46412">
        <ele>541</ele>
        <time>2012-11-24T09:40:30Z</time>
      </trkpt>
      <trkpt lat="46.33542" lon="6.46409">
        <ele>540</ele>
        <time>2012-11-24T09:40:31Z</time>
      </trkpt>
      <trkpt lat="46.33541" lon="6.46407">
        <ele>540</ele>
        <time>2012-11-24T09:40:32Z</time>
      </trkpt>
      <trkpt lat="46.3354" lon="6.46404">
        <ele>540</ele>
        <time>2012-11-24T09:40:33Z</time>
      </trkpt>
      <trkpt lat="46.33538" lon="6.46402">
        <ele>540</ele>
        <time>2012-11-24T09:40:35Z</time>
      </trkpt>
      <trkpt lat="46.33536" lon="6.464">
        <ele>540</ele>
        <time>2012-11-24T09:40:36Z</time>
      </trkpt>
      <trkpt lat="46.33534" lon="6.46398">
        <ele>540</ele>
        <time>2012-11-24T09:40:37Z</time>
      </trkpt>
      <trkpt lat="46.33531" lon="6.46396">
        <ele>540</ele>
        <time>2012-11-24T09:40:38Z</time>
      </trkpt>
      <trkpt lat="46.33529" lon="6.46394">
        <ele>540</ele>
        <time>2012-11-24T09:40:39Z</time>
      </trkpt>
      <trkpt lat="46.33527" lon="6.46391">
        <ele>540</ele>
        <time>2012-11-24T09:40:40Z</time>
      </trkpt>
      <trkpt lat="46.33525" lon="6.46389">
        <ele>540</ele>
        <time>2012-11-24T09:40:41Z</time>
      </trkpt>
      <trkpt lat="46.33524" lon="6.46388">
        <ele>540</ele>
        <time>2012-11-24T09:40:42Z</time>
      </trkpt>
      <trkpt lat="46.33523" lon="6.46386">
        <ele>540</ele>
        <time>2012-11-24T09:40:43Z</time>
      </trkpt>
      <trkpt lat="46.33523" lon="6.46382">
        <ele>540</ele>
        <time>2012-11-24T09:40:44Z</time>
      </trkpt>
      <trkpt lat="46.33522" lon="6.46378">
        <ele>541</ele>
        <time>2012-11-24T09:40:45Z</time>
      </trkpt>
      <trkpt lat="46.33521" lon="6.46374">
        <ele>541</ele>
        <time>2012-11-24T09:40:46Z</time>
      </trkpt>
      <trkpt lat="46.33519" lon="6.4637">
        <ele>541</ele>
        <time>2012-11-24T09:40:47Z</time>
      </trkpt>
      <trkpt lat="46.33516" lon="6.46365">
        <ele>541</ele>
        <time>2012-11-24T09:40:48Z</time>
      </trkpt>
      <trkpt lat="46.33514" lon="6.46361">
        <ele>542</ele>
        <time>2012-11-24T09:40:49Z</time>
      </trkpt>
      <trkpt lat="46.33512" lon="6.46357">
        <ele>542</ele>
        <time>2012-11-24T09:40:50Z</time>
      </trkpt>
      <trkpt lat="46.33512" lon="6.46353">
        <ele>543</ele>
        <time>2012-11-24T09:40:51Z</time>
      </trkpt>
      <trkpt lat="46.33511" lon="6.4635">
        <ele>543</ele>
        <time>2012-11-24T09:40:52Z</time>
      </trkpt>
      <trkpt lat="46.3351" lon="6.46347">
        <ele>543</ele>
        <time>2012-11-24T09:40:53Z</time>
      </trkpt>
      <trkpt lat="46.33509" lon="6.46345">
        <ele>544</ele>
        <time>2012-11-24T09:40:54Z</time>
      </trkpt>
      <trkpt lat="46.33507" lon="6.46342">
        <ele>544</ele>
        <time>2012-11-24T09:40:55Z</time>
      </trkpt>
      <trkpt lat="46.33506" lon="6.46339">
        <ele>544</ele>
        <time>2012-11-24T09:40:56Z</time>
      </trkpt>
      <trkpt lat="46.33504" lon="6.46337">
        <ele>544</ele>
        <time>2012-11-24T09:40:57Z</time>
      </trkpt>
      <trkpt lat="46.33503" lon="6.46333">
        <ele>544</ele>
        <time>2012-11-24T09:40:58Z</time>
      </trkpt>
      <trkpt lat="46.33501" lon="6.4633">
        <ele>544</ele>
        <time>2012-11-24T09:40:59Z</time>
      </trkpt>
      <trkpt lat="46.33499" lon="6.46326">
        <ele>545</ele>
        <time>2012-11-24T09:41:00Z</time>
      </trkpt>
      <trkpt lat="46.33498" lon="6.46323">
        <ele>545</ele>
        <time>2012-11-24T09:41:01Z</time>
      </trkpt>
      <trkpt lat="46.33498" lon="6.46321">
        <ele>546</ele>
        <time>2012-11-24T09:41:02Z</time>
      </trkpt>
      <trkpt lat="46.33499" lon="6.46319">
        <ele>546</ele>
        <time>2012-11-24T09:41:03Z</time>
      </trkpt>
      <trkpt lat="46.33499" lon="6.46317">
        <ele>547</ele>
        <time>2012-11-24T09:41:04Z</time>
      </trkpt>
      <trkpt lat="46.335" lon="6.46315">
        <ele>547</ele>
        <time>2012-11-24T09:41:05Z</time>
      </trkpt>
      <trkpt lat="46.33502" lon="6.46314">
        <ele>547</ele>
        <time>2012-11-24T09:41:06Z</time>
      </trkpt>
      <trkpt lat="46.33505" lon="6.46313">
        <ele>547</ele>
        <time>2012-11-24T09:41:07Z</time>
      </trkpt>
      <trkpt lat="46.33508" lon="6.46312">
        <ele>547</ele>
        <time>2012-11-24T09:41:08Z</time>
      </trkpt>
      <trkpt lat="46.33511" lon="6.4631">
        <ele>547</ele>
        <time>2012-11-24T09:41:09Z</time>
      </trkpt>
      <trkpt lat="46.33514" lon="6.46309">
        <ele>547</ele>
        <time>2012-11-24T09:41:10Z</time>
      </trkpt>
      <trkpt lat="46.33518" lon="6.46307">
        <ele>547</ele>
        <time>2012-11-24T09:41:11Z</time>
      </trkpt>
      <trkpt lat="46.3352" lon="6.46306">
        <ele>547</ele>
        <time>2012-11-24T09:41:12Z</time>
      </trkpt>
      <trkpt lat="46.33522" lon="6.46304">
        <ele>547</ele>
        <time>2012-11-24T09:41:13Z</time>
      </trkpt>
      <trkpt lat="46.33524" lon="6.46303">
        <ele>547</ele>
        <time>2012-11-24T09:41:14Z</time>
      </trkpt>
      <trkpt lat="46.33526" lon="6.46302">
        <ele>547</ele>
        <time>2012-11-24T09:41:15Z</time>
      </trkpt>
      <trkpt lat="46.33529" lon="6.46301">
        <ele>546</ele>
        <time>2012-11-24T09:41:16Z</time>
      </trkpt>
      <trkpt lat="46.33532" lon="6.463">
        <ele>546</ele>
        <time>2012-11-24T09:41:17Z</time>
      </trkpt>
      <trkpt lat="46.33534" lon="6.46299">
        <ele>545</ele>
        <time>2012-11-24T09:41:18Z</time>
      </trkpt>
      <trkpt lat="46.33536" lon="6.46298">
        <ele>545</ele>
        <time>2012-11-24T09:41:19Z</time>
      </trkpt>
      <trkpt lat="46.33538" lon="6.46297">
        <ele>545</ele>
        <time>2012-11-24T09:41:20Z</time>
      </trkpt>
      <trkpt lat="46.3354" lon="6.46295">
        <ele>544</ele>
        <time>2012-11-24T09:41:21Z</time>
      </trkpt>
      <trkpt lat="46.33543" lon="6.46294">
        <ele>544</ele>
        <time>2012-11-24T09:41:22Z</time>
      </trkpt>
      <trkpt lat="46.33545" lon="6.46294">
        <ele>544</ele>
        <time>2012-11-24T09:41:23Z</time>
      </trkpt>
      <trkpt lat="46.33548" lon="6.46293">
        <ele>543</ele>
        <time>2012-11-24T09:41:24Z</time>
      </trkpt>
      <trkpt lat="46.33551" lon="6.46293">
        <ele>543</ele>
        <time>2012-11-24T09:41:25Z</time>
      </trkpt>
      <trkpt lat="46.33553" lon="6.46292">
        <ele>543</ele>
        <time>2012-11-24T09:41:26Z</time>
      </trkpt>
      <trkpt lat="46.33555" lon="6.46292">
        <ele>543</ele>
        <time>2012-11-24T09:41:27Z</time>
      </trkpt>
      <trkpt lat="46.33557" lon="6.46292">
        <ele>542</ele>
        <time>2012-11-24T09:41:28Z</time>
      </trkpt>
      <trkpt lat="46.33559" lon="6.46294">
        <ele>541</ele>
        <time>2012-11-24T09:41:29Z</time>
      </trkpt>
      <trkpt lat="46.33561" lon="6.46296">
        <ele>541</ele>
        <time>2012-11-24T09:41:30Z</time>
      </trkpt>
      <trkpt lat="46.33563" lon="6.46299">
        <ele>540</ele>
        <time>2012-11-24T09:41:31Z</time>
      </trkpt>
      <trkpt lat="46.33564" lon="6.46301">
        <ele>540</ele>
        <time>2012-11-24T09:41:32Z</time>
      </trkpt>
      <trkpt lat="46.33564" lon="6.46304">
        <ele>540</ele>
        <time>2012-11-24T09:41:33Z</time>
      </trkpt>
      <trkpt lat="46.33566" lon="6.46307">
        <ele>540</ele>
        <time>2012-11-24T09:41:34Z</time>
      </trkpt>
      <trkpt lat="46.33568" lon="6.4631">
        <ele>540</ele>
        <time>2012-11-24T09:41:35Z</time>
      </trkpt>
      <trkpt lat="46.33569" lon="6.46314">
        <ele>540</ele>
        <time>2012-11-24T09:41:36Z</time>
      </trkpt>
      <trkpt lat="46.33571" lon="6.46316">
        <ele>540</ele>
        <time>2012-11-24T09:41:37Z</time>
      </trkpt>
      <trkpt lat="46.33572" lon="6.46319">
        <ele>540</ele>
        <time>2012-11-24T09:41:38Z</time>
      </trkpt>
      <trkpt lat="46.33574" lon="6.46323">
        <ele>540</ele>
        <time>2012-11-24T09:41:39Z</time>
      </trkpt>
      <trkpt lat="46.33575" lon="6.46326">
        <ele>540</ele>
        <time>2012-11-24T09:41:40Z</time>
      </trkpt>
      <trkpt lat="46.33576" lon="6.46329">
        <ele>540</ele>
        <time>2012-11-24T09:41:41Z</time>
      </trkpt>
      <trkpt lat="46.33576" lon="6.46333">
        <ele>540</ele>
        <time>2012-11-24T09:41:42Z</time>
      </trkpt>
      <trkpt lat="46.33576" lon="6.46337">
        <ele>540</ele>
        <time>2012-11-24T09:41:43Z</time>
      </trkpt>
      <trkpt lat="46.33576" lon="6.4634">
        <ele>540</ele>
        <time>2012-11-24T09:41:44Z</time>
      </trkpt>
      <trkpt lat="46.33577" lon="6.46343">
        <ele>540</ele>
        <time>2012-11-24T09:41:45Z</time>
      </trkpt>
      <trkpt lat="46.33577" lon="6.46346">
        <ele>540</ele>
        <time>2012-11-24T09:41:46Z</time>
      </trkpt>
      <trkpt lat="46.33577" lon="6.46349">
        <ele>540</ele>
        <time>2012-11-24T09:41:47Z</time>
      </trkpt>
      <trkpt lat="46.33578" lon="6.46352">
        <ele>540</ele>
        <time>2012-11-24T09:41:48Z</time>
      </trkpt>
      <trkpt lat="46.33578" lon="6.46355">
        <ele>540</ele>
        <time>2012-11-24T09:41:49Z</time>
      </trkpt>
      <trkpt lat="46.3358" lon="6.46358">
        <ele>539</ele>
        <time>2012-11-24T09:41:50Z</time>
      </trkpt>
      <trkpt lat="46.33581" lon="6.46362">
        <ele>539</ele>
        <time>2012-11-24T09:41:51Z</time>
      </trkpt>
      <trkpt lat="46.33582" lon="6.46365">
        <ele>538</ele>
        <time>2012-11-24T09:41:52Z</time>
      </trkpt>
      <trkpt lat="46.33583" lon="6.4637">
        <ele>538</ele>
        <time>2012-11-24T09:41:53Z</time>
      </trkpt>
      <trkpt lat="46.33584" lon="6.46373">
        <ele>538</ele>
        <time>2012-11-24T09:41:54Z</time>
      </trkpt>
      <trkpt lat="46.33585" lon="6.46376">
        <ele>538</ele>
        <time>2012-11-24T09:41:55Z</time>
      </trkpt>
      <trkpt lat="46.33587" lon="6.4638">
        <ele>538</ele>
        <time>2012-11-24T09:41:56Z</time>
      </trkpt>
      <trkpt lat="46.33588" lon="6.46384">
        <ele>538</ele>
        <time>2012-11-24T09:41:57Z</time>
      </trkpt>
      <trkpt lat="46.33587" lon="6.46387">
        <ele>538</ele>
        <time>2012-11-24T09:41:58Z</time>
      </trkpt>
      <trkpt lat="46.33587" lon="6.4639">
        <ele>538</ele>
        <time>2012-11-24T09:41:59Z</time>
      </trkpt>
      <trkpt lat="46.33586" lon="6.46394">
        <ele>538</ele>
        <time>2012-11-24T09:42:00Z</time>
      </trkpt>
      <trkpt lat="46.33585" lon="6.46397">
        <ele>538</ele>
        <time>2012-11-24T09:42:01Z</time>
      </trkpt>
      <trkpt lat="46.33584" lon="6.46401">
        <ele>538</ele>
        <time>2012-11-24T09:42:02Z</time>
      </trkpt>
      <trkpt lat="46.33584" lon="6.46406">
        <ele>538</ele>
        <time>2012-11-24T09:42:03Z</time>
      </trkpt>
      <trkpt lat="46.33583" lon="6.4641">
        <ele>538</ele>
        <time>2012-11-24T09:42:04Z</time>
      </trkpt>
      <trkpt lat="46.33583" lon="6.46413">
        <ele>538</ele>
        <time>2012-11-24T09:42:05Z</time>
      </trkpt>
      <trkpt lat="46.33582" lon="6.46416">
        <ele>538</ele>
        <time>2012-11-24T09:42:06Z</time>
      </trkpt>
      <trkpt lat="46.33582" lon="6.4642">
        <ele>538</ele>
        <time>2012-11-24T09:42:07Z</time>
      </trkpt>
      <trkpt lat="46.33582" lon="6.46422">
        <ele>538</ele>
        <time>2012-11-24T09:42:08Z</time>
      </trkpt>
      <trkpt lat="46.33582" lon="6.46425">
        <ele>538</ele>
        <time>2012-11-24T09:42:09Z</time>
      </trkpt>
      <trkpt lat="46.3358" lon="6.46428">
        <ele>538</ele>
        <time>2012-11-24T09:42:10Z</time>
      </trkpt>
      <trkpt lat="46.33579" lon="6.4643">
        <ele>538</ele>
        <time>2012-11-24T09:42:11Z</time>
      </trkpt>
      <trkpt lat="46.33578" lon="6.46433">
        <ele>538</ele>
        <time>2012-11-24T09:42:12Z</time>
      </trkpt>
      <trkpt lat="46.33577" lon="6.46435">
        <ele>538</ele>
        <time>2012-11-24T09:42:13Z</time>
      </trkpt>
      <trkpt lat="46.33576" lon="6.46438">
        <ele>538</ele>
        <time>2012-11-24T09:42:14Z</time>
      </trkpt>
      <trkpt lat="46.33574" lon="6.4644">
        <ele>538</ele>
        <time>2012-11-24T09:42:15Z</time>
      </trkpt>
      <trkpt lat="46.33573" lon="6.46443">
        <ele>538</ele>
        <time>2012-11-24T09:42:16Z</time>
      </trkpt>
      <trkpt lat="46.33572" lon="6.46445">
        <ele>538</ele>
        <time>2012-11-24T09:42:17Z</time>
      </trkpt>
      <trkpt lat="46.33572" lon="6.46448">
        <ele>538</ele>
        <time>2012-11-24T09:42:18Z</time>
      </trkpt>
      <trkpt lat="46.3357" lon="6.46451">
        <ele>538</ele>
        <time>2012-11-24T09:42:19Z</time>
      </trkpt>
      <trkpt lat="46.33569" lon="6.46453">
        <ele>538</ele>
        <time>2012-11-24T09:42:20Z</time>
      </trkpt>
      <trkpt lat="46.33567" lon="6.46456">
        <ele>538</ele>
        <time>2012-11-24T09:42:21Z</time>
      </trkpt>
      <trkpt lat="46.33567" lon="6.46459">
        <ele>538</ele>
        <time>2012-11-24T09:42:22Z</time>
      </trkpt>
      <trkpt lat="46.33567" lon="6.46461">
        <ele>538</ele>
        <time>2012-11-24T09:42:23Z</time>
      </trkpt>
      <trkpt lat="46.33566" lon="6.46464">
        <ele>538</ele>
        <time>2012-11-24T09:42:24Z</time>
      </trkpt>
      <trkpt lat="46.33566" lon="6.46466">
        <ele>538</ele>
        <time>2012-11-24T09:42:25Z</time>
      </trkpt>
      <trkpt lat="46.33564" lon="6.46468">
        <ele>538</ele>
        <time>2012-11-24T09:42:26Z</time>
      </trkpt>
      <trkpt lat="46.33563" lon="6.46468">
        <ele>538</ele>
        <time>2012-11-24T09:42:27Z</time>
      </trkpt>
      <trkpt lat="46.33561" lon="6.46468">
        <ele>538</ele>
        <time>2012-11-24T09:42:28Z</time>
      </trkpt>
      <trkpt lat="46.3356" lon="6.46471">
        <ele>538</ele>
        <time>2012-11-24T09:42:30Z</time>
      </trkpt>
      <trkpt lat="46.33558" lon="6.46472">
        <ele>538</ele>
        <time>2012-11-24T09:42:32Z</time>
      </trkpt>
      <trkpt lat="46.33557" lon="6.46473">
        <ele>538</ele>
        <time>2012-11-24T09:42:33Z</time>
      </trkpt>
      <trkpt lat="46.33556" lon="6.46475">
        <ele>538</ele>
        <time>2012-11-24T09:42:34Z</time>
      </trkpt>
      <trkpt lat="46.33553" lon="6.46477">
        <ele>538</ele>
        <time>2012-11-24T09:42:36Z</time>
      </trkpt>
      <trkpt lat="46.33552" lon="6.46479">
        <ele>538</ele>
        <time>2012-11-24T09:42:37Z</time>
      </trkpt>
      <trkpt lat="46.33551" lon="6.4648">
        <ele>538</ele>
        <time>2012-11-24T09:42:38Z</time>
      </trkpt>
      <trkpt lat="46.33549" lon="6.46482">
        <ele>538</ele>
        <time>2012-11-24T09:42:39Z</time>
      </trkpt>
      <trkpt lat="46.33548" lon="6.46484">
        <ele>538</ele>
        <time>2012-11-24T09:42:40Z</time>
      </trkpt>
      <trkpt lat="46.33546" lon="6.46485">
        <ele>538</ele>
        <time>2012-11-24T09:42:41Z</time>
      </trkpt>
      <trkpt lat="46.33545" lon="6.46487">
        <ele>538</ele>
        <time>2012-11-24T09:42:42Z</time>
      </trkpt>
      <trkpt lat="46.33543" lon="6.46489">
        <ele>538</ele>
        <time>2012-11-24T09:42:43Z</time>
      </trkpt>
      <trkpt lat="46.33542" lon="6.4649">
        <ele>538</ele>
        <time>2012-11-24T09:42:44Z</time>
      </trkpt>
      <trkpt lat="46.33541" lon="6.46493">
        <ele>538</ele>
        <time>2012-11-24T09:42:45Z</time>
      </trkpt>
      <trkpt lat="46.33541" lon="6.46495">
        <ele>538</ele>
        <time>2012-11-24T09:42:46Z</time>
      </trkpt>
      <trkpt lat="46.33539" lon="6.46497">
        <ele>538</ele>
        <time>2012-11-24T09:42:47Z</time>
      </trkpt>
      <trkpt lat="46.33539" lon="6.465">
        <ele>538</ele>
        <time>2012-11-24T09:42:48Z</time>
      </trkpt>
      <trkpt lat="46.33537" lon="6.46501">
        <ele>538</ele>
        <time>2012-11-24T09:42:49Z</time>
      </trkpt>
      <trkpt lat="46.33536" lon="6.46504">
        <ele>539</ele>
        <time>2012-11-24T09:42:50Z</time>
      </trkpt>
      <trkpt lat="46.33535" lon="6.46506">
        <ele>539</ele>
        <time>2012-11-24T09:42:51Z</time>
      </trkpt>
      <trkpt lat="46.33534" lon="6.46508">
        <ele>539</ele>
        <time>2012-11-24T09:42:52Z</time>
      </trkpt>
      <trkpt lat="46.33532" lon="6.46509">
        <ele>540</ele>
        <time>2012-11-24T09:42:54Z</time>
      </trkpt>
      <trkpt lat="46.3353" lon="6.46508">
        <ele>541</ele>
        <time>2012-11-24T09:42:56Z</time>
      </trkpt>
      <trkpt lat="46.33528" lon="6.46507">
        <ele>541</ele>
        <time>2012-11-24T09:42:57Z</time>
      </trkpt>
      <trkpt lat="46.33526" lon="6.46507">
        <ele>541</ele>
        <time>2012-11-24T09:42:58Z</time>
      </trkpt>
      <trkpt lat="46.33524" lon="6.46505">
        <ele>541</ele>
        <time>2012-11-24T09:42:59Z</time>
      </trkpt>
      <trkpt lat="46.33522" lon="6.46503">
        <ele>541</ele>
        <time>2012-11-24T09:43:00Z</time>
      </trkpt>
      <trkpt lat="46.33521" lon="6.46502">
        <ele>541</ele>
        <time>2012-11-24T09:43:01Z</time>
      </trkpt>
      <trkpt lat="46.33519" lon="6.46501">
        <ele>541</ele>
        <time>2012-11-24T09:43:02Z</time>
      </trkpt>
      <trkpt lat="46.33518" lon="6.465">
        <ele>541</ele>
        <time>2012-11-24T09:43:03Z</time>
      </trkpt>
      <trkpt lat="46.33517" lon="6.46498">
        <ele>541</ele>
        <time>2012-11-24T09:43:04Z</time>
      </trkpt>
      <trkpt lat="46.33515" lon="6.46496">
        <ele>541</ele>
        <time>2012-11-24T09:43:05Z</time>
      </trkpt>
      <trkpt lat="46.33514" lon="6.46495">
        <ele>541</ele>
        <time>2012-11-24T09:43:06Z</time>
      </trkpt>
      <trkpt lat="46.33512" lon="6.46493">
        <ele>541</ele>
        <time>2012-11-24T09:43:07Z</time>
      </trkpt>
      <trkpt lat="46.33511" lon="6.4649">
        <ele>542</ele>
        <time>2012-11-24T09:43:08Z</time>
      </trkpt>
      <trkpt lat="46.33509" lon="6.46488">
        <ele>542</ele>
        <time>2012-11-24T09:43:09Z</time>
      </trkpt>
      <trkpt lat="46.33507" lon="6.46486">
        <ele>542</ele>
        <time>2012-11-24T09:43:10Z</time>
      </trkpt>
      <trkpt lat="46.33506" lon="6.46484">
        <ele>543</ele>
        <time>2012-11-24T09:43:11Z</time>
      </trkpt>
      <trkpt lat="46.33504" lon="6.46482">
        <ele>543</ele>
        <time>2012-11-24T09:43:12Z</time>
      </trkpt>
      <trkpt lat="46.33503" lon="6.4648">
        <ele>544</ele>
        <time>2012-11-24T09:43:13Z</time>
      </trkpt>
      <trkpt lat="46.335" lon="6.46477">
        <ele>546</ele>
        <time>2012-11-24T09:43:15Z</time>
      </trkpt>
      <trkpt lat="46.33499" lon="6.46476">
        <ele>547</ele>
        <time>2012-11-24T09:43:16Z</time>
      </trkpt>
      <trkpt lat="46.33497" lon="6.46473">
        <ele>548</ele>
        <time>2012-11-24T09:43:18Z</time>
      </trkpt>
      <trkpt lat="46.33495" lon="6.46469">
        <ele>549</ele>
        <time>2012-11-24T09:43:19Z</time>
      </trkpt>
      <trkpt lat="46.33493" lon="6.46467">
        <ele>549</ele>
        <time>2012-11-24T09:43:20Z</time>
      </trkpt>
      <trkpt lat="46.33491" lon="6.46464">
        <ele>550</ele>
        <time>2012-11-24T09:43:21Z</time>
      </trkpt>
      <trkpt lat="46.3349" lon="6.46462">
        <ele>551</ele>
        <time>2012-11-24T09:43:22Z</time>
      </trkpt>
      <trkpt lat="46.33487" lon="6.4646">
        <ele>551</ele>
        <time>2012-11-24T09:43:23Z</time>
      </trkpt>
      <trkpt lat="46.33485" lon="6.46458">
        <ele>552</ele>
        <time>2012-11-24T09:43:24Z</time>
      </trkpt>
      <trkpt lat="46.33484" lon="6.46456">
        <ele>552</ele>
        <time>2012-11-24T09:43:25Z</time>
      </trkpt>
      <trkpt lat="46.33482" lon="6.46453">
        <ele>552</ele>
        <time>2012-11-24T09:43:26Z</time>
      </trkpt>
      <trkpt lat="46.3348" lon="6.4645">
        <ele>552</ele>
        <time>2012-11-24T09:43:28Z</time>
      </trkpt>
      <trkpt lat="46.33478" lon="6.46447">
        <ele>552</ele>
        <time>2012-11-24T09:43:29Z</time>
      </trkpt>
      <trkpt lat="46.33478" lon="6.46445">
        <ele>552</ele>
        <time>2012-11-24T09:43:30Z</time>
      </trkpt>
      <trkpt lat="46.33479" lon="6.46444">
        <ele>553</ele>
        <time>2012-11-24T09:43:31Z</time>
      </trkpt>
      <trkpt lat="46.33478" lon="6.46442">
        <ele>553</ele>
        <time>2012-11-24T09:43:32Z</time>
      </trkpt>
      <trkpt lat="46.33477" lon="6.4644">
        <ele>553</ele>
        <time>2012-11-24T09:43:33Z</time>
      </trkpt>
      <trkpt lat="46.33475" lon="6.46438">
        <ele>554</ele>
        <time>2012-11-24T09:43:35Z</time>
      </trkpt>
      <trkpt lat="46.33472" lon="6.46435">
        <ele>555</ele>
        <time>2012-11-24T09:43:38Z</time>
      </trkpt>
      <trkpt lat="46.33469" lon="6.46433">
        <ele>555</ele>
        <time>2012-11-24T09:43:39Z</time>
      </trkpt>
      <trkpt lat="46.33467" lon="6.46433">
        <ele>555</ele>
        <time>2012-11-24T09:43:40Z</time>
      </trkpt>
      <trkpt lat="46.33465" lon="6.46433">
        <ele>555</ele>
        <time>2012-11-24T09:43:41Z</time>
      </trkpt>
      <trkpt lat="46.33463" lon="6.46432">
        <ele>555</ele>
        <time>2012-11-24T09:43:42Z</time>
      </trkpt>
      <trkpt lat="46.33461" lon="6.46434">
        <ele>555</ele>
        <time>2012-11-24T09:43:44Z</time>
      </trkpt>
      <trkpt lat="46.33459" lon="6.46435">
        <ele>555</ele>
        <time>2012-11-24T09:43:45Z</time>
      </trkpt>
      <trkpt lat="46.33458" lon="6.46437">
        <ele>555</ele>
        <time>2012-11-24T09:43:46Z</time>
      </trkpt>
      <trkpt lat="46.33459" lon="6.46441">
        <ele>555</ele>
        <time>2012-11-24T09:43:47Z</time>
      </trkpt>
      <trkpt lat="46.33458" lon="6.46443">
        <ele>555</ele>
        <time>2012-11-24T09:43:48Z</time>
      </trkpt>
      <trkpt lat="46.33458" lon="6.46445">
        <ele>555</ele>
        <time>2012-11-24T09:43:49Z</time>
      </trkpt>
      <trkpt lat="46.33457" lon="6.46447">
        <ele>555</ele>
        <time>2012-11-24T09:43:50Z</time>
      </trkpt>
      <trkpt lat="46.33456" lon="6.46448">
        <ele>555</ele>
        <time>2012-11-24T09:43:51Z</time>
      </trkpt>
      <trkpt lat="46.33455" lon="6.46452">
        <ele>555</ele>
        <time>2012-11-24T09:43:52Z</time>
      </trkpt>
      <trkpt lat="46.33454" lon="6.46454">
        <ele>555</ele>
        <time>2012-11-24T09:43:53Z</time>
      </trkpt>
      <trkpt lat="46.33455" lon="6.46456">
        <ele>556</ele>
        <time>2012-11-24T09:43:54Z</time>
      </trkpt>
      <trkpt lat="46.33454" lon="6.46458">
        <ele>557</ele>
        <time>2012-11-24T09:43:55Z</time>
      </trkpt>
      <trkpt lat="46.33453" lon="6.46461">
        <ele>558</ele>
        <time>2012-11-24T09:43:56Z</time>
      </trkpt>
      <trkpt lat="46.33453" lon="6.46463">
        <ele>559</ele>
        <time>2012-11-24T09:43:57Z</time>
      </trkpt>
      <trkpt lat="46.33452" lon="6.46466">
        <ele>560</ele>
        <time>2012-11-24T09:43:58Z</time>
      </trkpt>
      <trkpt lat="46.33451" lon="6.46469">
        <ele>561</ele>
        <time>2012-11-24T09:43:59Z</time>
      </trkpt>
      <trkpt lat="46.33451" lon="6.46472">
        <ele>562</ele>
        <time>2012-11-24T09:44:00Z</time>
      </trkpt>
      <trkpt lat="46.33451" lon="6.46476">
        <ele>563</ele>
        <time>2012-11-24T09:44:01Z</time>
      </trkpt>
      <trkpt lat="46.33452" lon="6.46478">
        <ele>564</ele>
        <time>2012-11-24T09:44:02Z</time>
      </trkpt>
      <trkpt lat="46.33452" lon="6.46481">
        <ele>565</ele>
        <time>2012-11-24T09:44:03Z</time>
      </trkpt>
      <trkpt lat="46.33453" lon="6.46484">
        <ele>566</ele>
        <time>2012-11-24T09:44:04Z</time>
      </trkpt>
      <trkpt lat="46.33455" lon="6.46487">
        <ele>567</ele>
        <time>2012-11-24T09:44:05Z</time>
      </trkpt>
      <trkpt lat="46.33456" lon="6.4649">
        <ele>568</ele>
        <time>2012-11-24T09:44:06Z</time>
      </trkpt>
      <trkpt lat="46.33458" lon="6.46494">
        <ele>568</ele>
        <time>2012-11-24T09:44:07Z</time>
      </trkpt>
      <trkpt lat="46.3346" lon="6.46497">
        <ele>569</ele>
        <time>2012-11-24T09:44:09Z</time>
      </trkpt>
      <trkpt lat="46.33461" lon="6.46499">
        <ele>570</ele>
        <time>2012-11-24T09:44:10Z</time>
      </trkpt>
      <trkpt lat="46.33462" lon="6.46501">
        <ele>570</ele>
        <time>2012-11-24T09:44:11Z</time>
      </trkpt>
      <trkpt lat="46.33464" lon="6.46504">
        <ele>570</ele>
        <time>2012-11-24T09:44:12Z</time>
      </trkpt>
      <trkpt lat="46.33466" lon="6.46506">
        <ele>571</ele>
        <time>2012-11-24T09:44:13Z</time>
      </trkpt>
      <trkpt lat="46.33465" lon="6.4651">
        <ele>571</ele>
        <time>2012-11-24T09:44:15Z</time>
      </trkpt>
      <trkpt lat="46.33467" lon="6.46511">
        <ele>571</ele>
        <time>2012-11-24T09:44:16Z</time>
      </trkpt>
      <trkpt lat="46.33467" lon="6.46513">
        <ele>571</ele>
        <time>2012-11-24T09:44:17Z</time>
      </trkpt>
      <trkpt lat="46.33469" lon="6.46515">
        <ele>571</ele>
        <time>2012-11-24T09:44:18Z</time>
      </trkpt>
      <trkpt lat="46.33471" lon="6.46518">
        <ele>571</ele>
        <time>2012-11-24T09:44:19Z</time>
      </trkpt>
      <trkpt lat="46.33472" lon="6.4652">
        <ele>571</ele>
        <time>2012-11-24T09:44:20Z</time>
      </trkpt>
      <trkpt lat="46.3347" lon="6.46523">
        <ele>571</ele>
        <time>2012-11-24T09:44:21Z</time>
      </trkpt>
      <trkpt lat="46.33471" lon="6.46526">
        <ele>571</ele>
        <time>2012-11-24T09:44:22Z</time>
      </trkpt>
      <trkpt lat="46.33471" lon="6.46529">
        <ele>571</ele>
        <time>2012-11-24T09:44:23Z</time>
      </trkpt>
      <trkpt lat="46.3347" lon="6.46531">
        <ele>571</ele>
        <time>2012-11-24T09:44:24Z</time>
      </trkpt>
      <trkpt lat="46.33469" lon="6.46533">
        <ele>571</ele>
        <time>2012-11-24T09:44:25Z</time>
      </trkpt>
      <trkpt lat="46.33469" lon="6.46535">
        <ele>571</ele>
        <time>2012-11-24T09:44:26Z</time>
      </trkpt>
      <trkpt lat="46.33469" lon="6.46538">
        <ele>571</ele>
        <time>2012-11-24T09:44:27Z</time>
      </trkpt>
      <trkpt lat="46.3347" lon="6.4654">
        <ele>571</ele>
        <time>2012-11-24T09:44:28Z</time>
      </trkpt>
      <trkpt lat="46.33471" lon="6.46543">
        <ele>571</ele>
        <time>2012-11-24T09:44:29Z</time>
      </trkpt>
      <trkpt lat="46.33471" lon="6.46545">
        <ele>571</ele>
        <time>2012-11-24T09:44:30Z</time>
      </trkpt>
      <trkpt lat="46.33472" lon="6.46548">
        <ele>571</ele>
        <time>2012-11-24T09:44:31Z</time>
      </trkpt>
      <trkpt lat="46.33471" lon="6.4655">
        <ele>571</ele>
        <time>2012-11-24T09:44:32Z</time>
      </trkpt>
      <trkpt lat="46.33469" lon="6.46552">
        <ele>571</ele>
        <time>2012-11-24T09:44:33Z</time>
      </trkpt>
      <trkpt lat="46.33469" lon="6.46556">
        <ele>570</ele>
        <time>2012-11-24T09:44:34Z</time>
      </trkpt>
      <trkpt lat="46.33468" lon="6.46558">
        <ele>569</ele>
        <time>2012-11-24T09:44:35Z</time>
      </trkpt>
      <trkpt lat="46.33468" lon="6.4656">
        <ele>568</ele>
        <time>2012-11-24T09:44:36Z</time>
      </trkpt>
      <trkpt lat="46.33467" lon="6.46562">
        <ele>568</ele>
        <time>2012-11-24T09:44:37Z</time>
      </trkpt>
      <trkpt lat="46.33464" lon="6.46563">
        <ele>567</ele>
        <time>2012-11-24T09:44:38Z</time>
      </trkpt>
      <trkpt lat="46.33462" lon="6.46564">
        <ele>567</ele>
        <time>2012-11-24T09:44:39Z</time>
      </trkpt>
      <trkpt lat="46.3346" lon="6.46566">
        <ele>567</ele>
        <time>2012-11-24T09:44:40Z</time>
      </trkpt>
      <trkpt lat="46.33458" lon="6.4657">
        <ele>566</ele>
        <time>2012-11-24T09:44:41Z</time>
      </trkpt>
      <trkpt lat="46.33456" lon="6.46571">
        <ele>566</ele>
        <time>2012-11-24T09:44:42Z</time>
      </trkpt>
      <trkpt lat="46.33456" lon="6.46575">
        <ele>566</ele>
        <time>2012-11-24T09:44:43Z</time>
      </trkpt>
      <trkpt lat="46.33456" lon="6.46579">
        <ele>566</ele>
        <time>2012-11-24T09:44:44Z</time>
      </trkpt>
      <trkpt lat="46.33454" lon="6.46581">
        <ele>566</ele>
        <time>2012-11-24T09:44:45Z</time>
      </trkpt>
      <trkpt lat="46.33454" lon="6.46583">
        <ele>566</ele>
        <time>2012-11-24T09:44:46Z</time>
      </trkpt>
      <trkpt lat="46.33454" lon="6.46586">
        <ele>566</ele>
        <time>2012-11-24T09:44:47Z</time>
      </trkpt>
      <trkpt lat="46.33455" lon="6.46588">
        <ele>566</ele>
        <time>2012-11-24T09:44:48Z</time>
      </trkpt>
      <trkpt lat="46.33457" lon="6.46591">
        <ele>566</ele>
        <time>2012-11-24T09:44:49Z</time>
      </trkpt>
      <trkpt lat="46.33459" lon="6.46594">
        <ele>566</ele>
        <time>2012-11-24T09:44:50Z</time>
      </trkpt>
      <trkpt lat="46.3346" lon="6.46597">
        <ele>566</ele>
        <time>2012-11-24T09:44:51Z</time>
      </trkpt>
      <trkpt lat="46.33462" lon="6.466">
        <ele>566</ele>
        <time>2012-11-24T09:44:52Z</time>
      </trkpt>
      <trkpt lat="46.33464" lon="6.46601">
        <ele>566</ele>
        <time>2012-11-24T09:44:53Z</time>
      </trkpt>
      <trkpt lat="46.33466" lon="6.46601">
        <ele>566</ele>
        <time>2012-11-24T09:44:54Z</time>
      </trkpt>
      <trkpt lat="46.33468" lon="6.466">
        <ele>566</ele>
        <time>2012-11-24T09:44:55Z</time>
      </trkpt>
      <trkpt lat="46.33471" lon="6.46599">
        <ele>566</ele>
        <time>2012-11-24T09:44:56Z</time>
      </trkpt>
      <trkpt lat="46.33473" lon="6.46599">
        <ele>566</ele>
        <time>2012-11-24T09:44:57Z</time>
      </trkpt>
      <trkpt lat="46.33476" lon="6.466">
        <ele>566</ele>
        <time>2012-11-24T09:44:58Z</time>
      </trkpt>
      <trkpt lat="46.33479" lon="6.466">
        <ele>566</ele>
        <time>2012-11-24T09:44:59Z</time>
      </trkpt>
      <trkpt lat="46.33482" lon="6.46601">
        <ele>566</ele>
        <time>2012-11-24T09:45:00Z</time>
      </trkpt>
      <trkpt lat="46.33487" lon="6.46602">
        <ele>566</ele>
        <time>2012-11-24T09:45:01Z</time>
      </trkpt>
      <trkpt lat="46.3349" lon="6.46603">
        <ele>566</ele>
        <time>2012-11-24T09:45:02Z</time>
      </trkpt>
      <trkpt lat="46.33491" lon="6.46603">
        <ele>566</ele>
        <time>2012-11-24T09:45:03Z</time>
      </trkpt>
      <trkpt lat="46.33493" lon="6.46602">
        <ele>566</ele>
        <time>2012-11-24T09:45:05Z</time>
      </trkpt>
      <trkpt lat="46.33496" lon="6.46603">
        <ele>566</ele>
        <time>2012-11-24T09:45:06Z</time>
      </trkpt>
      <trkpt lat="46.33498" lon="6.46602">
        <ele>565</ele>
        <time>2012-11-24T09:45:07Z</time>
      </trkpt>
      <trkpt lat="46.33501" lon="6.46601">
        <ele>565</ele>
        <time>2012-11-24T09:45:08Z</time>
      </trkpt>
      <trkpt lat="46.33503" lon="6.46601">
        <ele>565</ele>
        <time>2012-11-24T09:45:09Z</time>
      </trkpt>
      <trkpt lat="46.33504" lon="6.46601">
        <ele>564</ele>
        <time>2012-11-24T09:45:10Z</time>
      </trkpt>
      <trkpt lat="46.33505" lon="6.46599">
        <ele>564</ele>
        <time>2012-11-24T09:45:11Z</time>
      </trkpt>
      <trkpt lat="46.33507" lon="6.46597">
        <ele>563</ele>
        <time>2012-11-24T09:45:12Z</time>
      </trkpt>
      <trkpt lat="46.33509" lon="6.46594">
        <ele>562</ele>
        <time>2012-11-24T09:45:13Z</time>
      </trkpt>
      <trkpt lat="46.33511" lon="6.46592">
        <ele>561</ele>
        <time>2012-11-24T09:45:14Z</time>
      </trkpt>
      <trkpt lat="46.33512" lon="6.4659">
        <ele>560</ele>
        <time>2012-11-24T09:45:15Z</time>
      </trkpt>
      <trkpt lat="46.33514" lon="6.46588">
        <ele>560</ele>
        <time>2012-11-24T09:45:16Z</time>
      </trkpt>
      <trkpt lat="46.33515" lon="6.46586">
        <ele>559</ele>
        <time>2012-11-24T09:45:17Z</time>
      </trkpt>
      <trkpt lat="46.33516" lon="6.46583">
        <ele>558</ele>
        <time>2012-11-24T09:45:18Z</time>
      </trkpt>
      <trkpt lat="46.33517" lon="6.46581">
        <ele>557</ele>
        <time>2012-11-24T09:45:19Z</time>
      </trkpt>
      <trkpt lat="46.3352" lon="6.46579">
        <ele>557</ele>
        <time>2012-11-24T09:45:20Z</time>
      </trkpt>
      <trkpt lat="46.33522" lon="6.46579">
        <ele>556</ele>
        <time>2012-11-24T09:45:21Z</time>
      </trkpt>
      <trkpt lat="46.33523" lon="6.46581">
        <ele>555</ele>
        <time>2012-11-24T09:45:23Z</time>
      </trkpt>
      <trkpt lat="46.33523" lon="6.46584">
        <ele>555</ele>
        <time>2012-11-24T09:45:25Z</time>
      </trkpt>
      <trkpt lat="46.33522" lon="6.46586">
        <ele>555</ele>
        <time>2012-11-24T09:45:26Z</time>
      </trkpt>
      <trkpt lat="46.33523" lon="6.46588">
        <ele>555</ele>
        <time>2012-11-24T09:45:27Z</time>
      </trkpt>
      <trkpt lat="46.33524" lon="6.46591">
        <ele>555</ele>
        <time>2012-11-24T09:45:28Z</time>
      </trkpt>
      <trkpt lat="46.33526" lon="6.46593">
        <ele>555</ele>
        <time>2012-11-24T09:45:29Z</time>
      </trkpt>
      <trkpt lat="46.33527" lon="6.46596">
        <ele>555</ele>
        <time>2012-11-24T09:45:30Z</time>
      </trkpt>
      <trkpt lat="46.33527" lon="6.46598">
        <ele>555</ele>
        <time>2012-11-24T09:45:31Z</time>
      </trkpt>
      <trkpt lat="46.33527" lon="6.46601">
        <ele>555</ele>
        <time>2012-11-24T09:45:32Z</time>
      </trkpt>
      <trkpt lat="46.33527" lon="6.46605">
        <ele>555</ele>
        <time>2012-11-24T09:45:33Z</time>
      </trkpt>
      <trkpt lat="46.33528" lon="6.46608">
        <ele>555</ele>
        <time>2012-11-24T09:45:34Z</time>
      </trkpt>
      <trkpt lat="46.3353" lon="6.46612">
        <ele>555</ele>
        <time>2012-11-24T09:45:35Z</time>
      </trkpt>
      <trkpt lat="46.33532" lon="6.46616">
        <ele>555</ele>
        <time>2012-11-24T09:45:36Z</time>
      </trkpt>
      <trkpt lat="46.33533" lon="6.46619">
        <ele>555</ele>
        <time>2012-11-24T09:45:37Z</time>
      </trkpt>
      <trkpt lat="46.33535" lon="6.46622">
        <ele>555</ele>
        <time>2012-11-24T09:45:38Z</time>
      </trkpt>
      <trkpt lat="46.33537" lon="6.46625">
        <ele>554</ele>
        <time>2012-11-24T09:45:39Z</time>
      </trkpt>
      <trkpt lat="46.33538" lon="6.46628">
        <ele>554</ele>
        <time>2012-11-24T09:45:40Z</time>
      </trkpt>
      <trkpt lat="46.3354" lon="6.46632">
        <ele>554</ele>
        <time>2012-11-24T09:45:41Z</time>
      </trkpt>
      <trkpt lat="46.3354" lon="6.46636">
        <ele>553</ele>
        <time>2012-11-24T09:45:42Z</time>
      </trkpt>
      <trkpt lat="46.33541" lon="6.4664">
        <ele>553</ele>
        <time>2012-11-24T09:45:43Z</time>
      </trkpt>
      <trkpt lat="46.3354" lon="6.46644">
        <ele>553</ele>
        <time>2012-11-24T09:45:44Z</time>
      </trkpt>
      <trkpt lat="46.3354" lon="6.46647">
        <ele>553</ele>
        <time>2012-11-24T09:45:45Z</time>
      </trkpt>
      <trkpt lat="46.33539" lon="6.4665">
        <ele>553</ele>
        <time>2012-11-24T09:45:46Z</time>
      </trkpt>
      <trkpt lat="46.33538" lon="6.46653">
        <ele>553</ele>
        <time>2012-11-24T09:45:47Z</time>
      </trkpt>
      <trkpt lat="46.33537" lon="6.46656">
        <ele>553</ele>
        <time>2012-11-24T09:45:48Z</time>
      </trkpt>
      <trkpt lat="46.33536" lon="6.46659">
        <ele>553</ele>
        <time>2012-11-24T09:45:49Z</time>
      </trkpt>
      <trkpt lat="46.33536" lon="6.46663">
        <ele>553</ele>
        <time>2012-11-24T09:45:50Z</time>
      </trkpt>
      <trkpt lat="46.33536" lon="6.46666">
        <ele>553</ele>
        <time>2012-11-24T09:45:51Z</time>
      </trkpt>
      <trkpt lat="46.33536" lon="6.46669">
        <ele>553</ele>
        <time>2012-11-24T09:45:52Z</time>
      </trkpt>
      <trkpt lat="46.33536" lon="6.46673">
        <ele>553</ele>
        <time>2012-11-24T09:45:53Z</time>
      </trkpt>
      <trkpt lat="46.33536" lon="6.46676">
        <ele>553</ele>
        <time>2012-11-24T09:45:54Z</time>
      </trkpt>
      <trkpt lat="46.33536" lon="6.46679">
        <ele>553</ele>
        <time>2012-11-24T09:45:55Z</time>
      </trkpt>
      <trkpt lat="46.33538" lon="6.46681">
        <ele>553</ele>
        <time>2012-11-24T09:45:56Z</time>
      </trkpt>
      <trkpt lat="46.3354" lon="6.46684">
        <ele>553</ele>
        <time>2012-11-24T09:45:57Z</time>
      </trkpt>
      <trkpt lat="46.33542" lon="6.46687">
        <ele>553</ele>
        <time>2012-11-24T09:45:58Z</time>
      </trkpt>
      <trkpt lat="46.33543" lon="6.4669">
        <ele>553</ele>
        <time>2012-11-24T09:45:59Z</time>
      </trkpt>
      <trkpt lat="46.33545" lon="6.46693">
        <ele>553</ele>
        <time>2012-11-24T09:46:00Z</time>
      </trkpt>
      <trkpt lat="46.33547" lon="6.46696">
        <ele>553</ele>
        <time>2012-11-24T09:46:01Z</time>
      </trkpt>
      <trkpt lat="46.33548" lon="6.46699">
        <ele>553</ele>
        <time>2012-11-24T09:46:02Z</time>
      </trkpt>
      <trkpt lat="46.33549" lon="6.46701">
        <ele>553</ele>
        <time>2012-11-24T09:46:03Z</time>
      </trkpt>
      <trkpt lat="46.33549" lon="6.46704">
        <ele>553</ele>
        <time>2012-11-24T09:46:04Z</time>
      </trkpt>
      <trkpt lat="46.33551" lon="6.46707">
        <ele>553</ele>
        <time>2012-11-24T09:46:05Z</time>
      </trkpt>
      <trkpt lat="46.33552" lon="6.46711">
        <ele>553</ele>
        <time>2012-11-24T09:46:06Z</time>
      </trkpt>
      <trkpt lat="46.33554" lon="6.46714">
        <ele>553</ele>
        <time>2012-11-24T09:46:07Z</time>
      </trkpt>
      <trkpt lat="46.33554" lon="6.46717">
        <ele>553</ele>
        <time>2012-11-24T09:46:08Z</time>
      </trkpt>
      <trkpt lat="46.33555" lon="6.46719">
        <ele>553</ele>
        <time>2012-11-24T09:46:09Z</time>
      </trkpt>
      <trkpt lat="46.33555" lon="6.46722">
        <ele>553</ele>
        <time>2012-11-24T09:46:10Z</time>
      </trkpt>
      <trkpt lat="46.33556" lon="6.46725">
        <ele>553</ele>
        <time>2012-11-24T09:46:11Z</time>
      </trkpt>
      <trkpt lat="46.33556" lon="6.46728">
        <ele>554</ele>
        <time>2012-11-24T09:46:12Z</time>
      </trkpt>
      <trkpt lat="46.33557" lon="6.4673">
        <ele>554</ele>
        <time>2012-11-24T09:46:13Z</time>
      </trkpt>
      <trkpt lat="46.33559" lon="6.46731">
        <ele>554</ele>
        <time>2012-11-24T09:46:14Z</time>
      </trkpt>
      <trkpt lat="46.33561" lon="6.46733">
        <ele>554</ele>
        <time>2012-11-24T09:46:15Z</time>
      </trkpt>
      <trkpt lat="46.33563" lon="6.46736">
        <ele>554</ele>
        <time>2012-11-24T09:46:16Z</time>
      </trkpt>
      <trkpt lat="46.33564" lon="6.46737">
        <ele>554</ele>
        <time>2012-11-24T09:46:17Z</time>
      </trkpt>
      <trkpt lat="46.33565" lon="6.4674">
        <ele>554</ele>
        <time>2012-11-24T09:46:18Z</time>
      </trkpt>
      <trkpt lat="46.33567" lon="6.46741">
        <ele>554</ele>
        <time>2012-11-24T09:46:19Z</time>
      </trkpt>
      <trkpt lat="46.33567" lon="6.46744">
        <ele>554</ele>
        <time>2012-11-24T09:46:20Z</time>
      </trkpt>
      <trkpt lat="46.33568" lon="6.46747">
        <ele>554</ele>
        <time>2012-11-24T09:46:21Z</time>
      </trkpt>
      <trkpt lat="46.33569" lon="6.46749">
        <ele>554</ele>
        <time>2012-11-24T09:46:22Z</time>
      </trkpt>
      <trkpt lat="46.33569" lon="6.46752">
        <ele>554</ele>
        <time>2012-11-24T09:46:23Z</time>
      </trkpt>
      <trkpt lat="46.3357" lon="6.46755">
        <ele>554</ele>
        <time>2012-11-24T09:46:24Z</time>
      </trkpt>
      <trkpt lat="46.3357" lon="6.46758">
        <ele>554</ele>
        <time>2012-11-24T09:46:25Z</time>
      </trkpt>
      <trkpt lat="46.3357" lon="6.46761">
        <ele>554</ele>
        <time>2012-11-24T09:46:26Z</time>
      </trkpt>
      <trkpt lat="46.3357" lon="6.46765">
        <ele>554</ele>
        <time>2012-11-24T09:46:27Z</time>
      </trkpt>
      <trkpt lat="46.3357" lon="6.46767">
        <ele>554</ele>
        <time>2012-11-24T09:46:28Z</time>
      </trkpt>
      <trkpt lat="46.33569" lon="6.46769">
        <ele>554</ele>
        <time>2012-11-24T09:46:29Z</time>
      </trkpt>
      <trkpt lat="46.33569" lon="6.46772">
        <ele>554</ele>
        <time>2012-11-24T09:46:30Z</time>
      </trkpt>
      <trkpt lat="46.33569" lon="6.46776">
        <ele>554</ele>
        <time>2012-11-24T09:46:31Z</time>
      </trkpt>
      <trkpt lat="46.33568" lon="6.46779">
        <ele>554</ele>
        <time>2012-11-24T09:46:32Z</time>
      </trkpt>
      <trkpt lat="46.33568" lon="6.46783">
        <ele>554</ele>
        <time>2012-11-24T09:46:33Z</time>
      </trkpt>
      <trkpt lat="46.33568" lon="6.46787">
        <ele>554</ele>
        <time>2012-11-24T09:46:34Z</time>
      </trkpt>
      <trkpt lat="46.33567" lon="6.4679">
        <ele>554</ele>
        <time>2012-11-24T09:46:35Z</time>
      </trkpt>
      <trkpt lat="46.33566" lon="6.46794">
        <ele>554</ele>
        <time>2012-11-24T09:46:36Z</time>
      </trkpt>
      <trkpt lat="46.33564" lon="6.46798">
        <ele>554</ele>
        <time>2012-11-24T09:46:37Z</time>
      </trkpt>
      <trkpt lat="46.33564" lon="6.46802">
        <ele>553</ele>
        <time>2012-11-24T09:46:38Z</time>
      </trkpt>
      <trkpt lat="46.33564" lon="6.46805">
        <ele>553</ele>
        <time>2012-11-24T09:46:39Z</time>
      </trkpt>
      <trkpt lat="46.33564" lon="6.46808">
        <ele>552</ele>
        <time>2012-11-24T09:46:40Z</time>
      </trkpt>
      <trkpt lat="46.33565" lon="6.46811">
        <ele>551</ele>
        <time>2012-11-24T09:46:41Z</time>
      </trkpt>
      <trkpt lat="46.33567" lon="6.46815">
        <ele>551</ele>
        <time>2012-11-24T09:46:42Z</time>
      </trkpt>
      <trkpt lat="46.33569" lon="6.46817">
        <ele>551</ele>
        <time>2012-11-24T09:46:43Z</time>
      </trkpt>
      <trkpt lat="46.3357" lon="6.4682">
        <ele>551</ele>
        <time>2012-11-24T09:46:44Z</time>
      </trkpt>
      <trkpt lat="46.33573" lon="6.46821">
        <ele>551</ele>
        <time>2012-11-24T09:46:45Z</time>
      </trkpt>
      <trkpt lat="46.33576" lon="6.46823">
        <ele>550</ele>
        <time>2012-11-24T09:46:46Z</time>
      </trkpt>
      <trkpt lat="46.33577" lon="6.46824">
        <ele>550</ele>
        <time>2012-11-24T09:46:47Z</time>
      </trkpt>
      <trkpt lat="46.33579" lon="6.46826">
        <ele>550</ele>
        <time>2012-11-24T09:46:48Z</time>
      </trkpt>
      <trkpt lat="46.33581" lon="6.46827">
        <ele>549</ele>
        <time>2012-11-24T09:46:49Z</time>
      </trkpt>
      <trkpt lat="46.33584" lon="6.46827">
        <ele>549</ele>
        <time>2012-11-24T09:46:50Z</time>
      </trkpt>
      <trkpt lat="46.33586" lon="6.46827">
        <ele>548</ele>
        <time>2012-11-24T09:46:51Z</time>
      </trkpt>
      <trkpt lat="46.33589" lon="6.46827">
        <ele>547</ele>
        <time>2012-11-24T09:46:52Z</time>
      </trkpt>
      <trkpt lat="46.33591" lon="6.46827">
        <ele>546</ele>
        <time>2012-11-24T09:46:53Z</time>
      </trkpt>
      <trkpt lat="46.33595" lon="6.46827">
        <ele>545</ele>
        <time>2012-11-24T09:46:54Z</time>
      </trkpt>
      <trkpt lat="46.33598" lon="6.46827">
        <ele>544</ele>
        <time>2012-11-24T09:46:55Z</time>
      </trkpt>
      <trkpt lat="46.33601" lon="6.46827">
        <ele>544</ele>
        <time>2012-11-24T09:46:56Z</time>
      </trkpt>
      <trkpt lat="46.33604" lon="6.46827">
        <ele>543</ele>
        <time>2012-11-24T09:46:57Z</time>
      </trkpt>
      <trkpt lat="46.33606" lon="6.46827">
        <ele>543</ele>
        <time>2012-11-24T09:46:58Z</time>
      </trkpt>
      <trkpt lat="46.33608" lon="6.46827">
        <ele>543</ele>
        <time>2012-11-24T09:46:59Z</time>
      </trkpt>
      <trkpt lat="46.3361" lon="6.46828">
        <ele>543</ele>
        <time>2012-11-24T09:47:00Z</time>
      </trkpt>
      <trkpt lat="46.33612" lon="6.46828">
        <ele>543</ele>
        <time>2012-11-24T09:47:01Z</time>
      </trkpt>
      <trkpt lat="46.33614" lon="6.46828">
        <ele>543</ele>
        <time>2012-11-24T09:47:02Z</time>
      </trkpt>
      <trkpt lat="46.33617" lon="6.46828">
        <ele>543</ele>
        <time>2012-11-24T09:47:03Z</time>
      </trkpt>
      <trkpt lat="46.3362" lon="6.46827">
        <ele>543</ele>
        <time>2012-11-24T09:47:04Z</time>
      </trkpt>
      <trkpt lat="46.33622" lon="6.46826">
        <ele>543</ele>
        <time>2012-11-24T09:47:05Z</time>
      </trkpt>
      <trkpt lat="46.33625" lon="6.46824">
        <ele>543</ele>
        <time>2012-11-24T09:47:06Z</time>
      </trkpt>
      <trkpt lat="46.33627" lon="6.46821">
        <ele>543</ele>
        <time>2012-11-24T09:47:07Z</time>
      </trkpt>
      <trkpt lat="46.3363" lon="6.46819">
        <ele>542</ele>
        <time>2012-11-24T09:47:08Z</time>
      </trkpt>
      <trkpt lat="46.33632" lon="6.46817">
        <ele>542</ele>
        <time>2012-11-24T09:47:09Z</time>
      </trkpt>
      <trkpt lat="46.33634" lon="6.46814">
        <ele>542</ele>
        <time>2012-11-24T09:47:10Z</time>
      </trkpt>
      <trkpt lat="46.33636" lon="6.46812">
        <ele>542</ele>
        <time>2012-11-24T09:47:11Z</time>
      </trkpt>
      <trkpt lat="46.33638" lon="6.4681">
        <ele>542</ele>
        <time>2012-11-24T09:47:12Z</time>
      </trkpt>
      <trkpt lat="46.3364" lon="6.46807">
        <ele>542</ele>
        <time>2012-11-24T09:47:13Z</time>
      </trkpt>
      <trkpt lat="46.33641" lon="6.46804">
        <ele>542</ele>
        <time>2012-11-24T09:47:14Z</time>
      </trkpt>
      <trkpt lat="46.33642" lon="6.46801">
        <ele>542</ele>
        <time>2012-11-24T09:47:15Z</time>
      </trkpt>
      <trkpt lat="46.33643" lon="6.46797">
        <ele>542</ele>
        <time>2012-11-24T09:47:16Z</time>
      </trkpt>
      <trkpt lat="46.33643" lon="6.46794">
        <ele>542</ele>
        <time>2012-11-24T09:47:17Z</time>
      </trkpt>
      <trkpt lat="46.33644" lon="6.4679">
        <ele>542</ele>
        <time>2012-11-24T09:47:18Z</time>
      </trkpt>
      <trkpt lat="46.33645" lon="6.46787">
        <ele>542</ele>
        <time>2012-11-24T09:47:19Z</time>
      </trkpt>
      <trkpt lat="46.33646" lon="6.46783">
        <ele>542</ele>
        <time>2012-11-24T09:47:20Z</time>
      </trkpt>
      <trkpt lat="46.33646" lon="6.4678">
        <ele>542</ele>
        <time>2012-11-24T09:47:21Z</time>
      </trkpt>
      <trkpt lat="46.33646" lon="6.46776">
        <ele>542</ele>
        <time>2012-11-24T09:47:22Z</time>
      </trkpt>
      <trkpt lat="46.33647" lon="6.46773">
        <ele>542</ele>
        <time>2012-11-24T09:47:23Z</time>
      </trkpt>
      <trkpt lat="46.33647" lon="6.46769">
        <ele>542</ele>
        <time>2012-11-24T09:47:24Z</time>
      </trkpt>
      <trkpt lat="46.33647" lon="6.46765">
        <ele>542</ele>
        <time>2012-11-24T09:47:25Z</time>
      </trkpt>
      <trkpt lat="46.33647" lon="6.46762">
        <ele>542</ele>
        <time>2012-11-24T09:47:26Z</time>
      </trkpt>
      <trkpt lat="46.33647" lon="6.46758">
        <ele>542</ele>
        <time>2012-11-24T09:47:27Z</time>
      </trkpt>
      <trkpt lat="46.33648" lon="6.46754">
        <ele>542</ele>
        <time>2012-11-24T09:47:28Z</time>
      </trkpt>
      <trkpt lat="46.33648" lon="6.4675">
        <ele>542</ele>
        <time>2012-11-24T09:47:29Z</time>
      </trkpt>
      <trkpt lat="46.33649" lon="6.46747">
        <ele>542</ele>
        <time>2012-11-24T09:47:30Z</time>
      </trkpt>
      <trkpt lat="46.33649" lon="6.46744">
        <ele>542</ele>
        <time>2012-11-24T09:47:31Z</time>
      </trkpt>
      <trkpt lat="46.33651" lon="6.46741">
        <ele>542</ele>
        <time>2012-11-24T09:47:32Z</time>
      </trkpt>
      <trkpt lat="46.33651" lon="6.46738">
        <ele>542</ele>
        <time>2012-11-24T09:47:33Z</time>
      </trkpt>
      <trkpt lat="46.33651" lon="6.46735">
        <ele>542</ele>
        <time>2012-11-24T09:47:34Z</time>
      </trkpt>
      <trkpt lat="46.33652" lon="6.46732">
        <ele>542</ele>
        <time>2012-11-24T09:47:35Z</time>
      </trkpt>
      <trkpt lat="46.33654" lon="6.46731">
        <ele>542</ele>
        <time>2012-11-24T09:47:36Z</time>
      </trkpt>
      <trkpt lat="46.33655" lon="6.4673">
        <ele>542</ele>
        <time>2012-11-24T09:47:37Z</time>
      </trkpt>
      <trkpt lat="46.33658" lon="6.46729">
        <ele>542</ele>
        <time>2012-11-24T09:47:38Z</time>
      </trkpt>
      <trkpt lat="46.33661" lon="6.46728">
        <ele>542</ele>
        <time>2012-11-24T09:47:39Z</time>
      </trkpt>
      <trkpt lat="46.33664" lon="6.46726">
        <ele>542</ele>
        <time>2012-11-24T09:47:40Z</time>
      </trkpt>
      <trkpt lat="46.33666" lon="6.46724">
        <ele>542</ele>
        <time>2012-11-24T09:47:41Z</time>
      </trkpt>
      <trkpt lat="46.33668" lon="6.46721">
        <ele>542</ele>
        <time>2012-11-24T09:47:42Z</time>
      </trkpt>
      <trkpt lat="46.3367" lon="6.46718">
        <ele>541</ele>
        <time>2012-11-24T09:47:43Z</time>
      </trkpt>
      <trkpt lat="46.33673" lon="6.46716">
        <ele>541</ele>
        <time>2012-11-24T09:47:44Z</time>
      </trkpt>
      <trkpt lat="46.33675" lon="6.46714">
        <ele>541</ele>
        <time>2012-11-24T09:47:45Z</time>
      </trkpt>
      <trkpt lat="46.33677" lon="6.46712">
        <ele>540</ele>
        <time>2012-11-24T09:47:46Z</time>
      </trkpt>
      <trkpt lat="46.33679" lon="6.46709">
        <ele>540</ele>
        <time>2012-11-24T09:47:47Z</time>
      </trkpt>
      <trkpt lat="46.3368" lon="6.46707">
        <ele>539</ele>
        <time>2012-11-24T09:47:48Z</time>
      </trkpt>
      <trkpt lat="46.33683" lon="6.46705">
        <ele>539</ele>
        <time>2012-11-24T09:47:49Z</time>
      </trkpt>
      <trkpt lat="46.33686" lon="6.46702">
        <ele>538</ele>
        <time>2012-11-24T09:47:50Z</time>
      </trkpt>
      <trkpt lat="46.33688" lon="6.46698">
        <ele>537</ele>
        <time>2012-11-24T09:47:51Z</time>
      </trkpt>
      <trkpt lat="46.3369" lon="6.46695">
        <ele>537</ele>
        <time>2012-11-24T09:47:52Z</time>
      </trkpt>
      <trkpt lat="46.33692" lon="6.46692">
        <ele>536</ele>
        <time>2012-11-24T09:47:53Z</time>
      </trkpt>
      <trkpt lat="46.33694" lon="6.46688">
        <ele>535</ele>
        <time>2012-11-24T09:47:54Z</time>
      </trkpt>
      <trkpt lat="46.33696" lon="6.46685">
        <ele>535</ele>
        <time>2012-11-24T09:47:55Z</time>
      </trkpt>
      <trkpt lat="46.33697" lon="6.46682">
        <ele>534</ele>
        <time>2012-11-24T09:47:56Z</time>
      </trkpt>
      <trkpt lat="46.33698" lon="6.46678">
        <ele>534</ele>
        <time>2012-11-24T09:47:57Z</time>
      </trkpt>
      <trkpt lat="46.33699" lon="6.46674">
        <ele>533</ele>
        <time>2012-11-24T09:47:58Z</time>
      </trkpt>
      <trkpt lat="46.33701" lon="6.4667">
        <ele>533</ele>
        <time>2012-11-24T09:47:59Z</time>
      </trkpt>
      <trkpt lat="46.33703" lon="6.46667">
        <ele>532</ele>
        <time>2012-11-24T09:48:00Z</time>
      </trkpt>
      <trkpt lat="46.33704" lon="6.46663">
        <ele>531</ele>
        <time>2012-11-24T09:48:01Z</time>
      </trkpt>
      <trkpt lat="46.33704" lon="6.46659">
        <ele>531</ele>
        <time>2012-11-24T09:48:02Z</time>
      </trkpt>
      <trkpt lat="46.33705" lon="6.46655">
        <ele>530</ele>
        <time>2012-11-24T09:48:03Z</time>
      </trkpt>
      <trkpt lat="46.33707" lon="6.46652">
        <ele>530</ele>
        <time>2012-11-24T09:48:04Z</time>
      </trkpt>
      <trkpt lat="46.3371" lon="6.46649">
        <ele>529</ele>
        <time>2012-11-24T09:48:05Z</time>
      </trkpt>
      <trkpt lat="46.33712" lon="6.46646">
        <ele>529</ele>
        <time>2012-11-24T09:48:06Z</time>
      </trkpt>
      <trkpt lat="46.33714" lon="6.46644">
        <ele>529</ele>
        <time>2012-11-24T09:48:07Z</time>
      </trkpt>
      <trkpt lat="46.33715" lon="6.46642">
        <ele>528</ele>
        <time>2012-11-24T09:48:08Z</time>
      </trkpt>
      <trkpt lat="46.33717" lon="6.4664">
        <ele>528</ele>
        <time>2012-11-24T09:48:09Z</time>
      </trkpt>
      <trkpt lat="46.33718" lon="6.46638">
        <ele>527</ele>
        <time>2012-11-24T09:48:10Z</time>
      </trkpt>
      <trkpt lat="46.3372" lon="6.46636">
        <ele>527</ele>
        <time>2012-11-24T09:48:11Z</time>
      </trkpt>
      <trkpt lat="46.33722" lon="6.46633">
        <ele>526</ele>
        <time>2012-11-24T09:48:12Z</time>
      </trkpt>
      <trkpt lat="46.33723" lon="6.46632">
        <ele>526</ele>
        <time>2012-11-24T09:48:13Z</time>
      </trkpt>
      <trkpt lat="46.33726" lon="6.4663">
        <ele>525</ele>
        <time>2012-11-24T09:48:14Z</time>
      </trkpt>
      <trkpt lat="46.33728" lon="6.46629">
        <ele>524</ele>
        <time>2012-11-24T09:48:15Z</time>
      </trkpt>
      <trkpt lat="46.33729" lon="6.46628">
        <ele>523</ele>
        <time>2012-11-24T09:48:16Z</time>
      </trkpt>
      <trkpt lat="46.33731" lon="6.46626">
        <ele>523</ele>
        <time>2012-11-24T09:48:17Z</time>
      </trkpt>
      <trkpt lat="46.33731" lon="6.46624">
        <ele>522</ele>
        <time>2012-11-24T09:48:18Z</time>
      </trkpt>
      <trkpt lat="46.33733" lon="6.46623">
        <ele>521</ele>
        <time>2012-11-24T09:48:19Z</time>
      </trkpt>
      <trkpt lat="46.33736" lon="6.46622">
        <ele>521</ele>
        <time>2012-11-24T09:48:20Z</time>
      </trkpt>
      <trkpt lat="46.33738" lon="6.46621">
        <ele>521</ele>
        <time>2012-11-24T09:48:21Z</time>
      </trkpt>
      <trkpt lat="46.33739" lon="6.46621">
        <ele>521</ele>
        <time>2012-11-24T09:48:22Z</time>
      </trkpt>
      <trkpt lat="46.33741" lon="6.46619">
        <ele>520</ele>
        <time>2012-11-24T09:48:23Z</time>
      </trkpt>
      <trkpt lat="46.33743" lon="6.46618">
        <ele>520</ele>
        <time>2012-11-24T09:48:24Z</time>
      </trkpt>
      <trkpt lat="46.33746" lon="6.46616">
        <ele>520</ele>
        <time>2012-11-24T09:48:25Z</time>
      </trkpt>
      <trkpt lat="46.3375" lon="6.46616">
        <ele>520</ele>
        <time>2012-11-24T09:48:26Z</time>
      </trkpt>
      <trkpt lat="46.33754" lon="6.46615">
        <ele>520</ele>
        <time>2012-11-24T09:48:27Z</time>
      </trkpt>
      <trkpt lat="46.33758" lon="6.46615">
        <ele>520</ele>
        <time>2012-11-24T09:48:28Z</time>
      </trkpt>
      <trkpt lat="46.3376" lon="6.46613">
        <ele>520</ele>
        <time>2012-11-24T09:48:29Z</time>
      </trkpt>
      <trkpt lat="46.33762" lon="6.46612">
        <ele>520</ele>
        <time>2012-11-24T09:48:30Z</time>
      </trkpt>
      <trkpt lat="46.33765" lon="6.46611">
        <ele>520</ele>
        <time>2012-11-24T09:48:31Z</time>
      </trkpt>
      <trkpt lat="46.33768" lon="6.46609">
        <ele>520</ele>
        <time>2012-11-24T09:48:32Z</time>
      </trkpt>
      <trkpt lat="46.3377" lon="6.46608">
        <ele>520</ele>
        <time>2012-11-24T09:48:33Z</time>
      </trkpt>
      <trkpt lat="46.33773" lon="6.46607">
        <ele>519</ele>
        <time>2012-11-24T09:48:34Z</time>
      </trkpt>
      <trkpt lat="46.33774" lon="6.46605">
        <ele>519</ele>
        <time>2012-11-24T09:48:35Z</time>
      </trkpt>
      <trkpt lat="46.33775" lon="6.46604">
        <ele>518</ele>
        <time>2012-11-24T09:48:36Z</time>
      </trkpt>
      <trkpt lat="46.33778" lon="6.46604">
        <ele>517</ele>
        <time>2012-11-24T09:48:38Z</time>
      </trkpt>
      <trkpt lat="46.3378" lon="6.46606">
        <ele>516</ele>
        <time>2012-11-24T09:48:40Z</time>
      </trkpt>
      <trkpt lat="46.33781" lon="6.46607">
        <ele>516</ele>
        <time>2012-11-24T09:48:41Z</time>
      </trkpt>
      <trkpt lat="46.33783" lon="6.46609">
        <ele>515</ele>
        <time>2012-11-24T09:48:43Z</time>
      </trkpt>
      <trkpt lat="46.33785" lon="6.46611">
        <ele>515</ele>
        <time>2012-11-24T09:48:44Z</time>
      </trkpt>
      <trkpt lat="46.33787" lon="6.46613">
        <ele>514</ele>
        <time>2012-11-24T09:48:45Z</time>
      </trkpt>
      <trkpt lat="46.33788" lon="6.46615">
        <ele>514</ele>
        <time>2012-11-24T09:48:46Z</time>
      </trkpt>
      <trkpt lat="46.3379" lon="6.46617">
        <ele>513</ele>
        <time>2012-11-24T09:48:47Z</time>
      </trkpt>
      <trkpt lat="46.33792" lon="6.46619">
        <ele>513</ele>
        <time>2012-11-24T09:48:48Z</time>
      </trkpt>
      <trkpt lat="46.33794" lon="6.46621">
        <ele>513</ele>
        <time>2012-11-24T09:48:49Z</time>
      </trkpt>
      <trkpt lat="46.33796" lon="6.46623">
        <ele>512</ele>
        <time>2012-11-24T09:48:50Z</time>
      </trkpt>
      <trkpt lat="46.33797" lon="6.46625">
        <ele>512</ele>
        <time>2012-11-24T09:48:51Z</time>
      </trkpt>
      <trkpt lat="46.33799" lon="6.46627">
        <ele>511</ele>
        <time>2012-11-24T09:48:52Z</time>
      </trkpt>
      <trkpt lat="46.33801" lon="6.46628">
        <ele>511</ele>
        <time>2012-11-24T09:48:53Z</time>
      </trkpt>
      <trkpt lat="46.33803" lon="6.46629">
        <ele>510</ele>
        <time>2012-11-24T09:48:54Z</time>
      </trkpt>
      <trkpt lat="46.33805" lon="6.4663">
        <ele>510</ele>
        <time>2012-11-24T09:48:55Z</time>
      </trkpt>
      <trkpt lat="46.33807" lon="6.46631">
        <ele>509</ele>
        <time>2012-11-24T09:48:56Z</time>
      </trkpt>
      <trkpt lat="46.33808" lon="6.46631">
        <ele>508</ele>
        <time>2012-11-24T09:48:57Z</time>
      </trkpt>
      <trkpt lat="46.3381" lon="6.46632">
        <ele>508</ele>
        <time>2012-11-24T09:48:58Z</time>
      </trkpt>
      <trkpt lat="46.33812" lon="6.46632">
        <ele>507</ele>
        <time>2012-11-24T09:48:59Z</time>
      </trkpt>
      <trkpt lat="46.33814" lon="6.46633">
        <ele>506</ele>
        <time>2012-11-24T09:49:00Z</time>
      </trkpt>
      <trkpt lat="46.33815" lon="6.46633">
        <ele>506</ele>
        <time>2012-11-24T09:49:01Z</time>
      </trkpt>
      <trkpt lat="46.33817" lon="6.46634">
        <ele>505</ele>
        <time>2012-11-24T09:49:02Z</time>
      </trkpt>
      <trkpt lat="46.33819" lon="6.46636">
        <ele>505</ele>
        <time>2012-11-24T09:49:03Z</time>
      </trkpt>
      <trkpt lat="46.3382" lon="6.46639">
        <ele>505</ele>
        <time>2012-11-24T09:49:04Z</time>
      </trkpt>
      <trkpt lat="46.33821" lon="6.46641">
        <ele>505</ele>
        <time>2012-11-24T09:49:05Z</time>
      </trkpt>
      <trkpt lat="46.33821" lon="6.46643">
        <ele>505</ele>
        <time>2012-11-24T09:49:06Z</time>
      </trkpt>
      <trkpt lat="46.33822" lon="6.46647">
        <ele>505</ele>
        <time>2012-11-24T09:49:07Z</time>
      </trkpt>
      <trkpt lat="46.33822" lon="6.46651">
        <ele>505</ele>
        <time>2012-11-24T09:49:08Z</time>
      </trkpt>
      <trkpt lat="46.33822" lon="6.46654">
        <ele>505</ele>
        <time>2012-11-24T09:49:09Z</time>
      </trkpt>
      <trkpt lat="46.33823" lon="6.46657">
        <ele>505</ele>
        <time>2012-11-24T09:49:10Z</time>
      </trkpt>
      <trkpt lat="46.33824" lon="6.46659">
        <ele>505</ele>
        <time>2012-11-24T09:49:11Z</time>
      </trkpt>
      <trkpt lat="46.33825" lon="6.4666">
        <ele>505</ele>
        <time>2012-11-24T09:49:12Z</time>
      </trkpt>
      <trkpt lat="46.33827" lon="6.4666">
        <ele>504</ele>
        <time>2012-11-24T09:49:13Z</time>
      </trkpt>
      <trkpt lat="46.33829" lon="6.46659">
        <ele>503</ele>
        <time>2012-11-24T09:49:14Z</time>
      </trkpt>
      <trkpt lat="46.33831" lon="6.46658">
        <ele>502</ele>
        <time>2012-11-24T09:49:15Z</time>
      </trkpt>
      <trkpt lat="46.33833" lon="6.46657">
        <ele>501</ele>
        <time>2012-11-24T09:49:16Z</time>
      </trkpt>
      <trkpt lat="46.33835" lon="6.46658">
        <ele>500</ele>
        <time>2012-11-24T09:49:17Z</time>
      </trkpt>
      <trkpt lat="46.33836" lon="6.46658">
        <ele>499</ele>
        <time>2012-11-24T09:49:18Z</time>
      </trkpt>
      <trkpt lat="46.33838" lon="6.46659">
        <ele>498</ele>
        <time>2012-11-24T09:49:19Z</time>
      </trkpt>
      <trkpt lat="46.33839" lon="6.46659">
        <ele>497</ele>
        <time>2012-11-24T09:49:20Z</time>
      </trkpt>
      <trkpt lat="46.3384" lon="6.46661">
        <ele>497</ele>
        <time>2012-11-24T09:49:21Z</time>
      </trkpt>
      <trkpt lat="46.33841" lon="6.46663">
        <ele>497</ele>
        <time>2012-11-24T09:49:22Z</time>
      </trkpt>
      <trkpt lat="46.33843" lon="6.46666">
        <ele>497</ele>
        <time>2012-11-24T09:49:23Z</time>
      </trkpt>
      <trkpt lat="46.33844" lon="6.4667">
        <ele>497</ele>
        <time>2012-11-24T09:49:24Z</time>
      </trkpt>
      <trkpt lat="46.33845" lon="6.46673">
        <ele>497</ele>
        <time>2012-11-24T09:49:25Z</time>
      </trkpt>
      <trkpt lat="46.33847" lon="6.46674">
        <ele>497</ele>
        <time>2012-11-24T09:49:26Z</time>
      </trkpt>
      <trkpt lat="46.33848" lon="6.46674">
        <ele>497</ele>
        <time>2012-11-24T09:49:27Z</time>
      </trkpt>
      <trkpt lat="46.3385" lon="6.46675">
        <ele>497</ele>
        <time>2012-11-24T09:49:29Z</time>
      </trkpt>
      <trkpt lat="46.33852" lon="6.46675">
        <ele>496</ele>
        <time>2012-11-24T09:49:30Z</time>
      </trkpt>
      <trkpt lat="46.33854" lon="6.46676">
        <ele>495</ele>
        <time>2012-11-24T09:49:31Z</time>
      </trkpt>
      <trkpt lat="46.33857" lon="6.46676">
        <ele>494</ele>
        <time>2012-11-24T09:49:32Z</time>
      </trkpt>
      <trkpt lat="46.3386" lon="6.46678">
        <ele>493</ele>
        <time>2012-11-24T09:49:33Z</time>
      </trkpt>
      <trkpt lat="46.33863" lon="6.46679">
        <ele>493</ele>
        <time>2012-11-24T09:49:34Z</time>
      </trkpt>
      <trkpt lat="46.33865" lon="6.46681">
        <ele>493</ele>
        <time>2012-11-24T09:49:35Z</time>
      </trkpt>
      <trkpt lat="46.33866" lon="6.46682">
        <ele>493</ele>
        <time>2012-11-24T09:49:36Z</time>
      </trkpt>
      <trkpt lat="46.33869" lon="6.46684">
        <ele>493</ele>
        <time>2012-11-24T09:49:37Z</time>
      </trkpt>
      <trkpt lat="46.33872" lon="6.46686">
        <ele>493</ele>
        <time>2012-11-24T09:49:38Z</time>
      </trkpt>
      <trkpt lat="46.33873" lon="6.46687">
        <ele>493</ele>
        <time>2012-11-24T09:49:39Z</time>
      </trkpt>
      <trkpt lat="46.33876" lon="6.46689">
        <ele>493</ele>
        <time>2012-11-24T09:49:40Z</time>
      </trkpt>
      <trkpt lat="46.33878" lon="6.4669">
        <ele>493</ele>
        <time>2012-11-24T09:49:41Z</time>
      </trkpt>
      <trkpt lat="46.33881" lon="6.4669">
        <ele>493</ele>
        <time>2012-11-24T09:49:42Z</time>
      </trkpt>
      <trkpt lat="46.33884" lon="6.4669">
        <ele>492</ele>
        <time>2012-11-24T09:49:43Z</time>
      </trkpt>
      <trkpt lat="46.33886" lon="6.4669">
        <ele>492</ele>
        <time>2012-11-24T09:49:44Z</time>
      </trkpt>
      <trkpt lat="46.33889" lon="6.46689">
        <ele>492</ele>
        <time>2012-11-24T09:49:45Z</time>
      </trkpt>
      <trkpt lat="46.3389" lon="6.46688">
        <ele>491</ele>
        <time>2012-11-24T09:49:46Z</time>
      </trkpt>
      <trkpt lat="46.33892" lon="6.46687">
        <ele>490</ele>
        <time>2012-11-24T09:49:47Z</time>
      </trkpt>
      <trkpt lat="46.33895" lon="6.46687">
        <ele>489</ele>
        <time>2012-11-24T09:49:48Z</time>
      </trkpt>
      <trkpt lat="46.33897" lon="6.46688">
        <ele>488</ele>
        <time>2012-11-24T09:49:49Z</time>
      </trkpt>
      <trkpt lat="46.33898" lon="6.46689">
        <ele>487</ele>
        <time>2012-11-24T09:49:50Z</time>
      </trkpt>
      <trkpt lat="46.339" lon="6.46689">
        <ele>487</ele>
        <time>2012-11-24T09:49:51Z</time>
      </trkpt>
      <trkpt lat="46.33901" lon="6.4669">
        <ele>487</ele>
        <time>2012-11-24T09:49:52Z</time>
      </trkpt>
      <trkpt lat="46.33903" lon="6.46691">
        <ele>487</ele>
        <time>2012-11-24T09:49:53Z</time>
      </trkpt>
      <trkpt lat="46.33904" lon="6.46691">
        <ele>487</ele>
        <time>2012-11-24T09:49:54Z</time>
      </trkpt>
      <trkpt lat="46.33902" lon="6.46693">
        <ele>489</ele>
        <time>2012-11-24T09:49:57Z</time>
      </trkpt>
      <trkpt lat="46.33901" lon="6.46696">
        <ele>491</ele>
        <time>2012-11-24T09:49:59Z</time>
      </trkpt>
      <trkpt lat="46.339" lon="6.46698">
        <ele>492</ele>
        <time>2012-11-24T09:50:00Z</time>
      </trkpt>
      <trkpt lat="46.33899" lon="6.46699">
        <ele>493</ele>
        <time>2012-11-24T09:50:01Z</time>
      </trkpt>
      <trkpt lat="46.33897" lon="6.46699">
        <ele>495</ele>
        <time>2012-11-24T09:50:03Z</time>
      </trkpt>
      <trkpt lat="46.33895" lon="6.46701">
        <ele>496</ele>
        <time>2012-11-24T09:50:05Z</time>
      </trkpt>
      <trkpt lat="46.33894" lon="6.46702">
        <ele>496</ele>
        <time>2012-11-24T09:50:06Z</time>
      </trkpt>
      <trkpt lat="46.33891" lon="6.46703">
        <ele>496</ele>
        <time>2012-11-24T09:50:08Z</time>
      </trkpt>
      <trkpt lat="46.33889" lon="6.46703">
        <ele>496</ele>
        <time>2012-11-24T09:50:09Z</time>
      </trkpt>
      <trkpt lat="46.33887" lon="6.46705">
        <ele>496</ele>
        <time>2012-11-24T09:50:10Z</time>
      </trkpt>
      <trkpt lat="46.33885" lon="6.46705">
        <ele>496</ele>
        <time>2012-11-24T09:50:11Z</time>
      </trkpt>
      <trkpt lat="46.33883" lon="6.46705">
        <ele>496</ele>
        <time>2012-11-24T09:50:12Z</time>
      </trkpt>
      <trkpt lat="46.33881" lon="6.46705">
        <ele>496</ele>
        <time>2012-11-24T09:50:13Z</time>
      </trkpt>
      <trkpt lat="46.33879" lon="6.46706">
        <ele>496</ele>
        <time>2012-11-24T09:50:14Z</time>
      </trkpt>
      <trkpt lat="46.33877" lon="6.46708">
        <ele>496</ele>
        <time>2012-11-24T09:50:15Z</time>
      </trkpt>
      <trkpt lat="46.33876" lon="6.4671">
        <ele>496</ele>
        <time>2012-11-24T09:50:16Z</time>
      </trkpt>
      <trkpt lat="46.33874" lon="6.46713">
        <ele>496</ele>
        <time>2012-11-24T09:50:17Z</time>
      </trkpt>
      <trkpt lat="46.33872" lon="6.46715">
        <ele>496</ele>
        <time>2012-11-24T09:50:18Z</time>
      </trkpt>
      <trkpt lat="46.33869" lon="6.46716">
        <ele>496</ele>
        <time>2012-11-24T09:50:19Z</time>
      </trkpt>
      <trkpt lat="46.33866" lon="6.46719">
        <ele>496</ele>
        <time>2012-11-24T09:50:20Z</time>
      </trkpt>
      <trkpt lat="46.33864" lon="6.46722">
        <ele>497</ele>
        <time>2012-11-24T09:50:21Z</time>
      </trkpt>
      <trkpt lat="46.33863" lon="6.46725">
        <ele>498</ele>
        <time>2012-11-24T09:50:22Z</time>
      </trkpt>
      <trkpt lat="46.33862" lon="6.46728">
        <ele>499</ele>
        <time>2012-11-24T09:50:23Z</time>
      </trkpt>
      <trkpt lat="46.3386" lon="6.46729">
        <ele>500</ele>
        <time>2012-11-24T09:50:24Z</time>
      </trkpt>
      <trkpt lat="46.33858" lon="6.4673">
        <ele>501</ele>
        <time>2012-11-24T09:50:25Z</time>
      </trkpt>
      <trkpt lat="46.33857" lon="6.46732">
        <ele>501</ele>
        <time>2012-11-24T09:50:26Z</time>
      </trkpt>
      <trkpt lat="46.33856" lon="6.46734">
        <ele>501</ele>
        <time>2012-11-24T09:50:27Z</time>
      </trkpt>
      <trkpt lat="46.33855" lon="6.46736">
        <ele>501</ele>
        <time>2012-11-24T09:50:28Z</time>
      </trkpt>
      <trkpt lat="46.33854" lon="6.46738">
        <ele>501</ele>
        <time>2012-11-24T09:50:29Z</time>
      </trkpt>
      <trkpt lat="46.33852" lon="6.46739">
        <ele>501</ele>
        <time>2012-11-24T09:50:30Z</time>
      </trkpt>
      <trkpt lat="46.33851" lon="6.46741">
        <ele>501</ele>
        <time>2012-11-24T09:50:31Z</time>
      </trkpt>
      <trkpt lat="46.33849" lon="6.46742">
        <ele>501</ele>
        <time>2012-11-24T09:50:32Z</time>
      </trkpt>
      <trkpt lat="46.33847" lon="6.46744">
        <ele>501</ele>
        <time>2012-11-24T09:50:33Z</time>
      </trkpt>
      <trkpt lat="46.33845" lon="6.46745">
        <ele>501</ele>
        <time>2012-11-24T09:50:34Z</time>
      </trkpt>
      <trkpt lat="46.33842" lon="6.46745">
        <ele>501</ele>
        <time>2012-11-24T09:50:35Z</time>
      </trkpt>
      <trkpt lat="46.33839" lon="6.46746">
        <ele>501</ele>
        <time>2012-11-24T09:50:36Z</time>
      </trkpt>
      <trkpt lat="46.33838" lon="6.46748">
        <ele>501</ele>
        <time>2012-11-24T09:50:37Z</time>
      </trkpt>
      <trkpt lat="46.33836" lon="6.4675">
        <ele>501</ele>
        <time>2012-11-24T09:50:38Z</time>
      </trkpt>
      <trkpt lat="46.33835" lon="6.46753">
        <ele>501</ele>
        <time>2012-11-24T09:50:39Z</time>
      </trkpt>
      <trkpt lat="46.33834" lon="6.46756">
        <ele>501</ele>
        <time>2012-11-24T09:50:40Z</time>
      </trkpt>
      <trkpt lat="46.33834" lon="6.46758">
        <ele>501</ele>
        <time>2012-11-24T09:50:41Z</time>
      </trkpt>
      <trkpt lat="46.33833" lon="6.46763">
        <ele>501</ele>
        <time>2012-11-24T09:50:42Z</time>
      </trkpt>
      <trkpt lat="46.33833" lon="6.46766">
        <ele>501</ele>
        <time>2012-11-24T09:50:43Z</time>
      </trkpt>
      <trkpt lat="46.33832" lon="6.46769">
        <ele>501</ele>
        <time>2012-11-24T09:50:44Z</time>
      </trkpt>
      <trkpt lat="46.33831" lon="6.46772">
        <ele>501</ele>
        <time>2012-11-24T09:50:45Z</time>
      </trkpt>
      <trkpt lat="46.3383" lon="6.46774">
        <ele>501</ele>
        <time>2012-11-24T09:50:46Z</time>
      </trkpt>
      <trkpt lat="46.33829" lon="6.46778">
        <ele>501</ele>
        <time>2012-11-24T09:50:47Z</time>
      </trkpt>
      <trkpt lat="46.33828" lon="6.46781">
        <ele>501</ele>
        <time>2012-11-24T09:50:48Z</time>
      </trkpt>
      <trkpt lat="46.33827" lon="6.46785">
        <ele>501</ele>
        <time>2012-11-24T09:50:49Z</time>
      </trkpt>
      <trkpt lat="46.33826" lon="6.46789">
        <ele>502</ele>
        <time>2012-11-24T09:50:50Z</time>
      </trkpt>
      <trkpt lat="46.33825" lon="6.46792">
        <ele>503</ele>
        <time>2012-11-24T09:50:51Z</time>
      </trkpt>
      <trkpt lat="46.33825" lon="6.46793">
        <ele>504</ele>
        <time>2012-11-24T09:50:52Z</time>
      </trkpt>
      <trkpt lat="46.33824" lon="6.46796">
        <ele>505</ele>
        <time>2012-11-24T09:50:53Z</time>
      </trkpt>
      <trkpt lat="46.33824" lon="6.46798">
        <ele>506</ele>
        <time>2012-11-24T09:50:54Z</time>
      </trkpt>
      <trkpt lat="46.33824" lon="6.46801">
        <ele>507</ele>
        <time>2012-11-24T09:50:55Z</time>
      </trkpt>
      <trkpt lat="46.33824" lon="6.46803">
        <ele>508</ele>
        <time>2012-11-24T09:50:56Z</time>
      </trkpt>
      <trkpt lat="46.33823" lon="6.46807">
        <ele>509</ele>
        <time>2012-11-24T09:50:57Z</time>
      </trkpt>
      <trkpt lat="46.33822" lon="6.46809">
        <ele>510</ele>
        <time>2012-11-24T09:50:58Z</time>
      </trkpt>
      <trkpt lat="46.3382" lon="6.46812">
        <ele>511</ele>
        <time>2012-11-24T09:50:59Z</time>
      </trkpt>
      <trkpt lat="46.3382" lon="6.46814">
        <ele>512</ele>
        <time>2012-11-24T09:51:00Z</time>
      </trkpt>
      <trkpt lat="46.33818" lon="6.46816">
        <ele>513</ele>
        <time>2012-11-24T09:51:01Z</time>
      </trkpt>
      <trkpt lat="46.33818" lon="6.46819">
        <ele>514</ele>
        <time>2012-11-24T09:51:02Z</time>
      </trkpt>
      <trkpt lat="46.33818" lon="6.46822">
        <ele>514</ele>
        <time>2012-11-24T09:51:03Z</time>
      </trkpt>
      <trkpt lat="46.3382" lon="6.46824">
        <ele>514</ele>
        <time>2012-11-24T09:51:04Z</time>
      </trkpt>
      <trkpt lat="46.3382" lon="6.46826">
        <ele>514</ele>
        <time>2012-11-24T09:51:05Z</time>
      </trkpt>
      <trkpt lat="46.33821" lon="6.46829">
        <ele>515</ele>
        <time>2012-11-24T09:51:06Z</time>
      </trkpt>
      <trkpt lat="46.33823" lon="6.46832">
        <ele>515</ele>
        <time>2012-11-24T09:51:07Z</time>
      </trkpt>
      <trkpt lat="46.33823" lon="6.46835">
        <ele>515</ele>
        <time>2012-11-24T09:51:08Z</time>
      </trkpt>
      <trkpt lat="46.33822" lon="6.46837">
        <ele>515</ele>
        <time>2012-11-24T09:51:09Z</time>
      </trkpt>
      <trkpt lat="46.33823" lon="6.46841">
        <ele>515</ele>
        <time>2012-11-24T09:51:10Z</time>
      </trkpt>
      <trkpt lat="46.33823" lon="6.46844">
        <ele>515</ele>
        <time>2012-11-24T09:51:11Z</time>
      </trkpt>
      <trkpt lat="46.33824" lon="6.46848">
        <ele>515</ele>
        <time>2012-11-24T09:51:12Z</time>
      </trkpt>
      <trkpt lat="46.33825" lon="6.46851">
        <ele>515</ele>
        <time>2012-11-24T09:51:13Z</time>
      </trkpt>
      <trkpt lat="46.33826" lon="6.46853">
        <ele>515</ele>
        <time>2012-11-24T09:51:14Z</time>
      </trkpt>
      <trkpt lat="46.33826" lon="6.46856">
        <ele>515</ele>
        <time>2012-11-24T09:51:15Z</time>
      </trkpt>
      <trkpt lat="46.33828" lon="6.4686">
        <ele>515</ele>
        <time>2012-11-24T09:51:16Z</time>
      </trkpt>
      <trkpt lat="46.33829" lon="6.46863">
        <ele>516</ele>
        <time>2012-11-24T09:51:17Z</time>
      </trkpt>
      <trkpt lat="46.33831" lon="6.46866">
        <ele>516</ele>
        <time>2012-11-24T09:51:18Z</time>
      </trkpt>
      <trkpt lat="46.33833" lon="6.46867">
        <ele>517</ele>
        <time>2012-11-24T09:51:19Z</time>
      </trkpt>
      <trkpt lat="46.33834" lon="6.46869">
        <ele>518</ele>
        <time>2012-11-24T09:51:20Z</time>
      </trkpt>
      <trkpt lat="46.33835" lon="6.46872">
        <ele>519</ele>
        <time>2012-11-24T09:51:21Z</time>
      </trkpt>
      <trkpt lat="46.33836" lon="6.46874">
        <ele>519</ele>
        <time>2012-11-24T09:51:22Z</time>
      </trkpt>
      <trkpt lat="46.33838" lon="6.46875">
        <ele>519</ele>
        <time>2012-11-24T09:51:23Z</time>
      </trkpt>
      <trkpt lat="46.33839" lon="6.46878">
        <ele>519</ele>
        <time>2012-11-24T09:51:24Z</time>
      </trkpt>
      <trkpt lat="46.3384" lon="6.4688">
        <ele>520</ele>
        <time>2012-11-24T09:51:25Z</time>
      </trkpt>
      <trkpt lat="46.3384" lon="6.46884">
        <ele>520</ele>
        <time>2012-11-24T09:51:26Z</time>
      </trkpt>
      <trkpt lat="46.3384" lon="6.46888">
        <ele>520</ele>
        <time>2012-11-24T09:51:27Z</time>
      </trkpt>
      <trkpt lat="46.33839" lon="6.46891">
        <ele>520</ele>
        <time>2012-11-24T09:51:28Z</time>
      </trkpt>
      <trkpt lat="46.33839" lon="6.46895">
        <ele>520</ele>
        <time>2012-11-24T09:51:29Z</time>
      </trkpt>
      <trkpt lat="46.3384" lon="6.46898">
        <ele>520</ele>
        <time>2012-11-24T09:51:30Z</time>
      </trkpt>
      <trkpt lat="46.3384" lon="6.46901">
        <ele>520</ele>
        <time>2012-11-24T09:51:31Z</time>
      </trkpt>
      <trkpt lat="46.3384" lon="6.46904">
        <ele>520</ele>
        <time>2012-11-24T09:51:32Z</time>
      </trkpt>
      <trkpt lat="46.33841" lon="6.46907">
        <ele>520</ele>
        <time>2012-11-24T09:51:33Z</time>
      </trkpt>
      <trkpt lat="46.33842" lon="6.4691">
        <ele>520</ele>
        <time>2012-11-24T09:51:34Z</time>
      </trkpt>
      <trkpt lat="46.33842" lon="6.46912">
        <ele>520</ele>
        <time>2012-11-24T09:51:35Z</time>
      </trkpt>
      <trkpt lat="46.33841" lon="6.46914">
        <ele>520</ele>
        <time>2012-11-24T09:51:36Z</time>
      </trkpt>
      <trkpt lat="46.33842" lon="6.46917">
        <ele>520</ele>
        <time>2012-11-24T09:51:37Z</time>
      </trkpt>
      <trkpt lat="46.33843" lon="6.4692">
        <ele>520</ele>
        <time>2012-11-24T09:51:38Z</time>
      </trkpt>
      <trkpt lat="46.33844" lon="6.46923">
        <ele>520</ele>
        <time>2012-11-24T09:51:39Z</time>
      </trkpt>
      <trkpt lat="46.33847" lon="6.46926">
        <ele>520</ele>
        <time>2012-11-24T09:51:40Z</time>
      </trkpt>
      <trkpt lat="46.33847" lon="6.4693">
        <ele>520</ele>
        <time>2012-11-24T09:51:41Z</time>
      </trkpt>
      <trkpt lat="46.33847" lon="6.46932">
        <ele>520</ele>
        <time>2012-11-24T09:51:42Z</time>
      </trkpt>
      <trkpt lat="46.33847" lon="6.46935">
        <ele>520</ele>
        <time>2012-11-24T09:51:43Z</time>
      </trkpt>
      <trkpt lat="46.33846" lon="6.46936">
        <ele>519</ele>
        <time>2012-11-24T09:51:44Z</time>
      </trkpt>
      <trkpt lat="46.33845" lon="6.46938">
        <ele>518</ele>
        <time>2012-11-24T09:51:45Z</time>
      </trkpt>
      <trkpt lat="46.33844" lon="6.4694">
        <ele>517</ele>
        <time>2012-11-24T09:51:46Z</time>
      </trkpt>
      <trkpt lat="46.33842" lon="6.46942">
        <ele>516</ele>
        <time>2012-11-24T09:51:47Z</time>
      </trkpt>
      <trkpt lat="46.33841" lon="6.46944">
        <ele>516</ele>
        <time>2012-11-24T09:51:48Z</time>
      </trkpt>
      <trkpt lat="46.3384" lon="6.46946">
        <ele>515</ele>
        <time>2012-11-24T09:51:49Z</time>
      </trkpt>
      <trkpt lat="46.33838" lon="6.46948">
        <ele>515</ele>
        <time>2012-11-24T09:51:50Z</time>
      </trkpt>
      <trkpt lat="46.33837" lon="6.46952">
        <ele>514</ele>
        <time>2012-11-24T09:51:51Z</time>
      </trkpt>
      <trkpt lat="46.33836" lon="6.46955">
        <ele>514</ele>
        <time>2012-11-24T09:51:52Z</time>
      </trkpt>
      <trkpt lat="46.33836" lon="6.46958">
        <ele>514</ele>
        <time>2012-11-24T09:51:53Z</time>
      </trkpt>
      <trkpt lat="46.33836" lon="6.46961">
        <ele>514</ele>
        <time>2012-11-24T09:51:54Z</time>
      </trkpt>
      <trkpt lat="46.33835" lon="6.46965">
        <ele>514</ele>
        <time>2012-11-24T09:51:55Z</time>
      </trkpt>
      <trkpt lat="46.33835" lon="6.46968">
        <ele>514</ele>
        <time>2012-11-24T09:51:56Z</time>
      </trkpt>
      <trkpt lat="46.33834" lon="6.46971">
        <ele>514</ele>
        <time>2012-11-24T09:51:57Z</time>
      </trkpt>
      <trkpt lat="46.33832" lon="6.46972">
        <ele>514</ele>
        <time>2012-11-24T09:51:58Z</time>
      </trkpt>
      <trkpt lat="46.33831" lon="6.46974">
        <ele>514</ele>
        <time>2012-11-24T09:51:59Z</time>
      </trkpt>
      <trkpt lat="46.3383" lon="6.46977">
        <ele>514</ele>
        <time>2012-11-24T09:52:00Z</time>
      </trkpt>
      <trkpt lat="46.33829" lon="6.4698">
        <ele>513</ele>
        <time>2012-11-24T09:52:01Z</time>
      </trkpt>
      <trkpt lat="46.33829" lon="6.46984">
        <ele>513</ele>
        <time>2012-11-24T09:52:02Z</time>
      </trkpt>
      <trkpt lat="46.33829" lon="6.46987">
        <ele>513</ele>
        <time>2012-11-24T09:52:03Z</time>
      </trkpt>
      <trkpt lat="46.3383" lon="6.4699">
        <ele>513</ele>
        <time>2012-11-24T09:52:04Z</time>
      </trkpt>
      <trkpt lat="46.33833" lon="6.46992">
        <ele>513</ele>
        <time>2012-11-24T09:52:05Z</time>
      </trkpt>
      <trkpt lat="46.33835" lon="6.46993">
        <ele>513</ele>
        <time>2012-11-24T09:52:06Z</time>
      </trkpt>
      <trkpt lat="46.33837" lon="6.46995">
        <ele>513</ele>
        <time>2012-11-24T09:52:07Z</time>
      </trkpt>
      <trkpt lat="46.33838" lon="6.46996">
        <ele>513</ele>
        <time>2012-11-24T09:52:08Z</time>
      </trkpt>
      <trkpt lat="46.33839" lon="6.46998">
        <ele>513</ele>
        <time>2012-11-24T09:52:09Z</time>
      </trkpt>
      <trkpt lat="46.33842" lon="6.47003">
        <ele>511</ele>
        <time>2012-11-24T09:52:11Z</time>
      </trkpt>
      <trkpt lat="46.33843" lon="6.47006">
        <ele>510</ele>
        <time>2012-11-24T09:52:12Z</time>
      </trkpt>
      <trkpt lat="46.33845" lon="6.4701">
        <ele>509</ele>
        <time>2012-11-24T09:52:13Z</time>
      </trkpt>
      <trkpt lat="46.33847" lon="6.47013">
        <ele>508</ele>
        <time>2012-11-24T09:52:14Z</time>
      </trkpt>
      <trkpt lat="46.33849" lon="6.47016">
        <ele>507</ele>
        <time>2012-11-24T09:52:15Z</time>
      </trkpt>
      <trkpt lat="46.3385" lon="6.47019">
        <ele>507</ele>
        <time>2012-11-24T09:52:16Z</time>
      </trkpt>
      <trkpt lat="46.33851" lon="6.47022">
        <ele>507</ele>
        <time>2012-11-24T09:52:17Z</time>
      </trkpt>
      <trkpt lat="46.33851" lon="6.47026">
        <ele>507</ele>
        <time>2012-11-24T09:52:18Z</time>
      </trkpt>
      <trkpt lat="46.3385" lon="6.4703">
        <ele>507</ele>
        <time>2012-11-24T09:52:19Z</time>
      </trkpt>
      <trkpt lat="46.3385" lon="6.47033">
        <ele>507</ele>
        <time>2012-11-24T09:52:20Z</time>
      </trkpt>
      <trkpt lat="46.3385" lon="6.47038">
        <ele>507</ele>
        <time>2012-11-24T09:52:21Z</time>
      </trkpt>
      <trkpt lat="46.33851" lon="6.47042">
        <ele>507</ele>
        <time>2012-11-24T09:52:22Z</time>
      </trkpt>
      <trkpt lat="46.33852" lon="6.47044">
        <ele>507</ele>
        <time>2012-11-24T09:52:23Z</time>
      </trkpt>
      <trkpt lat="46.33853" lon="6.47046">
        <ele>507</ele>
        <time>2012-11-24T09:52:24Z</time>
      </trkpt>
      <trkpt lat="46.33853" lon="6.47049">
        <ele>507</ele>
        <time>2012-11-24T09:52:25Z</time>
      </trkpt>
      <trkpt lat="46.33854" lon="6.47052">
        <ele>507</ele>
        <time>2012-11-24T09:52:26Z</time>
      </trkpt>
      <trkpt lat="46.33856" lon="6.47054">
        <ele>507</ele>
        <time>2012-11-24T09:52:27Z</time>
      </trkpt>
      <trkpt lat="46.33857" lon="6.47056">
        <ele>507</ele>
        <time>2012-11-24T09:52:28Z</time>
      </trkpt>
      <trkpt lat="46.33858" lon="6.47058">
        <ele>507</ele>
        <time>2012-11-24T09:52:29Z</time>
      </trkpt>
      <trkpt lat="46.33858" lon="6.47059">
        <ele>507</ele>
        <time>2012-11-24T09:52:30Z</time>
      </trkpt>
      <trkpt lat="46.33859" lon="6.47063">
        <ele>507</ele>
        <time>2012-11-24T09:52:31Z</time>
      </trkpt>
      <trkpt lat="46.3386" lon="6.47066">
        <ele>507</ele>
        <time>2012-11-24T09:52:32Z</time>
      </trkpt>
      <trkpt lat="46.33862" lon="6.47068">
        <ele>507</ele>
        <time>2012-11-24T09:52:33Z</time>
      </trkpt>
      <trkpt lat="46.33863" lon="6.47072">
        <ele>507</ele>
        <time>2012-11-24T09:52:35Z</time>
      </trkpt>
      <trkpt lat="46.33864" lon="6.47074">
        <ele>507</ele>
        <time>2012-11-24T09:52:36Z</time>
      </trkpt>
      <trkpt lat="46.33866" lon="6.47077">
        <ele>507</ele>
        <time>2012-11-24T09:52:37Z</time>
      </trkpt>
      <trkpt lat="46.33867" lon="6.4708">
        <ele>507</ele>
        <time>2012-11-24T09:52:38Z</time>
      </trkpt>
      <trkpt lat="46.33868" lon="6.47083">
        <ele>507</ele>
        <time>2012-11-24T09:52:39Z</time>
      </trkpt>
      <trkpt lat="46.3387" lon="6.47086">
        <ele>507</ele>
        <time>2012-11-24T09:52:40Z</time>
      </trkpt>
      <trkpt lat="46.3387" lon="6.47088">
        <ele>507</ele>
        <time>2012-11-24T09:52:41Z</time>
      </trkpt>
      <trkpt lat="46.33871" lon="6.47092">
        <ele>507</ele>
        <time>2012-11-24T09:52:42Z</time>
      </trkpt>
      <trkpt lat="46.33872" lon="6.47095">
        <ele>507</ele>
        <time>2012-11-24T09:52:43Z</time>
      </trkpt>
      <trkpt lat="46.33873" lon="6.47097">
        <ele>507</ele>
        <time>2012-11-24T09:52:44Z</time>
      </trkpt>
      <trkpt lat="46.33874" lon="6.47101">
        <ele>508</ele>
        <time>2012-11-24T09:52:45Z</time>
      </trkpt>
      <trkpt lat="46.33875" lon="6.47104">
        <ele>509</ele>
        <time>2012-11-24T09:52:46Z</time>
      </trkpt>
      <trkpt lat="46.33875" lon="6.47107">
        <ele>509</ele>
        <time>2012-11-24T09:52:47Z</time>
      </trkpt>
      <trkpt lat="46.33875" lon="6.4711">
        <ele>510</ele>
        <time>2012-11-24T09:52:48Z</time>
      </trkpt>
      <trkpt lat="46.33876" lon="6.47113">
        <ele>511</ele>
        <time>2012-11-24T09:52:49Z</time>
      </trkpt>
      <trkpt lat="46.33876" lon="6.47116">
        <ele>512</ele>
        <time>2012-11-24T09:52:50Z</time>
      </trkpt>
      <trkpt lat="46.33877" lon="6.47119">
        <ele>513</ele>
        <time>2012-11-24T09:52:51Z</time>
      </trkpt>
      <trkpt lat="46.33879" lon="6.47121">
        <ele>513</ele>
        <time>2012-11-24T09:52:52Z</time>
      </trkpt>
      <trkpt lat="46.3388" lon="6.47125">
        <ele>513</ele>
        <time>2012-11-24T09:52:53Z</time>
      </trkpt>
      <trkpt lat="46.33881" lon="6.47127">
        <ele>513</ele>
        <time>2012-11-24T09:52:54Z</time>
      </trkpt>
      <trkpt lat="46.33882" lon="6.4713">
        <ele>513</ele>
        <time>2012-11-24T09:52:55Z</time>
      </trkpt>
      <trkpt lat="46.33882" lon="6.47134">
        <ele>513</ele>
        <time>2012-11-24T09:52:56Z</time>
      </trkpt>
      <trkpt lat="46.33883" lon="6.47137">
        <ele>513</ele>
        <time>2012-11-24T09:52:57Z</time>
      </trkpt>
      <trkpt lat="46.33884" lon="6.4714">
        <ele>514</ele>
        <time>2012-11-24T09:52:58Z</time>
      </trkpt>
      <trkpt lat="46.33885" lon="6.47142">
        <ele>514</ele>
        <time>2012-11-24T09:52:59Z</time>
      </trkpt>
      <trkpt lat="46.33886" lon="6.47146">
        <ele>514</ele>
        <time>2012-11-24T09:53:00Z</time>
      </trkpt>
      <trkpt lat="46.33887" lon="6.47149">
        <ele>514</ele>
        <time>2012-11-24T09:53:01Z</time>
      </trkpt>
      <trkpt lat="46.33889" lon="6.47152">
        <ele>514</ele>
        <time>2012-11-24T09:53:02Z</time>
      </trkpt>
      <trkpt lat="46.33889" lon="6.47156">
        <ele>514</ele>
        <time>2012-11-24T09:53:03Z</time>
      </trkpt>
      <trkpt lat="46.33889" lon="6.47159">
        <ele>514</ele>
        <time>2012-11-24T09:53:04Z</time>
      </trkpt>
      <trkpt lat="46.3389" lon="6.47162">
        <ele>514</ele>
        <time>2012-11-24T09:53:05Z</time>
      </trkpt>
      <trkpt lat="46.3389" lon="6.47164">
        <ele>514</ele>
        <time>2012-11-24T09:53:06Z</time>
      </trkpt>
      <trkpt lat="46.33889" lon="6.47165">
        <ele>514</ele>
        <time>2012-11-24T09:53:07Z</time>
      </trkpt>
      <trkpt lat="46.33889" lon="6.47167">
        <ele>514</ele>
        <time>2012-11-24T09:53:08Z</time>
      </trkpt>
      <trkpt lat="46.33889" lon="6.47169">
        <ele>514</ele>
        <time>2012-11-24T09:53:09Z</time>
      </trkpt>
      <trkpt lat="46.33889" lon="6.47171">
        <ele>514</ele>
        <time>2012-11-24T09:53:10Z</time>
      </trkpt>
      <trkpt lat="46.33889" lon="6.47174">
        <ele>514</ele>
        <time>2012-11-24T09:53:11Z</time>
      </trkpt>
      <trkpt lat="46.3389" lon="6.47178">
        <ele>514</ele>
        <time>2012-11-24T09:53:12Z</time>
      </trkpt>
      <trkpt lat="46.33891" lon="6.47182">
        <ele>514</ele>
        <time>2012-11-24T09:53:13Z</time>
      </trkpt>
      <trkpt lat="46.33891" lon="6.47186">
        <ele>515</ele>
        <time>2012-11-24T09:53:14Z</time>
      </trkpt>
      <trkpt lat="46.33892" lon="6.47189">
        <ele>516</ele>
        <time>2012-11-24T09:53:15Z</time>
      </trkpt>
      <trkpt lat="46.33892" lon="6.47192">
        <ele>517</ele>
        <time>2012-11-24T09:53:16Z</time>
      </trkpt>
      <trkpt lat="46.33892" lon="6.47196">
        <ele>518</ele>
        <time>2012-11-24T09:53:17Z</time>
      </trkpt>
      <trkpt lat="46.33892" lon="6.47198">
        <ele>519</ele>
        <time>2012-11-24T09:53:18Z</time>
      </trkpt>
      <trkpt lat="46.33892" lon="6.47202">
        <ele>520</ele>
        <time>2012-11-24T09:53:19Z</time>
      </trkpt>
      <trkpt lat="46.33892" lon="6.47206">
        <ele>521</ele>
        <time>2012-11-24T09:53:20Z</time>
      </trkpt>
      <trkpt lat="46.33892" lon="6.47209">
        <ele>522</ele>
        <time>2012-11-24T09:53:21Z</time>
      </trkpt>
      <trkpt lat="46.33893" lon="6.47212">
        <ele>523</ele>
        <time>2012-11-24T09:53:22Z</time>
      </trkpt>
      <trkpt lat="46.33894" lon="6.47215">
        <ele>524</ele>
        <time>2012-11-24T09:53:23Z</time>
      </trkpt>
      <trkpt lat="46.33895" lon="6.47217">
        <ele>525</ele>
        <time>2012-11-24T09:53:24Z</time>
      </trkpt>
      <trkpt lat="46.33894" lon="6.4722">
        <ele>525</ele>
        <time>2012-11-24T09:53:25Z</time>
      </trkpt>
      <trkpt lat="46.33893" lon="6.47223">
        <ele>525</ele>
        <time>2012-11-24T09:53:26Z</time>
      </trkpt>
      <trkpt lat="46.33892" lon="6.47225">
        <ele>525</ele>
        <time>2012-11-24T09:53:27Z</time>
      </trkpt>
      <trkpt lat="46.3389" lon="6.47227">
        <ele>525</ele>
        <time>2012-11-24T09:53:28Z</time>
      </trkpt>
      <trkpt lat="46.33888" lon="6.4723">
        <ele>525</ele>
        <time>2012-11-24T09:53:29Z</time>
      </trkpt>
      <trkpt lat="46.33887" lon="6.47233">
        <ele>525</ele>
        <time>2012-11-24T09:53:30Z</time>
      </trkpt>
      <trkpt lat="46.33887" lon="6.47236">
        <ele>525</ele>
        <time>2012-11-24T09:53:31Z</time>
      </trkpt>
      <trkpt lat="46.33886" lon="6.47238">
        <ele>524</ele>
        <time>2012-11-24T09:53:33Z</time>
      </trkpt>
      <trkpt lat="46.33885" lon="6.4724">
        <ele>524</ele>
        <time>2012-11-24T09:53:34Z</time>
      </trkpt>
      <trkpt lat="46.33884" lon="6.47246">
        <ele>523</ele>
        <time>2012-11-24T09:53:35Z</time>
      </trkpt>
      <trkpt lat="46.33885" lon="6.47249">
        <ele>523</ele>
        <time>2012-11-24T09:53:36Z</time>
      </trkpt>
      <trkpt lat="46.33885" lon="6.47253">
        <ele>522</ele>
        <time>2012-11-24T09:53:37Z</time>
      </trkpt>
      <trkpt lat="46.33883" lon="6.47255">
        <ele>522</ele>
        <time>2012-11-24T09:53:38Z</time>
      </trkpt>
      <trkpt lat="46.33883" lon="6.47257">
        <ele>521</ele>
        <time>2012-11-24T09:53:39Z</time>
      </trkpt>
      <trkpt lat="46.33882" lon="6.47259">
        <ele>520</ele>
        <time>2012-11-24T09:53:40Z</time>
      </trkpt>
      <trkpt lat="46.33882" lon="6.47261">
        <ele>520</ele>
        <time>2012-11-24T09:53:41Z</time>
      </trkpt>
      <trkpt lat="46.33883" lon="6.47264">
        <ele>520</ele>
        <time>2012-11-24T09:53:42Z</time>
      </trkpt>
      <trkpt lat="46.33883" lon="6.47268">
        <ele>520</ele>
        <time>2012-11-24T09:53:43Z</time>
      </trkpt>
      <trkpt lat="46.33882" lon="6.47271">
        <ele>520</ele>
        <time>2012-11-24T09:53:44Z</time>
      </trkpt>
      <trkpt lat="46.33881" lon="6.47274">
        <ele>520</ele>
        <time>2012-11-24T09:53:45Z</time>
      </trkpt>
      <trkpt lat="46.3388" lon="6.47276">
        <ele>520</ele>
        <time>2012-11-24T09:53:46Z</time>
      </trkpt>
      <trkpt lat="46.33879" lon="6.47278">
        <ele>520</ele>
        <time>2012-11-24T09:53:47Z</time>
      </trkpt>
      <trkpt lat="46.33879" lon="6.47281">
        <ele>520</ele>
        <time>2012-11-24T09:53:48Z</time>
      </trkpt>
      <trkpt lat="46.3388" lon="6.47283">
        <ele>520</ele>
        <time>2012-11-24T09:53:49Z</time>
      </trkpt>
      <trkpt lat="46.33879" lon="6.47286">
        <ele>520</ele>
        <time>2012-11-24T09:53:50Z</time>
      </trkpt>
      <trkpt lat="46.33879" lon="6.47288">
        <ele>520</ele>
        <time>2012-11-24T09:53:51Z</time>
      </trkpt>
      <trkpt lat="46.33879" lon="6.4729">
        <ele>520</ele>
        <time>2012-11-24T09:53:52Z</time>
      </trkpt>
      <trkpt lat="46.33878" lon="6.47293">
        <ele>520</ele>
        <time>2012-11-24T09:53:53Z</time>
      </trkpt>
      <trkpt lat="46.33877" lon="6.47295">
        <ele>520</ele>
        <time>2012-11-24T09:53:54Z</time>
      </trkpt>
      <trkpt lat="46.33876" lon="6.47298">
        <ele>520</ele>
        <time>2012-11-24T09:53:55Z</time>
      </trkpt>
      <trkpt lat="46.33876" lon="6.47301">
        <ele>520</ele>
        <time>2012-11-24T09:53:56Z</time>
      </trkpt>
      <trkpt lat="46.33876" lon="6.47303">
        <ele>520</ele>
        <time>2012-11-24T09:53:57Z</time>
      </trkpt>
      <trkpt lat="46.33875" lon="6.47305">
        <ele>520</ele>
        <time>2012-11-24T09:53:58Z</time>
      </trkpt>
      <trkpt lat="46.33873" lon="6.47308">
        <ele>521</ele>
        <time>2012-11-24T09:54:00Z</time>
      </trkpt>
      <trkpt lat="46.33872" lon="6.47311">
        <ele>521</ele>
        <time>2012-11-24T09:54:01Z</time>
      </trkpt>
      <trkpt lat="46.33873" lon="6.47315">
        <ele>521</ele>
        <time>2012-11-24T09:54:02Z</time>
      </trkpt>
      <trkpt lat="46.33873" lon="6.47319">
        <ele>521</ele>
        <time>2012-11-24T09:54:03Z</time>
      </trkpt>
      <trkpt lat="46.33872" lon="6.47321">
        <ele>522</ele>
        <time>2012-11-24T09:54:04Z</time>
      </trkpt>
      <trkpt lat="46.33871" lon="6.47322">
        <ele>522</ele>
        <time>2012-11-24T09:54:05Z</time>
      </trkpt>
      <trkpt lat="46.3387" lon="6.47325">
        <ele>522</ele>
        <time>2012-11-24T09:54:06Z</time>
      </trkpt>
      <trkpt lat="46.33869" lon="6.47327">
        <ele>522</ele>
        <time>2012-11-24T09:54:07Z</time>
      </trkpt>
      <trkpt lat="46.33869" lon="6.4733">
        <ele>522</ele>
        <time>2012-11-24T09:54:08Z</time>
      </trkpt>
      <trkpt lat="46.33869" lon="6.47333">
        <ele>522</ele>
        <time>2012-11-24T09:54:09Z</time>
      </trkpt>
      <trkpt lat="46.33869" lon="6.47336">
        <ele>522</ele>
        <time>2012-11-24T09:54:10Z</time>
      </trkpt>
      <trkpt lat="46.33869" lon="6.47339">
        <ele>522</ele>
        <time>2012-11-24T09:54:11Z</time>
      </trkpt>
      <trkpt lat="46.33868" lon="6.47341">
        <ele>522</ele>
        <time>2012-11-24T09:54:12Z</time>
      </trkpt>
      <trkpt lat="46.33869" lon="6.47345">
        <ele>522</ele>
        <time>2012-11-24T09:54:13Z</time>
      </trkpt>
      <trkpt lat="46.33867" lon="6.47346">
        <ele>522</ele>
        <time>2012-11-24T09:54:14Z</time>
      </trkpt>
      <trkpt lat="46.33865" lon="6.47347">
        <ele>522</ele>
        <time>2012-11-24T09:54:15Z</time>
      </trkpt>
      <trkpt lat="46.33863" lon="6.47349">
        <ele>522</ele>
        <time>2012-11-24T09:54:16Z</time>
      </trkpt>
      <trkpt lat="46.3386" lon="6.4735">
        <ele>522</ele>
        <time>2012-11-24T09:54:17Z</time>
      </trkpt>
      <trkpt lat="46.33858" lon="6.47351">
        <ele>522</ele>
        <time>2012-11-24T09:54:18Z</time>
      </trkpt>
      <trkpt lat="46.33857" lon="6.47354">
        <ele>521</ele>
        <time>2012-11-24T09:54:19Z</time>
      </trkpt>
      <trkpt lat="46.33855" lon="6.47357">
        <ele>521</ele>
        <time>2012-11-24T09:54:20Z</time>
      </trkpt>
      <trkpt lat="46.33853" lon="6.4736">
        <ele>520</ele>
        <time>2012-11-24T09:54:21Z</time>
      </trkpt>
      <trkpt lat="46.33852" lon="6.47362">
        <ele>519</ele>
        <time>2012-11-24T09:54:22Z</time>
      </trkpt>
      <trkpt lat="46.3385" lon="6.47365">
        <ele>519</ele>
        <time>2012-11-24T09:54:23Z</time>
      </trkpt>
      <trkpt lat="46.33849" lon="6.47367">
        <ele>518</ele>
        <time>2012-11-24T09:54:24Z</time>
      </trkpt>
      <trkpt lat="46.33848" lon="6.47368">
        <ele>518</ele>
        <time>2012-11-24T09:54:25Z</time>
      </trkpt>
      <trkpt lat="46.33847" lon="6.4737">
        <ele>518</ele>
        <time>2012-11-24T09:54:26Z</time>
      </trkpt>
      <trkpt lat="46.33846" lon="6.47372">
        <ele>518</ele>
        <time>2012-11-24T09:54:27Z</time>
      </trkpt>
      <trkpt lat="46.33844" lon="6.47375">
        <ele>518</ele>
        <time>2012-11-24T09:54:28Z</time>
      </trkpt>
      <trkpt lat="46.33844" lon="6.47378">
        <ele>518</ele>
        <time>2012-11-24T09:54:29Z</time>
      </trkpt>
      <trkpt lat="46.33844" lon="6.47381">
        <ele>518</ele>
        <time>2012-11-24T09:54:30Z</time>
      </trkpt>
      <trkpt lat="46.33842" lon="6.47382">
        <ele>518</ele>
        <time>2012-11-24T09:54:31Z</time>
      </trkpt>
      <trkpt lat="46.3384" lon="6.47384">
        <ele>518</ele>
        <time>2012-11-24T09:54:32Z</time>
      </trkpt>
      <trkpt lat="46.33838" lon="6.47385">
        <ele>518</ele>
        <time>2012-11-24T09:54:33Z</time>
      </trkpt>
      <trkpt lat="46.33837" lon="6.47387">
        <ele>519</ele>
        <time>2012-11-24T09:54:34Z</time>
      </trkpt>
      <trkpt lat="46.33837" lon="6.47389">
        <ele>520</ele>
        <time>2012-11-24T09:54:35Z</time>
      </trkpt>
      <trkpt lat="46.33837" lon="6.47391">
        <ele>520</ele>
        <time>2012-11-24T09:54:36Z</time>
      </trkpt>
      <trkpt lat="46.33836" lon="6.47392">
        <ele>521</ele>
        <time>2012-11-24T09:54:37Z</time>
      </trkpt>
      <trkpt lat="46.33834" lon="6.47393">
        <ele>521</ele>
        <time>2012-11-24T09:54:38Z</time>
      </trkpt>
      <trkpt lat="46.33832" lon="6.47394">
        <ele>521</ele>
        <time>2012-11-24T09:54:39Z</time>
      </trkpt>
      <trkpt lat="46.33829" lon="6.47395">
        <ele>521</ele>
        <time>2012-11-24T09:54:40Z</time>
      </trkpt>
      <trkpt lat="46.33828" lon="6.47397">
        <ele>521</ele>
        <time>2012-11-24T09:54:42Z</time>
      </trkpt>
      <trkpt lat="46.33826" lon="6.47398">
        <ele>521</ele>
        <time>2012-11-24T09:54:43Z</time>
      </trkpt>
      <trkpt lat="46.33824" lon="6.47398">
        <ele>521</ele>
        <time>2012-11-24T09:54:44Z</time>
      </trkpt>
      <trkpt lat="46.33823" lon="6.47399">
        <ele>521</ele>
        <time>2012-11-24T09:54:45Z</time>
      </trkpt>
      <trkpt lat="46.33822" lon="6.47402">
        <ele>521</ele>
        <time>2012-11-24T09:54:47Z</time>
      </trkpt>
      <trkpt lat="46.33821" lon="6.47404">
        <ele>521</ele>
        <time>2012-11-24T09:54:49Z</time>
      </trkpt>
      <trkpt lat="46.33821" lon="6.47406">
        <ele>521</ele>
        <time>2012-11-24T09:54:50Z</time>
      </trkpt>
      <trkpt lat="46.33822" lon="6.47408">
        <ele>522</ele>
        <time>2012-11-24T09:54:51Z</time>
      </trkpt>
      <trkpt lat="46.33822" lon="6.4741">
        <ele>522</ele>
        <time>2012-11-24T09:54:52Z</time>
      </trkpt>
      <trkpt lat="46.33823" lon="6.47412">
        <ele>523</ele>
        <time>2012-11-24T09:54:53Z</time>
      </trkpt>
      <trkpt lat="46.33823" lon="6.47415">
        <ele>524</ele>
        <time>2012-11-24T09:54:54Z</time>
      </trkpt>
      <trkpt lat="46.33824" lon="6.47416">
        <ele>525</ele>
        <time>2012-11-24T09:54:55Z</time>
      </trkpt>
      <trkpt lat="46.33825" lon="6.47419">
        <ele>526</ele>
        <time>2012-11-24T09:54:56Z</time>
      </trkpt>
      <trkpt lat="46.33826" lon="6.47421">
        <ele>527</ele>
        <time>2012-11-24T09:54:57Z</time>
      </trkpt>
      <trkpt lat="46.33826" lon="6.47423">
        <ele>528</ele>
        <time>2012-11-24T09:54:58Z</time>
      </trkpt>
      <trkpt lat="46.33828" lon="6.47424">
        <ele>529</ele>
        <time>2012-11-24T09:54:59Z</time>
      </trkpt>
      <trkpt lat="46.33829" lon="6.47425">
        <ele>530</ele>
        <time>2012-11-24T09:55:00Z</time>
      </trkpt>
      <trkpt lat="46.33831" lon="6.47427">
        <ele>532</ele>
        <time>2012-11-24T09:55:02Z</time>
      </trkpt>
      <trkpt lat="46.33831" lon="6.47429">
        <ele>532</ele>
        <time>2012-11-24T09:55:03Z</time>
      </trkpt>
      <trkpt lat="46.33832" lon="6.47432">
        <ele>532</ele>
        <time>2012-11-24T09:55:05Z</time>
      </trkpt>
      <trkpt lat="46.33832" lon="6.47434">
        <ele>533</ele>
        <time>2012-11-24T09:55:06Z</time>
      </trkpt>
      <trkpt lat="46.33833" lon="6.47436">
        <ele>533</ele>
        <time>2012-11-24T09:55:07Z</time>
      </trkpt>
      <trkpt lat="46.33833" lon="6.47437">
        <ele>534</ele>
        <time>2012-11-24T09:55:08Z</time>
      </trkpt>
      <trkpt lat="46.33834" lon="6.47439">
        <ele>534</ele>
        <time>2012-11-24T09:55:09Z</time>
      </trkpt>
      <trkpt lat="46.33835" lon="6.47441">
        <ele>535</ele>
        <time>2012-11-24T09:55:11Z</time>
      </trkpt>
      <trkpt lat="46.33836" lon="6.47441">
        <ele>535</ele>
        <time>2012-11-24T09:55:13Z</time>
      </trkpt>
      <trkpt lat="46.33836" lon="6.47443">
        <ele>535</ele>
        <time>2012-11-24T09:55:14Z</time>
      </trkpt>
      <trkpt lat="46.33838" lon="6.47444">
        <ele>535</ele>
        <time>2012-11-24T09:55:15Z</time>
      </trkpt>
      <trkpt lat="46.33839" lon="6.47445">
        <ele>535</ele>
        <time>2012-11-24T09:55:17Z</time>
      </trkpt>
      <trkpt lat="46.33841" lon="6.47445">
        <ele>535</ele>
        <time>2012-11-24T09:55:18Z</time>
      </trkpt>
      <trkpt lat="46.33842" lon="6.47445">
        <ele>535</ele>
        <time>2012-11-24T09:55:19Z</time>
      </trkpt>
      <trkpt lat="46.33844" lon="6.47444">
        <ele>535</ele>
        <time>2012-11-24T09:55:20Z</time>
      </trkpt>
      <trkpt lat="46.33846" lon="6.47443">
        <ele>535</ele>
        <time>2012-11-24T09:55:21Z</time>
      </trkpt>
      <trkpt lat="46.33848" lon="6.47442">
        <ele>535</ele>
        <time>2012-11-24T09:55:22Z</time>
      </trkpt>
      <trkpt lat="46.33851" lon="6.47441">
        <ele>535</ele>
        <time>2012-11-24T09:55:23Z</time>
      </trkpt>
      <trkpt lat="46.33853" lon="6.47439">
        <ele>535</ele>
        <time>2012-11-24T09:55:24Z</time>
      </trkpt>
      <trkpt lat="46.33855" lon="6.47438">
        <ele>535</ele>
        <time>2012-11-24T09:55:25Z</time>
      </trkpt>
      <trkpt lat="46.33857" lon="6.47438">
        <ele>535</ele>
        <time>2012-11-24T09:55:26Z</time>
      </trkpt>
      <trkpt lat="46.33858" lon="6.47437">
        <ele>535</ele>
        <time>2012-11-24T09:55:27Z</time>
      </trkpt>
      <trkpt lat="46.3386" lon="6.47436">
        <ele>535</ele>
        <time>2012-11-24T09:55:28Z</time>
      </trkpt>
      <trkpt lat="46.33861" lon="6.47434">
        <ele>535</ele>
        <time>2012-11-24T09:55:29Z</time>
      </trkpt>
      <trkpt lat="46.33863" lon="6.47432">
        <ele>535</ele>
        <time>2012-11-24T09:55:30Z</time>
      </trkpt>
      <trkpt lat="46.33864" lon="6.47431">
        <ele>535</ele>
        <time>2012-11-24T09:55:31Z</time>
      </trkpt>
      <trkpt lat="46.33865" lon="6.47429">
        <ele>535</ele>
        <time>2012-11-24T09:55:32Z</time>
      </trkpt>
      <trkpt lat="46.33867" lon="6.47428">
        <ele>535</ele>
        <time>2012-11-24T09:55:33Z</time>
      </trkpt>
      <trkpt lat="46.33868" lon="6.47426">
        <ele>535</ele>
        <time>2012-11-24T09:55:34Z</time>
      </trkpt>
      <trkpt lat="46.3387" lon="6.47424">
        <ele>535</ele>
        <time>2012-11-24T09:55:35Z</time>
      </trkpt>
      <trkpt lat="46.33872" lon="6.47423">
        <ele>535</ele>
        <time>2012-11-24T09:55:36Z</time>
      </trkpt>
      <trkpt lat="46.33873" lon="6.47421">
        <ele>535</ele>
        <time>2012-11-24T09:55:37Z</time>
      </trkpt>
      <trkpt lat="46.33875" lon="6.4742">
        <ele>535</ele>
        <time>2012-11-24T09:55:38Z</time>
      </trkpt>
      <trkpt lat="46.33876" lon="6.47418">
        <ele>535</ele>
        <time>2012-11-24T09:55:39Z</time>
      </trkpt>
      <trkpt lat="46.33876" lon="6.47416">
        <ele>535</ele>
        <time>2012-11-24T09:55:40Z</time>
      </trkpt>
      <trkpt lat="46.33878" lon="6.47414">
        <ele>535</ele>
        <time>2012-11-24T09:55:41Z</time>
      </trkpt>
      <trkpt lat="46.33879" lon="6.47412">
        <ele>535</ele>
        <time>2012-11-24T09:55:42Z</time>
      </trkpt>
      <trkpt lat="46.3388" lon="6.47411">
        <ele>535</ele>
        <time>2012-11-24T09:55:43Z</time>
      </trkpt>
      <trkpt lat="46.33882" lon="6.47409">
        <ele>535</ele>
        <time>2012-11-24T09:55:44Z</time>
      </trkpt>
      <trkpt lat="46.33883" lon="6.47407">
        <ele>535</ele>
        <time>2012-11-24T09:55:45Z</time>
      </trkpt>
      <trkpt lat="46.33884" lon="6.47405">
        <ele>535</ele>
        <time>2012-11-24T09:55:46Z</time>
      </trkpt>
      <trkpt lat="46.33886" lon="6.47403">
        <ele>535</ele>
        <time>2012-11-24T09:55:47Z</time>
      </trkpt>
      <trkpt lat="46.33887" lon="6.47402">
        <ele>535</ele>
        <time>2012-11-24T09:55:48Z</time>
      </trkpt>
      <trkpt lat="46.33889" lon="6.474">
        <ele>535</ele>
        <time>2012-11-24T09:55:49Z</time>
      </trkpt>
      <trkpt lat="46.33892" lon="6.47398">
        <ele>535</ele>
        <time>2012-11-24T09:55:50Z</time>
      </trkpt>
      <trkpt lat="46.33894" lon="6.47397">
        <ele>535</ele>
        <time>2012-11-24T09:55:51Z</time>
      </trkpt>
      <trkpt lat="46.33896" lon="6.47395">
        <ele>535</ele>
        <time>2012-11-24T09:55:52Z</time>
      </trkpt>
      <trkpt lat="46.33898" lon="6.47393">
        <ele>535</ele>
        <time>2012-11-24T09:55:53Z</time>
      </trkpt>
      <trkpt lat="46.33899" lon="6.47391">
        <ele>535</ele>
        <time>2012-11-24T09:55:54Z</time>
      </trkpt>
      <trkpt lat="46.339" lon="6.47389">
        <ele>535</ele>
        <time>2012-11-24T09:55:55Z</time>
      </trkpt>
      <trkpt lat="46.33901" lon="6.47386">
        <ele>535</ele>
        <time>2012-11-24T09:55:56Z</time>
      </trkpt>
      <trkpt lat="46.33902" lon="6.47384">
        <ele>535</ele>
        <time>2012-11-24T09:55:57Z</time>
      </trkpt>
      <trkpt lat="46.33904" lon="6.47382">
        <ele>535</ele>
        <time>2012-11-24T09:55:58Z</time>
      </trkpt>
      <trkpt lat="46.33906" lon="6.47379">
        <ele>535</ele>
        <time>2012-11-24T09:55:59Z</time>
      </trkpt>
      <trkpt lat="46.33907" lon="6.47377">
        <ele>535</ele>
        <time>2012-11-24T09:56:00Z</time>
      </trkpt>
      <trkpt lat="46.33907" lon="6.47375">
        <ele>535</ele>
        <time>2012-11-24T09:56:01Z</time>
      </trkpt>
      <trkpt lat="46.33908" lon="6.47372">
        <ele>535</ele>
        <time>2012-11-24T09:56:02Z</time>
      </trkpt>
      <trkpt lat="46.3391" lon="6.47369">
        <ele>535</ele>
        <time>2012-11-24T09:56:03Z</time>
      </trkpt>
      <trkpt lat="46.33911" lon="6.47367">
        <ele>535</ele>
        <time>2012-11-24T09:56:04Z</time>
      </trkpt>
      <trkpt lat="46.33911" lon="6.47365">
        <ele>535</ele>
        <time>2012-11-24T09:56:05Z</time>
      </trkpt>
      <trkpt lat="46.33913" lon="6.47363">
        <ele>535</ele>
        <time>2012-11-24T09:56:06Z</time>
      </trkpt>
      <trkpt lat="46.33913" lon="6.4736">
        <ele>535</ele>
        <time>2012-11-24T09:56:07Z</time>
      </trkpt>
      <trkpt lat="46.33915" lon="6.47358">
        <ele>535</ele>
        <time>2012-11-24T09:56:08Z</time>
      </trkpt>
      <trkpt lat="46.33916" lon="6.47355">
        <ele>535</ele>
        <time>2012-11-24T09:56:09Z</time>
      </trkpt>
      <trkpt lat="46.33916" lon="6.47352">
        <ele>535</ele>
        <time>2012-11-24T09:56:10Z</time>
      </trkpt>
      <trkpt lat="46.33917" lon="6.4735">
        <ele>535</ele>
        <time>2012-11-24T09:56:11Z</time>
      </trkpt>
      <trkpt lat="46.33918" lon="6.47347">
        <ele>535</ele>
        <time>2012-11-24T09:56:12Z</time>
      </trkpt>
      <trkpt lat="46.3392" lon="6.47344">
        <ele>535</ele>
        <time>2012-11-24T09:56:13Z</time>
      </trkpt>
      <trkpt lat="46.3392" lon="6.47342">
        <ele>535</ele>
        <time>2012-11-24T09:56:14Z</time>
      </trkpt>
      <trkpt lat="46.33921" lon="6.4734">
        <ele>535</ele>
        <time>2012-11-24T09:56:15Z</time>
      </trkpt>
      <trkpt lat="46.33922" lon="6.47337">
        <ele>535</ele>
        <time>2012-11-24T09:56:16Z</time>
      </trkpt>
      <trkpt lat="46.33923" lon="6.47335">
        <ele>535</ele>
        <time>2012-11-24T09:56:17Z</time>
      </trkpt>
      <trkpt lat="46.33924" lon="6.47331">
        <ele>535</ele>
        <time>2012-11-24T09:56:18Z</time>
      </trkpt>
      <trkpt lat="46.33924" lon="6.47329">
        <ele>535</ele>
        <time>2012-11-24T09:56:19Z</time>
      </trkpt>
      <trkpt lat="46.33925" lon="6.47327">
        <ele>535</ele>
        <time>2012-11-24T09:56:20Z</time>
      </trkpt>
      <trkpt lat="46.33926" lon="6.47324">
        <ele>535</ele>
        <time>2012-11-24T09:56:21Z</time>
      </trkpt>
      <trkpt lat="46.33928" lon="6.47322">
        <ele>535</ele>
        <time>2012-11-24T09:56:22Z</time>
      </trkpt>
      <trkpt lat="46.33931" lon="6.47321">
        <ele>535</ele>
        <time>2012-11-24T09:56:23Z</time>
      </trkpt>
      <trkpt lat="46.33932" lon="6.47318">
        <ele>536</ele>
        <time>2012-11-24T09:56:24Z</time>
      </trkpt>
      <trkpt lat="46.33933" lon="6.47316">
        <ele>536</ele>
        <time>2012-11-24T09:56:25Z</time>
      </trkpt>
      <trkpt lat="46.33932" lon="6.47313">
        <ele>537</ele>
        <time>2012-11-24T09:56:26Z</time>
      </trkpt>
      <trkpt lat="46.33933" lon="6.4731">
        <ele>538</ele>
        <time>2012-11-24T09:56:27Z</time>
      </trkpt>
      <trkpt lat="46.33934" lon="6.47307">
        <ele>538</ele>
        <time>2012-11-24T09:56:28Z</time>
      </trkpt>
      <trkpt lat="46.33936" lon="6.47305">
        <ele>539</ele>
        <time>2012-11-24T09:56:29Z</time>
      </trkpt>
      <trkpt lat="46.33936" lon="6.47302">
        <ele>539</ele>
        <time>2012-11-24T09:56:30Z</time>
      </trkpt>
      <trkpt lat="46.33937" lon="6.473">
        <ele>539</ele>
        <time>2012-11-24T09:56:31Z</time>
      </trkpt>
      <trkpt lat="46.33939" lon="6.47298">
        <ele>540</ele>
        <time>2012-11-24T09:56:32Z</time>
      </trkpt>
      <trkpt lat="46.3394" lon="6.47295">
        <ele>541</ele>
        <time>2012-11-24T09:56:33Z</time>
      </trkpt>
      <trkpt lat="46.33941" lon="6.47292">
        <ele>541</ele>
        <time>2012-11-24T09:56:34Z</time>
      </trkpt>
      <trkpt lat="46.33942" lon="6.4729">
        <ele>542</ele>
        <time>2012-11-24T09:56:35Z</time>
      </trkpt>
      <trkpt lat="46.33942" lon="6.47287">
        <ele>542</ele>
        <time>2012-11-24T09:56:36Z</time>
      </trkpt>
      <trkpt lat="46.33942" lon="6.47283">
        <ele>542</ele>
        <time>2012-11-24T09:56:37Z</time>
      </trkpt>
      <trkpt lat="46.33943" lon="6.47281">
        <ele>542</ele>
        <time>2012-11-24T09:56:38Z</time>
      </trkpt>
      <trkpt lat="46.33943" lon="6.47277">
        <ele>542</ele>
        <time>2012-11-24T09:56:39Z</time>
      </trkpt>
      <trkpt lat="46.33943" lon="6.47274">
        <ele>542</ele>
        <time>2012-11-24T09:56:40Z</time>
      </trkpt>
      <trkpt lat="46.33943" lon="6.47272">
        <ele>542</ele>
        <time>2012-11-24T09:56:41Z</time>
      </trkpt>
      <trkpt lat="46.33943" lon="6.47269">
        <ele>542</ele>
        <time>2012-11-24T09:56:42Z</time>
      </trkpt>
      <trkpt lat="46.33944" lon="6.47266">
        <ele>542</ele>
        <time>2012-11-24T09:56:43Z</time>
      </trkpt>
      <trkpt lat="46.33945" lon="6.47263">
        <ele>542</ele>
        <time>2012-11-24T09:56:44Z</time>
      </trkpt>
      <trkpt lat="46.33946" lon="6.47261">
        <ele>542</ele>
        <time>2012-11-24T09:56:45Z</time>
      </trkpt>
      <trkpt lat="46.33947" lon="6.47257">
        <ele>542</ele>
        <time>2012-11-24T09:56:46Z</time>
      </trkpt>
      <trkpt lat="46.33949" lon="6.47254">
        <ele>542</ele>
        <time>2012-11-24T09:56:47Z</time>
      </trkpt>
      <trkpt lat="46.33949" lon="6.4725">
        <ele>542</ele>
        <time>2012-11-24T09:56:48Z</time>
      </trkpt>
      <trkpt lat="46.33951" lon="6.47247">
        <ele>542</ele>
        <time>2012-11-24T09:56:49Z</time>
      </trkpt>
      <trkpt lat="46.33953" lon="6.47244">
        <ele>542</ele>
        <time>2012-11-24T09:56:50Z</time>
      </trkpt>
      <trkpt lat="46.33956" lon="6.47242">
        <ele>542</ele>
        <time>2012-11-24T09:56:51Z</time>
      </trkpt>
      <trkpt lat="46.33958" lon="6.4724">
        <ele>541</ele>
        <time>2012-11-24T09:56:52Z</time>
      </trkpt>
      <trkpt lat="46.33959" lon="6.47237">
        <ele>541</ele>
        <time>2012-11-24T09:56:53Z</time>
      </trkpt>
      <trkpt lat="46.33961" lon="6.47234">
        <ele>540</ele>
        <time>2012-11-24T09:56:54Z</time>
      </trkpt>
      <trkpt lat="46.33964" lon="6.47232">
        <ele>540</ele>
        <time>2012-11-24T09:56:55Z</time>
      </trkpt>
      <trkpt lat="46.33965" lon="6.47229">
        <ele>539</ele>
        <time>2012-11-24T09:56:56Z</time>
      </trkpt>
      <trkpt lat="46.33965" lon="6.47225">
        <ele>538</ele>
        <time>2012-11-24T09:56:57Z</time>
      </trkpt>
      <trkpt lat="46.33966" lon="6.47223">
        <ele>537</ele>
        <time>2012-11-24T09:56:58Z</time>
      </trkpt>
      <trkpt lat="46.33968" lon="6.4722">
        <ele>537</ele>
        <time>2012-11-24T09:56:59Z</time>
      </trkpt>
      <trkpt lat="46.33969" lon="6.47217">
        <ele>537</ele>
        <time>2012-11-24T09:57:00Z</time>
      </trkpt>
      <trkpt lat="46.3397" lon="6.47215">
        <ele>537</ele>
        <time>2012-11-24T09:57:01Z</time>
      </trkpt>
      <trkpt lat="46.33971" lon="6.47211">
        <ele>537</ele>
        <time>2012-11-24T09:57:02Z</time>
      </trkpt>
      <trkpt lat="46.33971" lon="6.47208">
        <ele>537</ele>
        <time>2012-11-24T09:57:03Z</time>
      </trkpt>
      <trkpt lat="46.33973" lon="6.47204">
        <ele>537</ele>
        <time>2012-11-24T09:57:04Z</time>
      </trkpt>
      <trkpt lat="46.33974" lon="6.47202">
        <ele>537</ele>
        <time>2012-11-24T09:57:05Z</time>
      </trkpt>
      <trkpt lat="46.33974" lon="6.47199">
        <ele>537</ele>
        <time>2012-11-24T09:57:06Z</time>
      </trkpt>
      <trkpt lat="46.33974" lon="6.47196">
        <ele>537</ele>
        <time>2012-11-24T09:57:07Z</time>
      </trkpt>
      <trkpt lat="46.33975" lon="6.47192">
        <ele>537</ele>
        <time>2012-11-24T09:57:08Z</time>
      </trkpt>
      <trkpt lat="46.33974" lon="6.47189">
        <ele>537</ele>
        <time>2012-11-24T09:57:09Z</time>
      </trkpt>
      <trkpt lat="46.33973" lon="6.47185">
        <ele>537</ele>
        <time>2012-11-24T09:57:10Z</time>
      </trkpt>
      <trkpt lat="46.33973" lon="6.47183">
        <ele>537</ele>
        <time>2012-11-24T09:57:11Z</time>
      </trkpt>
      <trkpt lat="46.33971" lon="6.47179">
        <ele>537</ele>
        <time>2012-11-24T09:57:12Z</time>
      </trkpt>
      <trkpt lat="46.33971" lon="6.47177">
        <ele>537</ele>
        <time>2012-11-24T09:57:13Z</time>
      </trkpt>
      <trkpt lat="46.33972" lon="6.47174">
        <ele>537</ele>
        <time>2012-11-24T09:57:14Z</time>
      </trkpt>
      <trkpt lat="46.33973" lon="6.47171">
        <ele>537</ele>
        <time>2012-11-24T09:57:15Z</time>
      </trkpt>
      <trkpt lat="46.33972" lon="6.47169">
        <ele>537</ele>
        <time>2012-11-24T09:57:16Z</time>
      </trkpt>
      <trkpt lat="46.33971" lon="6.47167">
        <ele>537</ele>
        <time>2012-11-24T09:57:17Z</time>
      </trkpt>
      <trkpt lat="46.33971" lon="6.47164">
        <ele>537</ele>
        <time>2012-11-24T09:57:18Z</time>
      </trkpt>
      <trkpt lat="46.33972" lon="6.47161">
        <ele>537</ele>
        <time>2012-11-24T09:57:19Z</time>
      </trkpt>
      <trkpt lat="46.33974" lon="6.47159">
        <ele>537</ele>
        <time>2012-11-24T09:57:20Z</time>
      </trkpt>
      <trkpt lat="46.33974" lon="6.47156">
        <ele>537</ele>
        <time>2012-11-24T09:57:21Z</time>
      </trkpt>
      <trkpt lat="46.33973" lon="6.47152">
        <ele>537</ele>
        <time>2012-11-24T09:57:22Z</time>
      </trkpt>
      <trkpt lat="46.33972" lon="6.47149">
        <ele>537</ele>
        <time>2012-11-24T09:57:23Z</time>
      </trkpt>
      <trkpt lat="46.33972" lon="6.47146">
        <ele>537</ele>
        <time>2012-11-24T09:57:24Z</time>
      </trkpt>
      <trkpt lat="46.33972" lon="6.47144">
        <ele>537</ele>
        <time>2012-11-24T09:57:25Z</time>
      </trkpt>
      <trkpt lat="46.33972" lon="6.4714">
        <ele>537</ele>
        <time>2012-11-24T09:57:26Z</time>
      </trkpt>
      <trkpt lat="46.33972" lon="6.47137">
        <ele>537</ele>
        <time>2012-11-24T09:57:27Z</time>
      </trkpt>
      <trkpt lat="46.33971" lon="6.47134">
        <ele>537</ele>
        <time>2012-11-24T09:57:28Z</time>
      </trkpt>
      <trkpt lat="46.33971" lon="6.47132">
        <ele>537</ele>
        <time>2012-11-24T09:57:29Z</time>
      </trkpt>
      <trkpt lat="46.3397" lon="6.47129">
        <ele>537</ele>
        <time>2012-11-24T09:57:30Z</time>
      </trkpt>
      <trkpt lat="46.33971" lon="6.47126">
        <ele>537</ele>
        <time>2012-11-24T09:57:31Z</time>
      </trkpt>
      <trkpt lat="46.33971" lon="6.47123">
        <ele>537</ele>
        <time>2012-11-24T09:57:32Z</time>
      </trkpt>
      <trkpt lat="46.3397" lon="6.47121">
        <ele>537</ele>
        <time>2012-11-24T09:57:33Z</time>
      </trkpt>
      <trkpt lat="46.3397" lon="6.47117">
        <ele>537</ele>
        <time>2012-11-24T09:57:34Z</time>
      </trkpt>
      <trkpt lat="46.33969" lon="6.47114">
        <ele>537</ele>
        <time>2012-11-24T09:57:35Z</time>
      </trkpt>
      <trkpt lat="46.33971" lon="6.47111">
        <ele>537</ele>
        <time>2012-11-24T09:57:36Z</time>
      </trkpt>
      <trkpt lat="46.3397" lon="6.47108">
        <ele>537</ele>
        <time>2012-11-24T09:57:37Z</time>
      </trkpt>
      <trkpt lat="46.33969" lon="6.47105">
        <ele>537</ele>
        <time>2012-11-24T09:57:38Z</time>
      </trkpt>
      <trkpt lat="46.33969" lon="6.47102">
        <ele>537</ele>
        <time>2012-11-24T09:57:39Z</time>
      </trkpt>
      <trkpt lat="46.33968" lon="6.47099">
        <ele>537</ele>
        <time>2012-11-24T09:57:40Z</time>
      </trkpt>
      <trkpt lat="46.33968" lon="6.47096">
        <ele>537</ele>
        <time>2012-11-24T09:57:41Z</time>
      </trkpt>
      <trkpt lat="46.33966" lon="6.47093">
        <ele>537</ele>
        <time>2012-11-24T09:57:42Z</time>
      </trkpt>
      <trkpt lat="46.33966" lon="6.4709">
        <ele>537</ele>
        <time>2012-11-24T09:57:43Z</time>
      </trkpt>
      <trkpt lat="46.33965" lon="6.47087">
        <ele>537</ele>
        <time>2012-11-24T09:57:44Z</time>
      </trkpt>
      <trkpt lat="46.33964" lon="6.47083">
        <ele>537</ele>
        <time>2012-11-24T09:57:45Z</time>
      </trkpt>
      <trkpt lat="46.33963" lon="6.47081">
        <ele>537</ele>
        <time>2012-11-24T09:57:46Z</time>
      </trkpt>
      <trkpt lat="46.33962" lon="6.47078">
        <ele>537</ele>
        <time>2012-11-24T09:57:47Z</time>
      </trkpt>
      <trkpt lat="46.33964" lon="6.47075">
        <ele>537</ele>
        <time>2012-11-24T09:57:48Z</time>
      </trkpt>
      <trkpt lat="46.33964" lon="6.47071">
        <ele>537</ele>
        <time>2012-11-24T09:57:49Z</time>
      </trkpt>
      <trkpt lat="46.33963" lon="6.47068">
        <ele>537</ele>
        <time>2012-11-24T09:57:50Z</time>
      </trkpt>
      <trkpt lat="46.33964" lon="6.47064">
        <ele>537</ele>
        <time>2012-11-24T09:57:51Z</time>
      </trkpt>
      <trkpt lat="46.33964" lon="6.4706">
        <ele>537</ele>
        <time>2012-11-24T09:57:52Z</time>
      </trkpt>
      <trkpt lat="46.33964" lon="6.47056">
        <ele>537</ele>
        <time>2012-11-24T09:57:53Z</time>
      </trkpt>
      <trkpt lat="46.33966" lon="6.47054">
        <ele>537</ele>
        <time>2012-11-24T09:57:54Z</time>
      </trkpt>
      <trkpt lat="46.33966" lon="6.47052">
        <ele>537</ele>
        <time>2012-11-24T09:57:55Z</time>
      </trkpt>
      <trkpt lat="46.33967" lon="6.47049">
        <ele>537</ele>
        <time>2012-11-24T09:57:56Z</time>
      </trkpt>
      <trkpt lat="46.33967" lon="6.47045">
        <ele>538</ele>
        <time>2012-11-24T09:57:57Z</time>
      </trkpt>
      <trkpt lat="46.33967" lon="6.47043">
        <ele>538</ele>
        <time>2012-11-24T09:57:58Z</time>
      </trkpt>
      <trkpt lat="46.33967" lon="6.4704">
        <ele>538</ele>
        <time>2012-11-24T09:57:59Z</time>
      </trkpt>
      <trkpt lat="46.33966" lon="6.47037">
        <ele>538</ele>
        <time>2012-11-24T09:58:00Z</time>
      </trkpt>
      <trkpt lat="46.33965" lon="6.47034">
        <ele>538</ele>
        <time>2012-11-24T09:58:01Z</time>
      </trkpt>
      <trkpt lat="46.33965" lon="6.47031">
        <ele>538</ele>
        <time>2012-11-24T09:58:02Z</time>
      </trkpt>
      <trkpt lat="46.33964" lon="6.47028">
        <ele>538</ele>
        <time>2012-11-24T09:58:03Z</time>
      </trkpt>
      <trkpt lat="46.33963" lon="6.47025">
        <ele>538</ele>
        <time>2012-11-24T09:58:04Z</time>
      </trkpt>
      <trkpt lat="46.33963" lon="6.47021">
        <ele>538</ele>
        <time>2012-11-24T09:58:05Z</time>
      </trkpt>
      <trkpt lat="46.33963" lon="6.47018">
        <ele>538</ele>
        <time>2012-11-24T09:58:06Z</time>
      </trkpt>
      <trkpt lat="46.33962" lon="6.47015">
        <ele>538</ele>
        <time>2012-11-24T09:58:07Z</time>
      </trkpt>
      <trkpt lat="46.33962" lon="6.47013">
        <ele>538</ele>
        <time>2012-11-24T09:58:08Z</time>
      </trkpt>
      <trkpt lat="46.33963" lon="6.47011">
        <ele>538</ele>
        <time>2012-11-24T09:58:09Z</time>
      </trkpt>
      <trkpt lat="46.33965" lon="6.47009">
        <ele>538</ele>
        <time>2012-11-24T09:58:10Z</time>
      </trkpt>
      <trkpt lat="46.33965" lon="6.47005">
        <ele>538</ele>
        <time>2012-11-24T09:58:11Z</time>
      </trkpt>
      <trkpt lat="46.33966" lon="6.47002">
        <ele>538</ele>
        <time>2012-11-24T09:58:12Z</time>
      </trkpt>
      <trkpt lat="46.33966" lon="6.46998">
        <ele>538</ele>
        <time>2012-11-24T09:58:13Z</time>
      </trkpt>
      <trkpt lat="46.33965" lon="6.46994">
        <ele>539</ele>
        <time>2012-11-24T09:58:14Z</time>
      </trkpt>
      <trkpt lat="46.33964" lon="6.46991">
        <ele>540</ele>
        <time>2012-11-24T09:58:15Z</time>
      </trkpt>
      <trkpt lat="46.33962" lon="6.46988">
        <ele>541</ele>
        <time>2012-11-24T09:58:16Z</time>
      </trkpt>
      <trkpt lat="46.3396" lon="6.46984">
        <ele>541</ele>
        <time>2012-11-24T09:58:17Z</time>
      </trkpt>
      <trkpt lat="46.33959" lon="6.46981">
        <ele>542</ele>
        <time>2012-11-24T09:58:18Z</time>
      </trkpt>
      <trkpt lat="46.33958" lon="6.46978">
        <ele>542</ele>
        <time>2012-11-24T09:58:19Z</time>
      </trkpt>
      <trkpt lat="46.33958" lon="6.46976">
        <ele>542</ele>
        <time>2012-11-24T09:58:20Z</time>
      </trkpt>
      <trkpt lat="46.33957" lon="6.46973">
        <ele>543</ele>
        <time>2012-11-24T09:58:21Z</time>
      </trkpt>
      <trkpt lat="46.33957" lon="6.46971">
        <ele>543</ele>
        <time>2012-11-24T09:58:22Z</time>
      </trkpt>
      <trkpt lat="46.33956" lon="6.46968">
        <ele>544</ele>
        <time>2012-11-24T09:58:23Z</time>
      </trkpt>
      <trkpt lat="46.33955" lon="6.46965">
        <ele>545</ele>
        <time>2012-11-24T09:58:24Z</time>
      </trkpt>
      <trkpt lat="46.33954" lon="6.46962">
        <ele>545</ele>
        <time>2012-11-24T09:58:25Z</time>
      </trkpt>
      <trkpt lat="46.33953" lon="6.46958">
        <ele>546</ele>
        <time>2012-11-24T09:58:26Z</time>
      </trkpt>
      <trkpt lat="46.33951" lon="6.46954">
        <ele>546</ele>
        <time>2012-11-24T09:58:27Z</time>
      </trkpt>
      <trkpt lat="46.3395" lon="6.4695">
        <ele>546</ele>
        <time>2012-11-24T09:58:28Z</time>
      </trkpt>
      <trkpt lat="46.33949" lon="6.46947">
        <ele>546</ele>
        <time>2012-11-24T09:58:29Z</time>
      </trkpt>
      <trkpt lat="46.33948" lon="6.46944">
        <ele>547</ele>
        <time>2012-11-24T09:58:30Z</time>
      </trkpt>
      <trkpt lat="46.33947" lon="6.46942">
        <ele>547</ele>
        <time>2012-11-24T09:58:31Z</time>
      </trkpt>
      <trkpt lat="46.33946" lon="6.46939">
        <ele>547</ele>
        <time>2012-11-24T09:58:32Z</time>
      </trkpt>
      <trkpt lat="46.33946" lon="6.46937">
        <ele>547</ele>
        <time>2012-11-24T09:58:33Z</time>
      </trkpt>
      <trkpt lat="46.33945" lon="6.46934">
        <ele>547</ele>
        <time>2012-11-24T09:58:34Z</time>
      </trkpt>
      <trkpt lat="46.33945" lon="6.46932">
        <ele>547</ele>
        <time>2012-11-24T09:58:35Z</time>
      </trkpt>
      <trkpt lat="46.33944" lon="6.4693">
        <ele>547</ele>
        <time>2012-11-24T09:58:36Z</time>
      </trkpt>
      <trkpt lat="46.33944" lon="6.46928">
        <ele>547</ele>
        <time>2012-11-24T09:58:37Z</time>
      </trkpt>
      <trkpt lat="46.33943" lon="6.46924">
        <ele>547</ele>
        <time>2012-11-24T09:58:39Z</time>
      </trkpt>
      <trkpt lat="46.33941" lon="6.46921">
        <ele>547</ele>
        <time>2012-11-24T09:58:40Z</time>
      </trkpt>
      <trkpt lat="46.33941" lon="6.46919">
        <ele>547</ele>
        <time>2012-11-24T09:58:41Z</time>
      </trkpt>
      <trkpt lat="46.33941" lon="6.46917">
        <ele>547</ele>
        <time>2012-11-24T09:58:42Z</time>
      </trkpt>
      <trkpt lat="46.33939" lon="6.46914">
        <ele>546</ele>
        <time>2012-11-24T09:58:43Z</time>
      </trkpt>
      <trkpt lat="46.33939" lon="6.46911">
        <ele>546</ele>
        <time>2012-11-24T09:58:44Z</time>
      </trkpt>
      <trkpt lat="46.33937" lon="6.46908">
        <ele>545</ele>
        <time>2012-11-24T09:58:45Z</time>
      </trkpt>
      <trkpt lat="46.33936" lon="6.46906">
        <ele>545</ele>
        <time>2012-11-24T09:58:46Z</time>
      </trkpt>
      <trkpt lat="46.33933" lon="6.46903">
        <ele>544</ele>
        <time>2012-11-24T09:58:47Z</time>
      </trkpt>
      <trkpt lat="46.33931" lon="6.469">
        <ele>544</ele>
        <time>2012-11-24T09:58:48Z</time>
      </trkpt>
      <trkpt lat="46.33928" lon="6.46898">
        <ele>543</ele>
        <time>2012-11-24T09:58:49Z</time>
      </trkpt>
      <trkpt lat="46.33927" lon="6.46896">
        <ele>542</ele>
        <time>2012-11-24T09:58:50Z</time>
      </trkpt>
      <trkpt lat="46.33926" lon="6.46895">
        <ele>541</ele>
        <time>2012-11-24T09:58:51Z</time>
      </trkpt>
      <trkpt lat="46.33923" lon="6.46892">
        <ele>539</ele>
        <time>2012-11-24T09:58:53Z</time>
      </trkpt>
      <trkpt lat="46.33921" lon="6.4689">
        <ele>538</ele>
        <time>2012-11-24T09:58:54Z</time>
      </trkpt>
      <trkpt lat="46.3392" lon="6.46889">
        <ele>537</ele>
        <time>2012-11-24T09:58:55Z</time>
      </trkpt>
      <trkpt lat="46.33919" lon="6.46885">
        <ele>535</ele>
        <time>2012-11-24T09:58:57Z</time>
      </trkpt>
      <trkpt lat="46.33918" lon="6.46881">
        <ele>534</ele>
        <time>2012-11-24T09:58:58Z</time>
      </trkpt>
      <trkpt lat="46.33917" lon="6.46878">
        <ele>533</ele>
        <time>2012-11-24T09:58:59Z</time>
      </trkpt>
      <trkpt lat="46.33918" lon="6.46876">
        <ele>532</ele>
        <time>2012-11-24T09:59:00Z</time>
      </trkpt>
      <trkpt lat="46.33918" lon="6.46873">
        <ele>531</ele>
        <time>2012-11-24T09:59:01Z</time>
      </trkpt>
      <trkpt lat="46.33917" lon="6.46872">
        <ele>530</ele>
        <time>2012-11-24T09:59:02Z</time>
      </trkpt>
      <trkpt lat="46.33918" lon="6.4687">
        <ele>530</ele>
        <time>2012-11-24T09:59:03Z</time>
      </trkpt>
      <trkpt lat="46.33918" lon="6.46867">
        <ele>530</ele>
        <time>2012-11-24T09:59:04Z</time>
      </trkpt>
      <trkpt lat="46.33919" lon="6.46864">
        <ele>529</ele>
        <time>2012-11-24T09:59:05Z</time>
      </trkpt>
      <trkpt lat="46.33919" lon="6.46862">
        <ele>528</ele>
        <time>2012-11-24T09:59:06Z</time>
      </trkpt>
      <trkpt lat="46.33918" lon="6.46858">
        <ele>527</ele>
        <time>2012-11-24T09:59:07Z</time>
      </trkpt>
      <trkpt lat="46.33917" lon="6.46854">
        <ele>526</ele>
        <time>2012-11-24T09:59:08Z</time>
      </trkpt>
      <trkpt lat="46.33916" lon="6.46851">
        <ele>525</ele>
        <time>2012-11-24T09:59:09Z</time>
      </trkpt>
      <trkpt lat="46.33917" lon="6.46847">
        <ele>524</ele>
        <time>2012-11-24T09:59:10Z</time>
      </trkpt>
      <trkpt lat="46.33918" lon="6.46844">
        <ele>523</ele>
        <time>2012-11-24T09:59:11Z</time>
      </trkpt>
      <trkpt lat="46.33919" lon="6.4684">
        <ele>522</ele>
        <time>2012-11-24T09:59:12Z</time>
      </trkpt>
      <trkpt lat="46.3392" lon="6.46837">
        <ele>521</ele>
        <time>2012-11-24T09:59:13Z</time>
      </trkpt>
      <trkpt lat="46.33921" lon="6.46834">
        <ele>520</ele>
        <time>2012-11-24T09:59:14Z</time>
      </trkpt>
      <trkpt lat="46.33922" lon="6.4683">
        <ele>519</ele>
        <time>2012-11-24T09:59:15Z</time>
      </trkpt>
      <trkpt lat="46.33923" lon="6.46828">
        <ele>518</ele>
        <time>2012-11-24T09:59:16Z</time>
      </trkpt>
      <trkpt lat="46.33923" lon="6.46825">
        <ele>517</ele>
        <time>2012-11-24T09:59:17Z</time>
      </trkpt>
      <trkpt lat="46.33923" lon="6.46823">
        <ele>516</ele>
        <time>2012-11-24T09:59:18Z</time>
      </trkpt>
      <trkpt lat="46.33924" lon="6.46819">
        <ele>515</ele>
        <time>2012-11-24T09:59:19Z</time>
      </trkpt>
      <trkpt lat="46.33924" lon="6.46816">
        <ele>514</ele>
        <time>2012-11-24T09:59:20Z</time>
      </trkpt>
      <trkpt lat="46.33926" lon="6.46813">
        <ele>513</ele>
        <time>2012-11-24T09:59:21Z</time>
      </trkpt>
      <trkpt lat="46.33928" lon="6.46811">
        <ele>512</ele>
        <time>2012-11-24T09:59:22Z</time>
      </trkpt>
      <trkpt lat="46.3393" lon="6.46809">
        <ele>512</ele>
        <time>2012-11-24T09:59:23Z</time>
      </trkpt>
      <trkpt lat="46.33934" lon="6.46808">
        <ele>512</ele>
        <time>2012-11-24T09:59:24Z</time>
      </trkpt>
      <trkpt lat="46.33935" lon="6.46806">
        <ele>511</ele>
        <time>2012-11-24T09:59:25Z</time>
      </trkpt>
      <trkpt lat="46.33941" lon="6.46799">
        <ele>511</ele>
        <time>2012-11-24T09:59:28Z</time>
      </trkpt>
      <trkpt lat="46.33942" lon="6.46791">
        <ele>510</ele>
        <time>2012-11-24T09:59:29Z</time>
      </trkpt>
      <trkpt lat="46.33944" lon="6.46785">
        <ele>509</ele>
        <time>2012-11-24T09:59:30Z</time>
      </trkpt>
      <trkpt lat="46.33944" lon="6.46782">
        <ele>508</ele>
        <time>2012-11-24T09:59:31Z</time>
      </trkpt>
      <trkpt lat="46.33944" lon="6.46779">
        <ele>507</ele>
        <time>2012-11-24T09:59:32Z</time>
      </trkpt>
      <trkpt lat="46.33944" lon="6.46776">
        <ele>506</ele>
        <time>2012-11-24T09:59:33Z</time>
      </trkpt>
      <trkpt lat="46.33945" lon="6.46772">
        <ele>506</ele>
        <time>2012-11-24T09:59:34Z</time>
      </trkpt>
      <trkpt lat="46.33946" lon="6.4677">
        <ele>506</ele>
        <time>2012-11-24T09:59:35Z</time>
      </trkpt>
      <trkpt lat="46.33947" lon="6.46767">
        <ele>506</ele>
        <time>2012-11-24T09:59:36Z</time>
      </trkpt>
      <trkpt lat="46.33947" lon="6.46765">
        <ele>506</ele>
        <time>2012-11-24T09:59:37Z</time>
      </trkpt>
      <trkpt lat="46.33949" lon="6.4676">
        <ele>506</ele>
        <time>2012-11-24T09:59:38Z</time>
      </trkpt>
      <trkpt lat="46.33951" lon="6.46757">
        <ele>506</ele>
        <time>2012-11-24T09:59:39Z</time>
      </trkpt>
      <trkpt lat="46.33952" lon="6.46754">
        <ele>506</ele>
        <time>2012-11-24T09:59:40Z</time>
      </trkpt>
      <trkpt lat="46.33953" lon="6.46751">
        <ele>506</ele>
        <time>2012-11-24T09:59:41Z</time>
      </trkpt>
      <trkpt lat="46.33955" lon="6.4675">
        <ele>506</ele>
        <time>2012-11-24T09:59:42Z</time>
      </trkpt>
      <trkpt lat="46.33958" lon="6.46749">
        <ele>506</ele>
        <time>2012-11-24T09:59:43Z</time>
      </trkpt>
      <trkpt lat="46.3396" lon="6.46748">
        <ele>507</ele>
        <time>2012-11-24T09:59:44Z</time>
      </trkpt>
      <trkpt lat="46.33963" lon="6.46749">
        <ele>507</ele>
        <time>2012-11-24T09:59:45Z</time>
      </trkpt>
      <trkpt lat="46.33965" lon="6.46749">
        <ele>508</ele>
        <time>2012-11-24T09:59:47Z</time>
      </trkpt>
      <trkpt lat="46.33965" lon="6.46747">
        <ele>508</ele>
        <time>2012-11-24T09:59:48Z</time>
      </trkpt>
      <trkpt lat="46.33963" lon="6.46744">
        <ele>508</ele>
        <time>2012-11-24T09:59:49Z</time>
      </trkpt>
      <trkpt lat="46.33962" lon="6.46741">
        <ele>508</ele>
        <time>2012-11-24T09:59:50Z</time>
      </trkpt>
      <trkpt lat="46.33963" lon="6.46738">
        <ele>508</ele>
        <time>2012-11-24T09:59:51Z</time>
      </trkpt>
      <trkpt lat="46.33963" lon="6.46736">
        <ele>508</ele>
        <time>2012-11-24T09:59:52Z</time>
      </trkpt>
      <trkpt lat="46.33965" lon="6.46733">
        <ele>508</ele>
        <time>2012-11-24T09:59:53Z</time>
      </trkpt>
      <trkpt lat="46.33967" lon="6.4673">
        <ele>508</ele>
        <time>2012-11-24T09:59:54Z</time>
      </trkpt>
      <trkpt lat="46.33971" lon="6.46727">
        <ele>508</ele>
        <time>2012-11-24T09:59:55Z</time>
      </trkpt>
      <trkpt lat="46.33972" lon="6.46725">
        <ele>508</ele>
        <time>2012-11-24T09:59:56Z</time>
      </trkpt>
      <trkpt lat="46.33975" lon="6.46723">
        <ele>508</ele>
        <time>2012-11-24T09:59:57Z</time>
      </trkpt>
      <trkpt lat="46.33977" lon="6.46722">
        <ele>508</ele>
        <time>2012-11-24T09:59:58Z</time>
      </trkpt>
      <trkpt lat="46.33979" lon="6.4672">
        <ele>508</ele>
        <time>2012-11-24T09:59:59Z</time>
      </trkpt>
      <trkpt lat="46.3398" lon="6.46719">
        <ele>508</ele>
        <time>2012-11-24T10:00:00Z</time>
      </trkpt>
      <trkpt lat="46.33981" lon="6.46717">
        <ele>508</ele>
        <time>2012-11-24T10:00:01Z</time>
      </trkpt>
      <trkpt lat="46.33982" lon="6.46715">
        <ele>508</ele>
        <time>2012-11-24T10:00:02Z</time>
      </trkpt>
      <trkpt lat="46.33985" lon="6.46714">
        <ele>508</ele>
        <time>2012-11-24T10:00:03Z</time>
      </trkpt>
      <trkpt lat="46.33989" lon="6.46713">
        <ele>508</ele>
        <time>2012-11-24T10:00:04Z</time>
      </trkpt>
      <trkpt lat="46.33992" lon="6.46711">
        <ele>508</ele>
        <time>2012-11-24T10:00:05Z</time>
      </trkpt>
      <trkpt lat="46.33994" lon="6.46709">
        <ele>508</ele>
        <time>2012-11-24T10:00:06Z</time>
      </trkpt>
      <trkpt lat="46.33997" lon="6.46706">
        <ele>508</ele>
        <time>2012-11-24T10:00:07Z</time>
      </trkpt>
      <trkpt lat="46.33999" lon="6.46704">
        <ele>508</ele>
        <time>2012-11-24T10:00:08Z</time>
      </trkpt>
      <trkpt lat="46.34" lon="6.46702">
        <ele>508</ele>
        <time>2012-11-24T10:00:09Z</time>
      </trkpt>
      <trkpt lat="46.34002" lon="6.46701">
        <ele>507</ele>
        <time>2012-11-24T10:00:10Z</time>
      </trkpt>
      <trkpt lat="46.34003" lon="6.467">
        <ele>506</ele>
        <time>2012-11-24T10:00:11Z</time>
      </trkpt>
      <trkpt lat="46.34005" lon="6.467">
        <ele>505</ele>
        <time>2012-11-24T10:00:12Z</time>
      </trkpt>
      <trkpt lat="46.34007" lon="6.46699">
        <ele>504</ele>
        <time>2012-11-24T10:00:13Z</time>
      </trkpt>
      <trkpt lat="46.3401" lon="6.46698">
        <ele>503</ele>
        <time>2012-11-24T10:00:14Z</time>
      </trkpt>
      <trkpt lat="46.34012" lon="6.46697">
        <ele>503</ele>
        <time>2012-11-24T10:00:15Z</time>
      </trkpt>
      <trkpt lat="46.34015" lon="6.46697">
        <ele>502</ele>
        <time>2012-11-24T10:00:16Z</time>
      </trkpt>
      <trkpt lat="46.34016" lon="6.46698">
        <ele>502</ele>
        <time>2012-11-24T10:00:17Z</time>
      </trkpt>
      <trkpt lat="46.34018" lon="6.46699">
        <ele>501</ele>
        <time>2012-11-24T10:00:18Z</time>
      </trkpt>
      <trkpt lat="46.3402" lon="6.467">
        <ele>501</ele>
        <time>2012-11-24T10:00:19Z</time>
      </trkpt>
      <trkpt lat="46.34021" lon="6.46701">
        <ele>501</ele>
        <time>2012-11-24T10:00:20Z</time>
      </trkpt>
      <trkpt lat="46.34024" lon="6.46702">
        <ele>501</ele>
        <time>2012-11-24T10:00:21Z</time>
      </trkpt>
      <trkpt lat="46.34025" lon="6.46703">
        <ele>501</ele>
        <time>2012-11-24T10:00:22Z</time>
      </trkpt>
      <trkpt lat="46.34027" lon="6.46705">
        <ele>501</ele>
        <time>2012-11-24T10:00:23Z</time>
      </trkpt>
      <trkpt lat="46.34028" lon="6.46707">
        <ele>501</ele>
        <time>2012-11-24T10:00:24Z</time>
      </trkpt>
      <trkpt lat="46.3403" lon="6.46708">
        <ele>501</ele>
        <time>2012-11-24T10:00:25Z</time>
      </trkpt>
      <trkpt lat="46.34031" lon="6.46709">
        <ele>501</ele>
        <time>2012-11-24T10:00:26Z</time>
      </trkpt>
      <trkpt lat="46.34033" lon="6.4671">
        <ele>501</ele>
        <time>2012-11-24T10:00:27Z</time>
      </trkpt>
      <trkpt lat="46.34035" lon="6.4671">
        <ele>501</ele>
        <time>2012-11-24T10:00:28Z</time>
      </trkpt>
      <trkpt lat="46.34037" lon="6.4671">
        <ele>500</ele>
        <time>2012-11-24T10:00:29Z</time>
      </trkpt>
      <trkpt lat="46.34039" lon="6.46712">
        <ele>499</ele>
        <time>2012-11-24T10:00:30Z</time>
      </trkpt>
      <trkpt lat="46.3404" lon="6.46715">
        <ele>498</ele>
        <time>2012-11-24T10:00:31Z</time>
      </trkpt>
      <trkpt lat="46.34042" lon="6.46717">
        <ele>498</ele>
        <time>2012-11-24T10:00:32Z</time>
      </trkpt>
      <trkpt lat="46.34043" lon="6.46719">
        <ele>498</ele>
        <time>2012-11-24T10:00:33Z</time>
      </trkpt>
      <trkpt lat="46.34045" lon="6.4672">
        <ele>498</ele>
        <time>2012-11-24T10:00:34Z</time>
      </trkpt>
      <trkpt lat="46.34047" lon="6.46722">
        <ele>498</ele>
        <time>2012-11-24T10:00:35Z</time>
      </trkpt>
      <trkpt lat="46.34048" lon="6.46725">
        <ele>498</ele>
        <time>2012-11-24T10:00:36Z</time>
      </trkpt>
      <trkpt lat="46.3405" lon="6.46728">
        <ele>498</ele>
        <time>2012-11-24T10:00:37Z</time>
      </trkpt>
      <trkpt lat="46.34052" lon="6.46731">
        <ele>498</ele>
        <time>2012-11-24T10:00:38Z</time>
      </trkpt>
      <trkpt lat="46.34054" lon="6.46733">
        <ele>498</ele>
        <time>2012-11-24T10:00:39Z</time>
      </trkpt>
      <trkpt lat="46.34056" lon="6.46736">
        <ele>498</ele>
        <time>2012-11-24T10:00:40Z</time>
      </trkpt>
      <trkpt lat="46.34057" lon="6.46739">
        <ele>498</ele>
        <time>2012-11-24T10:00:41Z</time>
      </trkpt>
      <trkpt lat="46.34057" lon="6.46742">
        <ele>498</ele>
        <time>2012-11-24T10:00:42Z</time>
      </trkpt>
      <trkpt lat="46.34057" lon="6.46745">
        <ele>498</ele>
        <time>2012-11-24T10:00:43Z</time>
      </trkpt>
      <trkpt lat="46.34058" lon="6.46749">
        <ele>498</ele>
        <time>2012-11-24T10:00:44Z</time>
      </trkpt>
      <trkpt lat="46.34059" lon="6.46752">
        <ele>499</ele>
        <time>2012-11-24T10:00:45Z</time>
      </trkpt>
      <trkpt lat="46.3406" lon="6.46756">
        <ele>500</ele>
        <time>2012-11-24T10:00:46Z</time>
      </trkpt>
      <trkpt lat="46.3406" lon="6.4676">
        <ele>501</ele>
        <time>2012-11-24T10:00:47Z</time>
      </trkpt>
      <trkpt lat="46.34061" lon="6.46762">
        <ele>502</ele>
        <time>2012-11-24T10:00:48Z</time>
      </trkpt>
      <trkpt lat="46.34063" lon="6.46765">
        <ele>503</ele>
        <time>2012-11-24T10:00:49Z</time>
      </trkpt>
      <trkpt lat="46.34064" lon="6.46768">
        <ele>504</ele>
        <time>2012-11-24T10:00:50Z</time>
      </trkpt>
      <trkpt lat="46.34066" lon="6.4677">
        <ele>505</ele>
        <time>2012-11-24T10:00:51Z</time>
      </trkpt>
      <trkpt lat="46.34067" lon="6.46774">
        <ele>506</ele>
        <time>2012-11-24T10:00:52Z</time>
      </trkpt>
      <trkpt lat="46.34067" lon="6.46777">
        <ele>507</ele>
        <time>2012-11-24T10:00:53Z</time>
      </trkpt>
      <trkpt lat="46.34066" lon="6.46779">
        <ele>508</ele>
        <time>2012-11-24T10:00:54Z</time>
      </trkpt>
      <trkpt lat="46.34068" lon="6.46783">
        <ele>508</ele>
        <time>2012-11-24T10:00:55Z</time>
      </trkpt>
      <trkpt lat="46.34069" lon="6.46787">
        <ele>508</ele>
        <time>2012-11-24T10:00:56Z</time>
      </trkpt>
      <trkpt lat="46.3407" lon="6.46792">
        <ele>508</ele>
        <time>2012-11-24T10:00:57Z</time>
      </trkpt>
      <trkpt lat="46.34071" lon="6.46795">
        <ele>508</ele>
        <time>2012-11-24T10:00:58Z</time>
      </trkpt>
      <trkpt lat="46.34072" lon="6.46798">
        <ele>508</ele>
        <time>2012-11-24T10:00:59Z</time>
      </trkpt>
      <trkpt lat="46.34073" lon="6.468">
        <ele>508</ele>
        <time>2012-11-24T10:01:00Z</time>
      </trkpt>
      <trkpt lat="46.34074" lon="6.46803">
        <ele>508</ele>
        <time>2012-11-24T10:01:01Z</time>
      </trkpt>
      <trkpt lat="46.34074" lon="6.46807">
        <ele>509</ele>
        <time>2012-11-24T10:01:02Z</time>
      </trkpt>
      <trkpt lat="46.34073" lon="6.4681">
        <ele>510</ele>
        <time>2012-11-24T10:01:03Z</time>
      </trkpt>
      <trkpt lat="46.34073" lon="6.46813">
        <ele>510</ele>
        <time>2012-11-24T10:01:04Z</time>
      </trkpt>
      <trkpt lat="46.34072" lon="6.46815">
        <ele>511</ele>
        <time>2012-11-24T10:01:05Z</time>
      </trkpt>
      <trkpt lat="46.34071" lon="6.46818">
        <ele>511</ele>
        <time>2012-11-24T10:01:06Z</time>
      </trkpt>
      <trkpt lat="46.34072" lon="6.46821">
        <ele>511</ele>
        <time>2012-11-24T10:01:07Z</time>
      </trkpt>
      <trkpt lat="46.34071" lon="6.46825">
        <ele>511</ele>
        <time>2012-11-24T10:01:08Z</time>
      </trkpt>
      <trkpt lat="46.3407" lon="6.46828">
        <ele>511</ele>
        <time>2012-11-24T10:01:09Z</time>
      </trkpt>
      <trkpt lat="46.34071" lon="6.46832">
        <ele>512</ele>
        <time>2012-11-24T10:01:10Z</time>
      </trkpt>
      <trkpt lat="46.34072" lon="6.46836">
        <ele>512</ele>
        <time>2012-11-24T10:01:11Z</time>
      </trkpt>
      <trkpt lat="46.34071" lon="6.4684">
        <ele>512</ele>
        <time>2012-11-24T10:01:12Z</time>
      </trkpt>
      <trkpt lat="46.3407" lon="6.46842">
        <ele>512</ele>
        <time>2012-11-24T10:01:13Z</time>
      </trkpt>
      <trkpt lat="46.34069" lon="6.46846">
        <ele>512</ele>
        <time>2012-11-24T10:01:14Z</time>
      </trkpt>
      <trkpt lat="46.34069" lon="6.4685">
        <ele>512</ele>
        <time>2012-11-24T10:01:15Z</time>
      </trkpt>
      <trkpt lat="46.34069" lon="6.46855">
        <ele>512</ele>
        <time>2012-11-24T10:01:16Z</time>
      </trkpt>
      <trkpt lat="46.34068" lon="6.46857">
        <ele>512</ele>
        <time>2012-11-24T10:01:17Z</time>
      </trkpt>
      <trkpt lat="46.34066" lon="6.46859">
        <ele>512</ele>
        <time>2012-11-24T10:01:18Z</time>
      </trkpt>
      <trkpt lat="46.34064" lon="6.4686">
        <ele>512</ele>
        <time>2012-11-24T10:01:19Z</time>
      </trkpt>
      <trkpt lat="46.34062" lon="6.46861">
        <ele>512</ele>
        <time>2012-11-24T10:01:20Z</time>
      </trkpt>
      <trkpt lat="46.34061" lon="6.46862">
        <ele>512</ele>
        <time>2012-11-24T10:01:21Z</time>
      </trkpt>
      <trkpt lat="46.3406" lon="6.46865">
        <ele>512</ele>
        <time>2012-11-24T10:01:23Z</time>
      </trkpt>
      <trkpt lat="46.3406" lon="6.46868">
        <ele>512</ele>
        <time>2012-11-24T10:01:24Z</time>
      </trkpt>
      <trkpt lat="46.3406" lon="6.46871">
        <ele>511</ele>
        <time>2012-11-24T10:01:25Z</time>
      </trkpt>
      <trkpt lat="46.34057" lon="6.46872">
        <ele>510</ele>
        <time>2012-11-24T10:01:26Z</time>
      </trkpt>
      <trkpt lat="46.34056" lon="6.46875">
        <ele>509</ele>
        <time>2012-11-24T10:01:27Z</time>
      </trkpt>
      <trkpt lat="46.34054" lon="6.46876">
        <ele>509</ele>
        <time>2012-11-24T10:01:28Z</time>
      </trkpt>
      <trkpt lat="46.34054" lon="6.4688">
        <ele>508</ele>
        <time>2012-11-24T10:01:29Z</time>
      </trkpt>
      <trkpt lat="46.34054" lon="6.46883">
        <ele>508</ele>
        <time>2012-11-24T10:01:30Z</time>
      </trkpt>
      <trkpt lat="46.34053" lon="6.46885">
        <ele>508</ele>
        <time>2012-11-24T10:01:31Z</time>
      </trkpt>
      <trkpt lat="46.34053" lon="6.46888">
        <ele>508</ele>
        <time>2012-11-24T10:01:32Z</time>
      </trkpt>
      <trkpt lat="46.34053" lon="6.4689">
        <ele>508</ele>
        <time>2012-11-24T10:01:33Z</time>
      </trkpt>
      <trkpt lat="46.34053" lon="6.46894">
        <ele>509</ele>
        <time>2012-11-24T10:01:34Z</time>
      </trkpt>
      <trkpt lat="46.34053" lon="6.46897">
        <ele>510</ele>
        <time>2012-11-24T10:01:35Z</time>
      </trkpt>
      <trkpt lat="46.34052" lon="6.469">
        <ele>511</ele>
        <time>2012-11-24T10:01:36Z</time>
      </trkpt>
      <trkpt lat="46.34052" lon="6.46903">
        <ele>511</ele>
        <time>2012-11-24T10:01:37Z</time>
      </trkpt>
      <trkpt lat="46.34052" lon="6.46905">
        <ele>511</ele>
        <time>2012-11-24T10:01:38Z</time>
      </trkpt>
      <trkpt lat="46.34053" lon="6.46909">
        <ele>511</ele>
        <time>2012-11-24T10:01:39Z</time>
      </trkpt>
      <trkpt lat="46.34054" lon="6.46912">
        <ele>511</ele>
        <time>2012-11-24T10:01:40Z</time>
      </trkpt>
      <trkpt lat="46.34055" lon="6.46913">
        <ele>511</ele>
        <time>2012-11-24T10:01:41Z</time>
      </trkpt>
      <trkpt lat="46.34056" lon="6.46915">
        <ele>512</ele>
        <time>2012-11-24T10:01:42Z</time>
      </trkpt>
      <trkpt lat="46.34057" lon="6.46917">
        <ele>513</ele>
        <time>2012-11-24T10:01:43Z</time>
      </trkpt>
      <trkpt lat="46.34059" lon="6.46919">
        <ele>514</ele>
        <time>2012-11-24T10:01:44Z</time>
      </trkpt>
      <trkpt lat="46.3406" lon="6.46921">
        <ele>515</ele>
        <time>2012-11-24T10:01:45Z</time>
      </trkpt>
      <trkpt lat="46.3406" lon="6.46924">
        <ele>516</ele>
        <time>2012-11-24T10:01:46Z</time>
      </trkpt>
      <trkpt lat="46.34061" lon="6.46926">
        <ele>516</ele>
        <time>2012-11-24T10:01:47Z</time>
      </trkpt>
      <trkpt lat="46.34061" lon="6.46929">
        <ele>516</ele>
        <time>2012-11-24T10:01:48Z</time>
      </trkpt>
      <trkpt lat="46.34062" lon="6.46932">
        <ele>516</ele>
        <time>2012-11-24T10:01:49Z</time>
      </trkpt>
      <trkpt lat="46.34062" lon="6.46934">
        <ele>516</ele>
        <time>2012-11-24T10:01:50Z</time>
      </trkpt>
      <trkpt lat="46.34063" lon="6.46937">
        <ele>516</ele>
        <time>2012-11-24T10:01:51Z</time>
      </trkpt>
      <trkpt lat="46.34065" lon="6.4694">
        <ele>516</ele>
        <time>2012-11-24T10:01:52Z</time>
      </trkpt>
      <trkpt lat="46.34068" lon="6.46943">
        <ele>516</ele>
        <time>2012-11-24T10:01:53Z</time>
      </trkpt>
      <trkpt lat="46.3407" lon="6.46946">
        <ele>516</ele>
        <time>2012-11-24T10:01:54Z</time>
      </trkpt>
      <trkpt lat="46.34071" lon="6.46949">
        <ele>516</ele>
        <time>2012-11-24T10:01:55Z</time>
      </trkpt>
      <trkpt lat="46.34071" lon="6.46951">
        <ele>516</ele>
        <time>2012-11-24T10:01:56Z</time>
      </trkpt>
      <trkpt lat="46.34072" lon="6.46953">
        <ele>516</ele>
        <time>2012-11-24T10:01:57Z</time>
      </trkpt>
      <trkpt lat="46.34073" lon="6.46956">
        <ele>516</ele>
        <time>2012-11-24T10:01:58Z</time>
      </trkpt>
      <trkpt lat="46.34074" lon="6.46958">
        <ele>516</ele>
        <time>2012-11-24T10:01:59Z</time>
      </trkpt>
      <trkpt lat="46.34074" lon="6.46961">
        <ele>516</ele>
        <time>2012-11-24T10:02:00Z</time>
      </trkpt>
      <trkpt lat="46.34073" lon="6.46965">
        <ele>515</ele>
        <time>2012-11-24T10:02:01Z</time>
      </trkpt>
      <trkpt lat="46.34073" lon="6.46967">
        <ele>514</ele>
        <time>2012-11-24T10:02:02Z</time>
      </trkpt>
      <trkpt lat="46.34073" lon="6.46971">
        <ele>513</ele>
        <time>2012-11-24T10:02:03Z</time>
      </trkpt>
      <trkpt lat="46.34074" lon="6.46975">
        <ele>513</ele>
        <time>2012-11-24T10:02:04Z</time>
      </trkpt>
      <trkpt lat="46.34074" lon="6.46978">
        <ele>513</ele>
        <time>2012-11-24T10:02:05Z</time>
      </trkpt>
      <trkpt lat="46.34075" lon="6.4698">
        <ele>513</ele>
        <time>2012-11-24T10:02:06Z</time>
      </trkpt>
      <trkpt lat="46.34075" lon="6.46983">
        <ele>513</ele>
        <time>2012-11-24T10:02:07Z</time>
      </trkpt>
      <trkpt lat="46.34076" lon="6.46986">
        <ele>513</ele>
        <time>2012-11-24T10:02:08Z</time>
      </trkpt>
      <trkpt lat="46.34077" lon="6.46988">
        <ele>513</ele>
        <time>2012-11-24T10:02:09Z</time>
      </trkpt>
      <trkpt lat="46.34078" lon="6.46991">
        <ele>513</ele>
        <time>2012-11-24T10:02:10Z</time>
      </trkpt>
      <trkpt lat="46.3408" lon="6.46994">
        <ele>513</ele>
        <time>2012-11-24T10:02:11Z</time>
      </trkpt>
      <trkpt lat="46.34082" lon="6.46996">
        <ele>513</ele>
        <time>2012-11-24T10:02:12Z</time>
      </trkpt>
      <trkpt lat="46.34084" lon="6.46998">
        <ele>513</ele>
        <time>2012-11-24T10:02:13Z</time>
      </trkpt>
      <trkpt lat="46.34085" lon="6.47">
        <ele>513</ele>
        <time>2012-11-24T10:02:14Z</time>
      </trkpt>
      <trkpt lat="46.34085" lon="6.47001">
        <ele>513</ele>
        <time>2012-11-24T10:02:15Z</time>
      </trkpt>
      <trkpt lat="46.34087" lon="6.47005">
        <ele>513</ele>
        <time>2012-11-24T10:02:17Z</time>
      </trkpt>
      <trkpt lat="46.34088" lon="6.47008">
        <ele>513</ele>
        <time>2012-11-24T10:02:18Z</time>
      </trkpt>
      <trkpt lat="46.34088" lon="6.47012">
        <ele>513</ele>
        <time>2012-11-24T10:02:19Z</time>
      </trkpt>
      <trkpt lat="46.34087" lon="6.47016">
        <ele>514</ele>
        <time>2012-11-24T10:02:20Z</time>
      </trkpt>
      <trkpt lat="46.34086" lon="6.47018">
        <ele>515</ele>
        <time>2012-11-24T10:02:21Z</time>
      </trkpt>
      <trkpt lat="46.34086" lon="6.4702">
        <ele>516</ele>
        <time>2012-11-24T10:02:22Z</time>
      </trkpt>
      <trkpt lat="46.34086" lon="6.47022">
        <ele>516</ele>
        <time>2012-11-24T10:02:23Z</time>
      </trkpt>
      <trkpt lat="46.34087" lon="6.47024">
        <ele>516</ele>
        <time>2012-11-24T10:02:24Z</time>
      </trkpt>
      <trkpt lat="46.34088" lon="6.47026">
        <ele>516</ele>
        <time>2012-11-24T10:02:25Z</time>
      </trkpt>
      <trkpt lat="46.34089" lon="6.47028">
        <ele>516</ele>
        <time>2012-11-24T10:02:26Z</time>
      </trkpt>
      <trkpt lat="46.34091" lon="6.47032">
        <ele>516</ele>
        <time>2012-11-24T10:02:28Z</time>
      </trkpt>
      <trkpt lat="46.34093" lon="6.47035">
        <ele>516</ele>
        <time>2012-11-24T10:02:29Z</time>
      </trkpt>
      <trkpt lat="46.34092" lon="6.47039">
        <ele>516</ele>
        <time>2012-11-24T10:02:30Z</time>
      </trkpt>
      <trkpt lat="46.34093" lon="6.47042">
        <ele>517</ele>
        <time>2012-11-24T10:02:31Z</time>
      </trkpt>
      <trkpt lat="46.34093" lon="6.47044">
        <ele>518</ele>
        <time>2012-11-24T10:02:32Z</time>
      </trkpt>
      <trkpt lat="46.34093" lon="6.47046">
        <ele>518</ele>
        <time>2012-11-24T10:02:33Z</time>
      </trkpt>
      <trkpt lat="46.34094" lon="6.47048">
        <ele>519</ele>
        <time>2012-11-24T10:02:34Z</time>
      </trkpt>
      <trkpt lat="46.34095" lon="6.4705">
        <ele>519</ele>
        <time>2012-11-24T10:02:35Z</time>
      </trkpt>
      <trkpt lat="46.34096" lon="6.47053">
        <ele>520</ele>
        <time>2012-11-24T10:02:36Z</time>
      </trkpt>
      <trkpt lat="46.34096" lon="6.47056">
        <ele>520</ele>
        <time>2012-11-24T10:02:37Z</time>
      </trkpt>
      <trkpt lat="46.34095" lon="6.47058">
        <ele>520</ele>
        <time>2012-11-24T10:02:38Z</time>
      </trkpt>
      <trkpt lat="46.34096" lon="6.47061">
        <ele>521</ele>
        <time>2012-11-24T10:02:39Z</time>
      </trkpt>
      <trkpt lat="46.34098" lon="6.47063">
        <ele>521</ele>
        <time>2012-11-24T10:02:40Z</time>
      </trkpt>
      <trkpt lat="46.34098" lon="6.47065">
        <ele>521</ele>
        <time>2012-11-24T10:02:41Z</time>
      </trkpt>
      <trkpt lat="46.34099" lon="6.47067">
        <ele>521</ele>
        <time>2012-11-24T10:02:42Z</time>
      </trkpt>
      <trkpt lat="46.341" lon="6.47069">
        <ele>521</ele>
        <time>2012-11-24T10:02:43Z</time>
      </trkpt>
      <trkpt lat="46.34101" lon="6.47071">
        <ele>521</ele>
        <time>2012-11-24T10:02:44Z</time>
      </trkpt>
      <trkpt lat="46.34103" lon="6.47073">
        <ele>521</ele>
        <time>2012-11-24T10:02:45Z</time>
      </trkpt>
      <trkpt lat="46.34104" lon="6.47074">
        <ele>521</ele>
        <time>2012-11-24T10:02:46Z</time>
      </trkpt>
      <trkpt lat="46.34106" lon="6.47075">
        <ele>521</ele>
        <time>2012-11-24T10:02:47Z</time>
      </trkpt>
      <trkpt lat="46.34107" lon="6.47077">
        <ele>521</ele>
        <time>2012-11-24T10:02:48Z</time>
      </trkpt>
      <trkpt lat="46.34109" lon="6.47079">
        <ele>521</ele>
        <time>2012-11-24T10:02:49Z</time>
      </trkpt>
      <trkpt lat="46.3411" lon="6.47081">
        <ele>521</ele>
        <time>2012-11-24T10:02:50Z</time>
      </trkpt>
      <trkpt lat="46.34112" lon="6.47084">
        <ele>521</ele>
        <time>2012-11-24T10:02:51Z</time>
      </trkpt>
      <trkpt lat="46.34113" lon="6.47086">
        <ele>521</ele>
        <time>2012-11-24T10:02:52Z</time>
      </trkpt>
      <trkpt lat="46.34115" lon="6.47088">
        <ele>521</ele>
        <time>2012-11-24T10:02:53Z</time>
      </trkpt>
      <trkpt lat="46.34118" lon="6.4709">
        <ele>521</ele>
        <time>2012-11-24T10:02:54Z</time>
      </trkpt>
      <trkpt lat="46.3412" lon="6.47091">
        <ele>521</ele>
        <time>2012-11-24T10:02:55Z</time>
      </trkpt>
      <trkpt lat="46.34122" lon="6.47093">
        <ele>521</ele>
        <time>2012-11-24T10:02:56Z</time>
      </trkpt>
      <trkpt lat="46.34122" lon="6.47097">
        <ele>521</ele>
        <time>2012-11-24T10:02:57Z</time>
      </trkpt>
      <trkpt lat="46.34123" lon="6.47099">
        <ele>521</ele>
        <time>2012-11-24T10:02:58Z</time>
      </trkpt>
      <trkpt lat="46.34123" lon="6.47102">
        <ele>521</ele>
        <time>2012-11-24T10:02:59Z</time>
      </trkpt>
      <trkpt lat="46.34124" lon="6.47105">
        <ele>521</ele>
        <time>2012-11-24T10:03:00Z</time>
      </trkpt>
      <trkpt lat="46.34122" lon="6.47108">
        <ele>521</ele>
        <time>2012-11-24T10:03:01Z</time>
      </trkpt>
      <trkpt lat="46.34121" lon="6.47111">
        <ele>521</ele>
        <time>2012-11-24T10:03:02Z</time>
      </trkpt>
      <trkpt lat="46.34121" lon="6.47114">
        <ele>521</ele>
        <time>2012-11-24T10:03:03Z</time>
      </trkpt>
      <trkpt lat="46.34121" lon="6.47118">
        <ele>521</ele>
        <time>2012-11-24T10:03:04Z</time>
      </trkpt>
      <trkpt lat="46.34121" lon="6.47121">
        <ele>521</ele>
        <time>2012-11-24T10:03:05Z</time>
      </trkpt>
      <trkpt lat="46.34122" lon="6.47123">
        <ele>520</ele>
        <time>2012-11-24T10:03:06Z</time>
      </trkpt>
      <trkpt lat="46.34123" lon="6.47126">
        <ele>519</ele>
        <time>2012-11-24T10:03:07Z</time>
      </trkpt>
      <trkpt lat="46.34124" lon="6.47128">
        <ele>518</ele>
        <time>2012-11-24T10:03:08Z</time>
      </trkpt>
      <trkpt lat="46.34125" lon="6.47132">
        <ele>517</ele>
        <time>2012-11-24T10:03:09Z</time>
      </trkpt>
      <trkpt lat="46.34126" lon="6.47134">
        <ele>516</ele>
        <time>2012-11-24T10:03:10Z</time>
      </trkpt>
      <trkpt lat="46.34128" lon="6.47137">
        <ele>515</ele>
        <time>2012-11-24T10:03:11Z</time>
      </trkpt>
      <trkpt lat="46.34129" lon="6.47141">
        <ele>514</ele>
        <time>2012-11-24T10:03:12Z</time>
      </trkpt>
      <trkpt lat="46.3413" lon="6.47144">
        <ele>513</ele>
        <time>2012-11-24T10:03:13Z</time>
      </trkpt>
      <trkpt lat="46.34132" lon="6.47147">
        <ele>512</ele>
        <time>2012-11-24T10:03:14Z</time>
      </trkpt>
      <trkpt lat="46.34133" lon="6.47149">
        <ele>512</ele>
        <time>2012-11-24T10:03:15Z</time>
      </trkpt>
      <trkpt lat="46.34137" lon="6.47148">
        <ele>512</ele>
        <time>2012-11-24T10:03:16Z</time>
      </trkpt>
      <trkpt lat="46.34139" lon="6.47146">
        <ele>511</ele>
        <time>2012-11-24T10:03:17Z</time>
      </trkpt>
      <trkpt lat="46.34143" lon="6.47143">
        <ele>510</ele>
        <time>2012-11-24T10:03:18Z</time>
      </trkpt>
      <trkpt lat="46.34148" lon="6.47141">
        <ele>509</ele>
        <time>2012-11-24T10:03:19Z</time>
      </trkpt>
      <trkpt lat="46.34152" lon="6.47139">
        <ele>508</ele>
        <time>2012-11-24T10:03:20Z</time>
      </trkpt>
      <trkpt lat="46.34157" lon="6.47137">
        <ele>506</ele>
        <time>2012-11-24T10:03:21Z</time>
      </trkpt>
      <trkpt lat="46.34158" lon="6.47136">
        <ele>504</ele>
        <time>2012-11-24T10:03:22Z</time>
      </trkpt>
      <trkpt lat="46.3416" lon="6.47135">
        <ele>502</ele>
        <time>2012-11-24T10:03:23Z</time>
      </trkpt>
      <trkpt lat="46.34163" lon="6.47135">
        <ele>500</ele>
        <time>2012-11-24T10:03:24Z</time>
      </trkpt>
      <trkpt lat="46.34165" lon="6.47135">
        <ele>498</ele>
        <time>2012-11-24T10:03:25Z</time>
      </trkpt>
      <trkpt lat="46.34167" lon="6.47134">
        <ele>496</ele>
        <time>2012-11-24T10:03:26Z</time>
      </trkpt>
      <trkpt lat="46.34168" lon="6.47133">
        <ele>494</ele>
        <time>2012-11-24T10:03:27Z</time>
      </trkpt>
      <trkpt lat="46.34171" lon="6.47132">
        <ele>493</ele>
        <time>2012-11-24T10:03:28Z</time>
      </trkpt>
      <trkpt lat="46.34173" lon="6.47132">
        <ele>492</ele>
        <time>2012-11-24T10:03:29Z</time>
      </trkpt>
      <trkpt lat="46.34174" lon="6.47131">
        <ele>491</ele>
        <time>2012-11-24T10:03:30Z</time>
      </trkpt>
      <trkpt lat="46.34176" lon="6.47129">
        <ele>490</ele>
        <time>2012-11-24T10:03:31Z</time>
      </trkpt>
      <trkpt lat="46.34178" lon="6.47129">
        <ele>488</ele>
        <time>2012-11-24T10:03:33Z</time>
      </trkpt>
      <trkpt lat="46.34181" lon="6.47131">
        <ele>487</ele>
        <time>2012-11-24T10:03:34Z</time>
      </trkpt>
      <trkpt lat="46.34184" lon="6.47133">
        <ele>487</ele>
        <time>2012-11-24T10:03:35Z</time>
      </trkpt>
      <trkpt lat="46.34186" lon="6.47134">
        <ele>486</ele>
        <time>2012-11-24T10:03:36Z</time>
      </trkpt>
      <trkpt lat="46.34189" lon="6.47135">
        <ele>486</ele>
        <time>2012-11-24T10:03:38Z</time>
      </trkpt>
      <trkpt lat="46.34193" lon="6.47135">
        <ele>486</ele>
        <time>2012-11-24T10:03:39Z</time>
      </trkpt>
      <trkpt lat="46.34195" lon="6.47136">
        <ele>486</ele>
        <time>2012-11-24T10:03:40Z</time>
      </trkpt>
      <trkpt lat="46.34197" lon="6.47139">
        <ele>485</ele>
        <time>2012-11-24T10:03:41Z</time>
      </trkpt>
      <trkpt lat="46.34201" lon="6.47139">
        <ele>484</ele>
        <time>2012-11-24T10:03:42Z</time>
      </trkpt>
      <trkpt lat="46.34204" lon="6.47139">
        <ele>484</ele>
        <time>2012-11-24T10:03:43Z</time>
      </trkpt>
      <trkpt lat="46.34206" lon="6.4714">
        <ele>484</ele>
        <time>2012-11-24T10:03:44Z</time>
      </trkpt>
      <trkpt lat="46.34208" lon="6.4714">
        <ele>484</ele>
        <time>2012-11-24T10:03:45Z</time>
      </trkpt>
      <trkpt lat="46.3421" lon="6.47142">
        <ele>484</ele>
        <time>2012-11-24T10:03:47Z</time>
      </trkpt>
      <trkpt lat="46.34213" lon="6.47144">
        <ele>484</ele>
        <time>2012-11-24T10:03:50Z</time>
      </trkpt>
      <trkpt lat="46.34215" lon="6.47145">
        <ele>484</ele>
        <time>2012-11-24T10:03:51Z</time>
      </trkpt>
      <trkpt lat="46.34217" lon="6.47148">
        <ele>484</ele>
        <time>2012-11-24T10:03:52Z</time>
      </trkpt>
      <trkpt lat="46.34219" lon="6.47148">
        <ele>484</ele>
        <time>2012-11-24T10:03:53Z</time>
      </trkpt>
      <trkpt lat="46.34221" lon="6.4715">
        <ele>484</ele>
        <time>2012-11-24T10:03:55Z</time>
      </trkpt>
      <trkpt lat="46.34222" lon="6.4715">
        <ele>484</ele>
        <time>2012-11-24T10:03:56Z</time>
      </trkpt>
      <trkpt lat="46.34224" lon="6.47151">
        <ele>484</ele>
        <time>2012-11-24T10:03:57Z</time>
      </trkpt>
      <trkpt lat="46.34228" lon="6.47155">
        <ele>484</ele>
        <time>2012-11-24T10:03:58Z</time>
      </trkpt>
      <trkpt lat="46.3423" lon="6.47158">
        <ele>484</ele>
        <time>2012-11-24T10:03:59Z</time>
      </trkpt>
      <trkpt lat="46.34232" lon="6.47161">
        <ele>484</ele>
        <time>2012-11-24T10:04:00Z</time>
      </trkpt>
      <trkpt lat="46.34234" lon="6.47164">
        <ele>485</ele>
        <time>2012-11-24T10:04:01Z</time>
      </trkpt>
      <trkpt lat="46.34236" lon="6.47164">
        <ele>486</ele>
        <time>2012-11-24T10:04:02Z</time>
      </trkpt>
      <trkpt lat="46.34238" lon="6.47165">
        <ele>487</ele>
        <time>2012-11-24T10:04:03Z</time>
      </trkpt>
      <trkpt lat="46.3424" lon="6.47166">
        <ele>488</ele>
        <time>2012-11-24T10:04:04Z</time>
      </trkpt>
      <trkpt lat="46.34242" lon="6.47168">
        <ele>489</ele>
        <time>2012-11-24T10:04:05Z</time>
      </trkpt>
      <trkpt lat="46.34243" lon="6.47169">
        <ele>491</ele>
        <time>2012-11-24T10:04:06Z</time>
      </trkpt>
      <trkpt lat="46.34245" lon="6.47172">
        <ele>492</ele>
        <time>2012-11-24T10:04:07Z</time>
      </trkpt>
      <trkpt lat="46.34247" lon="6.47175">
        <ele>493</ele>
        <time>2012-11-24T10:04:08Z</time>
      </trkpt>
      <trkpt lat="46.34249" lon="6.47177">
        <ele>494</ele>
        <time>2012-11-24T10:04:09Z</time>
      </trkpt>
      <trkpt lat="46.34252" lon="6.47177">
        <ele>495</ele>
        <time>2012-11-24T10:04:10Z</time>
      </trkpt>
      <trkpt lat="46.34254" lon="6.47176">
        <ele>496</ele>
        <time>2012-11-24T10:04:11Z</time>
      </trkpt>
      <trkpt lat="46.34258" lon="6.47177">
        <ele>497</ele>
        <time>2012-11-24T10:04:13Z</time>
      </trkpt>
      <trkpt lat="46.3426" lon="6.47178">
        <ele>497</ele>
        <time>2012-11-24T10:04:14Z</time>
      </trkpt>
      <trkpt lat="46.34264" lon="6.47178">
        <ele>497</ele>
        <time>2012-11-24T10:04:15Z</time>
      </trkpt>
      <trkpt lat="46.34267" lon="6.47177">
        <ele>497</ele>
        <time>2012-11-24T10:04:16Z</time>
      </trkpt>
      <trkpt lat="46.34272" lon="6.47177">
        <ele>497</ele>
        <time>2012-11-24T10:04:17Z</time>
      </trkpt>
      <trkpt lat="46.34283" lon="6.4717">
        <ele>495</ele>
        <time>2012-11-24T10:04:22Z</time>
      </trkpt>
      <trkpt lat="46.34285" lon="6.47173">
        <ele>494</ele>
        <time>2012-11-24T10:04:23Z</time>
      </trkpt>
      <trkpt lat="46.34288" lon="6.47174">
        <ele>492</ele>
        <time>2012-11-24T10:04:25Z</time>
      </trkpt>
      <trkpt lat="46.3429" lon="6.47176">
        <ele>491</ele>
        <time>2012-11-24T10:04:26Z</time>
      </trkpt>
      <trkpt lat="46.34291" lon="6.47177">
        <ele>490</ele>
        <time>2012-11-24T10:04:27Z</time>
      </trkpt>
      <trkpt lat="46.34292" lon="6.4718">
        <ele>488</ele>
        <time>2012-11-24T10:04:29Z</time>
      </trkpt>
      <trkpt lat="46.34295" lon="6.47183">
        <ele>488</ele>
        <time>2012-11-24T10:04:30Z</time>
      </trkpt>
      <trkpt lat="46.34296" lon="6.47186">
        <ele>488</ele>
        <time>2012-11-24T10:04:31Z</time>
      </trkpt>
      <trkpt lat="46.34297" lon="6.47188">
        <ele>488</ele>
        <time>2012-11-24T10:04:32Z</time>
      </trkpt>
      <trkpt lat="46.34299" lon="6.47191">
        <ele>488</ele>
        <time>2012-11-24T10:04:34Z</time>
      </trkpt>
      <trkpt lat="46.34301" lon="6.47193">
        <ele>488</ele>
        <time>2012-11-24T10:04:35Z</time>
      </trkpt>
      <trkpt lat="46.34303" lon="6.47194">
        <ele>488</ele>
        <time>2012-11-24T10:04:36Z</time>
      </trkpt>
      <trkpt lat="46.34304" lon="6.47196">
        <ele>488</ele>
        <time>2012-11-24T10:04:37Z</time>
      </trkpt>
      <trkpt lat="46.34305" lon="6.47198">
        <ele>488</ele>
        <time>2012-11-24T10:04:38Z</time>
      </trkpt>
      <trkpt lat="46.34306" lon="6.47199">
        <ele>488</ele>
        <time>2012-11-24T10:04:39Z</time>
      </trkpt>
      <trkpt lat="46.34308" lon="6.472">
        <ele>489</ele>
        <time>2012-11-24T10:04:40Z</time>
      </trkpt>
      <trkpt lat="46.3431" lon="6.47202">
        <ele>490</ele>
        <time>2012-11-24T10:04:41Z</time>
      </trkpt>
      <trkpt lat="46.34312" lon="6.47202">
        <ele>491</ele>
        <time>2012-11-24T10:04:42Z</time>
      </trkpt>
      <trkpt lat="46.34313" lon="6.47203">
        <ele>492</ele>
        <time>2012-11-24T10:04:43Z</time>
      </trkpt>
      <trkpt lat="46.34314" lon="6.47205">
        <ele>493</ele>
        <time>2012-11-24T10:04:44Z</time>
      </trkpt>
      <trkpt lat="46.34316" lon="6.47207">
        <ele>494</ele>
        <time>2012-11-24T10:04:45Z</time>
      </trkpt>
      <trkpt lat="46.34317" lon="6.47208">
        <ele>496</ele>
        <time>2012-11-24T10:04:46Z</time>
      </trkpt>
      <trkpt lat="46.34318" lon="6.4721">
        <ele>497</ele>
        <time>2012-11-24T10:04:47Z</time>
      </trkpt>
      <trkpt lat="46.34321" lon="6.4721">
        <ele>498</ele>
        <time>2012-11-24T10:04:48Z</time>
      </trkpt>
      <trkpt lat="46.34322" lon="6.47211">
        <ele>499</ele>
        <time>2012-11-24T10:04:49Z</time>
      </trkpt>
      <trkpt lat="46.34323" lon="6.47213">
        <ele>500</ele>
        <time>2012-11-24T10:04:50Z</time>
      </trkpt>
      <trkpt lat="46.34324" lon="6.47214">
        <ele>501</ele>
        <time>2012-11-24T10:04:51Z</time>
      </trkpt>
      <trkpt lat="46.34325" lon="6.47216">
        <ele>502</ele>
        <time>2012-11-24T10:04:52Z</time>
      </trkpt>
      <trkpt lat="46.34326" lon="6.47219">
        <ele>503</ele>
        <time>2012-11-24T10:04:53Z</time>
      </trkpt>
      <trkpt lat="46.34327" lon="6.47222">
        <ele>504</ele>
        <time>2012-11-24T10:04:54Z</time>
      </trkpt>
      <trkpt lat="46.34327" lon="6.47224">
        <ele>505</ele>
        <time>2012-11-24T10:04:55Z</time>
      </trkpt>
      <trkpt lat="46.34328" lon="6.47227">
        <ele>506</ele>
        <time>2012-11-24T10:04:56Z</time>
      </trkpt>
      <trkpt lat="46.34327" lon="6.47229">
        <ele>507</ele>
        <time>2012-11-24T10:04:57Z</time>
      </trkpt>
      <trkpt lat="46.34328" lon="6.47233">
        <ele>508</ele>
        <time>2012-11-24T10:04:58Z</time>
      </trkpt>
      <trkpt lat="46.34328" lon="6.47235">
        <ele>509</ele>
        <time>2012-11-24T10:04:59Z</time>
      </trkpt>
      <trkpt lat="46.34329" lon="6.47239">
        <ele>510</ele>
        <time>2012-11-24T10:05:00Z</time>
      </trkpt>
      <trkpt lat="46.3433" lon="6.47242">
        <ele>510</ele>
        <time>2012-11-24T10:05:01Z</time>
      </trkpt>
      <trkpt lat="46.34332" lon="6.47245">
        <ele>511</ele>
        <time>2012-11-24T10:05:02Z</time>
      </trkpt>
      <trkpt lat="46.34335" lon="6.47248">
        <ele>511</ele>
        <time>2012-11-24T10:05:03Z</time>
      </trkpt>
      <trkpt lat="46.34337" lon="6.47251">
        <ele>512</ele>
        <time>2012-11-24T10:05:04Z</time>
      </trkpt>
      <trkpt lat="46.34338" lon="6.47253">
        <ele>512</ele>
        <time>2012-11-24T10:05:05Z</time>
      </trkpt>
      <trkpt lat="46.34339" lon="6.47256">
        <ele>512</ele>
        <time>2012-11-24T10:05:06Z</time>
      </trkpt>
      <trkpt lat="46.3434" lon="6.4726">
        <ele>512</ele>
        <time>2012-11-24T10:05:07Z</time>
      </trkpt>
      <trkpt lat="46.34341" lon="6.47262">
        <ele>512</ele>
        <time>2012-11-24T10:05:08Z</time>
      </trkpt>
      <trkpt lat="46.34342" lon="6.47264">
        <ele>512</ele>
        <time>2012-11-24T10:05:09Z</time>
      </trkpt>
      <trkpt lat="46.34344" lon="6.47266">
        <ele>512</ele>
        <time>2012-11-24T10:05:10Z</time>
      </trkpt>
      <trkpt lat="46.34345" lon="6.47269">
        <ele>511</ele>
        <time>2012-11-24T10:05:11Z</time>
      </trkpt>
      <trkpt lat="46.34345" lon="6.47272">
        <ele>510</ele>
        <time>2012-11-24T10:05:12Z</time>
      </trkpt>
      <trkpt lat="46.34345" lon="6.47275">
        <ele>509</ele>
        <time>2012-11-24T10:05:13Z</time>
      </trkpt>
      <trkpt lat="46.34346" lon="6.47278">
        <ele>508</ele>
        <time>2012-11-24T10:05:14Z</time>
      </trkpt>
      <trkpt lat="46.34346" lon="6.47282">
        <ele>508</ele>
        <time>2012-11-24T10:05:15Z</time>
      </trkpt>
      <trkpt lat="46.34346" lon="6.47285">
        <ele>508</ele>
        <time>2012-11-24T10:05:16Z</time>
      </trkpt>
      <trkpt lat="46.34347" lon="6.47288">
        <ele>508</ele>
        <time>2012-11-24T10:05:17Z</time>
      </trkpt>
      <trkpt lat="46.34348" lon="6.4729">
        <ele>508</ele>
        <time>2012-11-24T10:05:18Z</time>
      </trkpt>
      <trkpt lat="46.34349" lon="6.47292">
        <ele>508</ele>
        <time>2012-11-24T10:05:19Z</time>
      </trkpt>
      <trkpt lat="46.34349" lon="6.47294">
        <ele>508</ele>
        <time>2012-11-24T10:05:20Z</time>
      </trkpt>
      <trkpt lat="46.34351" lon="6.47296">
        <ele>508</ele>
        <time>2012-11-24T10:05:21Z</time>
      </trkpt>
      <trkpt lat="46.34352" lon="6.473">
        <ele>508</ele>
        <time>2012-11-24T10:05:22Z</time>
      </trkpt>
      <trkpt lat="46.34354" lon="6.47303">
        <ele>508</ele>
        <time>2012-11-24T10:05:23Z</time>
      </trkpt>
      <trkpt lat="46.34355" lon="6.47305">
        <ele>508</ele>
        <time>2012-11-24T10:05:24Z</time>
      </trkpt>
      <trkpt lat="46.34357" lon="6.47307">
        <ele>508</ele>
        <time>2012-11-24T10:05:25Z</time>
      </trkpt>
      <trkpt lat="46.34358" lon="6.47309">
        <ele>508</ele>
        <time>2012-11-24T10:05:27Z</time>
      </trkpt>
      <trkpt lat="46.34359" lon="6.47311">
        <ele>508</ele>
        <time>2012-11-24T10:05:29Z</time>
      </trkpt>
      <trkpt lat="46.34359" lon="6.47312">
        <ele>508</ele>
        <time>2012-11-24T10:05:30Z</time>
      </trkpt>
      <trkpt lat="46.34361" lon="6.47317">
        <ele>508</ele>
        <time>2012-11-24T10:05:32Z</time>
      </trkpt>
      <trkpt lat="46.34363" lon="6.47319">
        <ele>508</ele>
        <time>2012-11-24T10:05:33Z</time>
      </trkpt>
      <trkpt lat="46.34365" lon="6.4732">
        <ele>508</ele>
        <time>2012-11-24T10:05:34Z</time>
      </trkpt>
      <trkpt lat="46.34366" lon="6.47322">
        <ele>508</ele>
        <time>2012-11-24T10:05:35Z</time>
      </trkpt>
      <trkpt lat="46.34374" lon="6.47335">
        <ele>508</ele>
        <time>2012-11-24T10:05:41Z</time>
      </trkpt>
      <trkpt lat="46.34375" lon="6.47336">
        <ele>508</ele>
        <time>2012-11-24T10:05:42Z</time>
      </trkpt>
      <trkpt lat="46.34378" lon="6.47339">
        <ele>508</ele>
        <time>2012-11-24T10:05:43Z</time>
      </trkpt>
      <trkpt lat="46.34377" lon="6.47342">
        <ele>508</ele>
        <time>2012-11-24T10:05:44Z</time>
      </trkpt>
      <trkpt lat="46.34378" lon="6.47345">
        <ele>508</ele>
        <time>2012-11-24T10:05:46Z</time>
      </trkpt>
      <trkpt lat="46.34378" lon="6.47349">
        <ele>509</ele>
        <time>2012-11-24T10:05:47Z</time>
      </trkpt>
      <trkpt lat="46.34379" lon="6.47351">
        <ele>510</ele>
        <time>2012-11-24T10:05:48Z</time>
      </trkpt>
      <trkpt lat="46.3438" lon="6.47353">
        <ele>511</ele>
        <time>2012-11-24T10:05:49Z</time>
      </trkpt>
      <trkpt lat="46.34381" lon="6.47356">
        <ele>512</ele>
        <time>2012-11-24T10:05:50Z</time>
      </trkpt>
      <trkpt lat="46.34384" lon="6.47358">
        <ele>514</ele>
        <time>2012-11-24T10:05:52Z</time>
      </trkpt>
      <trkpt lat="46.34385" lon="6.4736">
        <ele>515</ele>
        <time>2012-11-24T10:05:53Z</time>
      </trkpt>
      <trkpt lat="46.34388" lon="6.47362">
        <ele>518</ele>
        <time>2012-11-24T10:05:56Z</time>
      </trkpt>
      <trkpt lat="46.34389" lon="6.47364">
        <ele>519</ele>
        <time>2012-11-24T10:05:57Z</time>
      </trkpt>
      <trkpt lat="46.34389" lon="6.47366">
        <ele>520</ele>
        <time>2012-11-24T10:05:58Z</time>
      </trkpt>
      <trkpt lat="46.34389" lon="6.47368">
        <ele>520</ele>
        <time>2012-11-24T10:05:59Z</time>
      </trkpt>
      <trkpt lat="46.34389" lon="6.47372">
        <ele>520</ele>
        <time>2012-11-24T10:06:00Z</time>
      </trkpt>
      <trkpt lat="46.3439" lon="6.47375">
        <ele>520</ele>
        <time>2012-11-24T10:06:01Z</time>
      </trkpt>
      <trkpt lat="46.34391" lon="6.47378">
        <ele>520</ele>
        <time>2012-11-24T10:06:02Z</time>
      </trkpt>
      <trkpt lat="46.34392" lon="6.4738">
        <ele>520</ele>
        <time>2012-11-24T10:06:03Z</time>
      </trkpt>
      <trkpt lat="46.34394" lon="6.47382">
        <ele>520</ele>
        <time>2012-11-24T10:06:04Z</time>
      </trkpt>
      <trkpt lat="46.34396" lon="6.47383">
        <ele>520</ele>
        <time>2012-11-24T10:06:05Z</time>
      </trkpt>
      <trkpt lat="46.34398" lon="6.47385">
        <ele>520</ele>
        <time>2012-11-24T10:06:06Z</time>
      </trkpt>
      <trkpt lat="46.344" lon="6.47388">
        <ele>520</ele>
        <time>2012-11-24T10:06:07Z</time>
      </trkpt>
      <trkpt lat="46.34403" lon="6.4739">
        <ele>520</ele>
        <time>2012-11-24T10:06:08Z</time>
      </trkpt>
      <trkpt lat="46.34406" lon="6.47393">
        <ele>520</ele>
        <time>2012-11-24T10:06:09Z</time>
      </trkpt>
      <trkpt lat="46.34408" lon="6.47394">
        <ele>520</ele>
        <time>2012-11-24T10:06:10Z</time>
      </trkpt>
      <trkpt lat="46.34409" lon="6.47395">
        <ele>519</ele>
        <time>2012-11-24T10:06:11Z</time>
      </trkpt>
      <trkpt lat="46.34411" lon="6.47395">
        <ele>517</ele>
        <time>2012-11-24T10:06:13Z</time>
      </trkpt>
      <trkpt lat="46.34412" lon="6.47397">
        <ele>515</ele>
        <time>2012-11-24T10:06:17Z</time>
      </trkpt>
      <trkpt lat="46.34412" lon="6.47395">
        <ele>515</ele>
        <time>2012-11-24T10:06:19Z</time>
      </trkpt>
      <trkpt lat="46.34413" lon="6.47394">
        <ele>515</ele>
        <time>2012-11-24T10:06:23Z</time>
      </trkpt>
      <trkpt lat="46.34415" lon="6.47396">
        <ele>515</ele>
        <time>2012-11-24T10:06:26Z</time>
      </trkpt>
      <trkpt lat="46.34417" lon="6.47395">
        <ele>515</ele>
        <time>2012-11-24T10:06:28Z</time>
      </trkpt>
      <trkpt lat="46.34419" lon="6.47394">
        <ele>515</ele>
        <time>2012-11-24T10:06:30Z</time>
      </trkpt>
      <trkpt lat="46.3442" lon="6.47394">
        <ele>515</ele>
        <time>2012-11-24T10:06:31Z</time>
      </trkpt>
      <trkpt lat="46.34422" lon="6.47395">
        <ele>515</ele>
        <time>2012-11-24T10:06:32Z</time>
      </trkpt>
      <trkpt lat="46.34423" lon="6.47397">
        <ele>515</ele>
        <time>2012-11-24T10:06:33Z</time>
      </trkpt>
      <trkpt lat="46.34426" lon="6.47399">
        <ele>515</ele>
        <time>2012-11-24T10:06:34Z</time>
      </trkpt>
      <trkpt lat="46.34427" lon="6.474">
        <ele>515</ele>
        <time>2012-11-24T10:06:35Z</time>
      </trkpt>
      <trkpt lat="46.3443" lon="6.47401">
        <ele>514</ele>
        <time>2012-11-24T10:06:36Z</time>
      </trkpt>
      <trkpt lat="46.34432" lon="6.47403">
        <ele>513</ele>
        <time>2012-11-24T10:06:37Z</time>
      </trkpt>
      <trkpt lat="46.34433" lon="6.47405">
        <ele>512</ele>
        <time>2012-11-24T10:06:38Z</time>
      </trkpt>
      <trkpt lat="46.34436" lon="6.47407">
        <ele>511</ele>
        <time>2012-11-24T10:06:39Z</time>
      </trkpt>
      <trkpt lat="46.34438" lon="6.4741">
        <ele>511</ele>
        <time>2012-11-24T10:06:40Z</time>
      </trkpt>
      <trkpt lat="46.34439" lon="6.47413">
        <ele>510</ele>
        <time>2012-11-24T10:06:41Z</time>
      </trkpt>
      <trkpt lat="46.34441" lon="6.47415">
        <ele>510</ele>
        <time>2012-11-24T10:06:42Z</time>
      </trkpt>
      <trkpt lat="46.34442" lon="6.47417">
        <ele>510</ele>
        <time>2012-11-24T10:06:43Z</time>
      </trkpt>
      <trkpt lat="46.34444" lon="6.4742">
        <ele>510</ele>
        <time>2012-11-24T10:06:44Z</time>
      </trkpt>
      <trkpt lat="46.34446" lon="6.47422">
        <ele>510</ele>
        <time>2012-11-24T10:06:45Z</time>
      </trkpt>
      <trkpt lat="46.34448" lon="6.47424">
        <ele>510</ele>
        <time>2012-11-24T10:06:46Z</time>
      </trkpt>
      <trkpt lat="46.34449" lon="6.47427">
        <ele>510</ele>
        <time>2012-11-24T10:06:47Z</time>
      </trkpt>
      <trkpt lat="46.34451" lon="6.47429">
        <ele>510</ele>
        <time>2012-11-24T10:06:48Z</time>
      </trkpt>
      <trkpt lat="46.34452" lon="6.4743">
        <ele>510</ele>
        <time>2012-11-24T10:06:49Z</time>
      </trkpt>
      <trkpt lat="46.34454" lon="6.47432">
        <ele>510</ele>
        <time>2012-11-24T10:06:50Z</time>
      </trkpt>
      <trkpt lat="46.34456" lon="6.47433">
        <ele>510</ele>
        <time>2012-11-24T10:06:51Z</time>
      </trkpt>
      <trkpt lat="46.34457" lon="6.47435">
        <ele>511</ele>
        <time>2012-11-24T10:06:52Z</time>
      </trkpt>
      <trkpt lat="46.34459" lon="6.47437">
        <ele>511</ele>
        <time>2012-11-24T10:06:53Z</time>
      </trkpt>
      <trkpt lat="46.3446" lon="6.4744">
        <ele>511</ele>
        <time>2012-11-24T10:06:54Z</time>
      </trkpt>
      <trkpt lat="46.34462" lon="6.47442">
        <ele>511</ele>
        <time>2012-11-24T10:06:55Z</time>
      </trkpt>
      <trkpt lat="46.34464" lon="6.47445">
        <ele>511</ele>
        <time>2012-11-24T10:06:56Z</time>
      </trkpt>
      <trkpt lat="46.34466" lon="6.47447">
        <ele>512</ele>
        <time>2012-11-24T10:06:57Z</time>
      </trkpt>
      <trkpt lat="46.34468" lon="6.4745">
        <ele>513</ele>
        <time>2012-11-24T10:06:58Z</time>
      </trkpt>
      <trkpt lat="46.34471" lon="6.47452">
        <ele>514</ele>
        <time>2012-11-24T10:06:59Z</time>
      </trkpt>
      <trkpt lat="46.34473" lon="6.47454">
        <ele>515</ele>
        <time>2012-11-24T10:07:00Z</time>
      </trkpt>
      <trkpt lat="46.34475" lon="6.47457">
        <ele>516</ele>
        <time>2012-11-24T10:07:00Z</time>
      </trkpt>
      <trkpt lat="46.34477" lon="6.47459">
        <ele>517</ele>
        <time>2012-11-24T10:07:02Z</time>
      </trkpt>
      <trkpt lat="46.34478" lon="6.47461">
        <ele>518</ele>
        <time>2012-11-24T10:07:03Z</time>
      </trkpt>
      <trkpt lat="46.34479" lon="6.47464">
        <ele>519</ele>
        <time>2012-11-24T10:07:04Z</time>
      </trkpt>
      <trkpt lat="46.34481" lon="6.47464">
        <ele>520</ele>
        <time>2012-11-24T10:07:05Z</time>
      </trkpt>
      <trkpt lat="46.34482" lon="6.47467">
        <ele>520</ele>
        <time>2012-11-24T10:07:06Z</time>
      </trkpt>
      <trkpt lat="46.34484" lon="6.47468">
        <ele>520</ele>
        <time>2012-11-24T10:07:07Z</time>
      </trkpt>
      <trkpt lat="46.34486" lon="6.47469">
        <ele>520</ele>
        <time>2012-11-24T10:07:08Z</time>
      </trkpt>
      <trkpt lat="46.34487" lon="6.4747">
        <ele>520</ele>
        <time>2012-11-24T10:07:09Z</time>
      </trkpt>
      <trkpt lat="46.34489" lon="6.47471">
        <ele>519</ele>
        <time>2012-11-24T10:07:10Z</time>
      </trkpt>
      <trkpt lat="46.34492" lon="6.47473">
        <ele>518</ele>
        <time>2012-11-24T10:07:12Z</time>
      </trkpt>
      <trkpt lat="46.34494" lon="6.47474">
        <ele>518</ele>
        <time>2012-11-24T10:07:13Z</time>
      </trkpt>
      <trkpt lat="46.34496" lon="6.47474">
        <ele>518</ele>
        <time>2012-11-24T10:07:14Z</time>
      </trkpt>
      <trkpt lat="46.34499" lon="6.47474">
        <ele>517</ele>
        <time>2012-11-24T10:07:15Z</time>
      </trkpt>
      <trkpt lat="46.34501" lon="6.47475">
        <ele>517</ele>
        <time>2012-11-24T10:07:16Z</time>
      </trkpt>
      <trkpt lat="46.34502" lon="6.47477">
        <ele>516</ele>
        <time>2012-11-24T10:07:17Z</time>
      </trkpt>
      <trkpt lat="46.34504" lon="6.47479">
        <ele>515</ele>
        <time>2012-11-24T10:07:18Z</time>
      </trkpt>
      <trkpt lat="46.34505" lon="6.47481">
        <ele>514</ele>
        <time>2012-11-24T10:07:19Z</time>
      </trkpt>
      <trkpt lat="46.34506" lon="6.47483">
        <ele>513</ele>
        <time>2012-11-24T10:07:20Z</time>
      </trkpt>
      <trkpt lat="46.34507" lon="6.47485">
        <ele>512</ele>
        <time>2012-11-24T10:07:21Z</time>
      </trkpt>
      <trkpt lat="46.34507" lon="6.47488">
        <ele>511</ele>
        <time>2012-11-24T10:07:22Z</time>
      </trkpt>
      <trkpt lat="46.34505" lon="6.47489">
        <ele>510</ele>
        <time>2012-11-24T10:07:23Z</time>
      </trkpt>
      <trkpt lat="46.34504" lon="6.47489">
        <ele>510</ele>
        <time>2012-11-24T10:07:24Z</time>
      </trkpt>
      <trkpt lat="46.34502" lon="6.4749">
        <ele>510</ele>
        <time>2012-11-24T10:07:25Z</time>
      </trkpt>
      <trkpt lat="46.34499" lon="6.4749">
        <ele>510</ele>
        <time>2012-11-24T10:07:26Z</time>
      </trkpt>
      <trkpt lat="46.34498" lon="6.47491">
        <ele>510</ele>
        <time>2012-11-24T10:07:27Z</time>
      </trkpt>
      <trkpt lat="46.34496" lon="6.47491">
        <ele>510</ele>
        <time>2012-11-24T10:07:28Z</time>
      </trkpt>
      <trkpt lat="46.34495" lon="6.47494">
        <ele>510</ele>
        <time>2012-11-24T10:07:30Z</time>
      </trkpt>
      <trkpt lat="46.34494" lon="6.47496">
        <ele>510</ele>
        <time>2012-11-24T10:07:31Z</time>
      </trkpt>
      <trkpt lat="46.34493" lon="6.47498">
        <ele>510</ele>
        <time>2012-11-24T10:07:32Z</time>
      </trkpt>
      <trkpt lat="46.34492" lon="6.47501">
        <ele>510</ele>
        <time>2012-11-24T10:07:33Z</time>
      </trkpt>
      <trkpt lat="46.3449" lon="6.47502">
        <ele>510</ele>
        <time>2012-11-24T10:07:34Z</time>
      </trkpt>
      <trkpt lat="46.34488" lon="6.47503">
        <ele>510</ele>
        <time>2012-11-24T10:07:36Z</time>
      </trkpt>
      <trkpt lat="46.34485" lon="6.47503">
        <ele>510</ele>
        <time>2012-11-24T10:07:37Z</time>
      </trkpt>
      <trkpt lat="46.34483" lon="6.47504">
        <ele>510</ele>
        <time>2012-11-24T10:07:38Z</time>
      </trkpt>
      <trkpt lat="46.34482" lon="6.47504">
        <ele>510</ele>
        <time>2012-11-24T10:07:39Z</time>
      </trkpt>
      <trkpt lat="46.3448" lon="6.47505">
        <ele>510</ele>
        <time>2012-11-24T10:07:41Z</time>
      </trkpt>
      <trkpt lat="46.3448" lon="6.47507">
        <ele>511</ele>
        <time>2012-11-24T10:07:42Z</time>
      </trkpt>
      <trkpt lat="46.34478" lon="6.47508">
        <ele>512</ele>
        <time>2012-11-24T10:07:43Z</time>
      </trkpt>
      <trkpt lat="46.34476" lon="6.47509">
        <ele>513</ele>
        <time>2012-11-24T10:07:44Z</time>
      </trkpt>
      <trkpt lat="46.34475" lon="6.47511">
        <ele>514</ele>
        <time>2012-11-24T10:07:45Z</time>
      </trkpt>
      <trkpt lat="46.34473" lon="6.47514">
        <ele>516</ele>
        <time>2012-11-24T10:07:47Z</time>
      </trkpt>
      <trkpt lat="46.34472" lon="6.47516">
        <ele>517</ele>
        <time>2012-11-24T10:07:48Z</time>
      </trkpt>
      <trkpt lat="46.3447" lon="6.47518">
        <ele>519</ele>
        <time>2012-11-24T10:07:50Z</time>
      </trkpt>
      <trkpt lat="46.34469" lon="6.4752">
        <ele>520</ele>
        <time>2012-11-24T10:07:51Z</time>
      </trkpt>
      <trkpt lat="46.3447" lon="6.47524">
        <ele>521</ele>
        <time>2012-11-24T10:07:52Z</time>
      </trkpt>
      <trkpt lat="46.3447" lon="6.47527">
        <ele>522</ele>
        <time>2012-11-24T10:07:53Z</time>
      </trkpt>
      <trkpt lat="46.34469" lon="6.47528">
        <ele>523</ele>
        <time>2012-11-24T10:07:54Z</time>
      </trkpt>
      <trkpt lat="46.34468" lon="6.4753">
        <ele>526</ele>
        <time>2012-11-24T10:07:57Z</time>
      </trkpt>
      <trkpt lat="46.34466" lon="6.47531">
        <ele>528</ele>
        <time>2012-11-24T10:07:59Z</time>
      </trkpt>
      <trkpt lat="46.34465" lon="6.47532">
        <ele>529</ele>
        <time>2012-11-24T10:08:00Z</time>
      </trkpt>
      <trkpt lat="46.34464" lon="6.47534">
        <ele>530</ele>
        <time>2012-11-24T10:08:01Z</time>
      </trkpt>
      <trkpt lat="46.34463" lon="6.47536">
        <ele>531</ele>
        <time>2012-11-24T10:08:02Z</time>
      </trkpt>
      <trkpt lat="46.34462" lon="6.47539">
        <ele>533</ele>
        <time>2012-11-24T10:08:04Z</time>
      </trkpt>
      <trkpt lat="46.3446" lon="6.47539">
        <ele>534</ele>
        <time>2012-11-24T10:08:05Z</time>
      </trkpt>
      <trkpt lat="46.34458" lon="6.47539">
        <ele>534</ele>
        <time>2012-11-24T10:08:06Z</time>
      </trkpt>
      <trkpt lat="46.34457" lon="6.47539">
        <ele>534</ele>
        <time>2012-11-24T10:08:07Z</time>
      </trkpt>
      <trkpt lat="46.34454" lon="6.4754">
        <ele>534</ele>
        <time>2012-11-24T10:08:08Z</time>
      </trkpt>
      <trkpt lat="46.34451" lon="6.4754">
        <ele>534</ele>
        <time>2012-11-24T10:08:09Z</time>
      </trkpt>
      <trkpt lat="46.34449" lon="6.4754">
        <ele>534</ele>
        <time>2012-11-24T10:08:10Z</time>
      </trkpt>
      <trkpt lat="46.34447" lon="6.47541">
        <ele>534</ele>
        <time>2012-11-24T10:08:11Z</time>
      </trkpt>
      <trkpt lat="46.34446" lon="6.47543">
        <ele>534</ele>
        <time>2012-11-24T10:08:13Z</time>
      </trkpt>
      <trkpt lat="46.34446" lon="6.47545">
        <ele>534</ele>
        <time>2012-11-24T10:08:14Z</time>
      </trkpt>
      <trkpt lat="46.34445" lon="6.47547">
        <ele>534</ele>
        <time>2012-11-24T10:08:15Z</time>
      </trkpt>
      <trkpt lat="46.34443" lon="6.47549">
        <ele>535</ele>
        <time>2012-11-24T10:08:16Z</time>
      </trkpt>
      <trkpt lat="46.34442" lon="6.47551">
        <ele>536</ele>
        <time>2012-11-24T10:08:17Z</time>
      </trkpt>
      <trkpt lat="46.34441" lon="6.47552">
        <ele>537</ele>
        <time>2012-11-24T10:08:18Z</time>
      </trkpt>
      <trkpt lat="46.34439" lon="6.47553">
        <ele>538</ele>
        <time>2012-11-24T10:08:19Z</time>
      </trkpt>
      <trkpt lat="46.34438" lon="6.47553">
        <ele>539</ele>
        <time>2012-11-24T10:08:20Z</time>
      </trkpt>
      <trkpt lat="46.34436" lon="6.47554">
        <ele>539</ele>
        <time>2012-11-24T10:08:21Z</time>
      </trkpt>
      <trkpt lat="46.34435" lon="6.47556">
        <ele>539</ele>
        <time>2012-11-24T10:08:22Z</time>
      </trkpt>
      <trkpt lat="46.34433" lon="6.47555">
        <ele>539</ele>
        <time>2012-11-24T10:08:23Z</time>
      </trkpt>
      <trkpt lat="46.34431" lon="6.47553">
        <ele>539</ele>
        <time>2012-11-24T10:08:24Z</time>
      </trkpt>
      <trkpt lat="46.3443" lon="6.47552">
        <ele>539</ele>
        <time>2012-11-24T10:08:25Z</time>
      </trkpt>
      <trkpt lat="46.34427" lon="6.47551">
        <ele>539</ele>
        <time>2012-11-24T10:08:26Z</time>
      </trkpt>
      <trkpt lat="46.34426" lon="6.47551">
        <ele>539</ele>
        <time>2012-11-24T10:08:27Z</time>
      </trkpt>
      <trkpt lat="46.34424" lon="6.47551">
        <ele>539</ele>
        <time>2012-11-24T10:08:28Z</time>
      </trkpt>
      <trkpt lat="46.34422" lon="6.47552">
        <ele>539</ele>
        <time>2012-11-24T10:08:29Z</time>
      </trkpt>
      <trkpt lat="46.34421" lon="6.47553">
        <ele>538</ele>
        <time>2012-11-24T10:08:30Z</time>
      </trkpt>
      <trkpt lat="46.34419" lon="6.47555">
        <ele>537</ele>
        <time>2012-11-24T10:08:32Z</time>
      </trkpt>
      <trkpt lat="46.34418" lon="6.47557">
        <ele>536</ele>
        <time>2012-11-24T10:08:33Z</time>
      </trkpt>
      <trkpt lat="46.34417" lon="6.47559">
        <ele>536</ele>
        <time>2012-11-24T10:08:34Z</time>
      </trkpt>
      <trkpt lat="46.34416" lon="6.47563">
        <ele>535</ele>
        <time>2012-11-24T10:08:35Z</time>
      </trkpt>
      <trkpt lat="46.34417" lon="6.47566">
        <ele>535</ele>
        <time>2012-11-24T10:08:36Z</time>
      </trkpt>
      <trkpt lat="46.34417" lon="6.47569">
        <ele>535</ele>
        <time>2012-11-24T10:08:37Z</time>
      </trkpt>
      <trkpt lat="46.34417" lon="6.47575">
        <ele>535</ele>
        <time>2012-11-24T10:08:38Z</time>
      </trkpt>
      <trkpt lat="46.34417" lon="6.47579">
        <ele>535</ele>
        <time>2012-11-24T10:08:39Z</time>
      </trkpt>
      <trkpt lat="46.34418" lon="6.47583">
        <ele>535</ele>
        <time>2012-11-24T10:08:40Z</time>
      </trkpt>
      <trkpt lat="46.34418" lon="6.47586">
        <ele>536</ele>
        <time>2012-11-24T10:08:41Z</time>
      </trkpt>
      <trkpt lat="46.34419" lon="6.47589">
        <ele>537</ele>
        <time>2012-11-24T10:08:42Z</time>
      </trkpt>
      <trkpt lat="46.34419" lon="6.47591">
        <ele>538</ele>
        <time>2012-11-24T10:08:43Z</time>
      </trkpt>
      <trkpt lat="46.34418" lon="6.47593">
        <ele>539</ele>
        <time>2012-11-24T10:08:44Z</time>
      </trkpt>
      <trkpt lat="46.34417" lon="6.47595">
        <ele>540</ele>
        <time>2012-11-24T10:08:45Z</time>
      </trkpt>
      <trkpt lat="46.34415" lon="6.47595">
        <ele>541</ele>
        <time>2012-11-24T10:08:46Z</time>
      </trkpt>
      <trkpt lat="46.34412" lon="6.47596">
        <ele>542</ele>
        <time>2012-11-24T10:08:47Z</time>
      </trkpt>
      <trkpt lat="46.34409" lon="6.47596">
        <ele>543</ele>
        <time>2012-11-24T10:08:48Z</time>
      </trkpt>
      <trkpt lat="46.34406" lon="6.47597">
        <ele>544</ele>
        <time>2012-11-24T10:08:49Z</time>
      </trkpt>
      <trkpt lat="46.34404" lon="6.47598">
        <ele>545</ele>
        <time>2012-11-24T10:08:50Z</time>
      </trkpt>
      <trkpt lat="46.34402" lon="6.47598">
        <ele>546</ele>
        <time>2012-11-24T10:08:51Z</time>
      </trkpt>
      <trkpt lat="46.34401" lon="6.47598">
        <ele>547</ele>
        <time>2012-11-24T10:08:52Z</time>
      </trkpt>
      <trkpt lat="46.34399" lon="6.476">
        <ele>547</ele>
        <time>2012-11-24T10:08:53Z</time>
      </trkpt>
      <trkpt lat="46.34397" lon="6.476">
        <ele>547</ele>
        <time>2012-11-24T10:08:54Z</time>
      </trkpt>
      <trkpt lat="46.34395" lon="6.47602">
        <ele>547</ele>
        <time>2012-11-24T10:08:55Z</time>
      </trkpt>
      <trkpt lat="46.34393" lon="6.47603">
        <ele>547</ele>
        <time>2012-11-24T10:08:56Z</time>
      </trkpt>
      <trkpt lat="46.3439" lon="6.47603">
        <ele>547</ele>
        <time>2012-11-24T10:08:57Z</time>
      </trkpt>
      <trkpt lat="46.34387" lon="6.47603">
        <ele>547</ele>
        <time>2012-11-24T10:08:58Z</time>
      </trkpt>
      <trkpt lat="46.34384" lon="6.47603">
        <ele>547</ele>
        <time>2012-11-24T10:08:59Z</time>
      </trkpt>
      <trkpt lat="46.3438" lon="6.47603">
        <ele>546</ele>
        <time>2012-11-24T10:09:00Z</time>
      </trkpt>
      <trkpt lat="46.34378" lon="6.47601">
        <ele>545</ele>
        <time>2012-11-24T10:09:01Z</time>
      </trkpt>
      <trkpt lat="46.34375" lon="6.47601">
        <ele>544</ele>
        <time>2012-11-24T10:09:02Z</time>
      </trkpt>
      <trkpt lat="46.34372" lon="6.476">
        <ele>543</ele>
        <time>2012-11-24T10:09:03Z</time>
      </trkpt>
      <trkpt lat="46.34368" lon="6.47599">
        <ele>542</ele>
        <time>2012-11-24T10:09:04Z</time>
      </trkpt>
      <trkpt lat="46.34365" lon="6.47599">
        <ele>541</ele>
        <time>2012-11-24T10:09:05Z</time>
      </trkpt>
      <trkpt lat="46.34363" lon="6.476">
        <ele>540</ele>
        <time>2012-11-24T10:09:06Z</time>
      </trkpt>
      <trkpt lat="46.3436" lon="6.47601">
        <ele>539</ele>
        <time>2012-11-24T10:09:07Z</time>
      </trkpt>
      <trkpt lat="46.34357" lon="6.47601">
        <ele>538</ele>
        <time>2012-11-24T10:09:08Z</time>
      </trkpt>
      <trkpt lat="46.34354" lon="6.47601">
        <ele>537</ele>
        <time>2012-11-24T10:09:09Z</time>
      </trkpt>
      <trkpt lat="46.34351" lon="6.47601">
        <ele>536</ele>
        <time>2012-11-24T10:09:10Z</time>
      </trkpt>
      <trkpt lat="46.34349" lon="6.47602">
        <ele>536</ele>
        <time>2012-11-24T10:09:11Z</time>
      </trkpt>
      <trkpt lat="46.34346" lon="6.47603">
        <ele>535</ele>
        <time>2012-11-24T10:09:12Z</time>
      </trkpt>
      <trkpt lat="46.34344" lon="6.47603">
        <ele>534</ele>
        <time>2012-11-24T10:09:13Z</time>
      </trkpt>
      <trkpt lat="46.34341" lon="6.47603">
        <ele>534</ele>
        <time>2012-11-24T10:09:14Z</time>
      </trkpt>
      <trkpt lat="46.34339" lon="6.47604">
        <ele>533</ele>
        <time>2012-11-24T10:09:15Z</time>
      </trkpt>
      <trkpt lat="46.34336" lon="6.47604">
        <ele>533</ele>
        <time>2012-11-24T10:09:16Z</time>
      </trkpt>
      <trkpt lat="46.34333" lon="6.47604">
        <ele>532</ele>
        <time>2012-11-24T10:09:17Z</time>
      </trkpt>
      <trkpt lat="46.3433" lon="6.47603">
        <ele>531</ele>
        <time>2012-11-24T10:09:18Z</time>
      </trkpt>
      <trkpt lat="46.34326" lon="6.47603">
        <ele>530</ele>
        <time>2012-11-24T10:09:19Z</time>
      </trkpt>
      <trkpt lat="46.34324" lon="6.47603">
        <ele>529</ele>
        <time>2012-11-24T10:09:20Z</time>
      </trkpt>
      <trkpt lat="46.34321" lon="6.47604">
        <ele>528</ele>
        <time>2012-11-24T10:09:21Z</time>
      </trkpt>
      <trkpt lat="46.3432" lon="6.47605">
        <ele>527</ele>
        <time>2012-11-24T10:09:22Z</time>
      </trkpt>
      <trkpt lat="46.34316" lon="6.47605">
        <ele>526</ele>
        <time>2012-11-24T10:09:23Z</time>
      </trkpt>
      <trkpt lat="46.34313" lon="6.47606">
        <ele>525</ele>
        <time>2012-11-24T10:09:24Z</time>
      </trkpt>
      <trkpt lat="46.3431" lon="6.47607">
        <ele>524</ele>
        <time>2012-11-24T10:09:25Z</time>
      </trkpt>
      <trkpt lat="46.34307" lon="6.47608">
        <ele>523</ele>
        <time>2012-11-24T10:09:26Z</time>
      </trkpt>
      <trkpt lat="46.34304" lon="6.47608">
        <ele>522</ele>
        <time>2012-11-24T10:09:27Z</time>
      </trkpt>
      <trkpt lat="46.34302" lon="6.4761">
        <ele>521</ele>
        <time>2012-11-24T10:09:28Z</time>
      </trkpt>
      <trkpt lat="46.34301" lon="6.47612">
        <ele>520</ele>
        <time>2012-11-24T10:09:29Z</time>
      </trkpt>
      <trkpt lat="46.34299" lon="6.47614">
        <ele>519</ele>
        <time>2012-11-24T10:09:30Z</time>
      </trkpt>
      <trkpt lat="46.34297" lon="6.47616">
        <ele>518</ele>
        <time>2012-11-24T10:09:31Z</time>
      </trkpt>
      <trkpt lat="46.34295" lon="6.4762">
        <ele>517</ele>
        <time>2012-11-24T10:09:32Z</time>
      </trkpt>
      <trkpt lat="46.34294" lon="6.47623">
        <ele>517</ele>
        <time>2012-11-24T10:09:33Z</time>
      </trkpt>
      <trkpt lat="46.34292" lon="6.47625">
        <ele>517</ele>
        <time>2012-11-24T10:09:34Z</time>
      </trkpt>
      <trkpt lat="46.34291" lon="6.47627">
        <ele>517</ele>
        <time>2012-11-24T10:09:35Z</time>
      </trkpt>
      <trkpt lat="46.34289" lon="6.47629">
        <ele>518</ele>
        <time>2012-11-24T10:09:36Z</time>
      </trkpt>
      <trkpt lat="46.34286" lon="6.4763">
        <ele>519</ele>
        <time>2012-11-24T10:09:37Z</time>
      </trkpt>
      <trkpt lat="46.34284" lon="6.47633">
        <ele>520</ele>
        <time>2012-11-24T10:09:38Z</time>
      </trkpt>
      <trkpt lat="46.34283" lon="6.47635">
        <ele>521</ele>
        <time>2012-11-24T10:09:39Z</time>
      </trkpt>
      <trkpt lat="46.34281" lon="6.47637">
        <ele>522</ele>
        <time>2012-11-24T10:09:40Z</time>
      </trkpt>
      <trkpt lat="46.3428" lon="6.47639">
        <ele>523</ele>
        <time>2012-11-24T10:09:41Z</time>
      </trkpt>
      <trkpt lat="46.34277" lon="6.47641">
        <ele>524</ele>
        <time>2012-11-24T10:09:42Z</time>
      </trkpt>
      <trkpt lat="46.34274" lon="6.47644">
        <ele>525</ele>
        <time>2012-11-24T10:09:43Z</time>
      </trkpt>
      <trkpt lat="46.34272" lon="6.47645">
        <ele>526</ele>
        <time>2012-11-24T10:09:44Z</time>
      </trkpt>
      <trkpt lat="46.3427" lon="6.47647">
        <ele>527</ele>
        <time>2012-11-24T10:09:45Z</time>
      </trkpt>
      <trkpt lat="46.34268" lon="6.47648">
        <ele>528</ele>
        <time>2012-11-24T10:09:46Z</time>
      </trkpt>
      <trkpt lat="46.34266" lon="6.47652">
        <ele>529</ele>
        <time>2012-11-24T10:09:47Z</time>
      </trkpt>
      <trkpt lat="46.34265" lon="6.47655">
        <ele>530</ele>
        <time>2012-11-24T10:09:48Z</time>
      </trkpt>
      <trkpt lat="46.34264" lon="6.47658">
        <ele>531</ele>
        <time>2012-11-24T10:09:49Z</time>
      </trkpt>
      <trkpt lat="46.34262" lon="6.47661">
        <ele>532</ele>
        <time>2012-11-24T10:09:50Z</time>
      </trkpt>
      <trkpt lat="46.34261" lon="6.47664">
        <ele>533</ele>
        <time>2012-11-24T10:09:51Z</time>
      </trkpt>
      <trkpt lat="46.34259" lon="6.47667">
        <ele>534</ele>
        <time>2012-11-24T10:09:52Z</time>
      </trkpt>
      <trkpt lat="46.34258" lon="6.47669">
        <ele>535</ele>
        <time>2012-11-24T10:09:53Z</time>
      </trkpt>
      <trkpt lat="46.34257" lon="6.47672">
        <ele>536</ele>
        <time>2012-11-24T10:09:54Z</time>
      </trkpt>
      <trkpt lat="46.34256" lon="6.47675">
        <ele>537</ele>
        <time>2012-11-24T10:09:55Z</time>
      </trkpt>
      <trkpt lat="46.34255" lon="6.47678">
        <ele>538</ele>
        <time>2012-11-24T10:09:56Z</time>
      </trkpt>
      <trkpt lat="46.34254" lon="6.47681">
        <ele>538</ele>
        <time>2012-11-24T10:09:57Z</time>
      </trkpt>
      <trkpt lat="46.34252" lon="6.47683">
        <ele>539</ele>
        <time>2012-11-24T10:09:58Z</time>
      </trkpt>
      <trkpt lat="46.3425" lon="6.47684">
        <ele>539</ele>
        <time>2012-11-24T10:09:59Z</time>
      </trkpt>
      <trkpt lat="46.34247" lon="6.47685">
        <ele>539</ele>
        <time>2012-11-24T10:10:00Z</time>
      </trkpt>
      <trkpt lat="46.34244" lon="6.47686">
        <ele>539</ele>
        <time>2012-11-24T10:10:01Z</time>
      </trkpt>
      <trkpt lat="46.34241" lon="6.47688">
        <ele>539</ele>
        <time>2012-11-24T10:10:02Z</time>
      </trkpt>
      <trkpt lat="46.3424" lon="6.4769">
        <ele>539</ele>
        <time>2012-11-24T10:10:03Z</time>
      </trkpt>
      <trkpt lat="46.34238" lon="6.47692">
        <ele>539</ele>
        <time>2012-11-24T10:10:04Z</time>
      </trkpt>
      <trkpt lat="46.34236" lon="6.47695">
        <ele>539</ele>
        <time>2012-11-24T10:10:05Z</time>
      </trkpt>
      <trkpt lat="46.34233" lon="6.47696">
        <ele>539</ele>
        <time>2012-11-24T10:10:06Z</time>
      </trkpt>
      <trkpt lat="46.3423" lon="6.47696">
        <ele>539</ele>
        <time>2012-11-24T10:10:07Z</time>
      </trkpt>
      <trkpt lat="46.34227" lon="6.47697">
        <ele>539</ele>
        <time>2012-11-24T10:10:08Z</time>
      </trkpt>
      <trkpt lat="46.34224" lon="6.47697">
        <ele>539</ele>
        <time>2012-11-24T10:10:09Z</time>
      </trkpt>
      <trkpt lat="46.34222" lon="6.47698">
        <ele>539</ele>
        <time>2012-11-24T10:10:10Z</time>
      </trkpt>
      <trkpt lat="46.3422" lon="6.47699">
        <ele>539</ele>
        <time>2012-11-24T10:10:11Z</time>
      </trkpt>
      <trkpt lat="46.34218" lon="6.477">
        <ele>539</ele>
        <time>2012-11-24T10:10:12Z</time>
      </trkpt>
      <trkpt lat="46.34217" lon="6.47702">
        <ele>539</ele>
        <time>2012-11-24T10:10:13Z</time>
      </trkpt>
      <trkpt lat="46.34214" lon="6.47702">
        <ele>539</ele>
        <time>2012-11-24T10:10:14Z</time>
      </trkpt>
      <trkpt lat="46.34211" lon="6.47703">
        <ele>539</ele>
        <time>2012-11-24T10:10:15Z</time>
      </trkpt>
      <trkpt lat="46.34209" lon="6.47703">
        <ele>539</ele>
        <time>2012-11-24T10:10:16Z</time>
      </trkpt>
      <trkpt lat="46.34207" lon="6.47703">
        <ele>539</ele>
        <time>2012-11-24T10:10:17Z</time>
      </trkpt>
      <trkpt lat="46.34206" lon="6.47705">
        <ele>539</ele>
        <time>2012-11-24T10:10:18Z</time>
      </trkpt>
      <trkpt lat="46.34204" lon="6.47705">
        <ele>539</ele>
        <time>2012-11-24T10:10:19Z</time>
      </trkpt>
      <trkpt lat="46.34202" lon="6.47706">
        <ele>539</ele>
        <time>2012-11-24T10:10:20Z</time>
      </trkpt>
      <trkpt lat="46.342" lon="6.47707">
        <ele>539</ele>
        <time>2012-11-24T10:10:21Z</time>
      </trkpt>
      <trkpt lat="46.34197" lon="6.47706">
        <ele>539</ele>
        <time>2012-11-24T10:10:22Z</time>
      </trkpt>
      <trkpt lat="46.34195" lon="6.47707">
        <ele>539</ele>
        <time>2012-11-24T10:10:23Z</time>
      </trkpt>
      <trkpt lat="46.34193" lon="6.47707">
        <ele>539</ele>
        <time>2012-11-24T10:10:24Z</time>
      </trkpt>
      <trkpt lat="46.3419" lon="6.47707">
        <ele>539</ele>
        <time>2012-11-24T10:10:25Z</time>
      </trkpt>
      <trkpt lat="46.34189" lon="6.47708">
        <ele>539</ele>
        <time>2012-11-24T10:10:26Z</time>
      </trkpt>
      <trkpt lat="46.34187" lon="6.47709">
        <ele>539</ele>
        <time>2012-11-24T10:10:27Z</time>
      </trkpt>
      <trkpt lat="46.34185" lon="6.4771">
        <ele>539</ele>
        <time>2012-11-24T10:10:28Z</time>
      </trkpt>
      <trkpt lat="46.34183" lon="6.4771">
        <ele>539</ele>
        <time>2012-11-24T10:10:29Z</time>
      </trkpt>
      <trkpt lat="46.34181" lon="6.47712">
        <ele>539</ele>
        <time>2012-11-24T10:10:30Z</time>
      </trkpt>
      <trkpt lat="46.34179" lon="6.47713">
        <ele>539</ele>
        <time>2012-11-24T10:10:31Z</time>
      </trkpt>
      <trkpt lat="46.34177" lon="6.47714">
        <ele>539</ele>
        <time>2012-11-24T10:10:32Z</time>
      </trkpt>
      <trkpt lat="46.34175" lon="6.47715">
        <ele>539</ele>
        <time>2012-11-24T10:10:33Z</time>
      </trkpt>
      <trkpt lat="46.34172" lon="6.47715">
        <ele>539</ele>
        <time>2012-11-24T10:10:34Z</time>
      </trkpt>
      <trkpt lat="46.3417" lon="6.47716">
        <ele>539</ele>
        <time>2012-11-24T10:10:35Z</time>
      </trkpt>
      <trkpt lat="46.34168" lon="6.47717">
        <ele>539</ele>
        <time>2012-11-24T10:10:35Z</time>
      </trkpt>
      <trkpt lat="46.34165" lon="6.47718">
        <ele>539</ele>
        <time>2012-11-24T10:10:37Z</time>
      </trkpt>
      <trkpt lat="46.34163" lon="6.47719">
        <ele>539</ele>
        <time>2012-11-24T10:10:38Z</time>
      </trkpt>
      <trkpt lat="46.34161" lon="6.47721">
        <ele>539</ele>
        <time>2012-11-24T10:10:39Z</time>
      </trkpt>
      <trkpt lat="46.34159" lon="6.47723">
        <ele>539</ele>
        <time>2012-11-24T10:10:40Z</time>
      </trkpt>
      <trkpt lat="46.34158" lon="6.47725">
        <ele>539</ele>
        <time>2012-11-24T10:10:40Z</time>
      </trkpt>
      <trkpt lat="46.34156" lon="6.47727">
        <ele>539</ele>
        <time>2012-11-24T10:10:42Z</time>
      </trkpt>
      <trkpt lat="46.34154" lon="6.4773">
        <ele>539</ele>
        <time>2012-11-24T10:10:43Z</time>
      </trkpt>
      <trkpt lat="46.34152" lon="6.47732">
        <ele>539</ele>
        <time>2012-11-24T10:10:44Z</time>
      </trkpt>
      <trkpt lat="46.34151" lon="6.47734">
        <ele>539</ele>
        <time>2012-11-24T10:10:45Z</time>
      </trkpt>
      <trkpt lat="46.34149" lon="6.47736">
        <ele>539</ele>
        <time>2012-11-24T10:10:46Z</time>
      </trkpt>
      <trkpt lat="46.34147" lon="6.47737">
        <ele>539</ele>
        <time>2012-11-24T10:10:47Z</time>
      </trkpt>
      <trkpt lat="46.34145" lon="6.47738">
        <ele>539</ele>
        <time>2012-11-24T10:10:48Z</time>
      </trkpt>
      <trkpt lat="46.34143" lon="6.4774">
        <ele>539</ele>
        <time>2012-11-24T10:10:49Z</time>
      </trkpt>
      <trkpt lat="46.34141" lon="6.47742">
        <ele>539</ele>
        <time>2012-11-24T10:10:50Z</time>
      </trkpt>
      <trkpt lat="46.3414" lon="6.47744">
        <ele>539</ele>
        <time>2012-11-24T10:10:51Z</time>
      </trkpt>
      <trkpt lat="46.34138" lon="6.47746">
        <ele>539</ele>
        <time>2012-11-24T10:10:52Z</time>
      </trkpt>
      <trkpt lat="46.34136" lon="6.47748">
        <ele>539</ele>
        <time>2012-11-24T10:10:53Z</time>
      </trkpt>
      <trkpt lat="46.34134" lon="6.4775">
        <ele>539</ele>
        <time>2012-11-24T10:10:54Z</time>
      </trkpt>
      <trkpt lat="46.34132" lon="6.47752">
        <ele>539</ele>
        <time>2012-11-24T10:10:55Z</time>
      </trkpt>
      <trkpt lat="46.3413" lon="6.47754">
        <ele>539</ele>
        <time>2012-11-24T10:10:56Z</time>
      </trkpt>
      <trkpt lat="46.34129" lon="6.47756">
        <ele>539</ele>
        <time>2012-11-24T10:10:57Z</time>
      </trkpt>
      <trkpt lat="46.34127" lon="6.47759">
        <ele>539</ele>
        <time>2012-11-24T10:10:58Z</time>
      </trkpt>
      <trkpt lat="46.34126" lon="6.47761">
        <ele>539</ele>
        <time>2012-11-24T10:10:59Z</time>
      </trkpt>
      <trkpt lat="46.34124" lon="6.47764">
        <ele>539</ele>
        <time>2012-11-24T10:11:00Z</time>
      </trkpt>
      <trkpt lat="46.34123" lon="6.47767">
        <ele>539</ele>
        <time>2012-11-24T10:11:01Z</time>
      </trkpt>
      <trkpt lat="46.34123" lon="6.47771">
        <ele>540</ele>
        <time>2012-11-24T10:11:02Z</time>
      </trkpt>
      <trkpt lat="46.34123" lon="6.47774">
        <ele>540</ele>
        <time>2012-11-24T10:11:03Z</time>
      </trkpt>
      <trkpt lat="46.34124" lon="6.47778">
        <ele>540</ele>
        <time>2012-11-24T10:11:04Z</time>
      </trkpt>
      <trkpt lat="46.34124" lon="6.47782">
        <ele>540</ele>
        <time>2012-11-24T10:11:05Z</time>
      </trkpt>
      <trkpt lat="46.34124" lon="6.47785">
        <ele>540</ele>
        <time>2012-11-24T10:11:06Z</time>
      </trkpt>
      <trkpt lat="46.34125" lon="6.47788">
        <ele>540</ele>
        <time>2012-11-24T10:11:07Z</time>
      </trkpt>
      <trkpt lat="46.34126" lon="6.47792">
        <ele>540</ele>
        <time>2012-11-24T10:11:08Z</time>
      </trkpt>
      <trkpt lat="46.34126" lon="6.47795">
        <ele>540</ele>
        <time>2012-11-24T10:11:09Z</time>
      </trkpt>
      <trkpt lat="46.34126" lon="6.47798">
        <ele>540</ele>
        <time>2012-11-24T10:11:10Z</time>
      </trkpt>
      <trkpt lat="46.34127" lon="6.47801">
        <ele>540</ele>
        <time>2012-11-24T10:11:11Z</time>
      </trkpt>
      <trkpt lat="46.34127" lon="6.47804">
        <ele>540</ele>
        <time>2012-11-24T10:11:12Z</time>
      </trkpt>
      <trkpt lat="46.34128" lon="6.47808">
        <ele>540</ele>
        <time>2012-11-24T10:11:13Z</time>
      </trkpt>
      <trkpt lat="46.34128" lon="6.4781">
        <ele>540</ele>
        <time>2012-11-24T10:11:14Z</time>
      </trkpt>
      <trkpt lat="46.34129" lon="6.47812">
        <ele>540</ele>
        <time>2012-11-24T10:11:15Z</time>
      </trkpt>
      <trkpt lat="46.34129" lon="6.47814">
        <ele>541</ele>
        <time>2012-11-24T10:11:16Z</time>
      </trkpt>
      <trkpt lat="46.3413" lon="6.47816">
        <ele>541</ele>
        <time>2012-11-24T10:11:17Z</time>
      </trkpt>
      <trkpt lat="46.3413" lon="6.47818">
        <ele>541</ele>
        <time>2012-11-24T10:11:18Z</time>
      </trkpt>
      <trkpt lat="46.34131" lon="6.4782">
        <ele>541</ele>
        <time>2012-11-24T10:11:19Z</time>
      </trkpt>
      <trkpt lat="46.34132" lon="6.47822">
        <ele>542</ele>
        <time>2012-11-24T10:11:20Z</time>
      </trkpt>
      <trkpt lat="46.34133" lon="6.47824">
        <ele>542</ele>
        <time>2012-11-24T10:11:21Z</time>
      </trkpt>
      <trkpt lat="46.34134" lon="6.47826">
        <ele>542</ele>
        <time>2012-11-24T10:11:22Z</time>
      </trkpt>
      <trkpt lat="46.34135" lon="6.47828">
        <ele>542</ele>
        <time>2012-11-24T10:11:23Z</time>
      </trkpt>
      <trkpt lat="46.34137" lon="6.4783">
        <ele>542</ele>
        <time>2012-11-24T10:11:24Z</time>
      </trkpt>
      <trkpt lat="46.34138" lon="6.4783">
        <ele>542</ele>
        <time>2012-11-24T10:11:25Z</time>
      </trkpt>
      <trkpt lat="46.34139" lon="6.47831">
        <ele>542</ele>
        <time>2012-11-24T10:11:26Z</time>
      </trkpt>
      <trkpt lat="46.34141" lon="6.47831">
        <ele>542</ele>
        <time>2012-11-24T10:11:27Z</time>
      </trkpt>
      <trkpt lat="46.34143" lon="6.4783">
        <ele>542</ele>
        <time>2012-11-24T10:11:28Z</time>
      </trkpt>
      <trkpt lat="46.34145" lon="6.47828">
        <ele>542</ele>
        <time>2012-11-24T10:11:29Z</time>
      </trkpt>
      <trkpt lat="46.34146" lon="6.47826">
        <ele>542</ele>
        <time>2012-11-24T10:11:30Z</time>
      </trkpt>
      <trkpt lat="46.34148" lon="6.47824">
        <ele>542</ele>
        <time>2012-11-24T10:11:32Z</time>
      </trkpt>
      <trkpt lat="46.34149" lon="6.47823">
        <ele>542</ele>
        <time>2012-11-24T10:11:33Z</time>
      </trkpt>
      <trkpt lat="46.34151" lon="6.47822">
        <ele>542</ele>
        <time>2012-11-24T10:11:34Z</time>
      </trkpt>
      <trkpt lat="46.34153" lon="6.4782">
        <ele>542</ele>
        <time>2012-11-24T10:11:35Z</time>
      </trkpt>
      <trkpt lat="46.34154" lon="6.47818">
        <ele>542</ele>
        <time>2012-11-24T10:11:36Z</time>
      </trkpt>
      <trkpt lat="46.34155" lon="6.47817">
        <ele>542</ele>
        <time>2012-11-24T10:11:37Z</time>
      </trkpt>
      <trkpt lat="46.34157" lon="6.47816">
        <ele>542</ele>
        <time>2012-11-24T10:11:38Z</time>
      </trkpt>
      <trkpt lat="46.34159" lon="6.47815">
        <ele>542</ele>
        <time>2012-11-24T10:11:39Z</time>
      </trkpt>
      <trkpt lat="46.34161" lon="6.47814">
        <ele>542</ele>
        <time>2012-11-24T10:11:40Z</time>
      </trkpt>
      <trkpt lat="46.34163" lon="6.47814">
        <ele>542</ele>
        <time>2012-11-24T10:11:41Z</time>
      </trkpt>
      <trkpt lat="46.34166" lon="6.47814">
        <ele>542</ele>
        <time>2012-11-24T10:11:41Z</time>
      </trkpt>
      <trkpt lat="46.34167" lon="6.47813">
        <ele>542</ele>
        <time>2012-11-24T10:11:43Z</time>
      </trkpt>
      <trkpt lat="46.34169" lon="6.47812">
        <ele>542</ele>
        <time>2012-11-24T10:11:44Z</time>
      </trkpt>
      <trkpt lat="46.34171" lon="6.47811">
        <ele>542</ele>
        <time>2012-11-24T10:11:45Z</time>
      </trkpt>
      <trkpt lat="46.34173" lon="6.47811">
        <ele>542</ele>
        <time>2012-11-24T10:11:46Z</time>
      </trkpt>
      <trkpt lat="46.34175" lon="6.4781">
        <ele>542</ele>
        <time>2012-11-24T10:11:47Z</time>
      </trkpt>
      <trkpt lat="46.34177" lon="6.4781">
        <ele>542</ele>
        <time>2012-11-24T10:11:48Z</time>
      </trkpt>
      <trkpt lat="46.3418" lon="6.47809">
        <ele>542</ele>
        <time>2012-11-24T10:11:49Z</time>
      </trkpt>
      <trkpt lat="46.34182" lon="6.47809">
        <ele>542</ele>
        <time>2012-11-24T10:11:50Z</time>
      </trkpt>
      <trkpt lat="46.34184" lon="6.47808">
        <ele>542</ele>
        <time>2012-11-24T10:11:51Z</time>
      </trkpt>
      <trkpt lat="46.34186" lon="6.47808">
        <ele>542</ele>
        <time>2012-11-24T10:11:52Z</time>
      </trkpt>
      <trkpt lat="46.34189" lon="6.47807">
        <ele>542</ele>
        <time>2012-11-24T10:11:53Z</time>
      </trkpt>
      <trkpt lat="46.34191" lon="6.47807">
        <ele>542</ele>
        <time>2012-11-24T10:11:54Z</time>
      </trkpt>
      <trkpt lat="46.34194" lon="6.47807">
        <ele>542</ele>
        <time>2012-11-24T10:11:55Z</time>
      </trkpt>
      <trkpt lat="46.34196" lon="6.47806">
        <ele>542</ele>
        <time>2012-11-24T10:11:56Z</time>
      </trkpt>
      <trkpt lat="46.34198" lon="6.47805">
        <ele>542</ele>
        <time>2012-11-24T10:11:57Z</time>
      </trkpt>
      <trkpt lat="46.34201" lon="6.47805">
        <ele>542</ele>
        <time>2012-11-24T10:11:58Z</time>
      </trkpt>
      <trkpt lat="46.34203" lon="6.47805">
        <ele>542</ele>
        <time>2012-11-24T10:11:59Z</time>
      </trkpt>
      <trkpt lat="46.34205" lon="6.47804">
        <ele>542</ele>
        <time>2012-11-24T10:12:00Z</time>
      </trkpt>
      <trkpt lat="46.34208" lon="6.47804">
        <ele>542</ele>
        <time>2012-11-24T10:12:01Z</time>
      </trkpt>
      <trkpt lat="46.3421" lon="6.47804">
        <ele>542</ele>
        <time>2012-11-24T10:12:02Z</time>
      </trkpt>
      <trkpt lat="46.34213" lon="6.47804">
        <ele>542</ele>
        <time>2012-11-24T10:12:03Z</time>
      </trkpt>
      <trkpt lat="46.34216" lon="6.47803">
        <ele>542</ele>
        <time>2012-11-24T10:12:04Z</time>
      </trkpt>
      <trkpt lat="46.34218" lon="6.47803">
        <ele>542</ele>
        <time>2012-11-24T10:12:05Z</time>
      </trkpt>
      <trkpt lat="46.3422" lon="6.47803">
        <ele>542</ele>
        <time>2012-11-24T10:12:06Z</time>
      </trkpt>
      <trkpt lat="46.34222" lon="6.47803">
        <ele>542</ele>
        <time>2012-11-24T10:12:07Z</time>
      </trkpt>
      <trkpt lat="46.34225" lon="6.47803">
        <ele>542</ele>
        <time>2012-11-24T10:12:08Z</time>
      </trkpt>
      <trkpt lat="46.34227" lon="6.47802">
        <ele>542</ele>
        <time>2012-11-24T10:12:09Z</time>
      </trkpt>
      <trkpt lat="46.34229" lon="6.47802">
        <ele>542</ele>
        <time>2012-11-24T10:12:10Z</time>
      </trkpt>
      <trkpt lat="46.34231" lon="6.47802">
        <ele>542</ele>
        <time>2012-11-24T10:12:11Z</time>
      </trkpt>
      <trkpt lat="46.34233" lon="6.47802">
        <ele>542</ele>
        <time>2012-11-24T10:12:12Z</time>
      </trkpt>
      <trkpt lat="46.34236" lon="6.47801">
        <ele>542</ele>
        <time>2012-11-24T10:12:13Z</time>
      </trkpt>
      <trkpt lat="46.34238" lon="6.47801">
        <ele>541</ele>
        <time>2012-11-24T10:12:14Z</time>
      </trkpt>
      <trkpt lat="46.34241" lon="6.478">
        <ele>541</ele>
        <time>2012-11-24T10:12:15Z</time>
      </trkpt>
      <trkpt lat="46.34242" lon="6.47798">
        <ele>541</ele>
        <time>2012-11-24T10:12:16Z</time>
      </trkpt>
      <trkpt lat="46.34244" lon="6.47798">
        <ele>541</ele>
        <time>2012-11-24T10:12:17Z</time>
      </trkpt>
      <trkpt lat="46.34247" lon="6.47797">
        <ele>541</ele>
        <time>2012-11-24T10:12:18Z</time>
      </trkpt>
      <trkpt lat="46.34248" lon="6.47796">
        <ele>541</ele>
        <time>2012-11-24T10:12:19Z</time>
      </trkpt>
      <trkpt lat="46.34251" lon="6.47796">
        <ele>541</ele>
        <time>2012-11-24T10:12:20Z</time>
      </trkpt>
      <trkpt lat="46.34253" lon="6.47795">
        <ele>541</ele>
        <time>2012-11-24T10:12:21Z</time>
      </trkpt>
      <trkpt lat="46.34255" lon="6.47794">
        <ele>541</ele>
        <time>2012-11-24T10:12:22Z</time>
      </trkpt>
      <trkpt lat="46.34258" lon="6.47794">
        <ele>541</ele>
        <time>2012-11-24T10:12:22Z</time>
      </trkpt>
      <trkpt lat="46.3426" lon="6.47793">
        <ele>540</ele>
        <time>2012-11-24T10:12:24Z</time>
      </trkpt>
      <trkpt lat="46.34262" lon="6.47793">
        <ele>540</ele>
        <time>2012-11-24T10:12:25Z</time>
      </trkpt>
      <trkpt lat="46.34264" lon="6.47792">
        <ele>540</ele>
        <time>2012-11-24T10:12:26Z</time>
      </trkpt>
      <trkpt lat="46.34266" lon="6.47791">
        <ele>540</ele>
        <time>2012-11-24T10:12:27Z</time>
      </trkpt>
      <trkpt lat="46.34267" lon="6.4779">
        <ele>539</ele>
        <time>2012-11-24T10:12:28Z</time>
      </trkpt>
      <trkpt lat="46.34269" lon="6.47789">
        <ele>539</ele>
        <time>2012-11-24T10:12:29Z</time>
      </trkpt>
      <trkpt lat="46.34273" lon="6.47788">
        <ele>539</ele>
        <time>2012-11-24T10:12:30Z</time>
      </trkpt>
      <trkpt lat="46.34275" lon="6.47787">
        <ele>539</ele>
        <time>2012-11-24T10:12:31Z</time>
      </trkpt>
      <trkpt lat="46.34277" lon="6.47786">
        <ele>539</ele>
        <time>2012-11-24T10:12:32Z</time>
      </trkpt>
      <trkpt lat="46.34279" lon="6.47785">
        <ele>539</ele>
        <time>2012-11-24T10:12:33Z</time>
      </trkpt>
      <trkpt lat="46.34281" lon="6.47784">
        <ele>539</ele>
        <time>2012-11-24T10:12:34Z</time>
      </trkpt>
      <trkpt lat="46.34283" lon="6.47784">
        <ele>539</ele>
        <time>2012-11-24T10:12:35Z</time>
      </trkpt>
      <trkpt lat="46.34286" lon="6.47784">
        <ele>539</ele>
        <time>2012-11-24T10:12:36Z</time>
      </trkpt>
      <trkpt lat="46.34288" lon="6.47783">
        <ele>539</ele>
        <time>2012-11-24T10:12:37Z</time>
      </trkpt>
      <trkpt lat="46.3429" lon="6.47783">
        <ele>539</ele>
        <time>2012-11-24T10:12:38Z</time>
      </trkpt>
      <trkpt lat="46.34293" lon="6.47783">
        <ele>539</ele>
        <time>2012-11-24T10:12:39Z</time>
      </trkpt>
      <trkpt lat="46.34295" lon="6.47783">
        <ele>539</ele>
        <time>2012-11-24T10:12:40Z</time>
      </trkpt>
      <trkpt lat="46.34298" lon="6.47784">
        <ele>539</ele>
        <time>2012-11-24T10:12:41Z</time>
      </trkpt>
      <trkpt lat="46.343" lon="6.47784">
        <ele>539</ele>
        <time>2012-11-24T10:12:42Z</time>
      </trkpt>
      <trkpt lat="46.34302" lon="6.47784">
        <ele>539</ele>
        <time>2012-11-24T10:12:43Z</time>
      </trkpt>
      <trkpt lat="46.34304" lon="6.47784">
        <ele>539</ele>
        <time>2012-11-24T10:12:44Z</time>
      </trkpt>
      <trkpt lat="46.34306" lon="6.47784">
        <ele>539</ele>
        <time>2012-11-24T10:12:45Z</time>
      </trkpt>
      <trkpt lat="46.34308" lon="6.47784">
        <ele>539</ele>
        <time>2012-11-24T10:12:46Z</time>
      </trkpt>
      <trkpt lat="46.3431" lon="6.47785">
        <ele>539</ele>
        <time>2012-11-24T10:12:47Z</time>
      </trkpt>
      <trkpt lat="46.34312" lon="6.47786">
        <ele>539</ele>
        <time>2012-11-24T10:12:48Z</time>
      </trkpt>
      <trkpt lat="46.34315" lon="6.47786">
        <ele>539</ele>
        <time>2012-11-24T10:12:49Z</time>
      </trkpt>
      <trkpt lat="46.34317" lon="6.47787">
        <ele>539</ele>
        <time>2012-11-24T10:12:50Z</time>
      </trkpt>
      <trkpt lat="46.34318" lon="6.47788">
        <ele>539</ele>
        <time>2012-11-24T10:12:51Z</time>
      </trkpt>
      <trkpt lat="46.34321" lon="6.47788">
        <ele>539</ele>
        <time>2012-11-24T10:12:52Z</time>
      </trkpt>
      <trkpt lat="46.34323" lon="6.47789">
        <ele>539</ele>
        <time>2012-11-24T10:12:52Z</time>
      </trkpt>
      <trkpt lat="46.34325" lon="6.4779">
        <ele>539</ele>
        <time>2012-11-24T10:12:54Z</time>
      </trkpt>
      <trkpt lat="46.34327" lon="6.4779">
        <ele>539</ele>
        <time>2012-11-24T10:12:55Z</time>
      </trkpt>
      <trkpt lat="46.34328" lon="6.47791">
        <ele>539</ele>
        <time>2012-11-24T10:12:56Z</time>
      </trkpt>
      <trkpt lat="46.3433" lon="6.47792">
        <ele>539</ele>
        <time>2012-11-24T10:12:57Z</time>
      </trkpt>
      <trkpt lat="46.34333" lon="6.47794">
        <ele>539</ele>
        <time>2012-11-24T10:12:58Z</time>
      </trkpt>
      <trkpt lat="46.34335" lon="6.47794">
        <ele>539</ele>
        <time>2012-11-24T10:12:59Z</time>
      </trkpt>
      <trkpt lat="46.34337" lon="6.47795">
        <ele>539</ele>
        <time>2012-11-24T10:13:00Z</time>
      </trkpt>
      <trkpt lat="46.3434" lon="6.47796">
        <ele>539</ele>
        <time>2012-11-24T10:13:01Z</time>
      </trkpt>
      <trkpt lat="46.34343" lon="6.47797">
        <ele>539</ele>
        <time>2012-11-24T10:13:02Z</time>
      </trkpt>
      <trkpt lat="46.34345" lon="6.47798">
        <ele>539</ele>
        <time>2012-11-24T10:13:03Z</time>
      </trkpt>
      <trkpt lat="46.34347" lon="6.47799">
        <ele>539</ele>
        <time>2012-11-24T10:13:04Z</time>
      </trkpt>
      <trkpt lat="46.34349" lon="6.478">
        <ele>539</ele>
        <time>2012-11-24T10:13:05Z</time>
      </trkpt>
      <trkpt lat="46.34351" lon="6.47801">
        <ele>539</ele>
        <time>2012-11-24T10:13:06Z</time>
      </trkpt>
      <trkpt lat="46.34352" lon="6.47801">
        <ele>539</ele>
        <time>2012-11-24T10:13:07Z</time>
      </trkpt>
      <trkpt lat="46.34354" lon="6.47802">
        <ele>539</ele>
        <time>2012-11-24T10:13:08Z</time>
      </trkpt>
      <trkpt lat="46.34356" lon="6.47803">
        <ele>539</ele>
        <time>2012-11-24T10:13:09Z</time>
      </trkpt>
      <trkpt lat="46.34357" lon="6.47804">
        <ele>539</ele>
        <time>2012-11-24T10:13:10Z</time>
      </trkpt>
      <trkpt lat="46.34359" lon="6.47806">
        <ele>539</ele>
        <time>2012-11-24T10:13:11Z</time>
      </trkpt>
      <trkpt lat="46.34361" lon="6.47807">
        <ele>539</ele>
        <time>2012-11-24T10:13:12Z</time>
      </trkpt>
      <trkpt lat="46.34364" lon="6.47809">
        <ele>539</ele>
        <time>2012-11-24T10:13:13Z</time>
      </trkpt>
      <trkpt lat="46.34366" lon="6.4781">
        <ele>539</ele>
        <time>2012-11-24T10:13:13Z</time>
      </trkpt>
      <trkpt lat="46.34368" lon="6.47811">
        <ele>539</ele>
        <time>2012-11-24T10:13:15Z</time>
      </trkpt>
      <trkpt lat="46.3437" lon="6.47814">
        <ele>540</ele>
        <time>2012-11-24T10:13:16Z</time>
      </trkpt>
      <trkpt lat="46.34371" lon="6.47816">
        <ele>540</ele>
        <time>2012-11-24T10:13:17Z</time>
      </trkpt>
      <trkpt lat="46.34373" lon="6.47819">
        <ele>540</ele>
        <time>2012-11-24T10:13:18Z</time>
      </trkpt>
      <trkpt lat="46.34375" lon="6.4782">
        <ele>541</ele>
        <time>2012-11-24T10:13:19Z</time>
      </trkpt>
      <trkpt lat="46.34377" lon="6.47822">
        <ele>541</ele>
        <time>2012-11-24T10:13:20Z</time>
      </trkpt>
      <trkpt lat="46.34379" lon="6.47824">
        <ele>541</ele>
        <time>2012-11-24T10:13:21Z</time>
      </trkpt>
      <trkpt lat="46.34381" lon="6.47825">
        <ele>541</ele>
        <time>2012-11-24T10:13:22Z</time>
      </trkpt>
      <trkpt lat="46.34383" lon="6.47827">
        <ele>542</ele>
        <time>2012-11-24T10:13:23Z</time>
      </trkpt>
      <trkpt lat="46.34385" lon="6.47828">
        <ele>542</ele>
        <time>2012-11-24T10:13:24Z</time>
      </trkpt>
      <trkpt lat="46.34387" lon="6.47831">
        <ele>542</ele>
        <time>2012-11-24T10:13:25Z</time>
      </trkpt>
      <trkpt lat="46.34389" lon="6.47833">
        <ele>542</ele>
        <time>2012-11-24T10:13:26Z</time>
      </trkpt>
      <trkpt lat="46.34391" lon="6.47834">
        <ele>543</ele>
        <time>2012-11-24T10:13:27Z</time>
      </trkpt>
      <trkpt lat="46.34393" lon="6.47835">
        <ele>543</ele>
        <time>2012-11-24T10:13:28Z</time>
      </trkpt>
      <trkpt lat="46.34395" lon="6.47836">
        <ele>543</ele>
        <time>2012-11-24T10:13:29Z</time>
      </trkpt>
      <trkpt lat="46.34397" lon="6.47838">
        <ele>543</ele>
        <time>2012-11-24T10:13:30Z</time>
      </trkpt>
      <trkpt lat="46.34399" lon="6.47838">
        <ele>543</ele>
        <time>2012-11-24T10:13:31Z</time>
      </trkpt>
      <trkpt lat="46.34401" lon="6.47839">
        <ele>543</ele>
        <time>2012-11-24T10:13:32Z</time>
      </trkpt>
      <trkpt lat="46.34404" lon="6.47839">
        <ele>543</ele>
        <time>2012-11-24T10:13:33Z</time>
      </trkpt>
      <trkpt lat="46.34406" lon="6.4784">
        <ele>543</ele>
        <time>2012-11-24T10:13:34Z</time>
      </trkpt>
      <trkpt lat="46.34409" lon="6.47841">
        <ele>543</ele>
        <time>2012-11-24T10:13:35Z</time>
      </trkpt>
      <trkpt lat="46.34411" lon="6.47842">
        <ele>543</ele>
        <time>2012-11-24T10:13:36Z</time>
      </trkpt>
      <trkpt lat="46.34414" lon="6.47843">
        <ele>543</ele>
        <time>2012-11-24T10:13:37Z</time>
      </trkpt>
      <trkpt lat="46.34416" lon="6.47842">
        <ele>543</ele>
        <time>2012-11-24T10:13:38Z</time>
      </trkpt>
      <trkpt lat="46.34419" lon="6.47843">
        <ele>543</ele>
        <time>2012-11-24T10:13:38Z</time>
      </trkpt>
      <trkpt lat="46.34421" lon="6.47844">
        <ele>543</ele>
        <time>2012-11-24T10:13:40Z</time>
      </trkpt>
      <trkpt lat="46.34423" lon="6.47846">
        <ele>544</ele>
        <time>2012-11-24T10:13:41Z</time>
      </trkpt>
      <trkpt lat="46.34425" lon="6.47847">
        <ele>545</ele>
        <time>2012-11-24T10:13:42Z</time>
      </trkpt>
      <trkpt lat="46.34427" lon="6.47849">
        <ele>545</ele>
        <time>2012-11-24T10:13:43Z</time>
      </trkpt>
      <trkpt lat="46.34429" lon="6.4785">
        <ele>546</ele>
        <time>2012-11-24T10:13:44Z</time>
      </trkpt>
      <trkpt lat="46.34431" lon="6.47852">
        <ele>546</ele>
        <time>2012-11-24T10:13:45Z</time>
      </trkpt>
      <trkpt lat="46.34433" lon="6.47855">
        <ele>546</ele>
        <time>2012-11-24T10:13:46Z</time>
      </trkpt>
      <trkpt lat="46.34435" lon="6.47858">
        <ele>547</ele>
        <time>2012-11-24T10:13:47Z</time>
      </trkpt>
      <trkpt lat="46.34437" lon="6.47858">
        <ele>547</ele>
        <time>2012-11-24T10:13:47Z</time>
      </trkpt>
      <trkpt lat="46.3444" lon="6.47859">
        <ele>547</ele>
        <time>2012-11-24T10:13:49Z</time>
      </trkpt>
      <trkpt lat="46.34443" lon="6.4786">
        <ele>548</ele>
        <time>2012-11-24T10:13:50Z</time>
      </trkpt>
      <trkpt lat="46.34444" lon="6.4786">
        <ele>548</ele>
        <time>2012-11-24T10:13:50Z</time>
      </trkpt>
      <trkpt lat="46.34446" lon="6.4786">
        <ele>548</ele>
        <time>2012-11-24T10:13:52Z</time>
      </trkpt>
      <trkpt lat="46.34449" lon="6.4786">
        <ele>548</ele>
        <time>2012-11-24T10:13:53Z</time>
      </trkpt>
      <trkpt lat="46.34452" lon="6.4786">
        <ele>549</ele>
        <time>2012-11-24T10:13:54Z</time>
      </trkpt>
      <trkpt lat="46.34453" lon="6.47861">
        <ele>549</ele>
        <time>2012-11-24T10:13:55Z</time>
      </trkpt>
      <trkpt lat="46.34455" lon="6.47862">
        <ele>550</ele>
        <time>2012-11-24T10:13:56Z</time>
      </trkpt>
      <trkpt lat="46.34456" lon="6.47864">
        <ele>550</ele>
        <time>2012-11-24T10:13:57Z</time>
      </trkpt>
      <trkpt lat="46.34457" lon="6.47867">
        <ele>550</ele>
        <time>2012-11-24T10:13:57Z</time>
      </trkpt>
      <trkpt lat="46.34459" lon="6.47869">
        <ele>550</ele>
        <time>2012-11-24T10:13:59Z</time>
      </trkpt>
      <trkpt lat="46.3446" lon="6.47872">
        <ele>550</ele>
        <time>2012-11-24T10:13:59Z</time>
      </trkpt>
      <trkpt lat="46.34461" lon="6.47875">
        <ele>550</ele>
        <time>2012-11-24T10:14:01Z</time>
      </trkpt>
      <trkpt lat="46.34463" lon="6.47878">
        <ele>550</ele>
        <time>2012-11-24T10:14:01Z</time>
      </trkpt>
      <trkpt lat="46.34464" lon="6.4788">
        <ele>550</ele>
        <time>2012-11-24T10:14:03Z</time>
      </trkpt>
      <trkpt lat="46.34466" lon="6.47882">
        <ele>550</ele>
        <time>2012-11-24T10:14:04Z</time>
      </trkpt>
      <trkpt lat="46.34467" lon="6.47885">
        <ele>550</ele>
        <time>2012-11-24T10:14:05Z</time>
      </trkpt>
      <trkpt lat="46.34469" lon="6.47887">
        <ele>550</ele>
        <time>2012-11-24T10:14:05Z</time>
      </trkpt>
      <trkpt lat="46.3447" lon="6.47889">
        <ele>550</ele>
        <time>2012-11-24T10:14:07Z</time>
      </trkpt>
      <trkpt lat="46.34471" lon="6.47892">
        <ele>550</ele>
        <time>2012-11-24T10:14:08Z</time>
      </trkpt>
      <trkpt lat="46.34472" lon="6.47895">
        <ele>550</ele>
        <time>2012-11-24T10:14:09Z</time>
      </trkpt>
      <trkpt lat="46.34473" lon="6.47899">
        <ele>550</ele>
        <time>2012-11-24T10:14:10Z</time>
      </trkpt>
      <trkpt lat="46.34475" lon="6.47902">
        <ele>550</ele>
        <time>2012-11-24T10:14:10Z</time>
      </trkpt>
      <trkpt lat="46.34477" lon="6.47905">
        <ele>550</ele>
        <time>2012-11-24T10:14:11Z</time>
      </trkpt>
      <trkpt lat="46.3448" lon="6.47907">
        <ele>550</ele>
        <time>2012-11-24T10:14:13Z</time>
      </trkpt>
      <trkpt lat="46.34481" lon="6.4791">
        <ele>550</ele>
        <time>2012-11-24T10:14:14Z</time>
      </trkpt>
      <trkpt lat="46.34483" lon="6.47912">
        <ele>550</ele>
        <time>2012-11-24T10:14:14Z</time>
      </trkpt>
      <trkpt lat="46.34485" lon="6.47914">
        <ele>550</ele>
        <time>2012-11-24T10:14:15Z</time>
      </trkpt>
      <trkpt lat="46.34487" lon="6.47916">
        <ele>550</ele>
        <time>2012-11-24T10:14:16Z</time>
      </trkpt>
      <trkpt lat="46.34489" lon="6.47919">
        <ele>550</ele>
        <time>2012-11-24T10:14:17Z</time>
      </trkpt>
      <trkpt lat="46.34491" lon="6.47921">
        <ele>550</ele>
        <time>2012-11-24T10:14:19Z</time>
      </trkpt>
      <trkpt lat="46.34493" lon="6.47923">
        <ele>550</ele>
        <time>2012-11-24T10:14:20Z</time>
      </trkpt>
      <trkpt lat="46.34495" lon="6.47925">
        <ele>550</ele>
        <time>2012-11-24T10:14:21Z</time>
      </trkpt>
      <trkpt lat="46.34496" lon="6.47926">
        <ele>550</ele>
        <time>2012-11-24T10:14:21Z</time>
      </trkpt>
      <trkpt lat="46.34498" lon="6.47928">
        <ele>550</ele>
        <time>2012-11-24T10:14:22Z</time>
      </trkpt>
      <trkpt lat="46.34499" lon="6.47929">
        <ele>550</ele>
        <time>2012-11-24T10:14:24Z</time>
      </trkpt>
      <trkpt lat="46.34502" lon="6.4793">
        <ele>550</ele>
        <time>2012-11-24T10:14:25Z</time>
      </trkpt>
      <trkpt lat="46.34504" lon="6.47932">
        <ele>550</ele>
        <time>2012-11-24T10:14:26Z</time>
      </trkpt>
      <trkpt lat="46.34506" lon="6.47933">
        <ele>550</ele>
        <time>2012-11-24T10:14:26Z</time>
      </trkpt>
      <trkpt lat="46.34508" lon="6.47934">
        <ele>550</ele>
        <time>2012-11-24T10:14:28Z</time>
      </trkpt>
      <trkpt lat="46.3451" lon="6.47934">
        <ele>550</ele>
        <time>2012-11-24T10:14:29Z</time>
      </trkpt>
      <trkpt lat="46.34513" lon="6.47933">
        <ele>550</ele>
        <time>2012-11-24T10:14:30Z</time>
      </trkpt>
      <trkpt lat="46.34515" lon="6.47933">
        <ele>550</ele>
        <time>2012-11-24T10:14:31Z</time>
      </trkpt>
      <trkpt lat="46.34517" lon="6.47933">
        <ele>550</ele>
        <time>2012-11-24T10:14:32Z</time>
      </trkpt>
      <trkpt lat="46.34519" lon="6.47933">
        <ele>550</ele>
        <time>2012-11-24T10:14:33Z</time>
      </trkpt>
      <trkpt lat="46.3452" lon="6.47933">
        <ele>550</ele>
        <time>2012-11-24T10:14:34Z</time>
      </trkpt>
      <trkpt lat="46.34522" lon="6.47935">
        <ele>550</ele>
        <time>2012-11-24T10:14:35Z</time>
      </trkpt>
      <trkpt lat="46.34524" lon="6.47936">
        <ele>550</ele>
        <time>2012-11-24T10:14:36Z</time>
      </trkpt>
      <trkpt lat="46.34525" lon="6.47938">
        <ele>550</ele>
        <time>2012-11-24T10:14:37Z</time>
      </trkpt>
      <trkpt lat="46.34526" lon="6.4794">
        <ele>550</ele>
        <time>2012-11-24T10:14:38Z</time>
      </trkpt>
      <trkpt lat="46.34528" lon="6.47943">
        <ele>550</ele>
        <time>2012-11-24T10:14:39Z</time>
      </trkpt>
      <trkpt lat="46.34529" lon="6.47945">
        <ele>550</ele>
        <time>2012-11-24T10:14:40Z</time>
      </trkpt>
      <trkpt lat="46.34531" lon="6.47948">
        <ele>550</ele>
        <time>2012-11-24T10:14:41Z</time>
      </trkpt>
      <trkpt lat="46.34533" lon="6.4795">
        <ele>550</ele>
        <time>2012-11-24T10:14:42Z</time>
      </trkpt>
      <trkpt lat="46.34535" lon="6.47952">
        <ele>550</ele>
        <time>2012-11-24T10:14:43Z</time>
      </trkpt>
      <trkpt lat="46.34537" lon="6.47953">
        <ele>550</ele>
        <time>2012-11-24T10:14:43Z</time>
      </trkpt>
      <trkpt lat="46.34538" lon="6.47955">
        <ele>550</ele>
        <time>2012-11-24T10:14:45Z</time>
      </trkpt>
      <trkpt lat="46.34539" lon="6.47956">
        <ele>550</ele>
        <time>2012-11-24T10:14:45Z</time>
      </trkpt>
      <trkpt lat="46.34541" lon="6.47958">
        <ele>550</ele>
        <time>2012-11-24T10:14:47Z</time>
      </trkpt>
      <trkpt lat="46.34544" lon="6.4796">
        <ele>550</ele>
        <time>2012-11-24T10:14:47Z</time>
      </trkpt>
      <trkpt lat="46.34545" lon="6.47963">
        <ele>550</ele>
        <time>2012-11-24T10:14:49Z</time>
      </trkpt>
      <trkpt lat="46.34547" lon="6.47964">
        <ele>550</ele>
        <time>2012-11-24T10:14:50Z</time>
      </trkpt>
      <trkpt lat="46.34549" lon="6.47967">
        <ele>550</ele>
        <time>2012-11-24T10:14:50Z</time>
      </trkpt>
      <trkpt lat="46.34551" lon="6.47969">
        <ele>550</ele>
        <time>2012-11-24T10:14:51Z</time>
      </trkpt>
      <trkpt lat="46.34553" lon="6.4797">
        <ele>550</ele>
        <time>2012-11-24T10:14:52Z</time>
      </trkpt>
      <trkpt lat="46.34555" lon="6.47971">
        <ele>550</ele>
        <time>2012-11-24T10:14:53Z</time>
      </trkpt>
      <trkpt lat="46.34558" lon="6.47973">
        <ele>550</ele>
        <time>2012-11-24T10:14:55Z</time>
      </trkpt>
      <trkpt lat="46.3456" lon="6.47975">
        <ele>550</ele>
        <time>2012-11-24T10:14:56Z</time>
      </trkpt>
      <trkpt lat="46.34563" lon="6.47977">
        <ele>550</ele>
        <time>2012-11-24T10:14:57Z</time>
      </trkpt>
      <trkpt lat="46.34564" lon="6.4798">
        <ele>550</ele>
        <time>2012-11-24T10:14:57Z</time>
      </trkpt>
      <trkpt lat="46.34566" lon="6.47983">
        <ele>550</ele>
        <time>2012-11-24T10:14:59Z</time>
      </trkpt>
      <trkpt lat="46.34568" lon="6.47987">
        <ele>550</ele>
        <time>2012-11-24T10:15:00Z</time>
      </trkpt>
      <trkpt lat="46.3457" lon="6.4799">
        <ele>550</ele>
        <time>2012-11-24T10:15:01Z</time>
      </trkpt>
      <trkpt lat="46.34571" lon="6.47993">
        <ele>550</ele>
        <time>2012-11-24T10:15:01Z</time>
      </trkpt>
      <trkpt lat="46.34572" lon="6.47996">
        <ele>550</ele>
        <time>2012-11-24T10:15:02Z</time>
      </trkpt>
      <trkpt lat="46.34573" lon="6.47999">
        <ele>550</ele>
        <time>2012-11-24T10:15:04Z</time>
      </trkpt>
      <trkpt lat="46.34574" lon="6.48002">
        <ele>550</ele>
        <time>2012-11-24T10:15:05Z</time>
      </trkpt>
      <trkpt lat="46.34575" lon="6.48004">
        <ele>550</ele>
        <time>2012-11-24T10:15:05Z</time>
      </trkpt>
      <trkpt lat="46.34576" lon="6.48006">
        <ele>550</ele>
        <time>2012-11-24T10:15:06Z</time>
      </trkpt>
      <trkpt lat="46.34576" lon="6.48008">
        <ele>550</ele>
        <time>2012-11-24T10:15:08Z</time>
      </trkpt>
      <trkpt lat="46.34577" lon="6.4801">
        <ele>550</ele>
        <time>2012-11-24T10:15:09Z</time>
      </trkpt>
      <trkpt lat="46.34578" lon="6.48013">
        <ele>550</ele>
        <time>2012-11-24T10:15:10Z</time>
      </trkpt>
      <trkpt lat="46.34579" lon="6.48014">
        <ele>550</ele>
        <time>2012-11-24T10:15:10Z</time>
      </trkpt>
      <trkpt lat="46.34581" lon="6.48016">
        <ele>550</ele>
        <time>2012-11-24T10:15:11Z</time>
      </trkpt>
      <trkpt lat="46.34582" lon="6.48018">
        <ele>550</ele>
        <time>2012-11-24T10:15:12Z</time>
      </trkpt>
      <trkpt lat="46.34583" lon="6.48021">
        <ele>550</ele>
        <time>2012-11-24T10:15:14Z</time>
      </trkpt>
      <trkpt lat="46.34584" lon="6.48023">
        <ele>550</ele>
        <time>2012-11-24T10:15:15Z</time>
      </trkpt>
      <trkpt lat="46.34584" lon="6.48026">
        <ele>550</ele>
        <time>2012-11-24T10:15:16Z</time>
      </trkpt>
      <trkpt lat="46.34584" lon="6.48028">
        <ele>550</ele>
        <time>2012-11-24T10:15:17Z</time>
      </trkpt>
      <trkpt lat="46.34584" lon="6.4803">
        <ele>550</ele>
        <time>2012-11-24T10:15:18Z</time>
      </trkpt>
      <trkpt lat="46.34585" lon="6.48028">
        <ele>550</ele>
        <time>2012-11-24T10:15:22Z</time>
      </trkpt>
      <trkpt lat="46.34585" lon="6.4803">
        <ele>550</ele>
        <time>2012-11-24T10:15:24Z</time>
      </trkpt>
      <trkpt lat="46.34585" lon="6.48031">
        <ele>550</ele>
        <time>2012-11-24T10:15:27Z</time>
      </trkpt>
      <trkpt lat="46.34586" lon="6.48034">
        <ele>550</ele>
        <time>2012-11-24T10:15:31Z</time>
      </trkpt>
      <trkpt lat="46.34586" lon="6.48035">
        <ele>550</ele>
        <time>2012-11-24T10:15:33Z</time>
      </trkpt>
      <trkpt lat="46.34586" lon="6.48037">
        <ele>550</ele>
        <time>2012-11-24T10:15:35Z</time>
      </trkpt>
      <trkpt lat="46.34587" lon="6.48039">
        <ele>550</ele>
        <time>2012-11-24T10:15:38Z</time>
      </trkpt>
      <trkpt lat="46.34588" lon="6.4804">
        <ele>550</ele>
        <time>2012-11-24T10:15:39Z</time>
      </trkpt>
      <trkpt lat="46.34588" lon="6.48042">
        <ele>550</ele>
        <time>2012-11-24T10:15:40Z</time>
      </trkpt>
      <trkpt lat="46.34588" lon="6.48044">
        <ele>550</ele>
        <time>2012-11-24T10:15:42Z</time>
      </trkpt>
      <trkpt lat="46.34589" lon="6.48045">
        <ele>550</ele>
        <time>2012-11-24T10:15:43Z</time>
      </trkpt>
      <trkpt lat="46.34589" lon="6.48048">
        <ele>550</ele>
        <time>2012-11-24T10:15:44Z</time>
      </trkpt>
      <trkpt lat="46.34589" lon="6.4805">
        <ele>550</ele>
        <time>2012-11-24T10:15:48Z</time>
      </trkpt>
      <trkpt lat="46.34589" lon="6.48052">
        <ele>550</ele>
        <time>2012-11-24T10:15:49Z</time>
      </trkpt>
      <trkpt lat="46.34589" lon="6.48054">
        <ele>550</ele>
        <time>2012-11-24T10:15:52Z</time>
      </trkpt>
      <trkpt lat="46.34589" lon="6.48056">
        <ele>550</ele>
        <time>2012-11-24T10:15:54Z</time>
      </trkpt>
      <trkpt lat="46.3459" lon="6.48059">
        <ele>550</ele>
        <time>2012-11-24T10:15:56Z</time>
      </trkpt>
      <trkpt lat="46.34591" lon="6.48062">
        <ele>550</ele>
        <time>2012-11-24T10:15:59Z</time>
      </trkpt>
      <trkpt lat="46.34592" lon="6.48064">
        <ele>550</ele>
        <time>2012-11-24T10:15:59Z</time>
      </trkpt>
      <trkpt lat="46.34593" lon="6.48066">
        <ele>550</ele>
        <time>2012-11-24T10:16:01Z</time>
      </trkpt>
      <trkpt lat="46.34595" lon="6.48067">
        <ele>550</ele>
        <time>2012-11-24T10:16:04Z</time>
      </trkpt>
      <trkpt lat="46.34597" lon="6.48069">
        <ele>550</ele>
        <time>2012-11-24T10:16:05Z</time>
      </trkpt>
      <trkpt lat="46.34598" lon="6.4807">
        <ele>550</ele>
        <time>2012-11-24T10:16:06Z</time>
      </trkpt>
      <trkpt lat="46.34601" lon="6.48071">
        <ele>550</ele>
        <time>2012-11-24T10:16:09Z</time>
      </trkpt>
      <trkpt lat="46.34603" lon="6.48073">
        <ele>550</ele>
        <time>2012-11-24T10:16:10Z</time>
      </trkpt>
      <trkpt lat="46.34604" lon="6.48073">
        <ele>550</ele>
        <time>2012-11-24T10:16:11Z</time>
      </trkpt>
      <trkpt lat="46.34606" lon="6.48075">
        <ele>550</ele>
        <time>2012-11-24T10:16:14Z</time>
      </trkpt>
      <trkpt lat="46.34607" lon="6.48075">
        <ele>550</ele>
        <time>2012-11-24T10:16:14Z</time>
      </trkpt>
      <trkpt lat="46.34609" lon="6.48076">
        <ele>550</ele>
        <time>2012-11-24T10:16:15Z</time>
      </trkpt>
      <trkpt lat="46.34611" lon="6.48076">
        <ele>550</ele>
        <time>2012-11-24T10:16:16Z</time>
      </trkpt>
      <trkpt lat="46.34612" lon="6.48077">
        <ele>550</ele>
        <time>2012-11-24T10:16:17Z</time>
      </trkpt>
      <trkpt lat="46.34614" lon="6.48077">
        <ele>550</ele>
        <time>2012-11-24T10:16:19Z</time>
      </trkpt>
      <trkpt lat="46.34616" lon="6.48078">
        <ele>550</ele>
        <time>2012-11-24T10:16:19Z</time>
      </trkpt>
      <trkpt lat="46.34618" lon="6.48079">
        <ele>550</ele>
        <time>2012-11-24T10:16:20Z</time>
      </trkpt>
      <trkpt lat="46.3462" lon="6.4808">
        <ele>550</ele>
        <time>2012-11-24T10:16:21Z</time>
      </trkpt>
      <trkpt lat="46.34621" lon="6.48082">
        <ele>550</ele>
        <time>2012-11-24T10:16:22Z</time>
      </trkpt>
      <trkpt lat="46.34623" lon="6.48084">
        <ele>550</ele>
        <time>2012-11-24T10:16:23Z</time>
      </trkpt>
      <trkpt lat="46.34626" lon="6.48087">
        <ele>550</ele>
        <time>2012-11-24T10:16:24Z</time>
      </trkpt>
      <trkpt lat="46.34628" lon="6.48089">
        <ele>550</ele>
        <time>2012-11-24T10:16:25Z</time>
      </trkpt>
      <trkpt lat="46.3463" lon="6.4809">
        <ele>550</ele>
        <time>2012-11-24T10:16:26Z</time>
      </trkpt>
      <trkpt lat="46.34633" lon="6.48092">
        <ele>550</ele>
        <time>2012-11-24T10:16:27Z</time>
      </trkpt>
      <trkpt lat="46.34635" lon="6.48093">
        <ele>550</ele>
        <time>2012-11-24T10:16:29Z</time>
      </trkpt>
      <trkpt lat="46.34637" lon="6.48094">
        <ele>550</ele>
        <time>2012-11-24T10:16:29Z</time>
      </trkpt>
      <trkpt lat="46.3464" lon="6.48095">
        <ele>550</ele>
        <time>2012-11-24T10:16:30Z</time>
      </trkpt>
      <trkpt lat="46.34642" lon="6.48096">
        <ele>550</ele>
        <time>2012-11-24T10:16:31Z</time>
      </trkpt>
      <trkpt lat="46.34644" lon="6.48097">
        <ele>550</ele>
        <time>2012-11-24T10:16:32Z</time>
      </trkpt>
      <trkpt lat="46.34646" lon="6.48097">
        <ele>550</ele>
        <time>2012-11-24T10:16:34Z</time>
      </trkpt>
      <trkpt lat="46.34648" lon="6.48098">
        <ele>550</ele>
        <time>2012-11-24T10:16:34Z</time>
      </trkpt>
      <trkpt lat="46.34651" lon="6.48098">
        <ele>550</ele>
        <time>2012-11-24T10:16:35Z</time>
      </trkpt>
      <trkpt lat="46.34653" lon="6.48098">
        <ele>550</ele>
        <time>2012-11-24T10:16:36Z</time>
      </trkpt>
      <trkpt lat="46.34655" lon="6.48098">
        <ele>550</ele>
        <time>2012-11-24T10:16:37Z</time>
      </trkpt>
      <trkpt lat="46.34657" lon="6.48099">
        <ele>550</ele>
        <time>2012-11-24T10:16:39Z</time>
      </trkpt>
      <trkpt lat="46.34659" lon="6.481">
        <ele>550</ele>
        <time>2012-11-24T10:16:39Z</time>
      </trkpt>
      <trkpt lat="46.34661" lon="6.48101">
        <ele>550</ele>
        <time>2012-11-24T10:16:40Z</time>
      </trkpt>
      <trkpt lat="46.34663" lon="6.48103">
        <ele>550</ele>
        <time>2012-11-24T10:16:41Z</time>
      </trkpt>
      <trkpt lat="46.34665" lon="6.48105">
        <ele>550</ele>
        <time>2012-11-24T10:16:42Z</time>
      </trkpt>
      <trkpt lat="46.34667" lon="6.48107">
        <ele>550</ele>
        <time>2012-11-24T10:16:43Z</time>
      </trkpt>
      <trkpt lat="46.34668" lon="6.48109">
        <ele>550</ele>
        <time>2012-11-24T10:16:44Z</time>
      </trkpt>
      <trkpt lat="46.3467" lon="6.4811">
        <ele>550</ele>
        <time>2012-11-24T10:16:45Z</time>
      </trkpt>
      <trkpt lat="46.34672" lon="6.48111">
        <ele>550</ele>
        <time>2012-11-24T10:16:46Z</time>
      </trkpt>
      <trkpt lat="46.34675" lon="6.48111">
        <ele>550</ele>
        <time>2012-11-24T10:16:47Z</time>
      </trkpt>
      <trkpt lat="46.34677" lon="6.48111">
        <ele>550</ele>
        <time>2012-11-24T10:16:49Z</time>
      </trkpt>
      <trkpt lat="46.34679" lon="6.48111">
        <ele>550</ele>
        <time>2012-11-24T10:16:49Z</time>
      </trkpt>
      <trkpt lat="46.34681" lon="6.48111">
        <ele>550</ele>
        <time>2012-11-24T10:16:50Z</time>
      </trkpt>
      <trkpt lat="46.34683" lon="6.4811">
        <ele>550</ele>
        <time>2012-11-24T10:16:51Z</time>
      </trkpt>
      <trkpt lat="46.34686" lon="6.4811">
        <ele>550</ele>
        <time>2012-11-24T10:16:52Z</time>
      </trkpt>
      <trkpt lat="46.34689" lon="6.48109">
        <ele>550</ele>
        <time>2012-11-24T10:16:53Z</time>
      </trkpt>
      <trkpt lat="46.34691" lon="6.48107">
        <ele>550</ele>
        <time>2012-11-24T10:16:54Z</time>
      </trkpt>
      <trkpt lat="46.34693" lon="6.48105">
        <ele>550</ele>
        <time>2012-11-24T10:16:55Z</time>
      </trkpt>
      <trkpt lat="46.34695" lon="6.48104">
        <ele>550</ele>
        <time>2012-11-24T10:16:56Z</time>
      </trkpt>
      <trkpt lat="46.34697" lon="6.48103">
        <ele>550</ele>
        <time>2012-11-24T10:16:57Z</time>
      </trkpt>
      <trkpt lat="46.34698" lon="6.48103">
        <ele>550</ele>
        <time>2012-11-24T10:16:59Z</time>
      </trkpt>
      <trkpt lat="46.347" lon="6.48103">
        <ele>550</ele>
        <time>2012-11-24T10:16:59Z</time>
      </trkpt>
      <trkpt lat="46.34702" lon="6.48102">
        <ele>550</ele>
        <time>2012-11-24T10:17:00Z</time>
      </trkpt>
      <trkpt lat="46.34703" lon="6.48102">
        <ele>550</ele>
        <time>2012-11-24T10:17:01Z</time>
      </trkpt>
      <trkpt lat="46.34705" lon="6.48103">
        <ele>550</ele>
        <time>2012-11-24T10:17:02Z</time>
      </trkpt>
      <trkpt lat="46.34707" lon="6.48103">
        <ele>550</ele>
        <time>2012-11-24T10:17:03Z</time>
      </trkpt>
      <trkpt lat="46.3471" lon="6.48103">
        <ele>550</ele>
        <time>2012-11-24T10:17:04Z</time>
      </trkpt>
      <trkpt lat="46.34713" lon="6.48103">
        <ele>550</ele>
        <time>2012-11-24T10:17:05Z</time>
      </trkpt>
      <trkpt lat="46.34715" lon="6.48103">
        <ele>550</ele>
        <time>2012-11-24T10:17:06Z</time>
      </trkpt>
      <trkpt lat="46.34718" lon="6.48103">
        <ele>550</ele>
        <time>2012-11-24T10:17:07Z</time>
      </trkpt>
      <trkpt lat="46.34721" lon="6.48104">
        <ele>550</ele>
        <time>2012-11-24T10:17:09Z</time>
      </trkpt>
      <trkpt lat="46.34725" lon="6.48103">
        <ele>550</ele>
        <time>2012-11-24T10:17:09Z</time>
      </trkpt>
      <trkpt lat="46.34728" lon="6.48103">
        <ele>550</ele>
        <time>2012-11-24T10:17:10Z</time>
      </trkpt>
      <trkpt lat="46.3473" lon="6.48103">
        <ele>550</ele>
        <time>2012-11-24T10:17:11Z</time>
      </trkpt>
      <trkpt lat="46.34733" lon="6.48103">
        <ele>550</ele>
        <time>2012-11-24T10:17:12Z</time>
      </trkpt>
      <trkpt lat="46.34736" lon="6.48103">
        <ele>550</ele>
        <time>2012-11-24T10:17:14Z</time>
      </trkpt>
      <trkpt lat="46.34739" lon="6.48103">
        <ele>550</ele>
        <time>2012-11-24T10:17:14Z</time>
      </trkpt>
      <trkpt lat="46.34741" lon="6.48103">
        <ele>550</ele>
        <time>2012-11-24T10:17:15Z</time>
      </trkpt>
      <trkpt lat="46.34744" lon="6.48103">
        <ele>550</ele>
        <time>2012-11-24T10:17:16Z</time>
      </trkpt>
      <trkpt lat="46.34747" lon="6.48102">
        <ele>550</ele>
        <time>2012-11-24T10:17:17Z</time>
      </trkpt>
      <trkpt lat="46.3475" lon="6.48102">
        <ele>550</ele>
        <time>2012-11-24T10:17:19Z</time>
      </trkpt>
      <trkpt lat="46.34753" lon="6.48102">
        <ele>550</ele>
        <time>2012-11-24T10:17:19Z</time>
      </trkpt>
      <trkpt lat="46.34756" lon="6.48101">
        <ele>550</ele>
        <time>2012-11-24T10:17:20Z</time>
      </trkpt>
      <trkpt lat="46.34758" lon="6.48101">
        <ele>550</ele>
        <time>2012-11-24T10:17:21Z</time>
      </trkpt>
      <trkpt lat="46.34761" lon="6.48101">
        <ele>550</ele>
        <time>2012-11-24T10:17:22Z</time>
      </trkpt>
      <trkpt lat="46.34764" lon="6.481">
        <ele>550</ele>
        <time>2012-11-24T10:17:24Z</time>
      </trkpt>
      <trkpt lat="46.34766" lon="6.48099">
        <ele>550</ele>
        <time>2012-11-24T10:17:24Z</time>
      </trkpt>
      <trkpt lat="46.34769" lon="6.48099">
        <ele>550</ele>
        <time>2012-11-24T10:17:25Z</time>
      </trkpt>
      <trkpt lat="46.34772" lon="6.48099">
        <ele>550</ele>
        <time>2012-11-24T10:17:26Z</time>
      </trkpt>
      <trkpt lat="46.34774" lon="6.481">
        <ele>550</ele>
        <time>2012-11-24T10:17:27Z</time>
      </trkpt>
      <trkpt lat="46.34777" lon="6.48101">
        <ele>550</ele>
        <time>2012-11-24T10:17:29Z</time>
      </trkpt>
      <trkpt lat="46.34779" lon="6.48103">
        <ele>550</ele>
        <time>2012-11-24T10:17:29Z</time>
      </trkpt>
      <trkpt lat="46.34781" lon="6.48104">
        <ele>550</ele>
        <time>2012-11-24T10:17:30Z</time>
      </trkpt>
      <trkpt lat="46.34783" lon="6.48107">
        <ele>550</ele>
        <time>2012-11-24T10:17:31Z</time>
      </trkpt>
      <trkpt lat="46.34785" lon="6.48109">
        <ele>550</ele>
        <time>2012-11-24T10:17:32Z</time>
      </trkpt>
      <trkpt lat="46.34787" lon="6.48111">
        <ele>550</ele>
        <time>2012-11-24T10:17:33Z</time>
      </trkpt>
      <trkpt lat="46.34789" lon="6.48113">
        <ele>550</ele>
        <time>2012-11-24T10:17:34Z</time>
      </trkpt>
      <trkpt lat="46.34791" lon="6.48114">
        <ele>551</ele>
        <time>2012-11-24T10:17:35Z</time>
      </trkpt>
      <trkpt lat="46.34793" lon="6.48116">
        <ele>551</ele>
        <time>2012-11-24T10:17:36Z</time>
      </trkpt>
      <trkpt lat="46.34795" lon="6.48116">
        <ele>552</ele>
        <time>2012-11-24T10:17:37Z</time>
      </trkpt>
      <trkpt lat="46.34798" lon="6.48117">
        <ele>552</ele>
        <time>2012-11-24T10:17:39Z</time>
      </trkpt>
      <trkpt lat="46.348" lon="6.48118">
        <ele>552</ele>
        <time>2012-11-24T10:17:39Z</time>
      </trkpt>
      <trkpt lat="46.34802" lon="6.48119">
        <ele>553</ele>
        <time>2012-11-24T10:17:40Z</time>
      </trkpt>
      <trkpt lat="46.34804" lon="6.4812">
        <ele>553</ele>
        <time>2012-11-24T10:17:41Z</time>
      </trkpt>
      <trkpt lat="46.34807" lon="6.4812">
        <ele>553</ele>
        <time>2012-11-24T10:17:42Z</time>
      </trkpt>
      <trkpt lat="46.3481" lon="6.48119">
        <ele>554</ele>
        <time>2012-11-24T10:17:44Z</time>
      </trkpt>
      <trkpt lat="46.34814" lon="6.4812">
        <ele>554</ele>
        <time>2012-11-24T10:17:44Z</time>
      </trkpt>
      <trkpt lat="46.34817" lon="6.48119">
        <ele>554</ele>
        <time>2012-11-24T10:17:45Z</time>
      </trkpt>
      <trkpt lat="46.3482" lon="6.48119">
        <ele>554</ele>
        <time>2012-11-24T10:17:46Z</time>
      </trkpt>
      <trkpt lat="46.34824" lon="6.4812">
        <ele>554</ele>
        <time>2012-11-24T10:17:47Z</time>
      </trkpt>
      <trkpt lat="46.34827" lon="6.4812">
        <ele>555</ele>
        <time>2012-11-24T10:17:48Z</time>
      </trkpt>
      <trkpt lat="46.34829" lon="6.4812">
        <ele>556</ele>
        <time>2012-11-24T10:17:49Z</time>
      </trkpt>
      <trkpt lat="46.34831" lon="6.48119">
        <ele>557</ele>
        <time>2012-11-24T10:17:50Z</time>
      </trkpt>
      <trkpt lat="46.34834" lon="6.4812">
        <ele>557</ele>
        <time>2012-11-24T10:17:51Z</time>
      </trkpt>
      <trkpt lat="46.34836" lon="6.4812">
        <ele>557</ele>
        <time>2012-11-24T10:17:52Z</time>
      </trkpt>
      <trkpt lat="46.34838" lon="6.4812">
        <ele>557</ele>
        <time>2012-11-24T10:17:54Z</time>
      </trkpt>
      <trkpt lat="46.34841" lon="6.48121">
        <ele>557</ele>
        <time>2012-11-24T10:17:54Z</time>
      </trkpt>
      <trkpt lat="46.34843" lon="6.4812">
        <ele>557</ele>
        <time>2012-11-24T10:17:55Z</time>
      </trkpt>
      <trkpt lat="46.34846" lon="6.48119">
        <ele>557</ele>
        <time>2012-11-24T10:17:57Z</time>
      </trkpt>
      <trkpt lat="46.34848" lon="6.4812">
        <ele>557</ele>
        <time>2012-11-24T10:17:59Z</time>
      </trkpt>
      <trkpt lat="46.34851" lon="6.4812">
        <ele>557</ele>
        <time>2012-11-24T10:17:59Z</time>
      </trkpt>
      <trkpt lat="46.34853" lon="6.48122">
        <ele>557</ele>
        <time>2012-11-24T10:18:00Z</time>
      </trkpt>
      <trkpt lat="46.34856" lon="6.48123">
        <ele>557</ele>
        <time>2012-11-24T10:18:01Z</time>
      </trkpt>
      <trkpt lat="46.34858" lon="6.48124">
        <ele>557</ele>
        <time>2012-11-24T10:18:02Z</time>
      </trkpt>
      <trkpt lat="46.34861" lon="6.48124">
        <ele>557</ele>
        <time>2012-11-24T10:18:04Z</time>
      </trkpt>
      <trkpt lat="46.34864" lon="6.48124">
        <ele>557</ele>
        <time>2012-11-24T10:18:04Z</time>
      </trkpt>
      <trkpt lat="46.34866" lon="6.48124">
        <ele>557</ele>
        <time>2012-11-24T10:18:05Z</time>
      </trkpt>
      <trkpt lat="46.34869" lon="6.48124">
        <ele>557</ele>
        <time>2012-11-24T10:18:06Z</time>
      </trkpt>
      <trkpt lat="46.34871" lon="6.48124">
        <ele>557</ele>
        <time>2012-11-24T10:18:07Z</time>
      </trkpt>
      <trkpt lat="46.34873" lon="6.48125">
        <ele>557</ele>
        <time>2012-11-24T10:18:09Z</time>
      </trkpt>
      <trkpt lat="46.34876" lon="6.48126">
        <ele>557</ele>
        <time>2012-11-24T10:18:09Z</time>
      </trkpt>
      <trkpt lat="46.34879" lon="6.48127">
        <ele>557</ele>
        <time>2012-11-24T10:18:10Z</time>
      </trkpt>
      <trkpt lat="46.34881" lon="6.48127">
        <ele>557</ele>
        <time>2012-11-24T10:18:11Z</time>
      </trkpt>
      <trkpt lat="46.34883" lon="6.48127">
        <ele>557</ele>
        <time>2012-11-24T10:18:12Z</time>
      </trkpt>
      <trkpt lat="46.34886" lon="6.48128">
        <ele>557</ele>
        <time>2012-11-24T10:18:13Z</time>
      </trkpt>
      <trkpt lat="46.34888" lon="6.48129">
        <ele>557</ele>
        <time>2012-11-24T10:18:14Z</time>
      </trkpt>
      <trkpt lat="46.34891" lon="6.48129">
        <ele>557</ele>
        <time>2012-11-24T10:18:15Z</time>
      </trkpt>
      <trkpt lat="46.34893" lon="6.4813">
        <ele>557</ele>
        <time>2012-11-24T10:18:16Z</time>
      </trkpt>
      <trkpt lat="46.34896" lon="6.48131">
        <ele>557</ele>
        <time>2012-11-24T10:18:17Z</time>
      </trkpt>
      <trkpt lat="46.349" lon="6.48132">
        <ele>557</ele>
        <time>2012-11-24T10:18:19Z</time>
      </trkpt>
      <trkpt lat="46.34903" lon="6.48132">
        <ele>557</ele>
        <time>2012-11-24T10:18:19Z</time>
      </trkpt>
      <trkpt lat="46.34905" lon="6.48132">
        <ele>557</ele>
        <time>2012-11-24T10:18:20Z</time>
      </trkpt>
      <trkpt lat="46.34907" lon="6.48132">
        <ele>557</ele>
        <time>2012-11-24T10:18:21Z</time>
      </trkpt>
      <trkpt lat="46.34908" lon="6.48131">
        <ele>557</ele>
        <time>2012-11-24T10:18:22Z</time>
      </trkpt>
      <trkpt lat="46.3491" lon="6.48132">
        <ele>557</ele>
        <time>2012-11-24T10:18:24Z</time>
      </trkpt>
      <trkpt lat="46.34911" lon="6.48132">
        <ele>557</ele>
        <time>2012-11-24T10:18:24Z</time>
      </trkpt>
      <trkpt lat="46.34914" lon="6.48132">
        <ele>557</ele>
        <time>2012-11-24T10:18:25Z</time>
      </trkpt>
      <trkpt lat="46.34916" lon="6.48132">
        <ele>556</ele>
        <time>2012-11-24T10:18:26Z</time>
      </trkpt>
      <trkpt lat="46.34918" lon="6.48133">
        <ele>556</ele>
        <time>2012-11-24T10:18:27Z</time>
      </trkpt>
      <trkpt lat="46.34919" lon="6.48134">
        <ele>555</ele>
        <time>2012-11-24T10:18:29Z</time>
      </trkpt>
      <trkpt lat="46.34922" lon="6.48135">
        <ele>555</ele>
        <time>2012-11-24T10:18:29Z</time>
      </trkpt>
      <trkpt lat="46.34925" lon="6.48136">
        <ele>555</ele>
        <time>2012-11-24T10:18:30Z</time>
      </trkpt>
      <trkpt lat="46.34928" lon="6.48137">
        <ele>555</ele>
        <time>2012-11-24T10:18:31Z</time>
      </trkpt>
      <trkpt lat="46.34931" lon="6.48139">
        <ele>555</ele>
        <time>2012-11-24T10:18:32Z</time>
      </trkpt>
      <trkpt lat="46.34933" lon="6.4814">
        <ele>555</ele>
        <time>2012-11-24T10:18:34Z</time>
      </trkpt>
      <trkpt lat="46.34936" lon="6.48141">
        <ele>555</ele>
        <time>2012-11-24T10:18:34Z</time>
      </trkpt>
      <trkpt lat="46.34938" lon="6.48143">
        <ele>555</ele>
        <time>2012-11-24T10:18:35Z</time>
      </trkpt>
      <trkpt lat="46.3494" lon="6.48144">
        <ele>555</ele>
        <time>2012-11-24T10:18:36Z</time>
      </trkpt>
      <trkpt lat="46.34942" lon="6.48144">
        <ele>555</ele>
        <time>2012-11-24T10:18:37Z</time>
      </trkpt>
      <trkpt lat="46.34945" lon="6.48144">
        <ele>555</ele>
        <time>2012-11-24T10:18:39Z</time>
      </trkpt>
      <trkpt lat="46.34947" lon="6.48144">
        <ele>555</ele>
        <time>2012-11-24T10:18:39Z</time>
      </trkpt>
      <trkpt lat="46.3495" lon="6.48144">
        <ele>555</ele>
        <time>2012-11-24T10:18:40Z</time>
      </trkpt>
      <trkpt lat="46.34953" lon="6.48145">
        <ele>555</ele>
        <time>2012-11-24T10:18:41Z</time>
      </trkpt>
      <trkpt lat="46.34955" lon="6.48144">
        <ele>555</ele>
        <time>2012-11-24T10:18:42Z</time>
      </trkpt>
      <trkpt lat="46.34957" lon="6.48145">
        <ele>555</ele>
        <time>2012-11-24T10:18:44Z</time>
      </trkpt>
      <trkpt lat="46.34959" lon="6.48145">
        <ele>554</ele>
        <time>2012-11-24T10:18:44Z</time>
      </trkpt>
      <trkpt lat="46.34961" lon="6.48147">
        <ele>554</ele>
        <time>2012-11-24T10:18:45Z</time>
      </trkpt>
      <trkpt lat="46.34964" lon="6.48149">
        <ele>554</ele>
        <time>2012-11-24T10:18:46Z</time>
      </trkpt>
      <trkpt lat="46.34967" lon="6.48151">
        <ele>553</ele>
        <time>2012-11-24T10:18:47Z</time>
      </trkpt>
      <trkpt lat="46.34969" lon="6.48152">
        <ele>553</ele>
        <time>2012-11-24T10:18:48Z</time>
      </trkpt>
      <trkpt lat="46.34972" lon="6.48152">
        <ele>553</ele>
        <time>2012-11-24T10:18:49Z</time>
      </trkpt>
      <trkpt lat="46.34975" lon="6.48153">
        <ele>553</ele>
        <time>2012-11-24T10:18:50Z</time>
      </trkpt>
      <trkpt lat="46.34977" lon="6.48154">
        <ele>553</ele>
        <time>2012-11-24T10:18:51Z</time>
      </trkpt>
      <trkpt lat="46.3498" lon="6.48156">
        <ele>553</ele>
        <time>2012-11-24T10:18:52Z</time>
      </trkpt>
      <trkpt lat="46.34982" lon="6.48157">
        <ele>553</ele>
        <time>2012-11-24T10:18:53Z</time>
      </trkpt>
      <trkpt lat="46.34984" lon="6.4816">
        <ele>553</ele>
        <time>2012-11-24T10:18:54Z</time>
      </trkpt>
      <trkpt lat="46.34986" lon="6.48162">
        <ele>553</ele>
        <time>2012-11-24T10:18:55Z</time>
      </trkpt>
      <trkpt lat="46.34989" lon="6.48165">
        <ele>553</ele>
        <time>2012-11-24T10:18:56Z</time>
      </trkpt>
      <trkpt lat="46.34991" lon="6.48167">
        <ele>553</ele>
        <time>2012-11-24T10:18:57Z</time>
      </trkpt>
      <trkpt lat="46.34993" lon="6.48169">
        <ele>553</ele>
        <time>2012-11-24T10:18:59Z</time>
      </trkpt>
      <trkpt lat="46.34996" lon="6.4817">
        <ele>553</ele>
        <time>2012-11-24T10:18:59Z</time>
      </trkpt>
      <trkpt lat="46.34999" lon="6.48171">
        <ele>553</ele>
        <time>2012-11-24T10:19:00Z</time>
      </trkpt>
      <trkpt lat="46.35001" lon="6.48173">
        <ele>553</ele>
        <time>2012-11-24T10:19:01Z</time>
      </trkpt>
      <trkpt lat="46.35003" lon="6.48174">
        <ele>553</ele>
        <time>2012-11-24T10:19:02Z</time>
      </trkpt>
      <trkpt lat="46.35005" lon="6.48174">
        <ele>553</ele>
        <time>2012-11-24T10:19:04Z</time>
      </trkpt>
      <trkpt lat="46.35008" lon="6.48175">
        <ele>553</ele>
        <time>2012-11-24T10:19:04Z</time>
      </trkpt>
      <trkpt lat="46.3501" lon="6.48177">
        <ele>553</ele>
        <time>2012-11-24T10:19:05Z</time>
      </trkpt>
      <trkpt lat="46.35012" lon="6.48178">
        <ele>553</ele>
        <time>2012-11-24T10:19:06Z</time>
      </trkpt>
      <trkpt lat="46.35015" lon="6.4818">
        <ele>553</ele>
        <time>2012-11-24T10:19:07Z</time>
      </trkpt>
      <trkpt lat="46.35017" lon="6.48183">
        <ele>553</ele>
        <time>2012-11-24T10:19:09Z</time>
      </trkpt>
      <trkpt lat="46.3502" lon="6.48185">
        <ele>553</ele>
        <time>2012-11-24T10:19:09Z</time>
      </trkpt>
      <trkpt lat="46.35022" lon="6.48187">
        <ele>553</ele>
        <time>2012-11-24T10:19:10Z</time>
      </trkpt>
      <trkpt lat="46.35024" lon="6.48189">
        <ele>553</ele>
        <time>2012-11-24T10:19:11Z</time>
      </trkpt>
      <trkpt lat="46.35026" lon="6.48191">
        <ele>553</ele>
        <time>2012-11-24T10:19:12Z</time>
      </trkpt>
      <trkpt lat="46.35027" lon="6.48194">
        <ele>553</ele>
        <time>2012-11-24T10:19:13Z</time>
      </trkpt>
      <trkpt lat="46.35029" lon="6.48196">
        <ele>553</ele>
        <time>2012-11-24T10:19:14Z</time>
      </trkpt>
      <trkpt lat="46.3503" lon="6.48197">
        <ele>553</ele>
        <time>2012-11-24T10:19:15Z</time>
      </trkpt>
      <trkpt lat="46.35032" lon="6.48199">
        <ele>553</ele>
        <time>2012-11-24T10:19:16Z</time>
      </trkpt>
      <trkpt lat="46.35035" lon="6.48201">
        <ele>553</ele>
        <time>2012-11-24T10:19:17Z</time>
      </trkpt>
      <trkpt lat="46.35037" lon="6.48203">
        <ele>553</ele>
        <time>2012-11-24T10:19:19Z</time>
      </trkpt>
      <trkpt lat="46.35038" lon="6.48205">
        <ele>553</ele>
        <time>2012-11-24T10:19:19Z</time>
      </trkpt>
      <trkpt lat="46.35041" lon="6.48208">
        <ele>553</ele>
        <time>2012-11-24T10:19:20Z</time>
      </trkpt>
      <trkpt lat="46.35043" lon="6.48211">
        <ele>553</ele>
        <time>2012-11-24T10:19:21Z</time>
      </trkpt>
      <trkpt lat="46.35045" lon="6.48213">
        <ele>553</ele>
        <time>2012-11-24T10:19:22Z</time>
      </trkpt>
      <trkpt lat="46.35048" lon="6.48216">
        <ele>553</ele>
        <time>2012-11-24T10:19:24Z</time>
      </trkpt>
      <trkpt lat="46.3505" lon="6.48218">
        <ele>553</ele>
        <time>2012-11-24T10:19:24Z</time>
      </trkpt>
      <trkpt lat="46.35052" lon="6.48221">
        <ele>553</ele>
        <time>2012-11-24T10:19:25Z</time>
      </trkpt>
      <trkpt lat="46.35054" lon="6.48224">
        <ele>553</ele>
        <time>2012-11-24T10:19:26Z</time>
      </trkpt>
      <trkpt lat="46.35056" lon="6.48226">
        <ele>553</ele>
        <time>2012-11-24T10:19:27Z</time>
      </trkpt>
      <trkpt lat="46.35058" lon="6.48229">
        <ele>553</ele>
        <time>2012-11-24T10:19:28Z</time>
      </trkpt>
      <trkpt lat="46.3506" lon="6.48232">
        <ele>553</ele>
        <time>2012-11-24T10:19:29Z</time>
      </trkpt>
      <trkpt lat="46.35062" lon="6.48235">
        <ele>553</ele>
        <time>2012-11-24T10:19:30Z</time>
      </trkpt>
      <trkpt lat="46.35064" lon="6.48237">
        <ele>553</ele>
        <time>2012-11-24T10:19:31Z</time>
      </trkpt>
      <trkpt lat="46.35067" lon="6.4824">
        <ele>553</ele>
        <time>2012-11-24T10:19:32Z</time>
      </trkpt>
      <trkpt lat="46.35069" lon="6.48242">
        <ele>553</ele>
        <time>2012-11-24T10:19:34Z</time>
      </trkpt>
      <trkpt lat="46.35071" lon="6.48244">
        <ele>553</ele>
        <time>2012-11-24T10:19:34Z</time>
      </trkpt>
      <trkpt lat="46.35073" lon="6.48248">
        <ele>553</ele>
        <time>2012-11-24T10:19:35Z</time>
      </trkpt>
      <trkpt lat="46.35075" lon="6.48251">
        <ele>553</ele>
        <time>2012-11-24T10:19:36Z</time>
      </trkpt>
      <trkpt lat="46.35077" lon="6.48254">
        <ele>553</ele>
        <time>2012-11-24T10:19:37Z</time>
      </trkpt>
      <trkpt lat="46.35079" lon="6.48257">
        <ele>553</ele>
        <time>2012-11-24T10:19:39Z</time>
      </trkpt>
      <trkpt lat="46.35082" lon="6.4826">
        <ele>553</ele>
        <time>2012-11-24T10:19:39Z</time>
      </trkpt>
      <trkpt lat="46.35084" lon="6.48262">
        <ele>553</ele>
        <time>2012-11-24T10:19:40Z</time>
      </trkpt>
      <trkpt lat="46.35085" lon="6.48265">
        <ele>553</ele>
        <time>2012-11-24T10:19:41Z</time>
      </trkpt>
      <trkpt lat="46.35087" lon="6.48268">
        <ele>553</ele>
        <time>2012-11-24T10:19:42Z</time>
      </trkpt>
      <trkpt lat="46.35089" lon="6.4827">
        <ele>553</ele>
        <time>2012-11-24T10:19:43Z</time>
      </trkpt>
      <trkpt lat="46.35091" lon="6.48273">
        <ele>553</ele>
        <time>2012-11-24T10:19:44Z</time>
      </trkpt>
      <trkpt lat="46.35093" lon="6.48276">
        <ele>553</ele>
        <time>2012-11-24T10:19:45Z</time>
      </trkpt>
      <trkpt lat="46.35094" lon="6.48279">
        <ele>553</ele>
        <time>2012-11-24T10:19:46Z</time>
      </trkpt>
      <trkpt lat="46.35096" lon="6.48282">
        <ele>552</ele>
        <time>2012-11-24T10:19:47Z</time>
      </trkpt>
      <trkpt lat="46.35097" lon="6.48286">
        <ele>552</ele>
        <time>2012-11-24T10:19:49Z</time>
      </trkpt>
      <trkpt lat="46.35099" lon="6.48289">
        <ele>552</ele>
        <time>2012-11-24T10:19:49Z</time>
      </trkpt>
      <trkpt lat="46.351" lon="6.48293">
        <ele>551</ele>
        <time>2012-11-24T10:19:50Z</time>
      </trkpt>
      <trkpt lat="46.35102" lon="6.48296">
        <ele>551</ele>
        <time>2012-11-24T10:19:51Z</time>
      </trkpt>
      <trkpt lat="46.35104" lon="6.483">
        <ele>551</ele>
        <time>2012-11-24T10:19:52Z</time>
      </trkpt>
      <trkpt lat="46.35106" lon="6.48303">
        <ele>551</ele>
        <time>2012-11-24T10:19:54Z</time>
      </trkpt>
      <trkpt lat="46.35108" lon="6.48307">
        <ele>551</ele>
        <time>2012-11-24T10:19:54Z</time>
      </trkpt>
      <trkpt lat="46.3511" lon="6.4831">
        <ele>550</ele>
        <time>2012-11-24T10:19:55Z</time>
      </trkpt>
      <trkpt lat="46.35112" lon="6.48313">
        <ele>550</ele>
        <time>2012-11-24T10:19:56Z</time>
      </trkpt>
      <trkpt lat="46.35113" lon="6.48317">
        <ele>550</ele>
        <time>2012-11-24T10:19:57Z</time>
      </trkpt>
      <trkpt lat="46.35115" lon="6.48319">
        <ele>549</ele>
        <time>2012-11-24T10:19:58Z</time>
      </trkpt>
      <trkpt lat="46.35117" lon="6.48322">
        <ele>549</ele>
        <time>2012-11-24T10:19:59Z</time>
      </trkpt>
      <trkpt lat="46.35118" lon="6.48325">
        <ele>549</ele>
        <time>2012-11-24T10:20:00Z</time>
      </trkpt>
      <trkpt lat="46.3512" lon="6.48329">
        <ele>549</ele>
        <time>2012-11-24T10:20:01Z</time>
      </trkpt>
      <trkpt lat="46.35123" lon="6.48332">
        <ele>549</ele>
        <time>2012-11-24T10:20:02Z</time>
      </trkpt>
      <trkpt lat="46.35125" lon="6.48335">
        <ele>549</ele>
        <time>2012-11-24T10:20:04Z</time>
      </trkpt>
      <trkpt lat="46.35127" lon="6.48337">
        <ele>549</ele>
        <time>2012-11-24T10:20:04Z</time>
      </trkpt>
      <trkpt lat="46.3513" lon="6.4834">
        <ele>549</ele>
        <time>2012-11-24T10:20:05Z</time>
      </trkpt>
      <trkpt lat="46.35132" lon="6.48343">
        <ele>549</ele>
        <time>2012-11-24T10:20:06Z</time>
      </trkpt>
      <trkpt lat="46.35133" lon="6.48346">
        <ele>548</ele>
        <time>2012-11-24T10:20:07Z</time>
      </trkpt>
      <trkpt lat="46.35135" lon="6.48349">
        <ele>547</ele>
        <time>2012-11-24T10:20:08Z</time>
      </trkpt>
      <trkpt lat="46.35137" lon="6.48352">
        <ele>547</ele>
        <time>2012-11-24T10:20:09Z</time>
      </trkpt>
      <trkpt lat="46.35139" lon="6.48356">
        <ele>546</ele>
        <time>2012-11-24T10:20:10Z</time>
      </trkpt>
      <trkpt lat="46.35141" lon="6.48359">
        <ele>545</ele>
        <time>2012-11-24T10:20:11Z</time>
      </trkpt>
      <trkpt lat="46.35143" lon="6.48361">
        <ele>544</ele>
        <time>2012-11-24T10:20:12Z</time>
      </trkpt>
      <trkpt lat="46.35145" lon="6.48364">
        <ele>543</ele>
        <time>2012-11-24T10:20:13Z</time>
      </trkpt>
      <trkpt lat="46.35146" lon="6.48368">
        <ele>542</ele>
        <time>2012-11-24T10:20:14Z</time>
      </trkpt>
      <trkpt lat="46.35148" lon="6.48371">
        <ele>541</ele>
        <time>2012-11-24T10:20:15Z</time>
      </trkpt>
      <trkpt lat="46.3515" lon="6.48373">
        <ele>540</ele>
        <time>2012-11-24T10:20:16Z</time>
      </trkpt>
      <trkpt lat="46.35152" lon="6.48376">
        <ele>539</ele>
        <time>2012-11-24T10:20:17Z</time>
      </trkpt>
      <trkpt lat="46.35154" lon="6.4838">
        <ele>538</ele>
        <time>2012-11-24T10:20:19Z</time>
      </trkpt>
      <trkpt lat="46.35156" lon="6.48383">
        <ele>538</ele>
        <time>2012-11-24T10:20:19Z</time>
      </trkpt>
      <trkpt lat="46.35157" lon="6.48387">
        <ele>538</ele>
        <time>2012-11-24T10:20:20Z</time>
      </trkpt>
      <trkpt lat="46.35159" lon="6.48389">
        <ele>538</ele>
        <time>2012-11-24T10:20:21Z</time>
      </trkpt>
      <trkpt lat="46.35162" lon="6.48392">
        <ele>538</ele>
        <time>2012-11-24T10:20:22Z</time>
      </trkpt>
      <trkpt lat="46.35164" lon="6.48394">
        <ele>538</ele>
        <time>2012-11-24T10:20:23Z</time>
      </trkpt>
      <trkpt lat="46.35166" lon="6.48397">
        <ele>538</ele>
        <time>2012-11-24T10:20:24Z</time>
      </trkpt>
      <trkpt lat="46.35169" lon="6.48399">
        <ele>538</ele>
        <time>2012-11-24T10:20:25Z</time>
      </trkpt>
      <trkpt lat="46.35172" lon="6.484">
        <ele>538</ele>
        <time>2012-11-24T10:20:26Z</time>
      </trkpt>
      <trkpt lat="46.35175" lon="6.484">
        <ele>538</ele>
        <time>2012-11-24T10:20:27Z</time>
      </trkpt>
      <trkpt lat="46.35178" lon="6.48401">
        <ele>538</ele>
        <time>2012-11-24T10:20:28Z</time>
      </trkpt>
      <trkpt lat="46.3518" lon="6.48402">
        <ele>538</ele>
        <time>2012-11-24T10:20:29Z</time>
      </trkpt>
      <trkpt lat="46.35183" lon="6.48403">
        <ele>538</ele>
        <time>2012-11-24T10:20:30Z</time>
      </trkpt>
      <trkpt lat="46.35186" lon="6.48404">
        <ele>538</ele>
        <time>2012-11-24T10:20:31Z</time>
      </trkpt>
      <trkpt lat="46.35189" lon="6.48405">
        <ele>538</ele>
        <time>2012-11-24T10:20:32Z</time>
      </trkpt>
      <trkpt lat="46.35193" lon="6.48405">
        <ele>538</ele>
        <time>2012-11-24T10:20:33Z</time>
      </trkpt>
      <trkpt lat="46.35196" lon="6.48405">
        <ele>538</ele>
        <time>2012-11-24T10:20:34Z</time>
      </trkpt>
      <trkpt lat="46.35198" lon="6.48405">
        <ele>538</ele>
        <time>2012-11-24T10:20:35Z</time>
      </trkpt>
      <trkpt lat="46.35201" lon="6.48405">
        <ele>538</ele>
        <time>2012-11-24T10:20:36Z</time>
      </trkpt>
      <trkpt lat="46.35203" lon="6.48405">
        <ele>538</ele>
        <time>2012-11-24T10:20:37Z</time>
      </trkpt>
      <trkpt lat="46.35205" lon="6.48404">
        <ele>538</ele>
        <time>2012-11-24T10:20:38Z</time>
      </trkpt>
      <trkpt lat="46.35207" lon="6.48405">
        <ele>538</ele>
        <time>2012-11-24T10:20:39Z</time>
      </trkpt>
      <trkpt lat="46.35207" lon="6.48407">
        <ele>538</ele>
        <time>2012-11-24T10:20:40Z</time>
      </trkpt>
      <trkpt lat="46.35208" lon="6.48409">
        <ele>538</ele>
        <time>2012-11-24T10:20:41Z</time>
      </trkpt>
      <trkpt lat="46.35209" lon="6.48409">
        <ele>538</ele>
        <time>2012-11-24T10:20:42Z</time>
      </trkpt>
      <trkpt lat="46.35211" lon="6.4841">
        <ele>538</ele>
        <time>2012-11-24T10:20:43Z</time>
      </trkpt>
      <trkpt lat="46.35213" lon="6.4841">
        <ele>538</ele>
        <time>2012-11-24T10:20:44Z</time>
      </trkpt>
      <trkpt lat="46.35216" lon="6.4841">
        <ele>538</ele>
        <time>2012-11-24T10:20:45Z</time>
      </trkpt>
      <trkpt lat="46.35217" lon="6.48409">
        <ele>538</ele>
        <time>2012-11-24T10:20:46Z</time>
      </trkpt>
      <trkpt lat="46.35219" lon="6.48408">
        <ele>538</ele>
        <time>2012-11-24T10:20:47Z</time>
      </trkpt>
      <trkpt lat="46.3522" lon="6.48407">
        <ele>538</ele>
        <time>2012-11-24T10:20:48Z</time>
      </trkpt>
      <trkpt lat="46.35222" lon="6.48405">
        <ele>538</ele>
        <time>2012-11-24T10:20:50Z</time>
      </trkpt>
      <trkpt lat="46.35223" lon="6.48404">
        <ele>538</ele>
        <time>2012-11-24T10:20:51Z</time>
      </trkpt>
      <trkpt lat="46.35225" lon="6.48404">
        <ele>538</ele>
        <time>2012-11-24T10:20:52Z</time>
      </trkpt>
      <trkpt lat="46.35227" lon="6.48403">
        <ele>538</ele>
        <time>2012-11-24T10:20:54Z</time>
      </trkpt>
      <trkpt lat="46.35228" lon="6.48402">
        <ele>538</ele>
        <time>2012-11-24T10:20:54Z</time>
      </trkpt>
      <trkpt lat="46.3523" lon="6.48401">
        <ele>538</ele>
        <time>2012-11-24T10:20:55Z</time>
      </trkpt>
      <trkpt lat="46.35232" lon="6.484">
        <ele>537</ele>
        <time>2012-11-24T10:20:56Z</time>
      </trkpt>
      <trkpt lat="46.35236" lon="6.484">
        <ele>537</ele>
        <time>2012-11-24T10:20:57Z</time>
      </trkpt>
      <trkpt lat="46.35239" lon="6.484">
        <ele>536</ele>
        <time>2012-11-24T10:20:58Z</time>
      </trkpt>
      <trkpt lat="46.35241" lon="6.484">
        <ele>536</ele>
        <time>2012-11-24T10:20:59Z</time>
      </trkpt>
      <trkpt lat="46.35243" lon="6.48401">
        <ele>535</ele>
        <time>2012-11-24T10:21:00Z</time>
      </trkpt>
      <trkpt lat="46.35245" lon="6.48403">
        <ele>535</ele>
        <time>2012-11-24T10:21:01Z</time>
      </trkpt>
      <trkpt lat="46.35247" lon="6.48405">
        <ele>534</ele>
        <time>2012-11-24T10:21:02Z</time>
      </trkpt>
      <trkpt lat="46.35249" lon="6.48406">
        <ele>534</ele>
        <time>2012-11-24T10:21:03Z</time>
      </trkpt>
      <trkpt lat="46.35252" lon="6.48408">
        <ele>534</ele>
        <time>2012-11-24T10:21:04Z</time>
      </trkpt>
      <trkpt lat="46.35255" lon="6.48409">
        <ele>534</ele>
        <time>2012-11-24T10:21:05Z</time>
      </trkpt>
      <trkpt lat="46.35258" lon="6.48409">
        <ele>534</ele>
        <time>2012-11-24T10:21:06Z</time>
      </trkpt>
      <trkpt lat="46.35261" lon="6.48409">
        <ele>534</ele>
        <time>2012-11-24T10:21:07Z</time>
      </trkpt>
      <trkpt lat="46.35263" lon="6.4841">
        <ele>534</ele>
        <time>2012-11-24T10:21:08Z</time>
      </trkpt>
      <trkpt lat="46.35265" lon="6.4841">
        <ele>534</ele>
        <time>2012-11-24T10:21:09Z</time>
      </trkpt>
      <trkpt lat="46.35266" lon="6.48411">
        <ele>533</ele>
        <time>2012-11-24T10:21:10Z</time>
      </trkpt>
      <trkpt lat="46.35267" lon="6.48412">
        <ele>533</ele>
        <time>2012-11-24T10:21:11Z</time>
      </trkpt>
      <trkpt lat="46.3527" lon="6.48413">
        <ele>533</ele>
        <time>2012-11-24T10:21:12Z</time>
      </trkpt>
      <trkpt lat="46.35273" lon="6.48414">
        <ele>533</ele>
        <time>2012-11-24T10:21:13Z</time>
      </trkpt>
      <trkpt lat="46.35276" lon="6.48416">
        <ele>533</ele>
        <time>2012-11-24T10:21:14Z</time>
      </trkpt>
      <trkpt lat="46.35278" lon="6.48417">
        <ele>533</ele>
        <time>2012-11-24T10:21:15Z</time>
      </trkpt>
      <trkpt lat="46.3528" lon="6.48419">
        <ele>533</ele>
        <time>2012-11-24T10:21:16Z</time>
      </trkpt>
      <trkpt lat="46.35281" lon="6.48423">
        <ele>533</ele>
        <time>2012-11-24T10:21:17Z</time>
      </trkpt>
      <trkpt lat="46.35282" lon="6.48425">
        <ele>533</ele>
        <time>2012-11-24T10:21:19Z</time>
      </trkpt>
      <trkpt lat="46.35284" lon="6.48427">
        <ele>533</ele>
        <time>2012-11-24T10:21:19Z</time>
      </trkpt>
      <trkpt lat="46.35285" lon="6.48428">
        <ele>532</ele>
        <time>2012-11-24T10:21:21Z</time>
      </trkpt>
      <trkpt lat="46.35287" lon="6.48428">
        <ele>531</ele>
        <time>2012-11-24T10:21:22Z</time>
      </trkpt>
      <trkpt lat="46.35288" lon="6.48431">
        <ele>529</ele>
        <time>2012-11-24T10:21:25Z</time>
      </trkpt>
      <trkpt lat="46.35289" lon="6.48432">
        <ele>529</ele>
        <time>2012-11-24T10:21:25Z</time>
      </trkpt>
      <trkpt lat="46.3529" lon="6.48436">
        <ele>529</ele>
        <time>2012-11-24T10:21:27Z</time>
      </trkpt>
      <trkpt lat="46.35291" lon="6.48439">
        <ele>529</ele>
        <time>2012-11-24T10:21:28Z</time>
      </trkpt>
      <trkpt lat="46.35292" lon="6.48443">
        <ele>529</ele>
        <time>2012-11-24T10:21:29Z</time>
      </trkpt>
      <trkpt lat="46.35293" lon="6.48447">
        <ele>529</ele>
        <time>2012-11-24T10:21:30Z</time>
      </trkpt>
      <trkpt lat="46.35294" lon="6.48451">
        <ele>529</ele>
        <time>2012-11-24T10:21:31Z</time>
      </trkpt>
      <trkpt lat="46.35295" lon="6.48456">
        <ele>529</ele>
        <time>2012-11-24T10:21:32Z</time>
      </trkpt>
      <trkpt lat="46.35296" lon="6.4846">
        <ele>529</ele>
        <time>2012-11-24T10:21:33Z</time>
      </trkpt>
      <trkpt lat="46.35297" lon="6.48464">
        <ele>529</ele>
        <time>2012-11-24T10:21:34Z</time>
      </trkpt>
      <trkpt lat="46.35299" lon="6.48467">
        <ele>529</ele>
        <time>2012-11-24T10:21:35Z</time>
      </trkpt>
      <trkpt lat="46.353" lon="6.4847">
        <ele>529</ele>
        <time>2012-11-24T10:21:36Z</time>
      </trkpt>
      <trkpt lat="46.35302" lon="6.48472">
        <ele>529</ele>
        <time>2012-11-24T10:21:37Z</time>
      </trkpt>
      <trkpt lat="46.35305" lon="6.48473">
        <ele>529</ele>
        <time>2012-11-24T10:21:38Z</time>
      </trkpt>
      <trkpt lat="46.35308" lon="6.48475">
        <ele>529</ele>
        <time>2012-11-24T10:21:39Z</time>
      </trkpt>
      <trkpt lat="46.3531" lon="6.48478">
        <ele>530</ele>
        <time>2012-11-24T10:21:40Z</time>
      </trkpt>
      <trkpt lat="46.35313" lon="6.48478">
        <ele>531</ele>
        <time>2012-11-24T10:21:41Z</time>
      </trkpt>
      <trkpt lat="46.35318" lon="6.48479">
        <ele>532</ele>
        <time>2012-11-24T10:21:42Z</time>
      </trkpt>
      <trkpt lat="46.35322" lon="6.48478">
        <ele>533</ele>
        <time>2012-11-24T10:21:43Z</time>
      </trkpt>
      <trkpt lat="46.35325" lon="6.48478">
        <ele>534</ele>
        <time>2012-11-24T10:21:44Z</time>
      </trkpt>
      <trkpt lat="46.35328" lon="6.48478">
        <ele>535</ele>
        <time>2012-11-24T10:21:45Z</time>
      </trkpt>
      <trkpt lat="46.35332" lon="6.48478">
        <ele>536</ele>
        <time>2012-11-24T10:21:46Z</time>
      </trkpt>
      <trkpt lat="46.35335" lon="6.48477">
        <ele>536</ele>
        <time>2012-11-24T10:21:47Z</time>
      </trkpt>
      <trkpt lat="46.35338" lon="6.48477">
        <ele>536</ele>
        <time>2012-11-24T10:21:48Z</time>
      </trkpt>
      <trkpt lat="46.35341" lon="6.48477">
        <ele>536</ele>
        <time>2012-11-24T10:21:49Z</time>
      </trkpt>
      <trkpt lat="46.35342" lon="6.48477">
        <ele>536</ele>
        <time>2012-11-24T10:21:50Z</time>
      </trkpt>
      <trkpt lat="46.35345" lon="6.48475">
        <ele>536</ele>
        <time>2012-11-24T10:21:51Z</time>
      </trkpt>
      <trkpt lat="46.35348" lon="6.48474">
        <ele>536</ele>
        <time>2012-11-24T10:21:52Z</time>
      </trkpt>
      <trkpt lat="46.35351" lon="6.48472">
        <ele>536</ele>
        <time>2012-11-24T10:21:53Z</time>
      </trkpt>
      <trkpt lat="46.35354" lon="6.48471">
        <ele>536</ele>
        <time>2012-11-24T10:21:54Z</time>
      </trkpt>
      <trkpt lat="46.35357" lon="6.4847">
        <ele>535</ele>
        <time>2012-11-24T10:21:55Z</time>
      </trkpt>
      <trkpt lat="46.35359" lon="6.48469">
        <ele>535</ele>
        <time>2012-11-24T10:21:56Z</time>
      </trkpt>
      <trkpt lat="46.35362" lon="6.4847">
        <ele>535</ele>
        <time>2012-11-24T10:21:57Z</time>
      </trkpt>
      <trkpt lat="46.35363" lon="6.48471">
        <ele>534</ele>
        <time>2012-11-24T10:21:59Z</time>
      </trkpt>
      <trkpt lat="46.35365" lon="6.48473">
        <ele>534</ele>
        <time>2012-11-24T10:22:00Z</time>
      </trkpt>
      <trkpt lat="46.35365" lon="6.48475">
        <ele>534</ele>
        <time>2012-11-24T10:22:01Z</time>
      </trkpt>
      <trkpt lat="46.35366" lon="6.48478">
        <ele>534</ele>
        <time>2012-11-24T10:22:02Z</time>
      </trkpt>
      <trkpt lat="46.35366" lon="6.48481">
        <ele>533</ele>
        <time>2012-11-24T10:22:03Z</time>
      </trkpt>
      <trkpt lat="46.35366" lon="6.48484">
        <ele>532</ele>
        <time>2012-11-24T10:22:04Z</time>
      </trkpt>
      <trkpt lat="46.35366" lon="6.48488">
        <ele>531</ele>
        <time>2012-11-24T10:22:04Z</time>
      </trkpt>
      <trkpt lat="46.35366" lon="6.48491">
        <ele>530</ele>
        <time>2012-11-24T10:22:06Z</time>
      </trkpt>
      <trkpt lat="46.35366" lon="6.48495">
        <ele>529</ele>
        <time>2012-11-24T10:22:06Z</time>
      </trkpt>
      <trkpt lat="46.35366" lon="6.48499">
        <ele>528</ele>
        <time>2012-11-24T10:22:07Z</time>
      </trkpt>
      <trkpt lat="46.35366" lon="6.48503">
        <ele>527</ele>
        <time>2012-11-24T10:22:08Z</time>
      </trkpt>
      <trkpt lat="46.35366" lon="6.48507">
        <ele>526</ele>
        <time>2012-11-24T10:22:09Z</time>
      </trkpt>
      <trkpt lat="46.35366" lon="6.4851">
        <ele>525</ele>
        <time>2012-11-24T10:22:10Z</time>
      </trkpt>
      <trkpt lat="46.35366" lon="6.48513">
        <ele>524</ele>
        <time>2012-11-24T10:22:11Z</time>
      </trkpt>
      <trkpt lat="46.35366" lon="6.48516">
        <ele>523</ele>
        <time>2012-11-24T10:22:12Z</time>
      </trkpt>
      <trkpt lat="46.35365" lon="6.4852">
        <ele>522</ele>
        <time>2012-11-24T10:22:13Z</time>
      </trkpt>
      <trkpt lat="46.35366" lon="6.48523">
        <ele>521</ele>
        <time>2012-11-24T10:22:14Z</time>
      </trkpt>
      <trkpt lat="46.35366" lon="6.48526">
        <ele>520</ele>
        <time>2012-11-24T10:22:15Z</time>
      </trkpt>
      <trkpt lat="46.35366" lon="6.4853">
        <ele>519</ele>
        <time>2012-11-24T10:22:16Z</time>
      </trkpt>
      <trkpt lat="46.35366" lon="6.48534">
        <ele>518</ele>
        <time>2012-11-24T10:22:17Z</time>
      </trkpt>
      <trkpt lat="46.35365" lon="6.48537">
        <ele>517</ele>
        <time>2012-11-24T10:22:18Z</time>
      </trkpt>
      <trkpt lat="46.35364" lon="6.48541">
        <ele>516</ele>
        <time>2012-11-24T10:22:19Z</time>
      </trkpt>
      <trkpt lat="46.35363" lon="6.48545">
        <ele>515</ele>
        <time>2012-11-24T10:22:20Z</time>
      </trkpt>
      <trkpt lat="46.35363" lon="6.48548">
        <ele>513</ele>
        <time>2012-11-24T10:22:21Z</time>
      </trkpt>
      <trkpt lat="46.35361" lon="6.48553">
        <ele>512</ele>
        <time>2012-11-24T10:22:22Z</time>
      </trkpt>
      <trkpt lat="46.3536" lon="6.48557">
        <ele>511</ele>
        <time>2012-11-24T10:22:23Z</time>
      </trkpt>
      <trkpt lat="46.3536" lon="6.4856">
        <ele>510</ele>
        <time>2012-11-24T10:22:24Z</time>
      </trkpt>
      <trkpt lat="46.35359" lon="6.48564">
        <ele>509</ele>
        <time>2012-11-24T10:22:25Z</time>
      </trkpt>
      <trkpt lat="46.35358" lon="6.48567">
        <ele>508</ele>
        <time>2012-11-24T10:22:26Z</time>
      </trkpt>
      <trkpt lat="46.35356" lon="6.4857">
        <ele>508</ele>
        <time>2012-11-24T10:22:27Z</time>
      </trkpt>
      <trkpt lat="46.35354" lon="6.48575">
        <ele>508</ele>
        <time>2012-11-24T10:22:28Z</time>
      </trkpt>
      <trkpt lat="46.35353" lon="6.48578">
        <ele>508</ele>
        <time>2012-11-24T10:22:29Z</time>
      </trkpt>
      <trkpt lat="46.35352" lon="6.48581">
        <ele>508</ele>
        <time>2012-11-24T10:22:30Z</time>
      </trkpt>
      <trkpt lat="46.35351" lon="6.48585">
        <ele>508</ele>
        <time>2012-11-24T10:22:31Z</time>
      </trkpt>
      <trkpt lat="46.3535" lon="6.48588">
        <ele>508</ele>
        <time>2012-11-24T10:22:32Z</time>
      </trkpt>
      <trkpt lat="46.35348" lon="6.48591">
        <ele>508</ele>
        <time>2012-11-24T10:22:33Z</time>
      </trkpt>
      <trkpt lat="46.35347" lon="6.48595">
        <ele>508</ele>
        <time>2012-11-24T10:22:34Z</time>
      </trkpt>
      <trkpt lat="46.35346" lon="6.48598">
        <ele>508</ele>
        <time>2012-11-24T10:22:35Z</time>
      </trkpt>
      <trkpt lat="46.35344" lon="6.486">
        <ele>508</ele>
        <time>2012-11-24T10:22:36Z</time>
      </trkpt>
      <trkpt lat="46.35342" lon="6.48603">
        <ele>508</ele>
        <time>2012-11-24T10:22:37Z</time>
      </trkpt>
      <trkpt lat="46.35341" lon="6.48606">
        <ele>508</ele>
        <time>2012-11-24T10:22:38Z</time>
      </trkpt>
      <trkpt lat="46.3534" lon="6.4861">
        <ele>508</ele>
        <time>2012-11-24T10:22:39Z</time>
      </trkpt>
      <trkpt lat="46.35339" lon="6.48613">
        <ele>508</ele>
        <time>2012-11-24T10:22:40Z</time>
      </trkpt>
      <trkpt lat="46.35338" lon="6.48617">
        <ele>508</ele>
        <time>2012-11-24T10:22:41Z</time>
      </trkpt>
      <trkpt lat="46.35337" lon="6.4862">
        <ele>508</ele>
        <time>2012-11-24T10:22:42Z</time>
      </trkpt>
      <trkpt lat="46.35335" lon="6.48625">
        <ele>508</ele>
        <time>2012-11-24T10:22:43Z</time>
      </trkpt>
      <trkpt lat="46.35334" lon="6.48629">
        <ele>509</ele>
        <time>2012-11-24T10:22:44Z</time>
      </trkpt>
      <trkpt lat="46.35333" lon="6.48633">
        <ele>510</ele>
        <time>2012-11-24T10:22:45Z</time>
      </trkpt>
      <trkpt lat="46.35333" lon="6.48638">
        <ele>511</ele>
        <time>2012-11-24T10:22:46Z</time>
      </trkpt>
      <trkpt lat="46.35333" lon="6.48642">
        <ele>512</ele>
        <time>2012-11-24T10:22:47Z</time>
      </trkpt>
      <trkpt lat="46.35333" lon="6.48646">
        <ele>513</ele>
        <time>2012-11-24T10:22:48Z</time>
      </trkpt>
      <trkpt lat="46.35334" lon="6.48651">
        <ele>514</ele>
        <time>2012-11-24T10:22:49Z</time>
      </trkpt>
      <trkpt lat="46.35334" lon="6.48657">
        <ele>515</ele>
        <time>2012-11-24T10:22:50Z</time>
      </trkpt>
      <trkpt lat="46.35333" lon="6.48663">
        <ele>516</ele>
        <time>2012-11-24T10:22:51Z</time>
      </trkpt>
      <trkpt lat="46.35333" lon="6.48667">
        <ele>517</ele>
        <time>2012-11-24T10:22:52Z</time>
      </trkpt>
      <trkpt lat="46.35333" lon="6.48672">
        <ele>518</ele>
        <time>2012-11-24T10:22:53Z</time>
      </trkpt>
      <trkpt lat="46.35333" lon="6.48676">
        <ele>519</ele>
        <time>2012-11-24T10:22:54Z</time>
      </trkpt>
      <trkpt lat="46.35334" lon="6.4868">
        <ele>520</ele>
        <time>2012-11-24T10:22:55Z</time>
      </trkpt>
      <trkpt lat="46.35335" lon="6.48684">
        <ele>521</ele>
        <time>2012-11-24T10:22:56Z</time>
      </trkpt>
      <trkpt lat="46.35336" lon="6.48687">
        <ele>523</ele>
        <time>2012-11-24T10:22:57Z</time>
      </trkpt>
      <trkpt lat="46.35336" lon="6.4869">
        <ele>524</ele>
        <time>2012-11-24T10:22:58Z</time>
      </trkpt>
      <trkpt lat="46.35335" lon="6.48693">
        <ele>525</ele>
        <time>2012-11-24T10:22:59Z</time>
      </trkpt>
      <trkpt lat="46.35335" lon="6.48697">
        <ele>526</ele>
        <time>2012-11-24T10:23:00Z</time>
      </trkpt>
      <trkpt lat="46.35335" lon="6.48701">
        <ele>527</ele>
        <time>2012-11-24T10:23:01Z</time>
      </trkpt>
      <trkpt lat="46.35336" lon="6.48705">
        <ele>528</ele>
        <time>2012-11-24T10:23:02Z</time>
      </trkpt>
      <trkpt lat="46.35337" lon="6.48709">
        <ele>529</ele>
        <time>2012-11-24T10:23:03Z</time>
      </trkpt>
      <trkpt lat="46.35337" lon="6.48713">
        <ele>530</ele>
        <time>2012-11-24T10:23:04Z</time>
      </trkpt>
      <trkpt lat="46.35337" lon="6.48716">
        <ele>531</ele>
        <time>2012-11-24T10:23:05Z</time>
      </trkpt>
      <trkpt lat="46.35337" lon="6.4872">
        <ele>532</ele>
        <time>2012-11-24T10:23:06Z</time>
      </trkpt>
      <trkpt lat="46.35337" lon="6.48723">
        <ele>533</ele>
        <time>2012-11-24T10:23:07Z</time>
      </trkpt>
      <trkpt lat="46.35337" lon="6.48726">
        <ele>534</ele>
        <time>2012-11-24T10:23:08Z</time>
      </trkpt>
      <trkpt lat="46.35338" lon="6.48728">
        <ele>535</ele>
        <time>2012-11-24T10:23:09Z</time>
      </trkpt>
      <trkpt lat="46.35339" lon="6.48732">
        <ele>536</ele>
        <time>2012-11-24T10:23:10Z</time>
      </trkpt>
      <trkpt lat="46.35339" lon="6.48734">
        <ele>537</ele>
        <time>2012-11-24T10:23:11Z</time>
      </trkpt>
      <trkpt lat="46.35339" lon="6.48737">
        <ele>538</ele>
        <time>2012-11-24T10:23:12Z</time>
      </trkpt>
      <trkpt lat="46.35338" lon="6.4874">
        <ele>540</ele>
        <time>2012-11-24T10:23:13Z</time>
      </trkpt>
      <trkpt lat="46.35339" lon="6.48742">
        <ele>541</ele>
        <time>2012-11-24T10:23:14Z</time>
      </trkpt>
      <trkpt lat="46.35337" lon="6.48744">
        <ele>543</ele>
        <time>2012-11-24T10:23:16Z</time>
      </trkpt>
      <trkpt lat="46.35337" lon="6.48746">
        <ele>544</ele>
        <time>2012-11-24T10:23:17Z</time>
      </trkpt>
      <trkpt lat="46.35336" lon="6.48749">
        <ele>545</ele>
        <time>2012-11-24T10:23:18Z</time>
      </trkpt>
      <trkpt lat="46.35334" lon="6.48751">
        <ele>546</ele>
        <time>2012-11-24T10:23:19Z</time>
      </trkpt>
      <trkpt lat="46.35334" lon="6.48754">
        <ele>547</ele>
        <time>2012-11-24T10:23:20Z</time>
      </trkpt>
      <trkpt lat="46.35334" lon="6.48756">
        <ele>548</ele>
        <time>2012-11-24T10:23:21Z</time>
      </trkpt>
      <trkpt lat="46.35333" lon="6.48758">
        <ele>549</ele>
        <time>2012-11-24T10:23:22Z</time>
      </trkpt>
      <trkpt lat="46.35332" lon="6.4876">
        <ele>549</ele>
        <time>2012-11-24T10:23:23Z</time>
      </trkpt>
      <trkpt lat="46.35332" lon="6.48763">
        <ele>549</ele>
        <time>2012-11-24T10:23:24Z</time>
      </trkpt>
      <trkpt lat="46.35331" lon="6.48766">
        <ele>549</ele>
        <time>2012-11-24T10:23:25Z</time>
      </trkpt>
      <trkpt lat="46.3533" lon="6.48769">
        <ele>549</ele>
        <time>2012-11-24T10:23:27Z</time>
      </trkpt>
      <trkpt lat="46.35329" lon="6.48771">
        <ele>549</ele>
        <time>2012-11-24T10:23:28Z</time>
      </trkpt>
      <trkpt lat="46.35328" lon="6.48771">
        <ele>549</ele>
        <time>2012-11-24T10:23:30Z</time>
      </trkpt>
      <trkpt lat="46.35328" lon="6.48769">
        <ele>549</ele>
        <time>2012-11-24T10:23:32Z</time>
      </trkpt>
      <trkpt lat="46.35328" lon="6.48766">
        <ele>549</ele>
        <time>2012-11-24T10:23:33Z</time>
      </trkpt>
      <trkpt lat="46.35328" lon="6.48764">
        <ele>549</ele>
        <time>2012-11-24T10:23:34Z</time>
      </trkpt>
      <trkpt lat="46.35327" lon="6.48761">
        <ele>549</ele>
        <time>2012-11-24T10:23:35Z</time>
      </trkpt>
      <trkpt lat="46.35326" lon="6.48757">
        <ele>549</ele>
        <time>2012-11-24T10:23:36Z</time>
      </trkpt>
      <trkpt lat="46.35324" lon="6.48753">
        <ele>549</ele>
        <time>2012-11-24T10:23:37Z</time>
      </trkpt>
      <trkpt lat="46.35323" lon="6.48749">
        <ele>549</ele>
        <time>2012-11-24T10:23:38Z</time>
      </trkpt>
      <trkpt lat="46.35321" lon="6.48745">
        <ele>549</ele>
        <time>2012-11-24T10:23:39Z</time>
      </trkpt>
      <trkpt lat="46.3532" lon="6.48741">
        <ele>549</ele>
        <time>2012-11-24T10:23:40Z</time>
      </trkpt>
      <trkpt lat="46.35319" lon="6.48738">
        <ele>549</ele>
        <time>2012-11-24T10:23:41Z</time>
      </trkpt>
      <trkpt lat="46.35318" lon="6.48735">
        <ele>548</ele>
        <time>2012-11-24T10:23:42Z</time>
      </trkpt>
      <trkpt lat="46.35317" lon="6.48732">
        <ele>547</ele>
        <time>2012-11-24T10:23:43Z</time>
      </trkpt>
      <trkpt lat="46.35315" lon="6.48729">
        <ele>546</ele>
        <time>2012-11-24T10:23:44Z</time>
      </trkpt>
      <trkpt lat="46.35313" lon="6.48725">
        <ele>545</ele>
        <time>2012-11-24T10:23:45Z</time>
      </trkpt>
      <trkpt lat="46.35311" lon="6.48721">
        <ele>544</ele>
        <time>2012-11-24T10:23:46Z</time>
      </trkpt>
      <trkpt lat="46.35309" lon="6.48719">
        <ele>543</ele>
        <time>2012-11-24T10:23:47Z</time>
      </trkpt>
      <trkpt lat="46.35308" lon="6.48714">
        <ele>542</ele>
        <time>2012-11-24T10:23:48Z</time>
      </trkpt>
      <trkpt lat="46.35306" lon="6.48712">
        <ele>542</ele>
        <time>2012-11-24T10:23:49Z</time>
      </trkpt>
      <trkpt lat="46.35304" lon="6.48709">
        <ele>541</ele>
        <time>2012-11-24T10:23:50Z</time>
      </trkpt>
      <trkpt lat="46.35303" lon="6.48705">
        <ele>541</ele>
        <time>2012-11-24T10:23:51Z</time>
      </trkpt>
      <trkpt lat="46.35301" lon="6.48702">
        <ele>540</ele>
        <time>2012-11-24T10:23:52Z</time>
      </trkpt>
      <trkpt lat="46.35299" lon="6.487">
        <ele>540</ele>
        <time>2012-11-24T10:23:53Z</time>
      </trkpt>
      <trkpt lat="46.35297" lon="6.48697">
        <ele>539</ele>
        <time>2012-11-24T10:23:54Z</time>
      </trkpt>
      <trkpt lat="46.35294" lon="6.48694">
        <ele>538</ele>
        <time>2012-11-24T10:23:55Z</time>
      </trkpt>
      <trkpt lat="46.35292" lon="6.48691">
        <ele>538</ele>
        <time>2012-11-24T10:23:56Z</time>
      </trkpt>
      <trkpt lat="46.35291" lon="6.4869">
        <ele>538</ele>
        <time>2012-11-24T10:23:57Z</time>
      </trkpt>
      <trkpt lat="46.3529" lon="6.48687">
        <ele>537</ele>
        <time>2012-11-24T10:23:58Z</time>
      </trkpt>
      <trkpt lat="46.35288" lon="6.48686">
        <ele>537</ele>
        <time>2012-11-24T10:23:59Z</time>
      </trkpt>
      <trkpt lat="46.35287" lon="6.48683">
        <ele>537</ele>
        <time>2012-11-24T10:24:00Z</time>
      </trkpt>
      <trkpt lat="46.35286" lon="6.48679">
        <ele>537</ele>
        <time>2012-11-24T10:24:01Z</time>
      </trkpt>
      <trkpt lat="46.35285" lon="6.48676">
        <ele>537</ele>
        <time>2012-11-24T10:24:03Z</time>
      </trkpt>
      <trkpt lat="46.35286" lon="6.48672">
        <ele>537</ele>
        <time>2012-11-24T10:24:04Z</time>
      </trkpt>
      <trkpt lat="46.35286" lon="6.48668">
        <ele>537</ele>
        <time>2012-11-24T10:24:05Z</time>
      </trkpt>
      <trkpt lat="46.35287" lon="6.48664">
        <ele>537</ele>
        <time>2012-11-24T10:24:06Z</time>
      </trkpt>
      <trkpt lat="46.35288" lon="6.48662">
        <ele>537</ele>
        <time>2012-11-24T10:24:07Z</time>
      </trkpt>
      <trkpt lat="46.35289" lon="6.4866">
        <ele>537</ele>
        <time>2012-11-24T10:24:08Z</time>
      </trkpt>
      <trkpt lat="46.3529" lon="6.48658">
        <ele>536</ele>
        <time>2012-11-24T10:24:09Z</time>
      </trkpt>
      <trkpt lat="46.3529" lon="6.48654">
        <ele>536</ele>
        <time>2012-11-24T10:24:10Z</time>
      </trkpt>
      <trkpt lat="46.35291" lon="6.48651">
        <ele>535</ele>
        <time>2012-11-24T10:24:11Z</time>
      </trkpt>
      <trkpt lat="46.35292" lon="6.48648">
        <ele>535</ele>
        <time>2012-11-24T10:24:12Z</time>
      </trkpt>
      <trkpt lat="46.35293" lon="6.48644">
        <ele>535</ele>
        <time>2012-11-24T10:24:13Z</time>
      </trkpt>
      <trkpt lat="46.35294" lon="6.4864">
        <ele>535</ele>
        <time>2012-11-24T10:24:14Z</time>
      </trkpt>
      <trkpt lat="46.35294" lon="6.48637">
        <ele>535</ele>
        <time>2012-11-24T10:24:15Z</time>
      </trkpt>
      <trkpt lat="46.35294" lon="6.48633">
        <ele>535</ele>
        <time>2012-11-24T10:24:16Z</time>
      </trkpt>
      <trkpt lat="46.35292" lon="6.48629">
        <ele>535</ele>
        <time>2012-11-24T10:24:17Z</time>
      </trkpt>
      <trkpt lat="46.35291" lon="6.48625">
        <ele>535</ele>
        <time>2012-11-24T10:24:18Z</time>
      </trkpt>
      <trkpt lat="46.35291" lon="6.48622">
        <ele>535</ele>
        <time>2012-11-24T10:24:19Z</time>
      </trkpt>
      <trkpt lat="46.35289" lon="6.48617">
        <ele>535</ele>
        <time>2012-11-24T10:24:20Z</time>
      </trkpt>
      <trkpt lat="46.35288" lon="6.48612">
        <ele>535</ele>
        <time>2012-11-24T10:24:21Z</time>
      </trkpt>
      <trkpt lat="46.35287" lon="6.48608">
        <ele>535</ele>
        <time>2012-11-24T10:24:22Z</time>
      </trkpt>
      <trkpt lat="46.35285" lon="6.48604">
        <ele>535</ele>
        <time>2012-11-24T10:24:23Z</time>
      </trkpt>
      <trkpt lat="46.35284" lon="6.48601">
        <ele>535</ele>
        <time>2012-11-24T10:24:24Z</time>
      </trkpt>
      <trkpt lat="46.35282" lon="6.48597">
        <ele>535</ele>
        <time>2012-11-24T10:24:25Z</time>
      </trkpt>
      <trkpt lat="46.35281" lon="6.48595">
        <ele>535</ele>
        <time>2012-11-24T10:24:26Z</time>
      </trkpt>
      <trkpt lat="46.3528" lon="6.48592">
        <ele>535</ele>
        <time>2012-11-24T10:24:27Z</time>
      </trkpt>
      <trkpt lat="46.35278" lon="6.4859">
        <ele>535</ele>
        <time>2012-11-24T10:24:28Z</time>
      </trkpt>
      <trkpt lat="46.35276" lon="6.48587">
        <ele>535</ele>
        <time>2012-11-24T10:24:29Z</time>
      </trkpt>
      <trkpt lat="46.35275" lon="6.48585">
        <ele>535</ele>
        <time>2012-11-24T10:24:30Z</time>
      </trkpt>
      <trkpt lat="46.35273" lon="6.48583">
        <ele>535</ele>
        <time>2012-11-24T10:24:31Z</time>
      </trkpt>
      <trkpt lat="46.35271" lon="6.4858">
        <ele>535</ele>
        <time>2012-11-24T10:24:32Z</time>
      </trkpt>
      <trkpt lat="46.3527" lon="6.48578">
        <ele>535</ele>
        <time>2012-11-24T10:24:33Z</time>
      </trkpt>
      <trkpt lat="46.35268" lon="6.48575">
        <ele>535</ele>
        <time>2012-11-24T10:24:34Z</time>
      </trkpt>
      <trkpt lat="46.35268" lon="6.48572">
        <ele>535</ele>
        <time>2012-11-24T10:24:35Z</time>
      </trkpt>
      <trkpt lat="46.35267" lon="6.4857">
        <ele>535</ele>
        <time>2012-11-24T10:24:36Z</time>
      </trkpt>
      <trkpt lat="46.35266" lon="6.48567">
        <ele>535</ele>
        <time>2012-11-24T10:24:37Z</time>
      </trkpt>
      <trkpt lat="46.35264" lon="6.48564">
        <ele>535</ele>
        <time>2012-11-24T10:24:38Z</time>
      </trkpt>
      <trkpt lat="46.35263" lon="6.48561">
        <ele>535</ele>
        <time>2012-11-24T10:24:39Z</time>
      </trkpt>
      <trkpt lat="46.35261" lon="6.48558">
        <ele>535</ele>
        <time>2012-11-24T10:24:40Z</time>
      </trkpt>
      <trkpt lat="46.35259" lon="6.48556">
        <ele>535</ele>
        <time>2012-11-24T10:24:41Z</time>
      </trkpt>
      <trkpt lat="46.35258" lon="6.48553">
        <ele>535</ele>
        <time>2012-11-24T10:24:42Z</time>
      </trkpt>
      <trkpt lat="46.35256" lon="6.48551">
        <ele>535</ele>
        <time>2012-11-24T10:24:43Z</time>
      </trkpt>
      <trkpt lat="46.35253" lon="6.48548">
        <ele>535</ele>
        <time>2012-11-24T10:24:44Z</time>
      </trkpt>
      <trkpt lat="46.35251" lon="6.48548">
        <ele>535</ele>
        <time>2012-11-24T10:24:45Z</time>
      </trkpt>
      <trkpt lat="46.35249" lon="6.48547">
        <ele>535</ele>
        <time>2012-11-24T10:24:46Z</time>
      </trkpt>
      <trkpt lat="46.35247" lon="6.48548">
        <ele>535</ele>
        <time>2012-11-24T10:24:47Z</time>
      </trkpt>
      <trkpt lat="46.35244" lon="6.48548">
        <ele>535</ele>
        <time>2012-11-24T10:24:48Z</time>
      </trkpt>
      <trkpt lat="46.35242" lon="6.48549">
        <ele>535</ele>
        <time>2012-11-24T10:24:49Z</time>
      </trkpt>
      <trkpt lat="46.35239" lon="6.4855">
        <ele>535</ele>
        <time>2012-11-24T10:24:50Z</time>
      </trkpt>
      <trkpt lat="46.35237" lon="6.48552">
        <ele>535</ele>
        <time>2012-11-24T10:24:51Z</time>
      </trkpt>
      <trkpt lat="46.35234" lon="6.48554">
        <ele>535</ele>
        <time>2012-11-24T10:24:52Z</time>
      </trkpt>
      <trkpt lat="46.35232" lon="6.48555">
        <ele>535</ele>
        <time>2012-11-24T10:24:53Z</time>
      </trkpt>
      <trkpt lat="46.3523" lon="6.48556">
        <ele>535</ele>
        <time>2012-11-24T10:24:54Z</time>
      </trkpt>
      <trkpt lat="46.35228" lon="6.48557">
        <ele>535</ele>
        <time>2012-11-24T10:24:55Z</time>
      </trkpt>
      <trkpt lat="46.35226" lon="6.48558">
        <ele>535</ele>
        <time>2012-11-24T10:24:56Z</time>
      </trkpt>
      <trkpt lat="46.35224" lon="6.4856">
        <ele>535</ele>
        <time>2012-11-24T10:24:57Z</time>
      </trkpt>
      <trkpt lat="46.35223" lon="6.48562">
        <ele>535</ele>
        <time>2012-11-24T10:24:58Z</time>
      </trkpt>
      <trkpt lat="46.35223" lon="6.48564">
        <ele>535</ele>
        <time>2012-11-24T10:24:59Z</time>
      </trkpt>
      <trkpt lat="46.35223" lon="6.48567">
        <ele>535</ele>
        <time>2012-11-24T10:25:00Z</time>
      </trkpt>
      <trkpt lat="46.35223" lon="6.4857">
        <ele>535</ele>
        <time>2012-11-24T10:25:01Z</time>
      </trkpt>
      <trkpt lat="46.35223" lon="6.48573">
        <ele>535</ele>
        <time>2012-11-24T10:25:02Z</time>
      </trkpt>
      <trkpt lat="46.35223" lon="6.48576">
        <ele>534</ele>
        <time>2012-11-24T10:25:03Z</time>
      </trkpt>
      <trkpt lat="46.35222" lon="6.48579">
        <ele>534</ele>
        <time>2012-11-24T10:25:04Z</time>
      </trkpt>
      <trkpt lat="46.3522" lon="6.48581">
        <ele>534</ele>
        <time>2012-11-24T10:25:05Z</time>
      </trkpt>
      <trkpt lat="46.35219" lon="6.48584">
        <ele>534</ele>
        <time>2012-11-24T10:25:06Z</time>
      </trkpt>
      <trkpt lat="46.35218" lon="6.48586">
        <ele>534</ele>
        <time>2012-11-24T10:25:07Z</time>
      </trkpt>
      <trkpt lat="46.35217" lon="6.48589">
        <ele>534</ele>
        <time>2012-11-24T10:25:08Z</time>
      </trkpt>
      <trkpt lat="46.35216" lon="6.48592">
        <ele>534</ele>
        <time>2012-11-24T10:25:09Z</time>
      </trkpt>
      <trkpt lat="46.35214" lon="6.48595">
        <ele>534</ele>
        <time>2012-11-24T10:25:10Z</time>
      </trkpt>
      <trkpt lat="46.35212" lon="6.48596">
        <ele>534</ele>
        <time>2012-11-24T10:25:11Z</time>
      </trkpt>
      <trkpt lat="46.35209" lon="6.48597">
        <ele>534</ele>
        <time>2012-11-24T10:25:12Z</time>
      </trkpt>
      <trkpt lat="46.35209" lon="6.48599">
        <ele>534</ele>
        <time>2012-11-24T10:25:13Z</time>
      </trkpt>
      <trkpt lat="46.35207" lon="6.48601">
        <ele>534</ele>
        <time>2012-11-24T10:25:14Z</time>
      </trkpt>
      <trkpt lat="46.35205" lon="6.48603">
        <ele>534</ele>
        <time>2012-11-24T10:25:15Z</time>
      </trkpt>
      <trkpt lat="46.35203" lon="6.48605">
        <ele>534</ele>
        <time>2012-11-24T10:25:16Z</time>
      </trkpt>
      <trkpt lat="46.35201" lon="6.48607">
        <ele>534</ele>
        <time>2012-11-24T10:25:17Z</time>
      </trkpt>
      <trkpt lat="46.35199" lon="6.48608">
        <ele>534</ele>
        <time>2012-11-24T10:25:18Z</time>
      </trkpt>
      <trkpt lat="46.35197" lon="6.48611">
        <ele>534</ele>
        <time>2012-11-24T10:25:19Z</time>
      </trkpt>
      <trkpt lat="46.35195" lon="6.48613">
        <ele>534</ele>
        <time>2012-11-24T10:25:20Z</time>
      </trkpt>
      <trkpt lat="46.35193" lon="6.48614">
        <ele>534</ele>
        <time>2012-11-24T10:25:21Z</time>
      </trkpt>
      <trkpt lat="46.35191" lon="6.48615">
        <ele>534</ele>
        <time>2012-11-24T10:25:22Z</time>
      </trkpt>
      <trkpt lat="46.35189" lon="6.48616">
        <ele>534</ele>
        <time>2012-11-24T10:25:23Z</time>
      </trkpt>
      <trkpt lat="46.35187" lon="6.48616">
        <ele>534</ele>
        <time>2012-11-24T10:25:24Z</time>
      </trkpt>
      <trkpt lat="46.35184" lon="6.48616">
        <ele>534</ele>
        <time>2012-11-24T10:25:25Z</time>
      </trkpt>
      <trkpt lat="46.35181" lon="6.48616">
        <ele>534</ele>
        <time>2012-11-24T10:25:26Z</time>
      </trkpt>
      <trkpt lat="46.35179" lon="6.48617">
        <ele>534</ele>
        <time>2012-11-24T10:25:27Z</time>
      </trkpt>
      <trkpt lat="46.35177" lon="6.48617">
        <ele>534</ele>
        <time>2012-11-24T10:25:28Z</time>
      </trkpt>
      <trkpt lat="46.35175" lon="6.48618">
        <ele>534</ele>
        <time>2012-11-24T10:25:29Z</time>
      </trkpt>
      <trkpt lat="46.35172" lon="6.48619">
        <ele>534</ele>
        <time>2012-11-24T10:25:30Z</time>
      </trkpt>
      <trkpt lat="46.35169" lon="6.4862">
        <ele>534</ele>
        <time>2012-11-24T10:25:31Z</time>
      </trkpt>
      <trkpt lat="46.35167" lon="6.4862">
        <ele>534</ele>
        <time>2012-11-24T10:25:32Z</time>
      </trkpt>
      <trkpt lat="46.35165" lon="6.4862">
        <ele>534</ele>
        <time>2012-11-24T10:25:33Z</time>
      </trkpt>
      <trkpt lat="46.35164" lon="6.48621">
        <ele>534</ele>
        <time>2012-11-24T10:25:34Z</time>
      </trkpt>
      <trkpt lat="46.35162" lon="6.48622">
        <ele>534</ele>
        <time>2012-11-24T10:25:35Z</time>
      </trkpt>
      <trkpt lat="46.3516" lon="6.48625">
        <ele>534</ele>
        <time>2012-11-24T10:25:36Z</time>
      </trkpt>
      <trkpt lat="46.35159" lon="6.48626">
        <ele>534</ele>
        <time>2012-11-24T10:25:37Z</time>
      </trkpt>
      <trkpt lat="46.35157" lon="6.48627">
        <ele>534</ele>
        <time>2012-11-24T10:25:38Z</time>
      </trkpt>
      <trkpt lat="46.35155" lon="6.48629">
        <ele>534</ele>
        <time>2012-11-24T10:25:39Z</time>
      </trkpt>
      <trkpt lat="46.35153" lon="6.4863">
        <ele>534</ele>
        <time>2012-11-24T10:25:40Z</time>
      </trkpt>
      <trkpt lat="46.35151" lon="6.48631">
        <ele>534</ele>
        <time>2012-11-24T10:25:41Z</time>
      </trkpt>
      <trkpt lat="46.35149" lon="6.48633">
        <ele>534</ele>
        <time>2012-11-24T10:25:42Z</time>
      </trkpt>
      <trkpt lat="46.35147" lon="6.48635">
        <ele>534</ele>
        <time>2012-11-24T10:25:43Z</time>
      </trkpt>
      <trkpt lat="46.35144" lon="6.48637">
        <ele>534</ele>
        <time>2012-11-24T10:25:44Z</time>
      </trkpt>
      <trkpt lat="46.35142" lon="6.4864">
        <ele>534</ele>
        <time>2012-11-24T10:25:45Z</time>
      </trkpt>
      <trkpt lat="46.35139" lon="6.48643">
        <ele>534</ele>
        <time>2012-11-24T10:25:46Z</time>
      </trkpt>
      <trkpt lat="46.35137" lon="6.48646">
        <ele>534</ele>
        <time>2012-11-24T10:25:47Z</time>
      </trkpt>
      <trkpt lat="46.35135" lon="6.48648">
        <ele>534</ele>
        <time>2012-11-24T10:25:48Z</time>
      </trkpt>
      <trkpt lat="46.35132" lon="6.48649">
        <ele>534</ele>
        <time>2012-11-24T10:25:49Z</time>
      </trkpt>
      <trkpt lat="46.3513" lon="6.48651">
        <ele>534</ele>
        <time>2012-11-24T10:25:50Z</time>
      </trkpt>
      <trkpt lat="46.35129" lon="6.48652">
        <ele>535</ele>
        <time>2012-11-24T10:25:51Z</time>
      </trkpt>
      <trkpt lat="46.35126" lon="6.48654">
        <ele>535</ele>
        <time>2012-11-24T10:25:52Z</time>
      </trkpt>
      <trkpt lat="46.35123" lon="6.48655">
        <ele>536</ele>
        <time>2012-11-24T10:25:53Z</time>
      </trkpt>
      <trkpt lat="46.3512" lon="6.48658">
        <ele>536</ele>
        <time>2012-11-24T10:25:54Z</time>
      </trkpt>
      <trkpt lat="46.35117" lon="6.48659">
        <ele>536</ele>
        <time>2012-11-24T10:25:55Z</time>
      </trkpt>
      <trkpt lat="46.35115" lon="6.48661">
        <ele>537</ele>
        <time>2012-11-24T10:25:56Z</time>
      </trkpt>
      <trkpt lat="46.35113" lon="6.48663">
        <ele>537</ele>
        <time>2012-11-24T10:25:57Z</time>
      </trkpt>
      <trkpt lat="46.35111" lon="6.48665">
        <ele>537</ele>
        <time>2012-11-24T10:25:58Z</time>
      </trkpt>
      <trkpt lat="46.35109" lon="6.48666">
        <ele>538</ele>
        <time>2012-11-24T10:25:59Z</time>
      </trkpt>
      <trkpt lat="46.35106" lon="6.48668">
        <ele>538</ele>
        <time>2012-11-24T10:26:00Z</time>
      </trkpt>
      <trkpt lat="46.35102" lon="6.48668">
        <ele>539</ele>
        <time>2012-11-24T10:26:01Z</time>
      </trkpt>
      <trkpt lat="46.35099" lon="6.4867">
        <ele>539</ele>
        <time>2012-11-24T10:26:02Z</time>
      </trkpt>
      <trkpt lat="46.35096" lon="6.48672">
        <ele>540</ele>
        <time>2012-11-24T10:26:03Z</time>
      </trkpt>
      <trkpt lat="46.35093" lon="6.48674">
        <ele>541</ele>
        <time>2012-11-24T10:26:04Z</time>
      </trkpt>
      <trkpt lat="46.35091" lon="6.48675">
        <ele>542</ele>
        <time>2012-11-24T10:26:05Z</time>
      </trkpt>
      <trkpt lat="46.35088" lon="6.48677">
        <ele>542</ele>
        <time>2012-11-24T10:26:06Z</time>
      </trkpt>
      <trkpt lat="46.35086" lon="6.48679">
        <ele>542</ele>
        <time>2012-11-24T10:26:07Z</time>
      </trkpt>
      <trkpt lat="46.35083" lon="6.48682">
        <ele>542</ele>
        <time>2012-11-24T10:26:08Z</time>
      </trkpt>
      <trkpt lat="46.35081" lon="6.48684">
        <ele>542</ele>
        <time>2012-11-24T10:26:09Z</time>
      </trkpt>
      <trkpt lat="46.35078" lon="6.48687">
        <ele>542</ele>
        <time>2012-11-24T10:26:10Z</time>
      </trkpt>
      <trkpt lat="46.35075" lon="6.48687">
        <ele>542</ele>
        <time>2012-11-24T10:26:11Z</time>
      </trkpt>
      <trkpt lat="46.35072" lon="6.48686">
        <ele>542</ele>
        <time>2012-11-24T10:26:12Z</time>
      </trkpt>
      <trkpt lat="46.35069" lon="6.48685">
        <ele>542</ele>
        <time>2012-11-24T10:26:13Z</time>
      </trkpt>
      <trkpt lat="46.35067" lon="6.48685">
        <ele>542</ele>
        <time>2012-11-24T10:26:14Z</time>
      </trkpt>
      <trkpt lat="46.35064" lon="6.48682">
        <ele>543</ele>
        <time>2012-11-24T10:26:15Z</time>
      </trkpt>
      <trkpt lat="46.35062" lon="6.48682">
        <ele>543</ele>
        <time>2012-11-24T10:26:16Z</time>
      </trkpt>
      <trkpt lat="46.3506" lon="6.48682">
        <ele>544</ele>
        <time>2012-11-24T10:26:17Z</time>
      </trkpt>
      <trkpt lat="46.35058" lon="6.48682">
        <ele>544</ele>
        <time>2012-11-24T10:26:18Z</time>
      </trkpt>
      <trkpt lat="46.35055" lon="6.48682">
        <ele>544</ele>
        <time>2012-11-24T10:26:19Z</time>
      </trkpt>
      <trkpt lat="46.35052" lon="6.48681">
        <ele>544</ele>
        <time>2012-11-24T10:26:20Z</time>
      </trkpt>
      <trkpt lat="46.35049" lon="6.48681">
        <ele>544</ele>
        <time>2012-11-24T10:26:21Z</time>
      </trkpt>
      <trkpt lat="46.35046" lon="6.4868">
        <ele>544</ele>
        <time>2012-11-24T10:26:22Z</time>
      </trkpt>
      <trkpt lat="46.35043" lon="6.48681">
        <ele>544</ele>
        <time>2012-11-24T10:26:23Z</time>
      </trkpt>
      <trkpt lat="46.3504" lon="6.48681">
        <ele>544</ele>
        <time>2012-11-24T10:26:24Z</time>
      </trkpt>
      <trkpt lat="46.35037" lon="6.48681">
        <ele>544</ele>
        <time>2012-11-24T10:26:25Z</time>
      </trkpt>
      <trkpt lat="46.35034" lon="6.48683">
        <ele>544</ele>
        <time>2012-11-24T10:26:26Z</time>
      </trkpt>
      <trkpt lat="46.35031" lon="6.48683">
        <ele>544</ele>
        <time>2012-11-24T10:26:27Z</time>
      </trkpt>
      <trkpt lat="46.35029" lon="6.48685">
        <ele>544</ele>
        <time>2012-11-24T10:26:28Z</time>
      </trkpt>
      <trkpt lat="46.35027" lon="6.48687">
        <ele>543</ele>
        <time>2012-11-24T10:26:29Z</time>
      </trkpt>
      <trkpt lat="46.35025" lon="6.48688">
        <ele>543</ele>
        <time>2012-11-24T10:26:30Z</time>
      </trkpt>
      <trkpt lat="46.35022" lon="6.4869">
        <ele>542</ele>
        <time>2012-11-24T10:26:31Z</time>
      </trkpt>
      <trkpt lat="46.35019" lon="6.48692">
        <ele>541</ele>
        <time>2012-11-24T10:26:32Z</time>
      </trkpt>
      <trkpt lat="46.35017" lon="6.48693">
        <ele>540</ele>
        <time>2012-11-24T10:26:33Z</time>
      </trkpt>
      <trkpt lat="46.35014" lon="6.48694">
        <ele>540</ele>
        <time>2012-11-24T10:26:34Z</time>
      </trkpt>
      <trkpt lat="46.35012" lon="6.48695">
        <ele>539</ele>
        <time>2012-11-24T10:26:35Z</time>
      </trkpt>
      <trkpt lat="46.35009" lon="6.48697">
        <ele>539</ele>
        <time>2012-11-24T10:26:36Z</time>
      </trkpt>
      <trkpt lat="46.35007" lon="6.48699">
        <ele>538</ele>
        <time>2012-11-24T10:26:37Z</time>
      </trkpt>
      <trkpt lat="46.35005" lon="6.487">
        <ele>538</ele>
        <time>2012-11-24T10:26:38Z</time>
      </trkpt>
      <trkpt lat="46.35003" lon="6.48701">
        <ele>538</ele>
        <time>2012-11-24T10:26:39Z</time>
      </trkpt>
      <trkpt lat="46.35" lon="6.48703">
        <ele>538</ele>
        <time>2012-11-24T10:26:40Z</time>
      </trkpt>
      <trkpt lat="46.34997" lon="6.48706">
        <ele>538</ele>
        <time>2012-11-24T10:26:41Z</time>
      </trkpt>
      <trkpt lat="46.34995" lon="6.48708">
        <ele>538</ele>
        <time>2012-11-24T10:26:42Z</time>
      </trkpt>
      <trkpt lat="46.34992" lon="6.4871">
        <ele>538</ele>
        <time>2012-11-24T10:26:43Z</time>
      </trkpt>
      <trkpt lat="46.3499" lon="6.48713">
        <ele>538</ele>
        <time>2012-11-24T10:26:44Z</time>
      </trkpt>
      <trkpt lat="46.34987" lon="6.48715">
        <ele>538</ele>
        <time>2012-11-24T10:26:45Z</time>
      </trkpt>
      <trkpt lat="46.34985" lon="6.48718">
        <ele>538</ele>
        <time>2012-11-24T10:26:46Z</time>
      </trkpt>
      <trkpt lat="46.34982" lon="6.4872">
        <ele>538</ele>
        <time>2012-11-24T10:26:47Z</time>
      </trkpt>
      <trkpt lat="46.34979" lon="6.48721">
        <ele>538</ele>
        <time>2012-11-24T10:26:48Z</time>
      </trkpt>
      <trkpt lat="46.34976" lon="6.48722">
        <ele>538</ele>
        <time>2012-11-24T10:26:49Z</time>
      </trkpt>
      <trkpt lat="46.34972" lon="6.48721">
        <ele>538</ele>
        <time>2012-11-24T10:26:50Z</time>
      </trkpt>
      <trkpt lat="46.34969" lon="6.48722">
        <ele>538</ele>
        <time>2012-11-24T10:26:51Z</time>
      </trkpt>
      <trkpt lat="46.34966" lon="6.4872">
        <ele>538</ele>
        <time>2012-11-24T10:26:52Z</time>
      </trkpt>
      <trkpt lat="46.34964" lon="6.48719">
        <ele>538</ele>
        <time>2012-11-24T10:26:53Z</time>
      </trkpt>
      <trkpt lat="46.34962" lon="6.48719">
        <ele>538</ele>
        <time>2012-11-24T10:26:54Z</time>
      </trkpt>
      <trkpt lat="46.34959" lon="6.48719">
        <ele>538</ele>
        <time>2012-11-24T10:26:55Z</time>
      </trkpt>
      <trkpt lat="46.34956" lon="6.4872">
        <ele>538</ele>
        <time>2012-11-24T10:26:56Z</time>
      </trkpt>
      <trkpt lat="46.34953" lon="6.4872">
        <ele>538</ele>
        <time>2012-11-24T10:26:57Z</time>
      </trkpt>
      <trkpt lat="46.3495" lon="6.48721">
        <ele>538</ele>
        <time>2012-11-24T10:26:58Z</time>
      </trkpt>
      <trkpt lat="46.34947" lon="6.48722">
        <ele>538</ele>
        <time>2012-11-24T10:26:59Z</time>
      </trkpt>
      <trkpt lat="46.34945" lon="6.48724">
        <ele>538</ele>
        <time>2012-11-24T10:27:00Z</time>
      </trkpt>
      <trkpt lat="46.34942" lon="6.48726">
        <ele>538</ele>
        <time>2012-11-24T10:27:02Z</time>
      </trkpt>
      <trkpt lat="46.3494" lon="6.48729">
        <ele>538</ele>
        <time>2012-11-24T10:27:03Z</time>
      </trkpt>
      <trkpt lat="46.34938" lon="6.48731">
        <ele>538</ele>
        <time>2012-11-24T10:27:04Z</time>
      </trkpt>
      <trkpt lat="46.34936" lon="6.48734">
        <ele>538</ele>
        <time>2012-11-24T10:27:05Z</time>
      </trkpt>
      <trkpt lat="46.34935" lon="6.48738">
        <ele>538</ele>
        <time>2012-11-24T10:27:06Z</time>
      </trkpt>
      <trkpt lat="46.34934" lon="6.48741">
        <ele>538</ele>
        <time>2012-11-24T10:27:07Z</time>
      </trkpt>
      <trkpt lat="46.34933" lon="6.48746">
        <ele>538</ele>
        <time>2012-11-24T10:27:08Z</time>
      </trkpt>
      <trkpt lat="46.34933" lon="6.4875">
        <ele>538</ele>
        <time>2012-11-24T10:27:09Z</time>
      </trkpt>
      <trkpt lat="46.34933" lon="6.48753">
        <ele>538</ele>
        <time>2012-11-24T10:27:10Z</time>
      </trkpt>
      <trkpt lat="46.34933" lon="6.48757">
        <ele>538</ele>
        <time>2012-11-24T10:27:11Z</time>
      </trkpt>
      <trkpt lat="46.34933" lon="6.48762">
        <ele>538</ele>
        <time>2012-11-24T10:27:11Z</time>
      </trkpt>
      <trkpt lat="46.34934" lon="6.48767">
        <ele>538</ele>
        <time>2012-11-24T10:27:12Z</time>
      </trkpt>
      <trkpt lat="46.34934" lon="6.48772">
        <ele>539</ele>
        <time>2012-11-24T10:27:13Z</time>
      </trkpt>
      <trkpt lat="46.34936" lon="6.48775">
        <ele>540</ele>
        <time>2012-11-24T10:27:14Z</time>
      </trkpt>
      <trkpt lat="46.34937" lon="6.48778">
        <ele>541</ele>
        <time>2012-11-24T10:27:15Z</time>
      </trkpt>
      <trkpt lat="46.34938" lon="6.48781">
        <ele>542</ele>
        <time>2012-11-24T10:27:16Z</time>
      </trkpt>
      <trkpt lat="46.3494" lon="6.48783">
        <ele>542</ele>
        <time>2012-11-24T10:27:17Z</time>
      </trkpt>
      <trkpt lat="46.34942" lon="6.48785">
        <ele>542</ele>
        <time>2012-11-24T10:27:18Z</time>
      </trkpt>
      <trkpt lat="46.34944" lon="6.48789">
        <ele>542</ele>
        <time>2012-11-24T10:27:19Z</time>
      </trkpt>
      <trkpt lat="46.34946" lon="6.48793">
        <ele>542</ele>
        <time>2012-11-24T10:27:20Z</time>
      </trkpt>
      <trkpt lat="46.34946" lon="6.48798">
        <ele>542</ele>
        <time>2012-11-24T10:27:21Z</time>
      </trkpt>
      <trkpt lat="46.34947" lon="6.48802">
        <ele>542</ele>
        <time>2012-11-24T10:27:22Z</time>
      </trkpt>
      <trkpt lat="46.34948" lon="6.48805">
        <ele>542</ele>
        <time>2012-11-24T10:27:23Z</time>
      </trkpt>
      <trkpt lat="46.34949" lon="6.48808">
        <ele>542</ele>
        <time>2012-11-24T10:27:24Z</time>
      </trkpt>
      <trkpt lat="46.34948" lon="6.48812">
        <ele>542</ele>
        <time>2012-11-24T10:27:25Z</time>
      </trkpt>
      <trkpt lat="46.34948" lon="6.48815">
        <ele>542</ele>
        <time>2012-11-24T10:27:26Z</time>
      </trkpt>
      <trkpt lat="46.34949" lon="6.48819">
        <ele>542</ele>
        <time>2012-11-24T10:27:27Z</time>
      </trkpt>
      <trkpt lat="46.3495" lon="6.48822">
        <ele>542</ele>
        <time>2012-11-24T10:27:28Z</time>
      </trkpt>
      <trkpt lat="46.34951" lon="6.48825">
        <ele>542</ele>
        <time>2012-11-24T10:27:29Z</time>
      </trkpt>
      <trkpt lat="46.34951" lon="6.48828">
        <ele>542</ele>
        <time>2012-11-24T10:27:30Z</time>
      </trkpt>
      <trkpt lat="46.34951" lon="6.48831">
        <ele>542</ele>
        <time>2012-11-24T10:27:31Z</time>
      </trkpt>
      <trkpt lat="46.34951" lon="6.48836">
        <ele>542</ele>
        <time>2012-11-24T10:27:32Z</time>
      </trkpt>
      <trkpt lat="46.3495" lon="6.48839">
        <ele>542</ele>
        <time>2012-11-24T10:27:33Z</time>
      </trkpt>
      <trkpt lat="46.34949" lon="6.48843">
        <ele>542</ele>
        <time>2012-11-24T10:27:34Z</time>
      </trkpt>
      <trkpt lat="46.34948" lon="6.48845">
        <ele>542</ele>
        <time>2012-11-24T10:27:35Z</time>
      </trkpt>
      <trkpt lat="46.34949" lon="6.48848">
        <ele>542</ele>
        <time>2012-11-24T10:27:36Z</time>
      </trkpt>
      <trkpt lat="46.34949" lon="6.48853">
        <ele>542</ele>
        <time>2012-11-24T10:27:37Z</time>
      </trkpt>
      <trkpt lat="46.34949" lon="6.48856">
        <ele>542</ele>
        <time>2012-11-24T10:27:38Z</time>
      </trkpt>
      <trkpt lat="46.3495" lon="6.48859">
        <ele>541</ele>
        <time>2012-11-24T10:27:39Z</time>
      </trkpt>
      <trkpt lat="46.34951" lon="6.48863">
        <ele>541</ele>
        <time>2012-11-24T10:27:40Z</time>
      </trkpt>
      <trkpt lat="46.34951" lon="6.48865">
        <ele>541</ele>
        <time>2012-11-24T10:27:41Z</time>
      </trkpt>
      <trkpt lat="46.34951" lon="6.48868">
        <ele>541</ele>
        <time>2012-11-24T10:27:42Z</time>
      </trkpt>
      <trkpt lat="46.34951" lon="6.48871">
        <ele>541</ele>
        <time>2012-11-24T10:27:43Z</time>
      </trkpt>
      <trkpt lat="46.34951" lon="6.48874">
        <ele>541</ele>
        <time>2012-11-24T10:27:44Z</time>
      </trkpt>
      <trkpt lat="46.34951" lon="6.48875">
        <ele>541</ele>
        <time>2012-11-24T10:27:45Z</time>
      </trkpt>
      <trkpt lat="46.3495" lon="6.48879">
        <ele>541</ele>
        <time>2012-11-24T10:27:46Z</time>
      </trkpt>
      <trkpt lat="46.34951" lon="6.48881">
        <ele>541</ele>
        <time>2012-11-24T10:27:47Z</time>
      </trkpt>
      <trkpt lat="46.34952" lon="6.48884">
        <ele>541</ele>
        <time>2012-11-24T10:27:48Z</time>
      </trkpt>
      <trkpt lat="46.34953" lon="6.48887">
        <ele>541</ele>
        <time>2012-11-24T10:27:49Z</time>
      </trkpt>
      <trkpt lat="46.34954" lon="6.48889">
        <ele>541</ele>
        <time>2012-11-24T10:27:50Z</time>
      </trkpt>
      <trkpt lat="46.34955" lon="6.48892">
        <ele>540</ele>
        <time>2012-11-24T10:27:51Z</time>
      </trkpt>
      <trkpt lat="46.34956" lon="6.48896">
        <ele>539</ele>
        <time>2012-11-24T10:27:52Z</time>
      </trkpt>
      <trkpt lat="46.34958" lon="6.48899">
        <ele>538</ele>
        <time>2012-11-24T10:27:53Z</time>
      </trkpt>
      <trkpt lat="46.34959" lon="6.48902">
        <ele>537</ele>
        <time>2012-11-24T10:27:54Z</time>
      </trkpt>
      <trkpt lat="46.3496" lon="6.48904">
        <ele>536</ele>
        <time>2012-11-24T10:27:55Z</time>
      </trkpt>
      <trkpt lat="46.34961" lon="6.48907">
        <ele>536</ele>
        <time>2012-11-24T10:27:56Z</time>
      </trkpt>
      <trkpt lat="46.34961" lon="6.4891">
        <ele>535</ele>
        <time>2012-11-24T10:27:57Z</time>
      </trkpt>
      <trkpt lat="46.34961" lon="6.48913">
        <ele>535</ele>
        <time>2012-11-24T10:27:58Z</time>
      </trkpt>
      <trkpt lat="46.34962" lon="6.48916">
        <ele>534</ele>
        <time>2012-11-24T10:27:59Z</time>
      </trkpt>
      <trkpt lat="46.34962" lon="6.48919">
        <ele>534</ele>
        <time>2012-11-24T10:28:00Z</time>
      </trkpt>
      <trkpt lat="46.34963" lon="6.48923">
        <ele>533</ele>
        <time>2012-11-24T10:28:01Z</time>
      </trkpt>
      <trkpt lat="46.34964" lon="6.48926">
        <ele>532</ele>
        <time>2012-11-24T10:28:02Z</time>
      </trkpt>
      <trkpt lat="46.34964" lon="6.48929">
        <ele>532</ele>
        <time>2012-11-24T10:28:03Z</time>
      </trkpt>
      <trkpt lat="46.34964" lon="6.48932">
        <ele>532</ele>
        <time>2012-11-24T10:28:04Z</time>
      </trkpt>
      <trkpt lat="46.34965" lon="6.48935">
        <ele>532</ele>
        <time>2012-11-24T10:28:05Z</time>
      </trkpt>
      <trkpt lat="46.34966" lon="6.48939">
        <ele>531</ele>
        <time>2012-11-24T10:28:06Z</time>
      </trkpt>
      <trkpt lat="46.34967" lon="6.48944">
        <ele>530</ele>
        <time>2012-11-24T10:28:07Z</time>
      </trkpt>
      <trkpt lat="46.34968" lon="6.48947">
        <ele>529</ele>
        <time>2012-11-24T10:28:08Z</time>
      </trkpt>
      <trkpt lat="46.34969" lon="6.48951">
        <ele>528</ele>
        <time>2012-11-24T10:28:09Z</time>
      </trkpt>
      <trkpt lat="46.34969" lon="6.48956">
        <ele>527</ele>
        <time>2012-11-24T10:28:10Z</time>
      </trkpt>
      <trkpt lat="46.34969" lon="6.4896">
        <ele>527</ele>
        <time>2012-11-24T10:28:11Z</time>
      </trkpt>
      <trkpt lat="46.3497" lon="6.48964">
        <ele>527</ele>
        <time>2012-11-24T10:28:12Z</time>
      </trkpt>
      <trkpt lat="46.3497" lon="6.48967">
        <ele>527</ele>
        <time>2012-11-24T10:28:13Z</time>
      </trkpt>
      <trkpt lat="46.3497" lon="6.48972">
        <ele>527</ele>
        <time>2012-11-24T10:28:14Z</time>
      </trkpt>
      <trkpt lat="46.34971" lon="6.48976">
        <ele>527</ele>
        <time>2012-11-24T10:28:15Z</time>
      </trkpt>
      <trkpt lat="46.34972" lon="6.48981">
        <ele>527</ele>
        <time>2012-11-24T10:28:16Z</time>
      </trkpt>
      <trkpt lat="46.34972" lon="6.48984">
        <ele>528</ele>
        <time>2012-11-24T10:28:17Z</time>
      </trkpt>
      <trkpt lat="46.34973" lon="6.48987">
        <ele>529</ele>
        <time>2012-11-24T10:28:18Z</time>
      </trkpt>
      <trkpt lat="46.34974" lon="6.4899">
        <ele>529</ele>
        <time>2012-11-24T10:28:19Z</time>
      </trkpt>
      <trkpt lat="46.34975" lon="6.48993">
        <ele>530</ele>
        <time>2012-11-24T10:28:20Z</time>
      </trkpt>
      <trkpt lat="46.34975" lon="6.48995">
        <ele>530</ele>
        <time>2012-11-24T10:28:21Z</time>
      </trkpt>
      <trkpt lat="46.34976" lon="6.48998">
        <ele>531</ele>
        <time>2012-11-24T10:28:22Z</time>
      </trkpt>
      <trkpt lat="46.34977" lon="6.49002">
        <ele>532</ele>
        <time>2012-11-24T10:28:23Z</time>
      </trkpt>
      <trkpt lat="46.34979" lon="6.49005">
        <ele>532</ele>
        <time>2012-11-24T10:28:24Z</time>
      </trkpt>
      <trkpt lat="46.3498" lon="6.49008">
        <ele>533</ele>
        <time>2012-11-24T10:28:25Z</time>
      </trkpt>
      <trkpt lat="46.34981" lon="6.4901">
        <ele>533</ele>
        <time>2012-11-24T10:28:26Z</time>
      </trkpt>
      <trkpt lat="46.34981" lon="6.49012">
        <ele>533</ele>
        <time>2012-11-24T10:28:27Z</time>
      </trkpt>
      <trkpt lat="46.34983" lon="6.49015">
        <ele>533</ele>
        <time>2012-11-24T10:28:28Z</time>
      </trkpt>
      <trkpt lat="46.34984" lon="6.49018">
        <ele>533</ele>
        <time>2012-11-24T10:28:29Z</time>
      </trkpt>
      <trkpt lat="46.34985" lon="6.49021">
        <ele>533</ele>
        <time>2012-11-24T10:28:30Z</time>
      </trkpt>
      <trkpt lat="46.34987" lon="6.49024">
        <ele>533</ele>
        <time>2012-11-24T10:28:31Z</time>
      </trkpt>
      <trkpt lat="46.34988" lon="6.49027">
        <ele>533</ele>
        <time>2012-11-24T10:28:32Z</time>
      </trkpt>
      <trkpt lat="46.3499" lon="6.4903">
        <ele>532</ele>
        <time>2012-11-24T10:28:33Z</time>
      </trkpt>
      <trkpt lat="46.34992" lon="6.49032">
        <ele>531</ele>
        <time>2012-11-24T10:28:34Z</time>
      </trkpt>
      <trkpt lat="46.34994" lon="6.49034">
        <ele>530</ele>
        <time>2012-11-24T10:28:35Z</time>
      </trkpt>
      <trkpt lat="46.34996" lon="6.49036">
        <ele>529</ele>
        <time>2012-11-24T10:28:36Z</time>
      </trkpt>
      <trkpt lat="46.34998" lon="6.49038">
        <ele>528</ele>
        <time>2012-11-24T10:28:37Z</time>
      </trkpt>
      <trkpt lat="46.35" lon="6.4904">
        <ele>527</ele>
        <time>2012-11-24T10:28:38Z</time>
      </trkpt>
      <trkpt lat="46.35002" lon="6.49042">
        <ele>526</ele>
        <time>2012-11-24T10:28:39Z</time>
      </trkpt>
      <trkpt lat="46.35003" lon="6.49045">
        <ele>525</ele>
        <time>2012-11-24T10:28:40Z</time>
      </trkpt>
      <trkpt lat="46.35004" lon="6.49048">
        <ele>525</ele>
        <time>2012-11-24T10:28:41Z</time>
      </trkpt>
      <trkpt lat="46.35006" lon="6.49051">
        <ele>524</ele>
        <time>2012-11-24T10:28:42Z</time>
      </trkpt>
      <trkpt lat="46.35006" lon="6.49053">
        <ele>524</ele>
        <time>2012-11-24T10:28:43Z</time>
      </trkpt>
      <trkpt lat="46.35007" lon="6.49056">
        <ele>524</ele>
        <time>2012-11-24T10:28:44Z</time>
      </trkpt>
      <trkpt lat="46.35008" lon="6.49059">
        <ele>524</ele>
        <time>2012-11-24T10:28:45Z</time>
      </trkpt>
      <trkpt lat="46.35007" lon="6.49063">
        <ele>524</ele>
        <time>2012-11-24T10:28:46Z</time>
      </trkpt>
      <trkpt lat="46.35008" lon="6.49067">
        <ele>524</ele>
        <time>2012-11-24T10:28:47Z</time>
      </trkpt>
      <trkpt lat="46.3501" lon="6.49071">
        <ele>524</ele>
        <time>2012-11-24T10:28:48Z</time>
      </trkpt>
      <trkpt lat="46.35011" lon="6.49074">
        <ele>524</ele>
        <time>2012-11-24T10:28:49Z</time>
      </trkpt>
      <trkpt lat="46.35012" lon="6.49078">
        <ele>524</ele>
        <time>2012-11-24T10:28:50Z</time>
      </trkpt>
      <trkpt lat="46.35013" lon="6.4908">
        <ele>525</ele>
        <time>2012-11-24T10:28:51Z</time>
      </trkpt>
      <trkpt lat="46.35014" lon="6.49083">
        <ele>525</ele>
        <time>2012-11-24T10:28:52Z</time>
      </trkpt>
      <trkpt lat="46.35016" lon="6.49085">
        <ele>525</ele>
        <time>2012-11-24T10:28:53Z</time>
      </trkpt>
      <trkpt lat="46.35017" lon="6.49088">
        <ele>525</ele>
        <time>2012-11-24T10:28:54Z</time>
      </trkpt>
      <trkpt lat="46.3502" lon="6.49091">
        <ele>525</ele>
        <time>2012-11-24T10:28:55Z</time>
      </trkpt>
      <trkpt lat="46.35021" lon="6.49094">
        <ele>525</ele>
        <time>2012-11-24T10:28:56Z</time>
      </trkpt>
      <trkpt lat="46.35024" lon="6.49097">
        <ele>525</ele>
        <time>2012-11-24T10:28:57Z</time>
      </trkpt>
      <trkpt lat="46.35025" lon="6.491">
        <ele>525</ele>
        <time>2012-11-24T10:28:58Z</time>
      </trkpt>
      <trkpt lat="46.35027" lon="6.49104">
        <ele>525</ele>
        <time>2012-11-24T10:28:59Z</time>
      </trkpt>
      <trkpt lat="46.35028" lon="6.49107">
        <ele>525</ele>
        <time>2012-11-24T10:29:00Z</time>
      </trkpt>
      <trkpt lat="46.35029" lon="6.49109">
        <ele>525</ele>
        <time>2012-11-24T10:29:01Z</time>
      </trkpt>
      <trkpt lat="46.35031" lon="6.49111">
        <ele>525</ele>
        <time>2012-11-24T10:29:02Z</time>
      </trkpt>
      <trkpt lat="46.35033" lon="6.49113">
        <ele>525</ele>
        <time>2012-11-24T10:29:03Z</time>
      </trkpt>
      <trkpt lat="46.35035" lon="6.49115">
        <ele>525</ele>
        <time>2012-11-24T10:29:04Z</time>
      </trkpt>
      <trkpt lat="46.35038" lon="6.49117">
        <ele>525</ele>
        <time>2012-11-24T10:29:05Z</time>
      </trkpt>
      <trkpt lat="46.3504" lon="6.4912">
        <ele>525</ele>
        <time>2012-11-24T10:29:06Z</time>
      </trkpt>
      <trkpt lat="46.35041" lon="6.49123">
        <ele>525</ele>
        <time>2012-11-24T10:29:07Z</time>
      </trkpt>
      <trkpt lat="46.35043" lon="6.49127">
        <ele>525</ele>
        <time>2012-11-24T10:29:08Z</time>
      </trkpt>
      <trkpt lat="46.35044" lon="6.4913">
        <ele>525</ele>
        <time>2012-11-24T10:29:09Z</time>
      </trkpt>
      <trkpt lat="46.35046" lon="6.49132">
        <ele>526</ele>
        <time>2012-11-24T10:29:10Z</time>
      </trkpt>
      <trkpt lat="46.35048" lon="6.49135">
        <ele>527</ele>
        <time>2012-11-24T10:29:11Z</time>
      </trkpt>
      <trkpt lat="46.3505" lon="6.49137">
        <ele>527</ele>
        <time>2012-11-24T10:29:12Z</time>
      </trkpt>
      <trkpt lat="46.35051" lon="6.49139">
        <ele>528</ele>
        <time>2012-11-24T10:29:13Z</time>
      </trkpt>
      <trkpt lat="46.35054" lon="6.49142">
        <ele>528</ele>
        <time>2012-11-24T10:29:14Z</time>
      </trkpt>
      <trkpt lat="46.35055" lon="6.49145">
        <ele>528</ele>
        <time>2012-11-24T10:29:15Z</time>
      </trkpt>
      <trkpt lat="46.35056" lon="6.49149">
        <ele>528</ele>
        <time>2012-11-24T10:29:16Z</time>
      </trkpt>
      <trkpt lat="46.35057" lon="6.49152">
        <ele>528</ele>
        <time>2012-11-24T10:29:17Z</time>
      </trkpt>
      <trkpt lat="46.35057" lon="6.49155">
        <ele>528</ele>
        <time>2012-11-24T10:29:18Z</time>
      </trkpt>
      <trkpt lat="46.35059" lon="6.49157">
        <ele>528</ele>
        <time>2012-11-24T10:29:19Z</time>
      </trkpt>
      <trkpt lat="46.3506" lon="6.4916">
        <ele>529</ele>
        <time>2012-11-24T10:29:20Z</time>
      </trkpt>
      <trkpt lat="46.35061" lon="6.49162">
        <ele>530</ele>
        <time>2012-11-24T10:29:21Z</time>
      </trkpt>
      <trkpt lat="46.35062" lon="6.49164">
        <ele>531</ele>
        <time>2012-11-24T10:29:22Z</time>
      </trkpt>
      <trkpt lat="46.35063" lon="6.49166">
        <ele>531</ele>
        <time>2012-11-24T10:29:23Z</time>
      </trkpt>
      <trkpt lat="46.35063" lon="6.49169">
        <ele>531</ele>
        <time>2012-11-24T10:29:24Z</time>
      </trkpt>
      <trkpt lat="46.35062" lon="6.49173">
        <ele>531</ele>
        <time>2012-11-24T10:29:25Z</time>
      </trkpt>
      <trkpt lat="46.35062" lon="6.49176">
        <ele>531</ele>
        <time>2012-11-24T10:29:26Z</time>
      </trkpt>
      <trkpt lat="46.35061" lon="6.49179">
        <ele>531</ele>
        <time>2012-11-24T10:29:27Z</time>
      </trkpt>
      <trkpt lat="46.35061" lon="6.49182">
        <ele>532</ele>
        <time>2012-11-24T10:29:28Z</time>
      </trkpt>
      <trkpt lat="46.3506" lon="6.49185">
        <ele>532</ele>
        <time>2012-11-24T10:29:29Z</time>
      </trkpt>
      <trkpt lat="46.35059" lon="6.49187">
        <ele>533</ele>
        <time>2012-11-24T10:29:30Z</time>
      </trkpt>
      <trkpt lat="46.35057" lon="6.49189">
        <ele>533</ele>
        <time>2012-11-24T10:29:31Z</time>
      </trkpt>
      <trkpt lat="46.35056" lon="6.49192">
        <ele>533</ele>
        <time>2012-11-24T10:29:32Z</time>
      </trkpt>
      <trkpt lat="46.35055" lon="6.49193">
        <ele>533</ele>
        <time>2012-11-24T10:29:33Z</time>
      </trkpt>
      <trkpt lat="46.35054" lon="6.49195">
        <ele>533</ele>
        <time>2012-11-24T10:29:34Z</time>
      </trkpt>
      <trkpt lat="46.35053" lon="6.49197">
        <ele>533</ele>
        <time>2012-11-24T10:29:35Z</time>
      </trkpt>
      <trkpt lat="46.35051" lon="6.492">
        <ele>533</ele>
        <time>2012-11-24T10:29:36Z</time>
      </trkpt>
      <trkpt lat="46.35049" lon="6.49202">
        <ele>533</ele>
        <time>2012-11-24T10:29:37Z</time>
      </trkpt>
      <trkpt lat="46.35047" lon="6.49205">
        <ele>534</ele>
        <time>2012-11-24T10:29:38Z</time>
      </trkpt>
      <trkpt lat="46.35045" lon="6.49207">
        <ele>535</ele>
        <time>2012-11-24T10:29:39Z</time>
      </trkpt>
      <trkpt lat="46.35044" lon="6.4921">
        <ele>535</ele>
        <time>2012-11-24T10:29:40Z</time>
      </trkpt>
      <trkpt lat="46.35043" lon="6.49212">
        <ele>535</ele>
        <time>2012-11-24T10:29:41Z</time>
      </trkpt>
      <trkpt lat="46.35042" lon="6.49214">
        <ele>536</ele>
        <time>2012-11-24T10:29:42Z</time>
      </trkpt>
      <trkpt lat="46.3504" lon="6.49216">
        <ele>536</ele>
        <time>2012-11-24T10:29:43Z</time>
      </trkpt>
      <trkpt lat="46.35039" lon="6.49218">
        <ele>536</ele>
        <time>2012-11-24T10:29:44Z</time>
      </trkpt>
      <trkpt lat="46.35037" lon="6.4922">
        <ele>536</ele>
        <time>2012-11-24T10:29:45Z</time>
      </trkpt>
      <trkpt lat="46.35037" lon="6.49223">
        <ele>537</ele>
        <time>2012-11-24T10:29:46Z</time>
      </trkpt>
      <trkpt lat="46.35036" lon="6.49225">
        <ele>538</ele>
        <time>2012-11-24T10:29:47Z</time>
      </trkpt>
      <trkpt lat="46.35035" lon="6.49227">
        <ele>538</ele>
        <time>2012-11-24T10:29:48Z</time>
      </trkpt>
      <trkpt lat="46.35034" lon="6.49228">
        <ele>538</ele>
        <time>2012-11-24T10:29:49Z</time>
      </trkpt>
      <trkpt lat="46.35033" lon="6.49231">
        <ele>538</ele>
        <time>2012-11-24T10:29:50Z</time>
      </trkpt>
      <trkpt lat="46.35031" lon="6.49233">
        <ele>538</ele>
        <time>2012-11-24T10:29:51Z</time>
      </trkpt>
      <trkpt lat="46.35029" lon="6.49235">
        <ele>538</ele>
        <time>2012-11-24T10:29:52Z</time>
      </trkpt>
      <trkpt lat="46.35027" lon="6.49236">
        <ele>538</ele>
        <time>2012-11-24T10:29:53Z</time>
      </trkpt>
      <trkpt lat="46.35026" lon="6.49239">
        <ele>538</ele>
        <time>2012-11-24T10:29:54Z</time>
      </trkpt>
      <trkpt lat="46.35024" lon="6.49241">
        <ele>538</ele>
        <time>2012-11-24T10:29:55Z</time>
      </trkpt>
      <trkpt lat="46.35022" lon="6.49243">
        <ele>538</ele>
        <time>2012-11-24T10:29:56Z</time>
      </trkpt>
      <trkpt lat="46.3502" lon="6.49246">
        <ele>538</ele>
        <time>2012-11-24T10:29:57Z</time>
      </trkpt>
      <trkpt lat="46.35017" lon="6.49249">
        <ele>538</ele>
        <time>2012-11-24T10:29:58Z</time>
      </trkpt>
      <trkpt lat="46.35015" lon="6.49252">
        <ele>538</ele>
        <time>2012-11-24T10:29:59Z</time>
      </trkpt>
      <trkpt lat="46.35013" lon="6.49255">
        <ele>538</ele>
        <time>2012-11-24T10:30:00Z</time>
      </trkpt>
      <trkpt lat="46.35012" lon="6.49257">
        <ele>538</ele>
        <time>2012-11-24T10:30:01Z</time>
      </trkpt>
      <trkpt lat="46.35011" lon="6.4926">
        <ele>539</ele>
        <time>2012-11-24T10:30:02Z</time>
      </trkpt>
      <trkpt lat="46.35009" lon="6.49263">
        <ele>540</ele>
        <time>2012-11-24T10:30:03Z</time>
      </trkpt>
      <trkpt lat="46.35008" lon="6.49265">
        <ele>540</ele>
        <time>2012-11-24T10:30:04Z</time>
      </trkpt>
      <trkpt lat="46.35008" lon="6.49268">
        <ele>541</ele>
        <time>2012-11-24T10:30:05Z</time>
      </trkpt>
      <trkpt lat="46.35007" lon="6.4927">
        <ele>541</ele>
        <time>2012-11-24T10:30:06Z</time>
      </trkpt>
      <trkpt lat="46.35006" lon="6.49273">
        <ele>542</ele>
        <time>2012-11-24T10:30:07Z</time>
      </trkpt>
      <trkpt lat="46.35005" lon="6.49277">
        <ele>542</ele>
        <time>2012-11-24T10:30:08Z</time>
      </trkpt>
      <trkpt lat="46.35004" lon="6.49279">
        <ele>543</ele>
        <time>2012-11-24T10:30:09Z</time>
      </trkpt>
      <trkpt lat="46.35003" lon="6.49282">
        <ele>544</ele>
        <time>2012-11-24T10:30:10Z</time>
      </trkpt>
      <trkpt lat="46.35001" lon="6.49285">
        <ele>544</ele>
        <time>2012-11-24T10:30:11Z</time>
      </trkpt>
      <trkpt lat="46.35" lon="6.49287">
        <ele>544</ele>
        <time>2012-11-24T10:30:12Z</time>
      </trkpt>
      <trkpt lat="46.34999" lon="6.49289">
        <ele>544</ele>
        <time>2012-11-24T10:30:13Z</time>
      </trkpt>
      <trkpt lat="46.34997" lon="6.49292">
        <ele>544</ele>
        <time>2012-11-24T10:30:14Z</time>
      </trkpt>
      <trkpt lat="46.34996" lon="6.49293">
        <ele>544</ele>
        <time>2012-11-24T10:30:15Z</time>
      </trkpt>
      <trkpt lat="46.34994" lon="6.49295">
        <ele>544</ele>
        <time>2012-11-24T10:30:16Z</time>
      </trkpt>
      <trkpt lat="46.34992" lon="6.49296">
        <ele>544</ele>
        <time>2012-11-24T10:30:17Z</time>
      </trkpt>
      <trkpt lat="46.34991" lon="6.49298">
        <ele>544</ele>
        <time>2012-11-24T10:30:18Z</time>
      </trkpt>
      <trkpt lat="46.34989" lon="6.49299">
        <ele>544</ele>
        <time>2012-11-24T10:30:19Z</time>
      </trkpt>
      <trkpt lat="46.34988" lon="6.49299">
        <ele>544</ele>
        <time>2012-11-24T10:30:20Z</time>
      </trkpt>
      <trkpt lat="46.34986" lon="6.493">
        <ele>544</ele>
        <time>2012-11-24T10:30:21Z</time>
      </trkpt>
      <trkpt lat="46.34985" lon="6.49302">
        <ele>544</ele>
        <time>2012-11-24T10:30:22Z</time>
      </trkpt>
      <trkpt lat="46.34983" lon="6.49303">
        <ele>544</ele>
        <time>2012-11-24T10:30:23Z</time>
      </trkpt>
      <trkpt lat="46.34981" lon="6.49304">
        <ele>544</ele>
        <time>2012-11-24T10:30:24Z</time>
      </trkpt>
      <trkpt lat="46.34979" lon="6.49304">
        <ele>544</ele>
        <time>2012-11-24T10:30:25Z</time>
      </trkpt>
      <trkpt lat="46.34977" lon="6.49305">
        <ele>544</ele>
        <time>2012-11-24T10:30:26Z</time>
      </trkpt>
      <trkpt lat="46.34976" lon="6.49306">
        <ele>545</ele>
        <time>2012-11-24T10:30:27Z</time>
      </trkpt>
      <trkpt lat="46.34974" lon="6.49307">
        <ele>545</ele>
        <time>2012-11-24T10:30:28Z</time>
      </trkpt>
      <trkpt lat="46.34972" lon="6.49307">
        <ele>545</ele>
        <time>2012-11-24T10:30:29Z</time>
      </trkpt>
      <trkpt lat="46.3497" lon="6.49308">
        <ele>545</ele>
        <time>2012-11-24T10:30:30Z</time>
      </trkpt>
      <trkpt lat="46.34968" lon="6.49309">
        <ele>546</ele>
        <time>2012-11-24T10:30:31Z</time>
      </trkpt>
      <trkpt lat="46.34967" lon="6.4931">
        <ele>546</ele>
        <time>2012-11-24T10:30:32Z</time>
      </trkpt>
      <trkpt lat="46.34964" lon="6.4931">
        <ele>546</ele>
        <time>2012-11-24T10:30:33Z</time>
      </trkpt>
      <trkpt lat="46.34962" lon="6.4931">
        <ele>547</ele>
        <time>2012-11-24T10:30:34Z</time>
      </trkpt>
      <trkpt lat="46.3496" lon="6.49311">
        <ele>548</ele>
        <time>2012-11-24T10:30:35Z</time>
      </trkpt>
      <trkpt lat="46.34958" lon="6.49311">
        <ele>548</ele>
        <time>2012-11-24T10:30:36Z</time>
      </trkpt>
      <trkpt lat="46.34956" lon="6.49312">
        <ele>549</ele>
        <time>2012-11-24T10:30:37Z</time>
      </trkpt>
      <trkpt lat="46.34954" lon="6.49312">
        <ele>550</ele>
        <time>2012-11-24T10:30:38Z</time>
      </trkpt>
      <trkpt lat="46.34952" lon="6.49312">
        <ele>550</ele>
        <time>2012-11-24T10:30:39Z</time>
      </trkpt>
      <trkpt lat="46.34949" lon="6.49312">
        <ele>551</ele>
        <time>2012-11-24T10:30:40Z</time>
      </trkpt>
      <trkpt lat="46.34947" lon="6.49312">
        <ele>551</ele>
        <time>2012-11-24T10:30:41Z</time>
      </trkpt>
      <trkpt lat="46.34945" lon="6.49313">
        <ele>551</ele>
        <time>2012-11-24T10:30:42Z</time>
      </trkpt>
      <trkpt lat="46.34943" lon="6.49313">
        <ele>552</ele>
        <time>2012-11-24T10:30:43Z</time>
      </trkpt>
      <trkpt lat="46.34941" lon="6.49314">
        <ele>552</ele>
        <time>2012-11-24T10:30:44Z</time>
      </trkpt>
      <trkpt lat="46.34938" lon="6.49314">
        <ele>552</ele>
        <time>2012-11-24T10:30:45Z</time>
      </trkpt>
      <trkpt lat="46.34936" lon="6.49315">
        <ele>552</ele>
        <time>2012-11-24T10:30:46Z</time>
      </trkpt>
      <trkpt lat="46.34934" lon="6.49315">
        <ele>553</ele>
        <time>2012-11-24T10:30:47Z</time>
      </trkpt>
      <trkpt lat="46.34932" lon="6.49316">
        <ele>553</ele>
        <time>2012-11-24T10:30:48Z</time>
      </trkpt>
      <trkpt lat="46.3493" lon="6.49316">
        <ele>553</ele>
        <time>2012-11-24T10:30:49Z</time>
      </trkpt>
      <trkpt lat="46.34928" lon="6.49317">
        <ele>553</ele>
        <time>2012-11-24T10:30:50Z</time>
      </trkpt>
      <trkpt lat="46.34926" lon="6.49319">
        <ele>553</ele>
        <time>2012-11-24T10:30:51Z</time>
      </trkpt>
      <trkpt lat="46.34924" lon="6.49319">
        <ele>553</ele>
        <time>2012-11-24T10:30:52Z</time>
      </trkpt>
      <trkpt lat="46.34922" lon="6.49321">
        <ele>554</ele>
        <time>2012-11-24T10:30:53Z</time>
      </trkpt>
      <trkpt lat="46.3492" lon="6.49322">
        <ele>554</ele>
        <time>2012-11-24T10:30:54Z</time>
      </trkpt>
      <trkpt lat="46.34919" lon="6.49323">
        <ele>555</ele>
        <time>2012-11-24T10:30:55Z</time>
      </trkpt>
      <trkpt lat="46.34917" lon="6.49324">
        <ele>555</ele>
        <time>2012-11-24T10:30:56Z</time>
      </trkpt>
      <trkpt lat="46.34915" lon="6.49325">
        <ele>556</ele>
        <time>2012-11-24T10:30:57Z</time>
      </trkpt>
      <trkpt lat="46.34912" lon="6.49326">
        <ele>556</ele>
        <time>2012-11-24T10:30:58Z</time>
      </trkpt>
      <trkpt lat="46.3491" lon="6.49326">
        <ele>557</ele>
        <time>2012-11-24T10:30:59Z</time>
      </trkpt>
      <trkpt lat="46.34908" lon="6.49327">
        <ele>557</ele>
        <time>2012-11-24T10:31:00Z</time>
      </trkpt>
      <trkpt lat="46.34906" lon="6.49328">
        <ele>558</ele>
        <time>2012-11-24T10:31:01Z</time>
      </trkpt>
      <trkpt lat="46.34903" lon="6.49328">
        <ele>558</ele>
        <time>2012-11-24T10:31:02Z</time>
      </trkpt>
      <trkpt lat="46.34901" lon="6.4933">
        <ele>558</ele>
        <time>2012-11-24T10:31:03Z</time>
      </trkpt>
      <trkpt lat="46.34899" lon="6.49331">
        <ele>559</ele>
        <time>2012-11-24T10:31:04Z</time>
      </trkpt>
      <trkpt lat="46.34897" lon="6.49332">
        <ele>559</ele>
        <time>2012-11-24T10:31:05Z</time>
      </trkpt>
      <trkpt lat="46.34895" lon="6.49333">
        <ele>559</ele>
        <time>2012-11-24T10:31:06Z</time>
      </trkpt>
      <trkpt lat="46.34893" lon="6.49335">
        <ele>560</ele>
        <time>2012-11-24T10:31:07Z</time>
      </trkpt>
      <trkpt lat="46.34891" lon="6.49335">
        <ele>560</ele>
        <time>2012-11-24T10:31:08Z</time>
      </trkpt>
      <trkpt lat="46.34889" lon="6.49337">
        <ele>560</ele>
        <time>2012-11-24T10:31:09Z</time>
      </trkpt>
      <trkpt lat="46.34887" lon="6.49338">
        <ele>560</ele>
        <time>2012-11-24T10:31:10Z</time>
      </trkpt>
      <trkpt lat="46.34885" lon="6.4934">
        <ele>561</ele>
        <time>2012-11-24T10:31:11Z</time>
      </trkpt>
      <trkpt lat="46.34883" lon="6.49342">
        <ele>561</ele>
        <time>2012-11-24T10:31:12Z</time>
      </trkpt>
      <trkpt lat="46.34881" lon="6.49342">
        <ele>561</ele>
        <time>2012-11-24T10:31:13Z</time>
      </trkpt>
      <trkpt lat="46.34879" lon="6.49343">
        <ele>561</ele>
        <time>2012-11-24T10:31:14Z</time>
      </trkpt>
      <trkpt lat="46.34877" lon="6.49345">
        <ele>561</ele>
        <time>2012-11-24T10:31:15Z</time>
      </trkpt>
      <trkpt lat="46.34876" lon="6.49348">
        <ele>561</ele>
        <time>2012-11-24T10:31:16Z</time>
      </trkpt>
      <trkpt lat="46.34875" lon="6.4935">
        <ele>561</ele>
        <time>2012-11-24T10:31:17Z</time>
      </trkpt>
      <trkpt lat="46.34874" lon="6.49353">
        <ele>561</ele>
        <time>2012-11-24T10:31:18Z</time>
      </trkpt>
      <trkpt lat="46.34873" lon="6.49355">
        <ele>561</ele>
        <time>2012-11-24T10:31:19Z</time>
      </trkpt>
      <trkpt lat="46.34872" lon="6.49357">
        <ele>561</ele>
        <time>2012-11-24T10:31:20Z</time>
      </trkpt>
      <trkpt lat="46.3487" lon="6.49358">
        <ele>561</ele>
        <time>2012-11-24T10:31:21Z</time>
      </trkpt>
      <trkpt lat="46.34869" lon="6.4936">
        <ele>561</ele>
        <time>2012-11-24T10:31:22Z</time>
      </trkpt>
      <trkpt lat="46.34867" lon="6.49361">
        <ele>561</ele>
        <time>2012-11-24T10:31:23Z</time>
      </trkpt>
      <trkpt lat="46.34866" lon="6.49363">
        <ele>561</ele>
        <time>2012-11-24T10:31:24Z</time>
      </trkpt>
      <trkpt lat="46.34865" lon="6.49365">
        <ele>561</ele>
        <time>2012-11-24T10:31:25Z</time>
      </trkpt>
      <trkpt lat="46.34864" lon="6.49367">
        <ele>561</ele>
        <time>2012-11-24T10:31:26Z</time>
      </trkpt>
      <trkpt lat="46.34863" lon="6.49369">
        <ele>561</ele>
        <time>2012-11-24T10:31:27Z</time>
      </trkpt>
      <trkpt lat="46.34862" lon="6.49372">
        <ele>561</ele>
        <time>2012-11-24T10:31:28Z</time>
      </trkpt>
      <trkpt lat="46.34862" lon="6.49374">
        <ele>561</ele>
        <time>2012-11-24T10:31:29Z</time>
      </trkpt>
      <trkpt lat="46.34861" lon="6.49376">
        <ele>561</ele>
        <time>2012-11-24T10:31:30Z</time>
      </trkpt>
      <trkpt lat="46.34861" lon="6.49379">
        <ele>561</ele>
        <time>2012-11-24T10:31:31Z</time>
      </trkpt>
      <trkpt lat="46.34861" lon="6.49382">
        <ele>561</ele>
        <time>2012-11-24T10:31:32Z</time>
      </trkpt>
      <trkpt lat="46.3486" lon="6.49383">
        <ele>561</ele>
        <time>2012-11-24T10:31:33Z</time>
      </trkpt>
      <trkpt lat="46.34859" lon="6.49385">
        <ele>562</ele>
        <time>2012-11-24T10:31:34Z</time>
      </trkpt>
      <trkpt lat="46.34858" lon="6.49386">
        <ele>562</ele>
        <time>2012-11-24T10:31:35Z</time>
      </trkpt>
      <trkpt lat="46.34856" lon="6.49388">
        <ele>562</ele>
        <time>2012-11-24T10:31:36Z</time>
      </trkpt>
      <trkpt lat="46.34855" lon="6.49391">
        <ele>562</ele>
        <time>2012-11-24T10:31:37Z</time>
      </trkpt>
      <trkpt lat="46.34855" lon="6.49393">
        <ele>562</ele>
        <time>2012-11-24T10:31:38Z</time>
      </trkpt>
      <trkpt lat="46.34854" lon="6.49394">
        <ele>562</ele>
        <time>2012-11-24T10:31:39Z</time>
      </trkpt>
      <trkpt lat="46.34853" lon="6.49397">
        <ele>562</ele>
        <time>2012-11-24T10:31:40Z</time>
      </trkpt>
      <trkpt lat="46.34852" lon="6.49398">
        <ele>562</ele>
        <time>2012-11-24T10:31:41Z</time>
      </trkpt>
      <trkpt lat="46.34851" lon="6.494">
        <ele>562</ele>
        <time>2012-11-24T10:31:42Z</time>
      </trkpt>
      <trkpt lat="46.3485" lon="6.49402">
        <ele>562</ele>
        <time>2012-11-24T10:31:43Z</time>
      </trkpt>
      <trkpt lat="46.34848" lon="6.49403">
        <ele>562</ele>
        <time>2012-11-24T10:31:44Z</time>
      </trkpt>
      <trkpt lat="46.34845" lon="6.49403">
        <ele>562</ele>
        <time>2012-11-24T10:31:45Z</time>
      </trkpt>
      <trkpt lat="46.34844" lon="6.49404">
        <ele>562</ele>
        <time>2012-11-24T10:31:46Z</time>
      </trkpt>
      <trkpt lat="46.34843" lon="6.49405">
        <ele>562</ele>
        <time>2012-11-24T10:31:47Z</time>
      </trkpt>
      <trkpt lat="46.34841" lon="6.49406">
        <ele>562</ele>
        <time>2012-11-24T10:31:48Z</time>
      </trkpt>
      <trkpt lat="46.3484" lon="6.49408">
        <ele>562</ele>
        <time>2012-11-24T10:31:49Z</time>
      </trkpt>
      <trkpt lat="46.34838" lon="6.49409">
        <ele>561</ele>
        <time>2012-11-24T10:31:50Z</time>
      </trkpt>
      <trkpt lat="46.34837" lon="6.49409">
        <ele>560</ele>
        <time>2012-11-24T10:31:51Z</time>
      </trkpt>
      <trkpt lat="46.34835" lon="6.49412">
        <ele>560</ele>
        <time>2012-11-24T10:31:52Z</time>
      </trkpt>
      <trkpt lat="46.34834" lon="6.49416">
        <ele>560</ele>
        <time>2012-11-24T10:31:53Z</time>
      </trkpt>
      <trkpt lat="46.34833" lon="6.49418">
        <ele>560</ele>
        <time>2012-11-24T10:31:54Z</time>
      </trkpt>
      <trkpt lat="46.34832" lon="6.4942">
        <ele>560</ele>
        <time>2012-11-24T10:31:55Z</time>
      </trkpt>
      <trkpt lat="46.3483" lon="6.49422">
        <ele>560</ele>
        <time>2012-11-24T10:31:56Z</time>
      </trkpt>
      <trkpt lat="46.34829" lon="6.49423">
        <ele>560</ele>
        <time>2012-11-24T10:31:57Z</time>
      </trkpt>
      <trkpt lat="46.34827" lon="6.49425">
        <ele>560</ele>
        <time>2012-11-24T10:31:58Z</time>
      </trkpt>
      <trkpt lat="46.34826" lon="6.49427">
        <ele>560</ele>
        <time>2012-11-24T10:31:59Z</time>
      </trkpt>
      <trkpt lat="46.34825" lon="6.49429">
        <ele>560</ele>
        <time>2012-11-24T10:32:00Z</time>
      </trkpt>
      <trkpt lat="46.34824" lon="6.49433">
        <ele>560</ele>
        <time>2012-11-24T10:32:01Z</time>
      </trkpt>
      <trkpt lat="46.34823" lon="6.49434">
        <ele>560</ele>
        <time>2012-11-24T10:32:02Z</time>
      </trkpt>
      <trkpt lat="46.34821" lon="6.49437">
        <ele>560</ele>
        <time>2012-11-24T10:32:03Z</time>
      </trkpt>
      <trkpt lat="46.34819" lon="6.49436">
        <ele>560</ele>
        <time>2012-11-24T10:32:04Z</time>
      </trkpt>
      <trkpt lat="46.34818" lon="6.49438">
        <ele>560</ele>
        <time>2012-11-24T10:32:05Z</time>
      </trkpt>
      <trkpt lat="46.34816" lon="6.4944">
        <ele>560</ele>
        <time>2012-11-24T10:32:06Z</time>
      </trkpt>
      <trkpt lat="46.34816" lon="6.49443">
        <ele>560</ele>
        <time>2012-11-24T10:32:07Z</time>
      </trkpt>
      <trkpt lat="46.34814" lon="6.49445">
        <ele>560</ele>
        <time>2012-11-24T10:32:08Z</time>
      </trkpt>
      <trkpt lat="46.34813" lon="6.49447">
        <ele>561</ele>
        <time>2012-11-24T10:32:09Z</time>
      </trkpt>
      <trkpt lat="46.34811" lon="6.49448">
        <ele>562</ele>
        <time>2012-11-24T10:32:10Z</time>
      </trkpt>
      <trkpt lat="46.3481" lon="6.49449">
        <ele>563</ele>
        <time>2012-11-24T10:32:11Z</time>
      </trkpt>
      <trkpt lat="46.34808" lon="6.4945">
        <ele>563</ele>
        <time>2012-11-24T10:32:12Z</time>
      </trkpt>
      <trkpt lat="46.34806" lon="6.49451">
        <ele>564</ele>
        <time>2012-11-24T10:32:13Z</time>
      </trkpt>
      <trkpt lat="46.34804" lon="6.49451">
        <ele>565</ele>
        <time>2012-11-24T10:32:15Z</time>
      </trkpt>
      <trkpt lat="46.34802" lon="6.4945">
        <ele>565</ele>
        <time>2012-11-24T10:32:16Z</time>
      </trkpt>
      <trkpt lat="46.348" lon="6.4945">
        <ele>566</ele>
        <time>2012-11-24T10:32:17Z</time>
      </trkpt>
      <trkpt lat="46.34797" lon="6.49448">
        <ele>566</ele>
        <time>2012-11-24T10:32:18Z</time>
      </trkpt>
      <trkpt lat="46.34796" lon="6.49449">
        <ele>566</ele>
        <time>2012-11-24T10:32:19Z</time>
      </trkpt>
      <trkpt lat="46.34795" lon="6.49451">
        <ele>566</ele>
        <time>2012-11-24T10:32:19Z</time>
      </trkpt>
      <trkpt lat="46.34793" lon="6.49454">
        <ele>566</ele>
        <time>2012-11-24T10:32:20Z</time>
      </trkpt>
      <trkpt lat="46.34792" lon="6.49457">
        <ele>567</ele>
        <time>2012-11-24T10:32:21Z</time>
      </trkpt>
      <trkpt lat="46.3479" lon="6.4946">
        <ele>567</ele>
        <time>2012-11-24T10:32:22Z</time>
      </trkpt>
      <trkpt lat="46.34789" lon="6.49463">
        <ele>567</ele>
        <time>2012-11-24T10:32:23Z</time>
      </trkpt>
      <trkpt lat="46.34787" lon="6.49465">
        <ele>568</ele>
        <time>2012-11-24T10:32:24Z</time>
      </trkpt>
      <trkpt lat="46.34785" lon="6.49467">
        <ele>568</ele>
        <time>2012-11-24T10:32:25Z</time>
      </trkpt>
      <trkpt lat="46.34784" lon="6.49469">
        <ele>568</ele>
        <time>2012-11-24T10:32:26Z</time>
      </trkpt>
      <trkpt lat="46.34782" lon="6.49471">
        <ele>568</ele>
        <time>2012-11-24T10:32:27Z</time>
      </trkpt>
      <trkpt lat="46.34781" lon="6.49473">
        <ele>568</ele>
        <time>2012-11-24T10:32:28Z</time>
      </trkpt>
      <trkpt lat="46.34779" lon="6.49475">
        <ele>569</ele>
        <time>2012-11-24T10:32:29Z</time>
      </trkpt>
      <trkpt lat="46.34777" lon="6.49476">
        <ele>569</ele>
        <time>2012-11-24T10:32:30Z</time>
      </trkpt>
      <trkpt lat="46.34776" lon="6.4948">
        <ele>570</ele>
        <time>2012-11-24T10:32:31Z</time>
      </trkpt>
      <trkpt lat="46.34774" lon="6.49481">
        <ele>570</ele>
        <time>2012-11-24T10:32:32Z</time>
      </trkpt>
      <trkpt lat="46.34771" lon="6.49483">
        <ele>571</ele>
        <time>2012-11-24T10:32:33Z</time>
      </trkpt>
      <trkpt lat="46.3477" lon="6.49485">
        <ele>572</ele>
        <time>2012-11-24T10:32:34Z</time>
      </trkpt>
      <trkpt lat="46.34768" lon="6.49487">
        <ele>572</ele>
        <time>2012-11-24T10:32:35Z</time>
      </trkpt>
      <trkpt lat="46.34766" lon="6.49489">
        <ele>573</ele>
        <time>2012-11-24T10:32:36Z</time>
      </trkpt>
      <trkpt lat="46.34764" lon="6.4949">
        <ele>573</ele>
        <time>2012-11-24T10:32:37Z</time>
      </trkpt>
      <trkpt lat="46.34763" lon="6.49491">
        <ele>573</ele>
        <time>2012-11-24T10:32:38Z</time>
      </trkpt>
      <trkpt lat="46.34761" lon="6.49493">
        <ele>573</ele>
        <time>2012-11-24T10:32:39Z</time>
      </trkpt>
      <trkpt lat="46.3476" lon="6.49494">
        <ele>573</ele>
        <time>2012-11-24T10:32:40Z</time>
      </trkpt>
      <trkpt lat="46.34758" lon="6.49496">
        <ele>573</ele>
        <time>2012-11-24T10:32:41Z</time>
      </trkpt>
      <trkpt lat="46.34756" lon="6.49494">
        <ele>573</ele>
        <time>2012-11-24T10:32:42Z</time>
      </trkpt>
      <trkpt lat="46.34754" lon="6.49496">
        <ele>573</ele>
        <time>2012-11-24T10:32:43Z</time>
      </trkpt>
      <trkpt lat="46.34752" lon="6.49496">
        <ele>573</ele>
        <time>2012-11-24T10:32:44Z</time>
      </trkpt>
      <trkpt lat="46.34751" lon="6.49498">
        <ele>573</ele>
        <time>2012-11-24T10:32:45Z</time>
      </trkpt>
      <trkpt lat="46.34749" lon="6.49499">
        <ele>573</ele>
        <time>2012-11-24T10:32:46Z</time>
      </trkpt>
      <trkpt lat="46.34748" lon="6.49501">
        <ele>573</ele>
        <time>2012-11-24T10:32:47Z</time>
      </trkpt>
      <trkpt lat="46.34746" lon="6.49502">
        <ele>573</ele>
        <time>2012-11-24T10:32:48Z</time>
      </trkpt>
      <trkpt lat="46.34744" lon="6.49503">
        <ele>573</ele>
        <time>2012-11-24T10:32:49Z</time>
      </trkpt>
      <trkpt lat="46.34743" lon="6.49505">
        <ele>573</ele>
        <time>2012-11-24T10:32:50Z</time>
      </trkpt>
      <trkpt lat="46.34741" lon="6.49506">
        <ele>573</ele>
        <time>2012-11-24T10:32:51Z</time>
      </trkpt>
      <trkpt lat="46.34739" lon="6.49506">
        <ele>573</ele>
        <time>2012-11-24T10:32:52Z</time>
      </trkpt>
      <trkpt lat="46.34736" lon="6.49506">
        <ele>573</ele>
        <time>2012-11-24T10:32:53Z</time>
      </trkpt>
      <trkpt lat="46.34734" lon="6.49506">
        <ele>573</ele>
        <time>2012-11-24T10:32:54Z</time>
      </trkpt>
      <trkpt lat="46.34733" lon="6.49507">
        <ele>573</ele>
        <time>2012-11-24T10:32:55Z</time>
      </trkpt>
      <trkpt lat="46.34731" lon="6.49508">
        <ele>573</ele>
        <time>2012-11-24T10:32:56Z</time>
      </trkpt>
      <trkpt lat="46.34729" lon="6.49508">
        <ele>573</ele>
        <time>2012-11-24T10:32:57Z</time>
      </trkpt>
      <trkpt lat="46.34726" lon="6.49509">
        <ele>573</ele>
        <time>2012-11-24T10:32:58Z</time>
      </trkpt>
      <trkpt lat="46.34725" lon="6.4951">
        <ele>573</ele>
        <time>2012-11-24T10:32:59Z</time>
      </trkpt>
      <trkpt lat="46.34723" lon="6.49512">
        <ele>573</ele>
        <time>2012-11-24T10:33:00Z</time>
      </trkpt>
      <trkpt lat="46.34721" lon="6.49513">
        <ele>573</ele>
        <time>2012-11-24T10:33:01Z</time>
      </trkpt>
      <trkpt lat="46.34718" lon="6.49512">
        <ele>573</ele>
        <time>2012-11-24T10:33:02Z</time>
      </trkpt>
      <trkpt lat="46.34716" lon="6.49513">
        <ele>574</ele>
        <time>2012-11-24T10:33:03Z</time>
      </trkpt>
      <trkpt lat="46.34714" lon="6.49514">
        <ele>574</ele>
        <time>2012-11-24T10:33:04Z</time>
      </trkpt>
      <trkpt lat="46.34712" lon="6.49515">
        <ele>575</ele>
        <time>2012-11-24T10:33:05Z</time>
      </trkpt>
      <trkpt lat="46.34711" lon="6.49516">
        <ele>576</ele>
        <time>2012-11-24T10:33:06Z</time>
      </trkpt>
      <trkpt lat="46.34709" lon="6.49517">
        <ele>576</ele>
        <time>2012-11-24T10:33:07Z</time>
      </trkpt>
      <trkpt lat="46.34707" lon="6.49517">
        <ele>576</ele>
        <time>2012-11-24T10:33:08Z</time>
      </trkpt>
      <trkpt lat="46.34705" lon="6.49517">
        <ele>577</ele>
        <time>2012-11-24T10:33:09Z</time>
      </trkpt>
      <trkpt lat="46.34702" lon="6.49516">
        <ele>577</ele>
        <time>2012-11-24T10:33:10Z</time>
      </trkpt>
      <trkpt lat="46.347" lon="6.49517">
        <ele>578</ele>
        <time>2012-11-24T10:33:11Z</time>
      </trkpt>
      <trkpt lat="46.34697" lon="6.49516">
        <ele>578</ele>
        <time>2012-11-24T10:33:12Z</time>
      </trkpt>
      <trkpt lat="46.34695" lon="6.49516">
        <ele>579</ele>
        <time>2012-11-24T10:33:13Z</time>
      </trkpt>
      <trkpt lat="46.34693" lon="6.49516">
        <ele>579</ele>
        <time>2012-11-24T10:33:14Z</time>
      </trkpt>
      <trkpt lat="46.34691" lon="6.49517">
        <ele>579</ele>
        <time>2012-11-24T10:33:15Z</time>
      </trkpt>
      <trkpt lat="46.34689" lon="6.49517">
        <ele>579</ele>
        <time>2012-11-24T10:33:16Z</time>
      </trkpt>
      <trkpt lat="46.34688" lon="6.49517">
        <ele>579</ele>
        <time>2012-11-24T10:33:17Z</time>
      </trkpt>
      <trkpt lat="46.34686" lon="6.49517">
        <ele>579</ele>
        <time>2012-11-24T10:33:18Z</time>
      </trkpt>
      <trkpt lat="46.34684" lon="6.49519">
        <ele>580</ele>
        <time>2012-11-24T10:33:19Z</time>
      </trkpt>
      <trkpt lat="46.34682" lon="6.4952">
        <ele>580</ele>
        <time>2012-11-24T10:33:20Z</time>
      </trkpt>
      <trkpt lat="46.3468" lon="6.4952">
        <ele>580</ele>
        <time>2012-11-24T10:33:21Z</time>
      </trkpt>
      <trkpt lat="46.34678" lon="6.49521">
        <ele>581</ele>
        <time>2012-11-24T10:33:22Z</time>
      </trkpt>
      <trkpt lat="46.34676" lon="6.49519">
        <ele>581</ele>
        <time>2012-11-24T10:33:23Z</time>
      </trkpt>
      <trkpt lat="46.34673" lon="6.49518">
        <ele>581</ele>
        <time>2012-11-24T10:33:24Z</time>
      </trkpt>
      <trkpt lat="46.34671" lon="6.49519">
        <ele>582</ele>
        <time>2012-11-24T10:33:25Z</time>
      </trkpt>
      <trkpt lat="46.34668" lon="6.49519">
        <ele>582</ele>
        <time>2012-11-24T10:33:26Z</time>
      </trkpt>
      <trkpt lat="46.34666" lon="6.4952">
        <ele>582</ele>
        <time>2012-11-24T10:33:27Z</time>
      </trkpt>
      <trkpt lat="46.34664" lon="6.49521">
        <ele>582</ele>
        <time>2012-11-24T10:33:28Z</time>
      </trkpt>
      <trkpt lat="46.34662" lon="6.49523">
        <ele>582</ele>
        <time>2012-11-24T10:33:29Z</time>
      </trkpt>
      <trkpt lat="46.3466" lon="6.49525">
        <ele>582</ele>
        <time>2012-11-24T10:33:30Z</time>
      </trkpt>
      <trkpt lat="46.34659" lon="6.49527">
        <ele>582</ele>
        <time>2012-11-24T10:33:31Z</time>
      </trkpt>
      <trkpt lat="46.34657" lon="6.49527">
        <ele>582</ele>
        <time>2012-11-24T10:33:32Z</time>
      </trkpt>
      <trkpt lat="46.34655" lon="6.49529">
        <ele>582</ele>
        <time>2012-11-24T10:33:33Z</time>
      </trkpt>
      <trkpt lat="46.34653" lon="6.4953">
        <ele>582</ele>
        <time>2012-11-24T10:33:34Z</time>
      </trkpt>
      <trkpt lat="46.3465" lon="6.49528">
        <ele>582</ele>
        <time>2012-11-24T10:33:35Z</time>
      </trkpt>
      <trkpt lat="46.34648" lon="6.49529">
        <ele>582</ele>
        <time>2012-11-24T10:33:36Z</time>
      </trkpt>
      <trkpt lat="46.34644" lon="6.49527">
        <ele>582</ele>
        <time>2012-11-24T10:33:37Z</time>
      </trkpt>
      <trkpt lat="46.34642" lon="6.4953">
        <ele>582</ele>
        <time>2012-11-24T10:33:38Z</time>
      </trkpt>
      <trkpt lat="46.34641" lon="6.49532">
        <ele>582</ele>
        <time>2012-11-24T10:33:39Z</time>
      </trkpt>
      <trkpt lat="46.34639" lon="6.49534">
        <ele>582</ele>
        <time>2012-11-24T10:33:40Z</time>
      </trkpt>
      <trkpt lat="46.34637" lon="6.49535">
        <ele>582</ele>
        <time>2012-11-24T10:33:41Z</time>
      </trkpt>
      <trkpt lat="46.34636" lon="6.49537">
        <ele>582</ele>
        <time>2012-11-24T10:33:42Z</time>
      </trkpt>
      <trkpt lat="46.34634" lon="6.49539">
        <ele>582</ele>
        <time>2012-11-24T10:33:43Z</time>
      </trkpt>
      <trkpt lat="46.34633" lon="6.4954">
        <ele>582</ele>
        <time>2012-11-24T10:33:44Z</time>
      </trkpt>
      <trkpt lat="46.34631" lon="6.49542">
        <ele>582</ele>
        <time>2012-11-24T10:33:45Z</time>
      </trkpt>
      <trkpt lat="46.34629" lon="6.49541">
        <ele>582</ele>
        <time>2012-11-24T10:33:46Z</time>
      </trkpt>
      <trkpt lat="46.34627" lon="6.49542">
        <ele>582</ele>
        <time>2012-11-24T10:33:47Z</time>
      </trkpt>
      <trkpt lat="46.34625" lon="6.49542">
        <ele>582</ele>
        <time>2012-11-24T10:33:48Z</time>
      </trkpt>
      <trkpt lat="46.34623" lon="6.49542">
        <ele>582</ele>
        <time>2012-11-24T10:33:49Z</time>
      </trkpt>
      <trkpt lat="46.34621" lon="6.49543">
        <ele>582</ele>
        <time>2012-11-24T10:33:50Z</time>
      </trkpt>
      <trkpt lat="46.34618" lon="6.49542">
        <ele>582</ele>
        <time>2012-11-24T10:33:51Z</time>
      </trkpt>
      <trkpt lat="46.34615" lon="6.49541">
        <ele>582</ele>
        <time>2012-11-24T10:33:52Z</time>
      </trkpt>
      <trkpt lat="46.34613" lon="6.49542">
        <ele>582</ele>
        <time>2012-11-24T10:33:53Z</time>
      </trkpt>
      <trkpt lat="46.34611" lon="6.49544">
        <ele>582</ele>
        <time>2012-11-24T10:33:54Z</time>
      </trkpt>
      <trkpt lat="46.34609" lon="6.49546">
        <ele>582</ele>
        <time>2012-11-24T10:33:55Z</time>
      </trkpt>
      <trkpt lat="46.34606" lon="6.49548">
        <ele>582</ele>
        <time>2012-11-24T10:33:56Z</time>
      </trkpt>
      <trkpt lat="46.34604" lon="6.4955">
        <ele>582</ele>
        <time>2012-11-24T10:33:57Z</time>
      </trkpt>
      <trkpt lat="46.34602" lon="6.49551">
        <ele>582</ele>
        <time>2012-11-24T10:33:58Z</time>
      </trkpt>
      <trkpt lat="46.346" lon="6.49551">
        <ele>583</ele>
        <time>2012-11-24T10:33:59Z</time>
      </trkpt>
      <trkpt lat="46.34598" lon="6.49552">
        <ele>584</ele>
        <time>2012-11-24T10:34:00Z</time>
      </trkpt>
      <trkpt lat="46.34596" lon="6.49553">
        <ele>585</ele>
        <time>2012-11-24T10:34:01Z</time>
      </trkpt>
      <trkpt lat="46.34594" lon="6.49554">
        <ele>585</ele>
        <time>2012-11-24T10:34:02Z</time>
      </trkpt>
      <trkpt lat="46.34592" lon="6.49554">
        <ele>585</ele>
        <time>2012-11-24T10:34:03Z</time>
      </trkpt>
      <trkpt lat="46.3459" lon="6.49554">
        <ele>586</ele>
        <time>2012-11-24T10:34:04Z</time>
      </trkpt>
      <trkpt lat="46.34588" lon="6.49555">
        <ele>586</ele>
        <time>2012-11-24T10:34:05Z</time>
      </trkpt>
      <trkpt lat="46.34586" lon="6.49554">
        <ele>586</ele>
        <time>2012-11-24T10:34:06Z</time>
      </trkpt>
      <trkpt lat="46.34584" lon="6.49555">
        <ele>586</ele>
        <time>2012-11-24T10:34:07Z</time>
      </trkpt>
      <trkpt lat="46.34582" lon="6.49554">
        <ele>586</ele>
        <time>2012-11-24T10:34:08Z</time>
      </trkpt>
      <trkpt lat="46.34581" lon="6.49554">
        <ele>586</ele>
        <time>2012-11-24T10:34:09Z</time>
      </trkpt>
      <trkpt lat="46.34579" lon="6.49555">
        <ele>586</ele>
        <time>2012-11-24T10:34:10Z</time>
      </trkpt>
      <trkpt lat="46.34577" lon="6.49555">
        <ele>586</ele>
        <time>2012-11-24T10:34:11Z</time>
      </trkpt>
      <trkpt lat="46.34576" lon="6.49556">
        <ele>586</ele>
        <time>2012-11-24T10:34:12Z</time>
      </trkpt>
      <trkpt lat="46.34574" lon="6.49557">
        <ele>586</ele>
        <time>2012-11-24T10:34:13Z</time>
      </trkpt>
      <trkpt lat="46.34571" lon="6.49556">
        <ele>587</ele>
        <time>2012-11-24T10:34:14Z</time>
      </trkpt>
      <trkpt lat="46.34569" lon="6.49556">
        <ele>587</ele>
        <time>2012-11-24T10:34:15Z</time>
      </trkpt>
      <trkpt lat="46.34568" lon="6.49556">
        <ele>587</ele>
        <time>2012-11-24T10:34:16Z</time>
      </trkpt>
      <trkpt lat="46.34566" lon="6.49556">
        <ele>587</ele>
        <time>2012-11-24T10:34:17Z</time>
      </trkpt>
      <trkpt lat="46.34564" lon="6.49556">
        <ele>587</ele>
        <time>2012-11-24T10:34:18Z</time>
      </trkpt>
      <trkpt lat="46.34563" lon="6.49558">
        <ele>587</ele>
        <time>2012-11-24T10:34:19Z</time>
      </trkpt>
      <trkpt lat="46.34562" lon="6.4956">
        <ele>587</ele>
        <time>2012-11-24T10:34:20Z</time>
      </trkpt>
      <trkpt lat="46.3456" lon="6.49562">
        <ele>587</ele>
        <time>2012-11-24T10:34:21Z</time>
      </trkpt>
      <trkpt lat="46.34558" lon="6.49561">
        <ele>587</ele>
        <time>2012-11-24T10:34:22Z</time>
      </trkpt>
      <trkpt lat="46.34556" lon="6.4956">
        <ele>587</ele>
        <time>2012-11-24T10:34:23Z</time>
      </trkpt>
      <trkpt lat="46.34554" lon="6.49559">
        <ele>587</ele>
        <time>2012-11-24T10:34:24Z</time>
      </trkpt>
      <trkpt lat="46.34551" lon="6.49557">
        <ele>587</ele>
        <time>2012-11-24T10:34:25Z</time>
      </trkpt>
      <trkpt lat="46.34549" lon="6.49556">
        <ele>587</ele>
        <time>2012-11-24T10:34:26Z</time>
      </trkpt>
      <trkpt lat="46.34547" lon="6.49556">
        <ele>587</ele>
        <time>2012-11-24T10:34:27Z</time>
      </trkpt>
      <trkpt lat="46.34546" lon="6.49557">
        <ele>587</ele>
        <time>2012-11-24T10:34:28Z</time>
      </trkpt>
      <trkpt lat="46.34544" lon="6.49557">
        <ele>587</ele>
        <time>2012-11-24T10:34:29Z</time>
      </trkpt>
      <trkpt lat="46.34543" lon="6.49558">
        <ele>587</ele>
        <time>2012-11-24T10:34:30Z</time>
      </trkpt>
      <trkpt lat="46.34542" lon="6.49558">
        <ele>587</ele>
        <time>2012-11-24T10:34:31Z</time>
      </trkpt>
      <trkpt lat="46.3454" lon="6.49559">
        <ele>587</ele>
        <time>2012-11-24T10:34:32Z</time>
      </trkpt>
      <trkpt lat="46.34539" lon="6.4956">
        <ele>587</ele>
        <time>2012-11-24T10:34:33Z</time>
      </trkpt>
      <trkpt lat="46.34537" lon="6.49561">
        <ele>587</ele>
        <time>2012-11-24T10:34:34Z</time>
      </trkpt>
      <trkpt lat="46.34536" lon="6.49563">
        <ele>588</ele>
        <time>2012-11-24T10:34:35Z</time>
      </trkpt>
      <trkpt lat="46.34534" lon="6.49565">
        <ele>589</ele>
        <time>2012-11-24T10:34:36Z</time>
      </trkpt>
      <trkpt lat="46.34533" lon="6.49565">
        <ele>590</ele>
        <time>2012-11-24T10:34:37Z</time>
      </trkpt>
      <trkpt lat="46.34531" lon="6.49565">
        <ele>590</ele>
        <time>2012-11-24T10:34:38Z</time>
      </trkpt>
      <trkpt lat="46.34528" lon="6.49565">
        <ele>590</ele>
        <time>2012-11-24T10:34:39Z</time>
      </trkpt>
      <trkpt lat="46.34527" lon="6.49565">
        <ele>591</ele>
        <time>2012-11-24T10:34:40Z</time>
      </trkpt>
      <trkpt lat="46.34525" lon="6.49564">
        <ele>591</ele>
        <time>2012-11-24T10:34:41Z</time>
      </trkpt>
      <trkpt lat="46.34523" lon="6.49564">
        <ele>592</ele>
        <time>2012-11-24T10:34:42Z</time>
      </trkpt>
      <trkpt lat="46.34521" lon="6.49563">
        <ele>592</ele>
        <time>2012-11-24T10:34:43Z</time>
      </trkpt>
      <trkpt lat="46.34519" lon="6.49561">
        <ele>593</ele>
        <time>2012-11-24T10:34:44Z</time>
      </trkpt>
      <trkpt lat="46.34518" lon="6.4956">
        <ele>594</ele>
        <time>2012-11-24T10:34:45Z</time>
      </trkpt>
      <trkpt lat="46.34516" lon="6.49559">
        <ele>594</ele>
        <time>2012-11-24T10:34:46Z</time>
      </trkpt>
      <trkpt lat="46.34514" lon="6.49558">
        <ele>594</ele>
        <time>2012-11-24T10:34:47Z</time>
      </trkpt>
      <trkpt lat="46.34511" lon="6.49556">
        <ele>595</ele>
        <time>2012-11-24T10:34:48Z</time>
      </trkpt>
      <trkpt lat="46.34509" lon="6.49555">
        <ele>595</ele>
        <time>2012-11-24T10:34:49Z</time>
      </trkpt>
      <trkpt lat="46.34507" lon="6.49554">
        <ele>595</ele>
        <time>2012-11-24T10:34:50Z</time>
      </trkpt>
      <trkpt lat="46.34504" lon="6.49553">
        <ele>595</ele>
        <time>2012-11-24T10:34:51Z</time>
      </trkpt>
      <trkpt lat="46.34502" lon="6.49552">
        <ele>595</ele>
        <time>2012-11-24T10:34:52Z</time>
      </trkpt>
      <trkpt lat="46.34499" lon="6.49549">
        <ele>595</ele>
        <time>2012-11-24T10:34:53Z</time>
      </trkpt>
      <trkpt lat="46.34497" lon="6.49547">
        <ele>595</ele>
        <time>2012-11-24T10:34:54Z</time>
      </trkpt>
      <trkpt lat="46.34494" lon="6.49546">
        <ele>595</ele>
        <time>2012-11-24T10:34:55Z</time>
      </trkpt>
      <trkpt lat="46.34493" lon="6.49544">
        <ele>595</ele>
        <time>2012-11-24T10:34:56Z</time>
      </trkpt>
      <trkpt lat="46.34491" lon="6.49543">
        <ele>595</ele>
        <time>2012-11-24T10:34:57Z</time>
      </trkpt>
      <trkpt lat="46.34488" lon="6.49542">
        <ele>595</ele>
        <time>2012-11-24T10:34:58Z</time>
      </trkpt>
      <trkpt lat="46.34486" lon="6.49541">
        <ele>595</ele>
        <time>2012-11-24T10:34:59Z</time>
      </trkpt>
      <trkpt lat="46.34483" lon="6.49541">
        <ele>595</ele>
        <time>2012-11-24T10:35:01Z</time>
      </trkpt>
      <trkpt lat="46.34481" lon="6.4954">
        <ele>595</ele>
        <time>2012-11-24T10:35:01Z</time>
      </trkpt>
      <trkpt lat="46.3448" lon="6.49539">
        <ele>595</ele>
        <time>2012-11-24T10:35:02Z</time>
      </trkpt>
      <trkpt lat="46.34478" lon="6.49537">
        <ele>595</ele>
        <time>2012-11-24T10:35:04Z</time>
      </trkpt>
      <trkpt lat="46.34476" lon="6.49535">
        <ele>595</ele>
        <time>2012-11-24T10:35:05Z</time>
      </trkpt>
      <trkpt lat="46.34473" lon="6.49532">
        <ele>595</ele>
        <time>2012-11-24T10:35:06Z</time>
      </trkpt>
      <trkpt lat="46.34472" lon="6.4953">
        <ele>595</ele>
        <time>2012-11-24T10:35:06Z</time>
      </trkpt>
      <trkpt lat="46.3447" lon="6.49528">
        <ele>595</ele>
        <time>2012-11-24T10:35:07Z</time>
      </trkpt>
      <trkpt lat="46.34467" lon="6.49525">
        <ele>595</ele>
        <time>2012-11-24T10:35:08Z</time>
      </trkpt>
      <trkpt lat="46.34465" lon="6.49522">
        <ele>595</ele>
        <time>2012-11-24T10:35:09Z</time>
      </trkpt>
      <trkpt lat="46.34463" lon="6.49521">
        <ele>595</ele>
        <time>2012-11-24T10:35:10Z</time>
      </trkpt>
      <trkpt lat="46.3446" lon="6.49519">
        <ele>595</ele>
        <time>2012-11-24T10:35:11Z</time>
      </trkpt>
      <trkpt lat="46.34458" lon="6.49517">
        <ele>595</ele>
        <time>2012-11-24T10:35:12Z</time>
      </trkpt>
      <trkpt lat="46.34456" lon="6.49516">
        <ele>595</ele>
        <time>2012-11-24T10:35:13Z</time>
      </trkpt>
      <trkpt lat="46.34454" lon="6.49516">
        <ele>595</ele>
        <time>2012-11-24T10:35:14Z</time>
      </trkpt>
      <trkpt lat="46.34453" lon="6.49515">
        <ele>595</ele>
        <time>2012-11-24T10:35:15Z</time>
      </trkpt>
      <trkpt lat="46.34451" lon="6.49511">
        <ele>595</ele>
        <time>2012-11-24T10:35:16Z</time>
      </trkpt>
      <trkpt lat="46.34448" lon="6.49508">
        <ele>595</ele>
        <time>2012-11-24T10:35:17Z</time>
      </trkpt>
      <trkpt lat="46.34446" lon="6.49505">
        <ele>595</ele>
        <time>2012-11-24T10:35:18Z</time>
      </trkpt>
      <trkpt lat="46.34444" lon="6.49501">
        <ele>595</ele>
        <time>2012-11-24T10:35:19Z</time>
      </trkpt>
      <trkpt lat="46.34443" lon="6.49498">
        <ele>595</ele>
        <time>2012-11-24T10:35:20Z</time>
      </trkpt>
      <trkpt lat="46.34442" lon="6.49495">
        <ele>595</ele>
        <time>2012-11-24T10:35:21Z</time>
      </trkpt>
      <trkpt lat="46.34441" lon="6.49492">
        <ele>595</ele>
        <time>2012-11-24T10:35:22Z</time>
      </trkpt>
      <trkpt lat="46.34441" lon="6.49488">
        <ele>595</ele>
        <time>2012-11-24T10:35:23Z</time>
      </trkpt>
      <trkpt lat="46.34441" lon="6.49484">
        <ele>595</ele>
        <time>2012-11-24T10:35:24Z</time>
      </trkpt>
      <trkpt lat="46.34439" lon="6.4948">
        <ele>595</ele>
        <time>2012-11-24T10:35:25Z</time>
      </trkpt>
      <trkpt lat="46.34438" lon="6.49476">
        <ele>595</ele>
        <time>2012-11-24T10:35:26Z</time>
      </trkpt>
      <trkpt lat="46.34436" lon="6.49474">
        <ele>595</ele>
        <time>2012-11-24T10:35:27Z</time>
      </trkpt>
      <trkpt lat="46.34434" lon="6.49471">
        <ele>595</ele>
        <time>2012-11-24T10:35:28Z</time>
      </trkpt>
      <trkpt lat="46.34433" lon="6.49468">
        <ele>595</ele>
        <time>2012-11-24T10:35:29Z</time>
      </trkpt>
      <trkpt lat="46.34431" lon="6.49465">
        <ele>595</ele>
        <time>2012-11-24T10:35:30Z</time>
      </trkpt>
      <trkpt lat="46.3443" lon="6.49463">
        <ele>595</ele>
        <time>2012-11-24T10:35:31Z</time>
      </trkpt>
      <trkpt lat="46.34428" lon="6.49459">
        <ele>595</ele>
        <time>2012-11-24T10:35:32Z</time>
      </trkpt>
      <trkpt lat="46.34427" lon="6.49457">
        <ele>595</ele>
        <time>2012-11-24T10:35:33Z</time>
      </trkpt>
      <trkpt lat="46.34425" lon="6.49455">
        <ele>595</ele>
        <time>2012-11-24T10:35:34Z</time>
      </trkpt>
      <trkpt lat="46.34424" lon="6.49452">
        <ele>595</ele>
        <time>2012-11-24T10:35:35Z</time>
      </trkpt>
      <trkpt lat="46.34423" lon="6.49449">
        <ele>595</ele>
        <time>2012-11-24T10:35:36Z</time>
      </trkpt>
      <trkpt lat="46.34421" lon="6.49445">
        <ele>595</ele>
        <time>2012-11-24T10:35:37Z</time>
      </trkpt>
      <trkpt lat="46.34419" lon="6.49442">
        <ele>595</ele>
        <time>2012-11-24T10:35:38Z</time>
      </trkpt>
      <trkpt lat="46.34418" lon="6.4944">
        <ele>595</ele>
        <time>2012-11-24T10:35:39Z</time>
      </trkpt>
      <trkpt lat="46.34416" lon="6.49437">
        <ele>595</ele>
        <time>2012-11-24T10:35:40Z</time>
      </trkpt>
      <trkpt lat="46.34415" lon="6.49435">
        <ele>595</ele>
        <time>2012-11-24T10:35:41Z</time>
      </trkpt>
      <trkpt lat="46.34413" lon="6.49432">
        <ele>595</ele>
        <time>2012-11-24T10:35:42Z</time>
      </trkpt>
      <trkpt lat="46.34412" lon="6.49429">
        <ele>595</ele>
        <time>2012-11-24T10:35:43Z</time>
      </trkpt>
      <trkpt lat="46.3441" lon="6.49428">
        <ele>595</ele>
        <time>2012-11-24T10:35:44Z</time>
      </trkpt>
      <trkpt lat="46.34409" lon="6.49426">
        <ele>595</ele>
        <time>2012-11-24T10:35:45Z</time>
      </trkpt>
      <trkpt lat="46.34407" lon="6.49424">
        <ele>595</ele>
        <time>2012-11-24T10:35:46Z</time>
      </trkpt>
      <trkpt lat="46.34405" lon="6.49421">
        <ele>595</ele>
        <time>2012-11-24T10:35:47Z</time>
      </trkpt>
      <trkpt lat="46.34403" lon="6.4942">
        <ele>595</ele>
        <time>2012-11-24T10:35:48Z</time>
      </trkpt>
      <trkpt lat="46.34401" lon="6.49418">
        <ele>595</ele>
        <time>2012-11-24T10:35:49Z</time>
      </trkpt>
      <trkpt lat="46.34399" lon="6.49415">
        <ele>595</ele>
        <time>2012-11-24T10:35:50Z</time>
      </trkpt>
      <trkpt lat="46.34397" lon="6.49412">
        <ele>595</ele>
        <time>2012-11-24T10:35:51Z</time>
      </trkpt>
      <trkpt lat="46.34395" lon="6.49408">
        <ele>595</ele>
        <time>2012-11-24T10:35:52Z</time>
      </trkpt>
      <trkpt lat="46.34392" lon="6.49405">
        <ele>595</ele>
        <time>2012-11-24T10:35:53Z</time>
      </trkpt>
      <trkpt lat="46.3439" lon="6.49404">
        <ele>595</ele>
        <time>2012-11-24T10:35:54Z</time>
      </trkpt>
      <trkpt lat="46.34388" lon="6.49403">
        <ele>595</ele>
        <time>2012-11-24T10:35:55Z</time>
      </trkpt>
      <trkpt lat="46.34387" lon="6.49402">
        <ele>595</ele>
        <time>2012-11-24T10:35:56Z</time>
      </trkpt>
      <trkpt lat="46.34385" lon="6.49399">
        <ele>595</ele>
        <time>2012-11-24T10:35:58Z</time>
      </trkpt>
      <trkpt lat="46.34383" lon="6.49396">
        <ele>595</ele>
        <time>2012-11-24T10:35:59Z</time>
      </trkpt>
      <trkpt lat="46.3438" lon="6.49394">
        <ele>595</ele>
        <time>2012-11-24T10:36:00Z</time>
      </trkpt>
      <trkpt lat="46.34378" lon="6.49391">
        <ele>595</ele>
        <time>2012-11-24T10:36:01Z</time>
      </trkpt>
      <trkpt lat="46.34375" lon="6.49386">
        <ele>595</ele>
        <time>2012-11-24T10:36:02Z</time>
      </trkpt>
      <trkpt lat="46.34374" lon="6.49384">
        <ele>595</ele>
        <time>2012-11-24T10:36:03Z</time>
      </trkpt>
      <trkpt lat="46.34372" lon="6.49382">
        <ele>595</ele>
        <time>2012-11-24T10:36:04Z</time>
      </trkpt>
      <trkpt lat="46.3437" lon="6.49379">
        <ele>595</ele>
        <time>2012-11-24T10:36:05Z</time>
      </trkpt>
      <trkpt lat="46.34369" lon="6.49377">
        <ele>595</ele>
        <time>2012-11-24T10:36:06Z</time>
      </trkpt>
      <trkpt lat="46.34368" lon="6.49375">
        <ele>595</ele>
        <time>2012-11-24T10:36:07Z</time>
      </trkpt>
      <trkpt lat="46.34367" lon="6.49372">
        <ele>594</ele>
        <time>2012-11-24T10:36:08Z</time>
      </trkpt>
      <trkpt lat="46.34365" lon="6.49369">
        <ele>594</ele>
        <time>2012-11-24T10:36:09Z</time>
      </trkpt>
      <trkpt lat="46.34362" lon="6.49366">
        <ele>593</ele>
        <time>2012-11-24T10:36:10Z</time>
      </trkpt>
      <trkpt lat="46.34361" lon="6.49364">
        <ele>593</ele>
        <time>2012-11-24T10:36:11Z</time>
      </trkpt>
      <trkpt lat="46.3436" lon="6.49363">
        <ele>593</ele>
        <time>2012-11-24T10:36:12Z</time>
      </trkpt>
      <trkpt lat="46.34359" lon="6.49362">
        <ele>593</ele>
        <time>2012-11-24T10:36:13Z</time>
      </trkpt>
      <trkpt lat="46.34356" lon="6.49358">
        <ele>593</ele>
        <time>2012-11-24T10:36:15Z</time>
      </trkpt>
      <trkpt lat="46.34354" lon="6.49355">
        <ele>593</ele>
        <time>2012-11-24T10:36:16Z</time>
      </trkpt>
      <trkpt lat="46.34353" lon="6.49352">
        <ele>593</ele>
        <time>2012-11-24T10:36:18Z</time>
      </trkpt>
      <trkpt lat="46.34351" lon="6.49349">
        <ele>593</ele>
        <time>2012-11-24T10:36:18Z</time>
      </trkpt>
      <trkpt lat="46.34349" lon="6.49345">
        <ele>593</ele>
        <time>2012-11-24T10:36:19Z</time>
      </trkpt>
      <trkpt lat="46.34348" lon="6.49342">
        <ele>593</ele>
        <time>2012-11-24T10:36:20Z</time>
      </trkpt>
      <trkpt lat="46.34348" lon="6.4934">
        <ele>594</ele>
        <time>2012-11-24T10:36:21Z</time>
      </trkpt>
      <trkpt lat="46.34347" lon="6.49338">
        <ele>594</ele>
        <time>2012-11-24T10:36:22Z</time>
      </trkpt>
      <trkpt lat="46.34345" lon="6.49335">
        <ele>594</ele>
        <time>2012-11-24T10:36:23Z</time>
      </trkpt>
      <trkpt lat="46.34343" lon="6.49332">
        <ele>595</ele>
        <time>2012-11-24T10:36:24Z</time>
      </trkpt>
      <trkpt lat="46.34341" lon="6.49329">
        <ele>595</ele>
        <time>2012-11-24T10:36:25Z</time>
      </trkpt>
      <trkpt lat="46.3434" lon="6.49327">
        <ele>595</ele>
        <time>2012-11-24T10:36:26Z</time>
      </trkpt>
      <trkpt lat="46.34338" lon="6.49324">
        <ele>595</ele>
        <time>2012-11-24T10:36:27Z</time>
      </trkpt>
      <trkpt lat="46.34336" lon="6.49321">
        <ele>595</ele>
        <time>2012-11-24T10:36:28Z</time>
      </trkpt>
      <trkpt lat="46.34334" lon="6.49318">
        <ele>595</ele>
        <time>2012-11-24T10:36:29Z</time>
      </trkpt>
      <trkpt lat="46.34333" lon="6.49316">
        <ele>595</ele>
        <time>2012-11-24T10:36:30Z</time>
      </trkpt>
      <trkpt lat="46.34332" lon="6.49312">
        <ele>595</ele>
        <time>2012-11-24T10:36:31Z</time>
      </trkpt>
      <trkpt lat="46.3433" lon="6.49309">
        <ele>595</ele>
        <time>2012-11-24T10:36:32Z</time>
      </trkpt>
      <trkpt lat="46.34328" lon="6.49308">
        <ele>595</ele>
        <time>2012-11-24T10:36:33Z</time>
      </trkpt>
      <trkpt lat="46.34327" lon="6.49304">
        <ele>595</ele>
        <time>2012-11-24T10:36:34Z</time>
      </trkpt>
      <trkpt lat="46.34325" lon="6.49301">
        <ele>595</ele>
        <time>2012-11-24T10:36:35Z</time>
      </trkpt>
      <trkpt lat="46.34324" lon="6.493">
        <ele>595</ele>
        <time>2012-11-24T10:36:36Z</time>
      </trkpt>
      <trkpt lat="46.34322" lon="6.49297">
        <ele>595</ele>
        <time>2012-11-24T10:36:37Z</time>
      </trkpt>
      <trkpt lat="46.3432" lon="6.49293">
        <ele>595</ele>
        <time>2012-11-24T10:36:38Z</time>
      </trkpt>
      <trkpt lat="46.34319" lon="6.4929">
        <ele>595</ele>
        <time>2012-11-24T10:36:39Z</time>
      </trkpt>
      <trkpt lat="46.34317" lon="6.49287">
        <ele>595</ele>
        <time>2012-11-24T10:36:40Z</time>
      </trkpt>
      <trkpt lat="46.34315" lon="6.49283">
        <ele>595</ele>
        <time>2012-11-24T10:36:41Z</time>
      </trkpt>
      <trkpt lat="46.34314" lon="6.4928">
        <ele>595</ele>
        <time>2012-11-24T10:36:42Z</time>
      </trkpt>
      <trkpt lat="46.34313" lon="6.49276">
        <ele>595</ele>
        <time>2012-11-24T10:36:43Z</time>
      </trkpt>
      <trkpt lat="46.34311" lon="6.49272">
        <ele>595</ele>
        <time>2012-11-24T10:36:44Z</time>
      </trkpt>
      <trkpt lat="46.3431" lon="6.49269">
        <ele>595</ele>
        <time>2012-11-24T10:36:45Z</time>
      </trkpt>
      <trkpt lat="46.34308" lon="6.49265">
        <ele>595</ele>
        <time>2012-11-24T10:36:46Z</time>
      </trkpt>
      <trkpt lat="46.34307" lon="6.49263">
        <ele>595</ele>
        <time>2012-11-24T10:36:47Z</time>
      </trkpt>
      <trkpt lat="46.34307" lon="6.4926">
        <ele>595</ele>
        <time>2012-11-24T10:36:48Z</time>
      </trkpt>
      <trkpt lat="46.34306" lon="6.49257">
        <ele>595</ele>
        <time>2012-11-24T10:36:49Z</time>
      </trkpt>
      <trkpt lat="46.34304" lon="6.49254">
        <ele>595</ele>
        <time>2012-11-24T10:36:50Z</time>
      </trkpt>
      <trkpt lat="46.34302" lon="6.49251">
        <ele>595</ele>
        <time>2012-11-24T10:36:51Z</time>
      </trkpt>
      <trkpt lat="46.343" lon="6.49248">
        <ele>595</ele>
        <time>2012-11-24T10:36:52Z</time>
      </trkpt>
      <trkpt lat="46.34299" lon="6.49245">
        <ele>595</ele>
        <time>2012-11-24T10:36:53Z</time>
      </trkpt>
      <trkpt lat="46.34297" lon="6.49241">
        <ele>595</ele>
        <time>2012-11-24T10:36:54Z</time>
      </trkpt>
      <trkpt lat="46.34296" lon="6.49239">
        <ele>595</ele>
        <time>2012-11-24T10:36:55Z</time>
      </trkpt>
      <trkpt lat="46.34294" lon="6.49236">
        <ele>595</ele>
        <time>2012-11-24T10:36:56Z</time>
      </trkpt>
      <trkpt lat="46.34292" lon="6.49234">
        <ele>595</ele>
        <time>2012-11-24T10:36:57Z</time>
      </trkpt>
      <trkpt lat="46.3429" lon="6.49231">
        <ele>595</ele>
        <time>2012-11-24T10:36:58Z</time>
      </trkpt>
      <trkpt lat="46.34287" lon="6.49228">
        <ele>595</ele>
        <time>2012-11-24T10:37:00Z</time>
      </trkpt>
      <trkpt lat="46.34285" lon="6.49225">
        <ele>595</ele>
        <time>2012-11-24T10:37:01Z</time>
      </trkpt>
      <trkpt lat="46.34283" lon="6.49221">
        <ele>595</ele>
        <time>2012-11-24T10:37:02Z</time>
      </trkpt>
      <trkpt lat="46.34281" lon="6.49217">
        <ele>595</ele>
        <time>2012-11-24T10:37:03Z</time>
      </trkpt>
      <trkpt lat="46.34279" lon="6.49213">
        <ele>595</ele>
        <time>2012-11-24T10:37:04Z</time>
      </trkpt>
      <trkpt lat="46.34277" lon="6.4921">
        <ele>595</ele>
        <time>2012-11-24T10:37:05Z</time>
      </trkpt>
      <trkpt lat="46.34276" lon="6.49207">
        <ele>595</ele>
        <time>2012-11-24T10:37:06Z</time>
      </trkpt>
      <trkpt lat="46.34274" lon="6.49204">
        <ele>595</ele>
        <time>2012-11-24T10:37:07Z</time>
      </trkpt>
      <trkpt lat="46.34273" lon="6.49199">
        <ele>595</ele>
        <time>2012-11-24T10:37:08Z</time>
      </trkpt>
      <trkpt lat="46.34271" lon="6.49196">
        <ele>596</ele>
        <time>2012-11-24T10:37:09Z</time>
      </trkpt>
      <trkpt lat="46.3427" lon="6.49193">
        <ele>596</ele>
        <time>2012-11-24T10:37:10Z</time>
      </trkpt>
      <trkpt lat="46.34268" lon="6.49189">
        <ele>596</ele>
        <time>2012-11-24T10:37:11Z</time>
      </trkpt>
      <trkpt lat="46.34267" lon="6.49186">
        <ele>596</ele>
        <time>2012-11-24T10:37:12Z</time>
      </trkpt>
      <trkpt lat="46.34267" lon="6.49183">
        <ele>596</ele>
        <time>2012-11-24T10:37:13Z</time>
      </trkpt>
      <trkpt lat="46.34266" lon="6.4918">
        <ele>597</ele>
        <time>2012-11-24T10:37:14Z</time>
      </trkpt>
      <trkpt lat="46.34265" lon="6.49177">
        <ele>597</ele>
        <time>2012-11-24T10:37:15Z</time>
      </trkpt>
      <trkpt lat="46.34264" lon="6.49173">
        <ele>597</ele>
        <time>2012-11-24T10:37:16Z</time>
      </trkpt>
      <trkpt lat="46.34262" lon="6.4917">
        <ele>597</ele>
        <time>2012-11-24T10:37:17Z</time>
      </trkpt>
      <trkpt lat="46.34261" lon="6.49167">
        <ele>598</ele>
        <time>2012-11-24T10:37:18Z</time>
      </trkpt>
      <trkpt lat="46.34259" lon="6.49164">
        <ele>598</ele>
        <time>2012-11-24T10:37:19Z</time>
      </trkpt>
      <trkpt lat="46.34257" lon="6.49162">
        <ele>599</ele>
        <time>2012-11-24T10:37:20Z</time>
      </trkpt>
      <trkpt lat="46.34256" lon="6.49161">
        <ele>599</ele>
        <time>2012-11-24T10:37:21Z</time>
      </trkpt>
      <trkpt lat="46.34253" lon="6.49159">
        <ele>599</ele>
        <time>2012-11-24T10:37:22Z</time>
      </trkpt>
      <trkpt lat="46.34252" lon="6.49158">
        <ele>599</ele>
        <time>2012-11-24T10:37:23Z</time>
      </trkpt>
      <trkpt lat="46.34249" lon="6.49156">
        <ele>599</ele>
        <time>2012-11-24T10:37:24Z</time>
      </trkpt>
      <trkpt lat="46.34247" lon="6.49155">
        <ele>599</ele>
        <time>2012-11-24T10:37:25Z</time>
      </trkpt>
      <trkpt lat="46.34245" lon="6.49155">
        <ele>599</ele>
        <time>2012-11-24T10:37:26Z</time>
      </trkpt>
      <trkpt lat="46.34243" lon="6.49154">
        <ele>599</ele>
        <time>2012-11-24T10:37:27Z</time>
      </trkpt>
      <trkpt lat="46.34241" lon="6.49152">
        <ele>599</ele>
        <time>2012-11-24T10:37:28Z</time>
      </trkpt>
      <trkpt lat="46.34239" lon="6.4915">
        <ele>599</ele>
        <time>2012-11-24T10:37:29Z</time>
      </trkpt>
      <trkpt lat="46.34236" lon="6.49147">
        <ele>599</ele>
        <time>2012-11-24T10:37:30Z</time>
      </trkpt>
      <trkpt lat="46.34235" lon="6.49145">
        <ele>599</ele>
        <time>2012-11-24T10:37:31Z</time>
      </trkpt>
      <trkpt lat="46.34232" lon="6.49143">
        <ele>599</ele>
        <time>2012-11-24T10:37:32Z</time>
      </trkpt>
      <trkpt lat="46.3423" lon="6.49141">
        <ele>599</ele>
        <time>2012-11-24T10:37:33Z</time>
      </trkpt>
      <trkpt lat="46.34227" lon="6.49139">
        <ele>599</ele>
        <time>2012-11-24T10:37:34Z</time>
      </trkpt>
      <trkpt lat="46.34225" lon="6.49138">
        <ele>598</ele>
        <time>2012-11-24T10:37:35Z</time>
      </trkpt>
      <trkpt lat="46.34222" lon="6.49136">
        <ele>598</ele>
        <time>2012-11-24T10:37:36Z</time>
      </trkpt>
      <trkpt lat="46.3422" lon="6.49133">
        <ele>597</ele>
        <time>2012-11-24T10:37:37Z</time>
      </trkpt>
      <trkpt lat="46.34218" lon="6.4913">
        <ele>596</ele>
        <time>2012-11-24T10:37:38Z</time>
      </trkpt>
      <trkpt lat="46.34216" lon="6.4913">
        <ele>596</ele>
        <time>2012-11-24T10:37:39Z</time>
      </trkpt>
      <trkpt lat="46.34213" lon="6.49128">
        <ele>595</ele>
        <time>2012-11-24T10:37:40Z</time>
      </trkpt>
      <trkpt lat="46.3421" lon="6.49127">
        <ele>594</ele>
        <time>2012-11-24T10:37:41Z</time>
      </trkpt>
      <trkpt lat="46.34207" lon="6.49126">
        <ele>594</ele>
        <time>2012-11-24T10:37:42Z</time>
      </trkpt>
      <trkpt lat="46.34205" lon="6.49125">
        <ele>593</ele>
        <time>2012-11-24T10:37:43Z</time>
      </trkpt>
      <trkpt lat="46.34202" lon="6.49124">
        <ele>592</ele>
        <time>2012-11-24T10:37:44Z</time>
      </trkpt>
      <trkpt lat="46.34199" lon="6.49123">
        <ele>591</ele>
        <time>2012-11-24T10:37:45Z</time>
      </trkpt>
      <trkpt lat="46.34196" lon="6.49122">
        <ele>590</ele>
        <time>2012-11-24T10:37:46Z</time>
      </trkpt>
      <trkpt lat="46.34194" lon="6.4912">
        <ele>589</ele>
        <time>2012-11-24T10:37:47Z</time>
      </trkpt>
      <trkpt lat="46.34191" lon="6.4912">
        <ele>589</ele>
        <time>2012-11-24T10:37:48Z</time>
      </trkpt>
      <trkpt lat="46.34188" lon="6.4912">
        <ele>588</ele>
        <time>2012-11-24T10:37:49Z</time>
      </trkpt>
      <trkpt lat="46.34185" lon="6.49119">
        <ele>587</ele>
        <time>2012-11-24T10:37:50Z</time>
      </trkpt>
      <trkpt lat="46.34182" lon="6.49119">
        <ele>587</ele>
        <time>2012-11-24T10:37:51Z</time>
      </trkpt>
      <trkpt lat="46.34179" lon="6.4912">
        <ele>586</ele>
        <time>2012-11-24T10:37:53Z</time>
      </trkpt>
      <trkpt lat="46.34177" lon="6.49122">
        <ele>586</ele>
        <time>2012-11-24T10:37:54Z</time>
      </trkpt>
      <trkpt lat="46.34175" lon="6.49121">
        <ele>586</ele>
        <time>2012-11-24T10:37:54Z</time>
      </trkpt>
      <trkpt lat="46.34172" lon="6.49121">
        <ele>586</ele>
        <time>2012-11-24T10:37:55Z</time>
      </trkpt>
      <trkpt lat="46.34169" lon="6.49121">
        <ele>586</ele>
        <time>2012-11-24T10:37:56Z</time>
      </trkpt>
      <trkpt lat="46.34166" lon="6.4912">
        <ele>586</ele>
        <time>2012-11-24T10:37:57Z</time>
      </trkpt>
      <trkpt lat="46.34163" lon="6.49119">
        <ele>586</ele>
        <time>2012-11-24T10:37:58Z</time>
      </trkpt>
      <trkpt lat="46.3416" lon="6.49118">
        <ele>586</ele>
        <time>2012-11-24T10:37:59Z</time>
      </trkpt>
      <trkpt lat="46.34157" lon="6.49116">
        <ele>586</ele>
        <time>2012-11-24T10:38:00Z</time>
      </trkpt>
      <trkpt lat="46.34155" lon="6.49113">
        <ele>586</ele>
        <time>2012-11-24T10:38:01Z</time>
      </trkpt>
      <trkpt lat="46.34152" lon="6.49112">
        <ele>586</ele>
        <time>2012-11-24T10:38:02Z</time>
      </trkpt>
      <trkpt lat="46.34149" lon="6.49111">
        <ele>585</ele>
        <time>2012-11-24T10:38:03Z</time>
      </trkpt>
      <trkpt lat="46.34146" lon="6.49109">
        <ele>585</ele>
        <time>2012-11-24T10:38:04Z</time>
      </trkpt>
      <trkpt lat="46.34144" lon="6.49108">
        <ele>584</ele>
        <time>2012-11-24T10:38:05Z</time>
      </trkpt>
      <trkpt lat="46.34142" lon="6.49106">
        <ele>584</ele>
        <time>2012-11-24T10:38:06Z</time>
      </trkpt>
      <trkpt lat="46.3414" lon="6.49104">
        <ele>584</ele>
        <time>2012-11-24T10:38:07Z</time>
      </trkpt>
      <trkpt lat="46.34138" lon="6.49102">
        <ele>584</ele>
        <time>2012-11-24T10:38:08Z</time>
      </trkpt>
      <trkpt lat="46.34135" lon="6.491">
        <ele>584</ele>
        <time>2012-11-24T10:38:09Z</time>
      </trkpt>
      <trkpt lat="46.34132" lon="6.49098">
        <ele>584</ele>
        <time>2012-11-24T10:38:10Z</time>
      </trkpt>
      <trkpt lat="46.34129" lon="6.49096">
        <ele>584</ele>
        <time>2012-11-24T10:38:11Z</time>
      </trkpt>
      <trkpt lat="46.34125" lon="6.49092">
        <ele>584</ele>
        <time>2012-11-24T10:38:12Z</time>
      </trkpt>
      <trkpt lat="46.34123" lon="6.4909">
        <ele>584</ele>
        <time>2012-11-24T10:38:13Z</time>
      </trkpt>
      <trkpt lat="46.34121" lon="6.49087">
        <ele>584</ele>
        <time>2012-11-24T10:38:14Z</time>
      </trkpt>
      <trkpt lat="46.34119" lon="6.49084">
        <ele>585</ele>
        <time>2012-11-24T10:38:15Z</time>
      </trkpt>
      <trkpt lat="46.34118" lon="6.4908">
        <ele>585</ele>
        <time>2012-11-24T10:38:16Z</time>
      </trkpt>
      <trkpt lat="46.34115" lon="6.49077">
        <ele>585</ele>
        <time>2012-11-24T10:38:17Z</time>
      </trkpt>
      <trkpt lat="46.34114" lon="6.49075">
        <ele>585</ele>
        <time>2012-11-24T10:38:18Z</time>
      </trkpt>
      <trkpt lat="46.34111" lon="6.49072">
        <ele>585</ele>
        <time>2012-11-24T10:38:19Z</time>
      </trkpt>
      <trkpt lat="46.34109" lon="6.49071">
        <ele>585</ele>
        <time>2012-11-24T10:38:20Z</time>
      </trkpt>
      <trkpt lat="46.34107" lon="6.49069">
        <ele>585</ele>
        <time>2012-11-24T10:38:21Z</time>
      </trkpt>
      <trkpt lat="46.34104" lon="6.49067">
        <ele>585</ele>
        <time>2012-11-24T10:38:22Z</time>
      </trkpt>
      <trkpt lat="46.34103" lon="6.49064">
        <ele>585</ele>
        <time>2012-11-24T10:38:23Z</time>
      </trkpt>
      <trkpt lat="46.341" lon="6.49062">
        <ele>585</ele>
        <time>2012-11-24T10:38:24Z</time>
      </trkpt>
      <trkpt lat="46.34099" lon="6.49059">
        <ele>585</ele>
        <time>2012-11-24T10:38:25Z</time>
      </trkpt>
      <trkpt lat="46.34097" lon="6.49056">
        <ele>585</ele>
        <time>2012-11-24T10:38:26Z</time>
      </trkpt>
      <trkpt lat="46.34095" lon="6.49053">
        <ele>586</ele>
        <time>2012-11-24T10:38:27Z</time>
      </trkpt>
      <trkpt lat="46.34093" lon="6.49052">
        <ele>587</ele>
        <time>2012-11-24T10:38:28Z</time>
      </trkpt>
      <trkpt lat="46.34091" lon="6.49049">
        <ele>587</ele>
        <time>2012-11-24T10:38:29Z</time>
      </trkpt>
      <trkpt lat="46.34089" lon="6.49046">
        <ele>588</ele>
        <time>2012-11-24T10:38:30Z</time>
      </trkpt>
      <trkpt lat="46.34086" lon="6.49044">
        <ele>588</ele>
        <time>2012-11-24T10:38:31Z</time>
      </trkpt>
      <trkpt lat="46.34083" lon="6.49041">
        <ele>588</ele>
        <time>2012-11-24T10:38:32Z</time>
      </trkpt>
      <trkpt lat="46.34081" lon="6.4904">
        <ele>588</ele>
        <time>2012-11-24T10:38:33Z</time>
      </trkpt>
      <trkpt lat="46.34079" lon="6.4904">
        <ele>588</ele>
        <time>2012-11-24T10:38:34Z</time>
      </trkpt>
      <trkpt lat="46.34076" lon="6.49038">
        <ele>588</ele>
        <time>2012-11-24T10:38:35Z</time>
      </trkpt>
      <trkpt lat="46.34074" lon="6.49038">
        <ele>588</ele>
        <time>2012-11-24T10:38:36Z</time>
      </trkpt>
      <trkpt lat="46.34072" lon="6.49038">
        <ele>588</ele>
        <time>2012-11-24T10:38:37Z</time>
      </trkpt>
      <trkpt lat="46.34069" lon="6.49038">
        <ele>588</ele>
        <time>2012-11-24T10:38:38Z</time>
      </trkpt>
      <trkpt lat="46.34067" lon="6.49037">
        <ele>588</ele>
        <time>2012-11-24T10:38:39Z</time>
      </trkpt>
      <trkpt lat="46.34065" lon="6.49037">
        <ele>588</ele>
        <time>2012-11-24T10:38:40Z</time>
      </trkpt>
      <trkpt lat="46.34063" lon="6.49035">
        <ele>588</ele>
        <time>2012-11-24T10:38:41Z</time>
      </trkpt>
      <trkpt lat="46.34061" lon="6.49035">
        <ele>588</ele>
        <time>2012-11-24T10:38:42Z</time>
      </trkpt>
      <trkpt lat="46.34059" lon="6.49035">
        <ele>587</ele>
        <time>2012-11-24T10:38:43Z</time>
      </trkpt>
      <trkpt lat="46.34057" lon="6.49035">
        <ele>586</ele>
        <time>2012-11-24T10:38:44Z</time>
      </trkpt>
      <trkpt lat="46.34055" lon="6.49034">
        <ele>586</ele>
        <time>2012-11-24T10:38:45Z</time>
      </trkpt>
      <trkpt lat="46.34052" lon="6.49032">
        <ele>586</ele>
        <time>2012-11-24T10:38:46Z</time>
      </trkpt>
      <trkpt lat="46.3405" lon="6.49031">
        <ele>586</ele>
        <time>2012-11-24T10:38:47Z</time>
      </trkpt>
      <trkpt lat="46.34047" lon="6.49031">
        <ele>586</ele>
        <time>2012-11-24T10:38:48Z</time>
      </trkpt>
      <trkpt lat="46.34045" lon="6.4903">
        <ele>586</ele>
        <time>2012-11-24T10:38:49Z</time>
      </trkpt>
      <trkpt lat="46.34044" lon="6.49028">
        <ele>586</ele>
        <time>2012-11-24T10:38:50Z</time>
      </trkpt>
      <trkpt lat="46.3404" lon="6.49027">
        <ele>586</ele>
        <time>2012-11-24T10:38:51Z</time>
      </trkpt>
      <trkpt lat="46.34038" lon="6.49024">
        <ele>586</ele>
        <time>2012-11-24T10:38:52Z</time>
      </trkpt>
      <trkpt lat="46.34035" lon="6.49022">
        <ele>586</ele>
        <time>2012-11-24T10:38:53Z</time>
      </trkpt>
      <trkpt lat="46.34032" lon="6.49019">
        <ele>586</ele>
        <time>2012-11-24T10:38:54Z</time>
      </trkpt>
      <trkpt lat="46.34029" lon="6.49016">
        <ele>586</ele>
        <time>2012-11-24T10:38:55Z</time>
      </trkpt>
      <trkpt lat="46.34027" lon="6.49014">
        <ele>586</ele>
        <time>2012-11-24T10:38:56Z</time>
      </trkpt>
      <trkpt lat="46.34025" lon="6.49013">
        <ele>586</ele>
        <time>2012-11-24T10:38:57Z</time>
      </trkpt>
      <trkpt lat="46.34021" lon="6.4901">
        <ele>586</ele>
        <time>2012-11-24T10:38:58Z</time>
      </trkpt>
      <trkpt lat="46.34019" lon="6.4901">
        <ele>586</ele>
        <time>2012-11-24T10:38:59Z</time>
      </trkpt>
      <trkpt lat="46.34016" lon="6.49008">
        <ele>586</ele>
        <time>2012-11-24T10:39:00Z</time>
      </trkpt>
      <trkpt lat="46.34013" lon="6.49006">
        <ele>586</ele>
        <time>2012-11-24T10:39:01Z</time>
      </trkpt>
      <trkpt lat="46.34011" lon="6.49004">
        <ele>586</ele>
        <time>2012-11-24T10:39:02Z</time>
      </trkpt>
      <trkpt lat="46.34008" lon="6.49002">
        <ele>586</ele>
        <time>2012-11-24T10:39:03Z</time>
      </trkpt>
      <trkpt lat="46.34006" lon="6.49">
        <ele>586</ele>
        <time>2012-11-24T10:39:04Z</time>
      </trkpt>
      <trkpt lat="46.34003" lon="6.48998">
        <ele>586</ele>
        <time>2012-11-24T10:39:05Z</time>
      </trkpt>
      <trkpt lat="46.34001" lon="6.48996">
        <ele>586</ele>
        <time>2012-11-24T10:39:06Z</time>
      </trkpt>
      <trkpt lat="46.33998" lon="6.48995">
        <ele>586</ele>
        <time>2012-11-24T10:39:07Z</time>
      </trkpt>
      <trkpt lat="46.33997" lon="6.48994">
        <ele>586</ele>
        <time>2012-11-24T10:39:08Z</time>
      </trkpt>
      <trkpt lat="46.33994" lon="6.48992">
        <ele>586</ele>
        <time>2012-11-24T10:39:09Z</time>
      </trkpt>
      <trkpt lat="46.33992" lon="6.48989">
        <ele>586</ele>
        <time>2012-11-24T10:39:10Z</time>
      </trkpt>
      <trkpt lat="46.3399" lon="6.48986">
        <ele>586</ele>
        <time>2012-11-24T10:39:11Z</time>
      </trkpt>
      <trkpt lat="46.33987" lon="6.48983">
        <ele>586</ele>
        <time>2012-11-24T10:39:12Z</time>
      </trkpt>
      <trkpt lat="46.33985" lon="6.4898">
        <ele>586</ele>
        <time>2012-11-24T10:39:13Z</time>
      </trkpt>
      <trkpt lat="46.33983" lon="6.48977">
        <ele>586</ele>
        <time>2012-11-24T10:39:14Z</time>
      </trkpt>
      <trkpt lat="46.33981" lon="6.48975">
        <ele>586</ele>
        <time>2012-11-24T10:39:15Z</time>
      </trkpt>
      <trkpt lat="46.33979" lon="6.48972">
        <ele>586</ele>
        <time>2012-11-24T10:39:16Z</time>
      </trkpt>
      <trkpt lat="46.33977" lon="6.48969">
        <ele>586</ele>
        <time>2012-11-24T10:39:17Z</time>
      </trkpt>
      <trkpt lat="46.33975" lon="6.48967">
        <ele>586</ele>
        <time>2012-11-24T10:39:18Z</time>
      </trkpt>
      <trkpt lat="46.33972" lon="6.48963">
        <ele>586</ele>
        <time>2012-11-24T10:39:19Z</time>
      </trkpt>
      <trkpt lat="46.3397" lon="6.48961">
        <ele>586</ele>
        <time>2012-11-24T10:39:20Z</time>
      </trkpt>
      <trkpt lat="46.33968" lon="6.48958">
        <ele>586</ele>
        <time>2012-11-24T10:39:21Z</time>
      </trkpt>
      <trkpt lat="46.33967" lon="6.48955">
        <ele>586</ele>
        <time>2012-11-24T10:39:22Z</time>
      </trkpt>
      <trkpt lat="46.33965" lon="6.48953">
        <ele>587</ele>
        <time>2012-11-24T10:39:23Z</time>
      </trkpt>
      <trkpt lat="46.33963" lon="6.4895">
        <ele>587</ele>
        <time>2012-11-24T10:39:24Z</time>
      </trkpt>
      <trkpt lat="46.33961" lon="6.48947">
        <ele>587</ele>
        <time>2012-11-24T10:39:25Z</time>
      </trkpt>
      <trkpt lat="46.33959" lon="6.48944">
        <ele>588</ele>
        <time>2012-11-24T10:39:26Z</time>
      </trkpt>
      <trkpt lat="46.33957" lon="6.48941">
        <ele>588</ele>
        <time>2012-11-24T10:39:27Z</time>
      </trkpt>
      <trkpt lat="46.33956" lon="6.48938">
        <ele>588</ele>
        <time>2012-11-24T10:39:28Z</time>
      </trkpt>
      <trkpt lat="46.33953" lon="6.48934">
        <ele>589</ele>
        <time>2012-11-24T10:39:29Z</time>
      </trkpt>
      <trkpt lat="46.33951" lon="6.48931">
        <ele>589</ele>
        <time>2012-11-24T10:39:30Z</time>
      </trkpt>
      <trkpt lat="46.33949" lon="6.48929">
        <ele>590</ele>
        <time>2012-11-24T10:39:31Z</time>
      </trkpt>
      <trkpt lat="46.33947" lon="6.48927">
        <ele>590</ele>
        <time>2012-11-24T10:39:32Z</time>
      </trkpt>
      <trkpt lat="46.33945" lon="6.48924">
        <ele>590</ele>
        <time>2012-11-24T10:39:33Z</time>
      </trkpt>
      <trkpt lat="46.33942" lon="6.48921">
        <ele>591</ele>
        <time>2012-11-24T10:39:34Z</time>
      </trkpt>
      <trkpt lat="46.33941" lon="6.48919">
        <ele>591</ele>
        <time>2012-11-24T10:39:35Z</time>
      </trkpt>
      <trkpt lat="46.33939" lon="6.48915">
        <ele>591</ele>
        <time>2012-11-24T10:39:36Z</time>
      </trkpt>
      <trkpt lat="46.33937" lon="6.48912">
        <ele>592</ele>
        <time>2012-11-24T10:39:37Z</time>
      </trkpt>
      <trkpt lat="46.33935" lon="6.48909">
        <ele>592</ele>
        <time>2012-11-24T10:39:38Z</time>
      </trkpt>
      <trkpt lat="46.33933" lon="6.48906">
        <ele>592</ele>
        <time>2012-11-24T10:39:39Z</time>
      </trkpt>
      <trkpt lat="46.33931" lon="6.48905">
        <ele>592</ele>
        <time>2012-11-24T10:39:40Z</time>
      </trkpt>
      <trkpt lat="46.33929" lon="6.48902">
        <ele>592</ele>
        <time>2012-11-24T10:39:41Z</time>
      </trkpt>
      <trkpt lat="46.33927" lon="6.48901">
        <ele>592</ele>
        <time>2012-11-24T10:39:42Z</time>
      </trkpt>
      <trkpt lat="46.33924" lon="6.48899">
        <ele>592</ele>
        <time>2012-11-24T10:39:43Z</time>
      </trkpt>
      <trkpt lat="46.33923" lon="6.48897">
        <ele>592</ele>
        <time>2012-11-24T10:39:44Z</time>
      </trkpt>
      <trkpt lat="46.33921" lon="6.48896">
        <ele>592</ele>
        <time>2012-11-24T10:39:45Z</time>
      </trkpt>
      <trkpt lat="46.33919" lon="6.48894">
        <ele>592</ele>
        <time>2012-11-24T10:39:46Z</time>
      </trkpt>
      <trkpt lat="46.33917" lon="6.48892">
        <ele>592</ele>
        <time>2012-11-24T10:39:47Z</time>
      </trkpt>
      <trkpt lat="46.33915" lon="6.48889">
        <ele>592</ele>
        <time>2012-11-24T10:39:48Z</time>
      </trkpt>
      <trkpt lat="46.33914" lon="6.48887">
        <ele>592</ele>
        <time>2012-11-24T10:39:49Z</time>
      </trkpt>
      <trkpt lat="46.33913" lon="6.48885">
        <ele>592</ele>
        <time>2012-11-24T10:39:50Z</time>
      </trkpt>
      <trkpt lat="46.33912" lon="6.48882">
        <ele>592</ele>
        <time>2012-11-24T10:39:51Z</time>
      </trkpt>
      <trkpt lat="46.33909" lon="6.48875">
        <ele>592</ele>
        <time>2012-11-24T10:39:52Z</time>
      </trkpt>
      <trkpt lat="46.33907" lon="6.4887">
        <ele>592</ele>
        <time>2012-11-24T10:39:53Z</time>
      </trkpt>
      <trkpt lat="46.33904" lon="6.48864">
        <ele>592</ele>
        <time>2012-11-24T10:39:54Z</time>
      </trkpt>
      <trkpt lat="46.33902" lon="6.4886">
        <ele>592</ele>
        <time>2012-11-24T10:39:55Z</time>
      </trkpt>
      <trkpt lat="46.33901" lon="6.48855">
        <ele>592</ele>
        <time>2012-11-24T10:39:56Z</time>
      </trkpt>
      <trkpt lat="46.339" lon="6.48849">
        <ele>592</ele>
        <time>2012-11-24T10:39:57Z</time>
      </trkpt>
      <trkpt lat="46.339" lon="6.48846">
        <ele>592</ele>
        <time>2012-11-24T10:39:58Z</time>
      </trkpt>
      <trkpt lat="46.339" lon="6.48843">
        <ele>592</ele>
        <time>2012-11-24T10:39:59Z</time>
      </trkpt>
      <trkpt lat="46.33899" lon="6.4884">
        <ele>592</ele>
        <time>2012-11-24T10:40:00Z</time>
      </trkpt>
      <trkpt lat="46.33898" lon="6.48837">
        <ele>592</ele>
        <time>2012-11-24T10:40:01Z</time>
      </trkpt>
      <trkpt lat="46.33897" lon="6.48834">
        <ele>592</ele>
        <time>2012-11-24T10:40:02Z</time>
      </trkpt>
      <trkpt lat="46.33897" lon="6.4883">
        <ele>592</ele>
        <time>2012-11-24T10:40:03Z</time>
      </trkpt>
      <trkpt lat="46.33897" lon="6.48827">
        <ele>592</ele>
        <time>2012-11-24T10:40:04Z</time>
      </trkpt>
      <trkpt lat="46.33895" lon="6.48821">
        <ele>592</ele>
        <time>2012-11-24T10:40:05Z</time>
      </trkpt>
      <trkpt lat="46.33894" lon="6.48817">
        <ele>592</ele>
        <time>2012-11-24T10:40:06Z</time>
      </trkpt>
      <trkpt lat="46.33894" lon="6.48814">
        <ele>592</ele>
        <time>2012-11-24T10:40:07Z</time>
      </trkpt>
      <trkpt lat="46.33894" lon="6.48811">
        <ele>592</ele>
        <time>2012-11-24T10:40:08Z</time>
      </trkpt>
      <trkpt lat="46.33894" lon="6.48807">
        <ele>592</ele>
        <time>2012-11-24T10:40:09Z</time>
      </trkpt>
      <trkpt lat="46.33892" lon="6.48803">
        <ele>592</ele>
        <time>2012-11-24T10:40:10Z</time>
      </trkpt>
      <trkpt lat="46.33891" lon="6.48799">
        <ele>592</ele>
        <time>2012-11-24T10:40:11Z</time>
      </trkpt>
      <trkpt lat="46.3389" lon="6.48796">
        <ele>592</ele>
        <time>2012-11-24T10:40:12Z</time>
      </trkpt>
      <trkpt lat="46.33889" lon="6.48793">
        <ele>592</ele>
        <time>2012-11-24T10:40:13Z</time>
      </trkpt>
      <trkpt lat="46.33889" lon="6.48789">
        <ele>591</ele>
        <time>2012-11-24T10:40:14Z</time>
      </trkpt>
      <trkpt lat="46.33887" lon="6.48784">
        <ele>591</ele>
        <time>2012-11-24T10:40:15Z</time>
      </trkpt>
      <trkpt lat="46.33885" lon="6.4878">
        <ele>591</ele>
        <time>2012-11-24T10:40:16Z</time>
      </trkpt>
      <trkpt lat="46.33884" lon="6.48775">
        <ele>590</ele>
        <time>2012-11-24T10:40:17Z</time>
      </trkpt>
      <trkpt lat="46.33883" lon="6.48772">
        <ele>590</ele>
        <time>2012-11-24T10:40:18Z</time>
      </trkpt>
      <trkpt lat="46.33881" lon="6.48768">
        <ele>589</ele>
        <time>2012-11-24T10:40:19Z</time>
      </trkpt>
      <trkpt lat="46.3388" lon="6.48763">
        <ele>589</ele>
        <time>2012-11-24T10:40:20Z</time>
      </trkpt>
      <trkpt lat="46.33878" lon="6.48758">
        <ele>589</ele>
        <time>2012-11-24T10:40:21Z</time>
      </trkpt>
      <trkpt lat="46.33875" lon="6.48752">
        <ele>588</ele>
        <time>2012-11-24T10:40:22Z</time>
      </trkpt>
      <trkpt lat="46.33874" lon="6.48747">
        <ele>588</ele>
        <time>2012-11-24T10:40:23Z</time>
      </trkpt>
      <trkpt lat="46.33871" lon="6.48742">
        <ele>588</ele>
        <time>2012-11-24T10:40:24Z</time>
      </trkpt>
      <trkpt lat="46.33869" lon="6.48739">
        <ele>587</ele>
        <time>2012-11-24T10:40:25Z</time>
      </trkpt>
      <trkpt lat="46.33868" lon="6.48735">
        <ele>587</ele>
        <time>2012-11-24T10:40:26Z</time>
      </trkpt>
      <trkpt lat="46.33866" lon="6.48732">
        <ele>587</ele>
        <time>2012-11-24T10:40:27Z</time>
      </trkpt>
      <trkpt lat="46.33864" lon="6.48728">
        <ele>586</ele>
        <time>2012-11-24T10:40:28Z</time>
      </trkpt>
      <trkpt lat="46.33863" lon="6.48725">
        <ele>585</ele>
        <time>2012-11-24T10:40:29Z</time>
      </trkpt>
      <trkpt lat="46.33861" lon="6.48722">
        <ele>585</ele>
        <time>2012-11-24T10:40:30Z</time>
      </trkpt>
      <trkpt lat="46.33859" lon="6.48718">
        <ele>584</ele>
        <time>2012-11-24T10:40:31Z</time>
      </trkpt>
      <trkpt lat="46.33857" lon="6.48715">
        <ele>584</ele>
        <time>2012-11-24T10:40:32Z</time>
      </trkpt>
      <trkpt lat="46.33856" lon="6.48712">
        <ele>583</ele>
        <time>2012-11-24T10:40:33Z</time>
      </trkpt>
      <trkpt lat="46.33854" lon="6.48709">
        <ele>583</ele>
        <time>2012-11-24T10:40:34Z</time>
      </trkpt>
      <trkpt lat="46.33852" lon="6.48707">
        <ele>582</ele>
        <time>2012-11-24T10:40:35Z</time>
      </trkpt>
      <trkpt lat="46.3385" lon="6.48703">
        <ele>582</ele>
        <time>2012-11-24T10:40:36Z</time>
      </trkpt>
      <trkpt lat="46.33848" lon="6.487">
        <ele>582</ele>
        <time>2012-11-24T10:40:37Z</time>
      </trkpt>
      <trkpt lat="46.33846" lon="6.48697">
        <ele>581</ele>
        <time>2012-11-24T10:40:38Z</time>
      </trkpt>
      <trkpt lat="46.33844" lon="6.48694">
        <ele>581</ele>
        <time>2012-11-24T10:40:39Z</time>
      </trkpt>
      <trkpt lat="46.33843" lon="6.48691">
        <ele>581</ele>
        <time>2012-11-24T10:40:40Z</time>
      </trkpt>
      <trkpt lat="46.33841" lon="6.48688">
        <ele>580</ele>
        <time>2012-11-24T10:40:41Z</time>
      </trkpt>
      <trkpt lat="46.33839" lon="6.48684">
        <ele>580</ele>
        <time>2012-11-24T10:40:42Z</time>
      </trkpt>
      <trkpt lat="46.33837" lon="6.48681">
        <ele>580</ele>
        <time>2012-11-24T10:40:43Z</time>
      </trkpt>
      <trkpt lat="46.33836" lon="6.48678">
        <ele>580</ele>
        <time>2012-11-24T10:40:44Z</time>
      </trkpt>
      <trkpt lat="46.33834" lon="6.48674">
        <ele>579</ele>
        <time>2012-11-24T10:40:45Z</time>
      </trkpt>
      <trkpt lat="46.33832" lon="6.48671">
        <ele>579</ele>
        <time>2012-11-24T10:40:46Z</time>
      </trkpt>
      <trkpt lat="46.3383" lon="6.48668">
        <ele>578</ele>
        <time>2012-11-24T10:40:47Z</time>
      </trkpt>
      <trkpt lat="46.33828" lon="6.48665">
        <ele>578</ele>
        <time>2012-11-24T10:40:48Z</time>
      </trkpt>
      <trkpt lat="46.33826" lon="6.48662">
        <ele>578</ele>
        <time>2012-11-24T10:40:49Z</time>
      </trkpt>
      <trkpt lat="46.33824" lon="6.48659">
        <ele>578</ele>
        <time>2012-11-24T10:40:50Z</time>
      </trkpt>
      <trkpt lat="46.33822" lon="6.48656">
        <ele>577</ele>
        <time>2012-11-24T10:40:51Z</time>
      </trkpt>
      <trkpt lat="46.3382" lon="6.48653">
        <ele>577</ele>
        <time>2012-11-24T10:40:52Z</time>
      </trkpt>
      <trkpt lat="46.33818" lon="6.48649">
        <ele>577</ele>
        <time>2012-11-24T10:40:53Z</time>
      </trkpt>
      <trkpt lat="46.33817" lon="6.48646">
        <ele>577</ele>
        <time>2012-11-24T10:40:54Z</time>
      </trkpt>
      <trkpt lat="46.33815" lon="6.48643">
        <ele>577</ele>
        <time>2012-11-24T10:40:55Z</time>
      </trkpt>
      <trkpt lat="46.33813" lon="6.4864">
        <ele>577</ele>
        <time>2012-11-24T10:40:56Z</time>
      </trkpt>
      <trkpt lat="46.33811" lon="6.48638">
        <ele>576</ele>
        <time>2012-11-24T10:40:57Z</time>
      </trkpt>
      <trkpt lat="46.33809" lon="6.48636">
        <ele>576</ele>
        <time>2012-11-24T10:40:58Z</time>
      </trkpt>
      <trkpt lat="46.33807" lon="6.48633">
        <ele>576</ele>
        <time>2012-11-24T10:40:59Z</time>
      </trkpt>
      <trkpt lat="46.33804" lon="6.48629">
        <ele>576</ele>
        <time>2012-11-24T10:41:00Z</time>
      </trkpt>
      <trkpt lat="46.33802" lon="6.48626">
        <ele>576</ele>
        <time>2012-11-24T10:41:01Z</time>
      </trkpt>
      <trkpt lat="46.338" lon="6.48623">
        <ele>576</ele>
        <time>2012-11-24T10:41:02Z</time>
      </trkpt>
      <trkpt lat="46.33798" lon="6.4862">
        <ele>576</ele>
        <time>2012-11-24T10:41:03Z</time>
      </trkpt>
      <trkpt lat="46.33796" lon="6.48618">
        <ele>576</ele>
        <time>2012-11-24T10:41:04Z</time>
      </trkpt>
      <trkpt lat="46.33794" lon="6.48615">
        <ele>576</ele>
        <time>2012-11-24T10:41:05Z</time>
      </trkpt>
      <trkpt lat="46.33792" lon="6.48612">
        <ele>576</ele>
        <time>2012-11-24T10:41:06Z</time>
      </trkpt>
      <trkpt lat="46.3379" lon="6.48609">
        <ele>576</ele>
        <time>2012-11-24T10:41:07Z</time>
      </trkpt>
      <trkpt lat="46.33788" lon="6.48607">
        <ele>576</ele>
        <time>2012-11-24T10:41:08Z</time>
      </trkpt>
      <trkpt lat="46.33786" lon="6.48604">
        <ele>576</ele>
        <time>2012-11-24T10:41:09Z</time>
      </trkpt>
      <trkpt lat="46.33784" lon="6.48602">
        <ele>576</ele>
        <time>2012-11-24T10:41:10Z</time>
      </trkpt>
      <trkpt lat="46.33782" lon="6.48599">
        <ele>576</ele>
        <time>2012-11-24T10:41:11Z</time>
      </trkpt>
      <trkpt lat="46.33779" lon="6.48596">
        <ele>576</ele>
        <time>2012-11-24T10:41:12Z</time>
      </trkpt>
      <trkpt lat="46.33777" lon="6.48594">
        <ele>576</ele>
        <time>2012-11-24T10:41:13Z</time>
      </trkpt>
      <trkpt lat="46.33774" lon="6.48591">
        <ele>576</ele>
        <time>2012-11-24T10:41:14Z</time>
      </trkpt>
      <trkpt lat="46.33772" lon="6.48589">
        <ele>576</ele>
        <time>2012-11-24T10:41:15Z</time>
      </trkpt>
      <trkpt lat="46.33769" lon="6.48587">
        <ele>576</ele>
        <time>2012-11-24T10:41:16Z</time>
      </trkpt>
      <trkpt lat="46.33767" lon="6.48584">
        <ele>576</ele>
        <time>2012-11-24T10:41:17Z</time>
      </trkpt>
      <trkpt lat="46.33765" lon="6.48582">
        <ele>576</ele>
        <time>2012-11-24T10:41:18Z</time>
      </trkpt>
      <trkpt lat="46.33762" lon="6.48579">
        <ele>576</ele>
        <time>2012-11-24T10:41:19Z</time>
      </trkpt>
      <trkpt lat="46.3376" lon="6.48576">
        <ele>576</ele>
        <time>2012-11-24T10:41:20Z</time>
      </trkpt>
      <trkpt lat="46.33758" lon="6.48574">
        <ele>575</ele>
        <time>2012-11-24T10:41:21Z</time>
      </trkpt>
      <trkpt lat="46.33756" lon="6.48571">
        <ele>575</ele>
        <time>2012-11-24T10:41:22Z</time>
      </trkpt>
      <trkpt lat="46.33754" lon="6.48569">
        <ele>575</ele>
        <time>2012-11-24T10:41:23Z</time>
      </trkpt>
      <trkpt lat="46.33752" lon="6.48566">
        <ele>575</ele>
        <time>2012-11-24T10:41:24Z</time>
      </trkpt>
      <trkpt lat="46.33749" lon="6.48562">
        <ele>575</ele>
        <time>2012-11-24T10:41:25Z</time>
      </trkpt>
      <trkpt lat="46.33747" lon="6.48559">
        <ele>575</ele>
        <time>2012-11-24T10:41:26Z</time>
      </trkpt>
      <trkpt lat="46.33745" lon="6.48556">
        <ele>575</ele>
        <time>2012-11-24T10:41:27Z</time>
      </trkpt>
      <trkpt lat="46.33744" lon="6.48553">
        <ele>575</ele>
        <time>2012-11-24T10:41:28Z</time>
      </trkpt>
      <trkpt lat="46.33742" lon="6.48549">
        <ele>575</ele>
        <time>2012-11-24T10:41:29Z</time>
      </trkpt>
      <trkpt lat="46.3374" lon="6.48546">
        <ele>575</ele>
        <time>2012-11-24T10:41:30Z</time>
      </trkpt>
      <trkpt lat="46.33738" lon="6.48542">
        <ele>575</ele>
        <time>2012-11-24T10:41:31Z</time>
      </trkpt>
      <trkpt lat="46.33737" lon="6.48539">
        <ele>575</ele>
        <time>2012-11-24T10:41:32Z</time>
      </trkpt>
      <trkpt lat="46.33736" lon="6.48535">
        <ele>575</ele>
        <time>2012-11-24T10:41:33Z</time>
      </trkpt>
      <trkpt lat="46.33736" lon="6.48532">
        <ele>575</ele>
        <time>2012-11-24T10:41:34Z</time>
      </trkpt>
      <trkpt lat="46.33735" lon="6.48528">
        <ele>575</ele>
        <time>2012-11-24T10:41:35Z</time>
      </trkpt>
      <trkpt lat="46.33734" lon="6.48525">
        <ele>575</ele>
        <time>2012-11-24T10:41:36Z</time>
      </trkpt>
      <trkpt lat="46.33733" lon="6.48521">
        <ele>575</ele>
        <time>2012-11-24T10:41:37Z</time>
      </trkpt>
      <trkpt lat="46.33733" lon="6.48517">
        <ele>575</ele>
        <time>2012-11-24T10:41:38Z</time>
      </trkpt>
      <trkpt lat="46.33732" lon="6.48513">
        <ele>575</ele>
        <time>2012-11-24T10:41:39Z</time>
      </trkpt>
      <trkpt lat="46.33732" lon="6.48509">
        <ele>575</ele>
        <time>2012-11-24T10:41:40Z</time>
      </trkpt>
      <trkpt lat="46.33732" lon="6.48505">
        <ele>575</ele>
        <time>2012-11-24T10:41:41Z</time>
      </trkpt>
      <trkpt lat="46.33733" lon="6.48501">
        <ele>575</ele>
        <time>2012-11-24T10:41:42Z</time>
      </trkpt>
      <trkpt lat="46.33733" lon="6.48498">
        <ele>575</ele>
        <time>2012-11-24T10:41:43Z</time>
      </trkpt>
      <trkpt lat="46.33733" lon="6.48495">
        <ele>575</ele>
        <time>2012-11-24T10:41:44Z</time>
      </trkpt>
      <trkpt lat="46.33733" lon="6.4849">
        <ele>575</ele>
        <time>2012-11-24T10:41:45Z</time>
      </trkpt>
      <trkpt lat="46.33733" lon="6.48487">
        <ele>575</ele>
        <time>2012-11-24T10:41:46Z</time>
      </trkpt>
      <trkpt lat="46.33733" lon="6.48482">
        <ele>575</ele>
        <time>2012-11-24T10:41:47Z</time>
      </trkpt>
      <trkpt lat="46.33733" lon="6.48477">
        <ele>575</ele>
        <time>2012-11-24T10:41:48Z</time>
      </trkpt>
      <trkpt lat="46.33734" lon="6.48473">
        <ele>575</ele>
        <time>2012-11-24T10:41:49Z</time>
      </trkpt>
      <trkpt lat="46.33734" lon="6.48468">
        <ele>574</ele>
        <time>2012-11-24T10:41:50Z</time>
      </trkpt>
      <trkpt lat="46.33735" lon="6.48464">
        <ele>574</ele>
        <time>2012-11-24T10:41:51Z</time>
      </trkpt>
      <trkpt lat="46.33736" lon="6.48459">
        <ele>573</ele>
        <time>2012-11-24T10:41:52Z</time>
      </trkpt>
      <trkpt lat="46.33736" lon="6.48455">
        <ele>573</ele>
        <time>2012-11-24T10:41:53Z</time>
      </trkpt>
      <trkpt lat="46.33738" lon="6.4845">
        <ele>572</ele>
        <time>2012-11-24T10:41:54Z</time>
      </trkpt>
      <trkpt lat="46.33738" lon="6.48446">
        <ele>572</ele>
        <time>2012-11-24T10:41:55Z</time>
      </trkpt>
      <trkpt lat="46.33739" lon="6.48442">
        <ele>571</ele>
        <time>2012-11-24T10:41:56Z</time>
      </trkpt>
      <trkpt lat="46.33739" lon="6.48438">
        <ele>571</ele>
        <time>2012-11-24T10:41:57Z</time>
      </trkpt>
      <trkpt lat="46.3374" lon="6.48434">
        <ele>571</ele>
        <time>2012-11-24T10:41:58Z</time>
      </trkpt>
      <trkpt lat="46.33742" lon="6.4843">
        <ele>571</ele>
        <time>2012-11-24T10:41:59Z</time>
      </trkpt>
      <trkpt lat="46.33742" lon="6.48426">
        <ele>571</ele>
        <time>2012-11-24T10:42:00Z</time>
      </trkpt>
      <trkpt lat="46.33743" lon="6.48421">
        <ele>571</ele>
        <time>2012-11-24T10:42:01Z</time>
      </trkpt>
      <trkpt lat="46.33744" lon="6.48417">
        <ele>571</ele>
        <time>2012-11-24T10:42:02Z</time>
      </trkpt>
      <trkpt lat="46.33744" lon="6.48413">
        <ele>571</ele>
        <time>2012-11-24T10:42:03Z</time>
      </trkpt>
      <trkpt lat="46.33745" lon="6.48409">
        <ele>570</ele>
        <time>2012-11-24T10:42:04Z</time>
      </trkpt>
      <trkpt lat="46.33747" lon="6.48406">
        <ele>570</ele>
        <time>2012-11-24T10:42:05Z</time>
      </trkpt>
      <trkpt lat="46.33748" lon="6.48401">
        <ele>570</ele>
        <time>2012-11-24T10:42:06Z</time>
      </trkpt>
      <trkpt lat="46.33749" lon="6.48397">
        <ele>570</ele>
        <time>2012-11-24T10:42:07Z</time>
      </trkpt>
      <trkpt lat="46.33749" lon="6.48393">
        <ele>570</ele>
        <time>2012-11-24T10:42:08Z</time>
      </trkpt>
      <trkpt lat="46.3375" lon="6.48388">
        <ele>570</ele>
        <time>2012-11-24T10:42:09Z</time>
      </trkpt>
      <trkpt lat="46.33751" lon="6.48384">
        <ele>570</ele>
        <time>2012-11-24T10:42:10Z</time>
      </trkpt>
      <trkpt lat="46.33751" lon="6.4838">
        <ele>570</ele>
        <time>2012-11-24T10:42:11Z</time>
      </trkpt>
      <trkpt lat="46.33751" lon="6.48375">
        <ele>569</ele>
        <time>2012-11-24T10:42:12Z</time>
      </trkpt>
      <trkpt lat="46.33751" lon="6.48371">
        <ele>569</ele>
        <time>2012-11-24T10:42:13Z</time>
      </trkpt>
      <trkpt lat="46.33751" lon="6.48367">
        <ele>569</ele>
        <time>2012-11-24T10:42:14Z</time>
      </trkpt>
      <trkpt lat="46.33751" lon="6.48363">
        <ele>569</ele>
        <time>2012-11-24T10:42:15Z</time>
      </trkpt>
      <trkpt lat="46.33751" lon="6.48359">
        <ele>569</ele>
        <time>2012-11-24T10:42:16Z</time>
      </trkpt>
      <trkpt lat="46.3375" lon="6.48355">
        <ele>569</ele>
        <time>2012-11-24T10:42:17Z</time>
      </trkpt>
      <trkpt lat="46.3375" lon="6.48351">
        <ele>569</ele>
        <time>2012-11-24T10:42:18Z</time>
      </trkpt>
      <trkpt lat="46.33749" lon="6.48347">
        <ele>569</ele>
        <time>2012-11-24T10:42:19Z</time>
      </trkpt>
      <trkpt lat="46.33747" lon="6.48344">
        <ele>569</ele>
        <time>2012-11-24T10:42:20Z</time>
      </trkpt>
      <trkpt lat="46.33746" lon="6.4834">
        <ele>569</ele>
        <time>2012-11-24T10:42:21Z</time>
      </trkpt>
      <trkpt lat="46.33744" lon="6.48336">
        <ele>569</ele>
        <time>2012-11-24T10:42:22Z</time>
      </trkpt>
      <trkpt lat="46.33743" lon="6.48332">
        <ele>569</ele>
        <time>2012-11-24T10:42:23Z</time>
      </trkpt>
      <trkpt lat="46.33742" lon="6.48328">
        <ele>569</ele>
        <time>2012-11-24T10:42:24Z</time>
      </trkpt>
      <trkpt lat="46.33741" lon="6.48324">
        <ele>569</ele>
        <time>2012-11-24T10:42:25Z</time>
      </trkpt>
      <trkpt lat="46.33741" lon="6.48321">
        <ele>568</ele>
        <time>2012-11-24T10:42:26Z</time>
      </trkpt>
      <trkpt lat="46.3374" lon="6.48317">
        <ele>568</ele>
        <time>2012-11-24T10:42:27Z</time>
      </trkpt>
      <trkpt lat="46.33738" lon="6.48313">
        <ele>568</ele>
        <time>2012-11-24T10:42:28Z</time>
      </trkpt>
      <trkpt lat="46.33737" lon="6.4831">
        <ele>568</ele>
        <time>2012-11-24T10:42:29Z</time>
      </trkpt>
      <trkpt lat="46.33736" lon="6.48307">
        <ele>567</ele>
        <time>2012-11-24T10:42:30Z</time>
      </trkpt>
      <trkpt lat="46.33735" lon="6.48303">
        <ele>567</ele>
        <time>2012-11-24T10:42:31Z</time>
      </trkpt>
      <trkpt lat="46.33734" lon="6.483">
        <ele>566</ele>
        <time>2012-11-24T10:42:32Z</time>
      </trkpt>
      <trkpt lat="46.33733" lon="6.48296">
        <ele>566</ele>
        <time>2012-11-24T10:42:33Z</time>
      </trkpt>
      <trkpt lat="46.33732" lon="6.48292">
        <ele>565</ele>
        <time>2012-11-24T10:42:34Z</time>
      </trkpt>
      <trkpt lat="46.3373" lon="6.48288">
        <ele>564</ele>
        <time>2012-11-24T10:42:35Z</time>
      </trkpt>
      <trkpt lat="46.33729" lon="6.48284">
        <ele>564</ele>
        <time>2012-11-24T10:42:36Z</time>
      </trkpt>
      <trkpt lat="46.33728" lon="6.4828">
        <ele>564</ele>
        <time>2012-11-24T10:42:37Z</time>
      </trkpt>
      <trkpt lat="46.33727" lon="6.48276">
        <ele>563</ele>
        <time>2012-11-24T10:42:38Z</time>
      </trkpt>
      <trkpt lat="46.33725" lon="6.48273">
        <ele>563</ele>
        <time>2012-11-24T10:42:39Z</time>
      </trkpt>
      <trkpt lat="46.33724" lon="6.48269">
        <ele>563</ele>
        <time>2012-11-24T10:42:40Z</time>
      </trkpt>
      <trkpt lat="46.33722" lon="6.48265">
        <ele>563</ele>
        <time>2012-11-24T10:42:41Z</time>
      </trkpt>
      <trkpt lat="46.33721" lon="6.48262">
        <ele>562</ele>
        <time>2012-11-24T10:42:42Z</time>
      </trkpt>
      <trkpt lat="46.3372" lon="6.48258">
        <ele>562</ele>
        <time>2012-11-24T10:42:43Z</time>
      </trkpt>
      <trkpt lat="46.33718" lon="6.48254">
        <ele>562</ele>
        <time>2012-11-24T10:42:44Z</time>
      </trkpt>
      <trkpt lat="46.33717" lon="6.4825">
        <ele>562</ele>
        <time>2012-11-24T10:42:45Z</time>
      </trkpt>
      <trkpt lat="46.33716" lon="6.48247">
        <ele>562</ele>
        <time>2012-11-24T10:42:46Z</time>
      </trkpt>
      <trkpt lat="46.33716" lon="6.48244">
        <ele>562</ele>
        <time>2012-11-24T10:42:47Z</time>
      </trkpt>
      <trkpt lat="46.33714" lon="6.48241">
        <ele>562</ele>
        <time>2012-11-24T10:42:48Z</time>
      </trkpt>
      <trkpt lat="46.33712" lon="6.48237">
        <ele>562</ele>
        <time>2012-11-24T10:42:49Z</time>
      </trkpt>
      <trkpt lat="46.3371" lon="6.48233">
        <ele>562</ele>
        <time>2012-11-24T10:42:50Z</time>
      </trkpt>
      <trkpt lat="46.33709" lon="6.4823">
        <ele>561</ele>
        <time>2012-11-24T10:42:51Z</time>
      </trkpt>
      <trkpt lat="46.33707" lon="6.48226">
        <ele>561</ele>
        <time>2012-11-24T10:42:52Z</time>
      </trkpt>
      <trkpt lat="46.33705" lon="6.48222">
        <ele>561</ele>
        <time>2012-11-24T10:42:53Z</time>
      </trkpt>
      <trkpt lat="46.33704" lon="6.48219">
        <ele>561</ele>
        <time>2012-11-24T10:42:54Z</time>
      </trkpt>
      <trkpt lat="46.33702" lon="6.48215">
        <ele>561</ele>
        <time>2012-11-24T10:42:55Z</time>
      </trkpt>
      <trkpt lat="46.337" lon="6.48212">
        <ele>561</ele>
        <time>2012-11-24T10:42:56Z</time>
      </trkpt>
      <trkpt lat="46.33699" lon="6.48209">
        <ele>561</ele>
        <time>2012-11-24T10:42:57Z</time>
      </trkpt>
      <trkpt lat="46.33697" lon="6.48206">
        <ele>561</ele>
        <time>2012-11-24T10:42:58Z</time>
      </trkpt>
      <trkpt lat="46.33696" lon="6.48203">
        <ele>560</ele>
        <time>2012-11-24T10:42:59Z</time>
      </trkpt>
      <trkpt lat="46.33694" lon="6.48199">
        <ele>560</ele>
        <time>2012-11-24T10:43:00Z</time>
      </trkpt>
      <trkpt lat="46.33693" lon="6.48196">
        <ele>560</ele>
        <time>2012-11-24T10:43:01Z</time>
      </trkpt>
      <trkpt lat="46.33691" lon="6.48192">
        <ele>559</ele>
        <time>2012-11-24T10:43:02Z</time>
      </trkpt>
      <trkpt lat="46.33689" lon="6.48188">
        <ele>559</ele>
        <time>2012-11-24T10:43:03Z</time>
      </trkpt>
      <trkpt lat="46.33688" lon="6.48185">
        <ele>558</ele>
        <time>2012-11-24T10:43:04Z</time>
      </trkpt>
      <trkpt lat="46.33686" lon="6.48182">
        <ele>557</ele>
        <time>2012-11-24T10:43:05Z</time>
      </trkpt>
      <trkpt lat="46.33685" lon="6.48179">
        <ele>557</ele>
        <time>2012-11-24T10:43:06Z</time>
      </trkpt>
      <trkpt lat="46.33683" lon="6.48175">
        <ele>556</ele>
        <time>2012-11-24T10:43:07Z</time>
      </trkpt>
      <trkpt lat="46.33682" lon="6.48171">
        <ele>556</ele>
        <time>2012-11-24T10:43:08Z</time>
      </trkpt>
      <trkpt lat="46.3368" lon="6.48167">
        <ele>555</ele>
        <time>2012-11-24T10:43:09Z</time>
      </trkpt>
      <trkpt lat="46.33679" lon="6.48163">
        <ele>555</ele>
        <time>2012-11-24T10:43:10Z</time>
      </trkpt>
      <trkpt lat="46.33678" lon="6.48159">
        <ele>555</ele>
        <time>2012-11-24T10:43:11Z</time>
      </trkpt>
      <trkpt lat="46.33677" lon="6.48154">
        <ele>555</ele>
        <time>2012-11-24T10:43:12Z</time>
      </trkpt>
      <trkpt lat="46.33676" lon="6.4815">
        <ele>555</ele>
        <time>2012-11-24T10:43:13Z</time>
      </trkpt>
      <trkpt lat="46.33675" lon="6.48146">
        <ele>555</ele>
        <time>2012-11-24T10:43:14Z</time>
      </trkpt>
      <trkpt lat="46.33675" lon="6.48144">
        <ele>555</ele>
        <time>2012-11-24T10:43:15Z</time>
      </trkpt>
      <trkpt lat="46.33674" lon="6.48141">
        <ele>555</ele>
        <time>2012-11-24T10:43:17Z</time>
      </trkpt>
      <trkpt lat="46.33674" lon="6.48137">
        <ele>555</ele>
        <time>2012-11-24T10:43:17Z</time>
      </trkpt>
      <trkpt lat="46.33674" lon="6.48133">
        <ele>555</ele>
        <time>2012-11-24T10:43:18Z</time>
      </trkpt>
      <trkpt lat="46.33675" lon="6.48129">
        <ele>555</ele>
        <time>2012-11-24T10:43:19Z</time>
      </trkpt>
      <trkpt lat="46.33676" lon="6.48125">
        <ele>555</ele>
        <time>2012-11-24T10:43:20Z</time>
      </trkpt>
      <trkpt lat="46.33677" lon="6.48121">
        <ele>555</ele>
        <time>2012-11-24T10:43:21Z</time>
      </trkpt>
      <trkpt lat="46.33678" lon="6.48117">
        <ele>555</ele>
        <time>2012-11-24T10:43:22Z</time>
      </trkpt>
      <trkpt lat="46.33679" lon="6.48113">
        <ele>555</ele>
        <time>2012-11-24T10:43:23Z</time>
      </trkpt>
      <trkpt lat="46.3368" lon="6.48108">
        <ele>555</ele>
        <time>2012-11-24T10:43:24Z</time>
      </trkpt>
      <trkpt lat="46.33682" lon="6.48104">
        <ele>555</ele>
        <time>2012-11-24T10:43:25Z</time>
      </trkpt>
      <trkpt lat="46.33683" lon="6.48101">
        <ele>555</ele>
        <time>2012-11-24T10:43:26Z</time>
      </trkpt>
      <trkpt lat="46.33685" lon="6.48098">
        <ele>555</ele>
        <time>2012-11-24T10:43:27Z</time>
      </trkpt>
      <trkpt lat="46.33687" lon="6.48094">
        <ele>555</ele>
        <time>2012-11-24T10:43:28Z</time>
      </trkpt>
      <trkpt lat="46.33688" lon="6.48091">
        <ele>555</ele>
        <time>2012-11-24T10:43:29Z</time>
      </trkpt>
      <trkpt lat="46.3369" lon="6.48087">
        <ele>555</ele>
        <time>2012-11-24T10:43:30Z</time>
      </trkpt>
      <trkpt lat="46.33691" lon="6.48083">
        <ele>555</ele>
        <time>2012-11-24T10:43:31Z</time>
      </trkpt>
      <trkpt lat="46.33693" lon="6.4808">
        <ele>555</ele>
        <time>2012-11-24T10:43:32Z</time>
      </trkpt>
      <trkpt lat="46.33696" lon="6.48077">
        <ele>555</ele>
        <time>2012-11-24T10:43:33Z</time>
      </trkpt>
      <trkpt lat="46.33698" lon="6.48073">
        <ele>555</ele>
        <time>2012-11-24T10:43:34Z</time>
      </trkpt>
      <trkpt lat="46.33702" lon="6.48064">
        <ele>555</ele>
        <time>2012-11-24T10:43:37Z</time>
      </trkpt>
      <trkpt lat="46.33704" lon="6.48062">
        <ele>555</ele>
        <time>2012-11-24T10:43:38Z</time>
      </trkpt>
      <trkpt lat="46.33704" lon="6.48058">
        <ele>554</ele>
        <time>2012-11-24T10:43:39Z</time>
      </trkpt>
      <trkpt lat="46.33706" lon="6.48053">
        <ele>553</ele>
        <time>2012-11-24T10:43:40Z</time>
      </trkpt>
      <trkpt lat="46.33706" lon="6.48049">
        <ele>553</ele>
        <time>2012-11-24T10:43:41Z</time>
      </trkpt>
      <trkpt lat="46.33707" lon="6.48046">
        <ele>552</ele>
        <time>2012-11-24T10:43:42Z</time>
      </trkpt>
      <trkpt lat="46.33708" lon="6.48042">
        <ele>552</ele>
        <time>2012-11-24T10:43:43Z</time>
      </trkpt>
      <trkpt lat="46.33709" lon="6.48037">
        <ele>551</ele>
        <time>2012-11-24T10:43:44Z</time>
      </trkpt>
      <trkpt lat="46.33711" lon="6.48033">
        <ele>551</ele>
        <time>2012-11-24T10:43:45Z</time>
      </trkpt>
      <trkpt lat="46.33712" lon="6.48029">
        <ele>551</ele>
        <time>2012-11-24T10:43:46Z</time>
      </trkpt>
      <trkpt lat="46.33714" lon="6.48025">
        <ele>550</ele>
        <time>2012-11-24T10:43:47Z</time>
      </trkpt>
      <trkpt lat="46.33715" lon="6.48021">
        <ele>550</ele>
        <time>2012-11-24T10:43:48Z</time>
      </trkpt>
      <trkpt lat="46.33715" lon="6.48018">
        <ele>550</ele>
        <time>2012-11-24T10:43:49Z</time>
      </trkpt>
      <trkpt lat="46.33717" lon="6.48014">
        <ele>550</ele>
        <time>2012-11-24T10:43:50Z</time>
      </trkpt>
      <trkpt lat="46.33718" lon="6.4801">
        <ele>549</ele>
        <time>2012-11-24T10:43:51Z</time>
      </trkpt>
      <trkpt lat="46.33722" lon="6.48006">
        <ele>549</ele>
        <time>2012-11-24T10:43:52Z</time>
      </trkpt>
      <trkpt lat="46.33723" lon="6.48003">
        <ele>549</ele>
        <time>2012-11-24T10:43:53Z</time>
      </trkpt>
      <trkpt lat="46.33724" lon="6.47999">
        <ele>549</ele>
        <time>2012-11-24T10:43:54Z</time>
      </trkpt>
      <trkpt lat="46.33725" lon="6.47995">
        <ele>549</ele>
        <time>2012-11-24T10:43:55Z</time>
      </trkpt>
      <trkpt lat="46.33725" lon="6.47991">
        <ele>549</ele>
        <time>2012-11-24T10:43:56Z</time>
      </trkpt>
      <trkpt lat="46.33727" lon="6.47988">
        <ele>549</ele>
        <time>2012-11-24T10:43:57Z</time>
      </trkpt>
      <trkpt lat="46.33728" lon="6.47984">
        <ele>549</ele>
        <time>2012-11-24T10:43:58Z</time>
      </trkpt>
      <trkpt lat="46.3373" lon="6.4798">
        <ele>549</ele>
        <time>2012-11-24T10:43:59Z</time>
      </trkpt>
      <trkpt lat="46.33731" lon="6.47975">
        <ele>549</ele>
        <time>2012-11-24T10:44:00Z</time>
      </trkpt>
      <trkpt lat="46.33732" lon="6.47971">
        <ele>549</ele>
        <time>2012-11-24T10:44:01Z</time>
      </trkpt>
      <trkpt lat="46.33734" lon="6.47967">
        <ele>549</ele>
        <time>2012-11-24T10:44:02Z</time>
      </trkpt>
      <trkpt lat="46.33735" lon="6.47965">
        <ele>549</ele>
        <time>2012-11-24T10:44:03Z</time>
      </trkpt>
      <trkpt lat="46.33737" lon="6.47961">
        <ele>549</ele>
        <time>2012-11-24T10:44:04Z</time>
      </trkpt>
      <trkpt lat="46.33738" lon="6.47958">
        <ele>549</ele>
        <time>2012-11-24T10:44:05Z</time>
      </trkpt>
      <trkpt lat="46.33739" lon="6.47954">
        <ele>549</ele>
        <time>2012-11-24T10:44:06Z</time>
      </trkpt>
      <trkpt lat="46.33741" lon="6.4795">
        <ele>549</ele>
        <time>2012-11-24T10:44:07Z</time>
      </trkpt>
      <trkpt lat="46.33742" lon="6.47947">
        <ele>549</ele>
        <time>2012-11-24T10:44:08Z</time>
      </trkpt>
      <trkpt lat="46.33744" lon="6.47943">
        <ele>549</ele>
        <time>2012-11-24T10:44:09Z</time>
      </trkpt>
      <trkpt lat="46.33746" lon="6.47939">
        <ele>549</ele>
        <time>2012-11-24T10:44:10Z</time>
      </trkpt>
      <trkpt lat="46.33747" lon="6.47935">
        <ele>549</ele>
        <time>2012-11-24T10:44:11Z</time>
      </trkpt>
      <trkpt lat="46.33749" lon="6.47932">
        <ele>549</ele>
        <time>2012-11-24T10:44:12Z</time>
      </trkpt>
      <trkpt lat="46.3375" lon="6.47928">
        <ele>549</ele>
        <time>2012-11-24T10:44:13Z</time>
      </trkpt>
      <trkpt lat="46.33752" lon="6.47924">
        <ele>549</ele>
        <time>2012-11-24T10:44:14Z</time>
      </trkpt>
      <trkpt lat="46.33753" lon="6.47921">
        <ele>549</ele>
        <time>2012-11-24T10:44:15Z</time>
      </trkpt>
      <trkpt lat="46.33754" lon="6.47917">
        <ele>549</ele>
        <time>2012-11-24T10:44:16Z</time>
      </trkpt>
      <trkpt lat="46.33754" lon="6.47914">
        <ele>549</ele>
        <time>2012-11-24T10:44:17Z</time>
      </trkpt>
      <trkpt lat="46.33755" lon="6.4791">
        <ele>549</ele>
        <time>2012-11-24T10:44:18Z</time>
      </trkpt>
      <trkpt lat="46.33754" lon="6.47906">
        <ele>549</ele>
        <time>2012-11-24T10:44:19Z</time>
      </trkpt>
      <trkpt lat="46.33753" lon="6.47903">
        <ele>549</ele>
        <time>2012-11-24T10:44:20Z</time>
      </trkpt>
      <trkpt lat="46.33752" lon="6.479">
        <ele>549</ele>
        <time>2012-11-24T10:44:21Z</time>
      </trkpt>
      <trkpt lat="46.3375" lon="6.47896">
        <ele>549</ele>
        <time>2012-11-24T10:44:22Z</time>
      </trkpt>
      <trkpt lat="46.33749" lon="6.47893">
        <ele>549</ele>
        <time>2012-11-24T10:44:23Z</time>
      </trkpt>
      <trkpt lat="46.33747" lon="6.47891">
        <ele>549</ele>
        <time>2012-11-24T10:44:24Z</time>
      </trkpt>
      <trkpt lat="46.33745" lon="6.47888">
        <ele>549</ele>
        <time>2012-11-24T10:44:25Z</time>
      </trkpt>
      <trkpt lat="46.33743" lon="6.47885">
        <ele>549</ele>
        <time>2012-11-24T10:44:26Z</time>
      </trkpt>
      <trkpt lat="46.33741" lon="6.47883">
        <ele>549</ele>
        <time>2012-11-24T10:44:27Z</time>
      </trkpt>
      <trkpt lat="46.33739" lon="6.4788">
        <ele>549</ele>
        <time>2012-11-24T10:44:28Z</time>
      </trkpt>
      <trkpt lat="46.33737" lon="6.47878">
        <ele>549</ele>
        <time>2012-11-24T10:44:29Z</time>
      </trkpt>
      <trkpt lat="46.33735" lon="6.47875">
        <ele>549</ele>
        <time>2012-11-24T10:44:30Z</time>
      </trkpt>
      <trkpt lat="46.33733" lon="6.47873">
        <ele>549</ele>
        <time>2012-11-24T10:44:31Z</time>
      </trkpt>
      <trkpt lat="46.33731" lon="6.4787">
        <ele>549</ele>
        <time>2012-11-24T10:44:32Z</time>
      </trkpt>
      <trkpt lat="46.33729" lon="6.47868">
        <ele>549</ele>
        <time>2012-11-24T10:44:33Z</time>
      </trkpt>
      <trkpt lat="46.33726" lon="6.47865">
        <ele>549</ele>
        <time>2012-11-24T10:44:34Z</time>
      </trkpt>
      <trkpt lat="46.33724" lon="6.47862">
        <ele>549</ele>
        <time>2012-11-24T10:44:35Z</time>
      </trkpt>
      <trkpt lat="46.33722" lon="6.47859">
        <ele>549</ele>
        <time>2012-11-24T10:44:36Z</time>
      </trkpt>
      <trkpt lat="46.3372" lon="6.47856">
        <ele>549</ele>
        <time>2012-11-24T10:44:37Z</time>
      </trkpt>
      <trkpt lat="46.33718" lon="6.47853">
        <ele>549</ele>
        <time>2012-11-24T10:44:38Z</time>
      </trkpt>
      <trkpt lat="46.33717" lon="6.4785">
        <ele>549</ele>
        <time>2012-11-24T10:44:39Z</time>
      </trkpt>
      <trkpt lat="46.33715" lon="6.47847">
        <ele>549</ele>
        <time>2012-11-24T10:44:40Z</time>
      </trkpt>
      <trkpt lat="46.33713" lon="6.47844">
        <ele>549</ele>
        <time>2012-11-24T10:44:41Z</time>
      </trkpt>
      <trkpt lat="46.33712" lon="6.47841">
        <ele>549</ele>
        <time>2012-11-24T10:44:42Z</time>
      </trkpt>
      <trkpt lat="46.33711" lon="6.47838">
        <ele>549</ele>
        <time>2012-11-24T10:44:43Z</time>
      </trkpt>
      <trkpt lat="46.3371" lon="6.47835">
        <ele>549</ele>
        <time>2012-11-24T10:44:44Z</time>
      </trkpt>
      <trkpt lat="46.33709" lon="6.47832">
        <ele>549</ele>
        <time>2012-11-24T10:44:45Z</time>
      </trkpt>
      <trkpt lat="46.33709" lon="6.47829">
        <ele>549</ele>
        <time>2012-11-24T10:44:46Z</time>
      </trkpt>
      <trkpt lat="46.33707" lon="6.47826">
        <ele>549</ele>
        <time>2012-11-24T10:44:47Z</time>
      </trkpt>
      <trkpt lat="46.33706" lon="6.47825">
        <ele>549</ele>
        <time>2012-11-24T10:44:48Z</time>
      </trkpt>
      <trkpt lat="46.33704" lon="6.47824">
        <ele>549</ele>
        <time>2012-11-24T10:44:49Z</time>
      </trkpt>
      <trkpt lat="46.33702" lon="6.47824">
        <ele>549</ele>
        <time>2012-11-24T10:44:50Z</time>
      </trkpt>
      <trkpt lat="46.337" lon="6.47822">
        <ele>549</ele>
        <time>2012-11-24T10:44:51Z</time>
      </trkpt>
      <trkpt lat="46.33699" lon="6.47819">
        <ele>549</ele>
        <time>2012-11-24T10:44:52Z</time>
      </trkpt>
      <trkpt lat="46.33698" lon="6.47815">
        <ele>549</ele>
        <time>2012-11-24T10:44:53Z</time>
      </trkpt>
      <trkpt lat="46.33698" lon="6.4781">
        <ele>549</ele>
        <time>2012-11-24T10:44:54Z</time>
      </trkpt>
      <trkpt lat="46.33696" lon="6.47804">
        <ele>549</ele>
        <time>2012-11-24T10:44:55Z</time>
      </trkpt>
      <trkpt lat="46.33696" lon="6.47799">
        <ele>549</ele>
        <time>2012-11-24T10:44:56Z</time>
      </trkpt>
      <trkpt lat="46.33696" lon="6.47795">
        <ele>549</ele>
        <time>2012-11-24T10:44:57Z</time>
      </trkpt>
      <trkpt lat="46.33697" lon="6.47791">
        <ele>549</ele>
        <time>2012-11-24T10:44:58Z</time>
      </trkpt>
      <trkpt lat="46.33698" lon="6.47787">
        <ele>549</ele>
        <time>2012-11-24T10:44:59Z</time>
      </trkpt>
      <trkpt lat="46.337" lon="6.47784">
        <ele>549</ele>
        <time>2012-11-24T10:45:00Z</time>
      </trkpt>
      <trkpt lat="46.33702" lon="6.47781">
        <ele>549</ele>
        <time>2012-11-24T10:45:01Z</time>
      </trkpt>
      <trkpt lat="46.33703" lon="6.47778">
        <ele>549</ele>
        <time>2012-11-24T10:45:02Z</time>
      </trkpt>
      <trkpt lat="46.33705" lon="6.47775">
        <ele>549</ele>
        <time>2012-11-24T10:45:03Z</time>
      </trkpt>
      <trkpt lat="46.33707" lon="6.47772">
        <ele>549</ele>
        <time>2012-11-24T10:45:04Z</time>
      </trkpt>
      <trkpt lat="46.33709" lon="6.47769">
        <ele>549</ele>
        <time>2012-11-24T10:45:05Z</time>
      </trkpt>
      <trkpt lat="46.33712" lon="6.47767">
        <ele>549</ele>
        <time>2012-11-24T10:45:06Z</time>
      </trkpt>
      <trkpt lat="46.33713" lon="6.47764">
        <ele>549</ele>
        <time>2012-11-24T10:45:07Z</time>
      </trkpt>
      <trkpt lat="46.33713" lon="6.47761">
        <ele>549</ele>
        <time>2012-11-24T10:45:08Z</time>
      </trkpt>
      <trkpt lat="46.33712" lon="6.47758">
        <ele>549</ele>
        <time>2012-11-24T10:45:09Z</time>
      </trkpt>
      <trkpt lat="46.3371" lon="6.47756">
        <ele>549</ele>
        <time>2012-11-24T10:45:10Z</time>
      </trkpt>
      <trkpt lat="46.33707" lon="6.47754">
        <ele>549</ele>
        <time>2012-11-24T10:45:11Z</time>
      </trkpt>
      <trkpt lat="46.33705" lon="6.47753">
        <ele>549</ele>
        <time>2012-11-24T10:45:12Z</time>
      </trkpt>
      <trkpt lat="46.33703" lon="6.47752">
        <ele>549</ele>
        <time>2012-11-24T10:45:13Z</time>
      </trkpt>
      <trkpt lat="46.337" lon="6.4775">
        <ele>549</ele>
        <time>2012-11-24T10:45:14Z</time>
      </trkpt>
      <trkpt lat="46.33698" lon="6.47748">
        <ele>549</ele>
        <time>2012-11-24T10:45:15Z</time>
      </trkpt>
      <trkpt lat="46.33695" lon="6.47747">
        <ele>549</ele>
        <time>2012-11-24T10:45:16Z</time>
      </trkpt>
      <trkpt lat="46.33693" lon="6.47745">
        <ele>549</ele>
        <time>2012-11-24T10:45:17Z</time>
      </trkpt>
      <trkpt lat="46.3369" lon="6.47744">
        <ele>549</ele>
        <time>2012-11-24T10:45:18Z</time>
      </trkpt>
      <trkpt lat="46.33688" lon="6.47742">
        <ele>549</ele>
        <time>2012-11-24T10:45:19Z</time>
      </trkpt>
      <trkpt lat="46.33685" lon="6.4774">
        <ele>549</ele>
        <time>2012-11-24T10:45:20Z</time>
      </trkpt>
      <trkpt lat="46.33682" lon="6.47739">
        <ele>549</ele>
        <time>2012-11-24T10:45:21Z</time>
      </trkpt>
      <trkpt lat="46.3368" lon="6.47738">
        <ele>549</ele>
        <time>2012-11-24T10:45:22Z</time>
      </trkpt>
      <trkpt lat="46.33678" lon="6.47737">
        <ele>549</ele>
        <time>2012-11-24T10:45:23Z</time>
      </trkpt>
      <trkpt lat="46.33676" lon="6.47736">
        <ele>549</ele>
        <time>2012-11-24T10:45:24Z</time>
      </trkpt>
      <trkpt lat="46.33674" lon="6.47734">
        <ele>549</ele>
        <time>2012-11-24T10:45:25Z</time>
      </trkpt>
      <trkpt lat="46.33672" lon="6.47734">
        <ele>549</ele>
        <time>2012-11-24T10:45:26Z</time>
      </trkpt>
      <trkpt lat="46.33669" lon="6.47732">
        <ele>549</ele>
        <time>2012-11-24T10:45:27Z</time>
      </trkpt>
      <trkpt lat="46.33667" lon="6.47731">
        <ele>549</ele>
        <time>2012-11-24T10:45:28Z</time>
      </trkpt>
      <trkpt lat="46.33664" lon="6.4773">
        <ele>549</ele>
        <time>2012-11-24T10:45:29Z</time>
      </trkpt>
      <trkpt lat="46.33662" lon="6.47729">
        <ele>549</ele>
        <time>2012-11-24T10:45:30Z</time>
      </trkpt>
      <trkpt lat="46.33659" lon="6.47728">
        <ele>549</ele>
        <time>2012-11-24T10:45:31Z</time>
      </trkpt>
      <trkpt lat="46.33656" lon="6.47727">
        <ele>549</ele>
        <time>2012-11-24T10:45:32Z</time>
      </trkpt>
      <trkpt lat="46.33654" lon="6.47725">
        <ele>549</ele>
        <time>2012-11-24T10:45:33Z</time>
      </trkpt>
      <trkpt lat="46.33651" lon="6.47724">
        <ele>549</ele>
        <time>2012-11-24T10:45:34Z</time>
      </trkpt>
      <trkpt lat="46.33649" lon="6.47722">
        <ele>549</ele>
        <time>2012-11-24T10:45:35Z</time>
      </trkpt>
      <trkpt lat="46.33646" lon="6.47721">
        <ele>549</ele>
        <time>2012-11-24T10:45:36Z</time>
      </trkpt>
      <trkpt lat="46.33643" lon="6.47719">
        <ele>549</ele>
        <time>2012-11-24T10:45:37Z</time>
      </trkpt>
      <trkpt lat="46.33641" lon="6.47718">
        <ele>549</ele>
        <time>2012-11-24T10:45:38Z</time>
      </trkpt>
      <trkpt lat="46.33638" lon="6.47717">
        <ele>549</ele>
        <time>2012-11-24T10:45:39Z</time>
      </trkpt>
      <trkpt lat="46.33636" lon="6.47716">
        <ele>549</ele>
        <time>2012-11-24T10:45:40Z</time>
      </trkpt>
      <trkpt lat="46.33633" lon="6.47715">
        <ele>549</ele>
        <time>2012-11-24T10:45:41Z</time>
      </trkpt>
      <trkpt lat="46.3363" lon="6.47713">
        <ele>549</ele>
        <time>2012-11-24T10:45:42Z</time>
      </trkpt>
      <trkpt lat="46.33628" lon="6.47712">
        <ele>549</ele>
        <time>2012-11-24T10:45:43Z</time>
      </trkpt>
      <trkpt lat="46.33626" lon="6.47711">
        <ele>549</ele>
        <time>2012-11-24T10:45:44Z</time>
      </trkpt>
      <trkpt lat="46.33623" lon="6.4771">
        <ele>549</ele>
        <time>2012-11-24T10:45:45Z</time>
      </trkpt>
      <trkpt lat="46.3362" lon="6.47707">
        <ele>549</ele>
        <time>2012-11-24T10:45:46Z</time>
      </trkpt>
      <trkpt lat="46.33617" lon="6.47704">
        <ele>549</ele>
        <time>2012-11-24T10:45:47Z</time>
      </trkpt>
      <trkpt lat="46.33614" lon="6.47702">
        <ele>549</ele>
        <time>2012-11-24T10:45:48Z</time>
      </trkpt>
      <trkpt lat="46.33612" lon="6.477">
        <ele>549</ele>
        <time>2012-11-24T10:45:49Z</time>
      </trkpt>
      <trkpt lat="46.3361" lon="6.47699">
        <ele>549</ele>
        <time>2012-11-24T10:45:50Z</time>
      </trkpt>
      <trkpt lat="46.33608" lon="6.47698">
        <ele>549</ele>
        <time>2012-11-24T10:45:51Z</time>
      </trkpt>
      <trkpt lat="46.33605" lon="6.47697">
        <ele>549</ele>
        <time>2012-11-24T10:45:52Z</time>
      </trkpt>
      <trkpt lat="46.33603" lon="6.47696">
        <ele>549</ele>
        <time>2012-11-24T10:45:53Z</time>
      </trkpt>
      <trkpt lat="46.33601" lon="6.47694">
        <ele>549</ele>
        <time>2012-11-24T10:45:54Z</time>
      </trkpt>
      <trkpt lat="46.33599" lon="6.47693">
        <ele>549</ele>
        <time>2012-11-24T10:45:55Z</time>
      </trkpt>
      <trkpt lat="46.33597" lon="6.47692">
        <ele>549</ele>
        <time>2012-11-24T10:45:56Z</time>
      </trkpt>
      <trkpt lat="46.33594" lon="6.4769">
        <ele>549</ele>
        <time>2012-11-24T10:45:57Z</time>
      </trkpt>
      <trkpt lat="46.33591" lon="6.47689">
        <ele>549</ele>
        <time>2012-11-24T10:45:58Z</time>
      </trkpt>
      <trkpt lat="46.33589" lon="6.47688">
        <ele>549</ele>
        <time>2012-11-24T10:45:59Z</time>
      </trkpt>
      <trkpt lat="46.33586" lon="6.47687">
        <ele>549</ele>
        <time>2012-11-24T10:46:00Z</time>
      </trkpt>
      <trkpt lat="46.33583" lon="6.47686">
        <ele>549</ele>
        <time>2012-11-24T10:46:01Z</time>
      </trkpt>
      <trkpt lat="46.33581" lon="6.47687">
        <ele>549</ele>
        <time>2012-11-24T10:46:02Z</time>
      </trkpt>
      <trkpt lat="46.33579" lon="6.47688">
        <ele>548</ele>
        <time>2012-11-24T10:46:03Z</time>
      </trkpt>
      <trkpt lat="46.33577" lon="6.47688">
        <ele>548</ele>
        <time>2012-11-24T10:46:04Z</time>
      </trkpt>
      <trkpt lat="46.33575" lon="6.47689">
        <ele>548</ele>
        <time>2012-11-24T10:46:05Z</time>
      </trkpt>
      <trkpt lat="46.33573" lon="6.47689">
        <ele>548</ele>
        <time>2012-11-24T10:46:06Z</time>
      </trkpt>
      <trkpt lat="46.33571" lon="6.47689">
        <ele>547</ele>
        <time>2012-11-24T10:46:07Z</time>
      </trkpt>
      <trkpt lat="46.33569" lon="6.47688">
        <ele>547</ele>
        <time>2012-11-24T10:46:08Z</time>
      </trkpt>
      <trkpt lat="46.33567" lon="6.47687">
        <ele>547</ele>
        <time>2012-11-24T10:46:09Z</time>
      </trkpt>
      <trkpt lat="46.33565" lon="6.47687">
        <ele>547</ele>
        <time>2012-11-24T10:46:10Z</time>
      </trkpt>
      <trkpt lat="46.33563" lon="6.47685">
        <ele>547</ele>
        <time>2012-11-24T10:46:11Z</time>
      </trkpt>
      <trkpt lat="46.33561" lon="6.47686">
        <ele>546</ele>
        <time>2012-11-24T10:46:12Z</time>
      </trkpt>
      <trkpt lat="46.33558" lon="6.47685">
        <ele>546</ele>
        <time>2012-11-24T10:46:13Z</time>
      </trkpt>
      <trkpt lat="46.33555" lon="6.47684">
        <ele>546</ele>
        <time>2012-11-24T10:46:14Z</time>
      </trkpt>
      <trkpt lat="46.33553" lon="6.47683">
        <ele>545</ele>
        <time>2012-11-24T10:46:15Z</time>
      </trkpt>
      <trkpt lat="46.3355" lon="6.47682">
        <ele>545</ele>
        <time>2012-11-24T10:46:16Z</time>
      </trkpt>
      <trkpt lat="46.33547" lon="6.4768">
        <ele>545</ele>
        <time>2012-11-24T10:46:17Z</time>
      </trkpt>
      <trkpt lat="46.33545" lon="6.4768">
        <ele>544</ele>
        <time>2012-11-24T10:46:18Z</time>
      </trkpt>
      <trkpt lat="46.33542" lon="6.47678">
        <ele>543</ele>
        <time>2012-11-24T10:46:19Z</time>
      </trkpt>
      <trkpt lat="46.3354" lon="6.47676">
        <ele>543</ele>
        <time>2012-11-24T10:46:20Z</time>
      </trkpt>
      <trkpt lat="46.33538" lon="6.47676">
        <ele>542</ele>
        <time>2012-11-24T10:46:21Z</time>
      </trkpt>
      <trkpt lat="46.33537" lon="6.47675">
        <ele>542</ele>
        <time>2012-11-24T10:46:22Z</time>
      </trkpt>
      <trkpt lat="46.33536" lon="6.47675">
        <ele>541</ele>
        <time>2012-11-24T10:46:23Z</time>
      </trkpt>
      <trkpt lat="46.33534" lon="6.47674">
        <ele>541</ele>
        <time>2012-11-24T10:46:24Z</time>
      </trkpt>
      <trkpt lat="46.33533" lon="6.47672">
        <ele>541</ele>
        <time>2012-11-24T10:46:25Z</time>
      </trkpt>
      <trkpt lat="46.33532" lon="6.47669">
        <ele>541</ele>
        <time>2012-11-24T10:46:26Z</time>
      </trkpt>
      <trkpt lat="46.33532" lon="6.47667">
        <ele>540</ele>
        <time>2012-11-24T10:46:27Z</time>
      </trkpt>
      <trkpt lat="46.33531" lon="6.47664">
        <ele>540</ele>
        <time>2012-11-24T10:46:28Z</time>
      </trkpt>
      <trkpt lat="46.3353" lon="6.4766">
        <ele>540</ele>
        <time>2012-11-24T10:46:29Z</time>
      </trkpt>
      <trkpt lat="46.3353" lon="6.47657">
        <ele>540</ele>
        <time>2012-11-24T10:46:30Z</time>
      </trkpt>
      <trkpt lat="46.3353" lon="6.47653">
        <ele>540</ele>
        <time>2012-11-24T10:46:31Z</time>
      </trkpt>
      <trkpt lat="46.33529" lon="6.4765">
        <ele>540</ele>
        <time>2012-11-24T10:46:32Z</time>
      </trkpt>
      <trkpt lat="46.33529" lon="6.47647">
        <ele>539</ele>
        <time>2012-11-24T10:46:33Z</time>
      </trkpt>
      <trkpt lat="46.33529" lon="6.47644">
        <ele>539</ele>
        <time>2012-11-24T10:46:34Z</time>
      </trkpt>
      <trkpt lat="46.33529" lon="6.4764">
        <ele>538</ele>
        <time>2012-11-24T10:46:35Z</time>
      </trkpt>
      <trkpt lat="46.33529" lon="6.47636">
        <ele>538</ele>
        <time>2012-11-24T10:46:36Z</time>
      </trkpt>
      <trkpt lat="46.33528" lon="6.47632">
        <ele>537</ele>
        <time>2012-11-24T10:46:37Z</time>
      </trkpt>
      <trkpt lat="46.33529" lon="6.47628">
        <ele>537</ele>
        <time>2012-11-24T10:46:38Z</time>
      </trkpt>
      <trkpt lat="46.33529" lon="6.47625">
        <ele>537</ele>
        <time>2012-11-24T10:46:39Z</time>
      </trkpt>
      <trkpt lat="46.33529" lon="6.47621">
        <ele>537</ele>
        <time>2012-11-24T10:46:40Z</time>
      </trkpt>
      <trkpt lat="46.33529" lon="6.47617">
        <ele>537</ele>
        <time>2012-11-24T10:46:41Z</time>
      </trkpt>
      <trkpt lat="46.33528" lon="6.47612">
        <ele>537</ele>
        <time>2012-11-24T10:46:42Z</time>
      </trkpt>
      <trkpt lat="46.33528" lon="6.47608">
        <ele>536</ele>
        <time>2012-11-24T10:46:43Z</time>
      </trkpt>
      <trkpt lat="46.33528" lon="6.47604">
        <ele>536</ele>
        <time>2012-11-24T10:46:44Z</time>
      </trkpt>
      <trkpt lat="46.33527" lon="6.476">
        <ele>536</ele>
        <time>2012-11-24T10:46:45Z</time>
      </trkpt>
      <trkpt lat="46.33527" lon="6.47597">
        <ele>536</ele>
        <time>2012-11-24T10:46:46Z</time>
      </trkpt>
      <trkpt lat="46.33527" lon="6.47593">
        <ele>536</ele>
        <time>2012-11-24T10:46:47Z</time>
      </trkpt>
      <trkpt lat="46.33527" lon="6.47589">
        <ele>536</ele>
        <time>2012-11-24T10:46:48Z</time>
      </trkpt>
      <trkpt lat="46.33528" lon="6.47586">
        <ele>536</ele>
        <time>2012-11-24T10:46:49Z</time>
      </trkpt>
      <trkpt lat="46.33528" lon="6.47582">
        <ele>536</ele>
        <time>2012-11-24T10:46:50Z</time>
      </trkpt>
      <trkpt lat="46.33528" lon="6.47579">
        <ele>536</ele>
        <time>2012-11-24T10:46:51Z</time>
      </trkpt>
      <trkpt lat="46.33528" lon="6.47575">
        <ele>535</ele>
        <time>2012-11-24T10:46:52Z</time>
      </trkpt>
      <trkpt lat="46.33528" lon="6.47571">
        <ele>535</ele>
        <time>2012-11-24T10:46:53Z</time>
      </trkpt>
      <trkpt lat="46.33528" lon="6.47567">
        <ele>535</ele>
        <time>2012-11-24T10:46:54Z</time>
      </trkpt>
      <trkpt lat="46.33528" lon="6.47563">
        <ele>535</ele>
        <time>2012-11-24T10:46:55Z</time>
      </trkpt>
      <trkpt lat="46.33529" lon="6.47559">
        <ele>535</ele>
        <time>2012-11-24T10:46:56Z</time>
      </trkpt>
      <trkpt lat="46.3353" lon="6.47557">
        <ele>535</ele>
        <time>2012-11-24T10:46:57Z</time>
      </trkpt>
      <trkpt lat="46.3353" lon="6.47553">
        <ele>535</ele>
        <time>2012-11-24T10:46:58Z</time>
      </trkpt>
      <trkpt lat="46.33531" lon="6.4755">
        <ele>535</ele>
        <time>2012-11-24T10:46:59Z</time>
      </trkpt>
      <trkpt lat="46.33532" lon="6.47547">
        <ele>535</ele>
        <time>2012-11-24T10:47:00Z</time>
      </trkpt>
      <trkpt lat="46.33532" lon="6.47544">
        <ele>535</ele>
        <time>2012-11-24T10:47:01Z</time>
      </trkpt>
      <trkpt lat="46.33533" lon="6.47541">
        <ele>535</ele>
        <time>2012-11-24T10:47:02Z</time>
      </trkpt>
      <trkpt lat="46.33533" lon="6.47538">
        <ele>535</ele>
        <time>2012-11-24T10:47:03Z</time>
      </trkpt>
      <trkpt lat="46.33534" lon="6.47534">
        <ele>535</ele>
        <time>2012-11-24T10:47:04Z</time>
      </trkpt>
      <trkpt lat="46.33535" lon="6.4753">
        <ele>535</ele>
        <time>2012-11-24T10:47:05Z</time>
      </trkpt>
      <trkpt lat="46.33536" lon="6.47527">
        <ele>535</ele>
        <time>2012-11-24T10:47:06Z</time>
      </trkpt>
      <trkpt lat="46.33537" lon="6.47524">
        <ele>535</ele>
        <time>2012-11-24T10:47:07Z</time>
      </trkpt>
      <trkpt lat="46.33538" lon="6.47521">
        <ele>535</ele>
        <time>2012-11-24T10:47:08Z</time>
      </trkpt>
      <trkpt lat="46.33538" lon="6.47518">
        <ele>535</ele>
        <time>2012-11-24T10:47:09Z</time>
      </trkpt>
      <trkpt lat="46.33539" lon="6.47514">
        <ele>535</ele>
        <time>2012-11-24T10:47:10Z</time>
      </trkpt>
      <trkpt lat="46.3354" lon="6.47511">
        <ele>535</ele>
        <time>2012-11-24T10:47:11Z</time>
      </trkpt>
      <trkpt lat="46.33542" lon="6.47509">
        <ele>535</ele>
        <time>2012-11-24T10:47:12Z</time>
      </trkpt>
      <trkpt lat="46.33543" lon="6.47506">
        <ele>535</ele>
        <time>2012-11-24T10:47:13Z</time>
      </trkpt>
      <trkpt lat="46.33544" lon="6.47503">
        <ele>535</ele>
        <time>2012-11-24T10:47:14Z</time>
      </trkpt>
      <trkpt lat="46.33545" lon="6.475">
        <ele>535</ele>
        <time>2012-11-24T10:47:15Z</time>
      </trkpt>
      <trkpt lat="46.33546" lon="6.47498">
        <ele>535</ele>
        <time>2012-11-24T10:47:16Z</time>
      </trkpt>
      <trkpt lat="46.33547" lon="6.47495">
        <ele>535</ele>
        <time>2012-11-24T10:47:17Z</time>
      </trkpt>
      <trkpt lat="46.33547" lon="6.47493">
        <ele>535</ele>
        <time>2012-11-24T10:47:18Z</time>
      </trkpt>
      <trkpt lat="46.33546" lon="6.47492">
        <ele>535</ele>
        <time>2012-11-24T10:47:19Z</time>
      </trkpt>
      <trkpt lat="46.33545" lon="6.4749">
        <ele>535</ele>
        <time>2012-11-24T10:47:20Z</time>
      </trkpt>
      <trkpt lat="46.33543" lon="6.47489">
        <ele>535</ele>
        <time>2012-11-24T10:47:21Z</time>
      </trkpt>
      <trkpt lat="46.33543" lon="6.47487">
        <ele>535</ele>
        <time>2012-11-24T10:47:22Z</time>
      </trkpt>
      <trkpt lat="46.33542" lon="6.47486">
        <ele>535</ele>
        <time>2012-11-24T10:47:23Z</time>
      </trkpt>
      <trkpt lat="46.33542" lon="6.47484">
        <ele>535</ele>
        <time>2012-11-24T10:47:24Z</time>
      </trkpt>
      <trkpt lat="46.33541" lon="6.47481">
        <ele>535</ele>
        <time>2012-11-24T10:47:25Z</time>
      </trkpt>
      <trkpt lat="46.3354" lon="6.47479">
        <ele>535</ele>
        <time>2012-11-24T10:47:26Z</time>
      </trkpt>
      <trkpt lat="46.33541" lon="6.47477">
        <ele>535</ele>
        <time>2012-11-24T10:47:27Z</time>
      </trkpt>
      <trkpt lat="46.33542" lon="6.47475">
        <ele>535</ele>
        <time>2012-11-24T10:47:28Z</time>
      </trkpt>
      <trkpt lat="46.33541" lon="6.47473">
        <ele>535</ele>
        <time>2012-11-24T10:47:29Z</time>
      </trkpt>
      <trkpt lat="46.33543" lon="6.47473">
        <ele>535</ele>
        <time>2012-11-24T10:47:30Z</time>
      </trkpt>
      <trkpt lat="46.33543" lon="6.47471">
        <ele>535</ele>
        <time>2012-11-24T10:47:31Z</time>
      </trkpt>
      <trkpt lat="46.33545" lon="6.47467">
        <ele>536</ele>
        <time>2012-11-24T10:47:33Z</time>
      </trkpt>
      <trkpt lat="46.33545" lon="6.47463">
        <ele>536</ele>
        <time>2012-11-24T10:47:34Z</time>
      </trkpt>
      <trkpt lat="46.33545" lon="6.4746">
        <ele>537</ele>
        <time>2012-11-24T10:47:35Z</time>
      </trkpt>
      <trkpt lat="46.33546" lon="6.47458">
        <ele>537</ele>
        <time>2012-11-24T10:47:36Z</time>
      </trkpt>
      <trkpt lat="46.33546" lon="6.47456">
        <ele>537</ele>
        <time>2012-11-24T10:47:37Z</time>
      </trkpt>
      <trkpt lat="46.33546" lon="6.47454">
        <ele>537</ele>
        <time>2012-11-24T10:47:38Z</time>
      </trkpt>
      <trkpt lat="46.33547" lon="6.47452">
        <ele>538</ele>
        <time>2012-11-24T10:47:39Z</time>
      </trkpt>
      <trkpt lat="46.33547" lon="6.47449">
        <ele>538</ele>
        <time>2012-11-24T10:47:40Z</time>
      </trkpt>
      <trkpt lat="46.33546" lon="6.47447">
        <ele>538</ele>
        <time>2012-11-24T10:47:41Z</time>
      </trkpt>
      <trkpt lat="46.33545" lon="6.47446">
        <ele>539</ele>
        <time>2012-11-24T10:47:43Z</time>
      </trkpt>
      <trkpt lat="46.33542" lon="6.47444">
        <ele>540</ele>
        <time>2012-11-24T10:47:44Z</time>
      </trkpt>
      <trkpt lat="46.33541" lon="6.47445">
        <ele>540</ele>
        <time>2012-11-24T10:47:45Z</time>
      </trkpt>
      <trkpt lat="46.3354" lon="6.47446">
        <ele>541</ele>
        <time>2012-11-24T10:47:46Z</time>
      </trkpt>
      <trkpt lat="46.33538" lon="6.47448">
        <ele>541</ele>
        <time>2012-11-24T10:47:47Z</time>
      </trkpt>
      <trkpt lat="46.33537" lon="6.4745">
        <ele>542</ele>
        <time>2012-11-24T10:47:48Z</time>
      </trkpt>
      <trkpt lat="46.33536" lon="6.47451">
        <ele>542</ele>
        <time>2012-11-24T10:47:49Z</time>
      </trkpt>
      <trkpt lat="46.33535" lon="6.47453">
        <ele>542</ele>
        <time>2012-11-24T10:47:50Z</time>
      </trkpt>
      <trkpt lat="46.33534" lon="6.47455">
        <ele>542</ele>
        <time>2012-11-24T10:47:51Z</time>
      </trkpt>
      <trkpt lat="46.33532" lon="6.47456">
        <ele>542</ele>
        <time>2012-11-24T10:47:52Z</time>
      </trkpt>
      <trkpt lat="46.33531" lon="6.47458">
        <ele>542</ele>
        <time>2012-11-24T10:47:53Z</time>
      </trkpt>
      <trkpt lat="46.3353" lon="6.4746">
        <ele>542</ele>
        <time>2012-11-24T10:47:54Z</time>
      </trkpt>
      <trkpt lat="46.3353" lon="6.47462">
        <ele>542</ele>
        <time>2012-11-24T10:47:55Z</time>
      </trkpt>
      <trkpt lat="46.33529" lon="6.47464">
        <ele>542</ele>
        <time>2012-11-24T10:47:56Z</time>
      </trkpt>
      <trkpt lat="46.33527" lon="6.47465">
        <ele>542</ele>
        <time>2012-11-24T10:47:57Z</time>
      </trkpt>
      <trkpt lat="46.33526" lon="6.47466">
        <ele>542</ele>
        <time>2012-11-24T10:47:58Z</time>
      </trkpt>
      <trkpt lat="46.33524" lon="6.47467">
        <ele>542</ele>
        <time>2012-11-24T10:47:59Z</time>
      </trkpt>
      <trkpt lat="46.33522" lon="6.47468">
        <ele>542</ele>
        <time>2012-11-24T10:48:00Z</time>
      </trkpt>
      <trkpt lat="46.33521" lon="6.47468">
        <ele>542</ele>
        <time>2012-11-24T10:48:01Z</time>
      </trkpt>
      <trkpt lat="46.3352" lon="6.47471">
        <ele>541</ele>
        <time>2012-11-24T10:48:02Z</time>
      </trkpt>
      <trkpt lat="46.33518" lon="6.47472">
        <ele>540</ele>
        <time>2012-11-24T10:48:03Z</time>
      </trkpt>
      <trkpt lat="46.33516" lon="6.47472">
        <ele>538</ele>
        <time>2012-11-24T10:48:05Z</time>
      </trkpt>
      <trkpt lat="46.33514" lon="6.47472">
        <ele>537</ele>
        <time>2012-11-24T10:48:06Z</time>
      </trkpt>
      <trkpt lat="46.33512" lon="6.47472">
        <ele>536</ele>
        <time>2012-11-24T10:48:07Z</time>
      </trkpt>
      <trkpt lat="46.33511" lon="6.47473">
        <ele>535</ele>
        <time>2012-11-24T10:48:08Z</time>
      </trkpt>
      <trkpt lat="46.33509" lon="6.47472">
        <ele>535</ele>
        <time>2012-11-24T10:48:12Z</time>
      </trkpt>
      <trkpt lat="46.33509" lon="6.4747">
        <ele>535</ele>
        <time>2012-11-24T10:48:13Z</time>
      </trkpt>
      <trkpt lat="46.33508" lon="6.47468">
        <ele>535</ele>
        <time>2012-11-24T10:48:15Z</time>
      </trkpt>
      <trkpt lat="46.33509" lon="6.47466">
        <ele>535</ele>
        <time>2012-11-24T10:48:16Z</time>
      </trkpt>
      <trkpt lat="46.33509" lon="6.47464">
        <ele>537</ele>
        <time>2012-11-24T10:48:18Z</time>
      </trkpt>
      <trkpt lat="46.33508" lon="6.47461">
        <ele>538</ele>
        <time>2012-11-24T10:48:19Z</time>
      </trkpt>
      <trkpt lat="46.33508" lon="6.47459">
        <ele>539</ele>
        <time>2012-11-24T10:48:20Z</time>
      </trkpt>
      <trkpt lat="46.33508" lon="6.47456">
        <ele>541</ele>
        <time>2012-11-24T10:48:21Z</time>
      </trkpt>
      <trkpt lat="46.33508" lon="6.47454">
        <ele>542</ele>
        <time>2012-11-24T10:48:22Z</time>
      </trkpt>
      <trkpt lat="46.33508" lon="6.47451">
        <ele>543</ele>
        <time>2012-11-24T10:48:23Z</time>
      </trkpt>
      <trkpt lat="46.33509" lon="6.47449">
        <ele>544</ele>
        <time>2012-11-24T10:48:24Z</time>
      </trkpt>
      <trkpt lat="46.3351" lon="6.47447">
        <ele>545</ele>
        <time>2012-11-24T10:48:25Z</time>
      </trkpt>
      <trkpt lat="46.33511" lon="6.47445">
        <ele>546</ele>
        <time>2012-11-24T10:48:26Z</time>
      </trkpt>
      <trkpt lat="46.33512" lon="6.47442">
        <ele>548</ele>
        <time>2012-11-24T10:48:28Z</time>
      </trkpt>
      <trkpt lat="46.33513" lon="6.47439">
        <ele>549</ele>
        <time>2012-11-24T10:48:29Z</time>
      </trkpt>
      <trkpt lat="46.33515" lon="6.47437">
        <ele>550</ele>
        <time>2012-11-24T10:48:30Z</time>
      </trkpt>
      <trkpt lat="46.33518" lon="6.47434">
        <ele>551</ele>
        <time>2012-11-24T10:48:31Z</time>
      </trkpt>
      <trkpt lat="46.33519" lon="6.47431">
        <ele>552</ele>
        <time>2012-11-24T10:48:32Z</time>
      </trkpt>
      <trkpt lat="46.33519" lon="6.47428">
        <ele>553</ele>
        <time>2012-11-24T10:48:33Z</time>
      </trkpt>
      <trkpt lat="46.33521" lon="6.47426">
        <ele>554</ele>
        <time>2012-11-24T10:48:34Z</time>
      </trkpt>
      <trkpt lat="46.33521" lon="6.47424">
        <ele>555</ele>
        <time>2012-11-24T10:48:35Z</time>
      </trkpt>
      <trkpt lat="46.33522" lon="6.47422">
        <ele>556</ele>
        <time>2012-11-24T10:48:36Z</time>
      </trkpt>
      <trkpt lat="46.33522" lon="6.47419">
        <ele>557</ele>
        <time>2012-11-24T10:48:37Z</time>
      </trkpt>
      <trkpt lat="46.33524" lon="6.47416">
        <ele>558</ele>
        <time>2012-11-24T10:48:38Z</time>
      </trkpt>
      <trkpt lat="46.33525" lon="6.47414">
        <ele>559</ele>
        <time>2012-11-24T10:48:39Z</time>
      </trkpt>
      <trkpt lat="46.33526" lon="6.47413">
        <ele>560</ele>
        <time>2012-11-24T10:48:40Z</time>
      </trkpt>
      <trkpt lat="46.33526" lon="6.47411">
        <ele>561</ele>
        <time>2012-11-24T10:48:41Z</time>
      </trkpt>
      <trkpt lat="46.33527" lon="6.47409">
        <ele>561</ele>
        <time>2012-11-24T10:48:42Z</time>
      </trkpt>
      <trkpt lat="46.33527" lon="6.47407">
        <ele>561</ele>
        <time>2012-11-24T10:48:43Z</time>
      </trkpt>
      <trkpt lat="46.33529" lon="6.47405">
        <ele>562</ele>
        <time>2012-11-24T10:48:44Z</time>
      </trkpt>
      <trkpt lat="46.3353" lon="6.47404">
        <ele>562</ele>
        <time>2012-11-24T10:48:45Z</time>
      </trkpt>
      <trkpt lat="46.33531" lon="6.47401">
        <ele>563</ele>
        <time>2012-11-24T10:48:46Z</time>
      </trkpt>
      <trkpt lat="46.33532" lon="6.47399">
        <ele>564</ele>
        <time>2012-11-24T10:48:47Z</time>
      </trkpt>
      <trkpt lat="46.33534" lon="6.47398">
        <ele>565</ele>
        <time>2012-11-24T10:48:48Z</time>
      </trkpt>
      <trkpt lat="46.33536" lon="6.47396">
        <ele>566</ele>
        <time>2012-11-24T10:48:49Z</time>
      </trkpt>
      <trkpt lat="46.33537" lon="6.47394">
        <ele>567</ele>
        <time>2012-11-24T10:48:50Z</time>
      </trkpt>
      <trkpt lat="46.33538" lon="6.47391">
        <ele>568</ele>
        <time>2012-11-24T10:48:51Z</time>
      </trkpt>
      <trkpt lat="46.33538" lon="6.47389">
        <ele>568</ele>
        <time>2012-11-24T10:48:52Z</time>
      </trkpt>
      <trkpt lat="46.33539" lon="6.47387">
        <ele>568</ele>
        <time>2012-11-24T10:48:53Z</time>
      </trkpt>
      <trkpt lat="46.33538" lon="6.47383">
        <ele>569</ele>
        <time>2012-11-24T10:48:54Z</time>
      </trkpt>
      <trkpt lat="46.33538" lon="6.4738">
        <ele>569</ele>
        <time>2012-11-24T10:48:55Z</time>
      </trkpt>
      <trkpt lat="46.33539" lon="6.47378">
        <ele>569</ele>
        <time>2012-11-24T10:48:56Z</time>
      </trkpt>
      <trkpt lat="46.3354" lon="6.47375">
        <ele>569</ele>
        <time>2012-11-24T10:48:57Z</time>
      </trkpt>
      <trkpt lat="46.3354" lon="6.47373">
        <ele>569</ele>
        <time>2012-11-24T10:48:58Z</time>
      </trkpt>
      <trkpt lat="46.33541" lon="6.47371">
        <ele>569</ele>
        <time>2012-11-24T10:48:59Z</time>
      </trkpt>
      <trkpt lat="46.33541" lon="6.47369">
        <ele>569</ele>
        <time>2012-11-24T10:49:00Z</time>
      </trkpt>
      <trkpt lat="46.33541" lon="6.47365">
        <ele>569</ele>
        <time>2012-11-24T10:49:02Z</time>
      </trkpt>
      <trkpt lat="46.33541" lon="6.47363">
        <ele>569</ele>
        <time>2012-11-24T10:49:03Z</time>
      </trkpt>
      <trkpt lat="46.3354" lon="6.4736">
        <ele>569</ele>
        <time>2012-11-24T10:49:04Z</time>
      </trkpt>
      <trkpt lat="46.33537" lon="6.47359">
        <ele>569</ele>
        <time>2012-11-24T10:49:06Z</time>
      </trkpt>
      <trkpt lat="46.33535" lon="6.47359">
        <ele>569</ele>
        <time>2012-11-24T10:49:07Z</time>
      </trkpt>
      <trkpt lat="46.33534" lon="6.47359">
        <ele>569</ele>
        <time>2012-11-24T10:49:08Z</time>
      </trkpt>
      <trkpt lat="46.33532" lon="6.4736">
        <ele>569</ele>
        <time>2012-11-24T10:49:09Z</time>
      </trkpt>
      <trkpt lat="46.3353" lon="6.47361">
        <ele>569</ele>
        <time>2012-11-24T10:49:10Z</time>
      </trkpt>
      <trkpt lat="46.33527" lon="6.47361">
        <ele>569</ele>
        <time>2012-11-24T10:49:11Z</time>
      </trkpt>
      <trkpt lat="46.33525" lon="6.4736">
        <ele>569</ele>
        <time>2012-11-24T10:49:12Z</time>
      </trkpt>
      <trkpt lat="46.33524" lon="6.4736">
        <ele>569</ele>
        <time>2012-11-24T10:49:14Z</time>
      </trkpt>
      <trkpt lat="46.33522" lon="6.47359">
        <ele>569</ele>
        <time>2012-11-24T10:49:16Z</time>
      </trkpt>
      <trkpt lat="46.33519" lon="6.4736">
        <ele>569</ele>
        <time>2012-11-24T10:49:17Z</time>
      </trkpt>
      <trkpt lat="46.33517" lon="6.47361">
        <ele>569</ele>
        <time>2012-11-24T10:49:18Z</time>
      </trkpt>
      <trkpt lat="46.33516" lon="6.47361">
        <ele>569</ele>
        <time>2012-11-24T10:49:19Z</time>
      </trkpt>
      <trkpt lat="46.33514" lon="6.47361">
        <ele>569</ele>
        <time>2012-11-24T10:49:20Z</time>
      </trkpt>
      <trkpt lat="46.33513" lon="6.47358">
        <ele>569</ele>
        <time>2012-11-24T10:49:22Z</time>
      </trkpt>
      <trkpt lat="46.33512" lon="6.47354">
        <ele>569</ele>
        <time>2012-11-24T10:49:23Z</time>
      </trkpt>
      <trkpt lat="46.33512" lon="6.47351">
        <ele>569</ele>
        <time>2012-11-24T10:49:24Z</time>
      </trkpt>
      <trkpt lat="46.33511" lon="6.47347">
        <ele>569</ele>
        <time>2012-11-24T10:49:25Z</time>
      </trkpt>
      <trkpt lat="46.3351" lon="6.47345">
        <ele>569</ele>
        <time>2012-11-24T10:49:26Z</time>
      </trkpt>
      <trkpt lat="46.33511" lon="6.47343">
        <ele>569</ele>
        <time>2012-11-24T10:49:27Z</time>
      </trkpt>
      <trkpt lat="46.33511" lon="6.47341">
        <ele>569</ele>
        <time>2012-11-24T10:49:28Z</time>
      </trkpt>
      <trkpt lat="46.33511" lon="6.4734">
        <ele>570</ele>
        <time>2012-11-24T10:49:29Z</time>
      </trkpt>
      <trkpt lat="46.33511" lon="6.47337">
        <ele>571</ele>
        <time>2012-11-24T10:49:30Z</time>
      </trkpt>
      <trkpt lat="46.33511" lon="6.47334">
        <ele>571</ele>
        <time>2012-11-24T10:49:31Z</time>
      </trkpt>
      <trkpt lat="46.33511" lon="6.4733">
        <ele>572</ele>
        <time>2012-11-24T10:49:32Z</time>
      </trkpt>
      <trkpt lat="46.33511" lon="6.47325">
        <ele>573</ele>
        <time>2012-11-24T10:49:33Z</time>
      </trkpt>
      <trkpt lat="46.33511" lon="6.47322">
        <ele>573</ele>
        <time>2012-11-24T10:49:34Z</time>
      </trkpt>
      <trkpt lat="46.33511" lon="6.47318">
        <ele>574</ele>
        <time>2012-11-24T10:49:35Z</time>
      </trkpt>
      <trkpt lat="46.33512" lon="6.47315">
        <ele>575</ele>
        <time>2012-11-24T10:49:36Z</time>
      </trkpt>
      <trkpt lat="46.33513" lon="6.47314">
        <ele>575</ele>
        <time>2012-11-24T10:49:37Z</time>
      </trkpt>
      <trkpt lat="46.33514" lon="6.47311">
        <ele>575</ele>
        <time>2012-11-24T10:49:38Z</time>
      </trkpt>
      <trkpt lat="46.33514" lon="6.47309">
        <ele>575</ele>
        <time>2012-11-24T10:49:39Z</time>
      </trkpt>
      <trkpt lat="46.33514" lon="6.47306">
        <ele>575</ele>
        <time>2012-11-24T10:49:40Z</time>
      </trkpt>
      <trkpt lat="46.33515" lon="6.47303">
        <ele>575</ele>
        <time>2012-11-24T10:49:41Z</time>
      </trkpt>
      <trkpt lat="46.33515" lon="6.473">
        <ele>575</ele>
        <time>2012-11-24T10:49:42Z</time>
      </trkpt>
      <trkpt lat="46.33514" lon="6.47297">
        <ele>575</ele>
        <time>2012-11-24T10:49:43Z</time>
      </trkpt>
      <trkpt lat="46.33513" lon="6.47294">
        <ele>575</ele>
        <time>2012-11-24T10:49:44Z</time>
      </trkpt>
      <trkpt lat="46.33514" lon="6.4729">
        <ele>575</ele>
        <time>2012-11-24T10:49:45Z</time>
      </trkpt>
      <trkpt lat="46.33514" lon="6.47287">
        <ele>575</ele>
        <time>2012-11-24T10:49:46Z</time>
      </trkpt>
      <trkpt lat="46.33514" lon="6.47284">
        <ele>575</ele>
        <time>2012-11-24T10:49:47Z</time>
      </trkpt>
      <trkpt lat="46.33514" lon="6.47281">
        <ele>576</ele>
        <time>2012-11-24T10:49:48Z</time>
      </trkpt>
      <trkpt lat="46.33513" lon="6.47278">
        <ele>576</ele>
        <time>2012-11-24T10:49:49Z</time>
      </trkpt>
      <trkpt lat="46.33512" lon="6.47275">
        <ele>576</ele>
        <time>2012-11-24T10:49:50Z</time>
      </trkpt>
      <trkpt lat="46.33511" lon="6.47273">
        <ele>577</ele>
        <time>2012-11-24T10:49:51Z</time>
      </trkpt>
      <trkpt lat="46.3351" lon="6.47271">
        <ele>577</ele>
        <time>2012-11-24T10:49:52Z</time>
      </trkpt>
      <trkpt lat="46.33509" lon="6.47268">
        <ele>577</ele>
        <time>2012-11-24T10:49:53Z</time>
      </trkpt>
      <trkpt lat="46.33509" lon="6.47266">
        <ele>577</ele>
        <time>2012-11-24T10:49:54Z</time>
      </trkpt>
      <trkpt lat="46.33508" lon="6.47263">
        <ele>577</ele>
        <time>2012-11-24T10:49:55Z</time>
      </trkpt>
      <trkpt lat="46.33508" lon="6.47261">
        <ele>577</ele>
        <time>2012-11-24T10:49:56Z</time>
      </trkpt>
      <trkpt lat="46.33507" lon="6.4726">
        <ele>577</ele>
        <time>2012-11-24T10:49:57Z</time>
      </trkpt>
      <trkpt lat="46.33505" lon="6.47258">
        <ele>577</ele>
        <time>2012-11-24T10:49:58Z</time>
      </trkpt>
      <trkpt lat="46.33504" lon="6.47257">
        <ele>577</ele>
        <time>2012-11-24T10:49:59Z</time>
      </trkpt>
      <trkpt lat="46.33502" lon="6.47254">
        <ele>577</ele>
        <time>2012-11-24T10:50:00Z</time>
      </trkpt>
      <trkpt lat="46.33501" lon="6.47252">
        <ele>577</ele>
        <time>2012-11-24T10:50:01Z</time>
      </trkpt>
      <trkpt lat="46.335" lon="6.4725">
        <ele>577</ele>
        <time>2012-11-24T10:50:02Z</time>
      </trkpt>
      <trkpt lat="46.33498" lon="6.47247">
        <ele>577</ele>
        <time>2012-11-24T10:50:03Z</time>
      </trkpt>
      <trkpt lat="46.33496" lon="6.47244">
        <ele>577</ele>
        <time>2012-11-24T10:50:04Z</time>
      </trkpt>
      <trkpt lat="46.33493" lon="6.47241">
        <ele>577</ele>
        <time>2012-11-24T10:50:05Z</time>
      </trkpt>
      <trkpt lat="46.33492" lon="6.47241">
        <ele>577</ele>
        <time>2012-11-24T10:50:06Z</time>
      </trkpt>
      <trkpt lat="46.3349" lon="6.47243">
        <ele>577</ele>
        <time>2012-11-24T10:50:07Z</time>
      </trkpt>
      <trkpt lat="46.3349" lon="6.47245">
        <ele>577</ele>
        <time>2012-11-24T10:50:08Z</time>
      </trkpt>
      <trkpt lat="46.33488" lon="6.47247">
        <ele>577</ele>
        <time>2012-11-24T10:50:09Z</time>
      </trkpt>
      <trkpt lat="46.33486" lon="6.47249">
        <ele>577</ele>
        <time>2012-11-24T10:50:10Z</time>
      </trkpt>
      <trkpt lat="46.33485" lon="6.4725">
        <ele>577</ele>
        <time>2012-11-24T10:50:11Z</time>
      </trkpt>
      <trkpt lat="46.33482" lon="6.4725">
        <ele>577</ele>
        <time>2012-11-24T10:50:12Z</time>
      </trkpt>
      <trkpt lat="46.3348" lon="6.47251">
        <ele>577</ele>
        <time>2012-11-24T10:50:13Z</time>
      </trkpt>
      <trkpt lat="46.33477" lon="6.47251">
        <ele>577</ele>
        <time>2012-11-24T10:50:14Z</time>
      </trkpt>
      <trkpt lat="46.33476" lon="6.47251">
        <ele>576</ele>
        <time>2012-11-24T10:50:15Z</time>
      </trkpt>
      <trkpt lat="46.33474" lon="6.47252">
        <ele>576</ele>
        <time>2012-11-24T10:50:16Z</time>
      </trkpt>
      <trkpt lat="46.33472" lon="6.47251">
        <ele>576</ele>
        <time>2012-11-24T10:50:17Z</time>
      </trkpt>
      <trkpt lat="46.33469" lon="6.47251">
        <ele>576</ele>
        <time>2012-11-24T10:50:18Z</time>
      </trkpt>
      <trkpt lat="46.33467" lon="6.47251">
        <ele>576</ele>
        <time>2012-11-24T10:50:19Z</time>
      </trkpt>
      <trkpt lat="46.33465" lon="6.47252">
        <ele>576</ele>
        <time>2012-11-24T10:50:20Z</time>
      </trkpt>
      <trkpt lat="46.33464" lon="6.47252">
        <ele>576</ele>
        <time>2012-11-24T10:50:21Z</time>
      </trkpt>
      <trkpt lat="46.33463" lon="6.47256">
        <ele>576</ele>
        <time>2012-11-24T10:50:23Z</time>
      </trkpt>
      <trkpt lat="46.33462" lon="6.47258">
        <ele>576</ele>
        <time>2012-11-24T10:50:24Z</time>
      </trkpt>
      <trkpt lat="46.33461" lon="6.4726">
        <ele>576</ele>
        <time>2012-11-24T10:50:25Z</time>
      </trkpt>
      <trkpt lat="46.3346" lon="6.47262">
        <ele>575</ele>
        <time>2012-11-24T10:50:26Z</time>
      </trkpt>
      <trkpt lat="46.33459" lon="6.47265">
        <ele>575</ele>
        <time>2012-11-24T10:50:27Z</time>
      </trkpt>
      <trkpt lat="46.33459" lon="6.47268">
        <ele>575</ele>
        <time>2012-11-24T10:50:28Z</time>
      </trkpt>
      <trkpt lat="46.33458" lon="6.4727">
        <ele>575</ele>
        <time>2012-11-24T10:50:29Z</time>
      </trkpt>
      <trkpt lat="46.33457" lon="6.47272">
        <ele>574</ele>
        <time>2012-11-24T10:50:30Z</time>
      </trkpt>
      <trkpt lat="46.33456" lon="6.47275">
        <ele>574</ele>
        <time>2012-11-24T10:50:31Z</time>
      </trkpt>
      <trkpt lat="46.33455" lon="6.47278">
        <ele>574</ele>
        <time>2012-11-24T10:50:32Z</time>
      </trkpt>
      <trkpt lat="46.33453" lon="6.4728">
        <ele>573</ele>
        <time>2012-11-24T10:50:33Z</time>
      </trkpt>
      <trkpt lat="46.33452" lon="6.47282">
        <ele>572</ele>
        <time>2012-11-24T10:50:34Z</time>
      </trkpt>
      <trkpt lat="46.33451" lon="6.47285">
        <ele>572</ele>
        <time>2012-11-24T10:50:35Z</time>
      </trkpt>
      <trkpt lat="46.33451" lon="6.47288">
        <ele>571</ele>
        <time>2012-11-24T10:50:36Z</time>
      </trkpt>
      <trkpt lat="46.3345" lon="6.4729">
        <ele>571</ele>
        <time>2012-11-24T10:50:37Z</time>
      </trkpt>
      <trkpt lat="46.3345" lon="6.47292">
        <ele>571</ele>
        <time>2012-11-24T10:50:38Z</time>
      </trkpt>
      <trkpt lat="46.33448" lon="6.47295">
        <ele>571</ele>
        <time>2012-11-24T10:50:39Z</time>
      </trkpt>
      <trkpt lat="46.33448" lon="6.47297">
        <ele>570</ele>
        <time>2012-11-24T10:50:40Z</time>
      </trkpt>
      <trkpt lat="46.33445" lon="6.473">
        <ele>570</ele>
        <time>2012-11-24T10:50:41Z</time>
      </trkpt>
      <trkpt lat="46.33444" lon="6.47302">
        <ele>569</ele>
        <time>2012-11-24T10:50:42Z</time>
      </trkpt>
      <trkpt lat="46.33442" lon="6.47304">
        <ele>569</ele>
        <time>2012-11-24T10:50:43Z</time>
      </trkpt>
      <trkpt lat="46.3344" lon="6.47305">
        <ele>568</ele>
        <time>2012-11-24T10:50:44Z</time>
      </trkpt>
      <trkpt lat="46.33437" lon="6.47306">
        <ele>568</ele>
        <time>2012-11-24T10:50:45Z</time>
      </trkpt>
      <trkpt lat="46.33436" lon="6.47307">
        <ele>568</ele>
        <time>2012-11-24T10:50:46Z</time>
      </trkpt>
      <trkpt lat="46.33434" lon="6.4731">
        <ele>567</ele>
        <time>2012-11-24T10:50:47Z</time>
      </trkpt>
      <trkpt lat="46.33432" lon="6.47312">
        <ele>567</ele>
        <time>2012-11-24T10:50:48Z</time>
      </trkpt>
      <trkpt lat="46.33429" lon="6.47313">
        <ele>567</ele>
        <time>2012-11-24T10:50:49Z</time>
      </trkpt>
      <trkpt lat="46.33427" lon="6.47313">
        <ele>567</ele>
        <time>2012-11-24T10:50:50Z</time>
      </trkpt>
      <trkpt lat="46.33426" lon="6.47314">
        <ele>567</ele>
        <time>2012-11-24T10:50:51Z</time>
      </trkpt>
      <trkpt lat="46.33424" lon="6.47314">
        <ele>567</ele>
        <time>2012-11-24T10:50:52Z</time>
      </trkpt>
      <trkpt lat="46.33422" lon="6.47315">
        <ele>567</ele>
        <time>2012-11-24T10:50:53Z</time>
      </trkpt>
      <trkpt lat="46.3342" lon="6.47316">
        <ele>567</ele>
        <time>2012-11-24T10:50:54Z</time>
      </trkpt>
      <trkpt lat="46.33417" lon="6.47317">
        <ele>567</ele>
        <time>2012-11-24T10:50:55Z</time>
      </trkpt>
      <trkpt lat="46.33415" lon="6.47318">
        <ele>567</ele>
        <time>2012-11-24T10:50:56Z</time>
      </trkpt>
      <trkpt lat="46.33413" lon="6.47319">
        <ele>567</ele>
        <time>2012-11-24T10:50:57Z</time>
      </trkpt>
      <trkpt lat="46.3341" lon="6.47319">
        <ele>567</ele>
        <time>2012-11-24T10:50:58Z</time>
      </trkpt>
      <trkpt lat="46.33408" lon="6.4732">
        <ele>567</ele>
        <time>2012-11-24T10:50:59Z</time>
      </trkpt>
      <trkpt lat="46.33405" lon="6.47321">
        <ele>567</ele>
        <time>2012-11-24T10:51:00Z</time>
      </trkpt>
      <trkpt lat="46.33403" lon="6.47321">
        <ele>567</ele>
        <time>2012-11-24T10:51:01Z</time>
      </trkpt>
      <trkpt lat="46.334" lon="6.47321">
        <ele>567</ele>
        <time>2012-11-24T10:51:02Z</time>
      </trkpt>
      <trkpt lat="46.33398" lon="6.47321">
        <ele>567</ele>
        <time>2012-11-24T10:51:03Z</time>
      </trkpt>
      <trkpt lat="46.33396" lon="6.47321">
        <ele>566</ele>
        <time>2012-11-24T10:51:04Z</time>
      </trkpt>
      <trkpt lat="46.33394" lon="6.47323">
        <ele>565</ele>
        <time>2012-11-24T10:51:05Z</time>
      </trkpt>
      <trkpt lat="46.33392" lon="6.47324">
        <ele>565</ele>
        <time>2012-11-24T10:51:06Z</time>
      </trkpt>
      <trkpt lat="46.3339" lon="6.47325">
        <ele>565</ele>
        <time>2012-11-24T10:51:07Z</time>
      </trkpt>
      <trkpt lat="46.33388" lon="6.47324">
        <ele>564</ele>
        <time>2012-11-24T10:51:08Z</time>
      </trkpt>
      <trkpt lat="46.33387" lon="6.47323">
        <ele>564</ele>
        <time>2012-11-24T10:51:09Z</time>
      </trkpt>
      <trkpt lat="46.33384" lon="6.47321">
        <ele>564</ele>
        <time>2012-11-24T10:51:10Z</time>
      </trkpt>
      <trkpt lat="46.33382" lon="6.4732">
        <ele>563</ele>
        <time>2012-11-24T10:51:11Z</time>
      </trkpt>
      <trkpt lat="46.33381" lon="6.47319">
        <ele>563</ele>
        <time>2012-11-24T10:51:12Z</time>
      </trkpt>
      <trkpt lat="46.33378" lon="6.47319">
        <ele>563</ele>
        <time>2012-11-24T10:51:13Z</time>
      </trkpt>
      <trkpt lat="46.33375" lon="6.47319">
        <ele>563</ele>
        <time>2012-11-24T10:51:14Z</time>
      </trkpt>
      <trkpt lat="46.33372" lon="6.47316">
        <ele>563</ele>
        <time>2012-11-24T10:51:15Z</time>
      </trkpt>
      <trkpt lat="46.33368" lon="6.47313">
        <ele>563</ele>
        <time>2012-11-24T10:51:16Z</time>
      </trkpt>
      <trkpt lat="46.33366" lon="6.47311">
        <ele>563</ele>
        <time>2012-11-24T10:51:17Z</time>
      </trkpt>
      <trkpt lat="46.33364" lon="6.47308">
        <ele>563</ele>
        <time>2012-11-24T10:51:18Z</time>
      </trkpt>
      <trkpt lat="46.33361" lon="6.47306">
        <ele>563</ele>
        <time>2012-11-24T10:51:19Z</time>
      </trkpt>
      <trkpt lat="46.33358" lon="6.47304">
        <ele>563</ele>
        <time>2012-11-24T10:51:20Z</time>
      </trkpt>
      <trkpt lat="46.33355" lon="6.47302">
        <ele>564</ele>
        <time>2012-11-24T10:51:21Z</time>
      </trkpt>
      <trkpt lat="46.33353" lon="6.47301">
        <ele>565</ele>
        <time>2012-11-24T10:51:22Z</time>
      </trkpt>
      <trkpt lat="46.3335" lon="6.473">
        <ele>566</ele>
        <time>2012-11-24T10:51:23Z</time>
      </trkpt>
      <trkpt lat="46.33347" lon="6.47299">
        <ele>566</ele>
        <time>2012-11-24T10:51:24Z</time>
      </trkpt>
      <trkpt lat="46.33344" lon="6.47297">
        <ele>566</ele>
        <time>2012-11-24T10:51:25Z</time>
      </trkpt>
      <trkpt lat="46.33341" lon="6.47295">
        <ele>566</ele>
        <time>2012-11-24T10:51:26Z</time>
      </trkpt>
      <trkpt lat="46.33338" lon="6.47293">
        <ele>566</ele>
        <time>2012-11-24T10:51:27Z</time>
      </trkpt>
      <trkpt lat="46.33334" lon="6.4729">
        <ele>566</ele>
        <time>2012-11-24T10:51:28Z</time>
      </trkpt>
      <trkpt lat="46.3333" lon="6.47287">
        <ele>567</ele>
        <time>2012-11-24T10:51:29Z</time>
      </trkpt>
      <trkpt lat="46.33328" lon="6.47287">
        <ele>568</ele>
        <time>2012-11-24T10:51:30Z</time>
      </trkpt>
      <trkpt lat="46.33326" lon="6.47288">
        <ele>569</ele>
        <time>2012-11-24T10:51:31Z</time>
      </trkpt>
      <trkpt lat="46.33323" lon="6.47286">
        <ele>570</ele>
        <time>2012-11-24T10:51:32Z</time>
      </trkpt>
      <trkpt lat="46.3332" lon="6.47285">
        <ele>571</ele>
        <time>2012-11-24T10:51:33Z</time>
      </trkpt>
      <trkpt lat="46.33318" lon="6.47284">
        <ele>572</ele>
        <time>2012-11-24T10:51:34Z</time>
      </trkpt>
      <trkpt lat="46.33316" lon="6.47283">
        <ele>572</ele>
        <time>2012-11-24T10:51:35Z</time>
      </trkpt>
      <trkpt lat="46.33314" lon="6.47283">
        <ele>572</ele>
        <time>2012-11-24T10:51:36Z</time>
      </trkpt>
      <trkpt lat="46.3331" lon="6.47285">
        <ele>573</ele>
        <time>2012-11-24T10:51:37Z</time>
      </trkpt>
      <trkpt lat="46.33308" lon="6.47286">
        <ele>574</ele>
        <time>2012-11-24T10:51:38Z</time>
      </trkpt>
      <trkpt lat="46.33305" lon="6.47287">
        <ele>575</ele>
        <time>2012-11-24T10:51:39Z</time>
      </trkpt>
      <trkpt lat="46.33302" lon="6.4729">
        <ele>576</ele>
        <time>2012-11-24T10:51:40Z</time>
      </trkpt>
      <trkpt lat="46.333" lon="6.47292">
        <ele>577</ele>
        <time>2012-11-24T10:51:41Z</time>
      </trkpt>
      <trkpt lat="46.33297" lon="6.47294">
        <ele>578</ele>
        <time>2012-11-24T10:51:42Z</time>
      </trkpt>
      <trkpt lat="46.33295" lon="6.47295">
        <ele>578</ele>
        <time>2012-11-24T10:51:43Z</time>
      </trkpt>
      <trkpt lat="46.33292" lon="6.47296">
        <ele>578</ele>
        <time>2012-11-24T10:51:44Z</time>
      </trkpt>
      <trkpt lat="46.3329" lon="6.47296">
        <ele>578</ele>
        <time>2012-11-24T10:51:45Z</time>
      </trkpt>
      <trkpt lat="46.33287" lon="6.47296">
        <ele>578</ele>
        <time>2012-11-24T10:51:46Z</time>
      </trkpt>
      <trkpt lat="46.33285" lon="6.47296">
        <ele>578</ele>
        <time>2012-11-24T10:51:47Z</time>
      </trkpt>
      <trkpt lat="46.33283" lon="6.47296">
        <ele>578</ele>
        <time>2012-11-24T10:51:48Z</time>
      </trkpt>
      <trkpt lat="46.33281" lon="6.47296">
        <ele>578</ele>
        <time>2012-11-24T10:51:49Z</time>
      </trkpt>
      <trkpt lat="46.33277" lon="6.47294">
        <ele>578</ele>
        <time>2012-11-24T10:51:50Z</time>
      </trkpt>
      <trkpt lat="46.33275" lon="6.47293">
        <ele>578</ele>
        <time>2012-11-24T10:51:51Z</time>
      </trkpt>
      <trkpt lat="46.33273" lon="6.47293">
        <ele>578</ele>
        <time>2012-11-24T10:51:52Z</time>
      </trkpt>
      <trkpt lat="46.3327" lon="6.47293">
        <ele>578</ele>
        <time>2012-11-24T10:51:53Z</time>
      </trkpt>
      <trkpt lat="46.33268" lon="6.47294">
        <ele>578</ele>
        <time>2012-11-24T10:51:54Z</time>
      </trkpt>
      <trkpt lat="46.33265" lon="6.47292">
        <ele>578</ele>
        <time>2012-11-24T10:51:55Z</time>
      </trkpt>
      <trkpt lat="46.33261" lon="6.47292">
        <ele>578</ele>
        <time>2012-11-24T10:51:56Z</time>
      </trkpt>
      <trkpt lat="46.33258" lon="6.47291">
        <ele>578</ele>
        <time>2012-11-24T10:51:57Z</time>
      </trkpt>
      <trkpt lat="46.33255" lon="6.47291">
        <ele>577</ele>
        <time>2012-11-24T10:51:58Z</time>
      </trkpt>
      <trkpt lat="46.33252" lon="6.4729">
        <ele>576</ele>
        <time>2012-11-24T10:51:59Z</time>
      </trkpt>
      <trkpt lat="46.33249" lon="6.4729">
        <ele>576</ele>
        <time>2012-11-24T10:52:00Z</time>
      </trkpt>
      <trkpt lat="46.33247" lon="6.47289">
        <ele>576</ele>
        <time>2012-11-24T10:52:01Z</time>
      </trkpt>
      <trkpt lat="46.33244" lon="6.47287">
        <ele>576</ele>
        <time>2012-11-24T10:52:02Z</time>
      </trkpt>
      <trkpt lat="46.33242" lon="6.47285">
        <ele>576</ele>
        <time>2012-11-24T10:52:03Z</time>
      </trkpt>
      <trkpt lat="46.33241" lon="6.47284">
        <ele>576</ele>
        <time>2012-11-24T10:52:04Z</time>
      </trkpt>
      <trkpt lat="46.33239" lon="6.47282">
        <ele>575</ele>
        <time>2012-11-24T10:52:05Z</time>
      </trkpt>
      <trkpt lat="46.33237" lon="6.4728">
        <ele>575</ele>
        <time>2012-11-24T10:52:06Z</time>
      </trkpt>
      <trkpt lat="46.33235" lon="6.47277">
        <ele>575</ele>
        <time>2012-11-24T10:52:07Z</time>
      </trkpt>
      <trkpt lat="46.33234" lon="6.47276">
        <ele>575</ele>
        <time>2012-11-24T10:52:08Z</time>
      </trkpt>
      <trkpt lat="46.33232" lon="6.47274">
        <ele>575</ele>
        <time>2012-11-24T10:52:09Z</time>
      </trkpt>
      <trkpt lat="46.3323" lon="6.47272">
        <ele>575</ele>
        <time>2012-11-24T10:52:10Z</time>
      </trkpt>
      <trkpt lat="46.33229" lon="6.4727">
        <ele>575</ele>
        <time>2012-11-24T10:52:11Z</time>
      </trkpt>
      <trkpt lat="46.33229" lon="6.47268">
        <ele>575</ele>
        <time>2012-11-24T10:52:12Z</time>
      </trkpt>
      <trkpt lat="46.33228" lon="6.47267">
        <ele>575</ele>
        <time>2012-11-24T10:52:13Z</time>
      </trkpt>
      <trkpt lat="46.33226" lon="6.47264">
        <ele>575</ele>
        <time>2012-11-24T10:52:14Z</time>
      </trkpt>
      <trkpt lat="46.33225" lon="6.47262">
        <ele>575</ele>
        <time>2012-11-24T10:52:15Z</time>
      </trkpt>
      <trkpt lat="46.33223" lon="6.4726">
        <ele>575</ele>
        <time>2012-11-24T10:52:16Z</time>
      </trkpt>
      <trkpt lat="46.33222" lon="6.47259">
        <ele>575</ele>
        <time>2012-11-24T10:52:17Z</time>
      </trkpt>
      <trkpt lat="46.3322" lon="6.47257">
        <ele>575</ele>
        <time>2012-11-24T10:52:18Z</time>
      </trkpt>
      <trkpt lat="46.33219" lon="6.47255">
        <ele>575</ele>
        <time>2012-11-24T10:52:19Z</time>
      </trkpt>
      <trkpt lat="46.33218" lon="6.47253">
        <ele>575</ele>
        <time>2012-11-24T10:52:20Z</time>
      </trkpt>
      <trkpt lat="46.33215" lon="6.47247">
        <ele>575</ele>
        <time>2012-11-24T10:52:21Z</time>
      </trkpt>
      <trkpt lat="46.33213" lon="6.47245">
        <ele>575</ele>
        <time>2012-11-24T10:52:22Z</time>
      </trkpt>
      <trkpt lat="46.33212" lon="6.47243">
        <ele>575</ele>
        <time>2012-11-24T10:52:23Z</time>
      </trkpt>
      <trkpt lat="46.33211" lon="6.4724">
        <ele>575</ele>
        <time>2012-11-24T10:52:24Z</time>
      </trkpt>
      <trkpt lat="46.3321" lon="6.47237">
        <ele>575</ele>
        <time>2012-11-24T10:52:25Z</time>
      </trkpt>
      <trkpt lat="46.33208" lon="6.47234">
        <ele>575</ele>
        <time>2012-11-24T10:52:26Z</time>
      </trkpt>
      <trkpt lat="46.33207" lon="6.47232">
        <ele>575</ele>
        <time>2012-11-24T10:52:27Z</time>
      </trkpt>
      <trkpt lat="46.33207" lon="6.4723">
        <ele>575</ele>
        <time>2012-11-24T10:52:28Z</time>
      </trkpt>
      <trkpt lat="46.33206" lon="6.47227">
        <ele>575</ele>
        <time>2012-11-24T10:52:29Z</time>
      </trkpt>
      <trkpt lat="46.33206" lon="6.47225">
        <ele>575</ele>
        <time>2012-11-24T10:52:30Z</time>
      </trkpt>
      <trkpt lat="46.33205" lon="6.47222">
        <ele>575</ele>
        <time>2012-11-24T10:52:31Z</time>
      </trkpt>
      <trkpt lat="46.33203" lon="6.47218">
        <ele>575</ele>
        <time>2012-11-24T10:52:32Z</time>
      </trkpt>
      <trkpt lat="46.33202" lon="6.47215">
        <ele>575</ele>
        <time>2012-11-24T10:52:33Z</time>
      </trkpt>
      <trkpt lat="46.33201" lon="6.47213">
        <ele>575</ele>
        <time>2012-11-24T10:52:34Z</time>
      </trkpt>
      <trkpt lat="46.332" lon="6.4721">
        <ele>575</ele>
        <time>2012-11-24T10:52:35Z</time>
      </trkpt>
      <trkpt lat="46.33199" lon="6.47208">
        <ele>575</ele>
        <time>2012-11-24T10:52:36Z</time>
      </trkpt>
      <trkpt lat="46.33198" lon="6.47205">
        <ele>575</ele>
        <time>2012-11-24T10:52:37Z</time>
      </trkpt>
      <trkpt lat="46.33197" lon="6.47202">
        <ele>575</ele>
        <time>2012-11-24T10:52:38Z</time>
      </trkpt>
      <trkpt lat="46.33195" lon="6.47199">
        <ele>575</ele>
        <time>2012-11-24T10:52:39Z</time>
      </trkpt>
      <trkpt lat="46.33193" lon="6.47196">
        <ele>575</ele>
        <time>2012-11-24T10:52:40Z</time>
      </trkpt>
      <trkpt lat="46.33192" lon="6.47193">
        <ele>575</ele>
        <time>2012-11-24T10:52:41Z</time>
      </trkpt>
      <trkpt lat="46.3319" lon="6.47191">
        <ele>575</ele>
        <time>2012-11-24T10:52:42Z</time>
      </trkpt>
      <trkpt lat="46.33188" lon="6.47188">
        <ele>576</ele>
        <time>2012-11-24T10:52:43Z</time>
      </trkpt>
      <trkpt lat="46.33186" lon="6.47187">
        <ele>576</ele>
        <time>2012-11-24T10:52:44Z</time>
      </trkpt>
      <trkpt lat="46.33185" lon="6.47184">
        <ele>576</ele>
        <time>2012-11-24T10:52:45Z</time>
      </trkpt>
      <trkpt lat="46.33184" lon="6.47182">
        <ele>577</ele>
        <time>2012-11-24T10:52:46Z</time>
      </trkpt>
      <trkpt lat="46.33181" lon="6.47178">
        <ele>577</ele>
        <time>2012-11-24T10:52:47Z</time>
      </trkpt>
      <trkpt lat="46.3318" lon="6.47175">
        <ele>578</ele>
        <time>2012-11-24T10:52:48Z</time>
      </trkpt>
      <trkpt lat="46.33178" lon="6.47171">
        <ele>578</ele>
        <time>2012-11-24T10:52:49Z</time>
      </trkpt>
      <trkpt lat="46.33175" lon="6.47167">
        <ele>579</ele>
        <time>2012-11-24T10:52:50Z</time>
      </trkpt>
      <trkpt lat="46.33174" lon="6.47164">
        <ele>580</ele>
        <time>2012-11-24T10:52:51Z</time>
      </trkpt>
      <trkpt lat="46.33172" lon="6.47161">
        <ele>581</ele>
        <time>2012-11-24T10:52:52Z</time>
      </trkpt>
      <trkpt lat="46.33169" lon="6.47157">
        <ele>582</ele>
        <time>2012-11-24T10:52:53Z</time>
      </trkpt>
      <trkpt lat="46.33168" lon="6.47155">
        <ele>583</ele>
        <time>2012-11-24T10:52:54Z</time>
      </trkpt>
      <trkpt lat="46.33166" lon="6.47153">
        <ele>584</ele>
        <time>2012-11-24T10:52:55Z</time>
      </trkpt>
      <trkpt lat="46.33165" lon="6.47151">
        <ele>585</ele>
        <time>2012-11-24T10:52:56Z</time>
      </trkpt>
      <trkpt lat="46.33164" lon="6.47148">
        <ele>586</ele>
        <time>2012-11-24T10:52:57Z</time>
      </trkpt>
      <trkpt lat="46.33163" lon="6.47146">
        <ele>586</ele>
        <time>2012-11-24T10:52:58Z</time>
      </trkpt>
      <trkpt lat="46.33162" lon="6.47144">
        <ele>586</ele>
        <time>2012-11-24T10:52:59Z</time>
      </trkpt>
      <trkpt lat="46.3316" lon="6.47142">
        <ele>587</ele>
        <time>2012-11-24T10:53:00Z</time>
      </trkpt>
      <trkpt lat="46.33159" lon="6.47139">
        <ele>587</ele>
        <time>2012-11-24T10:53:01Z</time>
      </trkpt>
      <trkpt lat="46.33158" lon="6.47136">
        <ele>587</ele>
        <time>2012-11-24T10:53:02Z</time>
      </trkpt>
      <trkpt lat="46.33157" lon="6.47133">
        <ele>587</ele>
        <time>2012-11-24T10:53:03Z</time>
      </trkpt>
      <trkpt lat="46.33156" lon="6.47131">
        <ele>587</ele>
        <time>2012-11-24T10:53:04Z</time>
      </trkpt>
      <trkpt lat="46.33155" lon="6.47129">
        <ele>587</ele>
        <time>2012-11-24T10:53:05Z</time>
      </trkpt>
      <trkpt lat="46.33154" lon="6.47126">
        <ele>587</ele>
        <time>2012-11-24T10:53:06Z</time>
      </trkpt>
      <trkpt lat="46.33152" lon="6.47124">
        <ele>587</ele>
        <time>2012-11-24T10:53:07Z</time>
      </trkpt>
      <trkpt lat="46.33151" lon="6.47122">
        <ele>587</ele>
        <time>2012-11-24T10:53:08Z</time>
      </trkpt>
      <trkpt lat="46.3315" lon="6.4712">
        <ele>587</ele>
        <time>2012-11-24T10:53:09Z</time>
      </trkpt>
      <trkpt lat="46.33148" lon="6.47117">
        <ele>587</ele>
        <time>2012-11-24T10:53:10Z</time>
      </trkpt>
      <trkpt lat="46.33147" lon="6.47115">
        <ele>587</ele>
        <time>2012-11-24T10:53:11Z</time>
      </trkpt>
      <trkpt lat="46.33146" lon="6.47113">
        <ele>587</ele>
        <time>2012-11-24T10:53:12Z</time>
      </trkpt>
      <trkpt lat="46.33144" lon="6.4711">
        <ele>587</ele>
        <time>2012-11-24T10:53:13Z</time>
      </trkpt>
      <trkpt lat="46.33142" lon="6.47107">
        <ele>587</ele>
        <time>2012-11-24T10:53:14Z</time>
      </trkpt>
      <trkpt lat="46.33141" lon="6.47104">
        <ele>587</ele>
        <time>2012-11-24T10:53:15Z</time>
      </trkpt>
      <trkpt lat="46.3314" lon="6.47101">
        <ele>587</ele>
        <time>2012-11-24T10:53:16Z</time>
      </trkpt>
      <trkpt lat="46.33139" lon="6.47099">
        <ele>587</ele>
        <time>2012-11-24T10:53:17Z</time>
      </trkpt>
      <trkpt lat="46.33138" lon="6.47096">
        <ele>587</ele>
        <time>2012-11-24T10:53:18Z</time>
      </trkpt>
      <trkpt lat="46.33137" lon="6.47094">
        <ele>588</ele>
        <time>2012-11-24T10:53:19Z</time>
      </trkpt>
      <trkpt lat="46.33136" lon="6.47092">
        <ele>588</ele>
        <time>2012-11-24T10:53:20Z</time>
      </trkpt>
      <trkpt lat="46.33135" lon="6.4709">
        <ele>588</ele>
        <time>2012-11-24T10:53:21Z</time>
      </trkpt>
      <trkpt lat="46.33134" lon="6.47088">
        <ele>589</ele>
        <time>2012-11-24T10:53:22Z</time>
      </trkpt>
      <trkpt lat="46.33133" lon="6.47086">
        <ele>589</ele>
        <time>2012-11-24T10:53:23Z</time>
      </trkpt>
      <trkpt lat="46.33131" lon="6.47083">
        <ele>590</ele>
        <time>2012-11-24T10:53:24Z</time>
      </trkpt>
      <trkpt lat="46.3313" lon="6.47081">
        <ele>590</ele>
        <time>2012-11-24T10:53:25Z</time>
      </trkpt>
      <trkpt lat="46.33128" lon="6.47077">
        <ele>591</ele>
        <time>2012-11-24T10:53:26Z</time>
      </trkpt>
      <trkpt lat="46.33127" lon="6.47075">
        <ele>591</ele>
        <time>2012-11-24T10:53:27Z</time>
      </trkpt>
      <trkpt lat="46.33126" lon="6.47073">
        <ele>591</ele>
        <time>2012-11-24T10:53:28Z</time>
      </trkpt>
      <trkpt lat="46.33125" lon="6.4707">
        <ele>591</ele>
        <time>2012-11-24T10:53:29Z</time>
      </trkpt>
      <trkpt lat="46.33124" lon="6.47068">
        <ele>591</ele>
        <time>2012-11-24T10:53:30Z</time>
      </trkpt>
      <trkpt lat="46.33123" lon="6.47066">
        <ele>591</ele>
        <time>2012-11-24T10:53:31Z</time>
      </trkpt>
      <trkpt lat="46.33122" lon="6.47064">
        <ele>591</ele>
        <time>2012-11-24T10:53:32Z</time>
      </trkpt>
      <trkpt lat="46.3312" lon="6.47061">
        <ele>591</ele>
        <time>2012-11-24T10:53:33Z</time>
      </trkpt>
      <trkpt lat="46.33119" lon="6.47059">
        <ele>592</ele>
        <time>2012-11-24T10:53:34Z</time>
      </trkpt>
      <trkpt lat="46.33117" lon="6.47058">
        <ele>592</ele>
        <time>2012-11-24T10:53:35Z</time>
      </trkpt>
      <trkpt lat="46.33116" lon="6.47056">
        <ele>592</ele>
        <time>2012-11-24T10:53:36Z</time>
      </trkpt>
      <trkpt lat="46.33115" lon="6.47054">
        <ele>592</ele>
        <time>2012-11-24T10:53:37Z</time>
      </trkpt>
      <trkpt lat="46.33113" lon="6.47052">
        <ele>592</ele>
        <time>2012-11-24T10:53:38Z</time>
      </trkpt>
      <trkpt lat="46.3311" lon="6.47049">
        <ele>592</ele>
        <time>2012-11-24T10:53:39Z</time>
      </trkpt>
      <trkpt lat="46.33108" lon="6.47047">
        <ele>592</ele>
        <time>2012-11-24T10:53:40Z</time>
      </trkpt>
      <trkpt lat="46.33106" lon="6.47044">
        <ele>592</ele>
        <time>2012-11-24T10:53:41Z</time>
      </trkpt>
      <trkpt lat="46.33104" lon="6.47041">
        <ele>592</ele>
        <time>2012-11-24T10:53:42Z</time>
      </trkpt>
      <trkpt lat="46.33102" lon="6.47039">
        <ele>592</ele>
        <time>2012-11-24T10:53:43Z</time>
      </trkpt>
      <trkpt lat="46.331" lon="6.47037">
        <ele>592</ele>
        <time>2012-11-24T10:53:44Z</time>
      </trkpt>
      <trkpt lat="46.33097" lon="6.47036">
        <ele>592</ele>
        <time>2012-11-24T10:53:45Z</time>
      </trkpt>
      <trkpt lat="46.33096" lon="6.47036">
        <ele>593</ele>
        <time>2012-11-24T10:53:46Z</time>
      </trkpt>
      <trkpt lat="46.33094" lon="6.47035">
        <ele>593</ele>
        <time>2012-11-24T10:53:47Z</time>
      </trkpt>
      <trkpt lat="46.33092" lon="6.47034">
        <ele>594</ele>
        <time>2012-11-24T10:53:48Z</time>
      </trkpt>
      <trkpt lat="46.33091" lon="6.47033">
        <ele>594</ele>
        <time>2012-11-24T10:53:49Z</time>
      </trkpt>
      <trkpt lat="46.33089" lon="6.47032">
        <ele>595</ele>
        <time>2012-11-24T10:53:50Z</time>
      </trkpt>
      <trkpt lat="46.33088" lon="6.47033">
        <ele>595</ele>
        <time>2012-11-24T10:53:51Z</time>
      </trkpt>
      <trkpt lat="46.33086" lon="6.47032">
        <ele>595</ele>
        <time>2012-11-24T10:53:52Z</time>
      </trkpt>
      <trkpt lat="46.33083" lon="6.47031">
        <ele>596</ele>
        <time>2012-11-24T10:53:53Z</time>
      </trkpt>
      <trkpt lat="46.33081" lon="6.4703">
        <ele>596</ele>
        <time>2012-11-24T10:53:54Z</time>
      </trkpt>
      <trkpt lat="46.33079" lon="6.47029">
        <ele>596</ele>
        <time>2012-11-24T10:53:55Z</time>
      </trkpt>
      <trkpt lat="46.33077" lon="6.47028">
        <ele>596</ele>
        <time>2012-11-24T10:53:56Z</time>
      </trkpt>
      <trkpt lat="46.33075" lon="6.47027">
        <ele>596</ele>
        <time>2012-11-24T10:53:57Z</time>
      </trkpt>
      <trkpt lat="46.33073" lon="6.47026">
        <ele>596</ele>
        <time>2012-11-24T10:53:58Z</time>
      </trkpt>
      <trkpt lat="46.33071" lon="6.47025">
        <ele>596</ele>
        <time>2012-11-24T10:53:59Z</time>
      </trkpt>
      <trkpt lat="46.33069" lon="6.47024">
        <ele>596</ele>
        <time>2012-11-24T10:54:00Z</time>
      </trkpt>
      <trkpt lat="46.33067" lon="6.47022">
        <ele>596</ele>
        <time>2012-11-24T10:54:01Z</time>
      </trkpt>
      <trkpt lat="46.33065" lon="6.4702">
        <ele>596</ele>
        <time>2012-11-24T10:54:02Z</time>
      </trkpt>
      <trkpt lat="46.33063" lon="6.47019">
        <ele>596</ele>
        <time>2012-11-24T10:54:03Z</time>
      </trkpt>
      <trkpt lat="46.33061" lon="6.47017">
        <ele>596</ele>
        <time>2012-11-24T10:54:04Z</time>
      </trkpt>
      <trkpt lat="46.33059" lon="6.47017">
        <ele>596</ele>
        <time>2012-11-24T10:54:05Z</time>
      </trkpt>
      <trkpt lat="46.33057" lon="6.47016">
        <ele>596</ele>
        <time>2012-11-24T10:54:06Z</time>
      </trkpt>
      <trkpt lat="46.33055" lon="6.47015">
        <ele>596</ele>
        <time>2012-11-24T10:54:07Z</time>
      </trkpt>
      <trkpt lat="46.33053" lon="6.47014">
        <ele>596</ele>
        <time>2012-11-24T10:54:08Z</time>
      </trkpt>
      <trkpt lat="46.33051" lon="6.47014">
        <ele>597</ele>
        <time>2012-11-24T10:54:09Z</time>
      </trkpt>
      <trkpt lat="46.33049" lon="6.47014">
        <ele>597</ele>
        <time>2012-11-24T10:54:10Z</time>
      </trkpt>
      <trkpt lat="46.33048" lon="6.47014">
        <ele>597</ele>
        <time>2012-11-24T10:54:11Z</time>
      </trkpt>
      <trkpt lat="46.33046" lon="6.47013">
        <ele>597</ele>
        <time>2012-11-24T10:54:12Z</time>
      </trkpt>
      <trkpt lat="46.33044" lon="6.47012">
        <ele>597</ele>
        <time>2012-11-24T10:54:13Z</time>
      </trkpt>
      <trkpt lat="46.33041" lon="6.4701">
        <ele>598</ele>
        <time>2012-11-24T10:54:14Z</time>
      </trkpt>
      <trkpt lat="46.33039" lon="6.47009">
        <ele>598</ele>
        <time>2012-11-24T10:54:15Z</time>
      </trkpt>
      <trkpt lat="46.33037" lon="6.47008">
        <ele>599</ele>
        <time>2012-11-24T10:54:16Z</time>
      </trkpt>
      <trkpt lat="46.33035" lon="6.47008">
        <ele>600</ele>
        <time>2012-11-24T10:54:17Z</time>
      </trkpt>
      <trkpt lat="46.33032" lon="6.47008">
        <ele>601</ele>
        <time>2012-11-24T10:54:18Z</time>
      </trkpt>
      <trkpt lat="46.3303" lon="6.47009">
        <ele>601</ele>
        <time>2012-11-24T10:54:19Z</time>
      </trkpt>
      <trkpt lat="46.33028" lon="6.47009">
        <ele>602</ele>
        <time>2012-11-24T10:54:20Z</time>
      </trkpt>
      <trkpt lat="46.33026" lon="6.47009">
        <ele>602</ele>
        <time>2012-11-24T10:54:21Z</time>
      </trkpt>
      <trkpt lat="46.33025" lon="6.4701">
        <ele>603</ele>
        <time>2012-11-24T10:54:22Z</time>
      </trkpt>
      <trkpt lat="46.33025" lon="6.47012">
        <ele>603</ele>
        <time>2012-11-24T10:54:23Z</time>
      </trkpt>
      <trkpt lat="46.33025" lon="6.47016">
        <ele>603</ele>
        <time>2012-11-24T10:54:24Z</time>
      </trkpt>
      <trkpt lat="46.33025" lon="6.47018">
        <ele>603</ele>
        <time>2012-11-24T10:54:25Z</time>
      </trkpt>
      <trkpt lat="46.33023" lon="6.4702">
        <ele>603</ele>
        <time>2012-11-24T10:54:26Z</time>
      </trkpt>
      <trkpt lat="46.33022" lon="6.47023">
        <ele>603</ele>
        <time>2012-11-24T10:54:27Z</time>
      </trkpt>
      <trkpt lat="46.3302" lon="6.47026">
        <ele>603</ele>
        <time>2012-11-24T10:54:28Z</time>
      </trkpt>
      <trkpt lat="46.33018" lon="6.47029">
        <ele>603</ele>
        <time>2012-11-24T10:54:29Z</time>
      </trkpt>
      <trkpt lat="46.33016" lon="6.47032">
        <ele>603</ele>
        <time>2012-11-24T10:54:30Z</time>
      </trkpt>
      <trkpt lat="46.33012" lon="6.47034">
        <ele>603</ele>
        <time>2012-11-24T10:54:31Z</time>
      </trkpt>
      <trkpt lat="46.33009" lon="6.47035">
        <ele>603</ele>
        <time>2012-11-24T10:54:32Z</time>
      </trkpt>
      <trkpt lat="46.33007" lon="6.47036">
        <ele>603</ele>
        <time>2012-11-24T10:54:33Z</time>
      </trkpt>
      <trkpt lat="46.33004" lon="6.47036">
        <ele>603</ele>
        <time>2012-11-24T10:54:34Z</time>
      </trkpt>
      <trkpt lat="46.33002" lon="6.47036">
        <ele>603</ele>
        <time>2012-11-24T10:54:35Z</time>
      </trkpt>
      <trkpt lat="46.32999" lon="6.47034">
        <ele>603</ele>
        <time>2012-11-24T10:54:36Z</time>
      </trkpt>
      <trkpt lat="46.32997" lon="6.47033">
        <ele>603</ele>
        <time>2012-11-24T10:54:37Z</time>
      </trkpt>
      <trkpt lat="46.32994" lon="6.47033">
        <ele>603</ele>
        <time>2012-11-24T10:54:38Z</time>
      </trkpt>
      <trkpt lat="46.32992" lon="6.47032">
        <ele>603</ele>
        <time>2012-11-24T10:54:39Z</time>
      </trkpt>
      <trkpt lat="46.3299" lon="6.47031">
        <ele>603</ele>
        <time>2012-11-24T10:54:40Z</time>
      </trkpt>
      <trkpt lat="46.32988" lon="6.47032">
        <ele>603</ele>
        <time>2012-11-24T10:54:41Z</time>
      </trkpt>
      <trkpt lat="46.32986" lon="6.47035">
        <ele>603</ele>
        <time>2012-11-24T10:54:42Z</time>
      </trkpt>
      <trkpt lat="46.32985" lon="6.47038">
        <ele>603</ele>
        <time>2012-11-24T10:54:43Z</time>
      </trkpt>
      <trkpt lat="46.32984" lon="6.47042">
        <ele>603</ele>
        <time>2012-11-24T10:54:44Z</time>
      </trkpt>
      <trkpt lat="46.32985" lon="6.47047">
        <ele>603</ele>
        <time>2012-11-24T10:54:45Z</time>
      </trkpt>
      <trkpt lat="46.32984" lon="6.47051">
        <ele>603</ele>
        <time>2012-11-24T10:54:46Z</time>
      </trkpt>
      <trkpt lat="46.32983" lon="6.47055">
        <ele>603</ele>
        <time>2012-11-24T10:54:47Z</time>
      </trkpt>
      <trkpt lat="46.32983" lon="6.47058">
        <ele>603</ele>
        <time>2012-11-24T10:54:48Z</time>
      </trkpt>
      <trkpt lat="46.32982" lon="6.47062">
        <ele>603</ele>
        <time>2012-11-24T10:54:49Z</time>
      </trkpt>
      <trkpt lat="46.3298" lon="6.47065">
        <ele>603</ele>
        <time>2012-11-24T10:54:50Z</time>
      </trkpt>
      <trkpt lat="46.3298" lon="6.47069">
        <ele>603</ele>
        <time>2012-11-24T10:54:51Z</time>
      </trkpt>
      <trkpt lat="46.32978" lon="6.47071">
        <ele>603</ele>
        <time>2012-11-24T10:54:52Z</time>
      </trkpt>
      <trkpt lat="46.32975" lon="6.47072">
        <ele>603</ele>
        <time>2012-11-24T10:54:53Z</time>
      </trkpt>
      <trkpt lat="46.32972" lon="6.47072">
        <ele>603</ele>
        <time>2012-11-24T10:54:54Z</time>
      </trkpt>
      <trkpt lat="46.3297" lon="6.4707">
        <ele>603</ele>
        <time>2012-11-24T10:54:55Z</time>
      </trkpt>
      <trkpt lat="46.32968" lon="6.47068">
        <ele>603</ele>
        <time>2012-11-24T10:54:56Z</time>
      </trkpt>
      <trkpt lat="46.32966" lon="6.47066">
        <ele>603</ele>
        <time>2012-11-24T10:54:57Z</time>
      </trkpt>
      <trkpt lat="46.32965" lon="6.47063">
        <ele>603</ele>
        <time>2012-11-24T10:54:58Z</time>
      </trkpt>
      <trkpt lat="46.32964" lon="6.47059">
        <ele>603</ele>
        <time>2012-11-24T10:54:59Z</time>
      </trkpt>
      <trkpt lat="46.32964" lon="6.47055">
        <ele>603</ele>
        <time>2012-11-24T10:55:00Z</time>
      </trkpt>
      <trkpt lat="46.32966" lon="6.47053">
        <ele>603</ele>
        <time>2012-11-24T10:55:01Z</time>
      </trkpt>
      <trkpt lat="46.32967" lon="6.47051">
        <ele>603</ele>
        <time>2012-11-24T10:55:02Z</time>
      </trkpt>
      <trkpt lat="46.32968" lon="6.47049">
        <ele>603</ele>
        <time>2012-11-24T10:55:03Z</time>
      </trkpt>
      <trkpt lat="46.3297" lon="6.47047">
        <ele>602</ele>
        <time>2012-11-24T10:55:04Z</time>
      </trkpt>
      <trkpt lat="46.32973" lon="6.47045">
        <ele>602</ele>
        <time>2012-11-24T10:55:05Z</time>
      </trkpt>
      <trkpt lat="46.32975" lon="6.47043">
        <ele>602</ele>
        <time>2012-11-24T10:55:06Z</time>
      </trkpt>
      <trkpt lat="46.32975" lon="6.47041">
        <ele>602</ele>
        <time>2012-11-24T10:55:07Z</time>
      </trkpt>
      <trkpt lat="46.32975" lon="6.47038">
        <ele>602</ele>
        <time>2012-11-24T10:55:08Z</time>
      </trkpt>
      <trkpt lat="46.32976" lon="6.47036">
        <ele>602</ele>
        <time>2012-11-24T10:55:09Z</time>
      </trkpt>
      <trkpt lat="46.32978" lon="6.47033">
        <ele>602</ele>
        <time>2012-11-24T10:55:10Z</time>
      </trkpt>
      <trkpt lat="46.32979" lon="6.47029">
        <ele>602</ele>
        <time>2012-11-24T10:55:11Z</time>
      </trkpt>
      <trkpt lat="46.32979" lon="6.47026">
        <ele>602</ele>
        <time>2012-11-24T10:55:12Z</time>
      </trkpt>
      <trkpt lat="46.3298" lon="6.47023">
        <ele>602</ele>
        <time>2012-11-24T10:55:13Z</time>
      </trkpt>
      <trkpt lat="46.3298" lon="6.4702">
        <ele>602</ele>
        <time>2012-11-24T10:55:14Z</time>
      </trkpt>
      <trkpt lat="46.3298" lon="6.47018">
        <ele>602</ele>
        <time>2012-11-24T10:55:15Z</time>
      </trkpt>
      <trkpt lat="46.32981" lon="6.47015">
        <ele>602</ele>
        <time>2012-11-24T10:55:16Z</time>
      </trkpt>
      <trkpt lat="46.32983" lon="6.47012">
        <ele>602</ele>
        <time>2012-11-24T10:55:17Z</time>
      </trkpt>
      <trkpt lat="46.32983" lon="6.47008">
        <ele>602</ele>
        <time>2012-11-24T10:55:18Z</time>
      </trkpt>
      <trkpt lat="46.32985" lon="6.47004">
        <ele>602</ele>
        <time>2012-11-24T10:55:19Z</time>
      </trkpt>
      <trkpt lat="46.32985" lon="6.47001">
        <ele>602</ele>
        <time>2012-11-24T10:55:20Z</time>
      </trkpt>
      <trkpt lat="46.32987" lon="6.46997">
        <ele>602</ele>
        <time>2012-11-24T10:55:21Z</time>
      </trkpt>
      <trkpt lat="46.32989" lon="6.46994">
        <ele>602</ele>
        <time>2012-11-24T10:55:22Z</time>
      </trkpt>
      <trkpt lat="46.3299" lon="6.46991">
        <ele>602</ele>
        <time>2012-11-24T10:55:23Z</time>
      </trkpt>
      <trkpt lat="46.32992" lon="6.46989">
        <ele>602</ele>
        <time>2012-11-24T10:55:24Z</time>
      </trkpt>
      <trkpt lat="46.32994" lon="6.46986">
        <ele>602</ele>
        <time>2012-11-24T10:55:25Z</time>
      </trkpt>
      <trkpt lat="46.32996" lon="6.46985">
        <ele>602</ele>
        <time>2012-11-24T10:55:26Z</time>
      </trkpt>
      <trkpt lat="46.32997" lon="6.46985">
        <ele>602</ele>
        <time>2012-11-24T10:55:27Z</time>
      </trkpt>
      <trkpt lat="46.32999" lon="6.46984">
        <ele>603</ele>
        <time>2012-11-24T10:55:28Z</time>
      </trkpt>
      <trkpt lat="46.33002" lon="6.46984">
        <ele>603</ele>
        <time>2012-11-24T10:55:29Z</time>
      </trkpt>
      <trkpt lat="46.33004" lon="6.46984">
        <ele>604</ele>
        <time>2012-11-24T10:55:30Z</time>
      </trkpt>
      <trkpt lat="46.33007" lon="6.46984">
        <ele>604</ele>
        <time>2012-11-24T10:55:31Z</time>
      </trkpt>
      <trkpt lat="46.33009" lon="6.46983">
        <ele>605</ele>
        <time>2012-11-24T10:55:32Z</time>
      </trkpt>
      <trkpt lat="46.33011" lon="6.46981">
        <ele>606</ele>
        <time>2012-11-24T10:55:33Z</time>
      </trkpt>
      <trkpt lat="46.33013" lon="6.46979">
        <ele>607</ele>
        <time>2012-11-24T10:55:34Z</time>
      </trkpt>
      <trkpt lat="46.33015" lon="6.46976">
        <ele>607</ele>
        <time>2012-11-24T10:55:35Z</time>
      </trkpt>
      <trkpt lat="46.33017" lon="6.46974">
        <ele>607</ele>
        <time>2012-11-24T10:55:36Z</time>
      </trkpt>
      <trkpt lat="46.33018" lon="6.46972">
        <ele>607</ele>
        <time>2012-11-24T10:55:37Z</time>
      </trkpt>
      <trkpt lat="46.33021" lon="6.46969">
        <ele>607</ele>
        <time>2012-11-24T10:55:38Z</time>
      </trkpt>
      <trkpt lat="46.33022" lon="6.46967">
        <ele>607</ele>
        <time>2012-11-24T10:55:39Z</time>
      </trkpt>
      <trkpt lat="46.33023" lon="6.46964">
        <ele>607</ele>
        <time>2012-11-24T10:55:40Z</time>
      </trkpt>
      <trkpt lat="46.33024" lon="6.46962">
        <ele>607</ele>
        <time>2012-11-24T10:55:41Z</time>
      </trkpt>
      <trkpt lat="46.33025" lon="6.4696">
        <ele>607</ele>
        <time>2012-11-24T10:55:42Z</time>
      </trkpt>
      <trkpt lat="46.33025" lon="6.46957">
        <ele>607</ele>
        <time>2012-11-24T10:55:43Z</time>
      </trkpt>
      <trkpt lat="46.33025" lon="6.46955">
        <ele>607</ele>
        <time>2012-11-24T10:55:44Z</time>
      </trkpt>
      <trkpt lat="46.33027" lon="6.46953">
        <ele>607</ele>
        <time>2012-11-24T10:55:45Z</time>
      </trkpt>
      <trkpt lat="46.33028" lon="6.4695">
        <ele>607</ele>
        <time>2012-11-24T10:55:46Z</time>
      </trkpt>
      <trkpt lat="46.33028" lon="6.46948">
        <ele>607</ele>
        <time>2012-11-24T10:55:47Z</time>
      </trkpt>
      <trkpt lat="46.33028" lon="6.46945">
        <ele>607</ele>
        <time>2012-11-24T10:55:48Z</time>
      </trkpt>
      <trkpt lat="46.33029" lon="6.46943">
        <ele>608</ele>
        <time>2012-11-24T10:55:49Z</time>
      </trkpt>
      <trkpt lat="46.3303" lon="6.46941">
        <ele>608</ele>
        <time>2012-11-24T10:55:50Z</time>
      </trkpt>
      <trkpt lat="46.3303" lon="6.46938">
        <ele>608</ele>
        <time>2012-11-24T10:55:51Z</time>
      </trkpt>
      <trkpt lat="46.33031" lon="6.46936">
        <ele>608</ele>
        <time>2012-11-24T10:55:52Z</time>
      </trkpt>
      <trkpt lat="46.33031" lon="6.46934">
        <ele>608</ele>
        <time>2012-11-24T10:55:53Z</time>
      </trkpt>
      <trkpt lat="46.33031" lon="6.46931">
        <ele>609</ele>
        <time>2012-11-24T10:55:54Z</time>
      </trkpt>
      <trkpt lat="46.33032" lon="6.46929">
        <ele>609</ele>
        <time>2012-11-24T10:55:55Z</time>
      </trkpt>
      <trkpt lat="46.33033" lon="6.46927">
        <ele>609</ele>
        <time>2012-11-24T10:55:56Z</time>
      </trkpt>
      <trkpt lat="46.33033" lon="6.46925">
        <ele>609</ele>
        <time>2012-11-24T10:55:57Z</time>
      </trkpt>
      <trkpt lat="46.33034" lon="6.46923">
        <ele>609</ele>
        <time>2012-11-24T10:55:58Z</time>
      </trkpt>
      <trkpt lat="46.33034" lon="6.46921">
        <ele>609</ele>
        <time>2012-11-24T10:55:59Z</time>
      </trkpt>
      <trkpt lat="46.33036" lon="6.46919">
        <ele>609</ele>
        <time>2012-11-24T10:56:00Z</time>
      </trkpt>
      <trkpt lat="46.33037" lon="6.46917">
        <ele>609</ele>
        <time>2012-11-24T10:56:01Z</time>
      </trkpt>
      <trkpt lat="46.33037" lon="6.46915">
        <ele>610</ele>
        <time>2012-11-24T10:56:02Z</time>
      </trkpt>
      <trkpt lat="46.33039" lon="6.46913">
        <ele>611</ele>
        <time>2012-11-24T10:56:03Z</time>
      </trkpt>
      <trkpt lat="46.33039" lon="6.4691">
        <ele>612</ele>
        <time>2012-11-24T10:56:04Z</time>
      </trkpt>
      <trkpt lat="46.33039" lon="6.46908">
        <ele>612</ele>
        <time>2012-11-24T10:56:05Z</time>
      </trkpt>
      <trkpt lat="46.3304" lon="6.46907">
        <ele>612</ele>
        <time>2012-11-24T10:56:06Z</time>
      </trkpt>
      <trkpt lat="46.33041" lon="6.46905">
        <ele>612</ele>
        <time>2012-11-24T10:56:07Z</time>
      </trkpt>
      <trkpt lat="46.33041" lon="6.46902">
        <ele>612</ele>
        <time>2012-11-24T10:56:08Z</time>
      </trkpt>
      <trkpt lat="46.33042" lon="6.469">
        <ele>613</ele>
        <time>2012-11-24T10:56:09Z</time>
      </trkpt>
      <trkpt lat="46.33043" lon="6.46899">
        <ele>613</ele>
        <time>2012-11-24T10:56:10Z</time>
      </trkpt>
      <trkpt lat="46.33045" lon="6.46897">
        <ele>614</ele>
        <time>2012-11-24T10:56:11Z</time>
      </trkpt>
      <trkpt lat="46.33046" lon="6.46896">
        <ele>615</ele>
        <time>2012-11-24T10:56:12Z</time>
      </trkpt>
      <trkpt lat="46.33048" lon="6.46895">
        <ele>616</ele>
        <time>2012-11-24T10:56:13Z</time>
      </trkpt>
      <trkpt lat="46.33049" lon="6.46892">
        <ele>617</ele>
        <time>2012-11-24T10:56:14Z</time>
      </trkpt>
      <trkpt lat="46.33049" lon="6.46889">
        <ele>618</ele>
        <time>2012-11-24T10:56:15Z</time>
      </trkpt>
      <trkpt lat="46.33049" lon="6.46886">
        <ele>619</ele>
        <time>2012-11-24T10:56:16Z</time>
      </trkpt>
      <trkpt lat="46.33049" lon="6.46884">
        <ele>620</ele>
        <time>2012-11-24T10:56:17Z</time>
      </trkpt>
      <trkpt lat="46.3305" lon="6.46883">
        <ele>621</ele>
        <time>2012-11-24T10:56:18Z</time>
      </trkpt>
      <trkpt lat="46.3305" lon="6.46881">
        <ele>621</ele>
        <time>2012-11-24T10:56:19Z</time>
      </trkpt>
      <trkpt lat="46.3305" lon="6.46878">
        <ele>622</ele>
        <time>2012-11-24T10:56:20Z</time>
      </trkpt>
      <trkpt lat="46.33051" lon="6.46876">
        <ele>622</ele>
        <time>2012-11-24T10:56:21Z</time>
      </trkpt>
      <trkpt lat="46.33052" lon="6.46874">
        <ele>623</ele>
        <time>2012-11-24T10:56:22Z</time>
      </trkpt>
      <trkpt lat="46.33054" lon="6.46872">
        <ele>624</ele>
        <time>2012-11-24T10:56:23Z</time>
      </trkpt>
      <trkpt lat="46.33056" lon="6.4687">
        <ele>625</ele>
        <time>2012-11-24T10:56:24Z</time>
      </trkpt>
      <trkpt lat="46.33057" lon="6.46869">
        <ele>626</ele>
        <time>2012-11-24T10:56:25Z</time>
      </trkpt>
      <trkpt lat="46.33059" lon="6.46867">
        <ele>627</ele>
        <time>2012-11-24T10:56:26Z</time>
      </trkpt>
      <trkpt lat="46.33059" lon="6.46864">
        <ele>627</ele>
        <time>2012-11-24T10:56:27Z</time>
      </trkpt>
      <trkpt lat="46.33059" lon="6.46862">
        <ele>627</ele>
        <time>2012-11-24T10:56:28Z</time>
      </trkpt>
      <trkpt lat="46.33059" lon="6.4686">
        <ele>627</ele>
        <time>2012-11-24T10:56:30Z</time>
      </trkpt>
      <trkpt lat="46.3306" lon="6.46858">
        <ele>628</ele>
        <time>2012-11-24T10:56:30Z</time>
      </trkpt>
      <trkpt lat="46.33062" lon="6.46856">
        <ele>629</ele>
        <time>2012-11-24T10:56:31Z</time>
      </trkpt>
      <trkpt lat="46.33064" lon="6.46854">
        <ele>631</ele>
        <time>2012-11-24T10:56:33Z</time>
      </trkpt>
      <trkpt lat="46.33064" lon="6.46852">
        <ele>632</ele>
        <time>2012-11-24T10:56:34Z</time>
      </trkpt>
      <trkpt lat="46.33065" lon="6.46849">
        <ele>632</ele>
        <time>2012-11-24T10:56:35Z</time>
      </trkpt>
      <trkpt lat="46.33066" lon="6.46846">
        <ele>632</ele>
        <time>2012-11-24T10:56:36Z</time>
      </trkpt>
      <trkpt lat="46.33068" lon="6.46844">
        <ele>632</ele>
        <time>2012-11-24T10:56:37Z</time>
      </trkpt>
      <trkpt lat="46.33069" lon="6.46842">
        <ele>632</ele>
        <time>2012-11-24T10:56:38Z</time>
      </trkpt>
      <trkpt lat="46.33071" lon="6.4684">
        <ele>632</ele>
        <time>2012-11-24T10:56:39Z</time>
      </trkpt>
      <trkpt lat="46.33072" lon="6.46838">
        <ele>632</ele>
        <time>2012-11-24T10:56:40Z</time>
      </trkpt>
      <trkpt lat="46.33074" lon="6.46837">
        <ele>632</ele>
        <time>2012-11-24T10:56:41Z</time>
      </trkpt>
      <trkpt lat="46.33077" lon="6.46835">
        <ele>632</ele>
        <time>2012-11-24T10:56:43Z</time>
      </trkpt>
      <trkpt lat="46.33078" lon="6.46833">
        <ele>632</ele>
        <time>2012-11-24T10:56:44Z</time>
      </trkpt>
      <trkpt lat="46.33079" lon="6.46831">
        <ele>632</ele>
        <time>2012-11-24T10:56:45Z</time>
      </trkpt>
      <trkpt lat="46.33082" lon="6.46829">
        <ele>632</ele>
        <time>2012-11-24T10:56:46Z</time>
      </trkpt>
      <trkpt lat="46.33082" lon="6.46826">
        <ele>632</ele>
        <time>2012-11-24T10:56:47Z</time>
      </trkpt>
      <trkpt lat="46.33083" lon="6.46824">
        <ele>632</ele>
        <time>2012-11-24T10:56:48Z</time>
      </trkpt>
      <trkpt lat="46.33084" lon="6.46821">
        <ele>632</ele>
        <time>2012-11-24T10:56:49Z</time>
      </trkpt>
      <trkpt lat="46.33085" lon="6.46819">
        <ele>632</ele>
        <time>2012-11-24T10:56:50Z</time>
      </trkpt>
      <trkpt lat="46.33087" lon="6.46818">
        <ele>632</ele>
        <time>2012-11-24T10:56:51Z</time>
      </trkpt>
      <trkpt lat="46.33088" lon="6.46816">
        <ele>632</ele>
        <time>2012-11-24T10:56:52Z</time>
      </trkpt>
      <trkpt lat="46.3309" lon="6.46814">
        <ele>632</ele>
        <time>2012-11-24T10:56:54Z</time>
      </trkpt>
      <trkpt lat="46.33092" lon="6.46812">
        <ele>632</ele>
        <time>2012-11-24T10:56:56Z</time>
      </trkpt>
      <trkpt lat="46.33093" lon="6.46811">
        <ele>632</ele>
        <time>2012-11-24T10:56:57Z</time>
      </trkpt>
      <trkpt lat="46.33095" lon="6.46808">
        <ele>632</ele>
        <time>2012-11-24T10:56:59Z</time>
      </trkpt>
      <trkpt lat="46.33096" lon="6.46806">
        <ele>632</ele>
        <time>2012-11-24T10:57:00Z</time>
      </trkpt>
      <trkpt lat="46.33098" lon="6.46804">
        <ele>632</ele>
        <time>2012-11-24T10:57:01Z</time>
      </trkpt>
      <trkpt lat="46.33099" lon="6.46803">
        <ele>632</ele>
        <time>2012-11-24T10:57:02Z</time>
      </trkpt>
      <trkpt lat="46.33101" lon="6.46802">
        <ele>632</ele>
        <time>2012-11-24T10:57:03Z</time>
      </trkpt>
      <trkpt lat="46.33102" lon="6.468">
        <ele>632</ele>
        <time>2012-11-24T10:57:04Z</time>
      </trkpt>
      <trkpt lat="46.33104" lon="6.46799">
        <ele>632</ele>
        <time>2012-11-24T10:57:05Z</time>
      </trkpt>
      <trkpt lat="46.33106" lon="6.46797">
        <ele>632</ele>
        <time>2012-11-24T10:57:06Z</time>
      </trkpt>
      <trkpt lat="46.33108" lon="6.46794">
        <ele>633</ele>
        <time>2012-11-24T10:57:07Z</time>
      </trkpt>
      <trkpt lat="46.3311" lon="6.46792">
        <ele>634</ele>
        <time>2012-11-24T10:57:08Z</time>
      </trkpt>
      <trkpt lat="46.33111" lon="6.46791">
        <ele>634</ele>
        <time>2012-11-24T10:57:09Z</time>
      </trkpt>
      <trkpt lat="46.33112" lon="6.46789">
        <ele>635</ele>
        <time>2012-11-24T10:57:10Z</time>
      </trkpt>
      <trkpt lat="46.33113" lon="6.46788">
        <ele>636</ele>
        <time>2012-11-24T10:57:11Z</time>
      </trkpt>
      <trkpt lat="46.33114" lon="6.46786">
        <ele>636</ele>
        <time>2012-11-24T10:57:12Z</time>
      </trkpt>
      <trkpt lat="46.33115" lon="6.46784">
        <ele>636</ele>
        <time>2012-11-24T10:57:13Z</time>
      </trkpt>
      <trkpt lat="46.33116" lon="6.46783">
        <ele>636</ele>
        <time>2012-11-24T10:57:14Z</time>
      </trkpt>
      <trkpt lat="46.33118" lon="6.46781">
        <ele>637</ele>
        <time>2012-11-24T10:57:15Z</time>
      </trkpt>
      <trkpt lat="46.33119" lon="6.46779">
        <ele>637</ele>
        <time>2012-11-24T10:57:16Z</time>
      </trkpt>
      <trkpt lat="46.3312" lon="6.46778">
        <ele>637</ele>
        <time>2012-11-24T10:57:17Z</time>
      </trkpt>
      <trkpt lat="46.33121" lon="6.46775">
        <ele>638</ele>
        <time>2012-11-24T10:57:18Z</time>
      </trkpt>
      <trkpt lat="46.33123" lon="6.46773">
        <ele>638</ele>
        <time>2012-11-24T10:57:19Z</time>
      </trkpt>
      <trkpt lat="46.33124" lon="6.46771">
        <ele>639</ele>
        <time>2012-11-24T10:57:20Z</time>
      </trkpt>
      <trkpt lat="46.33126" lon="6.4677">
        <ele>639</ele>
        <time>2012-11-24T10:57:21Z</time>
      </trkpt>
      <trkpt lat="46.33128" lon="6.46767">
        <ele>640</ele>
        <time>2012-11-24T10:57:22Z</time>
      </trkpt>
      <trkpt lat="46.33129" lon="6.46764">
        <ele>640</ele>
        <time>2012-11-24T10:57:23Z</time>
      </trkpt>
      <trkpt lat="46.33131" lon="6.46763">
        <ele>640</ele>
        <time>2012-11-24T10:57:24Z</time>
      </trkpt>
      <trkpt lat="46.33133" lon="6.4676">
        <ele>641</ele>
        <time>2012-11-24T10:57:26Z</time>
      </trkpt>
      <trkpt lat="46.33134" lon="6.46758">
        <ele>643</ele>
        <time>2012-11-24T10:57:28Z</time>
      </trkpt>
      <trkpt lat="46.33135" lon="6.46756">
        <ele>644</ele>
        <time>2012-11-24T10:57:29Z</time>
      </trkpt>
      <trkpt lat="46.33136" lon="6.46754">
        <ele>644</ele>
        <time>2012-11-24T10:57:30Z</time>
      </trkpt>
      <trkpt lat="46.33139" lon="6.46752">
        <ele>644</ele>
        <time>2012-11-24T10:57:31Z</time>
      </trkpt>
      <trkpt lat="46.33141" lon="6.46749">
        <ele>644</ele>
        <time>2012-11-24T10:57:32Z</time>
      </trkpt>
      <trkpt lat="46.33142" lon="6.46747">
        <ele>644</ele>
        <time>2012-11-24T10:57:33Z</time>
      </trkpt>
      <trkpt lat="46.33144" lon="6.46745">
        <ele>644</ele>
        <time>2012-11-24T10:57:34Z</time>
      </trkpt>
      <trkpt lat="46.33145" lon="6.46743">
        <ele>644</ele>
        <time>2012-11-24T10:57:35Z</time>
      </trkpt>
      <trkpt lat="46.33147" lon="6.46741">
        <ele>644</ele>
        <time>2012-11-24T10:57:37Z</time>
      </trkpt>
      <trkpt lat="46.33147" lon="6.46739">
        <ele>644</ele>
        <time>2012-11-24T10:57:38Z</time>
      </trkpt>
      <trkpt lat="46.33149" lon="6.46738">
        <ele>644</ele>
        <time>2012-11-24T10:57:39Z</time>
      </trkpt>
      <trkpt lat="46.33149" lon="6.46736">
        <ele>644</ele>
        <time>2012-11-24T10:57:40Z</time>
      </trkpt>
      <trkpt lat="46.3315" lon="6.46734">
        <ele>644</ele>
        <time>2012-11-24T10:57:41Z</time>
      </trkpt>
      <trkpt lat="46.33152" lon="6.46732">
        <ele>645</ele>
        <time>2012-11-24T10:57:42Z</time>
      </trkpt>
      <trkpt lat="46.33153" lon="6.4673">
        <ele>646</ele>
        <time>2012-11-24T10:57:43Z</time>
      </trkpt>
      <trkpt lat="46.33154" lon="6.46726">
        <ele>647</ele>
        <time>2012-11-24T10:57:44Z</time>
      </trkpt>
      <trkpt lat="46.33155" lon="6.46723">
        <ele>648</ele>
        <time>2012-11-24T10:57:45Z</time>
      </trkpt>
      <trkpt lat="46.33155" lon="6.4672">
        <ele>648</ele>
        <time>2012-11-24T10:57:46Z</time>
      </trkpt>
      <trkpt lat="46.33155" lon="6.46717">
        <ele>649</ele>
        <time>2012-11-24T10:57:47Z</time>
      </trkpt>
      <trkpt lat="46.33156" lon="6.46715">
        <ele>649</ele>
        <time>2012-11-24T10:57:48Z</time>
      </trkpt>
      <trkpt lat="46.33157" lon="6.46713">
        <ele>649</ele>
        <time>2012-11-24T10:57:49Z</time>
      </trkpt>
      <trkpt lat="46.33157" lon="6.46712">
        <ele>649</ele>
        <time>2012-11-24T10:57:50Z</time>
      </trkpt>
      <trkpt lat="46.33157" lon="6.4671">
        <ele>649</ele>
        <time>2012-11-24T10:57:51Z</time>
      </trkpt>
      <trkpt lat="46.33158" lon="6.46707">
        <ele>649</ele>
        <time>2012-11-24T10:57:52Z</time>
      </trkpt>
      <trkpt lat="46.33159" lon="6.46705">
        <ele>650</ele>
        <time>2012-11-24T10:57:53Z</time>
      </trkpt>
      <trkpt lat="46.33161" lon="6.46702">
        <ele>651</ele>
        <time>2012-11-24T10:57:54Z</time>
      </trkpt>
      <trkpt lat="46.33162" lon="6.467">
        <ele>652</ele>
        <time>2012-11-24T10:57:55Z</time>
      </trkpt>
      <trkpt lat="46.33163" lon="6.46697">
        <ele>653</ele>
        <time>2012-11-24T10:57:56Z</time>
      </trkpt>
      <trkpt lat="46.33163" lon="6.46694">
        <ele>653</ele>
        <time>2012-11-24T10:57:57Z</time>
      </trkpt>
      <trkpt lat="46.33163" lon="6.46692">
        <ele>654</ele>
        <time>2012-11-24T10:57:58Z</time>
      </trkpt>
      <trkpt lat="46.33164" lon="6.4669">
        <ele>655</ele>
        <time>2012-11-24T10:57:59Z</time>
      </trkpt>
      <trkpt lat="46.33164" lon="6.46688">
        <ele>656</ele>
        <time>2012-11-24T10:58:00Z</time>
      </trkpt>
      <trkpt lat="46.33164" lon="6.46686">
        <ele>657</ele>
        <time>2012-11-24T10:58:01Z</time>
      </trkpt>
      <trkpt lat="46.33165" lon="6.46683">
        <ele>658</ele>
        <time>2012-11-24T10:58:02Z</time>
      </trkpt>
      <trkpt lat="46.33166" lon="6.46681">
        <ele>659</ele>
        <time>2012-11-24T10:58:03Z</time>
      </trkpt>
      <trkpt lat="46.33167" lon="6.46679">
        <ele>660</ele>
        <time>2012-11-24T10:58:04Z</time>
      </trkpt>
      <trkpt lat="46.33166" lon="6.46677">
        <ele>661</ele>
        <time>2012-11-24T10:58:05Z</time>
      </trkpt>
      <trkpt lat="46.33166" lon="6.46675">
        <ele>661</ele>
        <time>2012-11-24T10:58:06Z</time>
      </trkpt>
      <trkpt lat="46.33165" lon="6.46672">
        <ele>661</ele>
        <time>2012-11-24T10:58:07Z</time>
      </trkpt>
      <trkpt lat="46.33165" lon="6.46669">
        <ele>661</ele>
        <time>2012-11-24T10:58:08Z</time>
      </trkpt>
      <trkpt lat="46.33165" lon="6.46666">
        <ele>661</ele>
        <time>2012-11-24T10:58:09Z</time>
      </trkpt>
      <trkpt lat="46.33164" lon="6.46664">
        <ele>662</ele>
        <time>2012-11-24T10:58:10Z</time>
      </trkpt>
      <trkpt lat="46.33164" lon="6.46662">
        <ele>663</ele>
        <time>2012-11-24T10:58:11Z</time>
      </trkpt>
      <trkpt lat="46.33162" lon="6.46659">
        <ele>664</ele>
        <time>2012-11-24T10:58:12Z</time>
      </trkpt>
      <trkpt lat="46.33162" lon="6.46655">
        <ele>665</ele>
        <time>2012-11-24T10:58:13Z</time>
      </trkpt>
      <trkpt lat="46.33162" lon="6.46652">
        <ele>666</ele>
        <time>2012-11-24T10:58:14Z</time>
      </trkpt>
      <trkpt lat="46.33161" lon="6.46648">
        <ele>667</ele>
        <time>2012-11-24T10:58:15Z</time>
      </trkpt>
      <trkpt lat="46.33161" lon="6.46645">
        <ele>668</ele>
        <time>2012-11-24T10:58:16Z</time>
      </trkpt>
      <trkpt lat="46.33161" lon="6.46643">
        <ele>668</ele>
        <time>2012-11-24T10:58:17Z</time>
      </trkpt>
      <trkpt lat="46.3316" lon="6.4664">
        <ele>668</ele>
        <time>2012-11-24T10:58:18Z</time>
      </trkpt>
      <trkpt lat="46.3316" lon="6.46636">
        <ele>669</ele>
        <time>2012-11-24T10:58:19Z</time>
      </trkpt>
      <trkpt lat="46.33158" lon="6.46633">
        <ele>669</ele>
        <time>2012-11-24T10:58:20Z</time>
      </trkpt>
      <trkpt lat="46.33157" lon="6.4663">
        <ele>669</ele>
        <time>2012-11-24T10:58:21Z</time>
      </trkpt>
      <trkpt lat="46.33156" lon="6.46627">
        <ele>669</ele>
        <time>2012-11-24T10:58:22Z</time>
      </trkpt>
      <trkpt lat="46.33155" lon="6.46624">
        <ele>669</ele>
        <time>2012-11-24T10:58:23Z</time>
      </trkpt>
      <trkpt lat="46.33154" lon="6.46621">
        <ele>669</ele>
        <time>2012-11-24T10:58:24Z</time>
      </trkpt>
      <trkpt lat="46.33154" lon="6.46617">
        <ele>669</ele>
        <time>2012-11-24T10:58:25Z</time>
      </trkpt>
      <trkpt lat="46.33153" lon="6.46613">
        <ele>669</ele>
        <time>2012-11-24T10:58:26Z</time>
      </trkpt>
      <trkpt lat="46.33151" lon="6.4661">
        <ele>669</ele>
        <time>2012-11-24T10:58:27Z</time>
      </trkpt>
      <trkpt lat="46.33149" lon="6.46608">
        <ele>669</ele>
        <time>2012-11-24T10:58:28Z</time>
      </trkpt>
      <trkpt lat="46.33149" lon="6.46605">
        <ele>669</ele>
        <time>2012-11-24T10:58:29Z</time>
      </trkpt>
      <trkpt lat="46.33148" lon="6.46602">
        <ele>669</ele>
        <time>2012-11-24T10:58:30Z</time>
      </trkpt>
      <trkpt lat="46.33148" lon="6.466">
        <ele>669</ele>
        <time>2012-11-24T10:58:31Z</time>
      </trkpt>
      <trkpt lat="46.33147" lon="6.46597">
        <ele>669</ele>
        <time>2012-11-24T10:58:32Z</time>
      </trkpt>
      <trkpt lat="46.33146" lon="6.46594">
        <ele>668</ele>
        <time>2012-11-24T10:58:33Z</time>
      </trkpt>
      <trkpt lat="46.33145" lon="6.46591">
        <ele>668</ele>
        <time>2012-11-24T10:58:34Z</time>
      </trkpt>
      <trkpt lat="46.33143" lon="6.46587">
        <ele>667</ele>
        <time>2012-11-24T10:58:35Z</time>
      </trkpt>
      <trkpt lat="46.33141" lon="6.46585">
        <ele>666</ele>
        <time>2012-11-24T10:58:36Z</time>
      </trkpt>
      <trkpt lat="46.33139" lon="6.46585">
        <ele>666</ele>
        <time>2012-11-24T10:58:37Z</time>
      </trkpt>
      <trkpt lat="46.33137" lon="6.46584">
        <ele>665</ele>
        <time>2012-11-24T10:58:38Z</time>
      </trkpt>
      <trkpt lat="46.33135" lon="6.46583">
        <ele>665</ele>
        <time>2012-11-24T10:58:39Z</time>
      </trkpt>
      <trkpt lat="46.33133" lon="6.46582">
        <ele>665</ele>
        <time>2012-11-24T10:58:40Z</time>
      </trkpt>
      <trkpt lat="46.33131" lon="6.46581">
        <ele>665</ele>
        <time>2012-11-24T10:58:41Z</time>
      </trkpt>
      <trkpt lat="46.3313" lon="6.4658">
        <ele>665</ele>
        <time>2012-11-24T10:58:42Z</time>
      </trkpt>
      <trkpt lat="46.33128" lon="6.46579">
        <ele>664</ele>
        <time>2012-11-24T10:58:43Z</time>
      </trkpt>
      <trkpt lat="46.33126" lon="6.46577">
        <ele>664</ele>
        <time>2012-11-24T10:58:44Z</time>
      </trkpt>
      <trkpt lat="46.33125" lon="6.46576">
        <ele>664</ele>
        <time>2012-11-24T10:58:45Z</time>
      </trkpt>
      <trkpt lat="46.33123" lon="6.46574">
        <ele>664</ele>
        <time>2012-11-24T10:58:46Z</time>
      </trkpt>
      <trkpt lat="46.33122" lon="6.46574">
        <ele>664</ele>
        <time>2012-11-24T10:58:47Z</time>
      </trkpt>
      <trkpt lat="46.3312" lon="6.46573">
        <ele>664</ele>
        <time>2012-11-24T10:58:48Z</time>
      </trkpt>
      <trkpt lat="46.33118" lon="6.46573">
        <ele>663</ele>
        <time>2012-11-24T10:58:49Z</time>
      </trkpt>
      <trkpt lat="46.33117" lon="6.46573">
        <ele>663</ele>
        <time>2012-11-24T10:58:50Z</time>
      </trkpt>
      <trkpt lat="46.33115" lon="6.46568">
        <ele>663</ele>
        <time>2012-11-24T10:58:52Z</time>
      </trkpt>
      <trkpt lat="46.33113" lon="6.46566">
        <ele>663</ele>
        <time>2012-11-24T10:58:53Z</time>
      </trkpt>
      <trkpt lat="46.33113" lon="6.46564">
        <ele>663</ele>
        <time>2012-11-24T10:58:54Z</time>
      </trkpt>
      <trkpt lat="46.33112" lon="6.46562">
        <ele>663</ele>
        <time>2012-11-24T10:58:55Z</time>
      </trkpt>
      <trkpt lat="46.33117" lon="6.46563">
        <ele>663</ele>
        <time>2012-11-24T10:59:00Z</time>
      </trkpt>
      <trkpt lat="46.3312" lon="6.46568">
        <ele>663</ele>
        <time>2012-11-24T10:59:01Z</time>
      </trkpt>
      <trkpt lat="46.33121" lon="6.46567">
        <ele>663</ele>
        <time>2012-11-24T10:59:02Z</time>
      </trkpt>
      <trkpt lat="46.33123" lon="6.46566">
        <ele>663</ele>
        <time>2012-11-24T10:59:03Z</time>
      </trkpt>
      <trkpt lat="46.33125" lon="6.46566">
        <ele>663</ele>
        <time>2012-11-24T10:59:04Z</time>
      </trkpt>
      <trkpt lat="46.33126" lon="6.46565">
        <ele>663</ele>
        <time>2012-11-24T10:59:05Z</time>
      </trkpt>
      <trkpt lat="46.33128" lon="6.46565">
        <ele>664</ele>
        <time>2012-11-24T10:59:06Z</time>
      </trkpt>
      <trkpt lat="46.33129" lon="6.46566">
        <ele>664</ele>
        <time>2012-11-24T10:59:07Z</time>
      </trkpt>
      <trkpt lat="46.33131" lon="6.46566">
        <ele>665</ele>
        <time>2012-11-24T10:59:08Z</time>
      </trkpt>
      <trkpt lat="46.33133" lon="6.46564">
        <ele>665</ele>
        <time>2012-11-24T10:59:09Z</time>
      </trkpt>
      <trkpt lat="46.33134" lon="6.46563">
        <ele>665</ele>
        <time>2012-11-24T10:59:10Z</time>
      </trkpt>
      <trkpt lat="46.33136" lon="6.46561">
        <ele>665</ele>
        <time>2012-11-24T10:59:11Z</time>
      </trkpt>
      <trkpt lat="46.33137" lon="6.4656">
        <ele>665</ele>
        <time>2012-11-24T10:59:12Z</time>
      </trkpt>
      <trkpt lat="46.33139" lon="6.46559">
        <ele>665</ele>
        <time>2012-11-24T10:59:13Z</time>
      </trkpt>
      <trkpt lat="46.33141" lon="6.46557">
        <ele>665</ele>
        <time>2012-11-24T10:59:14Z</time>
      </trkpt>
      <trkpt lat="46.33141" lon="6.46555">
        <ele>665</ele>
        <time>2012-11-24T10:59:15Z</time>
      </trkpt>
      <trkpt lat="46.33141" lon="6.46553">
        <ele>665</ele>
        <time>2012-11-24T10:59:16Z</time>
      </trkpt>
      <trkpt lat="46.33141" lon="6.46551">
        <ele>666</ele>
        <time>2012-11-24T10:59:17Z</time>
      </trkpt>
      <trkpt lat="46.33141" lon="6.46549">
        <ele>667</ele>
        <time>2012-11-24T10:59:18Z</time>
      </trkpt>
      <trkpt lat="46.33141" lon="6.46547">
        <ele>667</ele>
        <time>2012-11-24T10:59:19Z</time>
      </trkpt>
      <trkpt lat="46.33141" lon="6.46545">
        <ele>668</ele>
        <time>2012-11-24T10:59:20Z</time>
      </trkpt>
      <trkpt lat="46.33141" lon="6.46543">
        <ele>668</ele>
        <time>2012-11-24T10:59:21Z</time>
      </trkpt>
      <trkpt lat="46.33142" lon="6.46541">
        <ele>669</ele>
        <time>2012-11-24T10:59:23Z</time>
      </trkpt>
      <trkpt lat="46.33143" lon="6.46539">
        <ele>670</ele>
        <time>2012-11-24T10:59:24Z</time>
      </trkpt>
      <trkpt lat="46.33145" lon="6.46539">
        <ele>671</ele>
        <time>2012-11-24T10:59:25Z</time>
      </trkpt>
      <trkpt lat="46.33146" lon="6.46539">
        <ele>672</ele>
        <time>2012-11-24T10:59:26Z</time>
      </trkpt>
      <trkpt lat="46.33148" lon="6.46539">
        <ele>673</ele>
        <time>2012-11-24T10:59:27Z</time>
      </trkpt>
      <trkpt lat="46.33149" lon="6.4654">
        <ele>674</ele>
        <time>2012-11-24T10:59:28Z</time>
      </trkpt>
      <trkpt lat="46.33151" lon="6.46542">
        <ele>674</ele>
        <time>2012-11-24T10:59:29Z</time>
      </trkpt>
      <trkpt lat="46.33152" lon="6.46543">
        <ele>674</ele>
        <time>2012-11-24T10:59:30Z</time>
      </trkpt>
      <trkpt lat="46.33155" lon="6.46545">
        <ele>675</ele>
        <time>2012-11-24T10:59:31Z</time>
      </trkpt>
      <trkpt lat="46.33158" lon="6.46547">
        <ele>676</ele>
        <time>2012-11-24T10:59:32Z</time>
      </trkpt>
      <trkpt lat="46.3316" lon="6.46549">
        <ele>676</ele>
        <time>2012-11-24T10:59:33Z</time>
      </trkpt>
      <trkpt lat="46.33162" lon="6.46551">
        <ele>676</ele>
        <time>2012-11-24T10:59:34Z</time>
      </trkpt>
      <trkpt lat="46.33163" lon="6.46553">
        <ele>676</ele>
        <time>2012-11-24T10:59:35Z</time>
      </trkpt>
      <trkpt lat="46.33165" lon="6.46555">
        <ele>676</ele>
        <time>2012-11-24T10:59:36Z</time>
      </trkpt>
      <trkpt lat="46.33165" lon="6.46557">
        <ele>676</ele>
        <time>2012-11-24T10:59:37Z</time>
      </trkpt>
      <trkpt lat="46.33167" lon="6.46559">
        <ele>676</ele>
        <time>2012-11-24T10:59:38Z</time>
      </trkpt>
      <trkpt lat="46.33168" lon="6.46562">
        <ele>676</ele>
        <time>2012-11-24T10:59:39Z</time>
      </trkpt>
      <trkpt lat="46.3317" lon="6.46564">
        <ele>676</ele>
        <time>2012-11-24T10:59:40Z</time>
      </trkpt>
      <trkpt lat="46.33171" lon="6.46567">
        <ele>676</ele>
        <time>2012-11-24T10:59:41Z</time>
      </trkpt>
      <trkpt lat="46.33172" lon="6.46569">
        <ele>676</ele>
        <time>2012-11-24T10:59:42Z</time>
      </trkpt>
      <trkpt lat="46.33173" lon="6.46571">
        <ele>676</ele>
        <time>2012-11-24T10:59:43Z</time>
      </trkpt>
      <trkpt lat="46.33175" lon="6.46574">
        <ele>676</ele>
        <time>2012-11-24T10:59:44Z</time>
      </trkpt>
      <trkpt lat="46.33176" lon="6.46577">
        <ele>676</ele>
        <time>2012-11-24T10:59:45Z</time>
      </trkpt>
      <trkpt lat="46.33177" lon="6.4658">
        <ele>676</ele>
        <time>2012-11-24T10:59:46Z</time>
      </trkpt>
      <trkpt lat="46.33178" lon="6.46582">
        <ele>676</ele>
        <time>2012-11-24T10:59:47Z</time>
      </trkpt>
      <trkpt lat="46.33179" lon="6.46584">
        <ele>676</ele>
        <time>2012-11-24T10:59:48Z</time>
      </trkpt>
      <trkpt lat="46.33179" lon="6.46586">
        <ele>676</ele>
        <time>2012-11-24T10:59:49Z</time>
      </trkpt>
      <trkpt lat="46.3318" lon="6.46588">
        <ele>676</ele>
        <time>2012-11-24T10:59:50Z</time>
      </trkpt>
      <trkpt lat="46.33181" lon="6.4659">
        <ele>676</ele>
        <time>2012-11-24T10:59:51Z</time>
      </trkpt>
      <trkpt lat="46.33182" lon="6.46592">
        <ele>676</ele>
        <time>2012-11-24T10:59:53Z</time>
      </trkpt>
      <trkpt lat="46.33183" lon="6.46594">
        <ele>676</ele>
        <time>2012-11-24T10:59:54Z</time>
      </trkpt>
      <trkpt lat="46.33184" lon="6.46597">
        <ele>676</ele>
        <time>2012-11-24T10:59:55Z</time>
      </trkpt>
      <trkpt lat="46.33184" lon="6.466">
        <ele>675</ele>
        <time>2012-11-24T10:59:56Z</time>
      </trkpt>
      <trkpt lat="46.33186" lon="6.46603">
        <ele>674</ele>
        <time>2012-11-24T10:59:57Z</time>
      </trkpt>
      <trkpt lat="46.33188" lon="6.46607">
        <ele>674</ele>
        <time>2012-11-24T10:59:58Z</time>
      </trkpt>
      <trkpt lat="46.3319" lon="6.4661">
        <ele>674</ele>
        <time>2012-11-24T10:59:59Z</time>
      </trkpt>
      <trkpt lat="46.33192" lon="6.46612">
        <ele>674</ele>
        <time>2012-11-24T11:00:00Z</time>
      </trkpt>
      <trkpt lat="46.33194" lon="6.46615">
        <ele>674</ele>
        <time>2012-11-24T11:00:01Z</time>
      </trkpt>
      <trkpt lat="46.33195" lon="6.46618">
        <ele>674</ele>
        <time>2012-11-24T11:00:02Z</time>
      </trkpt>
      <trkpt lat="46.33197" lon="6.46619">
        <ele>674</ele>
        <time>2012-11-24T11:00:03Z</time>
      </trkpt>
      <trkpt lat="46.33199" lon="6.46621">
        <ele>674</ele>
        <time>2012-11-24T11:00:04Z</time>
      </trkpt>
      <trkpt lat="46.33202" lon="6.46622">
        <ele>674</ele>
        <time>2012-11-24T11:00:05Z</time>
      </trkpt>
      <trkpt lat="46.33203" lon="6.46624">
        <ele>674</ele>
        <time>2012-11-24T11:00:06Z</time>
      </trkpt>
      <trkpt lat="46.33205" lon="6.46627">
        <ele>675</ele>
        <time>2012-11-24T11:00:08Z</time>
      </trkpt>
      <trkpt lat="46.33207" lon="6.46628">
        <ele>676</ele>
        <time>2012-11-24T11:00:10Z</time>
      </trkpt>
      <trkpt lat="46.33208" lon="6.4663">
        <ele>676</ele>
        <time>2012-11-24T11:00:11Z</time>
      </trkpt>
      <trkpt lat="46.33209" lon="6.46633">
        <ele>676</ele>
        <time>2012-11-24T11:00:12Z</time>
      </trkpt>
      <trkpt lat="46.3321" lon="6.46636">
        <ele>676</ele>
        <time>2012-11-24T11:00:13Z</time>
      </trkpt>
      <trkpt lat="46.33211" lon="6.4664">
        <ele>676</ele>
        <time>2012-11-24T11:00:14Z</time>
      </trkpt>
      <trkpt lat="46.33212" lon="6.46643">
        <ele>676</ele>
        <time>2012-11-24T11:00:15Z</time>
      </trkpt>
      <trkpt lat="46.33213" lon="6.46648">
        <ele>676</ele>
        <time>2012-11-24T11:00:16Z</time>
      </trkpt>
      <trkpt lat="46.33215" lon="6.46652">
        <ele>676</ele>
        <time>2012-11-24T11:00:17Z</time>
      </trkpt>
      <trkpt lat="46.33216" lon="6.46656">
        <ele>676</ele>
        <time>2012-11-24T11:00:18Z</time>
      </trkpt>
      <trkpt lat="46.33218" lon="6.46659">
        <ele>676</ele>
        <time>2012-11-24T11:00:19Z</time>
      </trkpt>
      <trkpt lat="46.33219" lon="6.46662">
        <ele>676</ele>
        <time>2012-11-24T11:00:20Z</time>
      </trkpt>
      <trkpt lat="46.3322" lon="6.46665">
        <ele>676</ele>
        <time>2012-11-24T11:00:21Z</time>
      </trkpt>
      <trkpt lat="46.3322" lon="6.46668">
        <ele>676</ele>
        <time>2012-11-24T11:00:22Z</time>
      </trkpt>
      <trkpt lat="46.3322" lon="6.46673">
        <ele>676</ele>
        <time>2012-11-24T11:00:23Z</time>
      </trkpt>
      <trkpt lat="46.33221" lon="6.46677">
        <ele>676</ele>
        <time>2012-11-24T11:00:24Z</time>
      </trkpt>
      <trkpt lat="46.33222" lon="6.46681">
        <ele>676</ele>
        <time>2012-11-24T11:00:25Z</time>
      </trkpt>
      <trkpt lat="46.33223" lon="6.46684">
        <ele>676</ele>
        <time>2012-11-24T11:00:26Z</time>
      </trkpt>
      <trkpt lat="46.33224" lon="6.46687">
        <ele>676</ele>
        <time>2012-11-24T11:00:27Z</time>
      </trkpt>
      <trkpt lat="46.33226" lon="6.4669">
        <ele>676</ele>
        <time>2012-11-24T11:00:28Z</time>
      </trkpt>
      <trkpt lat="46.33227" lon="6.46692">
        <ele>676</ele>
        <time>2012-11-24T11:00:29Z</time>
      </trkpt>
      <trkpt lat="46.33229" lon="6.46696">
        <ele>676</ele>
        <time>2012-11-24T11:00:30Z</time>
      </trkpt>
      <trkpt lat="46.3323" lon="6.46699">
        <ele>676</ele>
        <time>2012-11-24T11:00:31Z</time>
      </trkpt>
      <trkpt lat="46.33231" lon="6.46702">
        <ele>676</ele>
        <time>2012-11-24T11:00:32Z</time>
      </trkpt>
      <trkpt lat="46.33232" lon="6.46704">
        <ele>676</ele>
        <time>2012-11-24T11:00:33Z</time>
      </trkpt>
      <trkpt lat="46.33234" lon="6.46707">
        <ele>676</ele>
        <time>2012-11-24T11:00:34Z</time>
      </trkpt>
      <trkpt lat="46.33235" lon="6.4671">
        <ele>676</ele>
        <time>2012-11-24T11:00:35Z</time>
      </trkpt>
      <trkpt lat="46.33236" lon="6.46713">
        <ele>676</ele>
        <time>2012-11-24T11:00:36Z</time>
      </trkpt>
      <trkpt lat="46.33237" lon="6.46715">
        <ele>676</ele>
        <time>2012-11-24T11:00:37Z</time>
      </trkpt>
      <trkpt lat="46.33238" lon="6.46717">
        <ele>676</ele>
        <time>2012-11-24T11:00:38Z</time>
      </trkpt>
      <trkpt lat="46.33239" lon="6.46721">
        <ele>676</ele>
        <time>2012-11-24T11:00:39Z</time>
      </trkpt>
      <trkpt lat="46.3324" lon="6.46724">
        <ele>676</ele>
        <time>2012-11-24T11:00:40Z</time>
      </trkpt>
      <trkpt lat="46.33241" lon="6.46726">
        <ele>676</ele>
        <time>2012-11-24T11:00:41Z</time>
      </trkpt>
      <trkpt lat="46.33242" lon="6.46727">
        <ele>677</ele>
        <time>2012-11-24T11:00:42Z</time>
      </trkpt>
      <trkpt lat="46.33244" lon="6.46728">
        <ele>679</ele>
        <time>2012-11-24T11:00:44Z</time>
      </trkpt>
      <trkpt lat="46.33246" lon="6.46729">
        <ele>679</ele>
        <time>2012-11-24T11:00:45Z</time>
      </trkpt>
      <trkpt lat="46.33248" lon="6.46732">
        <ele>679</ele>
        <time>2012-11-24T11:00:46Z</time>
      </trkpt>
      <trkpt lat="46.33249" lon="6.46733">
        <ele>679</ele>
        <time>2012-11-24T11:00:47Z</time>
      </trkpt>
      <trkpt lat="46.3325" lon="6.46735">
        <ele>679</ele>
        <time>2012-11-24T11:00:48Z</time>
      </trkpt>
      <trkpt lat="46.33253" lon="6.46735">
        <ele>679</ele>
        <time>2012-11-24T11:00:50Z</time>
      </trkpt>
      <trkpt lat="46.33254" lon="6.46733">
        <ele>679</ele>
        <time>2012-11-24T11:00:52Z</time>
      </trkpt>
      <trkpt lat="46.33255" lon="6.46731">
        <ele>679</ele>
        <time>2012-11-24T11:00:53Z</time>
      </trkpt>
      <trkpt lat="46.33255" lon="6.46728">
        <ele>679</ele>
        <time>2012-11-24T11:00:54Z</time>
      </trkpt>
      <trkpt lat="46.33254" lon="6.46724">
        <ele>679</ele>
        <time>2012-11-24T11:00:55Z</time>
      </trkpt>
      <trkpt lat="46.33253" lon="6.46721">
        <ele>679</ele>
        <time>2012-11-24T11:00:56Z</time>
      </trkpt>
      <trkpt lat="46.33253" lon="6.46718">
        <ele>679</ele>
        <time>2012-11-24T11:00:57Z</time>
      </trkpt>
      <trkpt lat="46.33253" lon="6.46714">
        <ele>679</ele>
        <time>2012-11-24T11:00:58Z</time>
      </trkpt>
      <trkpt lat="46.33254" lon="6.46711">
        <ele>679</ele>
        <time>2012-11-24T11:00:59Z</time>
      </trkpt>
      <trkpt lat="46.33253" lon="6.46707">
        <ele>679</ele>
        <time>2012-11-24T11:01:00Z</time>
      </trkpt>
      <trkpt lat="46.33253" lon="6.46704">
        <ele>679</ele>
        <time>2012-11-24T11:01:01Z</time>
      </trkpt>
      <trkpt lat="46.33253" lon="6.46702">
        <ele>679</ele>
        <time>2012-11-24T11:01:02Z</time>
      </trkpt>
      <trkpt lat="46.33253" lon="6.46699">
        <ele>679</ele>
        <time>2012-11-24T11:01:03Z</time>
      </trkpt>
      <trkpt lat="46.33253" lon="6.46696">
        <ele>679</ele>
        <time>2012-11-24T11:01:04Z</time>
      </trkpt>
      <trkpt lat="46.33254" lon="6.46693">
        <ele>680</ele>
        <time>2012-11-24T11:01:05Z</time>
      </trkpt>
      <trkpt lat="46.33254" lon="6.4669">
        <ele>680</ele>
        <time>2012-11-24T11:01:06Z</time>
      </trkpt>
      <trkpt lat="46.33253" lon="6.46687">
        <ele>680</ele>
        <time>2012-11-24T11:01:07Z</time>
      </trkpt>
      <trkpt lat="46.33253" lon="6.46684">
        <ele>680</ele>
        <time>2012-11-24T11:01:08Z</time>
      </trkpt>
      <trkpt lat="46.33253" lon="6.46681">
        <ele>681</ele>
        <time>2012-11-24T11:01:09Z</time>
      </trkpt>
      <trkpt lat="46.33252" lon="6.46678">
        <ele>681</ele>
        <time>2012-11-24T11:01:10Z</time>
      </trkpt>
      <trkpt lat="46.33252" lon="6.46675">
        <ele>681</ele>
        <time>2012-11-24T11:01:11Z</time>
      </trkpt>
      <trkpt lat="46.33252" lon="6.46672">
        <ele>681</ele>
        <time>2012-11-24T11:01:12Z</time>
      </trkpt>
      <trkpt lat="46.33252" lon="6.46669">
        <ele>682</ele>
        <time>2012-11-24T11:01:13Z</time>
      </trkpt>
      <trkpt lat="46.33251" lon="6.46666">
        <ele>683</ele>
        <time>2012-11-24T11:01:14Z</time>
      </trkpt>
      <trkpt lat="46.33251" lon="6.46663">
        <ele>683</ele>
        <time>2012-11-24T11:01:15Z</time>
      </trkpt>
      <trkpt lat="46.33251" lon="6.4666">
        <ele>684</ele>
        <time>2012-11-24T11:01:16Z</time>
      </trkpt>
      <trkpt lat="46.33251" lon="6.46658">
        <ele>684</ele>
        <time>2012-11-24T11:01:17Z</time>
      </trkpt>
      <trkpt lat="46.3325" lon="6.46654">
        <ele>684</ele>
        <time>2012-11-24T11:01:18Z</time>
      </trkpt>
      <trkpt lat="46.33248" lon="6.46651">
        <ele>684</ele>
        <time>2012-11-24T11:01:19Z</time>
      </trkpt>
      <trkpt lat="46.33247" lon="6.46647">
        <ele>684</ele>
        <time>2012-11-24T11:01:20Z</time>
      </trkpt>
      <trkpt lat="46.33245" lon="6.46642">
        <ele>684</ele>
        <time>2012-11-24T11:01:21Z</time>
      </trkpt>
      <trkpt lat="46.33244" lon="6.46639">
        <ele>684</ele>
        <time>2012-11-24T11:01:22Z</time>
      </trkpt>
      <trkpt lat="46.33242" lon="6.46636">
        <ele>684</ele>
        <time>2012-11-24T11:01:23Z</time>
      </trkpt>
      <trkpt lat="46.3324" lon="6.46633">
        <ele>684</ele>
        <time>2012-11-24T11:01:24Z</time>
      </trkpt>
      <trkpt lat="46.33239" lon="6.46631">
        <ele>684</ele>
        <time>2012-11-24T11:01:25Z</time>
      </trkpt>
      <trkpt lat="46.33236" lon="6.46629">
        <ele>684</ele>
        <time>2012-11-24T11:01:27Z</time>
      </trkpt>
      <trkpt lat="46.33234" lon="6.46627">
        <ele>684</ele>
        <time>2012-11-24T11:01:28Z</time>
      </trkpt>
      <trkpt lat="46.33234" lon="6.46626">
        <ele>684</ele>
        <time>2012-11-24T11:01:29Z</time>
      </trkpt>
      <trkpt lat="46.33234" lon="6.46623">
        <ele>685</ele>
        <time>2012-11-24T11:01:31Z</time>
      </trkpt>
      <trkpt lat="46.33234" lon="6.46621">
        <ele>685</ele>
        <time>2012-11-24T11:01:32Z</time>
      </trkpt>
      <trkpt lat="46.33235" lon="6.46618">
        <ele>686</ele>
        <time>2012-11-24T11:01:34Z</time>
      </trkpt>
      <trkpt lat="46.33237" lon="6.46616">
        <ele>687</ele>
        <time>2012-11-24T11:01:36Z</time>
      </trkpt>
      <trkpt lat="46.33238" lon="6.46614">
        <ele>688</ele>
        <time>2012-11-24T11:01:38Z</time>
      </trkpt>
      <trkpt lat="46.3324" lon="6.46613">
        <ele>690</ele>
        <time>2012-11-24T11:01:40Z</time>
      </trkpt>
      <trkpt lat="46.33243" lon="6.46611">
        <ele>691</ele>
        <time>2012-11-24T11:01:42Z</time>
      </trkpt>
      <trkpt lat="46.33244" lon="6.4661">
        <ele>692</ele>
        <time>2012-11-24T11:01:43Z</time>
      </trkpt>
      <trkpt lat="46.33245" lon="6.46609">
        <ele>692</ele>
        <time>2012-11-24T11:01:44Z</time>
      </trkpt>
      <trkpt lat="46.33246" lon="6.46608">
        <ele>693</ele>
        <time>2012-11-24T11:01:45Z</time>
      </trkpt>
      <trkpt lat="46.33246" lon="6.46606">
        <ele>693</ele>
        <time>2012-11-24T11:01:46Z</time>
      </trkpt>
      <trkpt lat="46.33246" lon="6.46604">
        <ele>693</ele>
        <time>2012-11-24T11:01:47Z</time>
      </trkpt>
      <trkpt lat="46.33247" lon="6.46602">
        <ele>693</ele>
        <time>2012-11-24T11:01:48Z</time>
      </trkpt>
      <trkpt lat="46.33247" lon="6.466">
        <ele>694</ele>
        <time>2012-11-24T11:01:49Z</time>
      </trkpt>
      <trkpt lat="46.33247" lon="6.46599">
        <ele>694</ele>
        <time>2012-11-24T11:01:50Z</time>
      </trkpt>
      <trkpt lat="46.33247" lon="6.46597">
        <ele>694</ele>
        <time>2012-11-24T11:01:52Z</time>
      </trkpt>
      <trkpt lat="46.33246" lon="6.46597">
        <ele>695</ele>
        <time>2012-11-24T11:01:54Z</time>
      </trkpt>
      <trkpt lat="46.33244" lon="6.46597">
        <ele>695</ele>
        <time>2012-11-24T11:01:56Z</time>
      </trkpt>
      <trkpt lat="46.33243" lon="6.46597">
        <ele>695</ele>
        <time>2012-11-24T11:01:57Z</time>
      </trkpt>
      <trkpt lat="46.33241" lon="6.46596">
        <ele>696</ele>
        <time>2012-11-24T11:01:58Z</time>
      </trkpt>
      <trkpt lat="46.3324" lon="6.46596">
        <ele>696</ele>
        <time>2012-11-24T11:01:59Z</time>
      </trkpt>
      <trkpt lat="46.33238" lon="6.46595">
        <ele>696</ele>
        <time>2012-11-24T11:02:00Z</time>
      </trkpt>
      <trkpt lat="46.33237" lon="6.46594">
        <ele>696</ele>
        <time>2012-11-24T11:02:01Z</time>
      </trkpt>
      <trkpt lat="46.33236" lon="6.46593">
        <ele>697</ele>
        <time>2012-11-24T11:02:02Z</time>
      </trkpt>
      <trkpt lat="46.33236" lon="6.46591">
        <ele>697</ele>
        <time>2012-11-24T11:02:03Z</time>
      </trkpt>
      <trkpt lat="46.33235" lon="6.46589">
        <ele>697</ele>
        <time>2012-11-24T11:02:04Z</time>
      </trkpt>
      <trkpt lat="46.33235" lon="6.46587">
        <ele>697</ele>
        <time>2012-11-24T11:02:05Z</time>
      </trkpt>
      <trkpt lat="46.33234" lon="6.46584">
        <ele>697</ele>
        <time>2012-11-24T11:02:06Z</time>
      </trkpt>
      <trkpt lat="46.33233" lon="6.46582">
        <ele>697</ele>
        <time>2012-11-24T11:02:07Z</time>
      </trkpt>
      <trkpt lat="46.33232" lon="6.4658">
        <ele>697</ele>
        <time>2012-11-24T11:02:08Z</time>
      </trkpt>
      <trkpt lat="46.33231" lon="6.46577">
        <ele>697</ele>
        <time>2012-11-24T11:02:09Z</time>
      </trkpt>
      <trkpt lat="46.33231" lon="6.46574">
        <ele>697</ele>
        <time>2012-11-24T11:02:10Z</time>
      </trkpt>
      <trkpt lat="46.33232" lon="6.46571">
        <ele>697</ele>
        <time>2012-11-24T11:02:11Z</time>
      </trkpt>
      <trkpt lat="46.33232" lon="6.46568">
        <ele>697</ele>
        <time>2012-11-24T11:02:12Z</time>
      </trkpt>
      <trkpt lat="46.33231" lon="6.46565">
        <ele>697</ele>
        <time>2012-11-24T11:02:13Z</time>
      </trkpt>
      <trkpt lat="46.3323" lon="6.46563">
        <ele>697</ele>
        <time>2012-11-24T11:02:14Z</time>
      </trkpt>
      <trkpt lat="46.33229" lon="6.46561">
        <ele>698</ele>
        <time>2012-11-24T11:02:15Z</time>
      </trkpt>
      <trkpt lat="46.33228" lon="6.46559">
        <ele>698</ele>
        <time>2012-11-24T11:02:16Z</time>
      </trkpt>
      <trkpt lat="46.33227" lon="6.46557">
        <ele>698</ele>
        <time>2012-11-24T11:02:17Z</time>
      </trkpt>
      <trkpt lat="46.33227" lon="6.46555">
        <ele>699</ele>
        <time>2012-11-24T11:02:19Z</time>
      </trkpt>
      <trkpt lat="46.33226" lon="6.46552">
        <ele>700</ele>
        <time>2012-11-24T11:02:21Z</time>
      </trkpt>
      <trkpt lat="46.33225" lon="6.46549">
        <ele>702</ele>
        <time>2012-11-24T11:02:23Z</time>
      </trkpt>
      <trkpt lat="46.33224" lon="6.46545">
        <ele>702</ele>
        <time>2012-11-24T11:02:24Z</time>
      </trkpt>
      <trkpt lat="46.33223" lon="6.46542">
        <ele>703</ele>
        <time>2012-11-24T11:02:25Z</time>
      </trkpt>
      <trkpt lat="46.33222" lon="6.46539">
        <ele>703</ele>
        <time>2012-11-24T11:02:26Z</time>
      </trkpt>
      <trkpt lat="46.33222" lon="6.46536">
        <ele>703</ele>
        <time>2012-11-24T11:02:27Z</time>
      </trkpt>
      <trkpt lat="46.33221" lon="6.46533">
        <ele>704</ele>
        <time>2012-11-24T11:02:28Z</time>
      </trkpt>
      <trkpt lat="46.33221" lon="6.46529">
        <ele>704</ele>
        <time>2012-11-24T11:02:29Z</time>
      </trkpt>
      <trkpt lat="46.3322" lon="6.46526">
        <ele>704</ele>
        <time>2012-11-24T11:02:30Z</time>
      </trkpt>
      <trkpt lat="46.33219" lon="6.46524">
        <ele>704</ele>
        <time>2012-11-24T11:02:31Z</time>
      </trkpt>
      <trkpt lat="46.33218" lon="6.4652">
        <ele>704</ele>
        <time>2012-11-24T11:02:32Z</time>
      </trkpt>
      <trkpt lat="46.33218" lon="6.46517">
        <ele>704</ele>
        <time>2012-11-24T11:02:33Z</time>
      </trkpt>
      <trkpt lat="46.33217" lon="6.46514">
        <ele>704</ele>
        <time>2012-11-24T11:02:34Z</time>
      </trkpt>
      <trkpt lat="46.33217" lon="6.46511">
        <ele>704</ele>
        <time>2012-11-24T11:02:35Z</time>
      </trkpt>
      <trkpt lat="46.33216" lon="6.46508">
        <ele>704</ele>
        <time>2012-11-24T11:02:36Z</time>
      </trkpt>
      <trkpt lat="46.33215" lon="6.46505">
        <ele>704</ele>
        <time>2012-11-24T11:02:37Z</time>
      </trkpt>
      <trkpt lat="46.33213" lon="6.46503">
        <ele>705</ele>
        <time>2012-11-24T11:02:39Z</time>
      </trkpt>
      <trkpt lat="46.3321" lon="6.46502">
        <ele>705</ele>
        <time>2012-11-24T11:02:41Z</time>
      </trkpt>
      <trkpt lat="46.33209" lon="6.465">
        <ele>705</ele>
        <time>2012-11-24T11:02:43Z</time>
      </trkpt>
      <trkpt lat="46.33209" lon="6.46499">
        <ele>705</ele>
        <time>2012-11-24T11:02:45Z</time>
      </trkpt>
      <trkpt lat="46.33208" lon="6.46497">
        <ele>705</ele>
        <time>2012-11-24T11:02:47Z</time>
      </trkpt>
      <trkpt lat="46.33207" lon="6.46495">
        <ele>705</ele>
        <time>2012-11-24T11:02:48Z</time>
      </trkpt>
      <trkpt lat="46.33206" lon="6.46494">
        <ele>705</ele>
        <time>2012-11-24T11:02:49Z</time>
      </trkpt>
      <trkpt lat="46.33204" lon="6.46493">
        <ele>705</ele>
        <time>2012-11-24T11:02:50Z</time>
      </trkpt>
      <trkpt lat="46.33203" lon="6.46491">
        <ele>705</ele>
        <time>2012-11-24T11:02:51Z</time>
      </trkpt>
      <trkpt lat="46.332" lon="6.46489">
        <ele>703</ele>
        <time>2012-11-24T11:02:53Z</time>
      </trkpt>
      <trkpt lat="46.33199" lon="6.4649">
        <ele>703</ele>
        <time>2012-11-24T11:02:54Z</time>
      </trkpt>
      <trkpt lat="46.33197" lon="6.46491">
        <ele>702</ele>
        <time>2012-11-24T11:02:55Z</time>
      </trkpt>
      <trkpt lat="46.33195" lon="6.46491">
        <ele>701</ele>
        <time>2012-11-24T11:02:57Z</time>
      </trkpt>
      <trkpt lat="46.33193" lon="6.46492">
        <ele>700</ele>
        <time>2012-11-24T11:02:59Z</time>
      </trkpt>
      <trkpt lat="46.33191" lon="6.46493">
        <ele>699</ele>
        <time>2012-11-24T11:03:00Z</time>
      </trkpt>
      <trkpt lat="46.33189" lon="6.46492">
        <ele>699</ele>
        <time>2012-11-24T11:03:01Z</time>
      </trkpt>
      <trkpt lat="46.33187" lon="6.46492">
        <ele>698</ele>
        <time>2012-11-24T11:03:02Z</time>
      </trkpt>
      <trkpt lat="46.33185" lon="6.46491">
        <ele>698</ele>
        <time>2012-11-24T11:03:03Z</time>
      </trkpt>
      <trkpt lat="46.33183" lon="6.46492">
        <ele>696</ele>
        <time>2012-11-24T11:03:05Z</time>
      </trkpt>
      <trkpt lat="46.33182" lon="6.4649">
        <ele>696</ele>
        <time>2012-11-24T11:03:06Z</time>
      </trkpt>
      <trkpt lat="46.33181" lon="6.46489">
        <ele>696</ele>
        <time>2012-11-24T11:03:07Z</time>
      </trkpt>
      <trkpt lat="46.3318" lon="6.46489">
        <ele>696</ele>
        <time>2012-11-24T11:03:08Z</time>
      </trkpt>
      <trkpt lat="46.33178" lon="6.4649">
        <ele>696</ele>
        <time>2012-11-24T11:03:09Z</time>
      </trkpt>
      <trkpt lat="46.33177" lon="6.46489">
        <ele>696</ele>
        <time>2012-11-24T11:03:10Z</time>
      </trkpt>
      <trkpt lat="46.33176" lon="6.46486">
        <ele>696</ele>
        <time>2012-11-24T11:03:11Z</time>
      </trkpt>
      <trkpt lat="46.33174" lon="6.46484">
        <ele>696</ele>
        <time>2012-11-24T11:03:12Z</time>
      </trkpt>
      <trkpt lat="46.33173" lon="6.46481">
        <ele>696</ele>
        <time>2012-11-24T11:03:13Z</time>
      </trkpt>
      <trkpt lat="46.33172" lon="6.46479">
        <ele>696</ele>
        <time>2012-11-24T11:03:14Z</time>
      </trkpt>
      <trkpt lat="46.3317" lon="6.46475">
        <ele>696</ele>
        <time>2012-11-24T11:03:15Z</time>
      </trkpt>
      <trkpt lat="46.33168" lon="6.46471">
        <ele>696</ele>
        <time>2012-11-24T11:03:16Z</time>
      </trkpt>
      <trkpt lat="46.33168" lon="6.46468">
        <ele>696</ele>
        <time>2012-11-24T11:03:17Z</time>
      </trkpt>
      <trkpt lat="46.33167" lon="6.46466">
        <ele>696</ele>
        <time>2012-11-24T11:03:18Z</time>
      </trkpt>
      <trkpt lat="46.33165" lon="6.46464">
        <ele>696</ele>
        <time>2012-11-24T11:03:19Z</time>
      </trkpt>
      <trkpt lat="46.33163" lon="6.46461">
        <ele>696</ele>
        <time>2012-11-24T11:03:20Z</time>
      </trkpt>
      <trkpt lat="46.33161" lon="6.46459">
        <ele>696</ele>
        <time>2012-11-24T11:03:21Z</time>
      </trkpt>
      <trkpt lat="46.33158" lon="6.46458">
        <ele>696</ele>
        <time>2012-11-24T11:03:22Z</time>
      </trkpt>
      <trkpt lat="46.33156" lon="6.46456">
        <ele>696</ele>
        <time>2012-11-24T11:03:23Z</time>
      </trkpt>
      <trkpt lat="46.33154" lon="6.46455">
        <ele>696</ele>
        <time>2012-11-24T11:03:24Z</time>
      </trkpt>
      <trkpt lat="46.33153" lon="6.46454">
        <ele>696</ele>
        <time>2012-11-24T11:03:25Z</time>
      </trkpt>
      <trkpt lat="46.33151" lon="6.46454">
        <ele>696</ele>
        <time>2012-11-24T11:03:26Z</time>
      </trkpt>
      <trkpt lat="46.33148" lon="6.46454">
        <ele>696</ele>
        <time>2012-11-24T11:03:27Z</time>
      </trkpt>
      <trkpt lat="46.33145" lon="6.46453">
        <ele>697</ele>
        <time>2012-11-24T11:03:28Z</time>
      </trkpt>
      <trkpt lat="46.33142" lon="6.46452">
        <ele>697</ele>
        <time>2012-11-24T11:03:29Z</time>
      </trkpt>
      <trkpt lat="46.33138" lon="6.46451">
        <ele>697</ele>
        <time>2012-11-24T11:03:30Z</time>
      </trkpt>
      <trkpt lat="46.33135" lon="6.4645">
        <ele>697</ele>
        <time>2012-11-24T11:03:31Z</time>
      </trkpt>
      <trkpt lat="46.33133" lon="6.46447">
        <ele>697</ele>
        <time>2012-11-24T11:03:32Z</time>
      </trkpt>
      <trkpt lat="46.3313" lon="6.46445">
        <ele>697</ele>
        <time>2012-11-24T11:03:33Z</time>
      </trkpt>
      <trkpt lat="46.33127" lon="6.4644">
        <ele>697</ele>
        <time>2012-11-24T11:03:34Z</time>
      </trkpt>
      <trkpt lat="46.33124" lon="6.46435">
        <ele>697</ele>
        <time>2012-11-24T11:03:35Z</time>
      </trkpt>
      <trkpt lat="46.33123" lon="6.46432">
        <ele>697</ele>
        <time>2012-11-24T11:03:36Z</time>
      </trkpt>
      <trkpt lat="46.33123" lon="6.46429">
        <ele>698</ele>
        <time>2012-11-24T11:03:37Z</time>
      </trkpt>
      <trkpt lat="46.33122" lon="6.46426">
        <ele>698</ele>
        <time>2012-11-24T11:03:38Z</time>
      </trkpt>
      <trkpt lat="46.33121" lon="6.46422">
        <ele>699</ele>
        <time>2012-11-24T11:03:39Z</time>
      </trkpt>
      <trkpt lat="46.33121" lon="6.46419">
        <ele>699</ele>
        <time>2012-11-24T11:03:40Z</time>
      </trkpt>
      <trkpt lat="46.33121" lon="6.46415">
        <ele>699</ele>
        <time>2012-11-24T11:03:41Z</time>
      </trkpt>
      <trkpt lat="46.33121" lon="6.46412">
        <ele>699</ele>
        <time>2012-11-24T11:03:42Z</time>
      </trkpt>
      <trkpt lat="46.33121" lon="6.46409">
        <ele>699</ele>
        <time>2012-11-24T11:03:43Z</time>
      </trkpt>
      <trkpt lat="46.33121" lon="6.46406">
        <ele>699</ele>
        <time>2012-11-24T11:03:44Z</time>
      </trkpt>
      <trkpt lat="46.33121" lon="6.46403">
        <ele>699</ele>
        <time>2012-11-24T11:03:45Z</time>
      </trkpt>
      <trkpt lat="46.33121" lon="6.46399">
        <ele>699</ele>
        <time>2012-11-24T11:03:46Z</time>
      </trkpt>
      <trkpt lat="46.33121" lon="6.46396">
        <ele>699</ele>
        <time>2012-11-24T11:03:47Z</time>
      </trkpt>
      <trkpt lat="46.3312" lon="6.46394">
        <ele>700</ele>
        <time>2012-11-24T11:03:48Z</time>
      </trkpt>
      <trkpt lat="46.33118" lon="6.46392">
        <ele>700</ele>
        <time>2012-11-24T11:03:49Z</time>
      </trkpt>
      <trkpt lat="46.33116" lon="6.46393">
        <ele>701</ele>
        <time>2012-11-24T11:03:50Z</time>
      </trkpt>
      <trkpt lat="46.33113" lon="6.46393">
        <ele>701</ele>
        <time>2012-11-24T11:03:51Z</time>
      </trkpt>
      <trkpt lat="46.33111" lon="6.46393">
        <ele>702</ele>
        <time>2012-11-24T11:03:52Z</time>
      </trkpt>
      <trkpt lat="46.33109" lon="6.46393">
        <ele>702</ele>
        <time>2012-11-24T11:03:53Z</time>
      </trkpt>
      <trkpt lat="46.33107" lon="6.46392">
        <ele>703</ele>
        <time>2012-11-24T11:03:54Z</time>
      </trkpt>
      <trkpt lat="46.33108" lon="6.46392">
        <ele>704</ele>
        <time>2012-11-24T11:03:56Z</time>
      </trkpt>
      <trkpt lat="46.33109" lon="6.4639">
        <ele>704</ele>
        <time>2012-11-24T11:03:57Z</time>
      </trkpt>
      <trkpt lat="46.33111" lon="6.46388">
        <ele>704</ele>
        <time>2012-11-24T11:03:58Z</time>
      </trkpt>
      <trkpt lat="46.33112" lon="6.46386">
        <ele>704</ele>
        <time>2012-11-24T11:03:59Z</time>
      </trkpt>
      <trkpt lat="46.33114" lon="6.46384">
        <ele>704</ele>
        <time>2012-11-24T11:04:00Z</time>
      </trkpt>
      <trkpt lat="46.33114" lon="6.46382">
        <ele>704</ele>
        <time>2012-11-24T11:04:01Z</time>
      </trkpt>
      <trkpt lat="46.33115" lon="6.4638">
        <ele>706</ele>
        <time>2012-11-24T11:04:03Z</time>
      </trkpt>
      <trkpt lat="46.33112" lon="6.46381">
        <ele>707</ele>
        <time>2012-11-24T11:04:05Z</time>
      </trkpt>
      <trkpt lat="46.33111" lon="6.46382">
        <ele>708</ele>
        <time>2012-11-24T11:04:07Z</time>
      </trkpt>
      <trkpt lat="46.3311" lon="6.4638">
        <ele>710</ele>
        <time>2012-11-24T11:04:09Z</time>
      </trkpt>
      <trkpt lat="46.3311" lon="6.46377">
        <ele>710</ele>
        <time>2012-11-24T11:04:10Z</time>
      </trkpt>
      <trkpt lat="46.33111" lon="6.46375">
        <ele>711</ele>
        <time>2012-11-24T11:04:11Z</time>
      </trkpt>
      <trkpt lat="46.33112" lon="6.46373">
        <ele>712</ele>
        <time>2012-11-24T11:04:12Z</time>
      </trkpt>
      <trkpt lat="46.33113" lon="6.46371">
        <ele>712</ele>
        <time>2012-11-24T11:04:13Z</time>
      </trkpt>
      <trkpt lat="46.33113" lon="6.46369">
        <ele>713</ele>
        <time>2012-11-24T11:04:14Z</time>
      </trkpt>
      <trkpt lat="46.33114" lon="6.46367">
        <ele>713</ele>
        <time>2012-11-24T11:04:15Z</time>
      </trkpt>
      <trkpt lat="46.33114" lon="6.46364">
        <ele>713</ele>
        <time>2012-11-24T11:04:16Z</time>
      </trkpt>
      <trkpt lat="46.33113" lon="6.46361">
        <ele>714</ele>
        <time>2012-11-24T11:04:17Z</time>
      </trkpt>
      <trkpt lat="46.33112" lon="6.46359">
        <ele>714</ele>
        <time>2012-11-24T11:04:18Z</time>
      </trkpt>
      <trkpt lat="46.33112" lon="6.46356">
        <ele>714</ele>
        <time>2012-11-24T11:04:19Z</time>
      </trkpt>
      <trkpt lat="46.3311" lon="6.46354">
        <ele>715</ele>
        <time>2012-11-24T11:04:20Z</time>
      </trkpt>
      <trkpt lat="46.33109" lon="6.46351">
        <ele>715</ele>
        <time>2012-11-24T11:04:21Z</time>
      </trkpt>
      <trkpt lat="46.33107" lon="6.46348">
        <ele>715</ele>
        <time>2012-11-24T11:04:22Z</time>
      </trkpt>
      <trkpt lat="46.33105" lon="6.46346">
        <ele>715</ele>
        <time>2012-11-24T11:04:23Z</time>
      </trkpt>
      <trkpt lat="46.33103" lon="6.46344">
        <ele>715</ele>
        <time>2012-11-24T11:04:24Z</time>
      </trkpt>
      <trkpt lat="46.33102" lon="6.46343">
        <ele>715</ele>
        <time>2012-11-24T11:04:25Z</time>
      </trkpt>
      <trkpt lat="46.33101" lon="6.46341">
        <ele>715</ele>
        <time>2012-11-24T11:04:26Z</time>
      </trkpt>
      <trkpt lat="46.33099" lon="6.4634">
        <ele>715</ele>
        <time>2012-11-24T11:04:27Z</time>
      </trkpt>
      <trkpt lat="46.33098" lon="6.46339">
        <ele>715</ele>
        <time>2012-11-24T11:04:28Z</time>
      </trkpt>
      <trkpt lat="46.33096" lon="6.46338">
        <ele>715</ele>
        <time>2012-11-24T11:04:29Z</time>
      </trkpt>
      <trkpt lat="46.33094" lon="6.46335">
        <ele>715</ele>
        <time>2012-11-24T11:04:30Z</time>
      </trkpt>
      <trkpt lat="46.33092" lon="6.46334">
        <ele>715</ele>
        <time>2012-11-24T11:04:31Z</time>
      </trkpt>
      <trkpt lat="46.3309" lon="6.46332">
        <ele>715</ele>
        <time>2012-11-24T11:04:32Z</time>
      </trkpt>
      <trkpt lat="46.33088" lon="6.46331">
        <ele>715</ele>
        <time>2012-11-24T11:04:33Z</time>
      </trkpt>
      <trkpt lat="46.33086" lon="6.4633">
        <ele>715</ele>
        <time>2012-11-24T11:04:34Z</time>
      </trkpt>
      <trkpt lat="46.33085" lon="6.4633">
        <ele>715</ele>
        <time>2012-11-24T11:04:35Z</time>
      </trkpt>
      <trkpt lat="46.33083" lon="6.4633">
        <ele>715</ele>
        <time>2012-11-24T11:04:36Z</time>
      </trkpt>
      <trkpt lat="46.3308" lon="6.4633">
        <ele>715</ele>
        <time>2012-11-24T11:04:37Z</time>
      </trkpt>
      <trkpt lat="46.33078" lon="6.46331">
        <ele>715</ele>
        <time>2012-11-24T11:04:38Z</time>
      </trkpt>
      <trkpt lat="46.33076" lon="6.46333">
        <ele>715</ele>
        <time>2012-11-24T11:04:39Z</time>
      </trkpt>
      <trkpt lat="46.33075" lon="6.46334">
        <ele>715</ele>
        <time>2012-11-24T11:04:40Z</time>
      </trkpt>
      <trkpt lat="46.33073" lon="6.46334">
        <ele>715</ele>
        <time>2012-11-24T11:04:41Z</time>
      </trkpt>
      <trkpt lat="46.33071" lon="6.46332">
        <ele>715</ele>
        <time>2012-11-24T11:04:42Z</time>
      </trkpt>
      <trkpt lat="46.33069" lon="6.46331">
        <ele>715</ele>
        <time>2012-11-24T11:04:43Z</time>
      </trkpt>
      <trkpt lat="46.33067" lon="6.46329">
        <ele>715</ele>
        <time>2012-11-24T11:04:44Z</time>
      </trkpt>
      <trkpt lat="46.33065" lon="6.46327">
        <ele>715</ele>
        <time>2012-11-24T11:04:45Z</time>
      </trkpt>
      <trkpt lat="46.33062" lon="6.46324">
        <ele>715</ele>
        <time>2012-11-24T11:04:46Z</time>
      </trkpt>
      <trkpt lat="46.3306" lon="6.46322">
        <ele>715</ele>
        <time>2012-11-24T11:04:47Z</time>
      </trkpt>
      <trkpt lat="46.33057" lon="6.4632">
        <ele>715</ele>
        <time>2012-11-24T11:04:48Z</time>
      </trkpt>
      <trkpt lat="46.33055" lon="6.46317">
        <ele>715</ele>
        <time>2012-11-24T11:04:49Z</time>
      </trkpt>
      <trkpt lat="46.33053" lon="6.46315">
        <ele>715</ele>
        <time>2012-11-24T11:04:50Z</time>
      </trkpt>
      <trkpt lat="46.33052" lon="6.46313">
        <ele>714</ele>
        <time>2012-11-24T11:04:51Z</time>
      </trkpt>
      <trkpt lat="46.33049" lon="6.4631">
        <ele>713</ele>
        <time>2012-11-24T11:04:52Z</time>
      </trkpt>
      <trkpt lat="46.33047" lon="6.46308">
        <ele>713</ele>
        <time>2012-11-24T11:04:53Z</time>
      </trkpt>
      <trkpt lat="46.33045" lon="6.46306">
        <ele>712</ele>
        <time>2012-11-24T11:04:54Z</time>
      </trkpt>
      <trkpt lat="46.33043" lon="6.46304">
        <ele>711</ele>
        <time>2012-11-24T11:04:55Z</time>
      </trkpt>
      <trkpt lat="46.33041" lon="6.46303">
        <ele>711</ele>
        <time>2012-11-24T11:04:56Z</time>
      </trkpt>
      <trkpt lat="46.3304" lon="6.46301">
        <ele>710</ele>
        <time>2012-11-24T11:04:57Z</time>
      </trkpt>
      <trkpt lat="46.33038" lon="6.46299">
        <ele>710</ele>
        <time>2012-11-24T11:04:58Z</time>
      </trkpt>
      <trkpt lat="46.33036" lon="6.46297">
        <ele>709</ele>
        <time>2012-11-24T11:04:59Z</time>
      </trkpt>
      <trkpt lat="46.33034" lon="6.46295">
        <ele>709</ele>
        <time>2012-11-24T11:05:00Z</time>
      </trkpt>
      <trkpt lat="46.33032" lon="6.46294">
        <ele>708</ele>
        <time>2012-11-24T11:05:01Z</time>
      </trkpt>
      <trkpt lat="46.3303" lon="6.46292">
        <ele>708</ele>
        <time>2012-11-24T11:05:02Z</time>
      </trkpt>
      <trkpt lat="46.33028" lon="6.46289">
        <ele>708</ele>
        <time>2012-11-24T11:05:03Z</time>
      </trkpt>
      <trkpt lat="46.33026" lon="6.46287">
        <ele>707</ele>
        <time>2012-11-24T11:05:04Z</time>
      </trkpt>
      <trkpt lat="46.33024" lon="6.46285">
        <ele>707</ele>
        <time>2012-11-24T11:05:05Z</time>
      </trkpt>
      <trkpt lat="46.33022" lon="6.46283">
        <ele>706</ele>
        <time>2012-11-24T11:05:06Z</time>
      </trkpt>
      <trkpt lat="46.3302" lon="6.46281">
        <ele>706</ele>
        <time>2012-11-24T11:05:07Z</time>
      </trkpt>
      <trkpt lat="46.33017" lon="6.4628">
        <ele>706</ele>
        <time>2012-11-24T11:05:08Z</time>
      </trkpt>
      <trkpt lat="46.33015" lon="6.46279">
        <ele>705</ele>
        <time>2012-11-24T11:05:09Z</time>
      </trkpt>
      <trkpt lat="46.33012" lon="6.46278">
        <ele>705</ele>
        <time>2012-11-24T11:05:10Z</time>
      </trkpt>
      <trkpt lat="46.33009" lon="6.46277">
        <ele>704</ele>
        <time>2012-11-24T11:05:11Z</time>
      </trkpt>
      <trkpt lat="46.33007" lon="6.46278">
        <ele>704</ele>
        <time>2012-11-24T11:05:12Z</time>
      </trkpt>
      <trkpt lat="46.33004" lon="6.46278">
        <ele>703</ele>
        <time>2012-11-24T11:05:13Z</time>
      </trkpt>
      <trkpt lat="46.33002" lon="6.46279">
        <ele>703</ele>
        <time>2012-11-24T11:05:14Z</time>
      </trkpt>
      <trkpt lat="46.33" lon="6.46281">
        <ele>702</ele>
        <time>2012-11-24T11:05:15Z</time>
      </trkpt>
      <trkpt lat="46.32998" lon="6.46282">
        <ele>701</ele>
        <time>2012-11-24T11:05:16Z</time>
      </trkpt>
      <trkpt lat="46.32995" lon="6.46283">
        <ele>701</ele>
        <time>2012-11-24T11:05:17Z</time>
      </trkpt>
      <trkpt lat="46.32992" lon="6.46283">
        <ele>700</ele>
        <time>2012-11-24T11:05:18Z</time>
      </trkpt>
      <trkpt lat="46.3299" lon="6.46283">
        <ele>699</ele>
        <time>2012-11-24T11:05:19Z</time>
      </trkpt>
      <trkpt lat="46.32988" lon="6.46282">
        <ele>699</ele>
        <time>2012-11-24T11:05:20Z</time>
      </trkpt>
      <trkpt lat="46.32987" lon="6.4628">
        <ele>698</ele>
        <time>2012-11-24T11:05:21Z</time>
      </trkpt>
      <trkpt lat="46.32985" lon="6.46276">
        <ele>697</ele>
        <time>2012-11-24T11:05:22Z</time>
      </trkpt>
      <trkpt lat="46.32982" lon="6.46272">
        <ele>696</ele>
        <time>2012-11-24T11:05:23Z</time>
      </trkpt>
      <trkpt lat="46.3298" lon="6.46268">
        <ele>695</ele>
        <time>2012-11-24T11:05:24Z</time>
      </trkpt>
      <trkpt lat="46.32978" lon="6.46264">
        <ele>694</ele>
        <time>2012-11-24T11:05:25Z</time>
      </trkpt>
      <trkpt lat="46.32975" lon="6.46259">
        <ele>693</ele>
        <time>2012-11-24T11:05:26Z</time>
      </trkpt>
      <trkpt lat="46.32972" lon="6.46255">
        <ele>693</ele>
        <time>2012-11-24T11:05:27Z</time>
      </trkpt>
      <trkpt lat="46.3297" lon="6.46251">
        <ele>692</ele>
        <time>2012-11-24T11:05:28Z</time>
      </trkpt>
      <trkpt lat="46.32967" lon="6.46247">
        <ele>692</ele>
        <time>2012-11-24T11:05:29Z</time>
      </trkpt>
      <trkpt lat="46.32965" lon="6.46244">
        <ele>691</ele>
        <time>2012-11-24T11:05:30Z</time>
      </trkpt>
      <trkpt lat="46.32963" lon="6.46241">
        <ele>691</ele>
        <time>2012-11-24T11:05:31Z</time>
      </trkpt>
      <trkpt lat="46.3296" lon="6.46239">
        <ele>690</ele>
        <time>2012-11-24T11:05:32Z</time>
      </trkpt>
      <trkpt lat="46.32957" lon="6.46237">
        <ele>689</ele>
        <time>2012-11-24T11:05:33Z</time>
      </trkpt>
      <trkpt lat="46.32955" lon="6.46234">
        <ele>688</ele>
        <time>2012-11-24T11:05:34Z</time>
      </trkpt>
      <trkpt lat="46.32952" lon="6.46232">
        <ele>688</ele>
        <time>2012-11-24T11:05:35Z</time>
      </trkpt>
      <trkpt lat="46.32949" lon="6.46231">
        <ele>687</ele>
        <time>2012-11-24T11:05:36Z</time>
      </trkpt>
      <trkpt lat="46.32947" lon="6.4623">
        <ele>687</ele>
        <time>2012-11-24T11:05:37Z</time>
      </trkpt>
      <trkpt lat="46.32945" lon="6.4623">
        <ele>686</ele>
        <time>2012-11-24T11:05:38Z</time>
      </trkpt>
      <trkpt lat="46.32942" lon="6.46231">
        <ele>685</ele>
        <time>2012-11-24T11:05:39Z</time>
      </trkpt>
      <trkpt lat="46.3294" lon="6.46231">
        <ele>684</ele>
        <time>2012-11-24T11:05:40Z</time>
      </trkpt>
      <trkpt lat="46.32937" lon="6.4623">
        <ele>683</ele>
        <time>2012-11-24T11:05:41Z</time>
      </trkpt>
      <trkpt lat="46.32934" lon="6.4623">
        <ele>683</ele>
        <time>2012-11-24T11:05:42Z</time>
      </trkpt>
      <trkpt lat="46.32931" lon="6.4623">
        <ele>682</ele>
        <time>2012-11-24T11:05:43Z</time>
      </trkpt>
      <trkpt lat="46.32928" lon="6.4623">
        <ele>682</ele>
        <time>2012-11-24T11:05:44Z</time>
      </trkpt>
      <trkpt lat="46.32925" lon="6.46229">
        <ele>681</ele>
        <time>2012-11-24T11:05:45Z</time>
      </trkpt>
      <trkpt lat="46.32922" lon="6.46228">
        <ele>681</ele>
        <time>2012-11-24T11:05:46Z</time>
      </trkpt>
      <trkpt lat="46.3292" lon="6.46227">
        <ele>681</ele>
        <time>2012-11-24T11:05:47Z</time>
      </trkpt>
      <trkpt lat="46.32917" lon="6.46226">
        <ele>680</ele>
        <time>2012-11-24T11:05:48Z</time>
      </trkpt>
      <trkpt lat="46.32914" lon="6.46225">
        <ele>680</ele>
        <time>2012-11-24T11:05:49Z</time>
      </trkpt>
      <trkpt lat="46.32912" lon="6.46224">
        <ele>680</ele>
        <time>2012-11-24T11:05:50Z</time>
      </trkpt>
      <trkpt lat="46.32909" lon="6.46223">
        <ele>680</ele>
        <time>2012-11-24T11:05:51Z</time>
      </trkpt>
      <trkpt lat="46.32905" lon="6.46222">
        <ele>679</ele>
        <time>2012-11-24T11:05:52Z</time>
      </trkpt>
      <trkpt lat="46.32903" lon="6.46221">
        <ele>679</ele>
        <time>2012-11-24T11:05:53Z</time>
      </trkpt>
      <trkpt lat="46.329" lon="6.46221">
        <ele>679</ele>
        <time>2012-11-24T11:05:54Z</time>
      </trkpt>
      <trkpt lat="46.32898" lon="6.46221">
        <ele>678</ele>
        <time>2012-11-24T11:05:55Z</time>
      </trkpt>
      <trkpt lat="46.32895" lon="6.46221">
        <ele>678</ele>
        <time>2012-11-24T11:05:56Z</time>
      </trkpt>
      <trkpt lat="46.32892" lon="6.4622">
        <ele>678</ele>
        <time>2012-11-24T11:05:57Z</time>
      </trkpt>
      <trkpt lat="46.32889" lon="6.46219">
        <ele>678</ele>
        <time>2012-11-24T11:05:58Z</time>
      </trkpt>
      <trkpt lat="46.32886" lon="6.4622">
        <ele>678</ele>
        <time>2012-11-24T11:05:59Z</time>
      </trkpt>
      <trkpt lat="46.32883" lon="6.4622">
        <ele>678</ele>
        <time>2012-11-24T11:06:00Z</time>
      </trkpt>
      <trkpt lat="46.32881" lon="6.46219">
        <ele>678</ele>
        <time>2012-11-24T11:06:01Z</time>
      </trkpt>
      <trkpt lat="46.32878" lon="6.46219">
        <ele>678</ele>
        <time>2012-11-24T11:06:02Z</time>
      </trkpt>
      <trkpt lat="46.32875" lon="6.46218">
        <ele>678</ele>
        <time>2012-11-24T11:06:03Z</time>
      </trkpt>
      <trkpt lat="46.32873" lon="6.46219">
        <ele>678</ele>
        <time>2012-11-24T11:06:04Z</time>
      </trkpt>
      <trkpt lat="46.3287" lon="6.46219">
        <ele>678</ele>
        <time>2012-11-24T11:06:05Z</time>
      </trkpt>
      <trkpt lat="46.32867" lon="6.4622">
        <ele>678</ele>
        <time>2012-11-24T11:06:06Z</time>
      </trkpt>
      <trkpt lat="46.32864" lon="6.46221">
        <ele>677</ele>
        <time>2012-11-24T11:06:07Z</time>
      </trkpt>
      <trkpt lat="46.32861" lon="6.46221">
        <ele>677</ele>
        <time>2012-11-24T11:06:08Z</time>
      </trkpt>
      <trkpt lat="46.32859" lon="6.46222">
        <ele>677</ele>
        <time>2012-11-24T11:06:09Z</time>
      </trkpt>
      <trkpt lat="46.32856" lon="6.46223">
        <ele>677</ele>
        <time>2012-11-24T11:06:10Z</time>
      </trkpt>
      <trkpt lat="46.32853" lon="6.46223">
        <ele>677</ele>
        <time>2012-11-24T11:06:11Z</time>
      </trkpt>
      <trkpt lat="46.32852" lon="6.46223">
        <ele>677</ele>
        <time>2012-11-24T11:06:12Z</time>
      </trkpt>
      <trkpt lat="46.3285" lon="6.46223">
        <ele>677</ele>
        <time>2012-11-24T11:06:13Z</time>
      </trkpt>
      <trkpt lat="46.32849" lon="6.46223">
        <ele>676</ele>
        <time>2012-11-24T11:06:25Z</time>
      </trkpt>
      <trkpt lat="46.32848" lon="6.46224">
        <ele>674</ele>
        <time>2012-11-24T11:06:32Z</time>
      </trkpt>
      <trkpt lat="46.32846" lon="6.46225">
        <ele>674</ele>
        <time>2012-11-24T11:06:34Z</time>
      </trkpt>
      <trkpt lat="46.32845" lon="6.46226">
        <ele>674</ele>
        <time>2012-11-24T11:06:35Z</time>
      </trkpt>
      <trkpt lat="46.32843" lon="6.46226">
        <ele>674</ele>
        <time>2012-11-24T11:06:36Z</time>
      </trkpt>
      <trkpt lat="46.32841" lon="6.46227">
        <ele>674</ele>
        <time>2012-11-24T11:06:37Z</time>
      </trkpt>
      <trkpt lat="46.32839" lon="6.46228">
        <ele>674</ele>
        <time>2012-11-24T11:06:38Z</time>
      </trkpt>
      <trkpt lat="46.32837" lon="6.46228">
        <ele>674</ele>
        <time>2012-11-24T11:06:39Z</time>
      </trkpt>
      <trkpt lat="46.32834" lon="6.46228">
        <ele>674</ele>
        <time>2012-11-24T11:06:40Z</time>
      </trkpt>
      <trkpt lat="46.32832" lon="6.46228">
        <ele>674</ele>
        <time>2012-11-24T11:06:41Z</time>
      </trkpt>
      <trkpt lat="46.3283" lon="6.46227">
        <ele>674</ele>
        <time>2012-11-24T11:06:42Z</time>
      </trkpt>
      <trkpt lat="46.32828" lon="6.46226">
        <ele>674</ele>
        <time>2012-11-24T11:06:43Z</time>
      </trkpt>
      <trkpt lat="46.32826" lon="6.46225">
        <ele>674</ele>
        <time>2012-11-24T11:06:44Z</time>
      </trkpt>
      <trkpt lat="46.32824" lon="6.46225">
        <ele>674</ele>
        <time>2012-11-24T11:06:45Z</time>
      </trkpt>
      <trkpt lat="46.32821" lon="6.46224">
        <ele>674</ele>
        <time>2012-11-24T11:06:46Z</time>
      </trkpt>
      <trkpt lat="46.32819" lon="6.46224">
        <ele>674</ele>
        <time>2012-11-24T11:06:47Z</time>
      </trkpt>
      <trkpt lat="46.32816" lon="6.46223">
        <ele>674</ele>
        <time>2012-11-24T11:06:48Z</time>
      </trkpt>
      <trkpt lat="46.32814" lon="6.46222">
        <ele>674</ele>
        <time>2012-11-24T11:06:49Z</time>
      </trkpt>
      <trkpt lat="46.32811" lon="6.46222">
        <ele>674</ele>
        <time>2012-11-24T11:06:50Z</time>
      </trkpt>
      <trkpt lat="46.32808" lon="6.46221">
        <ele>674</ele>
        <time>2012-11-24T11:06:51Z</time>
      </trkpt>
      <trkpt lat="46.32806" lon="6.46221">
        <ele>674</ele>
        <time>2012-11-24T11:06:52Z</time>
      </trkpt>
      <trkpt lat="46.32803" lon="6.46221">
        <ele>674</ele>
        <time>2012-11-24T11:06:53Z</time>
      </trkpt>
      <trkpt lat="46.32801" lon="6.46221">
        <ele>674</ele>
        <time>2012-11-24T11:06:54Z</time>
      </trkpt>
      <trkpt lat="46.32798" lon="6.4622">
        <ele>674</ele>
        <time>2012-11-24T11:06:55Z</time>
      </trkpt>
      <trkpt lat="46.32795" lon="6.46219">
        <ele>674</ele>
        <time>2012-11-24T11:06:56Z</time>
      </trkpt>
      <trkpt lat="46.32793" lon="6.46218">
        <ele>674</ele>
        <time>2012-11-24T11:06:57Z</time>
      </trkpt>
      <trkpt lat="46.3279" lon="6.46217">
        <ele>674</ele>
        <time>2012-11-24T11:06:58Z</time>
      </trkpt>
      <trkpt lat="46.32788" lon="6.46217">
        <ele>674</ele>
        <time>2012-11-24T11:06:59Z</time>
      </trkpt>
      <trkpt lat="46.32785" lon="6.46216">
        <ele>674</ele>
        <time>2012-11-24T11:07:00Z</time>
      </trkpt>
      <trkpt lat="46.32784" lon="6.46215">
        <ele>674</ele>
        <time>2012-11-24T11:07:01Z</time>
      </trkpt>
      <trkpt lat="46.32782" lon="6.46214">
        <ele>674</ele>
        <time>2012-11-24T11:07:02Z</time>
      </trkpt>
      <trkpt lat="46.32779" lon="6.46213">
        <ele>674</ele>
        <time>2012-11-24T11:07:03Z</time>
      </trkpt>
      <trkpt lat="46.32777" lon="6.46211">
        <ele>674</ele>
        <time>2012-11-24T11:07:04Z</time>
      </trkpt>
      <trkpt lat="46.32775" lon="6.46209">
        <ele>674</ele>
        <time>2012-11-24T11:07:05Z</time>
      </trkpt>
      <trkpt lat="46.32774" lon="6.46207">
        <ele>674</ele>
        <time>2012-11-24T11:07:06Z</time>
      </trkpt>
      <trkpt lat="46.32772" lon="6.46204">
        <ele>674</ele>
        <time>2012-11-24T11:07:07Z</time>
      </trkpt>
      <trkpt lat="46.32769" lon="6.46202">
        <ele>674</ele>
        <time>2012-11-24T11:07:08Z</time>
      </trkpt>
      <trkpt lat="46.32767" lon="6.462">
        <ele>674</ele>
        <time>2012-11-24T11:07:09Z</time>
      </trkpt>
      <trkpt lat="46.32765" lon="6.46199">
        <ele>674</ele>
        <time>2012-11-24T11:07:10Z</time>
      </trkpt>
      <trkpt lat="46.32763" lon="6.46197">
        <ele>674</ele>
        <time>2012-11-24T11:07:11Z</time>
      </trkpt>
      <trkpt lat="46.32761" lon="6.46195">
        <ele>674</ele>
        <time>2012-11-24T11:07:12Z</time>
      </trkpt>
      <trkpt lat="46.32759" lon="6.46193">
        <ele>674</ele>
        <time>2012-11-24T11:07:13Z</time>
      </trkpt>
      <trkpt lat="46.32756" lon="6.46191">
        <ele>674</ele>
        <time>2012-11-24T11:07:14Z</time>
      </trkpt>
      <trkpt lat="46.32753" lon="6.46189">
        <ele>674</ele>
        <time>2012-11-24T11:07:15Z</time>
      </trkpt>
      <trkpt lat="46.3275" lon="6.46188">
        <ele>674</ele>
        <time>2012-11-24T11:07:16Z</time>
      </trkpt>
      <trkpt lat="46.32748" lon="6.46186">
        <ele>674</ele>
        <time>2012-11-24T11:07:17Z</time>
      </trkpt>
      <trkpt lat="46.32746" lon="6.46184">
        <ele>674</ele>
        <time>2012-11-24T11:07:18Z</time>
      </trkpt>
      <trkpt lat="46.32743" lon="6.46182">
        <ele>674</ele>
        <time>2012-11-24T11:07:19Z</time>
      </trkpt>
      <trkpt lat="46.32741" lon="6.46181">
        <ele>674</ele>
        <time>2012-11-24T11:07:20Z</time>
      </trkpt>
      <trkpt lat="46.32738" lon="6.46179">
        <ele>674</ele>
        <time>2012-11-24T11:07:21Z</time>
      </trkpt>
      <trkpt lat="46.32736" lon="6.46178">
        <ele>674</ele>
        <time>2012-11-24T11:07:22Z</time>
      </trkpt>
      <trkpt lat="46.32734" lon="6.46177">
        <ele>674</ele>
        <time>2012-11-24T11:07:23Z</time>
      </trkpt>
      <trkpt lat="46.32731" lon="6.46176">
        <ele>674</ele>
        <time>2012-11-24T11:07:24Z</time>
      </trkpt>
      <trkpt lat="46.32729" lon="6.46174">
        <ele>674</ele>
        <time>2012-11-24T11:07:25Z</time>
      </trkpt>
      <trkpt lat="46.32727" lon="6.46172">
        <ele>674</ele>
        <time>2012-11-24T11:07:26Z</time>
      </trkpt>
      <trkpt lat="46.32725" lon="6.4617">
        <ele>674</ele>
        <time>2012-11-24T11:07:27Z</time>
      </trkpt>
      <trkpt lat="46.32723" lon="6.46167">
        <ele>674</ele>
        <time>2012-11-24T11:07:28Z</time>
      </trkpt>
      <trkpt lat="46.32721" lon="6.46164">
        <ele>674</ele>
        <time>2012-11-24T11:07:29Z</time>
      </trkpt>
      <trkpt lat="46.32719" lon="6.46161">
        <ele>674</ele>
        <time>2012-11-24T11:07:30Z</time>
      </trkpt>
      <trkpt lat="46.32718" lon="6.46158">
        <ele>674</ele>
        <time>2012-11-24T11:07:31Z</time>
      </trkpt>
      <trkpt lat="46.32716" lon="6.46155">
        <ele>674</ele>
        <time>2012-11-24T11:07:32Z</time>
      </trkpt>
      <trkpt lat="46.32715" lon="6.46152">
        <ele>674</ele>
        <time>2012-11-24T11:07:33Z</time>
      </trkpt>
      <trkpt lat="46.32713" lon="6.46148">
        <ele>674</ele>
        <time>2012-11-24T11:07:34Z</time>
      </trkpt>
      <trkpt lat="46.32711" lon="6.46144">
        <ele>674</ele>
        <time>2012-11-24T11:07:35Z</time>
      </trkpt>
      <trkpt lat="46.3271" lon="6.4614">
        <ele>674</ele>
        <time>2012-11-24T11:07:36Z</time>
      </trkpt>
      <trkpt lat="46.32708" lon="6.46136">
        <ele>674</ele>
        <time>2012-11-24T11:07:37Z</time>
      </trkpt>
      <trkpt lat="46.32706" lon="6.46132">
        <ele>674</ele>
        <time>2012-11-24T11:07:38Z</time>
      </trkpt>
      <trkpt lat="46.32705" lon="6.46129">
        <ele>674</ele>
        <time>2012-11-24T11:07:39Z</time>
      </trkpt>
      <trkpt lat="46.32704" lon="6.46125">
        <ele>674</ele>
        <time>2012-11-24T11:07:40Z</time>
      </trkpt>
      <trkpt lat="46.32703" lon="6.46121">
        <ele>674</ele>
        <time>2012-11-24T11:07:41Z</time>
      </trkpt>
      <trkpt lat="46.32701" lon="6.46117">
        <ele>674</ele>
        <time>2012-11-24T11:07:42Z</time>
      </trkpt>
      <trkpt lat="46.327" lon="6.46114">
        <ele>674</ele>
        <time>2012-11-24T11:07:43Z</time>
      </trkpt>
      <trkpt lat="46.32698" lon="6.4611">
        <ele>674</ele>
        <time>2012-11-24T11:07:44Z</time>
      </trkpt>
      <trkpt lat="46.32697" lon="6.46106">
        <ele>674</ele>
        <time>2012-11-24T11:07:45Z</time>
      </trkpt>
      <trkpt lat="46.32695" lon="6.46103">
        <ele>674</ele>
        <time>2012-11-24T11:07:46Z</time>
      </trkpt>
      <trkpt lat="46.32694" lon="6.46099">
        <ele>674</ele>
        <time>2012-11-24T11:07:47Z</time>
      </trkpt>
      <trkpt lat="46.32692" lon="6.46095">
        <ele>674</ele>
        <time>2012-11-24T11:07:48Z</time>
      </trkpt>
      <trkpt lat="46.3269" lon="6.46091">
        <ele>674</ele>
        <time>2012-11-24T11:07:49Z</time>
      </trkpt>
      <trkpt lat="46.32689" lon="6.46088">
        <ele>674</ele>
        <time>2012-11-24T11:07:50Z</time>
      </trkpt>
      <trkpt lat="46.32688" lon="6.46084">
        <ele>674</ele>
        <time>2012-11-24T11:07:51Z</time>
      </trkpt>
      <trkpt lat="46.32688" lon="6.4608">
        <ele>674</ele>
        <time>2012-11-24T11:07:52Z</time>
      </trkpt>
      <trkpt lat="46.32687" lon="6.46076">
        <ele>674</ele>
        <time>2012-11-24T11:07:53Z</time>
      </trkpt>
      <trkpt lat="46.32687" lon="6.46072">
        <ele>674</ele>
        <time>2012-11-24T11:07:54Z</time>
      </trkpt>
      <trkpt lat="46.32687" lon="6.46068">
        <ele>674</ele>
        <time>2012-11-24T11:07:55Z</time>
      </trkpt>
      <trkpt lat="46.32687" lon="6.46066">
        <ele>674</ele>
        <time>2012-11-24T11:07:56Z</time>
      </trkpt>
      <trkpt lat="46.32687" lon="6.46062">
        <ele>674</ele>
        <time>2012-11-24T11:07:57Z</time>
      </trkpt>
      <trkpt lat="46.32687" lon="6.46058">
        <ele>674</ele>
        <time>2012-11-24T11:07:58Z</time>
      </trkpt>
      <trkpt lat="46.32687" lon="6.46055">
        <ele>674</ele>
        <time>2012-11-24T11:07:59Z</time>
      </trkpt>
      <trkpt lat="46.32689" lon="6.46052">
        <ele>674</ele>
        <time>2012-11-24T11:08:00Z</time>
      </trkpt>
      <trkpt lat="46.32689" lon="6.46048">
        <ele>674</ele>
        <time>2012-11-24T11:08:01Z</time>
      </trkpt>
      <trkpt lat="46.3269" lon="6.46045">
        <ele>674</ele>
        <time>2012-11-24T11:08:02Z</time>
      </trkpt>
      <trkpt lat="46.3269" lon="6.46042">
        <ele>674</ele>
        <time>2012-11-24T11:08:03Z</time>
      </trkpt>
      <trkpt lat="46.32691" lon="6.46038">
        <ele>674</ele>
        <time>2012-11-24T11:08:04Z</time>
      </trkpt>
      <trkpt lat="46.32691" lon="6.46035">
        <ele>674</ele>
        <time>2012-11-24T11:08:05Z</time>
      </trkpt>
      <trkpt lat="46.32692" lon="6.46032">
        <ele>674</ele>
        <time>2012-11-24T11:08:06Z</time>
      </trkpt>
      <trkpt lat="46.32693" lon="6.46029">
        <ele>674</ele>
        <time>2012-11-24T11:08:07Z</time>
      </trkpt>
      <trkpt lat="46.32694" lon="6.46026">
        <ele>674</ele>
        <time>2012-11-24T11:08:08Z</time>
      </trkpt>
      <trkpt lat="46.32694" lon="6.46023">
        <ele>674</ele>
        <time>2012-11-24T11:08:09Z</time>
      </trkpt>
      <trkpt lat="46.32695" lon="6.46019">
        <ele>674</ele>
        <time>2012-11-24T11:08:10Z</time>
      </trkpt>
      <trkpt lat="46.32695" lon="6.46016">
        <ele>674</ele>
        <time>2012-11-24T11:08:11Z</time>
      </trkpt>
      <trkpt lat="46.32696" lon="6.46014">
        <ele>674</ele>
        <time>2012-11-24T11:08:12Z</time>
      </trkpt>
      <trkpt lat="46.32697" lon="6.46011">
        <ele>674</ele>
        <time>2012-11-24T11:08:13Z</time>
      </trkpt>
      <trkpt lat="46.32697" lon="6.46008">
        <ele>674</ele>
        <time>2012-11-24T11:08:14Z</time>
      </trkpt>
      <trkpt lat="46.32697" lon="6.46004">
        <ele>674</ele>
        <time>2012-11-24T11:08:15Z</time>
      </trkpt>
      <trkpt lat="46.32697" lon="6.46">
        <ele>674</ele>
        <time>2012-11-24T11:08:16Z</time>
      </trkpt>
      <trkpt lat="46.32697" lon="6.45996">
        <ele>674</ele>
        <time>2012-11-24T11:08:17Z</time>
      </trkpt>
      <trkpt lat="46.32696" lon="6.45991">
        <ele>674</ele>
        <time>2012-11-24T11:08:18Z</time>
      </trkpt>
      <trkpt lat="46.32696" lon="6.45987">
        <ele>674</ele>
        <time>2012-11-24T11:08:19Z</time>
      </trkpt>
      <trkpt lat="46.32696" lon="6.45983">
        <ele>674</ele>
        <time>2012-11-24T11:08:20Z</time>
      </trkpt>
      <trkpt lat="46.32695" lon="6.45979">
        <ele>674</ele>
        <time>2012-11-24T11:08:21Z</time>
      </trkpt>
      <trkpt lat="46.32696" lon="6.45975">
        <ele>674</ele>
        <time>2012-11-24T11:08:22Z</time>
      </trkpt>
      <trkpt lat="46.32696" lon="6.45971">
        <ele>674</ele>
        <time>2012-11-24T11:08:23Z</time>
      </trkpt>
      <trkpt lat="46.32695" lon="6.45968">
        <ele>674</ele>
        <time>2012-11-24T11:08:24Z</time>
      </trkpt>
      <trkpt lat="46.32695" lon="6.45965">
        <ele>674</ele>
        <time>2012-11-24T11:08:25Z</time>
      </trkpt>
      <trkpt lat="46.32695" lon="6.45961">
        <ele>674</ele>
        <time>2012-11-24T11:08:26Z</time>
      </trkpt>
      <trkpt lat="46.32695" lon="6.45957">
        <ele>674</ele>
        <time>2012-11-24T11:08:27Z</time>
      </trkpt>
      <trkpt lat="46.32695" lon="6.45953">
        <ele>674</ele>
        <time>2012-11-24T11:08:28Z</time>
      </trkpt>
      <trkpt lat="46.32694" lon="6.4595">
        <ele>674</ele>
        <time>2012-11-24T11:08:29Z</time>
      </trkpt>
      <trkpt lat="46.32694" lon="6.45946">
        <ele>674</ele>
        <time>2012-11-24T11:08:30Z</time>
      </trkpt>
      <trkpt lat="46.32693" lon="6.45942">
        <ele>674</ele>
        <time>2012-11-24T11:08:31Z</time>
      </trkpt>
      <trkpt lat="46.32692" lon="6.45938">
        <ele>675</ele>
        <time>2012-11-24T11:08:32Z</time>
      </trkpt>
      <trkpt lat="46.32692" lon="6.45933">
        <ele>675</ele>
        <time>2012-11-24T11:08:33Z</time>
      </trkpt>
      <trkpt lat="46.32691" lon="6.45929">
        <ele>675</ele>
        <time>2012-11-24T11:08:34Z</time>
      </trkpt>
      <trkpt lat="46.32691" lon="6.45924">
        <ele>675</ele>
        <time>2012-11-24T11:08:35Z</time>
      </trkpt>
      <trkpt lat="46.3269" lon="6.4592">
        <ele>675</ele>
        <time>2012-11-24T11:08:36Z</time>
      </trkpt>
      <trkpt lat="46.3269" lon="6.45916">
        <ele>675</ele>
        <time>2012-11-24T11:08:37Z</time>
      </trkpt>
      <trkpt lat="46.3269" lon="6.45912">
        <ele>675</ele>
        <time>2012-11-24T11:08:38Z</time>
      </trkpt>
      <trkpt lat="46.3269" lon="6.45909">
        <ele>676</ele>
        <time>2012-11-24T11:08:39Z</time>
      </trkpt>
      <trkpt lat="46.3269" lon="6.45904">
        <ele>676</ele>
        <time>2012-11-24T11:08:40Z</time>
      </trkpt>
      <trkpt lat="46.3269" lon="6.459">
        <ele>676</ele>
        <time>2012-11-24T11:08:41Z</time>
      </trkpt>
      <trkpt lat="46.3269" lon="6.45897">
        <ele>676</ele>
        <time>2012-11-24T11:08:42Z</time>
      </trkpt>
      <trkpt lat="46.3269" lon="6.45893">
        <ele>676</ele>
        <time>2012-11-24T11:08:43Z</time>
      </trkpt>
      <trkpt lat="46.32691" lon="6.45888">
        <ele>677</ele>
        <time>2012-11-24T11:08:44Z</time>
      </trkpt>
      <trkpt lat="46.32692" lon="6.45884">
        <ele>677</ele>
        <time>2012-11-24T11:08:45Z</time>
      </trkpt>
      <trkpt lat="46.32694" lon="6.45882">
        <ele>677</ele>
        <time>2012-11-24T11:08:46Z</time>
      </trkpt>
      <trkpt lat="46.32694" lon="6.45878">
        <ele>678</ele>
        <time>2012-11-24T11:08:47Z</time>
      </trkpt>
      <trkpt lat="46.32693" lon="6.45874">
        <ele>679</ele>
        <time>2012-11-24T11:08:48Z</time>
      </trkpt>
      <trkpt lat="46.32692" lon="6.45869">
        <ele>679</ele>
        <time>2012-11-24T11:08:49Z</time>
      </trkpt>
      <trkpt lat="46.32691" lon="6.45865">
        <ele>680</ele>
        <time>2012-11-24T11:08:50Z</time>
      </trkpt>
      <trkpt lat="46.32692" lon="6.45862">
        <ele>681</ele>
        <time>2012-11-24T11:08:51Z</time>
      </trkpt>
      <trkpt lat="46.32692" lon="6.45859">
        <ele>682</ele>
        <time>2012-11-24T11:08:52Z</time>
      </trkpt>
      <trkpt lat="46.32692" lon="6.45856">
        <ele>683</ele>
        <time>2012-11-24T11:08:53Z</time>
      </trkpt>
      <trkpt lat="46.32692" lon="6.45852">
        <ele>683</ele>
        <time>2012-11-24T11:08:54Z</time>
      </trkpt>
      <trkpt lat="46.32692" lon="6.45848">
        <ele>684</ele>
        <time>2012-11-24T11:08:55Z</time>
      </trkpt>
      <trkpt lat="46.32693" lon="6.45844">
        <ele>684</ele>
        <time>2012-11-24T11:08:56Z</time>
      </trkpt>
      <trkpt lat="46.32693" lon="6.45841">
        <ele>684</ele>
        <time>2012-11-24T11:08:57Z</time>
      </trkpt>
      <trkpt lat="46.32693" lon="6.45837">
        <ele>684</ele>
        <time>2012-11-24T11:08:58Z</time>
      </trkpt>
      <trkpt lat="46.32693" lon="6.45834">
        <ele>684</ele>
        <time>2012-11-24T11:08:59Z</time>
      </trkpt>
      <trkpt lat="46.32693" lon="6.4583">
        <ele>684</ele>
        <time>2012-11-24T11:09:00Z</time>
      </trkpt>
      <trkpt lat="46.32695" lon="6.45827">
        <ele>685</ele>
        <time>2012-11-24T11:09:01Z</time>
      </trkpt>
      <trkpt lat="46.32694" lon="6.45824">
        <ele>686</ele>
        <time>2012-11-24T11:09:02Z</time>
      </trkpt>
      <trkpt lat="46.32693" lon="6.4582">
        <ele>686</ele>
        <time>2012-11-24T11:09:03Z</time>
      </trkpt>
      <trkpt lat="46.32692" lon="6.45817">
        <ele>686</ele>
        <time>2012-11-24T11:09:04Z</time>
      </trkpt>
      <trkpt lat="46.32692" lon="6.45814">
        <ele>687</ele>
        <time>2012-11-24T11:09:05Z</time>
      </trkpt>
      <trkpt lat="46.32691" lon="6.45811">
        <ele>687</ele>
        <time>2012-11-24T11:09:06Z</time>
      </trkpt>
      <trkpt lat="46.32689" lon="6.45807">
        <ele>687</ele>
        <time>2012-11-24T11:09:07Z</time>
      </trkpt>
      <trkpt lat="46.32688" lon="6.45804">
        <ele>687</ele>
        <time>2012-11-24T11:09:08Z</time>
      </trkpt>
      <trkpt lat="46.32687" lon="6.45801">
        <ele>687</ele>
        <time>2012-11-24T11:09:09Z</time>
      </trkpt>
      <trkpt lat="46.32685" lon="6.45798">
        <ele>687</ele>
        <time>2012-11-24T11:09:10Z</time>
      </trkpt>
      <trkpt lat="46.32684" lon="6.45795">
        <ele>687</ele>
        <time>2012-11-24T11:09:11Z</time>
      </trkpt>
      <trkpt lat="46.32682" lon="6.45793">
        <ele>687</ele>
        <time>2012-11-24T11:09:12Z</time>
      </trkpt>
      <trkpt lat="46.3268" lon="6.45792">
        <ele>687</ele>
        <time>2012-11-24T11:09:13Z</time>
      </trkpt>
      <trkpt lat="46.32679" lon="6.45789">
        <ele>687</ele>
        <time>2012-11-24T11:09:14Z</time>
      </trkpt>
      <trkpt lat="46.32678" lon="6.45787">
        <ele>687</ele>
        <time>2012-11-24T11:09:15Z</time>
      </trkpt>
      <trkpt lat="46.32676" lon="6.45784">
        <ele>687</ele>
        <time>2012-11-24T11:09:16Z</time>
      </trkpt>
      <trkpt lat="46.32674" lon="6.4578">
        <ele>687</ele>
        <time>2012-11-24T11:09:17Z</time>
      </trkpt>
      <trkpt lat="46.32673" lon="6.45776">
        <ele>687</ele>
        <time>2012-11-24T11:09:18Z</time>
      </trkpt>
      <trkpt lat="46.32672" lon="6.45774">
        <ele>687</ele>
        <time>2012-11-24T11:09:19Z</time>
      </trkpt>
      <trkpt lat="46.3267" lon="6.45772">
        <ele>688</ele>
        <time>2012-11-24T11:09:20Z</time>
      </trkpt>
      <trkpt lat="46.32668" lon="6.45769">
        <ele>688</ele>
        <time>2012-11-24T11:09:21Z</time>
      </trkpt>
      <trkpt lat="46.32665" lon="6.45766">
        <ele>688</ele>
        <time>2012-11-24T11:09:22Z</time>
      </trkpt>
      <trkpt lat="46.32663" lon="6.45764">
        <ele>688</ele>
        <time>2012-11-24T11:09:23Z</time>
      </trkpt>
      <trkpt lat="46.3266" lon="6.45761">
        <ele>688</ele>
        <time>2012-11-24T11:09:24Z</time>
      </trkpt>
      <trkpt lat="46.32657" lon="6.45757">
        <ele>688</ele>
        <time>2012-11-24T11:09:25Z</time>
      </trkpt>
      <trkpt lat="46.32655" lon="6.45753">
        <ele>688</ele>
        <time>2012-11-24T11:09:26Z</time>
      </trkpt>
      <trkpt lat="46.32654" lon="6.45752">
        <ele>688</ele>
        <time>2012-11-24T11:09:27Z</time>
      </trkpt>
      <trkpt lat="46.32652" lon="6.45751">
        <ele>688</ele>
        <time>2012-11-24T11:09:28Z</time>
      </trkpt>
      <trkpt lat="46.3265" lon="6.45748">
        <ele>688</ele>
        <time>2012-11-24T11:09:29Z</time>
      </trkpt>
      <trkpt lat="46.32647" lon="6.45745">
        <ele>689</ele>
        <time>2012-11-24T11:09:30Z</time>
      </trkpt>
      <trkpt lat="46.32646" lon="6.45744">
        <ele>689</ele>
        <time>2012-11-24T11:09:31Z</time>
      </trkpt>
      <trkpt lat="46.32644" lon="6.45742">
        <ele>690</ele>
        <time>2012-11-24T11:09:32Z</time>
      </trkpt>
      <trkpt lat="46.32642" lon="6.45738">
        <ele>690</ele>
        <time>2012-11-24T11:09:33Z</time>
      </trkpt>
      <trkpt lat="46.32641" lon="6.45735">
        <ele>690</ele>
        <time>2012-11-24T11:09:34Z</time>
      </trkpt>
      <trkpt lat="46.32639" lon="6.45731">
        <ele>690</ele>
        <time>2012-11-24T11:09:35Z</time>
      </trkpt>
      <trkpt lat="46.32637" lon="6.45728">
        <ele>690</ele>
        <time>2012-11-24T11:09:36Z</time>
      </trkpt>
      <trkpt lat="46.32635" lon="6.45728">
        <ele>690</ele>
        <time>2012-11-24T11:09:37Z</time>
      </trkpt>
      <trkpt lat="46.32633" lon="6.45727">
        <ele>690</ele>
        <time>2012-11-24T11:09:39Z</time>
      </trkpt>
      <trkpt lat="46.32631" lon="6.45725">
        <ele>690</ele>
        <time>2012-11-24T11:09:40Z</time>
      </trkpt>
      <trkpt lat="46.32629" lon="6.45722">
        <ele>690</ele>
        <time>2012-11-24T11:09:42Z</time>
      </trkpt>
      <trkpt lat="46.32628" lon="6.45721">
        <ele>690</ele>
        <time>2012-11-24T11:09:43Z</time>
      </trkpt>
      <trkpt lat="46.32627" lon="6.45719">
        <ele>690</ele>
        <time>2012-11-24T11:09:44Z</time>
      </trkpt>
      <trkpt lat="46.32626" lon="6.45717">
        <ele>690</ele>
        <time>2012-11-24T11:09:45Z</time>
      </trkpt>
      <trkpt lat="46.32624" lon="6.45714">
        <ele>690</ele>
        <time>2012-11-24T11:09:46Z</time>
      </trkpt>
      <trkpt lat="46.32623" lon="6.45712">
        <ele>690</ele>
        <time>2012-11-24T11:09:47Z</time>
      </trkpt>
      <trkpt lat="46.32621" lon="6.45711">
        <ele>689</ele>
        <time>2012-11-24T11:09:48Z</time>
      </trkpt>
      <trkpt lat="46.32619" lon="6.45709">
        <ele>688</ele>
        <time>2012-11-24T11:09:49Z</time>
      </trkpt>
      <trkpt lat="46.32618" lon="6.45709">
        <ele>687</ele>
        <time>2012-11-24T11:09:50Z</time>
      </trkpt>
      <trkpt lat="46.32616" lon="6.45707">
        <ele>686</ele>
        <time>2012-11-24T11:09:51Z</time>
      </trkpt>
      <trkpt lat="46.32615" lon="6.45705">
        <ele>686</ele>
        <time>2012-11-24T11:09:52Z</time>
      </trkpt>
      <trkpt lat="46.32614" lon="6.45703">
        <ele>686</ele>
        <time>2012-11-24T11:09:53Z</time>
      </trkpt>
      <trkpt lat="46.32613" lon="6.45701">
        <ele>686</ele>
        <time>2012-11-24T11:09:54Z</time>
      </trkpt>
      <trkpt lat="46.32611" lon="6.45698">
        <ele>686</ele>
        <time>2012-11-24T11:09:55Z</time>
      </trkpt>
      <trkpt lat="46.3261" lon="6.45696">
        <ele>686</ele>
        <time>2012-11-24T11:09:56Z</time>
      </trkpt>
      <trkpt lat="46.32608" lon="6.45693">
        <ele>686</ele>
        <time>2012-11-24T11:09:57Z</time>
      </trkpt>
      <trkpt lat="46.32607" lon="6.45691">
        <ele>686</ele>
        <time>2012-11-24T11:09:58Z</time>
      </trkpt>
      <trkpt lat="46.32605" lon="6.45688">
        <ele>686</ele>
        <time>2012-11-24T11:09:59Z</time>
      </trkpt>
      <trkpt lat="46.32603" lon="6.45686">
        <ele>685</ele>
        <time>2012-11-24T11:10:00Z</time>
      </trkpt>
      <trkpt lat="46.32602" lon="6.45684">
        <ele>685</ele>
        <time>2012-11-24T11:10:01Z</time>
      </trkpt>
      <trkpt lat="46.32601" lon="6.45682">
        <ele>685</ele>
        <time>2012-11-24T11:10:02Z</time>
      </trkpt>
      <trkpt lat="46.326" lon="6.4568">
        <ele>685</ele>
        <time>2012-11-24T11:10:03Z</time>
      </trkpt>
      <trkpt lat="46.32598" lon="6.45677">
        <ele>685</ele>
        <time>2012-11-24T11:10:04Z</time>
      </trkpt>
      <trkpt lat="46.32597" lon="6.45674">
        <ele>685</ele>
        <time>2012-11-24T11:10:05Z</time>
      </trkpt>
      <trkpt lat="46.32595" lon="6.45672">
        <ele>685</ele>
        <time>2012-11-24T11:10:06Z</time>
      </trkpt>
      <trkpt lat="46.32593" lon="6.4567">
        <ele>685</ele>
        <time>2012-11-24T11:10:07Z</time>
      </trkpt>
      <trkpt lat="46.32592" lon="6.45669">
        <ele>685</ele>
        <time>2012-11-24T11:10:08Z</time>
      </trkpt>
      <trkpt lat="46.3259" lon="6.45668">
        <ele>684</ele>
        <time>2012-11-24T11:10:09Z</time>
      </trkpt>
      <trkpt lat="46.32589" lon="6.45666">
        <ele>684</ele>
        <time>2012-11-24T11:10:10Z</time>
      </trkpt>
      <trkpt lat="46.32586" lon="6.45666">
        <ele>684</ele>
        <time>2012-11-24T11:10:11Z</time>
      </trkpt>
      <trkpt lat="46.32585" lon="6.45664">
        <ele>684</ele>
        <time>2012-11-24T11:10:12Z</time>
      </trkpt>
      <trkpt lat="46.32583" lon="6.45663">
        <ele>684</ele>
        <time>2012-11-24T11:10:13Z</time>
      </trkpt>
      <trkpt lat="46.32581" lon="6.45661">
        <ele>684</ele>
        <time>2012-11-24T11:10:14Z</time>
      </trkpt>
      <trkpt lat="46.32579" lon="6.4566">
        <ele>684</ele>
        <time>2012-11-24T11:10:15Z</time>
      </trkpt>
      <trkpt lat="46.32577" lon="6.45659">
        <ele>684</ele>
        <time>2012-11-24T11:10:16Z</time>
      </trkpt>
      <trkpt lat="46.32574" lon="6.4566">
        <ele>684</ele>
        <time>2012-11-24T11:10:17Z</time>
      </trkpt>
      <trkpt lat="46.32572" lon="6.45661">
        <ele>684</ele>
        <time>2012-11-24T11:10:18Z</time>
      </trkpt>
      <trkpt lat="46.32569" lon="6.4566">
        <ele>684</ele>
        <time>2012-11-24T11:10:19Z</time>
      </trkpt>
      <trkpt lat="46.32566" lon="6.4566">
        <ele>684</ele>
        <time>2012-11-24T11:10:20Z</time>
      </trkpt>
      <trkpt lat="46.32564" lon="6.45659">
        <ele>684</ele>
        <time>2012-11-24T11:10:21Z</time>
      </trkpt>
      <trkpt lat="46.32562" lon="6.45659">
        <ele>684</ele>
        <time>2012-11-24T11:10:22Z</time>
      </trkpt>
      <trkpt lat="46.3256" lon="6.45657">
        <ele>685</ele>
        <time>2012-11-24T11:10:23Z</time>
      </trkpt>
      <trkpt lat="46.32557" lon="6.45655">
        <ele>686</ele>
        <time>2012-11-24T11:10:24Z</time>
      </trkpt>
      <trkpt lat="46.32555" lon="6.45654">
        <ele>687</ele>
        <time>2012-11-24T11:10:25Z</time>
      </trkpt>
      <trkpt lat="46.32554" lon="6.45653">
        <ele>688</ele>
        <time>2012-11-24T11:10:26Z</time>
      </trkpt>
      <trkpt lat="46.32552" lon="6.45652">
        <ele>688</ele>
        <time>2012-11-24T11:10:27Z</time>
      </trkpt>
      <trkpt lat="46.3255" lon="6.45651">
        <ele>689</ele>
        <time>2012-11-24T11:10:28Z</time>
      </trkpt>
      <trkpt lat="46.32548" lon="6.45649">
        <ele>689</ele>
        <time>2012-11-24T11:10:29Z</time>
      </trkpt>
      <trkpt lat="46.32545" lon="6.45648">
        <ele>690</ele>
        <time>2012-11-24T11:10:30Z</time>
      </trkpt>
      <trkpt lat="46.32543" lon="6.45646">
        <ele>691</ele>
        <time>2012-11-24T11:10:31Z</time>
      </trkpt>
      <trkpt lat="46.32541" lon="6.45644">
        <ele>692</ele>
        <time>2012-11-24T11:10:32Z</time>
      </trkpt>
      <trkpt lat="46.32539" lon="6.45641">
        <ele>693</ele>
        <time>2012-11-24T11:10:33Z</time>
      </trkpt>
      <trkpt lat="46.32537" lon="6.45638">
        <ele>694</ele>
        <time>2012-11-24T11:10:34Z</time>
      </trkpt>
      <trkpt lat="46.32534" lon="6.45636">
        <ele>695</ele>
        <time>2012-11-24T11:10:35Z</time>
      </trkpt>
      <trkpt lat="46.32532" lon="6.45635">
        <ele>696</ele>
        <time>2012-11-24T11:10:36Z</time>
      </trkpt>
      <trkpt lat="46.32531" lon="6.45634">
        <ele>697</ele>
        <time>2012-11-24T11:10:37Z</time>
      </trkpt>
      <trkpt lat="46.32529" lon="6.45633">
        <ele>698</ele>
        <time>2012-11-24T11:10:38Z</time>
      </trkpt>
      <trkpt lat="46.32527" lon="6.45633">
        <ele>698</ele>
        <time>2012-11-24T11:10:39Z</time>
      </trkpt>
      <trkpt lat="46.32525" lon="6.45633">
        <ele>699</ele>
        <time>2012-11-24T11:10:40Z</time>
      </trkpt>
      <trkpt lat="46.32523" lon="6.45631">
        <ele>699</ele>
        <time>2012-11-24T11:10:41Z</time>
      </trkpt>
      <trkpt lat="46.32521" lon="6.45628">
        <ele>699</ele>
        <time>2012-11-24T11:10:42Z</time>
      </trkpt>
      <trkpt lat="46.32518" lon="6.45626">
        <ele>699</ele>
        <time>2012-11-24T11:10:43Z</time>
      </trkpt>
      <trkpt lat="46.32516" lon="6.45624">
        <ele>699</ele>
        <time>2012-11-24T11:10:44Z</time>
      </trkpt>
      <trkpt lat="46.32514" lon="6.45623">
        <ele>699</ele>
        <time>2012-11-24T11:10:45Z</time>
      </trkpt>
      <trkpt lat="46.32512" lon="6.45623">
        <ele>700</ele>
        <time>2012-11-24T11:10:46Z</time>
      </trkpt>
      <trkpt lat="46.3251" lon="6.45623">
        <ele>700</ele>
        <time>2012-11-24T11:10:47Z</time>
      </trkpt>
      <trkpt lat="46.32508" lon="6.45622">
        <ele>700</ele>
        <time>2012-11-24T11:10:48Z</time>
      </trkpt>
      <trkpt lat="46.32506" lon="6.4562">
        <ele>700</ele>
        <time>2012-11-24T11:10:49Z</time>
      </trkpt>
      <trkpt lat="46.32504" lon="6.45619">
        <ele>700</ele>
        <time>2012-11-24T11:10:50Z</time>
      </trkpt>
      <trkpt lat="46.32501" lon="6.45617">
        <ele>700</ele>
        <time>2012-11-24T11:10:51Z</time>
      </trkpt>
      <trkpt lat="46.32499" lon="6.45616">
        <ele>701</ele>
        <time>2012-11-24T11:10:52Z</time>
      </trkpt>
      <trkpt lat="46.32497" lon="6.45615">
        <ele>702</ele>
        <time>2012-11-24T11:10:53Z</time>
      </trkpt>
      <trkpt lat="46.32495" lon="6.45614">
        <ele>703</ele>
        <time>2012-11-24T11:10:54Z</time>
      </trkpt>
      <trkpt lat="46.32493" lon="6.45613">
        <ele>704</ele>
        <time>2012-11-24T11:10:55Z</time>
      </trkpt>
      <trkpt lat="46.32491" lon="6.45612">
        <ele>704</ele>
        <time>2012-11-24T11:10:56Z</time>
      </trkpt>
      <trkpt lat="46.32489" lon="6.4561">
        <ele>705</ele>
        <time>2012-11-24T11:10:57Z</time>
      </trkpt>
      <trkpt lat="46.32488" lon="6.45608">
        <ele>706</ele>
        <time>2012-11-24T11:10:58Z</time>
      </trkpt>
      <trkpt lat="46.32486" lon="6.45607">
        <ele>706</ele>
        <time>2012-11-24T11:10:59Z</time>
      </trkpt>
      <trkpt lat="46.32484" lon="6.45605">
        <ele>706</ele>
        <time>2012-11-24T11:11:00Z</time>
      </trkpt>
      <trkpt lat="46.32483" lon="6.45603">
        <ele>706</ele>
        <time>2012-11-24T11:11:01Z</time>
      </trkpt>
      <trkpt lat="46.32481" lon="6.45603">
        <ele>706</ele>
        <time>2012-11-24T11:11:02Z</time>
      </trkpt>
      <trkpt lat="46.3248" lon="6.45601">
        <ele>706</ele>
        <time>2012-11-24T11:11:03Z</time>
      </trkpt>
      <trkpt lat="46.32478" lon="6.45598">
        <ele>706</ele>
        <time>2012-11-24T11:11:04Z</time>
      </trkpt>
      <trkpt lat="46.32476" lon="6.45595">
        <ele>707</ele>
        <time>2012-11-24T11:11:05Z</time>
      </trkpt>
      <trkpt lat="46.32474" lon="6.45593">
        <ele>707</ele>
        <time>2012-11-24T11:11:06Z</time>
      </trkpt>
      <trkpt lat="46.32471" lon="6.45591">
        <ele>708</ele>
        <time>2012-11-24T11:11:07Z</time>
      </trkpt>
      <trkpt lat="46.3247" lon="6.45589">
        <ele>708</ele>
        <time>2012-11-24T11:11:08Z</time>
      </trkpt>
      <trkpt lat="46.32469" lon="6.45588">
        <ele>708</ele>
        <time>2012-11-24T11:11:09Z</time>
      </trkpt>
      <trkpt lat="46.32467" lon="6.45588">
        <ele>708</ele>
        <time>2012-11-24T11:11:10Z</time>
      </trkpt>
      <trkpt lat="46.32465" lon="6.45588">
        <ele>708</ele>
        <time>2012-11-24T11:11:11Z</time>
      </trkpt>
      <trkpt lat="46.32463" lon="6.45587">
        <ele>708</ele>
        <time>2012-11-24T11:11:12Z</time>
      </trkpt>
      <trkpt lat="46.32462" lon="6.45587">
        <ele>708</ele>
        <time>2012-11-24T11:11:13Z</time>
      </trkpt>
      <trkpt lat="46.3246" lon="6.45586">
        <ele>708</ele>
        <time>2012-11-24T11:11:15Z</time>
      </trkpt>
      <trkpt lat="46.32457" lon="6.45585">
        <ele>708</ele>
        <time>2012-11-24T11:11:17Z</time>
      </trkpt>
      <trkpt lat="46.32455" lon="6.45585">
        <ele>708</ele>
        <time>2012-11-24T11:11:18Z</time>
      </trkpt>
      <trkpt lat="46.32454" lon="6.45581">
        <ele>708</ele>
        <time>2012-11-24T11:11:19Z</time>
      </trkpt>
      <trkpt lat="46.32452" lon="6.4558">
        <ele>708</ele>
        <time>2012-11-24T11:11:20Z</time>
      </trkpt>
      <trkpt lat="46.32451" lon="6.45576">
        <ele>708</ele>
        <time>2012-11-24T11:11:21Z</time>
      </trkpt>
      <trkpt lat="46.3245" lon="6.45574">
        <ele>708</ele>
        <time>2012-11-24T11:11:22Z</time>
      </trkpt>
      <trkpt lat="46.32449" lon="6.45573">
        <ele>708</ele>
        <time>2012-11-24T11:11:23Z</time>
      </trkpt>
      <trkpt lat="46.32447" lon="6.45572">
        <ele>708</ele>
        <time>2012-11-24T11:11:24Z</time>
      </trkpt>
      <trkpt lat="46.32446" lon="6.45571">
        <ele>708</ele>
        <time>2012-11-24T11:11:25Z</time>
      </trkpt>
      <trkpt lat="46.32443" lon="6.45569">
        <ele>708</ele>
        <time>2012-11-24T11:11:27Z</time>
      </trkpt>
      <trkpt lat="46.32441" lon="6.45567">
        <ele>708</ele>
        <time>2012-11-24T11:11:28Z</time>
      </trkpt>
      <trkpt lat="46.32442" lon="6.45565">
        <ele>708</ele>
        <time>2012-11-24T11:11:29Z</time>
      </trkpt>
      <trkpt lat="46.32442" lon="6.45562">
        <ele>708</ele>
        <time>2012-11-24T11:11:30Z</time>
      </trkpt>
      <trkpt lat="46.32441" lon="6.4556">
        <ele>709</ele>
        <time>2012-11-24T11:11:31Z</time>
      </trkpt>
      <trkpt lat="46.32439" lon="6.45558">
        <ele>709</ele>
        <time>2012-11-24T11:11:32Z</time>
      </trkpt>
      <trkpt lat="46.32437" lon="6.45556">
        <ele>709</ele>
        <time>2012-11-24T11:11:33Z</time>
      </trkpt>
      <trkpt lat="46.32435" lon="6.45553">
        <ele>709</ele>
        <time>2012-11-24T11:11:34Z</time>
      </trkpt>
      <trkpt lat="46.32432" lon="6.45549">
        <ele>709</ele>
        <time>2012-11-24T11:11:35Z</time>
      </trkpt>
      <trkpt lat="46.3243" lon="6.45547">
        <ele>709</ele>
        <time>2012-11-24T11:11:36Z</time>
      </trkpt>
      <trkpt lat="46.32428" lon="6.45545">
        <ele>709</ele>
        <time>2012-11-24T11:11:38Z</time>
      </trkpt>
      <trkpt lat="46.32426" lon="6.45544">
        <ele>709</ele>
        <time>2012-11-24T11:11:38Z</time>
      </trkpt>
      <trkpt lat="46.32424" lon="6.45541">
        <ele>710</ele>
        <time>2012-11-24T11:11:39Z</time>
      </trkpt>
      <trkpt lat="46.32423" lon="6.45539">
        <ele>711</ele>
        <time>2012-11-24T11:11:40Z</time>
      </trkpt>
      <trkpt lat="46.32422" lon="6.45537">
        <ele>711</ele>
        <time>2012-11-24T11:11:41Z</time>
      </trkpt>
      <trkpt lat="46.32421" lon="6.45534">
        <ele>711</ele>
        <time>2012-11-24T11:11:42Z</time>
      </trkpt>
      <trkpt lat="46.32419" lon="6.45531">
        <ele>711</ele>
        <time>2012-11-24T11:11:43Z</time>
      </trkpt>
      <trkpt lat="46.32416" lon="6.45529">
        <ele>711</ele>
        <time>2012-11-24T11:11:44Z</time>
      </trkpt>
      <trkpt lat="46.32414" lon="6.45527">
        <ele>711</ele>
        <time>2012-11-24T11:11:45Z</time>
      </trkpt>
      <trkpt lat="46.32413" lon="6.45525">
        <ele>711</ele>
        <time>2012-11-24T11:11:46Z</time>
      </trkpt>
      <trkpt lat="46.32411" lon="6.45523">
        <ele>711</ele>
        <time>2012-11-24T11:11:47Z</time>
      </trkpt>
      <trkpt lat="46.3241" lon="6.4552">
        <ele>711</ele>
        <time>2012-11-24T11:11:48Z</time>
      </trkpt>
      <trkpt lat="46.32408" lon="6.45517">
        <ele>711</ele>
        <time>2012-11-24T11:11:49Z</time>
      </trkpt>
      <trkpt lat="46.32407" lon="6.45515">
        <ele>711</ele>
        <time>2012-11-24T11:11:50Z</time>
      </trkpt>
      <trkpt lat="46.32404" lon="6.45514">
        <ele>711</ele>
        <time>2012-11-24T11:11:51Z</time>
      </trkpt>
      <trkpt lat="46.32403" lon="6.45512">
        <ele>711</ele>
        <time>2012-11-24T11:11:52Z</time>
      </trkpt>
      <trkpt lat="46.32401" lon="6.4551">
        <ele>711</ele>
        <time>2012-11-24T11:11:53Z</time>
      </trkpt>
      <trkpt lat="46.32399" lon="6.45508">
        <ele>711</ele>
        <time>2012-11-24T11:11:54Z</time>
      </trkpt>
      <trkpt lat="46.32397" lon="6.45506">
        <ele>711</ele>
        <time>2012-11-24T11:11:55Z</time>
      </trkpt>
      <trkpt lat="46.32396" lon="6.45504">
        <ele>711</ele>
        <time>2012-11-24T11:11:56Z</time>
      </trkpt>
      <trkpt lat="46.32394" lon="6.45503">
        <ele>711</ele>
        <time>2012-11-24T11:11:57Z</time>
      </trkpt>
      <trkpt lat="46.32392" lon="6.455">
        <ele>711</ele>
        <time>2012-11-24T11:11:58Z</time>
      </trkpt>
      <trkpt lat="46.3239" lon="6.45499">
        <ele>711</ele>
        <time>2012-11-24T11:11:59Z</time>
      </trkpt>
      <trkpt lat="46.32387" lon="6.45497">
        <ele>711</ele>
        <time>2012-11-24T11:12:00Z</time>
      </trkpt>
      <trkpt lat="46.32385" lon="6.45495">
        <ele>711</ele>
        <time>2012-11-24T11:12:01Z</time>
      </trkpt>
      <trkpt lat="46.32383" lon="6.45494">
        <ele>711</ele>
        <time>2012-11-24T11:12:02Z</time>
      </trkpt>
      <trkpt lat="46.32382" lon="6.45492">
        <ele>711</ele>
        <time>2012-11-24T11:12:03Z</time>
      </trkpt>
      <trkpt lat="46.3238" lon="6.45491">
        <ele>711</ele>
        <time>2012-11-24T11:12:04Z</time>
      </trkpt>
      <trkpt lat="46.32378" lon="6.45491">
        <ele>711</ele>
        <time>2012-11-24T11:12:05Z</time>
      </trkpt>
      <trkpt lat="46.32375" lon="6.45491">
        <ele>711</ele>
        <time>2012-11-24T11:12:06Z</time>
      </trkpt>
      <trkpt lat="46.32373" lon="6.45489">
        <ele>711</ele>
        <time>2012-11-24T11:12:07Z</time>
      </trkpt>
      <trkpt lat="46.32371" lon="6.45487">
        <ele>711</ele>
        <time>2012-11-24T11:12:08Z</time>
      </trkpt>
      <trkpt lat="46.32369" lon="6.45484">
        <ele>711</ele>
        <time>2012-11-24T11:12:09Z</time>
      </trkpt>
      <trkpt lat="46.32367" lon="6.45484">
        <ele>711</ele>
        <time>2012-11-24T11:12:10Z</time>
      </trkpt>
      <trkpt lat="46.32365" lon="6.45482">
        <ele>712</ele>
        <time>2012-11-24T11:12:11Z</time>
      </trkpt>
      <trkpt lat="46.32362" lon="6.45481">
        <ele>712</ele>
        <time>2012-11-24T11:12:12Z</time>
      </trkpt>
      <trkpt lat="46.3236" lon="6.45478">
        <ele>712</ele>
        <time>2012-11-24T11:12:13Z</time>
      </trkpt>
      <trkpt lat="46.32359" lon="6.45476">
        <ele>712</ele>
        <time>2012-11-24T11:12:14Z</time>
      </trkpt>
      <trkpt lat="46.32356" lon="6.45475">
        <ele>712</ele>
        <time>2012-11-24T11:12:15Z</time>
      </trkpt>
      <trkpt lat="46.32354" lon="6.45474">
        <ele>712</ele>
        <time>2012-11-24T11:12:16Z</time>
      </trkpt>
      <trkpt lat="46.32351" lon="6.45472">
        <ele>712</ele>
        <time>2012-11-24T11:12:17Z</time>
      </trkpt>
      <trkpt lat="46.32348" lon="6.45471">
        <ele>712</ele>
        <time>2012-11-24T11:12:18Z</time>
      </trkpt>
      <trkpt lat="46.32345" lon="6.4547">
        <ele>712</ele>
        <time>2012-11-24T11:12:19Z</time>
      </trkpt>
      <trkpt lat="46.32343" lon="6.45468">
        <ele>712</ele>
        <time>2012-11-24T11:12:20Z</time>
      </trkpt>
      <trkpt lat="46.3234" lon="6.45468">
        <ele>712</ele>
        <time>2012-11-24T11:12:21Z</time>
      </trkpt>
      <trkpt lat="46.32338" lon="6.45468">
        <ele>712</ele>
        <time>2012-11-24T11:12:22Z</time>
      </trkpt>
      <trkpt lat="46.32336" lon="6.45467">
        <ele>712</ele>
        <time>2012-11-24T11:12:23Z</time>
      </trkpt>
      <trkpt lat="46.32334" lon="6.45467">
        <ele>712</ele>
        <time>2012-11-24T11:12:24Z</time>
      </trkpt>
      <trkpt lat="46.32332" lon="6.45466">
        <ele>712</ele>
        <time>2012-11-24T11:12:25Z</time>
      </trkpt>
      <trkpt lat="46.3233" lon="6.45465">
        <ele>712</ele>
        <time>2012-11-24T11:12:26Z</time>
      </trkpt>
      <trkpt lat="46.32327" lon="6.45464">
        <ele>712</ele>
        <time>2012-11-24T11:12:27Z</time>
      </trkpt>
      <trkpt lat="46.32325" lon="6.45462">
        <ele>712</ele>
        <time>2012-11-24T11:12:28Z</time>
      </trkpt>
      <trkpt lat="46.32322" lon="6.4546">
        <ele>712</ele>
        <time>2012-11-24T11:12:29Z</time>
      </trkpt>
      <trkpt lat="46.3232" lon="6.45459">
        <ele>712</ele>
        <time>2012-11-24T11:12:30Z</time>
      </trkpt>
      <trkpt lat="46.32318" lon="6.45457">
        <ele>712</ele>
        <time>2012-11-24T11:12:31Z</time>
      </trkpt>
      <trkpt lat="46.32315" lon="6.45456">
        <ele>712</ele>
        <time>2012-11-24T11:12:32Z</time>
      </trkpt>
      <trkpt lat="46.32312" lon="6.45454">
        <ele>712</ele>
        <time>2012-11-24T11:12:33Z</time>
      </trkpt>
      <trkpt lat="46.3231" lon="6.45452">
        <ele>712</ele>
        <time>2012-11-24T11:12:34Z</time>
      </trkpt>
      <trkpt lat="46.32308" lon="6.4545">
        <ele>712</ele>
        <time>2012-11-24T11:12:35Z</time>
      </trkpt>
      <trkpt lat="46.32305" lon="6.45449">
        <ele>712</ele>
        <time>2012-11-24T11:12:36Z</time>
      </trkpt>
      <trkpt lat="46.32303" lon="6.45446">
        <ele>712</ele>
        <time>2012-11-24T11:12:37Z</time>
      </trkpt>
      <trkpt lat="46.323" lon="6.45444">
        <ele>712</ele>
        <time>2012-11-24T11:12:38Z</time>
      </trkpt>
      <trkpt lat="46.32298" lon="6.45443">
        <ele>712</ele>
        <time>2012-11-24T11:12:39Z</time>
      </trkpt>
      <trkpt lat="46.32294" lon="6.45443">
        <ele>712</ele>
        <time>2012-11-24T11:12:40Z</time>
      </trkpt>
      <trkpt lat="46.32292" lon="6.45445">
        <ele>712</ele>
        <time>2012-11-24T11:12:41Z</time>
      </trkpt>
      <trkpt lat="46.3229" lon="6.45447">
        <ele>712</ele>
        <time>2012-11-24T11:12:42Z</time>
      </trkpt>
      <trkpt lat="46.32288" lon="6.4545">
        <ele>712</ele>
        <time>2012-11-24T11:12:43Z</time>
      </trkpt>
      <trkpt lat="46.32287" lon="6.45454">
        <ele>712</ele>
        <time>2012-11-24T11:12:44Z</time>
      </trkpt>
      <trkpt lat="46.32286" lon="6.45457">
        <ele>712</ele>
        <time>2012-11-24T11:12:45Z</time>
      </trkpt>
      <trkpt lat="46.32285" lon="6.45461">
        <ele>712</ele>
        <time>2012-11-24T11:12:46Z</time>
      </trkpt>
      <trkpt lat="46.32284" lon="6.45465">
        <ele>712</ele>
        <time>2012-11-24T11:12:47Z</time>
      </trkpt>
      <trkpt lat="46.32283" lon="6.45469">
        <ele>712</ele>
        <time>2012-11-24T11:12:48Z</time>
      </trkpt>
      <trkpt lat="46.32282" lon="6.45472">
        <ele>712</ele>
        <time>2012-11-24T11:12:49Z</time>
      </trkpt>
      <trkpt lat="46.32281" lon="6.45476">
        <ele>712</ele>
        <time>2012-11-24T11:12:50Z</time>
      </trkpt>
      <trkpt lat="46.3228" lon="6.45479">
        <ele>712</ele>
        <time>2012-11-24T11:12:51Z</time>
      </trkpt>
      <trkpt lat="46.32279" lon="6.45483">
        <ele>712</ele>
        <time>2012-11-24T11:12:52Z</time>
      </trkpt>
      <trkpt lat="46.32278" lon="6.45487">
        <ele>712</ele>
        <time>2012-11-24T11:12:53Z</time>
      </trkpt>
      <trkpt lat="46.32277" lon="6.4549">
        <ele>712</ele>
        <time>2012-11-24T11:12:54Z</time>
      </trkpt>
      <trkpt lat="46.32277" lon="6.45494">
        <ele>712</ele>
        <time>2012-11-24T11:12:55Z</time>
      </trkpt>
      <trkpt lat="46.32275" lon="6.45498">
        <ele>712</ele>
        <time>2012-11-24T11:12:56Z</time>
      </trkpt>
      <trkpt lat="46.32275" lon="6.45501">
        <ele>712</ele>
        <time>2012-11-24T11:12:57Z</time>
      </trkpt>
      <trkpt lat="46.32274" lon="6.45505">
        <ele>712</ele>
        <time>2012-11-24T11:12:58Z</time>
      </trkpt>
      <trkpt lat="46.32273" lon="6.45508">
        <ele>712</ele>
        <time>2012-11-24T11:12:59Z</time>
      </trkpt>
      <trkpt lat="46.32272" lon="6.45511">
        <ele>712</ele>
        <time>2012-11-24T11:13:00Z</time>
      </trkpt>
      <trkpt lat="46.32272" lon="6.45514">
        <ele>711</ele>
        <time>2012-11-24T11:13:01Z</time>
      </trkpt>
      <trkpt lat="46.32271" lon="6.45517">
        <ele>711</ele>
        <time>2012-11-24T11:13:02Z</time>
      </trkpt>
      <trkpt lat="46.3227" lon="6.4552">
        <ele>710</ele>
        <time>2012-11-24T11:13:03Z</time>
      </trkpt>
      <trkpt lat="46.3227" lon="6.45523">
        <ele>710</ele>
        <time>2012-11-24T11:13:04Z</time>
      </trkpt>
      <trkpt lat="46.32269" lon="6.45527">
        <ele>709</ele>
        <time>2012-11-24T11:13:05Z</time>
      </trkpt>
      <trkpt lat="46.32268" lon="6.4553">
        <ele>709</ele>
        <time>2012-11-24T11:13:06Z</time>
      </trkpt>
      <trkpt lat="46.32267" lon="6.45533">
        <ele>708</ele>
        <time>2012-11-24T11:13:07Z</time>
      </trkpt>
      <trkpt lat="46.32266" lon="6.45536">
        <ele>708</ele>
        <time>2012-11-24T11:13:08Z</time>
      </trkpt>
      <trkpt lat="46.32265" lon="6.45539">
        <ele>708</ele>
        <time>2012-11-24T11:13:09Z</time>
      </trkpt>
      <trkpt lat="46.32264" lon="6.45541">
        <ele>708</ele>
        <time>2012-11-24T11:13:10Z</time>
      </trkpt>
      <trkpt lat="46.32262" lon="6.45544">
        <ele>707</ele>
        <time>2012-11-24T11:13:11Z</time>
      </trkpt>
      <trkpt lat="46.32261" lon="6.45547">
        <ele>707</ele>
        <time>2012-11-24T11:13:12Z</time>
      </trkpt>
      <trkpt lat="46.32259" lon="6.45548">
        <ele>706</ele>
        <time>2012-11-24T11:13:13Z</time>
      </trkpt>
      <trkpt lat="46.32257" lon="6.45548">
        <ele>706</ele>
        <time>2012-11-24T11:13:14Z</time>
      </trkpt>
      <trkpt lat="46.32255" lon="6.45548">
        <ele>706</ele>
        <time>2012-11-24T11:13:15Z</time>
      </trkpt>
      <trkpt lat="46.32253" lon="6.45547">
        <ele>706</ele>
        <time>2012-11-24T11:13:16Z</time>
      </trkpt>
      <trkpt lat="46.32251" lon="6.45546">
        <ele>706</ele>
        <time>2012-11-24T11:13:17Z</time>
      </trkpt>
      <trkpt lat="46.32249" lon="6.45545">
        <ele>706</ele>
        <time>2012-11-24T11:13:18Z</time>
      </trkpt>
      <trkpt lat="46.32247" lon="6.45544">
        <ele>706</ele>
        <time>2012-11-24T11:13:19Z</time>
      </trkpt>
      <trkpt lat="46.32245" lon="6.45543">
        <ele>706</ele>
        <time>2012-11-24T11:13:20Z</time>
      </trkpt>
      <trkpt lat="46.32243" lon="6.45541">
        <ele>706</ele>
        <time>2012-11-24T11:13:21Z</time>
      </trkpt>
      <trkpt lat="46.32241" lon="6.4554">
        <ele>706</ele>
        <time>2012-11-24T11:13:22Z</time>
      </trkpt>
      <trkpt lat="46.32239" lon="6.45538">
        <ele>706</ele>
        <time>2012-11-24T11:13:23Z</time>
      </trkpt>
      <trkpt lat="46.32237" lon="6.45537">
        <ele>706</ele>
        <time>2012-11-24T11:13:24Z</time>
      </trkpt>
      <trkpt lat="46.32235" lon="6.45536">
        <ele>706</ele>
        <time>2012-11-24T11:13:25Z</time>
      </trkpt>
      <trkpt lat="46.32233" lon="6.45534">
        <ele>706</ele>
        <time>2012-11-24T11:13:26Z</time>
      </trkpt>
      <trkpt lat="46.32231" lon="6.45533">
        <ele>706</ele>
        <time>2012-11-24T11:13:27Z</time>
      </trkpt>
      <trkpt lat="46.3223" lon="6.45531">
        <ele>706</ele>
        <time>2012-11-24T11:13:28Z</time>
      </trkpt>
      <trkpt lat="46.32228" lon="6.45529">
        <ele>706</ele>
        <time>2012-11-24T11:13:29Z</time>
      </trkpt>
      <trkpt lat="46.32226" lon="6.45527">
        <ele>706</ele>
        <time>2012-11-24T11:13:30Z</time>
      </trkpt>
      <trkpt lat="46.32224" lon="6.45525">
        <ele>706</ele>
        <time>2012-11-24T11:13:31Z</time>
      </trkpt>
      <trkpt lat="46.32222" lon="6.45524">
        <ele>706</ele>
        <time>2012-11-24T11:13:32Z</time>
      </trkpt>
      <trkpt lat="46.3222" lon="6.45522">
        <ele>707</ele>
        <time>2012-11-24T11:13:33Z</time>
      </trkpt>
      <trkpt lat="46.32218" lon="6.45521">
        <ele>707</ele>
        <time>2012-11-24T11:13:34Z</time>
      </trkpt>
      <trkpt lat="46.32217" lon="6.45519">
        <ele>707</ele>
        <time>2012-11-24T11:13:35Z</time>
      </trkpt>
      <trkpt lat="46.32215" lon="6.45517">
        <ele>707</ele>
        <time>2012-11-24T11:13:36Z</time>
      </trkpt>
      <trkpt lat="46.32213" lon="6.45516">
        <ele>707</ele>
        <time>2012-11-24T11:13:37Z</time>
      </trkpt>
      <trkpt lat="46.32211" lon="6.45514">
        <ele>707</ele>
        <time>2012-11-24T11:13:38Z</time>
      </trkpt>
      <trkpt lat="46.32209" lon="6.45513">
        <ele>707</ele>
        <time>2012-11-24T11:13:39Z</time>
      </trkpt>
      <trkpt lat="46.32207" lon="6.45509">
        <ele>707</ele>
        <time>2012-11-24T11:13:40Z</time>
      </trkpt>
      <trkpt lat="46.32205" lon="6.45508">
        <ele>707</ele>
        <time>2012-11-24T11:13:41Z</time>
      </trkpt>
      <trkpt lat="46.32203" lon="6.45507">
        <ele>707</ele>
        <time>2012-11-24T11:13:42Z</time>
      </trkpt>
      <trkpt lat="46.32201" lon="6.45505">
        <ele>707</ele>
        <time>2012-11-24T11:13:43Z</time>
      </trkpt>
      <trkpt lat="46.32199" lon="6.45504">
        <ele>707</ele>
        <time>2012-11-24T11:13:44Z</time>
      </trkpt>
      <trkpt lat="46.32197" lon="6.45502">
        <ele>708</ele>
        <time>2012-11-24T11:13:45Z</time>
      </trkpt>
      <trkpt lat="46.32194" lon="6.45499">
        <ele>708</ele>
        <time>2012-11-24T11:13:46Z</time>
      </trkpt>
      <trkpt lat="46.32192" lon="6.45497">
        <ele>708</ele>
        <time>2012-11-24T11:13:47Z</time>
      </trkpt>
      <trkpt lat="46.3219" lon="6.45494">
        <ele>708</ele>
        <time>2012-11-24T11:13:48Z</time>
      </trkpt>
      <trkpt lat="46.32189" lon="6.45492">
        <ele>708</ele>
        <time>2012-11-24T11:13:49Z</time>
      </trkpt>
      <trkpt lat="46.32188" lon="6.45491">
        <ele>708</ele>
        <time>2012-11-24T11:13:50Z</time>
      </trkpt>
      <trkpt lat="46.32186" lon="6.4549">
        <ele>708</ele>
        <time>2012-11-24T11:13:51Z</time>
      </trkpt>
      <trkpt lat="46.32185" lon="6.45487">
        <ele>708</ele>
        <time>2012-11-24T11:13:52Z</time>
      </trkpt>
      <trkpt lat="46.32182" lon="6.45484">
        <ele>708</ele>
        <time>2012-11-24T11:13:53Z</time>
      </trkpt>
      <trkpt lat="46.3218" lon="6.45481">
        <ele>708</ele>
        <time>2012-11-24T11:13:54Z</time>
      </trkpt>
      <trkpt lat="46.32178" lon="6.45479">
        <ele>708</ele>
        <time>2012-11-24T11:13:55Z</time>
      </trkpt>
      <trkpt lat="46.32177" lon="6.45477">
        <ele>708</ele>
        <time>2012-11-24T11:13:56Z</time>
      </trkpt>
      <trkpt lat="46.32176" lon="6.45475">
        <ele>708</ele>
        <time>2012-11-24T11:13:57Z</time>
      </trkpt>
      <trkpt lat="46.32174" lon="6.45474">
        <ele>708</ele>
        <time>2012-11-24T11:13:58Z</time>
      </trkpt>
      <trkpt lat="46.32172" lon="6.45473">
        <ele>708</ele>
        <time>2012-11-24T11:13:59Z</time>
      </trkpt>
      <trkpt lat="46.3217" lon="6.45471">
        <ele>708</ele>
        <time>2012-11-24T11:14:00Z</time>
      </trkpt>
      <trkpt lat="46.32168" lon="6.4547">
        <ele>708</ele>
        <time>2012-11-24T11:14:01Z</time>
      </trkpt>
      <trkpt lat="46.32166" lon="6.45469">
        <ele>708</ele>
        <time>2012-11-24T11:14:02Z</time>
      </trkpt>
      <trkpt lat="46.32164" lon="6.45468">
        <ele>708</ele>
        <time>2012-11-24T11:14:03Z</time>
      </trkpt>
      <trkpt lat="46.32162" lon="6.45466">
        <ele>708</ele>
        <time>2012-11-24T11:14:04Z</time>
      </trkpt>
      <trkpt lat="46.32161" lon="6.45465">
        <ele>708</ele>
        <time>2012-11-24T11:14:05Z</time>
      </trkpt>
      <trkpt lat="46.32159" lon="6.45465">
        <ele>708</ele>
        <time>2012-11-24T11:14:06Z</time>
      </trkpt>
      <trkpt lat="46.32157" lon="6.45464">
        <ele>708</ele>
        <time>2012-11-24T11:14:07Z</time>
      </trkpt>
      <trkpt lat="46.32155" lon="6.45463">
        <ele>708</ele>
        <time>2012-11-24T11:14:08Z</time>
      </trkpt>
      <trkpt lat="46.32153" lon="6.45463">
        <ele>708</ele>
        <time>2012-11-24T11:14:09Z</time>
      </trkpt>
      <trkpt lat="46.32151" lon="6.45461">
        <ele>708</ele>
        <time>2012-11-24T11:14:10Z</time>
      </trkpt>
      <trkpt lat="46.3215" lon="6.45459">
        <ele>708</ele>
        <time>2012-11-24T11:14:11Z</time>
      </trkpt>
      <trkpt lat="46.32148" lon="6.45456">
        <ele>708</ele>
        <time>2012-11-24T11:14:12Z</time>
      </trkpt>
      <trkpt lat="46.32145" lon="6.45455">
        <ele>708</ele>
        <time>2012-11-24T11:14:13Z</time>
      </trkpt>
      <trkpt lat="46.32142" lon="6.4545">
        <ele>708</ele>
        <time>2012-11-24T11:14:14Z</time>
      </trkpt>
      <trkpt lat="46.32138" lon="6.45446">
        <ele>708</ele>
        <time>2012-11-24T11:14:15Z</time>
      </trkpt>
      <trkpt lat="46.32136" lon="6.45444">
        <ele>708</ele>
        <time>2012-11-24T11:14:16Z</time>
      </trkpt>
      <trkpt lat="46.32133" lon="6.45442">
        <ele>708</ele>
        <time>2012-11-24T11:14:17Z</time>
      </trkpt>
      <trkpt lat="46.32131" lon="6.45439">
        <ele>708</ele>
        <time>2012-11-24T11:14:18Z</time>
      </trkpt>
      <trkpt lat="46.32129" lon="6.45438">
        <ele>708</ele>
        <time>2012-11-24T11:14:19Z</time>
      </trkpt>
      <trkpt lat="46.32128" lon="6.45437">
        <ele>708</ele>
        <time>2012-11-24T11:14:20Z</time>
      </trkpt>
      <trkpt lat="46.32125" lon="6.45436">
        <ele>708</ele>
        <time>2012-11-24T11:14:21Z</time>
      </trkpt>
      <trkpt lat="46.32124" lon="6.45434">
        <ele>708</ele>
        <time>2012-11-24T11:14:22Z</time>
      </trkpt>
      <trkpt lat="46.32123" lon="6.4543">
        <ele>708</ele>
        <time>2012-11-24T11:14:23Z</time>
      </trkpt>
      <trkpt lat="46.32123" lon="6.45428">
        <ele>708</ele>
        <time>2012-11-24T11:14:24Z</time>
      </trkpt>
      <trkpt lat="46.32123" lon="6.45424">
        <ele>708</ele>
        <time>2012-11-24T11:14:25Z</time>
      </trkpt>
      <trkpt lat="46.32124" lon="6.4542">
        <ele>708</ele>
        <time>2012-11-24T11:14:26Z</time>
      </trkpt>
      <trkpt lat="46.32125" lon="6.45416">
        <ele>708</ele>
        <time>2012-11-24T11:14:27Z</time>
      </trkpt>
      <trkpt lat="46.32127" lon="6.45413">
        <ele>708</ele>
        <time>2012-11-24T11:14:28Z</time>
      </trkpt>
      <trkpt lat="46.32129" lon="6.45411">
        <ele>708</ele>
        <time>2012-11-24T11:14:29Z</time>
      </trkpt>
      <trkpt lat="46.32131" lon="6.45409">
        <ele>708</ele>
        <time>2012-11-24T11:14:30Z</time>
      </trkpt>
      <trkpt lat="46.32131" lon="6.45404">
        <ele>708</ele>
        <time>2012-11-24T11:14:31Z</time>
      </trkpt>
      <trkpt lat="46.32132" lon="6.454">
        <ele>709</ele>
        <time>2012-11-24T11:14:32Z</time>
      </trkpt>
      <trkpt lat="46.32133" lon="6.45397">
        <ele>710</ele>
        <time>2012-11-24T11:14:33Z</time>
      </trkpt>
      <trkpt lat="46.32135" lon="6.45394">
        <ele>711</ele>
        <time>2012-11-24T11:14:34Z</time>
      </trkpt>
      <trkpt lat="46.32135" lon="6.45391">
        <ele>712</ele>
        <time>2012-11-24T11:14:35Z</time>
      </trkpt>
      <trkpt lat="46.32137" lon="6.45389">
        <ele>712</ele>
        <time>2012-11-24T11:14:36Z</time>
      </trkpt>
      <trkpt lat="46.32138" lon="6.45386">
        <ele>712</ele>
        <time>2012-11-24T11:14:37Z</time>
      </trkpt>
      <trkpt lat="46.3214" lon="6.45382">
        <ele>712</ele>
        <time>2012-11-24T11:14:38Z</time>
      </trkpt>
      <trkpt lat="46.32141" lon="6.45379">
        <ele>712</ele>
        <time>2012-11-24T11:14:39Z</time>
      </trkpt>
      <trkpt lat="46.32143" lon="6.45377">
        <ele>712</ele>
        <time>2012-11-24T11:14:40Z</time>
      </trkpt>
      <trkpt lat="46.32144" lon="6.45374">
        <ele>712</ele>
        <time>2012-11-24T11:14:41Z</time>
      </trkpt>
      <trkpt lat="46.32145" lon="6.45372">
        <ele>712</ele>
        <time>2012-11-24T11:14:42Z</time>
      </trkpt>
      <trkpt lat="46.32147" lon="6.4537">
        <ele>712</ele>
        <time>2012-11-24T11:14:43Z</time>
      </trkpt>
      <trkpt lat="46.32149" lon="6.45367">
        <ele>712</ele>
        <time>2012-11-24T11:14:44Z</time>
      </trkpt>
      <trkpt lat="46.32152" lon="6.45365">
        <ele>712</ele>
        <time>2012-11-24T11:14:45Z</time>
      </trkpt>
      <trkpt lat="46.32154" lon="6.45363">
        <ele>712</ele>
        <time>2012-11-24T11:14:46Z</time>
      </trkpt>
      <trkpt lat="46.32155" lon="6.4536">
        <ele>712</ele>
        <time>2012-11-24T11:14:47Z</time>
      </trkpt>
      <trkpt lat="46.32156" lon="6.45356">
        <ele>712</ele>
        <time>2012-11-24T11:14:48Z</time>
      </trkpt>
      <trkpt lat="46.32157" lon="6.45351">
        <ele>712</ele>
        <time>2012-11-24T11:14:49Z</time>
      </trkpt>
      <trkpt lat="46.32158" lon="6.45347">
        <ele>712</ele>
        <time>2012-11-24T11:14:50Z</time>
      </trkpt>
      <trkpt lat="46.32158" lon="6.45344">
        <ele>713</ele>
        <time>2012-11-24T11:14:51Z</time>
      </trkpt>
      <trkpt lat="46.32157" lon="6.45339">
        <ele>714</ele>
        <time>2012-11-24T11:14:52Z</time>
      </trkpt>
      <trkpt lat="46.32157" lon="6.45334">
        <ele>715</ele>
        <time>2012-11-24T11:14:53Z</time>
      </trkpt>
      <trkpt lat="46.32156" lon="6.45329">
        <ele>716</ele>
        <time>2012-11-24T11:14:54Z</time>
      </trkpt>
      <trkpt lat="46.32154" lon="6.45327">
        <ele>717</ele>
        <time>2012-11-24T11:14:55Z</time>
      </trkpt>
      <trkpt lat="46.32152" lon="6.45323">
        <ele>717</ele>
        <time>2012-11-24T11:14:56Z</time>
      </trkpt>
      <trkpt lat="46.3215" lon="6.4532">
        <ele>717</ele>
        <time>2012-11-24T11:14:57Z</time>
      </trkpt>
      <trkpt lat="46.32148" lon="6.45318">
        <ele>717</ele>
        <time>2012-11-24T11:14:58Z</time>
      </trkpt>
      <trkpt lat="46.32147" lon="6.45315">
        <ele>717</ele>
        <time>2012-11-24T11:14:59Z</time>
      </trkpt>
      <trkpt lat="46.32145" lon="6.45313">
        <ele>717</ele>
        <time>2012-11-24T11:15:00Z</time>
      </trkpt>
      <trkpt lat="46.32143" lon="6.4531">
        <ele>717</ele>
        <time>2012-11-24T11:15:01Z</time>
      </trkpt>
      <trkpt lat="46.32142" lon="6.45308">
        <ele>717</ele>
        <time>2012-11-24T11:15:02Z</time>
      </trkpt>
      <trkpt lat="46.3214" lon="6.45304">
        <ele>717</ele>
        <time>2012-11-24T11:15:03Z</time>
      </trkpt>
      <trkpt lat="46.32138" lon="6.453">
        <ele>717</ele>
        <time>2012-11-24T11:15:04Z</time>
      </trkpt>
      <trkpt lat="46.32136" lon="6.45297">
        <ele>717</ele>
        <time>2012-11-24T11:15:05Z</time>
      </trkpt>
      <trkpt lat="46.32135" lon="6.45294">
        <ele>717</ele>
        <time>2012-11-24T11:15:06Z</time>
      </trkpt>
      <trkpt lat="46.32134" lon="6.4529">
        <ele>717</ele>
        <time>2012-11-24T11:15:07Z</time>
      </trkpt>
      <trkpt lat="46.32134" lon="6.45286">
        <ele>717</ele>
        <time>2012-11-24T11:15:08Z</time>
      </trkpt>
      <trkpt lat="46.32134" lon="6.45282">
        <ele>717</ele>
        <time>2012-11-24T11:15:09Z</time>
      </trkpt>
      <trkpt lat="46.32133" lon="6.45279">
        <ele>717</ele>
        <time>2012-11-24T11:15:10Z</time>
      </trkpt>
      <trkpt lat="46.32132" lon="6.45276">
        <ele>717</ele>
        <time>2012-11-24T11:15:11Z</time>
      </trkpt>
      <trkpt lat="46.32131" lon="6.45272">
        <ele>717</ele>
        <time>2012-11-24T11:15:12Z</time>
      </trkpt>
      <trkpt lat="46.3213" lon="6.45269">
        <ele>717</ele>
        <time>2012-11-24T11:15:13Z</time>
      </trkpt>
      <trkpt lat="46.3213" lon="6.45266">
        <ele>717</ele>
        <time>2012-11-24T11:15:14Z</time>
      </trkpt>
      <trkpt lat="46.32129" lon="6.45262">
        <ele>717</ele>
        <time>2012-11-24T11:15:15Z</time>
      </trkpt>
      <trkpt lat="46.32128" lon="6.4526">
        <ele>717</ele>
        <time>2012-11-24T11:15:16Z</time>
      </trkpt>
      <trkpt lat="46.32127" lon="6.45256">
        <ele>717</ele>
        <time>2012-11-24T11:15:17Z</time>
      </trkpt>
      <trkpt lat="46.32126" lon="6.45253">
        <ele>717</ele>
        <time>2012-11-24T11:15:18Z</time>
      </trkpt>
      <trkpt lat="46.32124" lon="6.45249">
        <ele>717</ele>
        <time>2012-11-24T11:15:19Z</time>
      </trkpt>
      <trkpt lat="46.32124" lon="6.45246">
        <ele>716</ele>
        <time>2012-11-24T11:15:20Z</time>
      </trkpt>
      <trkpt lat="46.32124" lon="6.45243">
        <ele>716</ele>
        <time>2012-11-24T11:15:21Z</time>
      </trkpt>
      <trkpt lat="46.32124" lon="6.45239">
        <ele>716</ele>
        <time>2012-11-24T11:15:22Z</time>
      </trkpt>
      <trkpt lat="46.32123" lon="6.45236">
        <ele>716</ele>
        <time>2012-11-24T11:15:23Z</time>
      </trkpt>
      <trkpt lat="46.32122" lon="6.45232">
        <ele>716</ele>
        <time>2012-11-24T11:15:24Z</time>
      </trkpt>
      <trkpt lat="46.3212" lon="6.45229">
        <ele>716</ele>
        <time>2012-11-24T11:15:25Z</time>
      </trkpt>
      <trkpt lat="46.32119" lon="6.45226">
        <ele>716</ele>
        <time>2012-11-24T11:15:26Z</time>
      </trkpt>
      <trkpt lat="46.32117" lon="6.45225">
        <ele>716</ele>
        <time>2012-11-24T11:15:27Z</time>
      </trkpt>
      <trkpt lat="46.32115" lon="6.45221">
        <ele>716</ele>
        <time>2012-11-24T11:15:28Z</time>
      </trkpt>
      <trkpt lat="46.32112" lon="6.45217">
        <ele>716</ele>
        <time>2012-11-24T11:15:29Z</time>
      </trkpt>
      <trkpt lat="46.3211" lon="6.45212">
        <ele>716</ele>
        <time>2012-11-24T11:15:30Z</time>
      </trkpt>
      <trkpt lat="46.32108" lon="6.4521">
        <ele>716</ele>
        <time>2012-11-24T11:15:31Z</time>
      </trkpt>
      <trkpt lat="46.32106" lon="6.45207">
        <ele>716</ele>
        <time>2012-11-24T11:15:32Z</time>
      </trkpt>
      <trkpt lat="46.32104" lon="6.45204">
        <ele>716</ele>
        <time>2012-11-24T11:15:33Z</time>
      </trkpt>
      <trkpt lat="46.32101" lon="6.452">
        <ele>716</ele>
        <time>2012-11-24T11:15:34Z</time>
      </trkpt>
      <trkpt lat="46.321" lon="6.45198">
        <ele>716</ele>
        <time>2012-11-24T11:15:35Z</time>
      </trkpt>
      <trkpt lat="46.32099" lon="6.45196">
        <ele>716</ele>
        <time>2012-11-24T11:15:36Z</time>
      </trkpt>
      <trkpt lat="46.32097" lon="6.45196">
        <ele>717</ele>
        <time>2012-11-24T11:15:37Z</time>
      </trkpt>
      <trkpt lat="46.32095" lon="6.45194">
        <ele>717</ele>
        <time>2012-11-24T11:15:38Z</time>
      </trkpt>
      <trkpt lat="46.32093" lon="6.45193">
        <ele>718</ele>
        <time>2012-11-24T11:15:39Z</time>
      </trkpt>
      <trkpt lat="46.32092" lon="6.45192">
        <ele>718</ele>
        <time>2012-11-24T11:15:40Z</time>
      </trkpt>
      <trkpt lat="46.32089" lon="6.4519">
        <ele>718</ele>
        <time>2012-11-24T11:15:42Z</time>
      </trkpt>
      <trkpt lat="46.32088" lon="6.45189">
        <ele>718</ele>
        <time>2012-11-24T11:15:43Z</time>
      </trkpt>
      <trkpt lat="46.32086" lon="6.45188">
        <ele>718</ele>
        <time>2012-11-24T11:15:44Z</time>
      </trkpt>
      <trkpt lat="46.32084" lon="6.45182">
        <ele>718</ele>
        <time>2012-11-24T11:15:45Z</time>
      </trkpt>
      <trkpt lat="46.32083" lon="6.45179">
        <ele>718</ele>
        <time>2012-11-24T11:15:46Z</time>
      </trkpt>
      <trkpt lat="46.32081" lon="6.45175">
        <ele>718</ele>
        <time>2012-11-24T11:15:47Z</time>
      </trkpt>
      <trkpt lat="46.32079" lon="6.45171">
        <ele>718</ele>
        <time>2012-11-24T11:15:48Z</time>
      </trkpt>
      <trkpt lat="46.32077" lon="6.45168">
        <ele>719</ele>
        <time>2012-11-24T11:15:49Z</time>
      </trkpt>
      <trkpt lat="46.32075" lon="6.45165">
        <ele>720</ele>
        <time>2012-11-24T11:15:50Z</time>
      </trkpt>
      <trkpt lat="46.32073" lon="6.45163">
        <ele>721</ele>
        <time>2012-11-24T11:15:51Z</time>
      </trkpt>
      <trkpt lat="46.32072" lon="6.4516">
        <ele>722</ele>
        <time>2012-11-24T11:15:52Z</time>
      </trkpt>
      <trkpt lat="46.3207" lon="6.45157">
        <ele>722</ele>
        <time>2012-11-24T11:15:53Z</time>
      </trkpt>
      <trkpt lat="46.32067" lon="6.45153">
        <ele>723</ele>
        <time>2012-11-24T11:15:54Z</time>
      </trkpt>
      <trkpt lat="46.32065" lon="6.45151">
        <ele>724</ele>
        <time>2012-11-24T11:15:55Z</time>
      </trkpt>
      <trkpt lat="46.32064" lon="6.45149">
        <ele>725</ele>
        <time>2012-11-24T11:15:56Z</time>
      </trkpt>
      <trkpt lat="46.32062" lon="6.45148">
        <ele>725</ele>
        <time>2012-11-24T11:15:57Z</time>
      </trkpt>
      <trkpt lat="46.3206" lon="6.45145">
        <ele>726</ele>
        <time>2012-11-24T11:15:58Z</time>
      </trkpt>
      <trkpt lat="46.32057" lon="6.4514">
        <ele>726</ele>
        <time>2012-11-24T11:15:59Z</time>
      </trkpt>
      <trkpt lat="46.32055" lon="6.45137">
        <ele>727</ele>
        <time>2012-11-24T11:16:00Z</time>
      </trkpt>
      <trkpt lat="46.32054" lon="6.45136">
        <ele>727</ele>
        <time>2012-11-24T11:16:01Z</time>
      </trkpt>
      <trkpt lat="46.32052" lon="6.45136">
        <ele>728</ele>
        <time>2012-11-24T11:16:02Z</time>
      </trkpt>
      <trkpt lat="46.32051" lon="6.45133">
        <ele>728</ele>
        <time>2012-11-24T11:16:04Z</time>
      </trkpt>
      <trkpt lat="46.32049" lon="6.45132">
        <ele>728</ele>
        <time>2012-11-24T11:16:05Z</time>
      </trkpt>
      <trkpt lat="46.32047" lon="6.45131">
        <ele>728</ele>
        <time>2012-11-24T11:16:06Z</time>
      </trkpt>
      <trkpt lat="46.32046" lon="6.45129">
        <ele>728</ele>
        <time>2012-11-24T11:16:07Z</time>
      </trkpt>
      <trkpt lat="46.32044" lon="6.45129">
        <ele>728</ele>
        <time>2012-11-24T11:16:08Z</time>
      </trkpt>
      <trkpt lat="46.32042" lon="6.45128">
        <ele>728</ele>
        <time>2012-11-24T11:16:09Z</time>
      </trkpt>
      <trkpt lat="46.32039" lon="6.45128">
        <ele>728</ele>
        <time>2012-11-24T11:16:10Z</time>
      </trkpt>
      <trkpt lat="46.32037" lon="6.45127">
        <ele>728</ele>
        <time>2012-11-24T11:16:11Z</time>
      </trkpt>
      <trkpt lat="46.32035" lon="6.45126">
        <ele>727</ele>
        <time>2012-11-24T11:16:12Z</time>
      </trkpt>
      <trkpt lat="46.32034" lon="6.45127">
        <ele>726</ele>
        <time>2012-11-24T11:16:13Z</time>
      </trkpt>
      <trkpt lat="46.32032" lon="6.45127">
        <ele>725</ele>
        <time>2012-11-24T11:16:14Z</time>
      </trkpt>
      <trkpt lat="46.32029" lon="6.45127">
        <ele>724</ele>
        <time>2012-11-24T11:16:15Z</time>
      </trkpt>
      <trkpt lat="46.32026" lon="6.45125">
        <ele>723</ele>
        <time>2012-11-24T11:16:16Z</time>
      </trkpt>
      <trkpt lat="46.32023" lon="6.45126">
        <ele>722</ele>
        <time>2012-11-24T11:16:17Z</time>
      </trkpt>
      <trkpt lat="46.32021" lon="6.45126">
        <ele>721</ele>
        <time>2012-11-24T11:16:18Z</time>
      </trkpt>
      <trkpt lat="46.32019" lon="6.45125">
        <ele>720</ele>
        <time>2012-11-24T11:16:19Z</time>
      </trkpt>
      <trkpt lat="46.32018" lon="6.45122">
        <ele>719</ele>
        <time>2012-11-24T11:16:20Z</time>
      </trkpt>
      <trkpt lat="46.32015" lon="6.45122">
        <ele>718</ele>
        <time>2012-11-24T11:16:22Z</time>
      </trkpt>
      <trkpt lat="46.32012" lon="6.45122">
        <ele>718</ele>
        <time>2012-11-24T11:16:23Z</time>
      </trkpt>
      <trkpt lat="46.32008" lon="6.45121">
        <ele>718</ele>
        <time>2012-11-24T11:16:24Z</time>
      </trkpt>
      <trkpt lat="46.32006" lon="6.45122">
        <ele>718</ele>
        <time>2012-11-24T11:16:25Z</time>
      </trkpt>
      <trkpt lat="46.32003" lon="6.45121">
        <ele>718</ele>
        <time>2012-11-24T11:16:26Z</time>
      </trkpt>
      <trkpt lat="46.32001" lon="6.45119">
        <ele>718</ele>
        <time>2012-11-24T11:16:27Z</time>
      </trkpt>
      <trkpt lat="46.32" lon="6.45119">
        <ele>718</ele>
        <time>2012-11-24T11:16:28Z</time>
      </trkpt>
      <trkpt lat="46.31998" lon="6.45118">
        <ele>718</ele>
        <time>2012-11-24T11:16:29Z</time>
      </trkpt>
      <trkpt lat="46.31995" lon="6.45118">
        <ele>718</ele>
        <time>2012-11-24T11:16:30Z</time>
      </trkpt>
      <trkpt lat="46.31992" lon="6.45117">
        <ele>718</ele>
        <time>2012-11-24T11:16:31Z</time>
      </trkpt>
      <trkpt lat="46.31989" lon="6.45117">
        <ele>719</ele>
        <time>2012-11-24T11:16:32Z</time>
      </trkpt>
      <trkpt lat="46.31986" lon="6.45118">
        <ele>720</ele>
        <time>2012-11-24T11:16:33Z</time>
      </trkpt>
      <trkpt lat="46.31984" lon="6.45119">
        <ele>720</ele>
        <time>2012-11-24T11:16:34Z</time>
      </trkpt>
      <trkpt lat="46.31982" lon="6.45119">
        <ele>720</ele>
        <time>2012-11-24T11:16:35Z</time>
      </trkpt>
      <trkpt lat="46.3198" lon="6.45118">
        <ele>720</ele>
        <time>2012-11-24T11:16:36Z</time>
      </trkpt>
      <trkpt lat="46.31978" lon="6.45117">
        <ele>720</ele>
        <time>2012-11-24T11:16:37Z</time>
      </trkpt>
      <trkpt lat="46.31977" lon="6.45115">
        <ele>720</ele>
        <time>2012-11-24T11:16:38Z</time>
      </trkpt>
      <trkpt lat="46.31974" lon="6.45115">
        <ele>720</ele>
        <time>2012-11-24T11:16:39Z</time>
      </trkpt>
      <trkpt lat="46.31974" lon="6.45113">
        <ele>720</ele>
        <time>2012-11-24T11:16:40Z</time>
      </trkpt>
      <trkpt lat="46.31972" lon="6.45111">
        <ele>720</ele>
        <time>2012-11-24T11:16:41Z</time>
      </trkpt>
      <trkpt lat="46.31971" lon="6.45109">
        <ele>720</ele>
        <time>2012-11-24T11:16:42Z</time>
      </trkpt>
      <trkpt lat="46.31968" lon="6.45106">
        <ele>720</ele>
        <time>2012-11-24T11:16:43Z</time>
      </trkpt>
      <trkpt lat="46.31965" lon="6.45105">
        <ele>720</ele>
        <time>2012-11-24T11:16:44Z</time>
      </trkpt>
      <trkpt lat="46.31962" lon="6.45103">
        <ele>720</ele>
        <time>2012-11-24T11:16:45Z</time>
      </trkpt>
      <trkpt lat="46.3196" lon="6.45103">
        <ele>720</ele>
        <time>2012-11-24T11:16:46Z</time>
      </trkpt>
      <trkpt lat="46.31958" lon="6.45102">
        <ele>720</ele>
        <time>2012-11-24T11:16:47Z</time>
      </trkpt>
      <trkpt lat="46.31955" lon="6.45101">
        <ele>720</ele>
        <time>2012-11-24T11:16:48Z</time>
      </trkpt>
      <trkpt lat="46.31953" lon="6.451">
        <ele>720</ele>
        <time>2012-11-24T11:16:49Z</time>
      </trkpt>
      <trkpt lat="46.3195" lon="6.45099">
        <ele>720</ele>
        <time>2012-11-24T11:16:50Z</time>
      </trkpt>
      <trkpt lat="46.31948" lon="6.45098">
        <ele>720</ele>
        <time>2012-11-24T11:16:51Z</time>
      </trkpt>
      <trkpt lat="46.31945" lon="6.45093">
        <ele>720</ele>
        <time>2012-11-24T11:16:52Z</time>
      </trkpt>
      <trkpt lat="46.31942" lon="6.45089">
        <ele>720</ele>
        <time>2012-11-24T11:16:53Z</time>
      </trkpt>
      <trkpt lat="46.31939" lon="6.45084">
        <ele>720</ele>
        <time>2012-11-24T11:16:54Z</time>
      </trkpt>
      <trkpt lat="46.31936" lon="6.45083">
        <ele>720</ele>
        <time>2012-11-24T11:16:55Z</time>
      </trkpt>
      <trkpt lat="46.31932" lon="6.45079">
        <ele>720</ele>
        <time>2012-11-24T11:16:56Z</time>
      </trkpt>
      <trkpt lat="46.3193" lon="6.45078">
        <ele>720</ele>
        <time>2012-11-24T11:16:57Z</time>
      </trkpt>
      <trkpt lat="46.31927" lon="6.45077">
        <ele>720</ele>
        <time>2012-11-24T11:16:58Z</time>
      </trkpt>
      <trkpt lat="46.31924" lon="6.45077">
        <ele>720</ele>
        <time>2012-11-24T11:16:59Z</time>
      </trkpt>
      <trkpt lat="46.31923" lon="6.45078">
        <ele>720</ele>
        <time>2012-11-24T11:17:00Z</time>
      </trkpt>
      <trkpt lat="46.31921" lon="6.45078">
        <ele>720</ele>
        <time>2012-11-24T11:17:01Z</time>
      </trkpt>
      <trkpt lat="46.31919" lon="6.45077">
        <ele>720</ele>
        <time>2012-11-24T11:17:02Z</time>
      </trkpt>
      <trkpt lat="46.31917" lon="6.45077">
        <ele>720</ele>
        <time>2012-11-24T11:17:03Z</time>
      </trkpt>
      <trkpt lat="46.31915" lon="6.45077">
        <ele>720</ele>
        <time>2012-11-24T11:17:04Z</time>
      </trkpt>
      <trkpt lat="46.31913" lon="6.45076">
        <ele>720</ele>
        <time>2012-11-24T11:17:05Z</time>
      </trkpt>
      <trkpt lat="46.3191" lon="6.45072">
        <ele>719</ele>
        <time>2012-11-24T11:17:06Z</time>
      </trkpt>
      <trkpt lat="46.31908" lon="6.4507">
        <ele>719</ele>
        <time>2012-11-24T11:17:07Z</time>
      </trkpt>
      <trkpt lat="46.31906" lon="6.45068">
        <ele>718</ele>
        <time>2012-11-24T11:17:08Z</time>
      </trkpt>
      <trkpt lat="46.31904" lon="6.45068">
        <ele>718</ele>
        <time>2012-11-24T11:17:09Z</time>
      </trkpt>
      <trkpt lat="46.31901" lon="6.45067">
        <ele>717</ele>
        <time>2012-11-24T11:17:10Z</time>
      </trkpt>
      <trkpt lat="46.31898" lon="6.45065">
        <ele>717</ele>
        <time>2012-11-24T11:17:11Z</time>
      </trkpt>
      <trkpt lat="46.31896" lon="6.45064">
        <ele>716</ele>
        <time>2012-11-24T11:17:12Z</time>
      </trkpt>
      <trkpt lat="46.31893" lon="6.45062">
        <ele>716</ele>
        <time>2012-11-24T11:17:13Z</time>
      </trkpt>
      <trkpt lat="46.31891" lon="6.45061">
        <ele>716</ele>
        <time>2012-11-24T11:17:14Z</time>
      </trkpt>
      <trkpt lat="46.31887" lon="6.45057">
        <ele>716</ele>
        <time>2012-11-24T11:17:15Z</time>
      </trkpt>
      <trkpt lat="46.31885" lon="6.45055">
        <ele>716</ele>
        <time>2012-11-24T11:17:16Z</time>
      </trkpt>
      <trkpt lat="46.31883" lon="6.45054">
        <ele>716</ele>
        <time>2012-11-24T11:17:17Z</time>
      </trkpt>
      <trkpt lat="46.31881" lon="6.45054">
        <ele>716</ele>
        <time>2012-11-24T11:17:18Z</time>
      </trkpt>
      <trkpt lat="46.31878" lon="6.45054">
        <ele>716</ele>
        <time>2012-11-24T11:17:19Z</time>
      </trkpt>
      <trkpt lat="46.31876" lon="6.45051">
        <ele>716</ele>
        <time>2012-11-24T11:17:20Z</time>
      </trkpt>
      <trkpt lat="46.31874" lon="6.4505">
        <ele>716</ele>
        <time>2012-11-24T11:17:21Z</time>
      </trkpt>
      <trkpt lat="46.31872" lon="6.45049">
        <ele>716</ele>
        <time>2012-11-24T11:17:23Z</time>
      </trkpt>
      <trkpt lat="46.3187" lon="6.45047">
        <ele>716</ele>
        <time>2012-11-24T11:17:24Z</time>
      </trkpt>
      <trkpt lat="46.31867" lon="6.45046">
        <ele>715</ele>
        <time>2012-11-24T11:17:25Z</time>
      </trkpt>
      <trkpt lat="46.31864" lon="6.45044">
        <ele>715</ele>
        <time>2012-11-24T11:17:26Z</time>
      </trkpt>
      <trkpt lat="46.31862" lon="6.45042">
        <ele>714</ele>
        <time>2012-11-24T11:17:27Z</time>
      </trkpt>
      <trkpt lat="46.31859" lon="6.4504">
        <ele>714</ele>
        <time>2012-11-24T11:17:28Z</time>
      </trkpt>
      <trkpt lat="46.31856" lon="6.45035">
        <ele>714</ele>
        <time>2012-11-24T11:17:29Z</time>
      </trkpt>
      <trkpt lat="46.31853" lon="6.45032">
        <ele>714</ele>
        <time>2012-11-24T11:17:30Z</time>
      </trkpt>
      <trkpt lat="46.31851" lon="6.45029">
        <ele>714</ele>
        <time>2012-11-24T11:17:31Z</time>
      </trkpt>
      <trkpt lat="46.31849" lon="6.45027">
        <ele>714</ele>
        <time>2012-11-24T11:17:32Z</time>
      </trkpt>
      <trkpt lat="46.31846" lon="6.45024">
        <ele>714</ele>
        <time>2012-11-24T11:17:33Z</time>
      </trkpt>
      <trkpt lat="46.31844" lon="6.45022">
        <ele>714</ele>
        <time>2012-11-24T11:17:34Z</time>
      </trkpt>
      <trkpt lat="46.31842" lon="6.45021">
        <ele>714</ele>
        <time>2012-11-24T11:17:35Z</time>
      </trkpt>
      <trkpt lat="46.3184" lon="6.45021">
        <ele>714</ele>
        <time>2012-11-24T11:17:36Z</time>
      </trkpt>
      <trkpt lat="46.31838" lon="6.45019">
        <ele>714</ele>
        <time>2012-11-24T11:17:37Z</time>
      </trkpt>
      <trkpt lat="46.31836" lon="6.45018">
        <ele>713</ele>
        <time>2012-11-24T11:17:38Z</time>
      </trkpt>
      <trkpt lat="46.31833" lon="6.45016">
        <ele>713</ele>
        <time>2012-11-24T11:17:39Z</time>
      </trkpt>
      <trkpt lat="46.3183" lon="6.45015">
        <ele>712</ele>
        <time>2012-11-24T11:17:40Z</time>
      </trkpt>
      <trkpt lat="46.31828" lon="6.45014">
        <ele>712</ele>
        <time>2012-11-24T11:17:41Z</time>
      </trkpt>
      <trkpt lat="46.31826" lon="6.45013">
        <ele>712</ele>
        <time>2012-11-24T11:17:42Z</time>
      </trkpt>
      <trkpt lat="46.31821" lon="6.45009">
        <ele>711</ele>
        <time>2012-11-24T11:17:43Z</time>
      </trkpt>
      <trkpt lat="46.3182" lon="6.45008">
        <ele>711</ele>
        <time>2012-11-24T11:17:44Z</time>
      </trkpt>
      <trkpt lat="46.31818" lon="6.45006">
        <ele>711</ele>
        <time>2012-11-24T11:17:45Z</time>
      </trkpt>
      <trkpt lat="46.31817" lon="6.45004">
        <ele>711</ele>
        <time>2012-11-24T11:17:46Z</time>
      </trkpt>
      <trkpt lat="46.31814" lon="6.45">
        <ele>711</ele>
        <time>2012-11-24T11:17:47Z</time>
      </trkpt>
      <trkpt lat="46.31813" lon="6.44998">
        <ele>711</ele>
        <time>2012-11-24T11:17:48Z</time>
      </trkpt>
      <trkpt lat="46.31812" lon="6.44996">
        <ele>711</ele>
        <time>2012-11-24T11:17:49Z</time>
      </trkpt>
      <trkpt lat="46.3181" lon="6.44994">
        <ele>711</ele>
        <time>2012-11-24T11:17:50Z</time>
      </trkpt>
      <trkpt lat="46.31809" lon="6.4499">
        <ele>711</ele>
        <time>2012-11-24T11:17:51Z</time>
      </trkpt>
      <trkpt lat="46.31807" lon="6.44988">
        <ele>711</ele>
        <time>2012-11-24T11:17:52Z</time>
      </trkpt>
      <trkpt lat="46.31804" lon="6.44983">
        <ele>711</ele>
        <time>2012-11-24T11:17:53Z</time>
      </trkpt>
      <trkpt lat="46.31802" lon="6.44979">
        <ele>711</ele>
        <time>2012-11-24T11:17:54Z</time>
      </trkpt>
      <trkpt lat="46.318" lon="6.44976">
        <ele>711</ele>
        <time>2012-11-24T11:17:55Z</time>
      </trkpt>
      <trkpt lat="46.31799" lon="6.44974">
        <ele>712</ele>
        <time>2012-11-24T11:17:56Z</time>
      </trkpt>
      <trkpt lat="46.31794" lon="6.44969">
        <ele>713</ele>
        <time>2012-11-24T11:17:59Z</time>
      </trkpt>
      <trkpt lat="46.31792" lon="6.44965">
        <ele>713</ele>
        <time>2012-11-24T11:18:00Z</time>
      </trkpt>
      <trkpt lat="46.31791" lon="6.44962">
        <ele>713</ele>
        <time>2012-11-24T11:18:01Z</time>
      </trkpt>
      <trkpt lat="46.31789" lon="6.44959">
        <ele>713</ele>
        <time>2012-11-24T11:18:02Z</time>
      </trkpt>
      <trkpt lat="46.31786" lon="6.44957">
        <ele>713</ele>
        <time>2012-11-24T11:18:03Z</time>
      </trkpt>
      <trkpt lat="46.31786" lon="6.44953">
        <ele>713</ele>
        <time>2012-11-24T11:18:04Z</time>
      </trkpt>
      <trkpt lat="46.31784" lon="6.44951">
        <ele>713</ele>
        <time>2012-11-24T11:18:05Z</time>
      </trkpt>
      <trkpt lat="46.31782" lon="6.44949">
        <ele>713</ele>
        <time>2012-11-24T11:18:06Z</time>
      </trkpt>
      <trkpt lat="46.3178" lon="6.44948">
        <ele>713</ele>
        <time>2012-11-24T11:18:07Z</time>
      </trkpt>
      <trkpt lat="46.31776" lon="6.44943">
        <ele>713</ele>
        <time>2012-11-24T11:18:08Z</time>
      </trkpt>
      <trkpt lat="46.31775" lon="6.4494">
        <ele>713</ele>
        <time>2012-11-24T11:18:09Z</time>
      </trkpt>
      <trkpt lat="46.31773" lon="6.44934">
        <ele>713</ele>
        <time>2012-11-24T11:18:10Z</time>
      </trkpt>
      <trkpt lat="46.31772" lon="6.44928">
        <ele>714</ele>
        <time>2012-11-24T11:18:11Z</time>
      </trkpt>
      <trkpt lat="46.31772" lon="6.44923">
        <ele>715</ele>
        <time>2012-11-24T11:18:12Z</time>
      </trkpt>
      <trkpt lat="46.31772" lon="6.44921">
        <ele>716</ele>
        <time>2012-11-24T11:18:13Z</time>
      </trkpt>
      <trkpt lat="46.31773" lon="6.44918">
        <ele>717</ele>
        <time>2012-11-24T11:18:14Z</time>
      </trkpt>
      <trkpt lat="46.31774" lon="6.44915">
        <ele>718</ele>
        <time>2012-11-24T11:18:15Z</time>
      </trkpt>
      <trkpt lat="46.31776" lon="6.44913">
        <ele>719</ele>
        <time>2012-11-24T11:18:16Z</time>
      </trkpt>
      <trkpt lat="46.31776" lon="6.4491">
        <ele>720</ele>
        <time>2012-11-24T11:18:17Z</time>
      </trkpt>
      <trkpt lat="46.31777" lon="6.44908">
        <ele>720</ele>
        <time>2012-11-24T11:18:18Z</time>
      </trkpt>
      <trkpt lat="46.31778" lon="6.44904">
        <ele>720</ele>
        <time>2012-11-24T11:18:19Z</time>
      </trkpt>
      <trkpt lat="46.31778" lon="6.44901">
        <ele>720</ele>
        <time>2012-11-24T11:18:20Z</time>
      </trkpt>
      <trkpt lat="46.31779" lon="6.44899">
        <ele>720</ele>
        <time>2012-11-24T11:18:21Z</time>
      </trkpt>
      <trkpt lat="46.3178" lon="6.44898">
        <ele>720</ele>
        <time>2012-11-24T11:18:22Z</time>
      </trkpt>
      <trkpt lat="46.3178" lon="6.44895">
        <ele>721</ele>
        <time>2012-11-24T11:18:23Z</time>
      </trkpt>
      <trkpt lat="46.3178" lon="6.44894">
        <ele>721</ele>
        <time>2012-11-24T11:18:24Z</time>
      </trkpt>
      <trkpt lat="46.31782" lon="6.44892">
        <ele>721</ele>
        <time>2012-11-24T11:18:25Z</time>
      </trkpt>
      <trkpt lat="46.31783" lon="6.44889">
        <ele>721</ele>
        <time>2012-11-24T11:18:26Z</time>
      </trkpt>
      <trkpt lat="46.31783" lon="6.44887">
        <ele>721</ele>
        <time>2012-11-24T11:18:27Z</time>
      </trkpt>
      <trkpt lat="46.31784" lon="6.44885">
        <ele>722</ele>
        <time>2012-11-24T11:18:28Z</time>
      </trkpt>
      <trkpt lat="46.31786" lon="6.44882">
        <ele>722</ele>
        <time>2012-11-24T11:18:29Z</time>
      </trkpt>
      <trkpt lat="46.31787" lon="6.44881">
        <ele>723</ele>
        <time>2012-11-24T11:18:30Z</time>
      </trkpt>
      <trkpt lat="46.31788" lon="6.44878">
        <ele>724</ele>
        <time>2012-11-24T11:18:31Z</time>
      </trkpt>
      <trkpt lat="46.31789" lon="6.44876">
        <ele>725</ele>
        <time>2012-11-24T11:18:32Z</time>
      </trkpt>
      <trkpt lat="46.31791" lon="6.44874">
        <ele>726</ele>
        <time>2012-11-24T11:18:33Z</time>
      </trkpt>
      <trkpt lat="46.31792" lon="6.44872">
        <ele>727</ele>
        <time>2012-11-24T11:18:34Z</time>
      </trkpt>
      <trkpt lat="46.31792" lon="6.4487">
        <ele>728</ele>
        <time>2012-11-24T11:18:35Z</time>
      </trkpt>
      <trkpt lat="46.31793" lon="6.44868">
        <ele>729</ele>
        <time>2012-11-24T11:18:36Z</time>
      </trkpt>
      <trkpt lat="46.31794" lon="6.44867">
        <ele>730</ele>
        <time>2012-11-24T11:18:37Z</time>
      </trkpt>
      <trkpt lat="46.31795" lon="6.44866">
        <ele>730</ele>
        <time>2012-11-24T11:18:38Z</time>
      </trkpt>
      <trkpt lat="46.31801" lon="6.44857">
        <ele>731</ele>
        <time>2012-11-24T11:18:42Z</time>
      </trkpt>
      <trkpt lat="46.31807" lon="6.44857">
        <ele>731</ele>
        <time>2012-11-24T11:18:43Z</time>
      </trkpt>
      <trkpt lat="46.3181" lon="6.44854">
        <ele>732</ele>
        <time>2012-11-24T11:18:44Z</time>
      </trkpt>
      <trkpt lat="46.31815" lon="6.44851">
        <ele>733</ele>
        <time>2012-11-24T11:18:45Z</time>
      </trkpt>
      <trkpt lat="46.31817" lon="6.44849">
        <ele>733</ele>
        <time>2012-11-24T11:18:46Z</time>
      </trkpt>
      <trkpt lat="46.31818" lon="6.44847">
        <ele>733</ele>
        <time>2012-11-24T11:18:47Z</time>
      </trkpt>
      <trkpt lat="46.3182" lon="6.44845">
        <ele>733</ele>
        <time>2012-11-24T11:18:48Z</time>
      </trkpt>
      <trkpt lat="46.31821" lon="6.44843">
        <ele>733</ele>
        <time>2012-11-24T11:18:49Z</time>
      </trkpt>
      <trkpt lat="46.31822" lon="6.4484">
        <ele>733</ele>
        <time>2012-11-24T11:18:50Z</time>
      </trkpt>
      <trkpt lat="46.31823" lon="6.44838">
        <ele>733</ele>
        <time>2012-11-24T11:18:51Z</time>
      </trkpt>
      <trkpt lat="46.31826" lon="6.44838">
        <ele>733</ele>
        <time>2012-11-24T11:18:52Z</time>
      </trkpt>
      <trkpt lat="46.31828" lon="6.44836">
        <ele>733</ele>
        <time>2012-11-24T11:18:53Z</time>
      </trkpt>
      <trkpt lat="46.31829" lon="6.44835">
        <ele>733</ele>
        <time>2012-11-24T11:18:54Z</time>
      </trkpt>
      <trkpt lat="46.31831" lon="6.44832">
        <ele>733</ele>
        <time>2012-11-24T11:18:55Z</time>
      </trkpt>
      <trkpt lat="46.31832" lon="6.4483">
        <ele>733</ele>
        <time>2012-11-24T11:18:56Z</time>
      </trkpt>
      <trkpt lat="46.31834" lon="6.44829">
        <ele>733</ele>
        <time>2012-11-24T11:18:57Z</time>
      </trkpt>
      <trkpt lat="46.31835" lon="6.44827">
        <ele>733</ele>
        <time>2012-11-24T11:18:58Z</time>
      </trkpt>
      <trkpt lat="46.31838" lon="6.44827">
        <ele>733</ele>
        <time>2012-11-24T11:18:59Z</time>
      </trkpt>
      <trkpt lat="46.31841" lon="6.44827">
        <ele>733</ele>
        <time>2012-11-24T11:19:00Z</time>
      </trkpt>
      <trkpt lat="46.31844" lon="6.44828">
        <ele>733</ele>
        <time>2012-11-24T11:19:01Z</time>
      </trkpt>
      <trkpt lat="46.31846" lon="6.44828">
        <ele>734</ele>
        <time>2012-11-24T11:19:02Z</time>
      </trkpt>
      <trkpt lat="46.31848" lon="6.44831">
        <ele>734</ele>
        <time>2012-11-24T11:19:04Z</time>
      </trkpt>
      <trkpt lat="46.31849" lon="6.44834">
        <ele>734</ele>
        <time>2012-11-24T11:19:05Z</time>
      </trkpt>
      <trkpt lat="46.3185" lon="6.44835">
        <ele>734</ele>
        <time>2012-11-24T11:19:06Z</time>
      </trkpt>
      <trkpt lat="46.31853" lon="6.44837">
        <ele>734</ele>
        <time>2012-11-24T11:19:07Z</time>
      </trkpt>
      <trkpt lat="46.31854" lon="6.44837">
        <ele>734</ele>
        <time>2012-11-24T11:19:08Z</time>
      </trkpt>
      <trkpt lat="46.31856" lon="6.44837">
        <ele>734</ele>
        <time>2012-11-24T11:19:09Z</time>
      </trkpt>
      <trkpt lat="46.31858" lon="6.44838">
        <ele>734</ele>
        <time>2012-11-24T11:19:10Z</time>
      </trkpt>
      <trkpt lat="46.31861" lon="6.44837">
        <ele>734</ele>
        <time>2012-11-24T11:19:11Z</time>
      </trkpt>
      <trkpt lat="46.31863" lon="6.44836">
        <ele>734</ele>
        <time>2012-11-24T11:19:12Z</time>
      </trkpt>
      <trkpt lat="46.31865" lon="6.44833">
        <ele>734</ele>
        <time>2012-11-24T11:19:13Z</time>
      </trkpt>
      <trkpt lat="46.31868" lon="6.4483">
        <ele>734</ele>
        <time>2012-11-24T11:19:14Z</time>
      </trkpt>
      <trkpt lat="46.31871" lon="6.44828">
        <ele>734</ele>
        <time>2012-11-24T11:19:15Z</time>
      </trkpt>
      <trkpt lat="46.31872" lon="6.44825">
        <ele>734</ele>
        <time>2012-11-24T11:19:16Z</time>
      </trkpt>
      <trkpt lat="46.31873" lon="6.44822">
        <ele>734</ele>
        <time>2012-11-24T11:19:17Z</time>
      </trkpt>
      <trkpt lat="46.31874" lon="6.44819">
        <ele>734</ele>
        <time>2012-11-24T11:19:18Z</time>
      </trkpt>
      <trkpt lat="46.31876" lon="6.44817">
        <ele>734</ele>
        <time>2012-11-24T11:19:19Z</time>
      </trkpt>
      <trkpt lat="46.31878" lon="6.44815">
        <ele>734</ele>
        <time>2012-11-24T11:19:20Z</time>
      </trkpt>
      <trkpt lat="46.31879" lon="6.44812">
        <ele>734</ele>
        <time>2012-11-24T11:19:21Z</time>
      </trkpt>
      <trkpt lat="46.31881" lon="6.44809">
        <ele>734</ele>
        <time>2012-11-24T11:19:22Z</time>
      </trkpt>
      <trkpt lat="46.31884" lon="6.44807">
        <ele>734</ele>
        <time>2012-11-24T11:19:23Z</time>
      </trkpt>
      <trkpt lat="46.31887" lon="6.44805">
        <ele>734</ele>
        <time>2012-11-24T11:19:24Z</time>
      </trkpt>
      <trkpt lat="46.3189" lon="6.44803">
        <ele>734</ele>
        <time>2012-11-24T11:19:25Z</time>
      </trkpt>
      <trkpt lat="46.31892" lon="6.44801">
        <ele>734</ele>
        <time>2012-11-24T11:19:26Z</time>
      </trkpt>
      <trkpt lat="46.31894" lon="6.44798">
        <ele>734</ele>
        <time>2012-11-24T11:19:27Z</time>
      </trkpt>
      <trkpt lat="46.31895" lon="6.44794">
        <ele>734</ele>
        <time>2012-11-24T11:19:28Z</time>
      </trkpt>
      <trkpt lat="46.31897" lon="6.44791">
        <ele>734</ele>
        <time>2012-11-24T11:19:29Z</time>
      </trkpt>
      <trkpt lat="46.31898" lon="6.44788">
        <ele>734</ele>
        <time>2012-11-24T11:19:30Z</time>
      </trkpt>
      <trkpt lat="46.319" lon="6.44785">
        <ele>734</ele>
        <time>2012-11-24T11:19:31Z</time>
      </trkpt>
      <trkpt lat="46.31902" lon="6.44783">
        <ele>735</ele>
        <time>2012-11-24T11:19:32Z</time>
      </trkpt>
      <trkpt lat="46.31903" lon="6.44781">
        <ele>735</ele>
        <time>2012-11-24T11:19:33Z</time>
      </trkpt>
      <trkpt lat="46.31905" lon="6.44781">
        <ele>736</ele>
        <time>2012-11-24T11:19:34Z</time>
      </trkpt>
      <trkpt lat="46.31906" lon="6.44783">
        <ele>736</ele>
        <time>2012-11-24T11:19:35Z</time>
      </trkpt>
      <trkpt lat="46.31906" lon="6.44785">
        <ele>736</ele>
        <time>2012-11-24T11:19:36Z</time>
      </trkpt>
      <trkpt lat="46.31907" lon="6.44787">
        <ele>736</ele>
        <time>2012-11-24T11:19:37Z</time>
      </trkpt>
      <trkpt lat="46.31908" lon="6.4479">
        <ele>736</ele>
        <time>2012-11-24T11:19:39Z</time>
      </trkpt>
      <trkpt lat="46.31909" lon="6.44792">
        <ele>736</ele>
        <time>2012-11-24T11:19:41Z</time>
      </trkpt>
      <trkpt lat="46.31909" lon="6.44793">
        <ele>736</ele>
        <time>2012-11-24T11:19:42Z</time>
      </trkpt>
      <trkpt lat="46.3191" lon="6.44796">
        <ele>736</ele>
        <time>2012-11-24T11:19:43Z</time>
      </trkpt>
      <trkpt lat="46.3191" lon="6.44798">
        <ele>736</ele>
        <time>2012-11-24T11:19:44Z</time>
      </trkpt>
      <trkpt lat="46.31911" lon="6.448">
        <ele>736</ele>
        <time>2012-11-24T11:19:45Z</time>
      </trkpt>
      <trkpt lat="46.31911" lon="6.44803">
        <ele>736</ele>
        <time>2012-11-24T11:19:46Z</time>
      </trkpt>
      <trkpt lat="46.31911" lon="6.44806">
        <ele>736</ele>
        <time>2012-11-24T11:19:47Z</time>
      </trkpt>
      <trkpt lat="46.31911" lon="6.44808">
        <ele>736</ele>
        <time>2012-11-24T11:19:48Z</time>
      </trkpt>
      <trkpt lat="46.31912" lon="6.44811">
        <ele>736</ele>
        <time>2012-11-24T11:19:49Z</time>
      </trkpt>
      <trkpt lat="46.31913" lon="6.44815">
        <ele>736</ele>
        <time>2012-11-24T11:19:50Z</time>
      </trkpt>
      <trkpt lat="46.31916" lon="6.44817">
        <ele>736</ele>
        <time>2012-11-24T11:19:51Z</time>
      </trkpt>
      <trkpt lat="46.31918" lon="6.44819">
        <ele>736</ele>
        <time>2012-11-24T11:19:52Z</time>
      </trkpt>
      <trkpt lat="46.31919" lon="6.44822">
        <ele>736</ele>
        <time>2012-11-24T11:19:53Z</time>
      </trkpt>
      <trkpt lat="46.3192" lon="6.44824">
        <ele>736</ele>
        <time>2012-11-24T11:19:54Z</time>
      </trkpt>
      <trkpt lat="46.31921" lon="6.44827">
        <ele>736</ele>
        <time>2012-11-24T11:19:55Z</time>
      </trkpt>
      <trkpt lat="46.31922" lon="6.44829">
        <ele>736</ele>
        <time>2012-11-24T11:19:56Z</time>
      </trkpt>
      <trkpt lat="46.31923" lon="6.44832">
        <ele>736</ele>
        <time>2012-11-24T11:19:57Z</time>
      </trkpt>
      <trkpt lat="46.31924" lon="6.44835">
        <ele>735</ele>
        <time>2012-11-24T11:19:58Z</time>
      </trkpt>
      <trkpt lat="46.31925" lon="6.44837">
        <ele>734</ele>
        <time>2012-11-24T11:19:59Z</time>
      </trkpt>
      <trkpt lat="46.31926" lon="6.44839">
        <ele>733</ele>
        <time>2012-11-24T11:20:00Z</time>
      </trkpt>
      <trkpt lat="46.31927" lon="6.44842">
        <ele>732</ele>
        <time>2012-11-24T11:20:01Z</time>
      </trkpt>
      <trkpt lat="46.31928" lon="6.44844">
        <ele>731</ele>
        <time>2012-11-24T11:20:02Z</time>
      </trkpt>
      <trkpt lat="46.3193" lon="6.44846">
        <ele>730</ele>
        <time>2012-11-24T11:20:03Z</time>
      </trkpt>
      <trkpt lat="46.31932" lon="6.44847">
        <ele>728</ele>
        <time>2012-11-24T11:20:04Z</time>
      </trkpt>
      <trkpt lat="46.31934" lon="6.4485">
        <ele>727</ele>
        <time>2012-11-24T11:20:05Z</time>
      </trkpt>
      <trkpt lat="46.31936" lon="6.44852">
        <ele>726</ele>
        <time>2012-11-24T11:20:06Z</time>
      </trkpt>
      <trkpt lat="46.31939" lon="6.44855">
        <ele>725</ele>
        <time>2012-11-24T11:20:07Z</time>
      </trkpt>
      <trkpt lat="46.31941" lon="6.44857">
        <ele>724</ele>
        <time>2012-11-24T11:20:08Z</time>
      </trkpt>
      <trkpt lat="46.31942" lon="6.4486">
        <ele>724</ele>
        <time>2012-11-24T11:20:09Z</time>
      </trkpt>
      <trkpt lat="46.31944" lon="6.44863">
        <ele>724</ele>
        <time>2012-11-24T11:20:10Z</time>
      </trkpt>
      <trkpt lat="46.31945" lon="6.44866">
        <ele>724</ele>
        <time>2012-11-24T11:20:11Z</time>
      </trkpt>
      <trkpt lat="46.31946" lon="6.44869">
        <ele>724</ele>
        <time>2012-11-24T11:20:12Z</time>
      </trkpt>
      <trkpt lat="46.31947" lon="6.44872">
        <ele>723</ele>
        <time>2012-11-24T11:20:13Z</time>
      </trkpt>
      <trkpt lat="46.31949" lon="6.44875">
        <ele>722</ele>
        <time>2012-11-24T11:20:14Z</time>
      </trkpt>
      <trkpt lat="46.3195" lon="6.44878">
        <ele>722</ele>
        <time>2012-11-24T11:20:15Z</time>
      </trkpt>
      <trkpt lat="46.31952" lon="6.44881">
        <ele>722</ele>
        <time>2012-11-24T11:20:16Z</time>
      </trkpt>
      <trkpt lat="46.31954" lon="6.44883">
        <ele>722</ele>
        <time>2012-11-24T11:20:17Z</time>
      </trkpt>
      <trkpt lat="46.31955" lon="6.44885">
        <ele>722</ele>
        <time>2012-11-24T11:20:18Z</time>
      </trkpt>
      <trkpt lat="46.31956" lon="6.44888">
        <ele>722</ele>
        <time>2012-11-24T11:20:19Z</time>
      </trkpt>
      <trkpt lat="46.31956" lon="6.44891">
        <ele>722</ele>
        <time>2012-11-24T11:20:20Z</time>
      </trkpt>
      <trkpt lat="46.31957" lon="6.44894">
        <ele>722</ele>
        <time>2012-11-24T11:20:21Z</time>
      </trkpt>
      <trkpt lat="46.31959" lon="6.44897">
        <ele>721</ele>
        <time>2012-11-24T11:20:22Z</time>
      </trkpt>
      <trkpt lat="46.3196" lon="6.449">
        <ele>720</ele>
        <time>2012-11-24T11:20:23Z</time>
      </trkpt>
      <trkpt lat="46.31961" lon="6.44903">
        <ele>719</ele>
        <time>2012-11-24T11:20:24Z</time>
      </trkpt>
      <trkpt lat="46.31962" lon="6.44906">
        <ele>718</ele>
        <time>2012-11-24T11:20:25Z</time>
      </trkpt>
      <trkpt lat="46.31963" lon="6.44909">
        <ele>717</ele>
        <time>2012-11-24T11:20:26Z</time>
      </trkpt>
      <trkpt lat="46.31963" lon="6.44912">
        <ele>716</ele>
        <time>2012-11-24T11:20:27Z</time>
      </trkpt>
      <trkpt lat="46.31964" lon="6.44915">
        <ele>715</ele>
        <time>2012-11-24T11:20:28Z</time>
      </trkpt>
      <trkpt lat="46.31966" lon="6.44919">
        <ele>714</ele>
        <time>2012-11-24T11:20:29Z</time>
      </trkpt>
      <trkpt lat="46.31967" lon="6.44922">
        <ele>713</ele>
        <time>2012-11-24T11:20:30Z</time>
      </trkpt>
      <trkpt lat="46.31968" lon="6.44926">
        <ele>712</ele>
        <time>2012-11-24T11:20:31Z</time>
      </trkpt>
      <trkpt lat="46.3197" lon="6.4493">
        <ele>711</ele>
        <time>2012-11-24T11:20:32Z</time>
      </trkpt>
      <trkpt lat="46.31971" lon="6.44933">
        <ele>711</ele>
        <time>2012-11-24T11:20:33Z</time>
      </trkpt>
      <trkpt lat="46.31973" lon="6.44936">
        <ele>710</ele>
        <time>2012-11-24T11:20:34Z</time>
      </trkpt>
      <trkpt lat="46.31973" lon="6.44939">
        <ele>709</ele>
        <time>2012-11-24T11:20:35Z</time>
      </trkpt>
      <trkpt lat="46.31974" lon="6.44942">
        <ele>708</ele>
        <time>2012-11-24T11:20:36Z</time>
      </trkpt>
      <trkpt lat="46.31976" lon="6.44945">
        <ele>707</ele>
        <time>2012-11-24T11:20:37Z</time>
      </trkpt>
      <trkpt lat="46.31977" lon="6.44947">
        <ele>707</ele>
        <time>2012-11-24T11:20:38Z</time>
      </trkpt>
      <trkpt lat="46.31978" lon="6.4495">
        <ele>707</ele>
        <time>2012-11-24T11:20:39Z</time>
      </trkpt>
      <trkpt lat="46.31979" lon="6.44953">
        <ele>707</ele>
        <time>2012-11-24T11:20:40Z</time>
      </trkpt>
      <trkpt lat="46.3198" lon="6.44956">
        <ele>707</ele>
        <time>2012-11-24T11:20:41Z</time>
      </trkpt>
      <trkpt lat="46.31981" lon="6.44959">
        <ele>707</ele>
        <time>2012-11-24T11:20:42Z</time>
      </trkpt>
      <trkpt lat="46.31981" lon="6.44963">
        <ele>707</ele>
        <time>2012-11-24T11:20:43Z</time>
      </trkpt>
      <trkpt lat="46.31982" lon="6.44967">
        <ele>707</ele>
        <time>2012-11-24T11:20:44Z</time>
      </trkpt>
      <trkpt lat="46.31983" lon="6.4497">
        <ele>706</ele>
        <time>2012-11-24T11:20:45Z</time>
      </trkpt>
      <trkpt lat="46.31984" lon="6.44974">
        <ele>705</ele>
        <time>2012-11-24T11:20:46Z</time>
      </trkpt>
      <trkpt lat="46.31985" lon="6.44977">
        <ele>704</ele>
        <time>2012-11-24T11:20:47Z</time>
      </trkpt>
      <trkpt lat="46.31986" lon="6.44981">
        <ele>703</ele>
        <time>2012-11-24T11:20:48Z</time>
      </trkpt>
      <trkpt lat="46.31986" lon="6.44986">
        <ele>702</ele>
        <time>2012-11-24T11:20:49Z</time>
      </trkpt>
      <trkpt lat="46.31987" lon="6.4499">
        <ele>701</ele>
        <time>2012-11-24T11:20:50Z</time>
      </trkpt>
      <trkpt lat="46.31988" lon="6.44992">
        <ele>700</ele>
        <time>2012-11-24T11:20:51Z</time>
      </trkpt>
      <trkpt lat="46.3199" lon="6.44995">
        <ele>699</ele>
        <time>2012-11-24T11:20:52Z</time>
      </trkpt>
      <trkpt lat="46.31992" lon="6.44997">
        <ele>698</ele>
        <time>2012-11-24T11:20:53Z</time>
      </trkpt>
      <trkpt lat="46.31993" lon="6.44999">
        <ele>697</ele>
        <time>2012-11-24T11:20:54Z</time>
      </trkpt>
      <trkpt lat="46.31995" lon="6.45001">
        <ele>696</ele>
        <time>2012-11-24T11:20:55Z</time>
      </trkpt>
      <trkpt lat="46.31996" lon="6.45004">
        <ele>695</ele>
        <time>2012-11-24T11:20:56Z</time>
      </trkpt>
      <trkpt lat="46.31998" lon="6.45005">
        <ele>695</ele>
        <time>2012-11-24T11:20:57Z</time>
      </trkpt>
      <trkpt lat="46.31999" lon="6.45009">
        <ele>694</ele>
        <time>2012-11-24T11:20:58Z</time>
      </trkpt>
      <trkpt lat="46.32" lon="6.45012">
        <ele>694</ele>
        <time>2012-11-24T11:20:59Z</time>
      </trkpt>
      <trkpt lat="46.32002" lon="6.45015">
        <ele>694</ele>
        <time>2012-11-24T11:21:00Z</time>
      </trkpt>
      <trkpt lat="46.32003" lon="6.45018">
        <ele>694</ele>
        <time>2012-11-24T11:21:01Z</time>
      </trkpt>
      <trkpt lat="46.32004" lon="6.45019">
        <ele>694</ele>
        <time>2012-11-24T11:21:02Z</time>
      </trkpt>
      <trkpt lat="46.32003" lon="6.45024">
        <ele>694</ele>
        <time>2012-11-24T11:21:03Z</time>
      </trkpt>
      <trkpt lat="46.32005" lon="6.4503">
        <ele>694</ele>
        <time>2012-11-24T11:21:04Z</time>
      </trkpt>
      <trkpt lat="46.32008" lon="6.45034">
        <ele>694</ele>
        <time>2012-11-24T11:21:05Z</time>
      </trkpt>
      <trkpt lat="46.3201" lon="6.45037">
        <ele>694</ele>
        <time>2012-11-24T11:21:06Z</time>
      </trkpt>
      <trkpt lat="46.32011" lon="6.4504">
        <ele>695</ele>
        <time>2012-11-24T11:21:07Z</time>
      </trkpt>
      <trkpt lat="46.32013" lon="6.45043">
        <ele>695</ele>
        <time>2012-11-24T11:21:08Z</time>
      </trkpt>
      <trkpt lat="46.32015" lon="6.45045">
        <ele>695</ele>
        <time>2012-11-24T11:21:09Z</time>
      </trkpt>
      <trkpt lat="46.32017" lon="6.45048">
        <ele>695</ele>
        <time>2012-11-24T11:21:10Z</time>
      </trkpt>
      <trkpt lat="46.32019" lon="6.45052">
        <ele>695</ele>
        <time>2012-11-24T11:21:11Z</time>
      </trkpt>
      <trkpt lat="46.32021" lon="6.45055">
        <ele>695</ele>
        <time>2012-11-24T11:21:12Z</time>
      </trkpt>
      <trkpt lat="46.32022" lon="6.45059">
        <ele>696</ele>
        <time>2012-11-24T11:21:13Z</time>
      </trkpt>
      <trkpt lat="46.32024" lon="6.45062">
        <ele>697</ele>
        <time>2012-11-24T11:21:14Z</time>
      </trkpt>
      <trkpt lat="46.32026" lon="6.45065">
        <ele>698</ele>
        <time>2012-11-24T11:21:15Z</time>
      </trkpt>
      <trkpt lat="46.32029" lon="6.45067">
        <ele>699</ele>
        <time>2012-11-24T11:21:16Z</time>
      </trkpt>
      <trkpt lat="46.32031" lon="6.45069">
        <ele>700</ele>
        <time>2012-11-24T11:21:17Z</time>
      </trkpt>
      <trkpt lat="46.32034" lon="6.4507">
        <ele>702</ele>
        <time>2012-11-24T11:21:18Z</time>
      </trkpt>
      <trkpt lat="46.32035" lon="6.45073">
        <ele>704</ele>
        <time>2012-11-24T11:21:19Z</time>
      </trkpt>
      <trkpt lat="46.32037" lon="6.45075">
        <ele>705</ele>
        <time>2012-11-24T11:21:20Z</time>
      </trkpt>
      <trkpt lat="46.32038" lon="6.45077">
        <ele>707</ele>
        <time>2012-11-24T11:21:21Z</time>
      </trkpt>
      <trkpt lat="46.3204" lon="6.45079">
        <ele>708</ele>
        <time>2012-11-24T11:21:22Z</time>
      </trkpt>
      <trkpt lat="46.32043" lon="6.45081">
        <ele>710</ele>
        <time>2012-11-24T11:21:23Z</time>
      </trkpt>
      <trkpt lat="46.32046" lon="6.45082">
        <ele>711</ele>
        <time>2012-11-24T11:21:24Z</time>
      </trkpt>
      <trkpt lat="46.32048" lon="6.45081">
        <ele>712</ele>
        <time>2012-11-24T11:21:25Z</time>
      </trkpt>
      <trkpt lat="46.32051" lon="6.45081">
        <ele>713</ele>
        <time>2012-11-24T11:21:26Z</time>
      </trkpt>
      <trkpt lat="46.32053" lon="6.4508">
        <ele>714</ele>
        <time>2012-11-24T11:21:27Z</time>
      </trkpt>
      <trkpt lat="46.32057" lon="6.45078">
        <ele>715</ele>
        <time>2012-11-24T11:21:28Z</time>
      </trkpt>
      <trkpt lat="46.32059" lon="6.45079">
        <ele>716</ele>
        <time>2012-11-24T11:21:29Z</time>
      </trkpt>
      <trkpt lat="46.32061" lon="6.45081">
        <ele>718</ele>
        <time>2012-11-24T11:21:31Z</time>
      </trkpt>
      <trkpt lat="46.32061" lon="6.45083">
        <ele>719</ele>
        <time>2012-11-24T11:21:32Z</time>
      </trkpt>
      <trkpt lat="46.32063" lon="6.45087">
        <ele>720</ele>
        <time>2012-11-24T11:21:33Z</time>
      </trkpt>
      <trkpt lat="46.32064" lon="6.4509">
        <ele>720</ele>
        <time>2012-11-24T11:21:34Z</time>
      </trkpt>
      <trkpt lat="46.32064" lon="6.45094">
        <ele>720</ele>
        <time>2012-11-24T11:21:35Z</time>
      </trkpt>
      <trkpt lat="46.32065" lon="6.45096">
        <ele>721</ele>
        <time>2012-11-24T11:21:36Z</time>
      </trkpt>
      <trkpt lat="46.32066" lon="6.451">
        <ele>721</ele>
        <time>2012-11-24T11:21:37Z</time>
      </trkpt>
      <trkpt lat="46.32065" lon="6.45102">
        <ele>722</ele>
        <time>2012-11-24T11:21:38Z</time>
      </trkpt>
      <trkpt lat="46.32066" lon="6.45104">
        <ele>722</ele>
        <time>2012-11-24T11:21:39Z</time>
      </trkpt>
      <trkpt lat="46.32066" lon="6.45106">
        <ele>722</ele>
        <time>2012-11-24T11:21:40Z</time>
      </trkpt>
      <trkpt lat="46.32067" lon="6.45109">
        <ele>722</ele>
        <time>2012-11-24T11:21:41Z</time>
      </trkpt>
      <trkpt lat="46.32067" lon="6.45112">
        <ele>722</ele>
        <time>2012-11-24T11:21:42Z</time>
      </trkpt>
      <trkpt lat="46.32068" lon="6.45114">
        <ele>722</ele>
        <time>2012-11-24T11:21:43Z</time>
      </trkpt>
      <trkpt lat="46.32069" lon="6.45117">
        <ele>722</ele>
        <time>2012-11-24T11:21:44Z</time>
      </trkpt>
      <trkpt lat="46.32071" lon="6.45121">
        <ele>722</ele>
        <time>2012-11-24T11:21:45Z</time>
      </trkpt>
      <trkpt lat="46.32072" lon="6.45125">
        <ele>722</ele>
        <time>2012-11-24T11:21:46Z</time>
      </trkpt>
      <trkpt lat="46.32072" lon="6.45127">
        <ele>722</ele>
        <time>2012-11-24T11:21:47Z</time>
      </trkpt>
      <trkpt lat="46.32072" lon="6.45131">
        <ele>721</ele>
        <time>2012-11-24T11:21:48Z</time>
      </trkpt>
      <trkpt lat="46.32072" lon="6.45134">
        <ele>720</ele>
        <time>2012-11-24T11:21:49Z</time>
      </trkpt>
      <trkpt lat="46.32072" lon="6.45136">
        <ele>719</ele>
        <time>2012-11-24T11:21:50Z</time>
      </trkpt>
      <trkpt lat="46.32073" lon="6.4514">
        <ele>718</ele>
        <time>2012-11-24T11:21:51Z</time>
      </trkpt>
      <trkpt lat="46.32074" lon="6.45142">
        <ele>718</ele>
        <time>2012-11-24T11:21:52Z</time>
      </trkpt>
      <trkpt lat="46.32075" lon="6.45145">
        <ele>718</ele>
        <time>2012-11-24T11:21:53Z</time>
      </trkpt>
      <trkpt lat="46.32076" lon="6.45148">
        <ele>718</ele>
        <time>2012-11-24T11:21:54Z</time>
      </trkpt>
      <trkpt lat="46.32076" lon="6.4515">
        <ele>718</ele>
        <time>2012-11-24T11:21:55Z</time>
      </trkpt>
      <trkpt lat="46.32076" lon="6.45153">
        <ele>718</ele>
        <time>2012-11-24T11:21:56Z</time>
      </trkpt>
      <trkpt lat="46.32077" lon="6.45155">
        <ele>717</ele>
        <time>2012-11-24T11:21:57Z</time>
      </trkpt>
      <trkpt lat="46.32079" lon="6.45155">
        <ele>717</ele>
        <time>2012-11-24T11:21:58Z</time>
      </trkpt>
      <trkpt lat="46.3208" lon="6.45155">
        <ele>717</ele>
        <time>2012-11-24T11:21:59Z</time>
      </trkpt>
      <trkpt lat="46.32082" lon="6.45154">
        <ele>717</ele>
        <time>2012-11-24T11:22:00Z</time>
      </trkpt>
      <trkpt lat="46.32082" lon="6.45152">
        <ele>717</ele>
        <time>2012-11-24T11:22:01Z</time>
      </trkpt>
      <trkpt lat="46.32083" lon="6.45151">
        <ele>717</ele>
        <time>2012-11-24T11:22:02Z</time>
      </trkpt>
      <trkpt lat="46.32084" lon="6.45148">
        <ele>717</ele>
        <time>2012-11-24T11:22:03Z</time>
      </trkpt>
      <trkpt lat="46.32084" lon="6.45145">
        <ele>717</ele>
        <time>2012-11-24T11:22:04Z</time>
      </trkpt>
      <trkpt lat="46.32084" lon="6.45143">
        <ele>717</ele>
        <time>2012-11-24T11:22:05Z</time>
      </trkpt>
      <trkpt lat="46.32085" lon="6.45141">
        <ele>717</ele>
        <time>2012-11-24T11:22:07Z</time>
      </trkpt>
      <trkpt lat="46.32086" lon="6.45139">
        <ele>717</ele>
        <time>2012-11-24T11:22:08Z</time>
      </trkpt>
      <trkpt lat="46.32087" lon="6.45138">
        <ele>717</ele>
        <time>2012-11-24T11:22:11Z</time>
      </trkpt>
      <trkpt lat="46.32088" lon="6.45139">
        <ele>717</ele>
        <time>2012-11-24T11:22:12Z</time>
      </trkpt>
      <trkpt lat="46.32088" lon="6.45137">
        <ele>717</ele>
        <time>2012-11-24T11:22:23Z</time>
      </trkpt>
      <trkpt lat="46.32089" lon="6.4514">
        <ele>716</ele>
        <time>2012-11-24T11:22:25Z</time>
      </trkpt>
      <trkpt lat="46.3209" lon="6.4514">
        <ele>715</ele>
        <time>2012-11-24T11:22:27Z</time>
      </trkpt>
      <trkpt lat="46.32091" lon="6.45137">
        <ele>715</ele>
        <time>2012-11-24T11:22:32Z</time>
      </trkpt>
      <trkpt lat="46.32091" lon="6.45136">
        <ele>715</ele>
        <time>2012-11-24T11:22:33Z</time>
      </trkpt>
      <trkpt lat="46.3209" lon="6.45133">
        <ele>715</ele>
        <time>2012-11-24T11:22:34Z</time>
      </trkpt>
      <trkpt lat="46.3209" lon="6.45132">
        <ele>715</ele>
        <time>2012-11-24T11:22:35Z</time>
      </trkpt>
      <trkpt lat="46.32091" lon="6.4513">
        <ele>715</ele>
        <time>2012-11-24T11:22:36Z</time>
      </trkpt>
      <trkpt lat="46.32091" lon="6.45128">
        <ele>715</ele>
        <time>2012-11-24T11:22:37Z</time>
      </trkpt>
      <trkpt lat="46.32091" lon="6.45126">
        <ele>715</ele>
        <time>2012-11-24T11:22:39Z</time>
      </trkpt>
      <trkpt lat="46.32091" lon="6.45124">
        <ele>716</ele>
        <time>2012-11-24T11:22:41Z</time>
      </trkpt>
      <trkpt lat="46.32091" lon="6.45119">
        <ele>718</ele>
        <time>2012-11-24T11:22:43Z</time>
      </trkpt>
      <trkpt lat="46.3209" lon="6.45116">
        <ele>719</ele>
        <time>2012-11-24T11:22:44Z</time>
      </trkpt>
      <trkpt lat="46.3209" lon="6.45114">
        <ele>720</ele>
        <time>2012-11-24T11:22:45Z</time>
      </trkpt>
      <trkpt lat="46.32088" lon="6.45111">
        <ele>721</ele>
        <time>2012-11-24T11:22:46Z</time>
      </trkpt>
      <trkpt lat="46.32089" lon="6.45108">
        <ele>722</ele>
        <time>2012-11-24T11:22:47Z</time>
      </trkpt>
      <trkpt lat="46.32089" lon="6.45106">
        <ele>722</ele>
        <time>2012-11-24T11:22:48Z</time>
      </trkpt>
      <trkpt lat="46.3209" lon="6.45102">
        <ele>722</ele>
        <time>2012-11-24T11:22:49Z</time>
      </trkpt>
      <trkpt lat="46.3209" lon="6.451">
        <ele>722</ele>
        <time>2012-11-24T11:22:50Z</time>
      </trkpt>
      <trkpt lat="46.32091" lon="6.45096">
        <ele>722</ele>
        <time>2012-11-24T11:22:51Z</time>
      </trkpt>
      <trkpt lat="46.32092" lon="6.45093">
        <ele>722</ele>
        <time>2012-11-24T11:22:52Z</time>
      </trkpt>
      <trkpt lat="46.32091" lon="6.45091">
        <ele>722</ele>
        <time>2012-11-24T11:22:53Z</time>
      </trkpt>
      <trkpt lat="46.32091" lon="6.45087">
        <ele>722</ele>
        <time>2012-11-24T11:22:54Z</time>
      </trkpt>
      <trkpt lat="46.32091" lon="6.45084">
        <ele>722</ele>
        <time>2012-11-24T11:22:55Z</time>
      </trkpt>
      <trkpt lat="46.32092" lon="6.45081">
        <ele>722</ele>
        <time>2012-11-24T11:22:56Z</time>
      </trkpt>
      <trkpt lat="46.32093" lon="6.45077">
        <ele>722</ele>
        <time>2012-11-24T11:22:57Z</time>
      </trkpt>
      <trkpt lat="46.32093" lon="6.45074">
        <ele>722</ele>
        <time>2012-11-24T11:22:58Z</time>
      </trkpt>
      <trkpt lat="46.32092" lon="6.45069">
        <ele>722</ele>
        <time>2012-11-24T11:22:59Z</time>
      </trkpt>
      <trkpt lat="46.32092" lon="6.45064">
        <ele>722</ele>
        <time>2012-11-24T11:23:00Z</time>
      </trkpt>
      <trkpt lat="46.32092" lon="6.4506">
        <ele>722</ele>
        <time>2012-11-24T11:23:01Z</time>
      </trkpt>
      <trkpt lat="46.32092" lon="6.45055">
        <ele>722</ele>
        <time>2012-11-24T11:23:02Z</time>
      </trkpt>
      <trkpt lat="46.32093" lon="6.45053">
        <ele>722</ele>
        <time>2012-11-24T11:23:03Z</time>
      </trkpt>
      <trkpt lat="46.32094" lon="6.45052">
        <ele>722</ele>
        <time>2012-11-24T11:23:04Z</time>
      </trkpt>
      <trkpt lat="46.32095" lon="6.4505">
        <ele>722</ele>
        <time>2012-11-24T11:23:05Z</time>
      </trkpt>
      <trkpt lat="46.32095" lon="6.45047">
        <ele>722</ele>
        <time>2012-11-24T11:23:06Z</time>
      </trkpt>
      <trkpt lat="46.32097" lon="6.45044">
        <ele>722</ele>
        <time>2012-11-24T11:23:07Z</time>
      </trkpt>
      <trkpt lat="46.32098" lon="6.4504">
        <ele>722</ele>
        <time>2012-11-24T11:23:08Z</time>
      </trkpt>
      <trkpt lat="46.32099" lon="6.45037">
        <ele>722</ele>
        <time>2012-11-24T11:23:09Z</time>
      </trkpt>
      <trkpt lat="46.32101" lon="6.45035">
        <ele>722</ele>
        <time>2012-11-24T11:23:10Z</time>
      </trkpt>
      <trkpt lat="46.32104" lon="6.45034">
        <ele>722</ele>
        <time>2012-11-24T11:23:11Z</time>
      </trkpt>
      <trkpt lat="46.32106" lon="6.45033">
        <ele>722</ele>
        <time>2012-11-24T11:23:12Z</time>
      </trkpt>
      <trkpt lat="46.32109" lon="6.45033">
        <ele>722</ele>
        <time>2012-11-24T11:23:13Z</time>
      </trkpt>
      <trkpt lat="46.32112" lon="6.45033">
        <ele>722</ele>
        <time>2012-11-24T11:23:14Z</time>
      </trkpt>
      <trkpt lat="46.32115" lon="6.45032">
        <ele>722</ele>
        <time>2012-11-24T11:23:15Z</time>
      </trkpt>
      <trkpt lat="46.32118" lon="6.45033">
        <ele>722</ele>
        <time>2012-11-24T11:23:16Z</time>
      </trkpt>
      <trkpt lat="46.3212" lon="6.45031">
        <ele>721</ele>
        <time>2012-11-24T11:23:17Z</time>
      </trkpt>
      <trkpt lat="46.32122" lon="6.4503">
        <ele>720</ele>
        <time>2012-11-24T11:23:18Z</time>
      </trkpt>
      <trkpt lat="46.32124" lon="6.45028">
        <ele>719</ele>
        <time>2012-11-24T11:23:19Z</time>
      </trkpt>
      <trkpt lat="46.32126" lon="6.45025">
        <ele>719</ele>
        <time>2012-11-24T11:23:20Z</time>
      </trkpt>
      <trkpt lat="46.32127" lon="6.45023">
        <ele>719</ele>
        <time>2012-11-24T11:23:21Z</time>
      </trkpt>
      <trkpt lat="46.3213" lon="6.4502">
        <ele>719</ele>
        <time>2012-11-24T11:23:22Z</time>
      </trkpt>
      <trkpt lat="46.32132" lon="6.45017">
        <ele>719</ele>
        <time>2012-11-24T11:23:23Z</time>
      </trkpt>
      <trkpt lat="46.32134" lon="6.45016">
        <ele>719</ele>
        <time>2012-11-24T11:23:24Z</time>
      </trkpt>
      <trkpt lat="46.32135" lon="6.45015">
        <ele>718</ele>
        <time>2012-11-24T11:23:25Z</time>
      </trkpt>
      <trkpt lat="46.32137" lon="6.45014">
        <ele>718</ele>
        <time>2012-11-24T11:23:26Z</time>
      </trkpt>
      <trkpt lat="46.32139" lon="6.45012">
        <ele>717</ele>
        <time>2012-11-24T11:23:27Z</time>
      </trkpt>
      <trkpt lat="46.3214" lon="6.45009">
        <ele>716</ele>
        <time>2012-11-24T11:23:28Z</time>
      </trkpt>
      <trkpt lat="46.32142" lon="6.45006">
        <ele>716</ele>
        <time>2012-11-24T11:23:29Z</time>
      </trkpt>
      <trkpt lat="46.32144" lon="6.45003">
        <ele>715</ele>
        <time>2012-11-24T11:23:30Z</time>
      </trkpt>
      <trkpt lat="46.32146" lon="6.45001">
        <ele>715</ele>
        <time>2012-11-24T11:23:31Z</time>
      </trkpt>
      <trkpt lat="46.32148" lon="6.44999">
        <ele>715</ele>
        <time>2012-11-24T11:23:32Z</time>
      </trkpt>
      <trkpt lat="46.3215" lon="6.44996">
        <ele>715</ele>
        <time>2012-11-24T11:23:33Z</time>
      </trkpt>
      <trkpt lat="46.32151" lon="6.44993">
        <ele>714</ele>
        <time>2012-11-24T11:23:34Z</time>
      </trkpt>
      <trkpt lat="46.32152" lon="6.44991">
        <ele>714</ele>
        <time>2012-11-24T11:23:35Z</time>
      </trkpt>
      <trkpt lat="46.32153" lon="6.44989">
        <ele>714</ele>
        <time>2012-11-24T11:23:36Z</time>
      </trkpt>
      <trkpt lat="46.32155" lon="6.44986">
        <ele>714</ele>
        <time>2012-11-24T11:23:37Z</time>
      </trkpt>
      <trkpt lat="46.32156" lon="6.44983">
        <ele>714</ele>
        <time>2012-11-24T11:23:38Z</time>
      </trkpt>
      <trkpt lat="46.32157" lon="6.44979">
        <ele>714</ele>
        <time>2012-11-24T11:23:39Z</time>
      </trkpt>
      <trkpt lat="46.32158" lon="6.44975">
        <ele>713</ele>
        <time>2012-11-24T11:23:40Z</time>
      </trkpt>
      <trkpt lat="46.32161" lon="6.44972">
        <ele>713</ele>
        <time>2012-11-24T11:23:41Z</time>
      </trkpt>
      <trkpt lat="46.32161" lon="6.44969">
        <ele>713</ele>
        <time>2012-11-24T11:23:42Z</time>
      </trkpt>
      <trkpt lat="46.32162" lon="6.44967">
        <ele>713</ele>
        <time>2012-11-24T11:23:43Z</time>
      </trkpt>
      <trkpt lat="46.32163" lon="6.44963">
        <ele>713</ele>
        <time>2012-11-24T11:23:44Z</time>
      </trkpt>
      <trkpt lat="46.32164" lon="6.44961">
        <ele>713</ele>
        <time>2012-11-24T11:23:45Z</time>
      </trkpt>
      <trkpt lat="46.32167" lon="6.4496">
        <ele>712</ele>
        <time>2012-11-24T11:23:46Z</time>
      </trkpt>
      <trkpt lat="46.32168" lon="6.44958">
        <ele>711</ele>
        <time>2012-11-24T11:23:47Z</time>
      </trkpt>
      <trkpt lat="46.3217" lon="6.44956">
        <ele>711</ele>
        <time>2012-11-24T11:23:48Z</time>
      </trkpt>
      <trkpt lat="46.32172" lon="6.44955">
        <ele>711</ele>
        <time>2012-11-24T11:23:49Z</time>
      </trkpt>
      <trkpt lat="46.32173" lon="6.44953">
        <ele>711</ele>
        <time>2012-11-24T11:23:50Z</time>
      </trkpt>
      <trkpt lat="46.32175" lon="6.44952">
        <ele>711</ele>
        <time>2012-11-24T11:23:51Z</time>
      </trkpt>
      <trkpt lat="46.32176" lon="6.4495">
        <ele>711</ele>
        <time>2012-11-24T11:23:52Z</time>
      </trkpt>
      <trkpt lat="46.32179" lon="6.44948">
        <ele>711</ele>
        <time>2012-11-24T11:23:54Z</time>
      </trkpt>
      <trkpt lat="46.32182" lon="6.44948">
        <ele>711</ele>
        <time>2012-11-24T11:23:55Z</time>
      </trkpt>
      <trkpt lat="46.32184" lon="6.44947">
        <ele>711</ele>
        <time>2012-11-24T11:23:56Z</time>
      </trkpt>
      <trkpt lat="46.32186" lon="6.44946">
        <ele>711</ele>
        <time>2012-11-24T11:23:58Z</time>
      </trkpt>
      <trkpt lat="46.32188" lon="6.44945">
        <ele>709</ele>
        <time>2012-11-24T11:24:00Z</time>
      </trkpt>
      <trkpt lat="46.32189" lon="6.44944">
        <ele>708</ele>
        <time>2012-11-24T11:24:01Z</time>
      </trkpt>
      <trkpt lat="46.32191" lon="6.44942">
        <ele>707</ele>
        <time>2012-11-24T11:24:02Z</time>
      </trkpt>
      <trkpt lat="46.32194" lon="6.44939">
        <ele>706</ele>
        <time>2012-11-24T11:24:03Z</time>
      </trkpt>
      <trkpt lat="46.32195" lon="6.44938">
        <ele>705</ele>
        <time>2012-11-24T11:24:04Z</time>
      </trkpt>
      <trkpt lat="46.32196" lon="6.44935">
        <ele>704</ele>
        <time>2012-11-24T11:24:05Z</time>
      </trkpt>
      <trkpt lat="46.32198" lon="6.44933">
        <ele>704</ele>
        <time>2012-11-24T11:24:06Z</time>
      </trkpt>
      <trkpt lat="46.32199" lon="6.44932">
        <ele>703</ele>
        <time>2012-11-24T11:24:07Z</time>
      </trkpt>
      <trkpt lat="46.32201" lon="6.4493">
        <ele>701</ele>
        <time>2012-11-24T11:24:09Z</time>
      </trkpt>
      <trkpt lat="46.32203" lon="6.44929">
        <ele>700</ele>
        <time>2012-11-24T11:24:10Z</time>
      </trkpt>
      <trkpt lat="46.32205" lon="6.44928">
        <ele>699</ele>
        <time>2012-11-24T11:24:11Z</time>
      </trkpt>
      <trkpt lat="46.32206" lon="6.44927">
        <ele>698</ele>
        <time>2012-11-24T11:24:12Z</time>
      </trkpt>
      <trkpt lat="46.32209" lon="6.44925">
        <ele>697</ele>
        <time>2012-11-24T11:24:13Z</time>
      </trkpt>
      <trkpt lat="46.32213" lon="6.44924">
        <ele>696</ele>
        <time>2012-11-24T11:24:14Z</time>
      </trkpt>
      <trkpt lat="46.32215" lon="6.44922">
        <ele>695</ele>
        <time>2012-11-24T11:24:15Z</time>
      </trkpt>
      <trkpt lat="46.32219" lon="6.44919">
        <ele>695</ele>
        <time>2012-11-24T11:24:16Z</time>
      </trkpt>
      <trkpt lat="46.32222" lon="6.44917">
        <ele>695</ele>
        <time>2012-11-24T11:24:17Z</time>
      </trkpt>
      <trkpt lat="46.32226" lon="6.44914">
        <ele>695</ele>
        <time>2012-11-24T11:24:18Z</time>
      </trkpt>
      <trkpt lat="46.3223" lon="6.44913">
        <ele>695</ele>
        <time>2012-11-24T11:24:19Z</time>
      </trkpt>
      <trkpt lat="46.32234" lon="6.44913">
        <ele>695</ele>
        <time>2012-11-24T11:24:20Z</time>
      </trkpt>
      <trkpt lat="46.32237" lon="6.44915">
        <ele>695</ele>
        <time>2012-11-24T11:24:21Z</time>
      </trkpt>
      <trkpt lat="46.32241" lon="6.44915">
        <ele>695</ele>
        <time>2012-11-24T11:24:22Z</time>
      </trkpt>
      <trkpt lat="46.32244" lon="6.44915">
        <ele>695</ele>
        <time>2012-11-24T11:24:23Z</time>
      </trkpt>
      <trkpt lat="46.32247" lon="6.44917">
        <ele>695</ele>
        <time>2012-11-24T11:24:24Z</time>
      </trkpt>
      <trkpt lat="46.3225" lon="6.44918">
        <ele>695</ele>
        <time>2012-11-24T11:24:25Z</time>
      </trkpt>
      <trkpt lat="46.32252" lon="6.44917">
        <ele>695</ele>
        <time>2012-11-24T11:24:26Z</time>
      </trkpt>
      <trkpt lat="46.32253" lon="6.44916">
        <ele>695</ele>
        <time>2012-11-24T11:24:27Z</time>
      </trkpt>
      <trkpt lat="46.32254" lon="6.44914">
        <ele>695</ele>
        <time>2012-11-24T11:24:28Z</time>
      </trkpt>
      <trkpt lat="46.32256" lon="6.44911">
        <ele>695</ele>
        <time>2012-11-24T11:24:29Z</time>
      </trkpt>
      <trkpt lat="46.32257" lon="6.4491">
        <ele>695</ele>
        <time>2012-11-24T11:24:30Z</time>
      </trkpt>
      <trkpt lat="46.32259" lon="6.44908">
        <ele>695</ele>
        <time>2012-11-24T11:24:31Z</time>
      </trkpt>
      <trkpt lat="46.32262" lon="6.44907">
        <ele>695</ele>
        <time>2012-11-24T11:24:32Z</time>
      </trkpt>
      <trkpt lat="46.32264" lon="6.44904">
        <ele>695</ele>
        <time>2012-11-24T11:24:33Z</time>
      </trkpt>
      <trkpt lat="46.32268" lon="6.44904">
        <ele>695</ele>
        <time>2012-11-24T11:24:34Z</time>
      </trkpt>
      <trkpt lat="46.3227" lon="6.44903">
        <ele>695</ele>
        <time>2012-11-24T11:24:35Z</time>
      </trkpt>
      <trkpt lat="46.32272" lon="6.44903">
        <ele>695</ele>
        <time>2012-11-24T11:24:36Z</time>
      </trkpt>
      <trkpt lat="46.32275" lon="6.44903">
        <ele>695</ele>
        <time>2012-11-24T11:24:37Z</time>
      </trkpt>
      <trkpt lat="46.32277" lon="6.44903">
        <ele>695</ele>
        <time>2012-11-24T11:24:38Z</time>
      </trkpt>
      <trkpt lat="46.3228" lon="6.44903">
        <ele>695</ele>
        <time>2012-11-24T11:24:40Z</time>
      </trkpt>
      <trkpt lat="46.32283" lon="6.44903">
        <ele>695</ele>
        <time>2012-11-24T11:24:41Z</time>
      </trkpt>
      <trkpt lat="46.32284" lon="6.44902">
        <ele>695</ele>
        <time>2012-11-24T11:24:42Z</time>
      </trkpt>
      <trkpt lat="46.32287" lon="6.44904">
        <ele>695</ele>
        <time>2012-11-24T11:24:43Z</time>
      </trkpt>
      <trkpt lat="46.32289" lon="6.44905">
        <ele>695</ele>
        <time>2012-11-24T11:24:44Z</time>
      </trkpt>
      <trkpt lat="46.3229" lon="6.44906">
        <ele>695</ele>
        <time>2012-11-24T11:24:45Z</time>
      </trkpt>
      <trkpt lat="46.32291" lon="6.44908">
        <ele>695</ele>
        <time>2012-11-24T11:24:46Z</time>
      </trkpt>
      <trkpt lat="46.32293" lon="6.44909">
        <ele>694</ele>
        <time>2012-11-24T11:24:47Z</time>
      </trkpt>
      <trkpt lat="46.32297" lon="6.4491">
        <ele>694</ele>
        <time>2012-11-24T11:24:48Z</time>
      </trkpt>
      <trkpt lat="46.32299" lon="6.44911">
        <ele>693</ele>
        <time>2012-11-24T11:24:49Z</time>
      </trkpt>
      <trkpt lat="46.32302" lon="6.44913">
        <ele>693</ele>
        <time>2012-11-24T11:24:50Z</time>
      </trkpt>
      <trkpt lat="46.32304" lon="6.44915">
        <ele>693</ele>
        <time>2012-11-24T11:24:51Z</time>
      </trkpt>
      <trkpt lat="46.32306" lon="6.44918">
        <ele>693</ele>
        <time>2012-11-24T11:24:52Z</time>
      </trkpt>
      <trkpt lat="46.32308" lon="6.44919">
        <ele>692</ele>
        <time>2012-11-24T11:24:53Z</time>
      </trkpt>
      <trkpt lat="46.3231" lon="6.44921">
        <ele>691</ele>
        <time>2012-11-24T11:24:54Z</time>
      </trkpt>
      <trkpt lat="46.32312" lon="6.44923">
        <ele>691</ele>
        <time>2012-11-24T11:24:55Z</time>
      </trkpt>
      <trkpt lat="46.32314" lon="6.44925">
        <ele>689</ele>
        <time>2012-11-24T11:24:57Z</time>
      </trkpt>
      <trkpt lat="46.32315" lon="6.44927">
        <ele>689</ele>
        <time>2012-11-24T11:24:58Z</time>
      </trkpt>
      <trkpt lat="46.32317" lon="6.44928">
        <ele>688</ele>
        <time>2012-11-24T11:24:59Z</time>
      </trkpt>
      <trkpt lat="46.3232" lon="6.4493">
        <ele>688</ele>
        <time>2012-11-24T11:25:00Z</time>
      </trkpt>
      <trkpt lat="46.32322" lon="6.44931">
        <ele>688</ele>
        <time>2012-11-24T11:25:01Z</time>
      </trkpt>
      <trkpt lat="46.32324" lon="6.44932">
        <ele>688</ele>
        <time>2012-11-24T11:25:02Z</time>
      </trkpt>
      <trkpt lat="46.32325" lon="6.44933">
        <ele>688</ele>
        <time>2012-11-24T11:25:04Z</time>
      </trkpt>
      <trkpt lat="46.32326" lon="6.44935">
        <ele>688</ele>
        <time>2012-11-24T11:25:05Z</time>
      </trkpt>
      <trkpt lat="46.32328" lon="6.44937">
        <ele>688</ele>
        <time>2012-11-24T11:25:06Z</time>
      </trkpt>
      <trkpt lat="46.3233" lon="6.44939">
        <ele>687</ele>
        <time>2012-11-24T11:25:07Z</time>
      </trkpt>
      <trkpt lat="46.32333" lon="6.44941">
        <ele>686</ele>
        <time>2012-11-24T11:25:08Z</time>
      </trkpt>
      <trkpt lat="46.32336" lon="6.44943">
        <ele>685</ele>
        <time>2012-11-24T11:25:09Z</time>
      </trkpt>
      <trkpt lat="46.32338" lon="6.44945">
        <ele>684</ele>
        <time>2012-11-24T11:25:10Z</time>
      </trkpt>
      <trkpt lat="46.3234" lon="6.44947">
        <ele>684</ele>
        <time>2012-11-24T11:25:11Z</time>
      </trkpt>
      <trkpt lat="46.32343" lon="6.44948">
        <ele>683</ele>
        <time>2012-11-24T11:25:12Z</time>
      </trkpt>
      <trkpt lat="46.32344" lon="6.4495">
        <ele>682</ele>
        <time>2012-11-24T11:25:13Z</time>
      </trkpt>
      <trkpt lat="46.32347" lon="6.44952">
        <ele>682</ele>
        <time>2012-11-24T11:25:14Z</time>
      </trkpt>
      <trkpt lat="46.32348" lon="6.44954">
        <ele>681</ele>
        <time>2012-11-24T11:25:15Z</time>
      </trkpt>
      <trkpt lat="46.3235" lon="6.44955">
        <ele>681</ele>
        <time>2012-11-24T11:25:16Z</time>
      </trkpt>
      <trkpt lat="46.32352" lon="6.44956">
        <ele>680</ele>
        <time>2012-11-24T11:25:17Z</time>
      </trkpt>
      <trkpt lat="46.32352" lon="6.44958">
        <ele>679</ele>
        <time>2012-11-24T11:25:18Z</time>
      </trkpt>
      <trkpt lat="46.32354" lon="6.4496">
        <ele>679</ele>
        <time>2012-11-24T11:25:19Z</time>
      </trkpt>
      <trkpt lat="46.32355" lon="6.44962">
        <ele>678</ele>
        <time>2012-11-24T11:25:20Z</time>
      </trkpt>
      <trkpt lat="46.32357" lon="6.44965">
        <ele>677</ele>
        <time>2012-11-24T11:25:21Z</time>
      </trkpt>
      <trkpt lat="46.32359" lon="6.44965">
        <ele>676</ele>
        <time>2012-11-24T11:25:22Z</time>
      </trkpt>
      <trkpt lat="46.32362" lon="6.44966">
        <ele>676</ele>
        <time>2012-11-24T11:25:23Z</time>
      </trkpt>
      <trkpt lat="46.32364" lon="6.44968">
        <ele>676</ele>
        <time>2012-11-24T11:25:24Z</time>
      </trkpt>
      <trkpt lat="46.32366" lon="6.44969">
        <ele>675</ele>
        <time>2012-11-24T11:25:25Z</time>
      </trkpt>
      <trkpt lat="46.32367" lon="6.4497">
        <ele>675</ele>
        <time>2012-11-24T11:25:26Z</time>
      </trkpt>
      <trkpt lat="46.32368" lon="6.44973">
        <ele>675</ele>
        <time>2012-11-24T11:25:27Z</time>
      </trkpt>
      <trkpt lat="46.32369" lon="6.44975">
        <ele>675</ele>
        <time>2012-11-24T11:25:28Z</time>
      </trkpt>
      <trkpt lat="46.3237" lon="6.44977">
        <ele>675</ele>
        <time>2012-11-24T11:25:29Z</time>
      </trkpt>
      <trkpt lat="46.3237" lon="6.44979">
        <ele>675</ele>
        <time>2012-11-24T11:25:30Z</time>
      </trkpt>
      <trkpt lat="46.3237" lon="6.44981">
        <ele>675</ele>
        <time>2012-11-24T11:25:31Z</time>
      </trkpt>
      <trkpt lat="46.32372" lon="6.44982">
        <ele>675</ele>
        <time>2012-11-24T11:25:32Z</time>
      </trkpt>
      <trkpt lat="46.32373" lon="6.44984">
        <ele>675</ele>
        <time>2012-11-24T11:25:35Z</time>
      </trkpt>
      <trkpt lat="46.32375" lon="6.44985">
        <ele>675</ele>
        <time>2012-11-24T11:25:36Z</time>
      </trkpt>
      <trkpt lat="46.32376" lon="6.44985">
        <ele>675</ele>
        <time>2012-11-24T11:25:37Z</time>
      </trkpt>
      <trkpt lat="46.32378" lon="6.44986">
        <ele>675</ele>
        <time>2012-11-24T11:25:38Z</time>
      </trkpt>
      <trkpt lat="46.3238" lon="6.44987">
        <ele>675</ele>
        <time>2012-11-24T11:25:39Z</time>
      </trkpt>
      <trkpt lat="46.32381" lon="6.44989">
        <ele>675</ele>
        <time>2012-11-24T11:25:40Z</time>
      </trkpt>
      <trkpt lat="46.32383" lon="6.4499">
        <ele>674</ele>
        <time>2012-11-24T11:25:41Z</time>
      </trkpt>
      <trkpt lat="46.32385" lon="6.44991">
        <ele>673</ele>
        <time>2012-11-24T11:25:42Z</time>
      </trkpt>
      <trkpt lat="46.32385" lon="6.44992">
        <ele>673</ele>
        <time>2012-11-24T11:25:43Z</time>
      </trkpt>
      <trkpt lat="46.32387" lon="6.44994">
        <ele>672</ele>
        <time>2012-11-24T11:25:44Z</time>
      </trkpt>
      <trkpt lat="46.32388" lon="6.44996">
        <ele>672</ele>
        <time>2012-11-24T11:25:45Z</time>
      </trkpt>
      <trkpt lat="46.32391" lon="6.44997">
        <ele>672</ele>
        <time>2012-11-24T11:25:46Z</time>
      </trkpt>
      <trkpt lat="46.32394" lon="6.44999">
        <ele>672</ele>
        <time>2012-11-24T11:25:47Z</time>
      </trkpt>
      <trkpt lat="46.32395" lon="6.45">
        <ele>671</ele>
        <time>2012-11-24T11:25:48Z</time>
      </trkpt>
      <trkpt lat="46.32396" lon="6.45003">
        <ele>670</ele>
        <time>2012-11-24T11:25:50Z</time>
      </trkpt>
      <trkpt lat="46.32397" lon="6.45004">
        <ele>669</ele>
        <time>2012-11-24T11:25:52Z</time>
      </trkpt>
      <trkpt lat="46.32399" lon="6.45004">
        <ele>668</ele>
        <time>2012-11-24T11:25:53Z</time>
      </trkpt>
      <trkpt lat="46.324" lon="6.45004">
        <ele>668</ele>
        <time>2012-11-24T11:25:54Z</time>
      </trkpt>
      <trkpt lat="46.32402" lon="6.45006">
        <ele>667</ele>
        <time>2012-11-24T11:25:56Z</time>
      </trkpt>
      <trkpt lat="46.32403" lon="6.45008">
        <ele>666</ele>
        <time>2012-11-24T11:25:57Z</time>
      </trkpt>
      <trkpt lat="46.32404" lon="6.4501">
        <ele>665</ele>
        <time>2012-11-24T11:25:58Z</time>
      </trkpt>
      <trkpt lat="46.32405" lon="6.45011">
        <ele>665</ele>
        <time>2012-11-24T11:25:59Z</time>
      </trkpt>
      <trkpt lat="46.32407" lon="6.45013">
        <ele>664</ele>
        <time>2012-11-24T11:26:00Z</time>
      </trkpt>
      <trkpt lat="46.32409" lon="6.45016">
        <ele>663</ele>
        <time>2012-11-24T11:26:02Z</time>
      </trkpt>
      <trkpt lat="46.3241" lon="6.45018">
        <ele>663</ele>
        <time>2012-11-24T11:26:03Z</time>
      </trkpt>
      <trkpt lat="46.3241" lon="6.4502">
        <ele>662</ele>
        <time>2012-11-24T11:26:04Z</time>
      </trkpt>
      <trkpt lat="46.32412" lon="6.45022">
        <ele>661</ele>
        <time>2012-11-24T11:26:06Z</time>
      </trkpt>
      <trkpt lat="46.32413" lon="6.45024">
        <ele>660</ele>
        <time>2012-11-24T11:26:07Z</time>
      </trkpt>
      <trkpt lat="46.32414" lon="6.45025">
        <ele>660</ele>
        <time>2012-11-24T11:26:08Z</time>
      </trkpt>
      <trkpt lat="46.32414" lon="6.45027">
        <ele>659</ele>
        <time>2012-11-24T11:26:09Z</time>
      </trkpt>
      <trkpt lat="46.32417" lon="6.45028">
        <ele>658</ele>
        <time>2012-11-24T11:26:11Z</time>
      </trkpt>
      <trkpt lat="46.32418" lon="6.45027">
        <ele>658</ele>
        <time>2012-11-24T11:26:12Z</time>
      </trkpt>
      <trkpt lat="46.3242" lon="6.45027">
        <ele>658</ele>
        <time>2012-11-24T11:26:13Z</time>
      </trkpt>
      <trkpt lat="46.3242" lon="6.45029">
        <ele>658</ele>
        <time>2012-11-24T11:26:15Z</time>
      </trkpt>
      <trkpt lat="46.32422" lon="6.45031">
        <ele>658</ele>
        <time>2012-11-24T11:26:17Z</time>
      </trkpt>
      <trkpt lat="46.32423" lon="6.45032">
        <ele>658</ele>
        <time>2012-11-24T11:26:18Z</time>
      </trkpt>
      <trkpt lat="46.32426" lon="6.45035">
        <ele>658</ele>
        <time>2012-11-24T11:26:20Z</time>
      </trkpt>
      <trkpt lat="46.32427" lon="6.45036">
        <ele>658</ele>
        <time>2012-11-24T11:26:21Z</time>
      </trkpt>
      <trkpt lat="46.32429" lon="6.45038">
        <ele>658</ele>
        <time>2012-11-24T11:26:23Z</time>
      </trkpt>
      <trkpt lat="46.3243" lon="6.4504">
        <ele>658</ele>
        <time>2012-11-24T11:26:25Z</time>
      </trkpt>
      <trkpt lat="46.32431" lon="6.45041">
        <ele>658</ele>
        <time>2012-11-24T11:26:26Z</time>
      </trkpt>
      <trkpt lat="46.32432" lon="6.45042">
        <ele>658</ele>
        <time>2012-11-24T11:26:27Z</time>
      </trkpt>
      <trkpt lat="46.32434" lon="6.45043">
        <ele>658</ele>
        <time>2012-11-24T11:26:29Z</time>
      </trkpt>
      <trkpt lat="46.32435" lon="6.45046">
        <ele>657</ele>
        <time>2012-11-24T11:26:31Z</time>
      </trkpt>
      <trkpt lat="46.32435" lon="6.45048">
        <ele>657</ele>
        <time>2012-11-24T11:26:32Z</time>
      </trkpt>
      <trkpt lat="46.32436" lon="6.45051">
        <ele>657</ele>
        <time>2012-11-24T11:26:33Z</time>
      </trkpt>
      <trkpt lat="46.32437" lon="6.45053">
        <ele>657</ele>
        <time>2012-11-24T11:26:34Z</time>
      </trkpt>
      <trkpt lat="46.32441" lon="6.45056">
        <ele>657</ele>
        <time>2012-11-24T11:26:35Z</time>
      </trkpt>
      <trkpt lat="46.32442" lon="6.45058">
        <ele>657</ele>
        <time>2012-11-24T11:26:36Z</time>
      </trkpt>
      <trkpt lat="46.32445" lon="6.4506">
        <ele>657</ele>
        <time>2012-11-24T11:26:37Z</time>
      </trkpt>
      <trkpt lat="46.32447" lon="6.45062">
        <ele>657</ele>
        <time>2012-11-24T11:26:38Z</time>
      </trkpt>
      <trkpt lat="46.32447" lon="6.45064">
        <ele>657</ele>
        <time>2012-11-24T11:26:39Z</time>
      </trkpt>
      <trkpt lat="46.32448" lon="6.45066">
        <ele>657</ele>
        <time>2012-11-24T11:26:40Z</time>
      </trkpt>
      <trkpt lat="46.32448" lon="6.45068">
        <ele>657</ele>
        <time>2012-11-24T11:26:41Z</time>
      </trkpt>
      <trkpt lat="46.32449" lon="6.4507">
        <ele>657</ele>
        <time>2012-11-24T11:26:42Z</time>
      </trkpt>
      <trkpt lat="46.3245" lon="6.45071">
        <ele>657</ele>
        <time>2012-11-24T11:26:43Z</time>
      </trkpt>
      <trkpt lat="46.32452" lon="6.45073">
        <ele>657</ele>
        <time>2012-11-24T11:26:44Z</time>
      </trkpt>
      <trkpt lat="46.32453" lon="6.45075">
        <ele>657</ele>
        <time>2012-11-24T11:26:45Z</time>
      </trkpt>
      <trkpt lat="46.32454" lon="6.45077">
        <ele>657</ele>
        <time>2012-11-24T11:26:46Z</time>
      </trkpt>
      <trkpt lat="46.32455" lon="6.45077">
        <ele>657</ele>
        <time>2012-11-24T11:26:47Z</time>
      </trkpt>
      <trkpt lat="46.32457" lon="6.45078">
        <ele>657</ele>
        <time>2012-11-24T11:26:49Z</time>
      </trkpt>
      <trkpt lat="46.3246" lon="6.4508">
        <ele>657</ele>
        <time>2012-11-24T11:26:51Z</time>
      </trkpt>
      <trkpt lat="46.32462" lon="6.45081">
        <ele>657</ele>
        <time>2012-11-24T11:26:52Z</time>
      </trkpt>
      <trkpt lat="46.32464" lon="6.45082">
        <ele>657</ele>
        <time>2012-11-24T11:26:54Z</time>
      </trkpt>
      <trkpt lat="46.32465" lon="6.45084">
        <ele>655</ele>
        <time>2012-11-24T11:26:56Z</time>
      </trkpt>
      <trkpt lat="46.32467" lon="6.45085">
        <ele>653</ele>
        <time>2012-11-24T11:26:58Z</time>
      </trkpt>
      <trkpt lat="46.32469" lon="6.45086">
        <ele>653</ele>
        <time>2012-11-24T11:26:59Z</time>
      </trkpt>
      <trkpt lat="46.3247" lon="6.45087">
        <ele>651</ele>
        <time>2012-11-24T11:27:01Z</time>
      </trkpt>
      <trkpt lat="46.3247" lon="6.45089">
        <ele>648</ele>
        <time>2012-11-24T11:27:04Z</time>
      </trkpt>
      <trkpt lat="46.32471" lon="6.45091">
        <ele>646</ele>
        <time>2012-11-24T11:27:06Z</time>
      </trkpt>
      <trkpt lat="46.32473" lon="6.45091">
        <ele>645</ele>
        <time>2012-11-24T11:27:07Z</time>
      </trkpt>
      <trkpt lat="46.32474" lon="6.45092">
        <ele>643</ele>
        <time>2012-11-24T11:27:09Z</time>
      </trkpt>
      <trkpt lat="46.32473" lon="6.4509">
        <ele>641</ele>
        <time>2012-11-24T11:27:11Z</time>
      </trkpt>
      <trkpt lat="46.32476" lon="6.45089">
        <ele>641</ele>
        <time>2012-11-24T11:27:14Z</time>
      </trkpt>
      <trkpt lat="46.32477" lon="6.45087">
        <ele>641</ele>
        <time>2012-11-24T11:27:17Z</time>
      </trkpt>
      <trkpt lat="46.32478" lon="6.45086">
        <ele>641</ele>
        <time>2012-11-24T11:27:18Z</time>
      </trkpt>
      <trkpt lat="46.32479" lon="6.45085">
        <ele>641</ele>
        <time>2012-11-24T11:27:24Z</time>
      </trkpt>
      <trkpt lat="46.32481" lon="6.45085">
        <ele>641</ele>
        <time>2012-11-24T11:27:25Z</time>
      </trkpt>
      <trkpt lat="46.32483" lon="6.45084">
        <ele>641</ele>
        <time>2012-11-24T11:27:27Z</time>
      </trkpt>
      <trkpt lat="46.32485" lon="6.45084">
        <ele>641</ele>
        <time>2012-11-24T11:27:28Z</time>
      </trkpt>
      <trkpt lat="46.32484" lon="6.45084">
        <ele>641</ele>
        <time>2012-11-24T11:27:35Z</time>
      </trkpt>
      <trkpt lat="46.32482" lon="6.45085">
        <ele>641</ele>
        <time>2012-11-24T11:27:39Z</time>
      </trkpt>
      <trkpt lat="46.32481" lon="6.45085">
        <ele>641</ele>
        <time>2012-11-24T11:27:45Z</time>
      </trkpt>
      <trkpt lat="46.32481" lon="6.45087">
        <ele>641</ele>
        <time>2012-11-24T11:27:52Z</time>
      </trkpt>
      <trkpt lat="46.32483" lon="6.45087">
        <ele>641</ele>
        <time>2012-11-24T11:27:55Z</time>
      </trkpt>
      <trkpt lat="46.32483" lon="6.45085">
        <ele>641</ele>
        <time>2012-11-24T11:28:01Z</time>
      </trkpt>
      <trkpt lat="46.32481" lon="6.45085">
        <ele>641</ele>
        <time>2012-11-24T11:28:06Z</time>
      </trkpt>
      <trkpt lat="46.32479" lon="6.45085">
        <ele>641</ele>
        <time>2012-11-24T11:28:08Z</time>
      </trkpt>
      <trkpt lat="46.32481" lon="6.45086">
        <ele>644</ele>
        <time>2012-11-24T11:28:11Z</time>
      </trkpt>
      <trkpt lat="46.32482" lon="6.45087">
        <ele>645</ele>
        <time>2012-11-24T11:28:12Z</time>
      </trkpt>
      <trkpt lat="46.32483" lon="6.45087">
        <ele>648</ele>
        <time>2012-11-24T11:28:15Z</time>
      </trkpt>
      <trkpt lat="46.32485" lon="6.45087">
        <ele>650</ele>
        <time>2012-11-24T11:28:19Z</time>
      </trkpt>
      <trkpt lat="46.32487" lon="6.45088">
        <ele>650</ele>
        <time>2012-11-24T11:28:20Z</time>
      </trkpt>
      <trkpt lat="46.32489" lon="6.45088">
        <ele>650</ele>
        <time>2012-11-24T11:28:22Z</time>
      </trkpt>
      <trkpt lat="46.32491" lon="6.45089">
        <ele>650</ele>
        <time>2012-11-24T11:28:24Z</time>
      </trkpt>
      <trkpt lat="46.32494" lon="6.4509">
        <ele>650</ele>
        <time>2012-11-24T11:28:30Z</time>
      </trkpt>
      <trkpt lat="46.32496" lon="6.45089">
        <ele>650</ele>
        <time>2012-11-24T11:28:31Z</time>
      </trkpt>
      <trkpt lat="46.32496" lon="6.45091">
        <ele>650</ele>
        <time>2012-11-24T11:28:34Z</time>
      </trkpt>
      <trkpt lat="46.32497" lon="6.45092">
        <ele>650</ele>
        <time>2012-11-24T11:28:36Z</time>
      </trkpt>
      <trkpt lat="46.32498" lon="6.45094">
        <ele>650</ele>
        <time>2012-11-24T11:28:38Z</time>
      </trkpt>
      <trkpt lat="46.32497" lon="6.45095">
        <ele>650</ele>
        <time>2012-11-24T11:28:39Z</time>
      </trkpt>
      <trkpt lat="46.32496" lon="6.45097">
        <ele>650</ele>
        <time>2012-11-24T11:28:42Z</time>
      </trkpt>
      <trkpt lat="46.32495" lon="6.451">
        <ele>650</ele>
        <time>2012-11-24T11:28:44Z</time>
      </trkpt>
      <trkpt lat="46.32494" lon="6.45102">
        <ele>650</ele>
        <time>2012-11-24T11:28:46Z</time>
      </trkpt>
      <trkpt lat="46.32495" lon="6.45103">
        <ele>650</ele>
        <time>2012-11-24T11:28:47Z</time>
      </trkpt>
      <trkpt lat="46.32497" lon="6.45103">
        <ele>650</ele>
        <time>2012-11-24T11:28:48Z</time>
      </trkpt>
      <trkpt lat="46.32499" lon="6.45104">
        <ele>650</ele>
        <time>2012-11-24T11:28:50Z</time>
      </trkpt>
      <trkpt lat="46.32499" lon="6.45107">
        <ele>648</ele>
        <time>2012-11-24T11:28:57Z</time>
      </trkpt>
      <trkpt lat="46.32501" lon="6.45107">
        <ele>648</ele>
        <time>2012-11-24T11:28:58Z</time>
      </trkpt>
      <trkpt lat="46.32502" lon="6.45107">
        <ele>646</ele>
        <time>2012-11-24T11:29:00Z</time>
      </trkpt>
      <trkpt lat="46.32505" lon="6.45109">
        <ele>645</ele>
        <time>2012-11-24T11:29:03Z</time>
      </trkpt>
      <trkpt lat="46.32505" lon="6.45112">
        <ele>644</ele>
        <time>2012-11-24T11:29:05Z</time>
      </trkpt>
      <trkpt lat="46.32507" lon="6.45113">
        <ele>644</ele>
        <time>2012-11-24T11:29:07Z</time>
      </trkpt>
      <trkpt lat="46.32509" lon="6.45114">
        <ele>643</ele>
        <time>2012-11-24T11:29:08Z</time>
      </trkpt>
      <trkpt lat="46.32513" lon="6.45115">
        <ele>642</ele>
        <time>2012-11-24T11:29:09Z</time>
      </trkpt>
      <trkpt lat="46.32514" lon="6.45117">
        <ele>642</ele>
        <time>2012-11-24T11:29:10Z</time>
      </trkpt>
      <trkpt lat="46.32516" lon="6.45118">
        <ele>642</ele>
        <time>2012-11-24T11:29:11Z</time>
      </trkpt>
      <trkpt lat="46.32517" lon="6.45119">
        <ele>641</ele>
        <time>2012-11-24T11:29:12Z</time>
      </trkpt>
      <trkpt lat="46.32519" lon="6.4512">
        <ele>641</ele>
        <time>2012-11-24T11:29:13Z</time>
      </trkpt>
      <trkpt lat="46.32521" lon="6.45122">
        <ele>641</ele>
        <time>2012-11-24T11:29:14Z</time>
      </trkpt>
      <trkpt lat="46.32523" lon="6.45123">
        <ele>641</ele>
        <time>2012-11-24T11:29:15Z</time>
      </trkpt>
      <trkpt lat="46.32524" lon="6.45125">
        <ele>640</ele>
        <time>2012-11-24T11:29:18Z</time>
      </trkpt>
      <trkpt lat="46.32526" lon="6.45127">
        <ele>639</ele>
        <time>2012-11-24T11:29:20Z</time>
      </trkpt>
      <trkpt lat="46.32528" lon="6.45129">
        <ele>638</ele>
        <time>2012-11-24T11:29:21Z</time>
      </trkpt>
      <trkpt lat="46.32529" lon="6.45131">
        <ele>638</ele>
        <time>2012-11-24T11:29:22Z</time>
      </trkpt>
      <trkpt lat="46.32531" lon="6.45133">
        <ele>637</ele>
        <time>2012-11-24T11:29:23Z</time>
      </trkpt>
      <trkpt lat="46.32533" lon="6.45134">
        <ele>637</ele>
        <time>2012-11-24T11:29:24Z</time>
      </trkpt>
      <trkpt lat="46.32534" lon="6.45136">
        <ele>636</ele>
        <time>2012-11-24T11:29:25Z</time>
      </trkpt>
      <trkpt lat="46.32536" lon="6.45138">
        <ele>636</ele>
        <time>2012-11-24T11:29:26Z</time>
      </trkpt>
      <trkpt lat="46.32539" lon="6.4514">
        <ele>635</ele>
        <time>2012-11-24T11:29:27Z</time>
      </trkpt>
      <trkpt lat="46.32541" lon="6.45141">
        <ele>635</ele>
        <time>2012-11-24T11:29:28Z</time>
      </trkpt>
      <trkpt lat="46.32544" lon="6.45143">
        <ele>634</ele>
        <time>2012-11-24T11:29:29Z</time>
      </trkpt>
      <trkpt lat="46.32548" lon="6.45145">
        <ele>634</ele>
        <time>2012-11-24T11:29:30Z</time>
      </trkpt>
      <trkpt lat="46.3255" lon="6.45148">
        <ele>633</ele>
        <time>2012-11-24T11:29:31Z</time>
      </trkpt>
      <trkpt lat="46.32552" lon="6.45151">
        <ele>633</ele>
        <time>2012-11-24T11:29:32Z</time>
      </trkpt>
      <trkpt lat="46.32555" lon="6.45154">
        <ele>633</ele>
        <time>2012-11-24T11:29:33Z</time>
      </trkpt>
      <trkpt lat="46.32558" lon="6.45156">
        <ele>633</ele>
        <time>2012-11-24T11:29:34Z</time>
      </trkpt>
      <trkpt lat="46.3256" lon="6.45158">
        <ele>633</ele>
        <time>2012-11-24T11:29:35Z</time>
      </trkpt>
      <trkpt lat="46.32563" lon="6.4516">
        <ele>633</ele>
        <time>2012-11-24T11:29:36Z</time>
      </trkpt>
      <trkpt lat="46.32565" lon="6.45162">
        <ele>633</ele>
        <time>2012-11-24T11:29:37Z</time>
      </trkpt>
      <trkpt lat="46.32567" lon="6.45165">
        <ele>633</ele>
        <time>2012-11-24T11:29:38Z</time>
      </trkpt>
      <trkpt lat="46.32568" lon="6.45168">
        <ele>633</ele>
        <time>2012-11-24T11:29:39Z</time>
      </trkpt>
      <trkpt lat="46.32569" lon="6.45171">
        <ele>633</ele>
        <time>2012-11-24T11:29:40Z</time>
      </trkpt>
      <trkpt lat="46.3257" lon="6.45173">
        <ele>633</ele>
        <time>2012-11-24T11:29:41Z</time>
      </trkpt>
      <trkpt lat="46.32571" lon="6.45176">
        <ele>633</ele>
        <time>2012-11-24T11:29:42Z</time>
      </trkpt>
      <trkpt lat="46.32571" lon="6.45179">
        <ele>633</ele>
        <time>2012-11-24T11:29:43Z</time>
      </trkpt>
      <trkpt lat="46.32572" lon="6.45181">
        <ele>633</ele>
        <time>2012-11-24T11:29:44Z</time>
      </trkpt>
      <trkpt lat="46.32573" lon="6.45182">
        <ele>633</ele>
        <time>2012-11-24T11:29:45Z</time>
      </trkpt>
      <trkpt lat="46.32575" lon="6.45184">
        <ele>633</ele>
        <time>2012-11-24T11:29:47Z</time>
      </trkpt>
      <trkpt lat="46.32576" lon="6.45186">
        <ele>633</ele>
        <time>2012-11-24T11:29:48Z</time>
      </trkpt>
      <trkpt lat="46.32577" lon="6.45189">
        <ele>633</ele>
        <time>2012-11-24T11:29:49Z</time>
      </trkpt>
      <trkpt lat="46.32579" lon="6.45192">
        <ele>633</ele>
        <time>2012-11-24T11:29:50Z</time>
      </trkpt>
      <trkpt lat="46.32581" lon="6.45194">
        <ele>633</ele>
        <time>2012-11-24T11:29:51Z</time>
      </trkpt>
      <trkpt lat="46.32583" lon="6.45196">
        <ele>633</ele>
        <time>2012-11-24T11:29:52Z</time>
      </trkpt>
      <trkpt lat="46.32584" lon="6.45199">
        <ele>632</ele>
        <time>2012-11-24T11:29:53Z</time>
      </trkpt>
      <trkpt lat="46.32587" lon="6.45201">
        <ele>632</ele>
        <time>2012-11-24T11:29:54Z</time>
      </trkpt>
      <trkpt lat="46.3259" lon="6.45203">
        <ele>632</ele>
        <time>2012-11-24T11:29:55Z</time>
      </trkpt>
      <trkpt lat="46.32592" lon="6.45204">
        <ele>632</ele>
        <time>2012-11-24T11:29:56Z</time>
      </trkpt>
      <trkpt lat="46.32594" lon="6.45205">
        <ele>632</ele>
        <time>2012-11-24T11:29:57Z</time>
      </trkpt>
      <trkpt lat="46.32595" lon="6.45207">
        <ele>632</ele>
        <time>2012-11-24T11:29:58Z</time>
      </trkpt>
      <trkpt lat="46.32597" lon="6.4521">
        <ele>632</ele>
        <time>2012-11-24T11:29:59Z</time>
      </trkpt>
      <trkpt lat="46.326" lon="6.45214">
        <ele>632</ele>
        <time>2012-11-24T11:30:00Z</time>
      </trkpt>
      <trkpt lat="46.32603" lon="6.45217">
        <ele>632</ele>
        <time>2012-11-24T11:30:01Z</time>
      </trkpt>
      <trkpt lat="46.32605" lon="6.45221">
        <ele>631</ele>
        <time>2012-11-24T11:30:02Z</time>
      </trkpt>
      <trkpt lat="46.32608" lon="6.45223">
        <ele>630</ele>
        <time>2012-11-24T11:30:03Z</time>
      </trkpt>
      <trkpt lat="46.3261" lon="6.45225">
        <ele>629</ele>
        <time>2012-11-24T11:30:04Z</time>
      </trkpt>
      <trkpt lat="46.32613" lon="6.45227">
        <ele>628</ele>
        <time>2012-11-24T11:30:05Z</time>
      </trkpt>
      <trkpt lat="46.32616" lon="6.4523">
        <ele>627</ele>
        <time>2012-11-24T11:30:06Z</time>
      </trkpt>
      <trkpt lat="46.32618" lon="6.45232">
        <ele>626</ele>
        <time>2012-11-24T11:30:07Z</time>
      </trkpt>
      <trkpt lat="46.32619" lon="6.45234">
        <ele>625</ele>
        <time>2012-11-24T11:30:08Z</time>
      </trkpt>
      <trkpt lat="46.32621" lon="6.45237">
        <ele>624</ele>
        <time>2012-11-24T11:30:09Z</time>
      </trkpt>
      <trkpt lat="46.32622" lon="6.45241">
        <ele>623</ele>
        <time>2012-11-24T11:30:10Z</time>
      </trkpt>
      <trkpt lat="46.32623" lon="6.45244">
        <ele>622</ele>
        <time>2012-11-24T11:30:11Z</time>
      </trkpt>
      <trkpt lat="46.32624" lon="6.45246">
        <ele>621</ele>
        <time>2012-11-24T11:30:12Z</time>
      </trkpt>
      <trkpt lat="46.32626" lon="6.45248">
        <ele>620</ele>
        <time>2012-11-24T11:30:13Z</time>
      </trkpt>
      <trkpt lat="46.32627" lon="6.4525">
        <ele>619</ele>
        <time>2012-11-24T11:30:14Z</time>
      </trkpt>
      <trkpt lat="46.32629" lon="6.45252">
        <ele>619</ele>
        <time>2012-11-24T11:30:15Z</time>
      </trkpt>
      <trkpt lat="46.32631" lon="6.45254">
        <ele>618</ele>
        <time>2012-11-24T11:30:16Z</time>
      </trkpt>
      <trkpt lat="46.32631" lon="6.45257">
        <ele>617</ele>
        <time>2012-11-24T11:30:17Z</time>
      </trkpt>
      <trkpt lat="46.32633" lon="6.45259">
        <ele>616</ele>
        <time>2012-11-24T11:30:19Z</time>
      </trkpt>
      <trkpt lat="46.32635" lon="6.4526">
        <ele>615</ele>
        <time>2012-11-24T11:30:20Z</time>
      </trkpt>
      <trkpt lat="46.32636" lon="6.45262">
        <ele>615</ele>
        <time>2012-11-24T11:30:21Z</time>
      </trkpt>
      <trkpt lat="46.32637" lon="6.45263">
        <ele>614</ele>
        <time>2012-11-24T11:30:22Z</time>
      </trkpt>
      <trkpt lat="46.32639" lon="6.45264">
        <ele>614</ele>
        <time>2012-11-24T11:30:23Z</time>
      </trkpt>
      <trkpt lat="46.32641" lon="6.45266">
        <ele>613</ele>
        <time>2012-11-24T11:30:24Z</time>
      </trkpt>
      <trkpt lat="46.32643" lon="6.45267">
        <ele>613</ele>
        <time>2012-11-24T11:30:25Z</time>
      </trkpt>
      <trkpt lat="46.32645" lon="6.45268">
        <ele>612</ele>
        <time>2012-11-24T11:30:26Z</time>
      </trkpt>
      <trkpt lat="46.32648" lon="6.4527">
        <ele>612</ele>
        <time>2012-11-24T11:30:27Z</time>
      </trkpt>
      <trkpt lat="46.3265" lon="6.45273">
        <ele>612</ele>
        <time>2012-11-24T11:30:28Z</time>
      </trkpt>
      <trkpt lat="46.32652" lon="6.45274">
        <ele>611</ele>
        <time>2012-11-24T11:30:29Z</time>
      </trkpt>
      <trkpt lat="46.32653" lon="6.45275">
        <ele>611</ele>
        <time>2012-11-24T11:30:30Z</time>
      </trkpt>
      <trkpt lat="46.32654" lon="6.45278">
        <ele>611</ele>
        <time>2012-11-24T11:30:31Z</time>
      </trkpt>
      <trkpt lat="46.32656" lon="6.4528">
        <ele>610</ele>
        <time>2012-11-24T11:30:33Z</time>
      </trkpt>
      <trkpt lat="46.32659" lon="6.45282">
        <ele>610</ele>
        <time>2012-11-24T11:30:33Z</time>
      </trkpt>
      <trkpt lat="46.32662" lon="6.45284">
        <ele>609</ele>
        <time>2012-11-24T11:30:34Z</time>
      </trkpt>
      <trkpt lat="46.32665" lon="6.45287">
        <ele>608</ele>
        <time>2012-11-24T11:30:35Z</time>
      </trkpt>
      <trkpt lat="46.32668" lon="6.45289">
        <ele>607</ele>
        <time>2012-11-24T11:30:36Z</time>
      </trkpt>
      <trkpt lat="46.32671" lon="6.45291">
        <ele>607</ele>
        <time>2012-11-24T11:30:37Z</time>
      </trkpt>
      <trkpt lat="46.32676" lon="6.45293">
        <ele>607</ele>
        <time>2012-11-24T11:30:38Z</time>
      </trkpt>
      <trkpt lat="46.3268" lon="6.45296">
        <ele>607</ele>
        <time>2012-11-24T11:30:39Z</time>
      </trkpt>
      <trkpt lat="46.32682" lon="6.45299">
        <ele>607</ele>
        <time>2012-11-24T11:30:40Z</time>
      </trkpt>
      <trkpt lat="46.32685" lon="6.45301">
        <ele>607</ele>
        <time>2012-11-24T11:30:41Z</time>
      </trkpt>
      <trkpt lat="46.32687" lon="6.45304">
        <ele>607</ele>
        <time>2012-11-24T11:30:42Z</time>
      </trkpt>
      <trkpt lat="46.3269" lon="6.45307">
        <ele>607</ele>
        <time>2012-11-24T11:30:43Z</time>
      </trkpt>
      <trkpt lat="46.32692" lon="6.4531">
        <ele>606</ele>
        <time>2012-11-24T11:30:44Z</time>
      </trkpt>
      <trkpt lat="46.32693" lon="6.45313">
        <ele>606</ele>
        <time>2012-11-24T11:30:45Z</time>
      </trkpt>
      <trkpt lat="46.32693" lon="6.45316">
        <ele>606</ele>
        <time>2012-11-24T11:30:46Z</time>
      </trkpt>
      <trkpt lat="46.32694" lon="6.4532">
        <ele>606</ele>
        <time>2012-11-24T11:30:47Z</time>
      </trkpt>
      <trkpt lat="46.32695" lon="6.45322">
        <ele>605</ele>
        <time>2012-11-24T11:30:48Z</time>
      </trkpt>
      <trkpt lat="46.32698" lon="6.45325">
        <ele>605</ele>
        <time>2012-11-24T11:30:49Z</time>
      </trkpt>
      <trkpt lat="46.32701" lon="6.45327">
        <ele>605</ele>
        <time>2012-11-24T11:30:50Z</time>
      </trkpt>
      <trkpt lat="46.32705" lon="6.45329">
        <ele>605</ele>
        <time>2012-11-24T11:30:51Z</time>
      </trkpt>
      <trkpt lat="46.32707" lon="6.4533">
        <ele>605</ele>
        <time>2012-11-24T11:30:52Z</time>
      </trkpt>
      <trkpt lat="46.3271" lon="6.45331">
        <ele>605</ele>
        <time>2012-11-24T11:30:53Z</time>
      </trkpt>
      <trkpt lat="46.32712" lon="6.45333">
        <ele>605</ele>
        <time>2012-11-24T11:30:54Z</time>
      </trkpt>
      <trkpt lat="46.32713" lon="6.45334">
        <ele>605</ele>
        <time>2012-11-24T11:30:55Z</time>
      </trkpt>
      <trkpt lat="46.32715" lon="6.45335">
        <ele>605</ele>
        <time>2012-11-24T11:30:56Z</time>
      </trkpt>
      <trkpt lat="46.32716" lon="6.45336">
        <ele>605</ele>
        <time>2012-11-24T11:30:57Z</time>
      </trkpt>
      <trkpt lat="46.32718" lon="6.45337">
        <ele>605</ele>
        <time>2012-11-24T11:30:58Z</time>
      </trkpt>
      <trkpt lat="46.3272" lon="6.45339">
        <ele>605</ele>
        <time>2012-11-24T11:30:59Z</time>
      </trkpt>
      <trkpt lat="46.32722" lon="6.45341">
        <ele>605</ele>
        <time>2012-11-24T11:31:00Z</time>
      </trkpt>
      <trkpt lat="46.32724" lon="6.45343">
        <ele>605</ele>
        <time>2012-11-24T11:31:01Z</time>
      </trkpt>
      <trkpt lat="46.32727" lon="6.45345">
        <ele>605</ele>
        <time>2012-11-24T11:31:02Z</time>
      </trkpt>
      <trkpt lat="46.32729" lon="6.45347">
        <ele>605</ele>
        <time>2012-11-24T11:31:03Z</time>
      </trkpt>
      <trkpt lat="46.32732" lon="6.4535">
        <ele>605</ele>
        <time>2012-11-24T11:31:04Z</time>
      </trkpt>
      <trkpt lat="46.32733" lon="6.45352">
        <ele>605</ele>
        <time>2012-11-24T11:31:05Z</time>
      </trkpt>
      <trkpt lat="46.32735" lon="6.45354">
        <ele>604</ele>
        <time>2012-11-24T11:31:06Z</time>
      </trkpt>
      <trkpt lat="46.32736" lon="6.45357">
        <ele>603</ele>
        <time>2012-11-24T11:31:07Z</time>
      </trkpt>
      <trkpt lat="46.32737" lon="6.45359">
        <ele>602</ele>
        <time>2012-11-24T11:31:08Z</time>
      </trkpt>
      <trkpt lat="46.32738" lon="6.45362">
        <ele>601</ele>
        <time>2012-11-24T11:31:09Z</time>
      </trkpt>
      <trkpt lat="46.3274" lon="6.45364">
        <ele>600</ele>
        <time>2012-11-24T11:31:10Z</time>
      </trkpt>
      <trkpt lat="46.3274" lon="6.45367">
        <ele>600</ele>
        <time>2012-11-24T11:31:11Z</time>
      </trkpt>
      <trkpt lat="46.32742" lon="6.45368">
        <ele>599</ele>
        <time>2012-11-24T11:31:12Z</time>
      </trkpt>
      <trkpt lat="46.32742" lon="6.4537">
        <ele>598</ele>
        <time>2012-11-24T11:31:13Z</time>
      </trkpt>
      <trkpt lat="46.32742" lon="6.45371">
        <ele>597</ele>
        <time>2012-11-24T11:31:16Z</time>
      </trkpt>
      <trkpt lat="46.32741" lon="6.45373">
        <ele>597</ele>
        <time>2012-11-24T11:31:18Z</time>
      </trkpt>
      <trkpt lat="46.3274" lon="6.45374">
        <ele>596</ele>
        <time>2012-11-24T11:31:20Z</time>
      </trkpt>
      <trkpt lat="46.3274" lon="6.45377">
        <ele>596</ele>
        <time>2012-11-24T11:31:22Z</time>
      </trkpt>
      <trkpt lat="46.32742" lon="6.45379">
        <ele>595</ele>
        <time>2012-11-24T11:31:24Z</time>
      </trkpt>
      <trkpt lat="46.32744" lon="6.4538">
        <ele>595</ele>
        <time>2012-11-24T11:31:25Z</time>
      </trkpt>
      <trkpt lat="46.32747" lon="6.45382">
        <ele>595</ele>
        <time>2012-11-24T11:31:26Z</time>
      </trkpt>
      <trkpt lat="46.3275" lon="6.45384">
        <ele>595</ele>
        <time>2012-11-24T11:31:27Z</time>
      </trkpt>
      <trkpt lat="46.32751" lon="6.45387">
        <ele>595</ele>
        <time>2012-11-24T11:31:28Z</time>
      </trkpt>
      <trkpt lat="46.32753" lon="6.4539">
        <ele>595</ele>
        <time>2012-11-24T11:31:29Z</time>
      </trkpt>
      <trkpt lat="46.32755" lon="6.45393">
        <ele>595</ele>
        <time>2012-11-24T11:31:30Z</time>
      </trkpt>
      <trkpt lat="46.32756" lon="6.45395">
        <ele>595</ele>
        <time>2012-11-24T11:31:31Z</time>
      </trkpt>
      <trkpt lat="46.32757" lon="6.45398">
        <ele>595</ele>
        <time>2012-11-24T11:31:32Z</time>
      </trkpt>
      <trkpt lat="46.32759" lon="6.45401">
        <ele>595</ele>
        <time>2012-11-24T11:31:33Z</time>
      </trkpt>
      <trkpt lat="46.32762" lon="6.45404">
        <ele>595</ele>
        <time>2012-11-24T11:31:34Z</time>
      </trkpt>
      <trkpt lat="46.32764" lon="6.45407">
        <ele>595</ele>
        <time>2012-11-24T11:31:35Z</time>
      </trkpt>
      <trkpt lat="46.32766" lon="6.45409">
        <ele>595</ele>
        <time>2012-11-24T11:31:36Z</time>
      </trkpt>
      <trkpt lat="46.32768" lon="6.45411">
        <ele>595</ele>
        <time>2012-11-24T11:31:37Z</time>
      </trkpt>
      <trkpt lat="46.32769" lon="6.45413">
        <ele>595</ele>
        <time>2012-11-24T11:31:38Z</time>
      </trkpt>
      <trkpt lat="46.32771" lon="6.45415">
        <ele>596</ele>
        <time>2012-11-24T11:31:39Z</time>
      </trkpt>
      <trkpt lat="46.32774" lon="6.45417">
        <ele>596</ele>
        <time>2012-11-24T11:31:40Z</time>
      </trkpt>
      <trkpt lat="46.32777" lon="6.45419">
        <ele>596</ele>
        <time>2012-11-24T11:31:41Z</time>
      </trkpt>
      <trkpt lat="46.32778" lon="6.45422">
        <ele>596</ele>
        <time>2012-11-24T11:31:42Z</time>
      </trkpt>
      <trkpt lat="46.32779" lon="6.45424">
        <ele>596</ele>
        <time>2012-11-24T11:31:43Z</time>
      </trkpt>
      <trkpt lat="46.32781" lon="6.45426">
        <ele>596</ele>
        <time>2012-11-24T11:31:44Z</time>
      </trkpt>
      <trkpt lat="46.32782" lon="6.45428">
        <ele>596</ele>
        <time>2012-11-24T11:31:45Z</time>
      </trkpt>
      <trkpt lat="46.32784" lon="6.4543">
        <ele>596</ele>
        <time>2012-11-24T11:31:46Z</time>
      </trkpt>
      <trkpt lat="46.32785" lon="6.45431">
        <ele>596</ele>
        <time>2012-11-24T11:31:47Z</time>
      </trkpt>
      <trkpt lat="46.32787" lon="6.45433">
        <ele>596</ele>
        <time>2012-11-24T11:31:48Z</time>
      </trkpt>
      <trkpt lat="46.32788" lon="6.45435">
        <ele>596</ele>
        <time>2012-11-24T11:31:49Z</time>
      </trkpt>
      <trkpt lat="46.3279" lon="6.45437">
        <ele>596</ele>
        <time>2012-11-24T11:31:50Z</time>
      </trkpt>
      <trkpt lat="46.32792" lon="6.45439">
        <ele>596</ele>
        <time>2012-11-24T11:31:51Z</time>
      </trkpt>
      <trkpt lat="46.32793" lon="6.45442">
        <ele>596</ele>
        <time>2012-11-24T11:31:52Z</time>
      </trkpt>
      <trkpt lat="46.32795" lon="6.45445">
        <ele>596</ele>
        <time>2012-11-24T11:31:53Z</time>
      </trkpt>
      <trkpt lat="46.32796" lon="6.45447">
        <ele>596</ele>
        <time>2012-11-24T11:31:54Z</time>
      </trkpt>
      <trkpt lat="46.32798" lon="6.4545">
        <ele>596</ele>
        <time>2012-11-24T11:31:55Z</time>
      </trkpt>
      <trkpt lat="46.328" lon="6.45453">
        <ele>596</ele>
        <time>2012-11-24T11:31:56Z</time>
      </trkpt>
      <trkpt lat="46.32802" lon="6.45454">
        <ele>596</ele>
        <time>2012-11-24T11:31:57Z</time>
      </trkpt>
      <trkpt lat="46.32803" lon="6.45455">
        <ele>596</ele>
        <time>2012-11-24T11:31:59Z</time>
      </trkpt>
      <trkpt lat="46.32805" lon="6.45454">
        <ele>596</ele>
        <time>2012-11-24T11:32:00Z</time>
      </trkpt>
      <trkpt lat="46.32806" lon="6.45455">
        <ele>596</ele>
        <time>2012-11-24T11:32:07Z</time>
      </trkpt>
      <trkpt lat="46.32806" lon="6.45456">
        <ele>596</ele>
        <time>2012-11-24T11:32:12Z</time>
      </trkpt>
      <trkpt lat="46.32808" lon="6.45458">
        <ele>596</ele>
        <time>2012-11-24T11:32:16Z</time>
      </trkpt>
      <trkpt lat="46.32808" lon="6.45456">
        <ele>596</ele>
        <time>2012-11-24T11:32:20Z</time>
      </trkpt>
      <trkpt lat="46.32809" lon="6.45455">
        <ele>596</ele>
        <time>2012-11-24T11:32:21Z</time>
      </trkpt>
      <trkpt lat="46.32812" lon="6.45453">
        <ele>596</ele>
        <time>2012-11-24T11:32:23Z</time>
      </trkpt>
      <trkpt lat="46.32813" lon="6.45452">
        <ele>596</ele>
        <time>2012-11-24T11:32:25Z</time>
      </trkpt>
      <trkpt lat="46.32814" lon="6.45451">
        <ele>596</ele>
        <time>2012-11-24T11:32:26Z</time>
      </trkpt>
      <trkpt lat="46.32816" lon="6.4545">
        <ele>596</ele>
        <time>2012-11-24T11:32:27Z</time>
      </trkpt>
      <trkpt lat="46.32818" lon="6.4545">
        <ele>596</ele>
        <time>2012-11-24T11:32:31Z</time>
      </trkpt>
      <trkpt lat="46.32819" lon="6.4545">
        <ele>596</ele>
        <time>2012-11-24T11:32:33Z</time>
      </trkpt>
      <trkpt lat="46.32821" lon="6.4545">
        <ele>596</ele>
        <time>2012-11-24T11:32:34Z</time>
      </trkpt>
      <trkpt lat="46.32823" lon="6.45451">
        <ele>596</ele>
        <time>2012-11-24T11:32:35Z</time>
      </trkpt>
      <trkpt lat="46.32825" lon="6.45452">
        <ele>596</ele>
        <time>2012-11-24T11:32:36Z</time>
      </trkpt>
      <trkpt lat="46.32827" lon="6.45455">
        <ele>596</ele>
        <time>2012-11-24T11:32:37Z</time>
      </trkpt>
      <trkpt lat="46.32829" lon="6.45457">
        <ele>596</ele>
        <time>2012-11-24T11:32:38Z</time>
      </trkpt>
      <trkpt lat="46.32831" lon="6.45459">
        <ele>596</ele>
        <time>2012-11-24T11:32:39Z</time>
      </trkpt>
      <trkpt lat="46.32833" lon="6.45461">
        <ele>595</ele>
        <time>2012-11-24T11:32:40Z</time>
      </trkpt>
      <trkpt lat="46.32836" lon="6.45464">
        <ele>595</ele>
        <time>2012-11-24T11:32:41Z</time>
      </trkpt>
      <trkpt lat="46.32837" lon="6.45466">
        <ele>594</ele>
        <time>2012-11-24T11:32:42Z</time>
      </trkpt>
      <trkpt lat="46.32839" lon="6.45468">
        <ele>594</ele>
        <time>2012-11-24T11:32:43Z</time>
      </trkpt>
      <trkpt lat="46.32841" lon="6.45471">
        <ele>594</ele>
        <time>2012-11-24T11:32:44Z</time>
      </trkpt>
      <trkpt lat="46.32843" lon="6.45473">
        <ele>593</ele>
        <time>2012-11-24T11:32:45Z</time>
      </trkpt>
      <trkpt lat="46.32845" lon="6.45475">
        <ele>592</ele>
        <time>2012-11-24T11:32:46Z</time>
      </trkpt>
      <trkpt lat="46.32846" lon="6.45477">
        <ele>592</ele>
        <time>2012-11-24T11:32:47Z</time>
      </trkpt>
      <trkpt lat="46.32849" lon="6.4548">
        <ele>591</ele>
        <time>2012-11-24T11:32:48Z</time>
      </trkpt>
      <trkpt lat="46.3285" lon="6.45482">
        <ele>591</ele>
        <time>2012-11-24T11:32:49Z</time>
      </trkpt>
      <trkpt lat="46.32852" lon="6.45484">
        <ele>590</ele>
        <time>2012-11-24T11:32:50Z</time>
      </trkpt>
      <trkpt lat="46.32853" lon="6.45487">
        <ele>590</ele>
        <time>2012-11-24T11:32:51Z</time>
      </trkpt>
      <trkpt lat="46.32855" lon="6.4549">
        <ele>589</ele>
        <time>2012-11-24T11:32:52Z</time>
      </trkpt>
      <trkpt lat="46.32857" lon="6.45492">
        <ele>588</ele>
        <time>2012-11-24T11:32:53Z</time>
      </trkpt>
      <trkpt lat="46.32859" lon="6.45495">
        <ele>588</ele>
        <time>2012-11-24T11:32:54Z</time>
      </trkpt>
      <trkpt lat="46.3286" lon="6.45497">
        <ele>587</ele>
        <time>2012-11-24T11:32:55Z</time>
      </trkpt>
      <trkpt lat="46.32861" lon="6.455">
        <ele>587</ele>
        <time>2012-11-24T11:32:56Z</time>
      </trkpt>
      <trkpt lat="46.32863" lon="6.45502">
        <ele>586</ele>
        <time>2012-11-24T11:32:57Z</time>
      </trkpt>
      <trkpt lat="46.32864" lon="6.45504">
        <ele>586</ele>
        <time>2012-11-24T11:32:58Z</time>
      </trkpt>
      <trkpt lat="46.32866" lon="6.45506">
        <ele>585</ele>
        <time>2012-11-24T11:32:59Z</time>
      </trkpt>
      <trkpt lat="46.32868" lon="6.45509">
        <ele>585</ele>
        <time>2012-11-24T11:33:00Z</time>
      </trkpt>
      <trkpt lat="46.32869" lon="6.45511">
        <ele>585</ele>
        <time>2012-11-24T11:33:01Z</time>
      </trkpt>
      <trkpt lat="46.32871" lon="6.45513">
        <ele>585</ele>
        <time>2012-11-24T11:33:02Z</time>
      </trkpt>
      <trkpt lat="46.32873" lon="6.45515">
        <ele>584</ele>
        <time>2012-11-24T11:33:03Z</time>
      </trkpt>
      <trkpt lat="46.32875" lon="6.45517">
        <ele>584</ele>
        <time>2012-11-24T11:33:04Z</time>
      </trkpt>
      <trkpt lat="46.32877" lon="6.45519">
        <ele>584</ele>
        <time>2012-11-24T11:33:05Z</time>
      </trkpt>
      <trkpt lat="46.32879" lon="6.4552">
        <ele>584</ele>
        <time>2012-11-24T11:33:06Z</time>
      </trkpt>
      <trkpt lat="46.32882" lon="6.45521">
        <ele>584</ele>
        <time>2012-11-24T11:33:07Z</time>
      </trkpt>
      <trkpt lat="46.32885" lon="6.45521">
        <ele>583</ele>
        <time>2012-11-24T11:33:08Z</time>
      </trkpt>
      <trkpt lat="46.32887" lon="6.45521">
        <ele>583</ele>
        <time>2012-11-24T11:33:09Z</time>
      </trkpt>
      <trkpt lat="46.32889" lon="6.4552">
        <ele>583</ele>
        <time>2012-11-24T11:33:10Z</time>
      </trkpt>
      <trkpt lat="46.32892" lon="6.45519">
        <ele>582</ele>
        <time>2012-11-24T11:33:11Z</time>
      </trkpt>
      <trkpt lat="46.32894" lon="6.45517">
        <ele>582</ele>
        <time>2012-11-24T11:33:12Z</time>
      </trkpt>
      <trkpt lat="46.32896" lon="6.45515">
        <ele>581</ele>
        <time>2012-11-24T11:33:13Z</time>
      </trkpt>
      <trkpt lat="46.32899" lon="6.45513">
        <ele>581</ele>
        <time>2012-11-24T11:33:14Z</time>
      </trkpt>
      <trkpt lat="46.32902" lon="6.45512">
        <ele>581</ele>
        <time>2012-11-24T11:33:15Z</time>
      </trkpt>
      <trkpt lat="46.32904" lon="6.4551">
        <ele>580</ele>
        <time>2012-11-24T11:33:16Z</time>
      </trkpt>
      <trkpt lat="46.32907" lon="6.45509">
        <ele>580</ele>
        <time>2012-11-24T11:33:17Z</time>
      </trkpt>
      <trkpt lat="46.32911" lon="6.45509">
        <ele>579</ele>
        <time>2012-11-24T11:33:18Z</time>
      </trkpt>
      <trkpt lat="46.32914" lon="6.45507">
        <ele>578</ele>
        <time>2012-11-24T11:33:19Z</time>
      </trkpt>
      <trkpt lat="46.32916" lon="6.45505">
        <ele>578</ele>
        <time>2012-11-24T11:33:20Z</time>
      </trkpt>
      <trkpt lat="46.32918" lon="6.45502">
        <ele>577</ele>
        <time>2012-11-24T11:33:21Z</time>
      </trkpt>
      <trkpt lat="46.32921" lon="6.455">
        <ele>577</ele>
        <time>2012-11-24T11:33:22Z</time>
      </trkpt>
      <trkpt lat="46.32924" lon="6.45498">
        <ele>576</ele>
        <time>2012-11-24T11:33:23Z</time>
      </trkpt>
      <trkpt lat="46.32927" lon="6.45496">
        <ele>575</ele>
        <time>2012-11-24T11:33:24Z</time>
      </trkpt>
      <trkpt lat="46.3293" lon="6.45494">
        <ele>575</ele>
        <time>2012-11-24T11:33:25Z</time>
      </trkpt>
      <trkpt lat="46.32933" lon="6.45492">
        <ele>575</ele>
        <time>2012-11-24T11:33:26Z</time>
      </trkpt>
      <trkpt lat="46.32936" lon="6.4549">
        <ele>574</ele>
        <time>2012-11-24T11:33:27Z</time>
      </trkpt>
      <trkpt lat="46.32939" lon="6.45487">
        <ele>574</ele>
        <time>2012-11-24T11:33:28Z</time>
      </trkpt>
      <trkpt lat="46.32941" lon="6.45485">
        <ele>573</ele>
        <time>2012-11-24T11:33:29Z</time>
      </trkpt>
      <trkpt lat="46.32944" lon="6.45483">
        <ele>572</ele>
        <time>2012-11-24T11:33:30Z</time>
      </trkpt>
      <trkpt lat="46.32946" lon="6.45482">
        <ele>572</ele>
        <time>2012-11-24T11:33:31Z</time>
      </trkpt>
      <trkpt lat="46.32949" lon="6.4548">
        <ele>571</ele>
        <time>2012-11-24T11:33:32Z</time>
      </trkpt>
      <trkpt lat="46.32952" lon="6.45479">
        <ele>570</ele>
        <time>2012-11-24T11:33:33Z</time>
      </trkpt>
      <trkpt lat="46.32956" lon="6.45477">
        <ele>570</ele>
        <time>2012-11-24T11:33:34Z</time>
      </trkpt>
      <trkpt lat="46.32959" lon="6.45476">
        <ele>569</ele>
        <time>2012-11-24T11:33:35Z</time>
      </trkpt>
      <trkpt lat="46.32961" lon="6.45474">
        <ele>569</ele>
        <time>2012-11-24T11:33:36Z</time>
      </trkpt>
      <trkpt lat="46.32964" lon="6.45472">
        <ele>569</ele>
        <time>2012-11-24T11:33:37Z</time>
      </trkpt>
      <trkpt lat="46.32965" lon="6.4547">
        <ele>568</ele>
        <time>2012-11-24T11:33:38Z</time>
      </trkpt>
      <trkpt lat="46.32967" lon="6.45467">
        <ele>568</ele>
        <time>2012-11-24T11:33:39Z</time>
      </trkpt>
      <trkpt lat="46.3297" lon="6.45465">
        <ele>568</ele>
        <time>2012-11-24T11:33:40Z</time>
      </trkpt>
      <trkpt lat="46.32972" lon="6.45463">
        <ele>568</ele>
        <time>2012-11-24T11:33:41Z</time>
      </trkpt>
      <trkpt lat="46.32973" lon="6.4546">
        <ele>567</ele>
        <time>2012-11-24T11:33:42Z</time>
      </trkpt>
      <trkpt lat="46.32975" lon="6.45457">
        <ele>567</ele>
        <time>2012-11-24T11:33:43Z</time>
      </trkpt>
      <trkpt lat="46.32976" lon="6.45454">
        <ele>567</ele>
        <time>2012-11-24T11:33:44Z</time>
      </trkpt>
      <trkpt lat="46.32978" lon="6.45451">
        <ele>567</ele>
        <time>2012-11-24T11:33:45Z</time>
      </trkpt>
      <trkpt lat="46.3298" lon="6.45448">
        <ele>567</ele>
        <time>2012-11-24T11:33:46Z</time>
      </trkpt>
      <trkpt lat="46.32982" lon="6.45444">
        <ele>567</ele>
        <time>2012-11-24T11:33:47Z</time>
      </trkpt>
      <trkpt lat="46.32984" lon="6.4544">
        <ele>567</ele>
        <time>2012-11-24T11:33:48Z</time>
      </trkpt>
      <trkpt lat="46.32986" lon="6.45436">
        <ele>567</ele>
        <time>2012-11-24T11:33:49Z</time>
      </trkpt>
      <trkpt lat="46.32988" lon="6.45433">
        <ele>567</ele>
        <time>2012-11-24T11:33:50Z</time>
      </trkpt>
      <trkpt lat="46.32989" lon="6.4543">
        <ele>567</ele>
        <time>2012-11-24T11:33:51Z</time>
      </trkpt>
      <trkpt lat="46.3299" lon="6.45427">
        <ele>567</ele>
        <time>2012-11-24T11:33:52Z</time>
      </trkpt>
      <trkpt lat="46.32991" lon="6.45424">
        <ele>566</ele>
        <time>2012-11-24T11:33:53Z</time>
      </trkpt>
      <trkpt lat="46.32993" lon="6.45422">
        <ele>566</ele>
        <time>2012-11-24T11:33:54Z</time>
      </trkpt>
      <trkpt lat="46.32994" lon="6.4542">
        <ele>566</ele>
        <time>2012-11-24T11:33:55Z</time>
      </trkpt>
      <trkpt lat="46.32995" lon="6.45417">
        <ele>566</ele>
        <time>2012-11-24T11:33:56Z</time>
      </trkpt>
      <trkpt lat="46.32997" lon="6.45415">
        <ele>565</ele>
        <time>2012-11-24T11:33:57Z</time>
      </trkpt>
      <trkpt lat="46.32998" lon="6.45413">
        <ele>565</ele>
        <time>2012-11-24T11:33:58Z</time>
      </trkpt>
      <trkpt lat="46.33" lon="6.45411">
        <ele>565</ele>
        <time>2012-11-24T11:33:59Z</time>
      </trkpt>
      <trkpt lat="46.33002" lon="6.45409">
        <ele>564</ele>
        <time>2012-11-24T11:34:00Z</time>
      </trkpt>
      <trkpt lat="46.33003" lon="6.45406">
        <ele>564</ele>
        <time>2012-11-24T11:34:01Z</time>
      </trkpt>
      <trkpt lat="46.33004" lon="6.45403">
        <ele>564</ele>
        <time>2012-11-24T11:34:02Z</time>
      </trkpt>
      <trkpt lat="46.33006" lon="6.45401">
        <ele>564</ele>
        <time>2012-11-24T11:34:03Z</time>
      </trkpt>
      <trkpt lat="46.33007" lon="6.45399">
        <ele>564</ele>
        <time>2012-11-24T11:34:04Z</time>
      </trkpt>
      <trkpt lat="46.33009" lon="6.45397">
        <ele>563</ele>
        <time>2012-11-24T11:34:05Z</time>
      </trkpt>
      <trkpt lat="46.33011" lon="6.45394">
        <ele>563</ele>
        <time>2012-11-24T11:34:06Z</time>
      </trkpt>
      <trkpt lat="46.33013" lon="6.45392">
        <ele>563</ele>
        <time>2012-11-24T11:34:07Z</time>
      </trkpt>
      <trkpt lat="46.33015" lon="6.4539">
        <ele>562</ele>
        <time>2012-11-24T11:34:08Z</time>
      </trkpt>
      <trkpt lat="46.33017" lon="6.45388">
        <ele>562</ele>
        <time>2012-11-24T11:34:09Z</time>
      </trkpt>
      <trkpt lat="46.3302" lon="6.45386">
        <ele>561</ele>
        <time>2012-11-24T11:34:10Z</time>
      </trkpt>
      <trkpt lat="46.33023" lon="6.45383">
        <ele>561</ele>
        <time>2012-11-24T11:34:11Z</time>
      </trkpt>
      <trkpt lat="46.33025" lon="6.4538">
        <ele>561</ele>
        <time>2012-11-24T11:34:12Z</time>
      </trkpt>
      <trkpt lat="46.33028" lon="6.45378">
        <ele>560</ele>
        <time>2012-11-24T11:34:13Z</time>
      </trkpt>
      <trkpt lat="46.3303" lon="6.45376">
        <ele>560</ele>
        <time>2012-11-24T11:34:14Z</time>
      </trkpt>
      <trkpt lat="46.33033" lon="6.45374">
        <ele>560</ele>
        <time>2012-11-24T11:34:15Z</time>
      </trkpt>
      <trkpt lat="46.33036" lon="6.45373">
        <ele>560</ele>
        <time>2012-11-24T11:34:16Z</time>
      </trkpt>
      <trkpt lat="46.33038" lon="6.45371">
        <ele>560</ele>
        <time>2012-11-24T11:34:17Z</time>
      </trkpt>
      <trkpt lat="46.33041" lon="6.45369">
        <ele>559</ele>
        <time>2012-11-24T11:34:18Z</time>
      </trkpt>
      <trkpt lat="46.33043" lon="6.45366">
        <ele>559</ele>
        <time>2012-11-24T11:34:19Z</time>
      </trkpt>
      <trkpt lat="46.33046" lon="6.45364">
        <ele>559</ele>
        <time>2012-11-24T11:34:20Z</time>
      </trkpt>
      <trkpt lat="46.33048" lon="6.45362">
        <ele>559</ele>
        <time>2012-11-24T11:34:21Z</time>
      </trkpt>
      <trkpt lat="46.3305" lon="6.4536">
        <ele>558</ele>
        <time>2012-11-24T11:34:22Z</time>
      </trkpt>
      <trkpt lat="46.33053" lon="6.45358">
        <ele>558</ele>
        <time>2012-11-24T11:34:23Z</time>
      </trkpt>
      <trkpt lat="46.33055" lon="6.45356">
        <ele>558</ele>
        <time>2012-11-24T11:34:24Z</time>
      </trkpt>
      <trkpt lat="46.33057" lon="6.45354">
        <ele>557</ele>
        <time>2012-11-24T11:34:25Z</time>
      </trkpt>
      <trkpt lat="46.33059" lon="6.45352">
        <ele>557</ele>
        <time>2012-11-24T11:34:26Z</time>
      </trkpt>
      <trkpt lat="46.33061" lon="6.4535">
        <ele>557</ele>
        <time>2012-11-24T11:34:27Z</time>
      </trkpt>
      <trkpt lat="46.33063" lon="6.45349">
        <ele>556</ele>
        <time>2012-11-24T11:34:28Z</time>
      </trkpt>
      <trkpt lat="46.33065" lon="6.45346">
        <ele>556</ele>
        <time>2012-11-24T11:34:29Z</time>
      </trkpt>
      <trkpt lat="46.33068" lon="6.45345">
        <ele>556</ele>
        <time>2012-11-24T11:34:30Z</time>
      </trkpt>
      <trkpt lat="46.3307" lon="6.45343">
        <ele>555</ele>
        <time>2012-11-24T11:34:31Z</time>
      </trkpt>
      <trkpt lat="46.33072" lon="6.45342">
        <ele>555</ele>
        <time>2012-11-24T11:34:32Z</time>
      </trkpt>
      <trkpt lat="46.33075" lon="6.45341">
        <ele>555</ele>
        <time>2012-11-24T11:34:33Z</time>
      </trkpt>
      <trkpt lat="46.33077" lon="6.45341">
        <ele>555</ele>
        <time>2012-11-24T11:34:34Z</time>
      </trkpt>
      <trkpt lat="46.3308" lon="6.45341">
        <ele>555</ele>
        <time>2012-11-24T11:34:35Z</time>
      </trkpt>
      <trkpt lat="46.33082" lon="6.45342">
        <ele>554</ele>
        <time>2012-11-24T11:34:36Z</time>
      </trkpt>
      <trkpt lat="46.33084" lon="6.45343">
        <ele>554</ele>
        <time>2012-11-24T11:34:37Z</time>
      </trkpt>
      <trkpt lat="46.33087" lon="6.45344">
        <ele>554</ele>
        <time>2012-11-24T11:34:38Z</time>
      </trkpt>
      <trkpt lat="46.33089" lon="6.45346">
        <ele>554</ele>
        <time>2012-11-24T11:34:39Z</time>
      </trkpt>
      <trkpt lat="46.33091" lon="6.45348">
        <ele>554</ele>
        <time>2012-11-24T11:34:40Z</time>
      </trkpt>
      <trkpt lat="46.33092" lon="6.4535">
        <ele>554</ele>
        <time>2012-11-24T11:34:41Z</time>
      </trkpt>
      <trkpt lat="46.33093" lon="6.45353">
        <ele>553</ele>
        <time>2012-11-24T11:34:42Z</time>
      </trkpt>
      <trkpt lat="46.33094" lon="6.45355">
        <ele>553</ele>
        <time>2012-11-24T11:34:43Z</time>
      </trkpt>
      <trkpt lat="46.33095" lon="6.45358">
        <ele>553</ele>
        <time>2012-11-24T11:34:44Z</time>
      </trkpt>
      <trkpt lat="46.33096" lon="6.45361">
        <ele>553</ele>
        <time>2012-11-24T11:34:45Z</time>
      </trkpt>
      <trkpt lat="46.33097" lon="6.45364">
        <ele>553</ele>
        <time>2012-11-24T11:34:46Z</time>
      </trkpt>
      <trkpt lat="46.33097" lon="6.45367">
        <ele>553</ele>
        <time>2012-11-24T11:34:47Z</time>
      </trkpt>
      <trkpt lat="46.33098" lon="6.4537">
        <ele>553</ele>
        <time>2012-11-24T11:34:48Z</time>
      </trkpt>
      <trkpt lat="46.33099" lon="6.45373">
        <ele>553</ele>
        <time>2012-11-24T11:34:49Z</time>
      </trkpt>
      <trkpt lat="46.33099" lon="6.45376">
        <ele>553</ele>
        <time>2012-11-24T11:34:50Z</time>
      </trkpt>
      <trkpt lat="46.331" lon="6.45379">
        <ele>553</ele>
        <time>2012-11-24T11:34:51Z</time>
      </trkpt>
      <trkpt lat="46.33101" lon="6.45382">
        <ele>553</ele>
        <time>2012-11-24T11:34:52Z</time>
      </trkpt>
      <trkpt lat="46.33101" lon="6.45386">
        <ele>553</ele>
        <time>2012-11-24T11:34:53Z</time>
      </trkpt>
      <trkpt lat="46.33102" lon="6.4539">
        <ele>553</ele>
        <time>2012-11-24T11:34:54Z</time>
      </trkpt>
      <trkpt lat="46.33103" lon="6.45393">
        <ele>553</ele>
        <time>2012-11-24T11:34:55Z</time>
      </trkpt>
      <trkpt lat="46.33104" lon="6.45397">
        <ele>553</ele>
        <time>2012-11-24T11:34:56Z</time>
      </trkpt>
      <trkpt lat="46.33105" lon="6.454">
        <ele>553</ele>
        <time>2012-11-24T11:34:57Z</time>
      </trkpt>
      <trkpt lat="46.33107" lon="6.45404">
        <ele>553</ele>
        <time>2012-11-24T11:34:58Z</time>
      </trkpt>
      <trkpt lat="46.33108" lon="6.45407">
        <ele>553</ele>
        <time>2012-11-24T11:34:59Z</time>
      </trkpt>
      <trkpt lat="46.33109" lon="6.4541">
        <ele>553</ele>
        <time>2012-11-24T11:35:00Z</time>
      </trkpt>
      <trkpt lat="46.33111" lon="6.45413">
        <ele>553</ele>
        <time>2012-11-24T11:35:01Z</time>
      </trkpt>
      <trkpt lat="46.33113" lon="6.45417">
        <ele>553</ele>
        <time>2012-11-24T11:35:02Z</time>
      </trkpt>
      <trkpt lat="46.33114" lon="6.45421">
        <ele>553</ele>
        <time>2012-11-24T11:35:03Z</time>
      </trkpt>
      <trkpt lat="46.33116" lon="6.45424">
        <ele>553</ele>
        <time>2012-11-24T11:35:04Z</time>
      </trkpt>
      <trkpt lat="46.33118" lon="6.45427">
        <ele>553</ele>
        <time>2012-11-24T11:35:05Z</time>
      </trkpt>
      <trkpt lat="46.3312" lon="6.45429">
        <ele>553</ele>
        <time>2012-11-24T11:35:06Z</time>
      </trkpt>
      <trkpt lat="46.33121" lon="6.45432">
        <ele>553</ele>
        <time>2012-11-24T11:35:07Z</time>
      </trkpt>
      <trkpt lat="46.33123" lon="6.45435">
        <ele>553</ele>
        <time>2012-11-24T11:35:08Z</time>
      </trkpt>
      <trkpt lat="46.33125" lon="6.45437">
        <ele>553</ele>
        <time>2012-11-24T11:35:09Z</time>
      </trkpt>
      <trkpt lat="46.33127" lon="6.45439">
        <ele>553</ele>
        <time>2012-11-24T11:35:10Z</time>
      </trkpt>
      <trkpt lat="46.3313" lon="6.45441">
        <ele>553</ele>
        <time>2012-11-24T11:35:11Z</time>
      </trkpt>
      <trkpt lat="46.33132" lon="6.45443">
        <ele>553</ele>
        <time>2012-11-24T11:35:12Z</time>
      </trkpt>
      <trkpt lat="46.33134" lon="6.45445">
        <ele>553</ele>
        <time>2012-11-24T11:35:13Z</time>
      </trkpt>
      <trkpt lat="46.33137" lon="6.45447">
        <ele>553</ele>
        <time>2012-11-24T11:35:14Z</time>
      </trkpt>
      <trkpt lat="46.3314" lon="6.45448">
        <ele>553</ele>
        <time>2012-11-24T11:35:15Z</time>
      </trkpt>
      <trkpt lat="46.33142" lon="6.45449">
        <ele>553</ele>
        <time>2012-11-24T11:35:16Z</time>
      </trkpt>
      <trkpt lat="46.33145" lon="6.4545">
        <ele>553</ele>
        <time>2012-11-24T11:35:17Z</time>
      </trkpt>
      <trkpt lat="46.33148" lon="6.45452">
        <ele>554</ele>
        <time>2012-11-24T11:35:18Z</time>
      </trkpt>
      <trkpt lat="46.3315" lon="6.45454">
        <ele>554</ele>
        <time>2012-11-24T11:35:19Z</time>
      </trkpt>
      <trkpt lat="46.33154" lon="6.45455">
        <ele>554</ele>
        <time>2012-11-24T11:35:20Z</time>
      </trkpt>
      <trkpt lat="46.33156" lon="6.45457">
        <ele>555</ele>
        <time>2012-11-24T11:35:21Z</time>
      </trkpt>
      <trkpt lat="46.33158" lon="6.45459">
        <ele>555</ele>
        <time>2012-11-24T11:35:22Z</time>
      </trkpt>
      <trkpt lat="46.3316" lon="6.4546">
        <ele>555</ele>
        <time>2012-11-24T11:35:23Z</time>
      </trkpt>
      <trkpt lat="46.33163" lon="6.45462">
        <ele>555</ele>
        <time>2012-11-24T11:35:24Z</time>
      </trkpt>
      <trkpt lat="46.33164" lon="6.45466">
        <ele>555</ele>
        <time>2012-11-24T11:35:25Z</time>
      </trkpt>
      <trkpt lat="46.33166" lon="6.45468">
        <ele>555</ele>
        <time>2012-11-24T11:35:26Z</time>
      </trkpt>
      <trkpt lat="46.33168" lon="6.4547">
        <ele>555</ele>
        <time>2012-11-24T11:35:27Z</time>
      </trkpt>
      <trkpt lat="46.33171" lon="6.45472">
        <ele>555</ele>
        <time>2012-11-24T11:35:28Z</time>
      </trkpt>
      <trkpt lat="46.33173" lon="6.45475">
        <ele>555</ele>
        <time>2012-11-24T11:35:29Z</time>
      </trkpt>
      <trkpt lat="46.33175" lon="6.45477">
        <ele>555</ele>
        <time>2012-11-24T11:35:30Z</time>
      </trkpt>
      <trkpt lat="46.33177" lon="6.45479">
        <ele>555</ele>
        <time>2012-11-24T11:35:31Z</time>
      </trkpt>
      <trkpt lat="46.33178" lon="6.45482">
        <ele>555</ele>
        <time>2012-11-24T11:35:32Z</time>
      </trkpt>
      <trkpt lat="46.33179" lon="6.45485">
        <ele>555</ele>
        <time>2012-11-24T11:35:33Z</time>
      </trkpt>
      <trkpt lat="46.33181" lon="6.45487">
        <ele>555</ele>
        <time>2012-11-24T11:35:34Z</time>
      </trkpt>
      <trkpt lat="46.33182" lon="6.45491">
        <ele>554</ele>
        <time>2012-11-24T11:35:35Z</time>
      </trkpt>
      <trkpt lat="46.33182" lon="6.45495">
        <ele>554</ele>
        <time>2012-11-24T11:35:36Z</time>
      </trkpt>
      <trkpt lat="46.33182" lon="6.455">
        <ele>554</ele>
        <time>2012-11-24T11:35:37Z</time>
      </trkpt>
      <trkpt lat="46.33182" lon="6.45503">
        <ele>554</ele>
        <time>2012-11-24T11:35:38Z</time>
      </trkpt>
      <trkpt lat="46.33182" lon="6.45506">
        <ele>554</ele>
        <time>2012-11-24T11:35:39Z</time>
      </trkpt>
      <trkpt lat="46.33183" lon="6.4551">
        <ele>554</ele>
        <time>2012-11-24T11:35:40Z</time>
      </trkpt>
      <trkpt lat="46.33184" lon="6.45513">
        <ele>553</ele>
        <time>2012-11-24T11:35:41Z</time>
      </trkpt>
      <trkpt lat="46.33184" lon="6.45518">
        <ele>553</ele>
        <time>2012-11-24T11:35:42Z</time>
      </trkpt>
      <trkpt lat="46.33183" lon="6.45521">
        <ele>553</ele>
        <time>2012-11-24T11:35:43Z</time>
      </trkpt>
      <trkpt lat="46.33182" lon="6.45525">
        <ele>553</ele>
        <time>2012-11-24T11:35:44Z</time>
      </trkpt>
      <trkpt lat="46.33182" lon="6.45529">
        <ele>553</ele>
        <time>2012-11-24T11:35:45Z</time>
      </trkpt>
      <trkpt lat="46.33182" lon="6.45532">
        <ele>553</ele>
        <time>2012-11-24T11:35:46Z</time>
      </trkpt>
      <trkpt lat="46.33181" lon="6.45535">
        <ele>552</ele>
        <time>2012-11-24T11:35:47Z</time>
      </trkpt>
      <trkpt lat="46.33181" lon="6.45537">
        <ele>552</ele>
        <time>2012-11-24T11:35:48Z</time>
      </trkpt>
      <trkpt lat="46.33179" lon="6.45541">
        <ele>552</ele>
        <time>2012-11-24T11:35:49Z</time>
      </trkpt>
      <trkpt lat="46.33177" lon="6.45543">
        <ele>552</ele>
        <time>2012-11-24T11:35:50Z</time>
      </trkpt>
      <trkpt lat="46.33175" lon="6.45544">
        <ele>551</ele>
        <time>2012-11-24T11:35:51Z</time>
      </trkpt>
      <trkpt lat="46.33172" lon="6.45544">
        <ele>551</ele>
        <time>2012-11-24T11:35:52Z</time>
      </trkpt>
      <trkpt lat="46.33169" lon="6.45544">
        <ele>551</ele>
        <time>2012-11-24T11:35:53Z</time>
      </trkpt>
      <trkpt lat="46.33167" lon="6.45545">
        <ele>551</ele>
        <time>2012-11-24T11:35:54Z</time>
      </trkpt>
      <trkpt lat="46.33164" lon="6.45547">
        <ele>551</ele>
        <time>2012-11-24T11:35:55Z</time>
      </trkpt>
      <trkpt lat="46.33161" lon="6.45548">
        <ele>551</ele>
        <time>2012-11-24T11:35:56Z</time>
      </trkpt>
      <trkpt lat="46.33158" lon="6.4555">
        <ele>551</ele>
        <time>2012-11-24T11:35:57Z</time>
      </trkpt>
      <trkpt lat="46.33155" lon="6.4555">
        <ele>551</ele>
        <time>2012-11-24T11:35:58Z</time>
      </trkpt>
      <trkpt lat="46.33152" lon="6.45551">
        <ele>551</ele>
        <time>2012-11-24T11:35:59Z</time>
      </trkpt>
      <trkpt lat="46.33149" lon="6.45552">
        <ele>551</ele>
        <time>2012-11-24T11:36:00Z</time>
      </trkpt>
      <trkpt lat="46.33147" lon="6.45553">
        <ele>551</ele>
        <time>2012-11-24T11:36:01Z</time>
      </trkpt>
      <trkpt lat="46.33144" lon="6.45554">
        <ele>551</ele>
        <time>2012-11-24T11:36:02Z</time>
      </trkpt>
      <trkpt lat="46.33142" lon="6.45555">
        <ele>551</ele>
        <time>2012-11-24T11:36:03Z</time>
      </trkpt>
      <trkpt lat="46.33139" lon="6.45556">
        <ele>551</ele>
        <time>2012-11-24T11:36:04Z</time>
      </trkpt>
      <trkpt lat="46.33137" lon="6.45556">
        <ele>551</ele>
        <time>2012-11-24T11:36:05Z</time>
      </trkpt>
      <trkpt lat="46.33135" lon="6.45557">
        <ele>551</ele>
        <time>2012-11-24T11:36:06Z</time>
      </trkpt>
      <trkpt lat="46.33133" lon="6.45557">
        <ele>551</ele>
        <time>2012-11-24T11:36:07Z</time>
      </trkpt>
      <trkpt lat="46.33131" lon="6.45558">
        <ele>551</ele>
        <time>2012-11-24T11:36:08Z</time>
      </trkpt>
      <trkpt lat="46.33128" lon="6.45558">
        <ele>551</ele>
        <time>2012-11-24T11:36:09Z</time>
      </trkpt>
      <trkpt lat="46.33125" lon="6.45558">
        <ele>551</ele>
        <time>2012-11-24T11:36:10Z</time>
      </trkpt>
      <trkpt lat="46.33122" lon="6.45558">
        <ele>551</ele>
        <time>2012-11-24T11:36:11Z</time>
      </trkpt>
      <trkpt lat="46.3312" lon="6.45558">
        <ele>551</ele>
        <time>2012-11-24T11:36:12Z</time>
      </trkpt>
      <trkpt lat="46.33118" lon="6.45559">
        <ele>551</ele>
        <time>2012-11-24T11:36:13Z</time>
      </trkpt>
      <trkpt lat="46.33115" lon="6.4556">
        <ele>551</ele>
        <time>2012-11-24T11:36:14Z</time>
      </trkpt>
      <trkpt lat="46.33112" lon="6.45561">
        <ele>551</ele>
        <time>2012-11-24T11:36:15Z</time>
      </trkpt>
      <trkpt lat="46.3311" lon="6.45562">
        <ele>551</ele>
        <time>2012-11-24T11:36:16Z</time>
      </trkpt>
      <trkpt lat="46.33108" lon="6.45562">
        <ele>551</ele>
        <time>2012-11-24T11:36:17Z</time>
      </trkpt>
      <trkpt lat="46.33105" lon="6.45563">
        <ele>551</ele>
        <time>2012-11-24T11:36:18Z</time>
      </trkpt>
      <trkpt lat="46.33103" lon="6.45563">
        <ele>551</ele>
        <time>2012-11-24T11:36:19Z</time>
      </trkpt>
      <trkpt lat="46.331" lon="6.45563">
        <ele>551</ele>
        <time>2012-11-24T11:36:20Z</time>
      </trkpt>
      <trkpt lat="46.33098" lon="6.45564">
        <ele>551</ele>
        <time>2012-11-24T11:36:21Z</time>
      </trkpt>
      <trkpt lat="46.33096" lon="6.45564">
        <ele>551</ele>
        <time>2012-11-24T11:36:22Z</time>
      </trkpt>
      <trkpt lat="46.33093" lon="6.45564">
        <ele>551</ele>
        <time>2012-11-24T11:36:23Z</time>
      </trkpt>
      <trkpt lat="46.3309" lon="6.45565">
        <ele>551</ele>
        <time>2012-11-24T11:36:24Z</time>
      </trkpt>
      <trkpt lat="46.33088" lon="6.45565">
        <ele>551</ele>
        <time>2012-11-24T11:36:25Z</time>
      </trkpt>
      <trkpt lat="46.33085" lon="6.45565">
        <ele>551</ele>
        <time>2012-11-24T11:36:26Z</time>
      </trkpt>
      <trkpt lat="46.33083" lon="6.45565">
        <ele>551</ele>
        <time>2012-11-24T11:36:27Z</time>
      </trkpt>
      <trkpt lat="46.33081" lon="6.45566">
        <ele>551</ele>
        <time>2012-11-24T11:36:28Z</time>
      </trkpt>
      <trkpt lat="46.33079" lon="6.45566">
        <ele>551</ele>
        <time>2012-11-24T11:36:29Z</time>
      </trkpt>
      <trkpt lat="46.33076" lon="6.45567">
        <ele>551</ele>
        <time>2012-11-24T11:36:30Z</time>
      </trkpt>
      <trkpt lat="46.33074" lon="6.45568">
        <ele>551</ele>
        <time>2012-11-24T11:36:31Z</time>
      </trkpt>
      <trkpt lat="46.33071" lon="6.45568">
        <ele>551</ele>
        <time>2012-11-24T11:36:32Z</time>
      </trkpt>
      <trkpt lat="46.33069" lon="6.45568">
        <ele>551</ele>
        <time>2012-11-24T11:36:33Z</time>
      </trkpt>
      <trkpt lat="46.33067" lon="6.45569">
        <ele>551</ele>
        <time>2012-11-24T11:36:34Z</time>
      </trkpt>
      <trkpt lat="46.33064" lon="6.4557">
        <ele>551</ele>
        <time>2012-11-24T11:36:35Z</time>
      </trkpt>
      <trkpt lat="46.33062" lon="6.45571">
        <ele>551</ele>
        <time>2012-11-24T11:36:36Z</time>
      </trkpt>
      <trkpt lat="46.3306" lon="6.45573">
        <ele>551</ele>
        <time>2012-11-24T11:36:37Z</time>
      </trkpt>
      <trkpt lat="46.33058" lon="6.45574">
        <ele>551</ele>
        <time>2012-11-24T11:36:38Z</time>
      </trkpt>
      <trkpt lat="46.33056" lon="6.45576">
        <ele>552</ele>
        <time>2012-11-24T11:36:39Z</time>
      </trkpt>
      <trkpt lat="46.33053" lon="6.45578">
        <ele>552</ele>
        <time>2012-11-24T11:36:40Z</time>
      </trkpt>
      <trkpt lat="46.33051" lon="6.45579">
        <ele>553</ele>
        <time>2012-11-24T11:36:41Z</time>
      </trkpt>
      <trkpt lat="46.33049" lon="6.45581">
        <ele>553</ele>
        <time>2012-11-24T11:36:42Z</time>
      </trkpt>
      <trkpt lat="46.33046" lon="6.45582">
        <ele>554</ele>
        <time>2012-11-24T11:36:43Z</time>
      </trkpt>
      <trkpt lat="46.33044" lon="6.45583">
        <ele>554</ele>
        <time>2012-11-24T11:36:44Z</time>
      </trkpt>
      <trkpt lat="46.33042" lon="6.45584">
        <ele>555</ele>
        <time>2012-11-24T11:36:45Z</time>
      </trkpt>
      <trkpt lat="46.33039" lon="6.45585">
        <ele>555</ele>
        <time>2012-11-24T11:36:46Z</time>
      </trkpt>
      <trkpt lat="46.33038" lon="6.45587">
        <ele>556</ele>
        <time>2012-11-24T11:36:47Z</time>
      </trkpt>
      <trkpt lat="46.33036" lon="6.45588">
        <ele>556</ele>
        <time>2012-11-24T11:36:48Z</time>
      </trkpt>
      <trkpt lat="46.33034" lon="6.4559">
        <ele>556</ele>
        <time>2012-11-24T11:36:49Z</time>
      </trkpt>
      <trkpt lat="46.33032" lon="6.45592">
        <ele>557</ele>
        <time>2012-11-24T11:36:50Z</time>
      </trkpt>
      <trkpt lat="46.3303" lon="6.45593">
        <ele>557</ele>
        <time>2012-11-24T11:36:51Z</time>
      </trkpt>
      <trkpt lat="46.33027" lon="6.45594">
        <ele>558</ele>
        <time>2012-11-24T11:36:52Z</time>
      </trkpt>
      <trkpt lat="46.33025" lon="6.45595">
        <ele>559</ele>
        <time>2012-11-24T11:36:53Z</time>
      </trkpt>
      <trkpt lat="46.33023" lon="6.45597">
        <ele>560</ele>
        <time>2012-11-24T11:36:54Z</time>
      </trkpt>
      <trkpt lat="46.33022" lon="6.45599">
        <ele>561</ele>
        <time>2012-11-24T11:36:55Z</time>
      </trkpt>
      <trkpt lat="46.3302" lon="6.45601">
        <ele>561</ele>
        <time>2012-11-24T11:36:56Z</time>
      </trkpt>
      <trkpt lat="46.33018" lon="6.45604">
        <ele>562</ele>
        <time>2012-11-24T11:36:57Z</time>
      </trkpt>
      <trkpt lat="46.33017" lon="6.45606">
        <ele>562</ele>
        <time>2012-11-24T11:36:58Z</time>
      </trkpt>
      <trkpt lat="46.33016" lon="6.45609">
        <ele>562</ele>
        <time>2012-11-24T11:36:59Z</time>
      </trkpt>
      <trkpt lat="46.33015" lon="6.45612">
        <ele>562</ele>
        <time>2012-11-24T11:37:00Z</time>
      </trkpt>
      <trkpt lat="46.33014" lon="6.45615">
        <ele>563</ele>
        <time>2012-11-24T11:37:01Z</time>
      </trkpt>
      <trkpt lat="46.33013" lon="6.45618">
        <ele>563</ele>
        <time>2012-11-24T11:37:02Z</time>
      </trkpt>
      <trkpt lat="46.33013" lon="6.4562">
        <ele>563</ele>
        <time>2012-11-24T11:37:03Z</time>
      </trkpt>
      <trkpt lat="46.33012" lon="6.45623">
        <ele>563</ele>
        <time>2012-11-24T11:37:04Z</time>
      </trkpt>
      <trkpt lat="46.33012" lon="6.45626">
        <ele>563</ele>
        <time>2012-11-24T11:37:05Z</time>
      </trkpt>
      <trkpt lat="46.33011" lon="6.45628">
        <ele>563</ele>
        <time>2012-11-24T11:37:06Z</time>
      </trkpt>
      <trkpt lat="46.33011" lon="6.45631">
        <ele>563</ele>
        <time>2012-11-24T11:37:07Z</time>
      </trkpt>
      <trkpt lat="46.33012" lon="6.45633">
        <ele>563</ele>
        <time>2012-11-24T11:37:08Z</time>
      </trkpt>
      <trkpt lat="46.33012" lon="6.45635">
        <ele>563</ele>
        <time>2012-11-24T11:37:09Z</time>
      </trkpt>
      <trkpt lat="46.33012" lon="6.45637">
        <ele>563</ele>
        <time>2012-11-24T11:37:10Z</time>
      </trkpt>
      <trkpt lat="46.33012" lon="6.45639">
        <ele>563</ele>
        <time>2012-11-24T11:37:11Z</time>
      </trkpt>
      <trkpt lat="46.33011" lon="6.45641">
        <ele>563</ele>
        <time>2012-11-24T11:37:12Z</time>
      </trkpt>
      <trkpt lat="46.3301" lon="6.45644">
        <ele>563</ele>
        <time>2012-11-24T11:37:13Z</time>
      </trkpt>
      <trkpt lat="46.3301" lon="6.45646">
        <ele>563</ele>
        <time>2012-11-24T11:37:14Z</time>
      </trkpt>
      <trkpt lat="46.33009" lon="6.45648">
        <ele>563</ele>
        <time>2012-11-24T11:37:15Z</time>
      </trkpt>
      <trkpt lat="46.33008" lon="6.45651">
        <ele>563</ele>
        <time>2012-11-24T11:37:16Z</time>
      </trkpt>
      <trkpt lat="46.33008" lon="6.45655">
        <ele>564</ele>
        <time>2012-11-24T11:37:17Z</time>
      </trkpt>
      <trkpt lat="46.33007" lon="6.45659">
        <ele>565</ele>
        <time>2012-11-24T11:37:18Z</time>
      </trkpt>
      <trkpt lat="46.33006" lon="6.45663">
        <ele>565</ele>
        <time>2012-11-24T11:37:19Z</time>
      </trkpt>
      <trkpt lat="46.33006" lon="6.45666">
        <ele>566</ele>
        <time>2012-11-24T11:37:20Z</time>
      </trkpt>
      <trkpt lat="46.33006" lon="6.45669">
        <ele>566</ele>
        <time>2012-11-24T11:37:21Z</time>
      </trkpt>
      <trkpt lat="46.33006" lon="6.45673">
        <ele>566</ele>
        <time>2012-11-24T11:37:22Z</time>
      </trkpt>
      <trkpt lat="46.33007" lon="6.45676">
        <ele>566</ele>
        <time>2012-11-24T11:37:23Z</time>
      </trkpt>
      <trkpt lat="46.33008" lon="6.45677">
        <ele>567</ele>
        <time>2012-11-24T11:37:24Z</time>
      </trkpt>
      <trkpt lat="46.33009" lon="6.4568">
        <ele>567</ele>
        <time>2012-11-24T11:37:25Z</time>
      </trkpt>
      <trkpt lat="46.3301" lon="6.45681">
        <ele>567</ele>
        <time>2012-11-24T11:37:26Z</time>
      </trkpt>
      <trkpt lat="46.33011" lon="6.45684">
        <ele>568</ele>
        <time>2012-11-24T11:37:27Z</time>
      </trkpt>
      <trkpt lat="46.33012" lon="6.45687">
        <ele>568</ele>
        <time>2012-11-24T11:37:28Z</time>
      </trkpt>
      <trkpt lat="46.33013" lon="6.4569">
        <ele>569</ele>
        <time>2012-11-24T11:37:29Z</time>
      </trkpt>
      <trkpt lat="46.33014" lon="6.45693">
        <ele>569</ele>
        <time>2012-11-24T11:37:30Z</time>
      </trkpt>
      <trkpt lat="46.33015" lon="6.45695">
        <ele>569</ele>
        <time>2012-11-24T11:37:31Z</time>
      </trkpt>
      <trkpt lat="46.33016" lon="6.45698">
        <ele>569</ele>
        <time>2012-11-24T11:37:32Z</time>
      </trkpt>
      <trkpt lat="46.33017" lon="6.45701">
        <ele>570</ele>
        <time>2012-11-24T11:37:33Z</time>
      </trkpt>
      <trkpt lat="46.33018" lon="6.45703">
        <ele>570</ele>
        <time>2012-11-24T11:37:34Z</time>
      </trkpt>
      <trkpt lat="46.33019" lon="6.45706">
        <ele>570</ele>
        <time>2012-11-24T11:37:35Z</time>
      </trkpt>
      <trkpt lat="46.33019" lon="6.4571">
        <ele>570</ele>
        <time>2012-11-24T11:37:36Z</time>
      </trkpt>
      <trkpt lat="46.3302" lon="6.45713">
        <ele>570</ele>
        <time>2012-11-24T11:37:37Z</time>
      </trkpt>
      <trkpt lat="46.33021" lon="6.45716">
        <ele>570</ele>
        <time>2012-11-24T11:37:38Z</time>
      </trkpt>
      <trkpt lat="46.33021" lon="6.45721">
        <ele>570</ele>
        <time>2012-11-24T11:37:39Z</time>
      </trkpt>
      <trkpt lat="46.33021" lon="6.45724">
        <ele>570</ele>
        <time>2012-11-24T11:37:40Z</time>
      </trkpt>
      <trkpt lat="46.33021" lon="6.45727">
        <ele>570</ele>
        <time>2012-11-24T11:37:41Z</time>
      </trkpt>
      <trkpt lat="46.33022" lon="6.4573">
        <ele>571</ele>
        <time>2012-11-24T11:37:42Z</time>
      </trkpt>
      <trkpt lat="46.33023" lon="6.45733">
        <ele>571</ele>
        <time>2012-11-24T11:37:43Z</time>
      </trkpt>
      <trkpt lat="46.33024" lon="6.45737">
        <ele>572</ele>
        <time>2012-11-24T11:37:44Z</time>
      </trkpt>
      <trkpt lat="46.33026" lon="6.45739">
        <ele>573</ele>
        <time>2012-11-24T11:37:45Z</time>
      </trkpt>
      <trkpt lat="46.33027" lon="6.45741">
        <ele>574</ele>
        <time>2012-11-24T11:37:46Z</time>
      </trkpt>
      <trkpt lat="46.33028" lon="6.45744">
        <ele>575</ele>
        <time>2012-11-24T11:37:47Z</time>
      </trkpt>
      <trkpt lat="46.3303" lon="6.45746">
        <ele>575</ele>
        <time>2012-11-24T11:37:48Z</time>
      </trkpt>
      <trkpt lat="46.33031" lon="6.45748">
        <ele>575</ele>
        <time>2012-11-24T11:37:49Z</time>
      </trkpt>
      <trkpt lat="46.33032" lon="6.4575">
        <ele>575</ele>
        <time>2012-11-24T11:37:50Z</time>
      </trkpt>
      <trkpt lat="46.33033" lon="6.45753">
        <ele>575</ele>
        <time>2012-11-24T11:37:51Z</time>
      </trkpt>
      <trkpt lat="46.33033" lon="6.45756">
        <ele>575</ele>
        <time>2012-11-24T11:37:52Z</time>
      </trkpt>
      <trkpt lat="46.33033" lon="6.45759">
        <ele>575</ele>
        <time>2012-11-24T11:37:53Z</time>
      </trkpt>
      <trkpt lat="46.33033" lon="6.45762">
        <ele>575</ele>
        <time>2012-11-24T11:37:54Z</time>
      </trkpt>
      <trkpt lat="46.33033" lon="6.45765">
        <ele>575</ele>
        <time>2012-11-24T11:37:55Z</time>
      </trkpt>
      <trkpt lat="46.33033" lon="6.4577">
        <ele>575</ele>
        <time>2012-11-24T11:37:56Z</time>
      </trkpt>
      <trkpt lat="46.33033" lon="6.45773">
        <ele>575</ele>
        <time>2012-11-24T11:37:57Z</time>
      </trkpt>
      <trkpt lat="46.33034" lon="6.45776">
        <ele>575</ele>
        <time>2012-11-24T11:37:58Z</time>
      </trkpt>
      <trkpt lat="46.33033" lon="6.45779">
        <ele>575</ele>
        <time>2012-11-24T11:37:59Z</time>
      </trkpt>
      <trkpt lat="46.33034" lon="6.45781">
        <ele>575</ele>
        <time>2012-11-24T11:38:00Z</time>
      </trkpt>
      <trkpt lat="46.33036" lon="6.45783">
        <ele>575</ele>
        <time>2012-11-24T11:38:01Z</time>
      </trkpt>
      <trkpt lat="46.33037" lon="6.45786">
        <ele>575</ele>
        <time>2012-11-24T11:38:02Z</time>
      </trkpt>
      <trkpt lat="46.33038" lon="6.45788">
        <ele>575</ele>
        <time>2012-11-24T11:38:03Z</time>
      </trkpt>
      <trkpt lat="46.33038" lon="6.4579">
        <ele>575</ele>
        <time>2012-11-24T11:38:04Z</time>
      </trkpt>
      <trkpt lat="46.33039" lon="6.45793">
        <ele>575</ele>
        <time>2012-11-24T11:38:05Z</time>
      </trkpt>
      <trkpt lat="46.33041" lon="6.45796">
        <ele>575</ele>
        <time>2012-11-24T11:38:06Z</time>
      </trkpt>
      <trkpt lat="46.33041" lon="6.45798">
        <ele>575</ele>
        <time>2012-11-24T11:38:07Z</time>
      </trkpt>
      <trkpt lat="46.33042" lon="6.458">
        <ele>575</ele>
        <time>2012-11-24T11:38:08Z</time>
      </trkpt>
      <trkpt lat="46.33043" lon="6.45803">
        <ele>576</ele>
        <time>2012-11-24T11:38:09Z</time>
      </trkpt>
      <trkpt lat="46.33043" lon="6.45806">
        <ele>576</ele>
        <time>2012-11-24T11:38:10Z</time>
      </trkpt>
      <trkpt lat="46.33044" lon="6.45808">
        <ele>576</ele>
        <time>2012-11-24T11:38:11Z</time>
      </trkpt>
      <trkpt lat="46.33043" lon="6.45812">
        <ele>576</ele>
        <time>2012-11-24T11:38:12Z</time>
      </trkpt>
      <trkpt lat="46.33043" lon="6.45815">
        <ele>576</ele>
        <time>2012-11-24T11:38:13Z</time>
      </trkpt>
      <trkpt lat="46.33043" lon="6.45818">
        <ele>577</ele>
        <time>2012-11-24T11:38:14Z</time>
      </trkpt>
      <trkpt lat="46.33044" lon="6.4582">
        <ele>577</ele>
        <time>2012-11-24T11:38:15Z</time>
      </trkpt>
      <trkpt lat="46.33044" lon="6.45824">
        <ele>578</ele>
        <time>2012-11-24T11:38:16Z</time>
      </trkpt>
      <trkpt lat="46.33044" lon="6.45827">
        <ele>578</ele>
        <time>2012-11-24T11:38:17Z</time>
      </trkpt>
      <trkpt lat="46.33045" lon="6.4583">
        <ele>578</ele>
        <time>2012-11-24T11:38:18Z</time>
      </trkpt>
      <trkpt lat="46.33045" lon="6.45834">
        <ele>578</ele>
        <time>2012-11-24T11:38:19Z</time>
      </trkpt>
      <trkpt lat="46.33046" lon="6.45837">
        <ele>578</ele>
        <time>2012-11-24T11:38:20Z</time>
      </trkpt>
      <trkpt lat="46.33048" lon="6.4584">
        <ele>579</ele>
        <time>2012-11-24T11:38:21Z</time>
      </trkpt>
      <trkpt lat="46.33049" lon="6.45844">
        <ele>579</ele>
        <time>2012-11-24T11:38:22Z</time>
      </trkpt>
      <trkpt lat="46.33049" lon="6.45847">
        <ele>579</ele>
        <time>2012-11-24T11:38:23Z</time>
      </trkpt>
      <trkpt lat="46.3305" lon="6.45849">
        <ele>580</ele>
        <time>2012-11-24T11:38:24Z</time>
      </trkpt>
      <trkpt lat="46.33052" lon="6.45852">
        <ele>580</ele>
        <time>2012-11-24T11:38:25Z</time>
      </trkpt>
      <trkpt lat="46.33052" lon="6.45854">
        <ele>581</ele>
        <time>2012-11-24T11:38:26Z</time>
      </trkpt>
      <trkpt lat="46.33054" lon="6.45857">
        <ele>582</ele>
        <time>2012-11-24T11:38:27Z</time>
      </trkpt>
      <trkpt lat="46.33055" lon="6.45859">
        <ele>583</ele>
        <time>2012-11-24T11:38:28Z</time>
      </trkpt>
      <trkpt lat="46.33057" lon="6.45861">
        <ele>584</ele>
        <time>2012-11-24T11:38:29Z</time>
      </trkpt>
      <trkpt lat="46.33057" lon="6.45864">
        <ele>585</ele>
        <time>2012-11-24T11:38:30Z</time>
      </trkpt>
      <trkpt lat="46.33056" lon="6.45868">
        <ele>585</ele>
        <time>2012-11-24T11:38:31Z</time>
      </trkpt>
      <trkpt lat="46.33056" lon="6.45871">
        <ele>586</ele>
        <time>2012-11-24T11:38:32Z</time>
      </trkpt>
      <trkpt lat="46.33056" lon="6.45873">
        <ele>586</ele>
        <time>2012-11-24T11:38:33Z</time>
      </trkpt>
      <trkpt lat="46.33055" lon="6.45875">
        <ele>587</ele>
        <time>2012-11-24T11:38:34Z</time>
      </trkpt>
      <trkpt lat="46.33055" lon="6.45878">
        <ele>587</ele>
        <time>2012-11-24T11:38:35Z</time>
      </trkpt>
      <trkpt lat="46.33055" lon="6.45881">
        <ele>587</ele>
        <time>2012-11-24T11:38:36Z</time>
      </trkpt>
      <trkpt lat="46.33055" lon="6.45884">
        <ele>587</ele>
        <time>2012-11-24T11:38:37Z</time>
      </trkpt>
      <trkpt lat="46.33055" lon="6.45887">
        <ele>587</ele>
        <time>2012-11-24T11:38:38Z</time>
      </trkpt>
      <trkpt lat="46.33054" lon="6.4589">
        <ele>587</ele>
        <time>2012-11-24T11:38:39Z</time>
      </trkpt>
      <trkpt lat="46.33055" lon="6.45892">
        <ele>587</ele>
        <time>2012-11-24T11:38:40Z</time>
      </trkpt>
      <trkpt lat="46.33055" lon="6.45894">
        <ele>587</ele>
        <time>2012-11-24T11:38:41Z</time>
      </trkpt>
      <trkpt lat="46.33054" lon="6.45897">
        <ele>587</ele>
        <time>2012-11-24T11:38:42Z</time>
      </trkpt>
      <trkpt lat="46.33054" lon="6.459">
        <ele>587</ele>
        <time>2012-11-24T11:38:43Z</time>
      </trkpt>
      <trkpt lat="46.33054" lon="6.45903">
        <ele>587</ele>
        <time>2012-11-24T11:38:44Z</time>
      </trkpt>
      <trkpt lat="46.33054" lon="6.45905">
        <ele>587</ele>
        <time>2012-11-24T11:38:45Z</time>
      </trkpt>
      <trkpt lat="46.33055" lon="6.45909">
        <ele>587</ele>
        <time>2012-11-24T11:38:46Z</time>
      </trkpt>
      <trkpt lat="46.33055" lon="6.45913">
        <ele>587</ele>
        <time>2012-11-24T11:38:47Z</time>
      </trkpt>
      <trkpt lat="46.33056" lon="6.45916">
        <ele>587</ele>
        <time>2012-11-24T11:38:48Z</time>
      </trkpt>
      <trkpt lat="46.33057" lon="6.4592">
        <ele>587</ele>
        <time>2012-11-24T11:38:49Z</time>
      </trkpt>
      <trkpt lat="46.33057" lon="6.45922">
        <ele>587</ele>
        <time>2012-11-24T11:38:50Z</time>
      </trkpt>
      <trkpt lat="46.33058" lon="6.45925">
        <ele>588</ele>
        <time>2012-11-24T11:38:51Z</time>
      </trkpt>
      <trkpt lat="46.33058" lon="6.45927">
        <ele>589</ele>
        <time>2012-11-24T11:38:52Z</time>
      </trkpt>
      <trkpt lat="46.33059" lon="6.45929">
        <ele>590</ele>
        <time>2012-11-24T11:38:53Z</time>
      </trkpt>
      <trkpt lat="46.33059" lon="6.45931">
        <ele>591</ele>
        <time>2012-11-24T11:38:54Z</time>
      </trkpt>
      <trkpt lat="46.3306" lon="6.45933">
        <ele>592</ele>
        <time>2012-11-24T11:38:55Z</time>
      </trkpt>
      <trkpt lat="46.33061" lon="6.45935">
        <ele>593</ele>
        <time>2012-11-24T11:38:56Z</time>
      </trkpt>
      <trkpt lat="46.33062" lon="6.45937">
        <ele>593</ele>
        <time>2012-11-24T11:38:57Z</time>
      </trkpt>
      <trkpt lat="46.33063" lon="6.45939">
        <ele>593</ele>
        <time>2012-11-24T11:38:58Z</time>
      </trkpt>
      <trkpt lat="46.33064" lon="6.45943">
        <ele>594</ele>
        <time>2012-11-24T11:38:59Z</time>
      </trkpt>
      <trkpt lat="46.33065" lon="6.45945">
        <ele>594</ele>
        <time>2012-11-24T11:39:00Z</time>
      </trkpt>
      <trkpt lat="46.33066" lon="6.45947">
        <ele>594</ele>
        <time>2012-11-24T11:39:01Z</time>
      </trkpt>
      <trkpt lat="46.33068" lon="6.45951">
        <ele>594</ele>
        <time>2012-11-24T11:39:02Z</time>
      </trkpt>
      <trkpt lat="46.3307" lon="6.45954">
        <ele>595</ele>
        <time>2012-11-24T11:39:03Z</time>
      </trkpt>
      <trkpt lat="46.33072" lon="6.45957">
        <ele>595</ele>
        <time>2012-11-24T11:39:04Z</time>
      </trkpt>
      <trkpt lat="46.33073" lon="6.4596">
        <ele>596</ele>
        <time>2012-11-24T11:39:05Z</time>
      </trkpt>
      <trkpt lat="46.33073" lon="6.45963">
        <ele>597</ele>
        <time>2012-11-24T11:39:06Z</time>
      </trkpt>
      <trkpt lat="46.33074" lon="6.45965">
        <ele>598</ele>
        <time>2012-11-24T11:39:07Z</time>
      </trkpt>
      <trkpt lat="46.33077" lon="6.45967">
        <ele>598</ele>
        <time>2012-11-24T11:39:08Z</time>
      </trkpt>
      <trkpt lat="46.33079" lon="6.4597">
        <ele>599</ele>
        <time>2012-11-24T11:39:09Z</time>
      </trkpt>
      <trkpt lat="46.33081" lon="6.45972">
        <ele>600</ele>
        <time>2012-11-24T11:39:10Z</time>
      </trkpt>
      <trkpt lat="46.33082" lon="6.45974">
        <ele>601</ele>
        <time>2012-11-24T11:39:11Z</time>
      </trkpt>
      <trkpt lat="46.33082" lon="6.45977">
        <ele>602</ele>
        <time>2012-11-24T11:39:12Z</time>
      </trkpt>
      <trkpt lat="46.33082" lon="6.4598">
        <ele>602</ele>
        <time>2012-11-24T11:39:13Z</time>
      </trkpt>
      <trkpt lat="46.33084" lon="6.45982">
        <ele>602</ele>
        <time>2012-11-24T11:39:14Z</time>
      </trkpt>
      <trkpt lat="46.33084" lon="6.45984">
        <ele>602</ele>
        <time>2012-11-24T11:39:15Z</time>
      </trkpt>
      <trkpt lat="46.33085" lon="6.45987">
        <ele>602</ele>
        <time>2012-11-24T11:39:16Z</time>
      </trkpt>
      <trkpt lat="46.33085" lon="6.45989">
        <ele>602</ele>
        <time>2012-11-24T11:39:17Z</time>
      </trkpt>
      <trkpt lat="46.33085" lon="6.45991">
        <ele>602</ele>
        <time>2012-11-24T11:39:18Z</time>
      </trkpt>
      <trkpt lat="46.33086" lon="6.45995">
        <ele>602</ele>
        <time>2012-11-24T11:39:19Z</time>
      </trkpt>
      <trkpt lat="46.33087" lon="6.45998">
        <ele>602</ele>
        <time>2012-11-24T11:39:20Z</time>
      </trkpt>
      <trkpt lat="46.33088" lon="6.46001">
        <ele>602</ele>
        <time>2012-11-24T11:39:21Z</time>
      </trkpt>
      <trkpt lat="46.3309" lon="6.46005">
        <ele>602</ele>
        <time>2012-11-24T11:39:22Z</time>
      </trkpt>
      <trkpt lat="46.3309" lon="6.46008">
        <ele>603</ele>
        <time>2012-11-24T11:39:23Z</time>
      </trkpt>
      <trkpt lat="46.33091" lon="6.4601">
        <ele>603</ele>
        <time>2012-11-24T11:39:24Z</time>
      </trkpt>
      <trkpt lat="46.33092" lon="6.46013">
        <ele>604</ele>
        <time>2012-11-24T11:39:25Z</time>
      </trkpt>
      <trkpt lat="46.33093" lon="6.46015">
        <ele>604</ele>
        <time>2012-11-24T11:39:26Z</time>
      </trkpt>
      <trkpt lat="46.33092" lon="6.46018">
        <ele>604</ele>
        <time>2012-11-24T11:39:27Z</time>
      </trkpt>
      <trkpt lat="46.33094" lon="6.46021">
        <ele>605</ele>
        <time>2012-11-24T11:39:28Z</time>
      </trkpt>
      <trkpt lat="46.33095" lon="6.46023">
        <ele>605</ele>
        <time>2012-11-24T11:39:29Z</time>
      </trkpt>
      <trkpt lat="46.33095" lon="6.46025">
        <ele>606</ele>
        <time>2012-11-24T11:39:30Z</time>
      </trkpt>
      <trkpt lat="46.33097" lon="6.46028">
        <ele>607</ele>
        <time>2012-11-24T11:39:32Z</time>
      </trkpt>
      <trkpt lat="46.33097" lon="6.46031">
        <ele>608</ele>
        <time>2012-11-24T11:39:33Z</time>
      </trkpt>
      <trkpt lat="46.33098" lon="6.46033">
        <ele>608</ele>
        <time>2012-11-24T11:39:34Z</time>
      </trkpt>
      <trkpt lat="46.33098" lon="6.46035">
        <ele>608</ele>
        <time>2012-11-24T11:39:35Z</time>
      </trkpt>
      <trkpt lat="46.33097" lon="6.46038">
        <ele>609</ele>
        <time>2012-11-24T11:39:36Z</time>
      </trkpt>
      <trkpt lat="46.33096" lon="6.46041">
        <ele>609</ele>
        <time>2012-11-24T11:39:37Z</time>
      </trkpt>
      <trkpt lat="46.33096" lon="6.46044">
        <ele>609</ele>
        <time>2012-11-24T11:39:38Z</time>
      </trkpt>
      <trkpt lat="46.33096" lon="6.46048">
        <ele>609</ele>
        <time>2012-11-24T11:39:39Z</time>
      </trkpt>
      <trkpt lat="46.33095" lon="6.4605">
        <ele>609</ele>
        <time>2012-11-24T11:39:40Z</time>
      </trkpt>
      <trkpt lat="46.33095" lon="6.46053">
        <ele>610</ele>
        <time>2012-11-24T11:39:41Z</time>
      </trkpt>
      <trkpt lat="46.33095" lon="6.46056">
        <ele>610</ele>
        <time>2012-11-24T11:39:42Z</time>
      </trkpt>
      <trkpt lat="46.33095" lon="6.46058">
        <ele>610</ele>
        <time>2012-11-24T11:39:43Z</time>
      </trkpt>
      <trkpt lat="46.33095" lon="6.46061">
        <ele>610</ele>
        <time>2012-11-24T11:39:44Z</time>
      </trkpt>
      <trkpt lat="46.33096" lon="6.46063">
        <ele>610</ele>
        <time>2012-11-24T11:39:45Z</time>
      </trkpt>
      <trkpt lat="46.33096" lon="6.46065">
        <ele>611</ele>
        <time>2012-11-24T11:39:46Z</time>
      </trkpt>
      <trkpt lat="46.33096" lon="6.46069">
        <ele>611</ele>
        <time>2012-11-24T11:39:47Z</time>
      </trkpt>
      <trkpt lat="46.33096" lon="6.46072">
        <ele>611</ele>
        <time>2012-11-24T11:39:48Z</time>
      </trkpt>
      <trkpt lat="46.33095" lon="6.46074">
        <ele>611</ele>
        <time>2012-11-24T11:39:49Z</time>
      </trkpt>
      <trkpt lat="46.33095" lon="6.46077">
        <ele>611</ele>
        <time>2012-11-24T11:39:50Z</time>
      </trkpt>
      <trkpt lat="46.33096" lon="6.46079">
        <ele>611</ele>
        <time>2012-11-24T11:39:51Z</time>
      </trkpt>
      <trkpt lat="46.33096" lon="6.46082">
        <ele>611</ele>
        <time>2012-11-24T11:39:52Z</time>
      </trkpt>
      <trkpt lat="46.33096" lon="6.46084">
        <ele>611</ele>
        <time>2012-11-24T11:39:53Z</time>
      </trkpt>
      <trkpt lat="46.33096" lon="6.46087">
        <ele>611</ele>
        <time>2012-11-24T11:39:54Z</time>
      </trkpt>
      <trkpt lat="46.33096" lon="6.4609">
        <ele>611</ele>
        <time>2012-11-24T11:39:55Z</time>
      </trkpt>
      <trkpt lat="46.33096" lon="6.46092">
        <ele>611</ele>
        <time>2012-11-24T11:39:56Z</time>
      </trkpt>
      <trkpt lat="46.33096" lon="6.46096">
        <ele>611</ele>
        <time>2012-11-24T11:39:57Z</time>
      </trkpt>
      <trkpt lat="46.33096" lon="6.46099">
        <ele>611</ele>
        <time>2012-11-24T11:39:58Z</time>
      </trkpt>
      <trkpt lat="46.33095" lon="6.46101">
        <ele>611</ele>
        <time>2012-11-24T11:39:59Z</time>
      </trkpt>
      <trkpt lat="46.33094" lon="6.46106">
        <ele>611</ele>
        <time>2012-11-24T11:40:00Z</time>
      </trkpt>
      <trkpt lat="46.33093" lon="6.4611">
        <ele>611</ele>
        <time>2012-11-24T11:40:01Z</time>
      </trkpt>
      <trkpt lat="46.33093" lon="6.46112">
        <ele>612</ele>
        <time>2012-11-24T11:40:02Z</time>
      </trkpt>
      <trkpt lat="46.33092" lon="6.46116">
        <ele>613</ele>
        <time>2012-11-24T11:40:03Z</time>
      </trkpt>
      <trkpt lat="46.33092" lon="6.46117">
        <ele>613</ele>
        <time>2012-11-24T11:40:04Z</time>
      </trkpt>
      <trkpt lat="46.33091" lon="6.46119">
        <ele>614</ele>
        <time>2012-11-24T11:40:06Z</time>
      </trkpt>
      <trkpt lat="46.33093" lon="6.46121">
        <ele>614</ele>
        <time>2012-11-24T11:40:08Z</time>
      </trkpt>
      <trkpt lat="46.33094" lon="6.46122">
        <ele>615</ele>
        <time>2012-11-24T11:40:10Z</time>
      </trkpt>
      <trkpt lat="46.33096" lon="6.46122">
        <ele>615</ele>
        <time>2012-11-24T11:40:12Z</time>
      </trkpt>
      <trkpt lat="46.33099" lon="6.46124">
        <ele>616</ele>
        <time>2012-11-24T11:40:14Z</time>
      </trkpt>
      <trkpt lat="46.33101" lon="6.46124">
        <ele>616</ele>
        <time>2012-11-24T11:40:16Z</time>
      </trkpt>
      <trkpt lat="46.33102" lon="6.46123">
        <ele>616</ele>
        <time>2012-11-24T11:40:17Z</time>
      </trkpt>
      <trkpt lat="46.33104" lon="6.46123">
        <ele>617</ele>
        <time>2012-11-24T11:40:19Z</time>
      </trkpt>
      <trkpt lat="46.33106" lon="6.46124">
        <ele>617</ele>
        <time>2012-11-24T11:40:21Z</time>
      </trkpt>
      <trkpt lat="46.33107" lon="6.46124">
        <ele>617</ele>
        <time>2012-11-24T11:40:22Z</time>
      </trkpt>
      <trkpt lat="46.33108" lon="6.46125">
        <ele>617</ele>
        <time>2012-11-24T11:40:23Z</time>
      </trkpt>
      <trkpt lat="46.3311" lon="6.46125">
        <ele>617</ele>
        <time>2012-11-24T11:40:24Z</time>
      </trkpt>
      <trkpt lat="46.33111" lon="6.46125">
        <ele>617</ele>
        <time>2012-11-24T11:40:25Z</time>
      </trkpt>
      <trkpt lat="46.33112" lon="6.46126">
        <ele>617</ele>
        <time>2012-11-24T11:40:26Z</time>
      </trkpt>
      <trkpt lat="46.33113" lon="6.46126">
        <ele>618</ele>
        <time>2012-11-24T11:40:27Z</time>
      </trkpt>
      <trkpt lat="46.33115" lon="6.46126">
        <ele>618</ele>
        <time>2012-11-24T11:40:28Z</time>
      </trkpt>
      <trkpt lat="46.33117" lon="6.46126">
        <ele>618</ele>
        <time>2012-11-24T11:40:29Z</time>
      </trkpt>
      <trkpt lat="46.33119" lon="6.46126">
        <ele>619</ele>
        <time>2012-11-24T11:40:30Z</time>
      </trkpt>
      <trkpt lat="46.33121" lon="6.46126">
        <ele>619</ele>
        <time>2012-11-24T11:40:31Z</time>
      </trkpt>
      <trkpt lat="46.33124" lon="6.46127">
        <ele>620</ele>
        <time>2012-11-24T11:40:32Z</time>
      </trkpt>
      <trkpt lat="46.33127" lon="6.46128">
        <ele>620</ele>
        <time>2012-11-24T11:40:33Z</time>
      </trkpt>
      <trkpt lat="46.3313" lon="6.46127">
        <ele>621</ele>
        <time>2012-11-24T11:40:34Z</time>
      </trkpt>
      <trkpt lat="46.33132" lon="6.46127">
        <ele>621</ele>
        <time>2012-11-24T11:40:35Z</time>
      </trkpt>
      <trkpt lat="46.33134" lon="6.46128">
        <ele>622</ele>
        <time>2012-11-24T11:40:36Z</time>
      </trkpt>
      <trkpt lat="46.33136" lon="6.46128">
        <ele>622</ele>
        <time>2012-11-24T11:40:37Z</time>
      </trkpt>
      <trkpt lat="46.33139" lon="6.46128">
        <ele>623</ele>
        <time>2012-11-24T11:40:38Z</time>
      </trkpt>
      <trkpt lat="46.33141" lon="6.46128">
        <ele>624</ele>
        <time>2012-11-24T11:40:39Z</time>
      </trkpt>
      <trkpt lat="46.33144" lon="6.46129">
        <ele>624</ele>
        <time>2012-11-24T11:40:40Z</time>
      </trkpt>
      <trkpt lat="46.33147" lon="6.46129">
        <ele>624</ele>
        <time>2012-11-24T11:40:41Z</time>
      </trkpt>
      <trkpt lat="46.33149" lon="6.4613">
        <ele>625</ele>
        <time>2012-11-24T11:40:42Z</time>
      </trkpt>
      <trkpt lat="46.33151" lon="6.46131">
        <ele>625</ele>
        <time>2012-11-24T11:40:43Z</time>
      </trkpt>
      <trkpt lat="46.33153" lon="6.46131">
        <ele>625</ele>
        <time>2012-11-24T11:40:44Z</time>
      </trkpt>
      <trkpt lat="46.33155" lon="6.46132">
        <ele>625</ele>
        <time>2012-11-24T11:40:45Z</time>
      </trkpt>
      <trkpt lat="46.33158" lon="6.46133">
        <ele>625</ele>
        <time>2012-11-24T11:40:46Z</time>
      </trkpt>
      <trkpt lat="46.33161" lon="6.46135">
        <ele>625</ele>
        <time>2012-11-24T11:40:47Z</time>
      </trkpt>
      <trkpt lat="46.33163" lon="6.46136">
        <ele>625</ele>
        <time>2012-11-24T11:40:48Z</time>
      </trkpt>
      <trkpt lat="46.33165" lon="6.46136">
        <ele>625</ele>
        <time>2012-11-24T11:40:49Z</time>
      </trkpt>
      <trkpt lat="46.33166" lon="6.46138">
        <ele>625</ele>
        <time>2012-11-24T11:40:50Z</time>
      </trkpt>
      <trkpt lat="46.33167" lon="6.46141">
        <ele>625</ele>
        <time>2012-11-24T11:40:51Z</time>
      </trkpt>
      <trkpt lat="46.33168" lon="6.46145">
        <ele>625</ele>
        <time>2012-11-24T11:40:52Z</time>
      </trkpt>
      <trkpt lat="46.33168" lon="6.46147">
        <ele>625</ele>
        <time>2012-11-24T11:40:53Z</time>
      </trkpt>
      <trkpt lat="46.33169" lon="6.46151">
        <ele>625</ele>
        <time>2012-11-24T11:40:54Z</time>
      </trkpt>
      <trkpt lat="46.3317" lon="6.46153">
        <ele>625</ele>
        <time>2012-11-24T11:40:55Z</time>
      </trkpt>
      <trkpt lat="46.33171" lon="6.46156">
        <ele>625</ele>
        <time>2012-11-24T11:40:56Z</time>
      </trkpt>
      <trkpt lat="46.33171" lon="6.46159">
        <ele>624</ele>
        <time>2012-11-24T11:40:57Z</time>
      </trkpt>
      <trkpt lat="46.33171" lon="6.46161">
        <ele>623</ele>
        <time>2012-11-24T11:40:58Z</time>
      </trkpt>
      <trkpt lat="46.33173" lon="6.46164">
        <ele>622</ele>
        <time>2012-11-24T11:40:59Z</time>
      </trkpt>
      <trkpt lat="46.33174" lon="6.46166">
        <ele>622</ele>
        <time>2012-11-24T11:41:00Z</time>
      </trkpt>
      <trkpt lat="46.33176" lon="6.46169">
        <ele>621</ele>
        <time>2012-11-24T11:41:01Z</time>
      </trkpt>
      <trkpt lat="46.33177" lon="6.46173">
        <ele>620</ele>
        <time>2012-11-24T11:41:02Z</time>
      </trkpt>
      <trkpt lat="46.33179" lon="6.46175">
        <ele>620</ele>
        <time>2012-11-24T11:41:03Z</time>
      </trkpt>
      <trkpt lat="46.33179" lon="6.46179">
        <ele>619</ele>
        <time>2012-11-24T11:41:04Z</time>
      </trkpt>
      <trkpt lat="46.33181" lon="6.46181">
        <ele>618</ele>
        <time>2012-11-24T11:41:05Z</time>
      </trkpt>
      <trkpt lat="46.33182" lon="6.46184">
        <ele>617</ele>
        <time>2012-11-24T11:41:06Z</time>
      </trkpt>
      <trkpt lat="46.33184" lon="6.46187">
        <ele>617</ele>
        <time>2012-11-24T11:41:07Z</time>
      </trkpt>
      <trkpt lat="46.33185" lon="6.46189">
        <ele>616</ele>
        <time>2012-11-24T11:41:08Z</time>
      </trkpt>
      <trkpt lat="46.33187" lon="6.46192">
        <ele>616</ele>
        <time>2012-11-24T11:41:09Z</time>
      </trkpt>
      <trkpt lat="46.3319" lon="6.46195">
        <ele>616</ele>
        <time>2012-11-24T11:41:10Z</time>
      </trkpt>
      <trkpt lat="46.33192" lon="6.46198">
        <ele>616</ele>
        <time>2012-11-24T11:41:11Z</time>
      </trkpt>
      <trkpt lat="46.33194" lon="6.462">
        <ele>616</ele>
        <time>2012-11-24T11:41:12Z</time>
      </trkpt>
      <trkpt lat="46.33197" lon="6.46201">
        <ele>616</ele>
        <time>2012-11-24T11:41:13Z</time>
      </trkpt>
      <trkpt lat="46.33199" lon="6.46201">
        <ele>616</ele>
        <time>2012-11-24T11:41:14Z</time>
      </trkpt>
      <trkpt lat="46.33202" lon="6.46202">
        <ele>616</ele>
        <time>2012-11-24T11:41:15Z</time>
      </trkpt>
      <trkpt lat="46.33204" lon="6.46203">
        <ele>616</ele>
        <time>2012-11-24T11:41:16Z</time>
      </trkpt>
      <trkpt lat="46.33206" lon="6.46203">
        <ele>616</ele>
        <time>2012-11-24T11:41:17Z</time>
      </trkpt>
      <trkpt lat="46.33208" lon="6.46204">
        <ele>616</ele>
        <time>2012-11-24T11:41:18Z</time>
      </trkpt>
      <trkpt lat="46.3321" lon="6.46206">
        <ele>616</ele>
        <time>2012-11-24T11:41:19Z</time>
      </trkpt>
      <trkpt lat="46.33212" lon="6.46208">
        <ele>615</ele>
        <time>2012-11-24T11:41:20Z</time>
      </trkpt>
      <trkpt lat="46.33213" lon="6.4621">
        <ele>615</ele>
        <time>2012-11-24T11:41:21Z</time>
      </trkpt>
      <trkpt lat="46.33214" lon="6.46212">
        <ele>615</ele>
        <time>2012-11-24T11:41:22Z</time>
      </trkpt>
      <trkpt lat="46.33215" lon="6.46215">
        <ele>614</ele>
        <time>2012-11-24T11:41:23Z</time>
      </trkpt>
      <trkpt lat="46.33216" lon="6.46217">
        <ele>614</ele>
        <time>2012-11-24T11:41:24Z</time>
      </trkpt>
      <trkpt lat="46.33218" lon="6.4622">
        <ele>613</ele>
        <time>2012-11-24T11:41:25Z</time>
      </trkpt>
      <trkpt lat="46.3322" lon="6.46222">
        <ele>612</ele>
        <time>2012-11-24T11:41:26Z</time>
      </trkpt>
      <trkpt lat="46.33222" lon="6.46222">
        <ele>611</ele>
        <time>2012-11-24T11:41:27Z</time>
      </trkpt>
      <trkpt lat="46.33224" lon="6.46223">
        <ele>610</ele>
        <time>2012-11-24T11:41:28Z</time>
      </trkpt>
      <trkpt lat="46.33227" lon="6.46224">
        <ele>610</ele>
        <time>2012-11-24T11:41:29Z</time>
      </trkpt>
      <trkpt lat="46.33228" lon="6.46226">
        <ele>609</ele>
        <time>2012-11-24T11:41:30Z</time>
      </trkpt>
      <trkpt lat="46.3323" lon="6.46227">
        <ele>609</ele>
        <time>2012-11-24T11:41:31Z</time>
      </trkpt>
      <trkpt lat="46.33233" lon="6.46228">
        <ele>608</ele>
        <time>2012-11-24T11:41:32Z</time>
      </trkpt>
      <trkpt lat="46.33236" lon="6.46228">
        <ele>607</ele>
        <time>2012-11-24T11:41:33Z</time>
      </trkpt>
      <trkpt lat="46.33238" lon="6.4623">
        <ele>607</ele>
        <time>2012-11-24T11:41:34Z</time>
      </trkpt>
      <trkpt lat="46.33241" lon="6.46231">
        <ele>606</ele>
        <time>2012-11-24T11:41:35Z</time>
      </trkpt>
      <trkpt lat="46.33243" lon="6.46233">
        <ele>606</ele>
        <time>2012-11-24T11:41:36Z</time>
      </trkpt>
      <trkpt lat="46.33245" lon="6.46234">
        <ele>606</ele>
        <time>2012-11-24T11:41:37Z</time>
      </trkpt>
      <trkpt lat="46.33247" lon="6.46234">
        <ele>606</ele>
        <time>2012-11-24T11:41:38Z</time>
      </trkpt>
      <trkpt lat="46.3325" lon="6.46236">
        <ele>606</ele>
        <time>2012-11-24T11:41:39Z</time>
      </trkpt>
      <trkpt lat="46.33252" lon="6.46237">
        <ele>605</ele>
        <time>2012-11-24T11:41:40Z</time>
      </trkpt>
      <trkpt lat="46.33254" lon="6.46237">
        <ele>605</ele>
        <time>2012-11-24T11:41:41Z</time>
      </trkpt>
      <trkpt lat="46.33257" lon="6.46238">
        <ele>604</ele>
        <time>2012-11-24T11:41:42Z</time>
      </trkpt>
      <trkpt lat="46.33259" lon="6.46239">
        <ele>603</ele>
        <time>2012-11-24T11:41:43Z</time>
      </trkpt>
      <trkpt lat="46.33261" lon="6.4624">
        <ele>602</ele>
        <time>2012-11-24T11:41:44Z</time>
      </trkpt>
      <trkpt lat="46.33263" lon="6.46242">
        <ele>601</ele>
        <time>2012-11-24T11:41:45Z</time>
      </trkpt>
      <trkpt lat="46.33266" lon="6.46243">
        <ele>600</ele>
        <time>2012-11-24T11:41:46Z</time>
      </trkpt>
      <trkpt lat="46.33268" lon="6.46244">
        <ele>599</ele>
        <time>2012-11-24T11:41:47Z</time>
      </trkpt>
      <trkpt lat="46.33271" lon="6.46245">
        <ele>598</ele>
        <time>2012-11-24T11:41:48Z</time>
      </trkpt>
      <trkpt lat="46.33273" lon="6.46247">
        <ele>597</ele>
        <time>2012-11-24T11:41:49Z</time>
      </trkpt>
      <trkpt lat="46.33275" lon="6.4625">
        <ele>597</ele>
        <time>2012-11-24T11:41:50Z</time>
      </trkpt>
      <trkpt lat="46.33276" lon="6.46252">
        <ele>596</ele>
        <time>2012-11-24T11:41:51Z</time>
      </trkpt>
      <trkpt lat="46.33278" lon="6.46254">
        <ele>595</ele>
        <time>2012-11-24T11:41:52Z</time>
      </trkpt>
      <trkpt lat="46.3328" lon="6.46256">
        <ele>595</ele>
        <time>2012-11-24T11:41:53Z</time>
      </trkpt>
      <trkpt lat="46.33283" lon="6.46258">
        <ele>594</ele>
        <time>2012-11-24T11:41:54Z</time>
      </trkpt>
      <trkpt lat="46.33284" lon="6.4626">
        <ele>594</ele>
        <time>2012-11-24T11:41:55Z</time>
      </trkpt>
      <trkpt lat="46.33287" lon="6.46262">
        <ele>594</ele>
        <time>2012-11-24T11:41:56Z</time>
      </trkpt>
      <trkpt lat="46.33289" lon="6.46264">
        <ele>594</ele>
        <time>2012-11-24T11:41:57Z</time>
      </trkpt>
      <trkpt lat="46.33291" lon="6.46267">
        <ele>594</ele>
        <time>2012-11-24T11:41:58Z</time>
      </trkpt>
      <trkpt lat="46.33292" lon="6.46268">
        <ele>594</ele>
        <time>2012-11-24T11:41:59Z</time>
      </trkpt>
      <trkpt lat="46.33293" lon="6.4627">
        <ele>593</ele>
        <time>2012-11-24T11:42:00Z</time>
      </trkpt>
      <trkpt lat="46.33294" lon="6.46273">
        <ele>593</ele>
        <time>2012-11-24T11:42:01Z</time>
      </trkpt>
      <trkpt lat="46.33295" lon="6.46275">
        <ele>593</ele>
        <time>2012-11-24T11:42:02Z</time>
      </trkpt>
      <trkpt lat="46.33296" lon="6.46277">
        <ele>592</ele>
        <time>2012-11-24T11:42:03Z</time>
      </trkpt>
      <trkpt lat="46.33297" lon="6.46279">
        <ele>591</ele>
        <time>2012-11-24T11:42:04Z</time>
      </trkpt>
      <trkpt lat="46.33299" lon="6.4628">
        <ele>590</ele>
        <time>2012-11-24T11:42:05Z</time>
      </trkpt>
      <trkpt lat="46.33301" lon="6.46281">
        <ele>590</ele>
        <time>2012-11-24T11:42:06Z</time>
      </trkpt>
      <trkpt lat="46.33303" lon="6.46281">
        <ele>589</ele>
        <time>2012-11-24T11:42:07Z</time>
      </trkpt>
      <trkpt lat="46.33304" lon="6.46283">
        <ele>588</ele>
        <time>2012-11-24T11:42:08Z</time>
      </trkpt>
      <trkpt lat="46.33305" lon="6.46284">
        <ele>587</ele>
        <time>2012-11-24T11:42:09Z</time>
      </trkpt>
      <trkpt lat="46.33307" lon="6.46285">
        <ele>586</ele>
        <time>2012-11-24T11:42:10Z</time>
      </trkpt>
      <trkpt lat="46.33308" lon="6.46285">
        <ele>585</ele>
        <time>2012-11-24T11:42:11Z</time>
      </trkpt>
      <trkpt lat="46.3331" lon="6.46286">
        <ele>584</ele>
        <time>2012-11-24T11:42:12Z</time>
      </trkpt>
      <trkpt lat="46.33312" lon="6.46286">
        <ele>583</ele>
        <time>2012-11-24T11:42:13Z</time>
      </trkpt>
      <trkpt lat="46.33314" lon="6.46287">
        <ele>582</ele>
        <time>2012-11-24T11:42:14Z</time>
      </trkpt>
      <trkpt lat="46.33316" lon="6.46288">
        <ele>581</ele>
        <time>2012-11-24T11:42:15Z</time>
      </trkpt>
      <trkpt lat="46.33318" lon="6.46289">
        <ele>580</ele>
        <time>2012-11-24T11:42:16Z</time>
      </trkpt>
      <trkpt lat="46.3332" lon="6.46289">
        <ele>579</ele>
        <time>2012-11-24T11:42:17Z</time>
      </trkpt>
      <trkpt lat="46.33321" lon="6.46289">
        <ele>578</ele>
        <time>2012-11-24T11:42:18Z</time>
      </trkpt>
      <trkpt lat="46.33325" lon="6.46288">
        <ele>577</ele>
        <time>2012-11-24T11:42:19Z</time>
      </trkpt>
      <trkpt lat="46.33328" lon="6.46287">
        <ele>576</ele>
        <time>2012-11-24T11:42:20Z</time>
      </trkpt>
      <trkpt lat="46.33332" lon="6.46287">
        <ele>575</ele>
        <time>2012-11-24T11:42:21Z</time>
      </trkpt>
      <trkpt lat="46.33335" lon="6.46286">
        <ele>574</ele>
        <time>2012-11-24T11:42:22Z</time>
      </trkpt>
      <trkpt lat="46.33339" lon="6.46286">
        <ele>573</ele>
        <time>2012-11-24T11:42:23Z</time>
      </trkpt>
      <trkpt lat="46.33342" lon="6.46286">
        <ele>572</ele>
        <time>2012-11-24T11:42:24Z</time>
      </trkpt>
      <trkpt lat="46.33345" lon="6.46287">
        <ele>571</ele>
        <time>2012-11-24T11:42:25Z</time>
      </trkpt>
      <trkpt lat="46.33349" lon="6.46286">
        <ele>570</ele>
        <time>2012-11-24T11:42:26Z</time>
      </trkpt>
      <trkpt lat="46.33352" lon="6.46286">
        <ele>570</ele>
        <time>2012-11-24T11:42:27Z</time>
      </trkpt>
      <trkpt lat="46.33355" lon="6.46286">
        <ele>570</ele>
        <time>2012-11-24T11:42:28Z</time>
      </trkpt>
      <trkpt lat="46.33358" lon="6.46286">
        <ele>570</ele>
        <time>2012-11-24T11:42:29Z</time>
      </trkpt>
      <trkpt lat="46.33361" lon="6.46286">
        <ele>569</ele>
        <time>2012-11-24T11:42:30Z</time>
      </trkpt>
      <trkpt lat="46.33363" lon="6.46286">
        <ele>569</ele>
        <time>2012-11-24T11:42:31Z</time>
      </trkpt>
      <trkpt lat="46.33366" lon="6.46286">
        <ele>569</ele>
        <time>2012-11-24T11:42:32Z</time>
      </trkpt>
      <trkpt lat="46.33369" lon="6.46286">
        <ele>568</ele>
        <time>2012-11-24T11:42:33Z</time>
      </trkpt>
      <trkpt lat="46.3337" lon="6.46287">
        <ele>567</ele>
        <time>2012-11-24T11:42:34Z</time>
      </trkpt>
      <trkpt lat="46.33373" lon="6.46286">
        <ele>567</ele>
        <time>2012-11-24T11:42:35Z</time>
      </trkpt>
      <trkpt lat="46.33377" lon="6.46286">
        <ele>567</ele>
        <time>2012-11-24T11:42:36Z</time>
      </trkpt>
      <trkpt lat="46.3338" lon="6.46287">
        <ele>566</ele>
        <time>2012-11-24T11:42:37Z</time>
      </trkpt>
      <trkpt lat="46.33383" lon="6.46287">
        <ele>566</ele>
        <time>2012-11-24T11:42:38Z</time>
      </trkpt>
      <trkpt lat="46.33386" lon="6.46288">
        <ele>566</ele>
        <time>2012-11-24T11:42:39Z</time>
      </trkpt>
      <trkpt lat="46.33389" lon="6.46288">
        <ele>566</ele>
        <time>2012-11-24T11:42:40Z</time>
      </trkpt>
      <trkpt lat="46.33392" lon="6.46288">
        <ele>566</ele>
        <time>2012-11-24T11:42:41Z</time>
      </trkpt>
      <trkpt lat="46.33395" lon="6.46289">
        <ele>565</ele>
        <time>2012-11-24T11:42:42Z</time>
      </trkpt>
      <trkpt lat="46.33397" lon="6.46289">
        <ele>565</ele>
        <time>2012-11-24T11:42:43Z</time>
      </trkpt>
      <trkpt lat="46.33399" lon="6.46289">
        <ele>564</ele>
        <time>2012-11-24T11:42:44Z</time>
      </trkpt>
      <trkpt lat="46.33401" lon="6.4629">
        <ele>564</ele>
        <time>2012-11-24T11:42:45Z</time>
      </trkpt>
      <trkpt lat="46.33404" lon="6.4629">
        <ele>563</ele>
        <time>2012-11-24T11:42:46Z</time>
      </trkpt>
      <trkpt lat="46.33406" lon="6.46291">
        <ele>562</ele>
        <time>2012-11-24T11:42:47Z</time>
      </trkpt>
      <trkpt lat="46.33408" lon="6.46292">
        <ele>561</ele>
        <time>2012-11-24T11:42:48Z</time>
      </trkpt>
      <trkpt lat="46.33411" lon="6.46292">
        <ele>560</ele>
        <time>2012-11-24T11:42:49Z</time>
      </trkpt>
      <trkpt lat="46.33413" lon="6.46292">
        <ele>559</ele>
        <time>2012-11-24T11:42:50Z</time>
      </trkpt>
      <trkpt lat="46.33416" lon="6.46292">
        <ele>558</ele>
        <time>2012-11-24T11:42:51Z</time>
      </trkpt>
      <trkpt lat="46.3342" lon="6.46293">
        <ele>558</ele>
        <time>2012-11-24T11:42:52Z</time>
      </trkpt>
      <trkpt lat="46.33423" lon="6.46294">
        <ele>558</ele>
        <time>2012-11-24T11:42:53Z</time>
      </trkpt>
      <trkpt lat="46.33426" lon="6.46295">
        <ele>557</ele>
        <time>2012-11-24T11:42:54Z</time>
      </trkpt>
      <trkpt lat="46.33427" lon="6.46297">
        <ele>557</ele>
        <time>2012-11-24T11:42:55Z</time>
      </trkpt>
      <trkpt lat="46.3343" lon="6.46299">
        <ele>556</ele>
        <time>2012-11-24T11:42:56Z</time>
      </trkpt>
      <trkpt lat="46.33433" lon="6.46301">
        <ele>556</ele>
        <time>2012-11-24T11:42:57Z</time>
      </trkpt>
      <trkpt lat="46.33435" lon="6.46302">
        <ele>555</ele>
        <time>2012-11-24T11:42:58Z</time>
      </trkpt>
      <trkpt lat="46.33438" lon="6.46303">
        <ele>555</ele>
        <time>2012-11-24T11:42:59Z</time>
      </trkpt>
      <trkpt lat="46.33441" lon="6.46304">
        <ele>554</ele>
        <time>2012-11-24T11:43:00Z</time>
      </trkpt>
      <trkpt lat="46.33443" lon="6.46306">
        <ele>554</ele>
        <time>2012-11-24T11:43:01Z</time>
      </trkpt>
      <trkpt lat="46.33445" lon="6.46308">
        <ele>554</ele>
        <time>2012-11-24T11:43:02Z</time>
      </trkpt>
      <trkpt lat="46.33448" lon="6.46309">
        <ele>553</ele>
        <time>2012-11-24T11:43:03Z</time>
      </trkpt>
      <trkpt lat="46.33451" lon="6.46311">
        <ele>553</ele>
        <time>2012-11-24T11:43:04Z</time>
      </trkpt>
      <trkpt lat="46.33454" lon="6.46312">
        <ele>553</ele>
        <time>2012-11-24T11:43:05Z</time>
      </trkpt>
      <trkpt lat="46.33456" lon="6.46313">
        <ele>552</ele>
        <time>2012-11-24T11:43:06Z</time>
      </trkpt>
      <trkpt lat="46.33458" lon="6.46314">
        <ele>552</ele>
        <time>2012-11-24T11:43:07Z</time>
      </trkpt>
      <trkpt lat="46.33461" lon="6.46315">
        <ele>552</ele>
        <time>2012-11-24T11:43:08Z</time>
      </trkpt>
      <trkpt lat="46.33463" lon="6.46315">
        <ele>552</ele>
        <time>2012-11-24T11:43:09Z</time>
      </trkpt>
      <trkpt lat="46.33466" lon="6.46317">
        <ele>552</ele>
        <time>2012-11-24T11:43:10Z</time>
      </trkpt>
      <trkpt lat="46.33469" lon="6.46317">
        <ele>552</ele>
        <time>2012-11-24T11:43:11Z</time>
      </trkpt>
      <trkpt lat="46.33471" lon="6.46318">
        <ele>552</ele>
        <time>2012-11-24T11:43:12Z</time>
      </trkpt>
      <trkpt lat="46.33472" lon="6.46319">
        <ele>552</ele>
        <time>2012-11-24T11:43:13Z</time>
      </trkpt>
      <trkpt lat="46.33475" lon="6.46318">
        <ele>552</ele>
        <time>2012-11-24T11:43:14Z</time>
      </trkpt>
      <trkpt lat="46.33478" lon="6.46318">
        <ele>552</ele>
        <time>2012-11-24T11:43:15Z</time>
      </trkpt>
      <trkpt lat="46.3348" lon="6.46317">
        <ele>552</ele>
        <time>2012-11-24T11:43:16Z</time>
      </trkpt>
      <trkpt lat="46.33483" lon="6.46318">
        <ele>552</ele>
        <time>2012-11-24T11:43:17Z</time>
      </trkpt>
      <trkpt lat="46.33485" lon="6.46319">
        <ele>552</ele>
        <time>2012-11-24T11:43:18Z</time>
      </trkpt>
      <trkpt lat="46.33488" lon="6.4632">
        <ele>552</ele>
        <time>2012-11-24T11:43:19Z</time>
      </trkpt>
      <trkpt lat="46.3349" lon="6.46321">
        <ele>552</ele>
        <time>2012-11-24T11:43:20Z</time>
      </trkpt>
      <trkpt lat="46.33493" lon="6.46322">
        <ele>552</ele>
        <time>2012-11-24T11:43:21Z</time>
      </trkpt>
      <trkpt lat="46.33495" lon="6.46322">
        <ele>551</ele>
        <time>2012-11-24T11:43:22Z</time>
      </trkpt>
      <trkpt lat="46.33497" lon="6.46322">
        <ele>551</ele>
        <time>2012-11-24T11:43:23Z</time>
      </trkpt>
      <trkpt lat="46.33499" lon="6.46321">
        <ele>550</ele>
        <time>2012-11-24T11:43:24Z</time>
      </trkpt>
      <trkpt lat="46.33501" lon="6.4632">
        <ele>549</ele>
        <time>2012-11-24T11:43:25Z</time>
      </trkpt>
      <trkpt lat="46.33503" lon="6.46318">
        <ele>548</ele>
        <time>2012-11-24T11:43:26Z</time>
      </trkpt>
      <trkpt lat="46.33506" lon="6.46317">
        <ele>548</ele>
        <time>2012-11-24T11:43:27Z</time>
      </trkpt>
      <trkpt lat="46.33508" lon="6.46316">
        <ele>547</ele>
        <time>2012-11-24T11:43:28Z</time>
      </trkpt>
      <trkpt lat="46.3351" lon="6.46314">
        <ele>547</ele>
        <time>2012-11-24T11:43:29Z</time>
      </trkpt>
      <trkpt lat="46.33512" lon="6.46313">
        <ele>546</ele>
        <time>2012-11-24T11:43:30Z</time>
      </trkpt>
      <trkpt lat="46.33514" lon="6.46312">
        <ele>546</ele>
        <time>2012-11-24T11:43:31Z</time>
      </trkpt>
      <trkpt lat="46.33516" lon="6.4631">
        <ele>546</ele>
        <time>2012-11-24T11:43:32Z</time>
      </trkpt>
      <trkpt lat="46.33519" lon="6.46308">
        <ele>546</ele>
        <time>2012-11-24T11:43:33Z</time>
      </trkpt>
      <trkpt lat="46.33521" lon="6.46307">
        <ele>546</ele>
        <time>2012-11-24T11:43:34Z</time>
      </trkpt>
      <trkpt lat="46.33523" lon="6.46305">
        <ele>546</ele>
        <time>2012-11-24T11:43:35Z</time>
      </trkpt>
      <trkpt lat="46.33525" lon="6.46304">
        <ele>546</ele>
        <time>2012-11-24T11:43:36Z</time>
      </trkpt>
      <trkpt lat="46.33527" lon="6.46303">
        <ele>546</ele>
        <time>2012-11-24T11:43:37Z</time>
      </trkpt>
      <trkpt lat="46.3353" lon="6.46302">
        <ele>546</ele>
        <time>2012-11-24T11:43:38Z</time>
      </trkpt>
      <trkpt lat="46.33532" lon="6.463">
        <ele>546</ele>
        <time>2012-11-24T11:43:39Z</time>
      </trkpt>
      <trkpt lat="46.33534" lon="6.46299">
        <ele>546</ele>
        <time>2012-11-24T11:43:40Z</time>
      </trkpt>
      <trkpt lat="46.33537" lon="6.46298">
        <ele>546</ele>
        <time>2012-11-24T11:43:41Z</time>
      </trkpt>
      <trkpt lat="46.33539" lon="6.46297">
        <ele>546</ele>
        <time>2012-11-24T11:43:42Z</time>
      </trkpt>
      <trkpt lat="46.33541" lon="6.46295">
        <ele>546</ele>
        <time>2012-11-24T11:43:43Z</time>
      </trkpt>
      <trkpt lat="46.33543" lon="6.46294">
        <ele>546</ele>
        <time>2012-11-24T11:43:44Z</time>
      </trkpt>
      <trkpt lat="46.33546" lon="6.46294">
        <ele>546</ele>
        <time>2012-11-24T11:43:45Z</time>
      </trkpt>
      <trkpt lat="46.33549" lon="6.46293">
        <ele>546</ele>
        <time>2012-11-24T11:43:46Z</time>
      </trkpt>
      <trkpt lat="46.33551" lon="6.46293">
        <ele>546</ele>
        <time>2012-11-24T11:43:47Z</time>
      </trkpt>
      <trkpt lat="46.33554" lon="6.46294">
        <ele>546</ele>
        <time>2012-11-24T11:43:48Z</time>
      </trkpt>
      <trkpt lat="46.33556" lon="6.46295">
        <ele>546</ele>
        <time>2012-11-24T11:43:49Z</time>
      </trkpt>
      <trkpt lat="46.33558" lon="6.46298">
        <ele>546</ele>
        <time>2012-11-24T11:43:50Z</time>
      </trkpt>
      <trkpt lat="46.33559" lon="6.46301">
        <ele>546</ele>
        <time>2012-11-24T11:43:51Z</time>
      </trkpt>
      <trkpt lat="46.3356" lon="6.46304">
        <ele>546</ele>
        <time>2012-11-24T11:43:52Z</time>
      </trkpt>
      <trkpt lat="46.33561" lon="6.46308">
        <ele>546</ele>
        <time>2012-11-24T11:43:53Z</time>
      </trkpt>
      <trkpt lat="46.33561" lon="6.46312">
        <ele>546</ele>
        <time>2012-11-24T11:43:54Z</time>
      </trkpt>
      <trkpt lat="46.33563" lon="6.46316">
        <ele>546</ele>
        <time>2012-11-24T11:43:55Z</time>
      </trkpt>
      <trkpt lat="46.33564" lon="6.46319">
        <ele>546</ele>
        <time>2012-11-24T11:43:56Z</time>
      </trkpt>
      <trkpt lat="46.33565" lon="6.46323">
        <ele>546</ele>
        <time>2012-11-24T11:43:57Z</time>
      </trkpt>
      <trkpt lat="46.33565" lon="6.46326">
        <ele>546</ele>
        <time>2012-11-24T11:43:58Z</time>
      </trkpt>
      <trkpt lat="46.33566" lon="6.46329">
        <ele>546</ele>
        <time>2012-11-24T11:43:59Z</time>
      </trkpt>
      <trkpt lat="46.33567" lon="6.46332">
        <ele>546</ele>
        <time>2012-11-24T11:44:00Z</time>
      </trkpt>
      <trkpt lat="46.33569" lon="6.46335">
        <ele>546</ele>
        <time>2012-11-24T11:44:01Z</time>
      </trkpt>
      <trkpt lat="46.3357" lon="6.46338">
        <ele>546</ele>
        <time>2012-11-24T11:44:02Z</time>
      </trkpt>
      <trkpt lat="46.33571" lon="6.46341">
        <ele>546</ele>
        <time>2012-11-24T11:44:03Z</time>
      </trkpt>
      <trkpt lat="46.33572" lon="6.46345">
        <ele>546</ele>
        <time>2012-11-24T11:44:04Z</time>
      </trkpt>
      <trkpt lat="46.33574" lon="6.46348">
        <ele>547</ele>
        <time>2012-11-24T11:44:05Z</time>
      </trkpt>
      <trkpt lat="46.33575" lon="6.46351">
        <ele>547</ele>
        <time>2012-11-24T11:44:06Z</time>
      </trkpt>
      <trkpt lat="46.33575" lon="6.46354">
        <ele>547</ele>
        <time>2012-11-24T11:44:07Z</time>
      </trkpt>
      <trkpt lat="46.33576" lon="6.46357">
        <ele>547</ele>
        <time>2012-11-24T11:44:08Z</time>
      </trkpt>
      <trkpt lat="46.33577" lon="6.46359">
        <ele>547</ele>
        <time>2012-11-24T11:44:09Z</time>
      </trkpt>
      <trkpt lat="46.33577" lon="6.46362">
        <ele>547</ele>
        <time>2012-11-24T11:44:10Z</time>
      </trkpt>
      <trkpt lat="46.33577" lon="6.46365">
        <ele>547</ele>
        <time>2012-11-24T11:44:11Z</time>
      </trkpt>
      <trkpt lat="46.33577" lon="6.46368">
        <ele>547</ele>
        <time>2012-11-24T11:44:12Z</time>
      </trkpt>
      <trkpt lat="46.33577" lon="6.46372">
        <ele>547</ele>
        <time>2012-11-24T11:44:13Z</time>
      </trkpt>
      <trkpt lat="46.33578" lon="6.46376">
        <ele>547</ele>
        <time>2012-11-24T11:44:14Z</time>
      </trkpt>
      <trkpt lat="46.33578" lon="6.46379">
        <ele>547</ele>
        <time>2012-11-24T11:44:15Z</time>
      </trkpt>
      <trkpt lat="46.33578" lon="6.46382">
        <ele>547</ele>
        <time>2012-11-24T11:44:16Z</time>
      </trkpt>
      <trkpt lat="46.33578" lon="6.46385">
        <ele>547</ele>
        <time>2012-11-24T11:44:17Z</time>
      </trkpt>
      <trkpt lat="46.33579" lon="6.46388">
        <ele>547</ele>
        <time>2012-11-24T11:44:18Z</time>
      </trkpt>
      <trkpt lat="46.33579" lon="6.4639">
        <ele>547</ele>
        <time>2012-11-24T11:44:19Z</time>
      </trkpt>
      <trkpt lat="46.33579" lon="6.4639">
        <ele>547</ele>
        <time>2012-11-24T11:44:20Z</time>
      </trkpt>
    </trkseg>
  </trk>
</gpx>